<?xml version='1.0' encoding='UTF-8'?><gpx version="1.1" creator="JPX - https://github.com/jenetics/jpx" xmlns="http://www.topografix.com/GPX/1/1"><trk><trkseg><trkpt lat="46.4835327" lon="12.8652627"><ele>534.0</ele><time>2026-04-12T07:30:49Z</time></trkpt><trkpt lat="46.4835988" lon="12.8652501"><ele>534.0</ele><time>2026-04-12T07:30:50Z</time></trkpt><trkpt lat="46.4836709" lon="12.8652432"><ele>534.0</ele><time>2026-04-12T07:30:51Z</time></trkpt><trkpt lat="46.4837465" lon="12.8652287"><ele>534.0</ele><time>2026-04-12T07:30:52Z</time></trkpt><trkpt lat="46.4838365" lon="12.8652099"><ele>534.0</ele><time>2026-04-12T07:30:53Z</time></trkpt><trkpt lat="46.4839303" lon="12.8651952"><ele>534.0</ele><time>2026-04-12T07:30:54Z</time></trkpt><trkpt lat="46.4840393" lon="12.8651846"><ele>534.8</ele><time>2026-04-12T07:30:55Z</time></trkpt><trkpt lat="46.4841447" lon="12.8651717"><ele>535.5999999999999</ele><time>2026-04-12T07:30:56Z</time></trkpt><trkpt lat="46.4842574" lon="12.8651553"><ele>536.4</ele><time>2026-04-12T07:30:57.001Z</time></trkpt><trkpt lat="46.4843697" lon="12.8651318"><ele>537.1999999999999</ele><time>2026-04-12T07:30:58Z</time></trkpt><trkpt lat="46.4844844" lon="12.8651107"><ele>538.0</ele><time>2026-04-12T07:30:59.001Z</time></trkpt><trkpt lat="46.4846024" lon="12.8650903"><ele>536.0</ele><time>2026-04-12T07:31:00Z</time></trkpt><trkpt lat="46.4847211" lon="12.8650725"><ele>534.0</ele><time>2026-04-12T07:31:01Z</time></trkpt><trkpt lat="46.4848349" lon="12.8650574"><ele>532.0</ele><time>2026-04-12T07:31:02Z</time></trkpt><trkpt lat="46.4849435" lon="12.8650407"><ele>530.0</ele><time>2026-04-12T07:31:03Z</time></trkpt><trkpt lat="46.4850549" lon="12.8650243"><ele>530.0</ele><time>2026-04-12T07:31:04Z</time></trkpt><trkpt lat="46.4851635" lon="12.8650092"><ele>530.0</ele><time>2026-04-12T07:31:05Z</time></trkpt><trkpt lat="46.4852752" lon="12.8649954"><ele>530.0</ele><time>2026-04-12T07:31:06Z</time></trkpt><trkpt lat="46.4853891" lon="12.8649803"><ele>530.0</ele><time>2026-04-12T07:31:07Z</time></trkpt><trkpt lat="46.4855057" lon="12.8649636"><ele>530.5</ele><time>2026-04-12T07:31:08Z</time></trkpt><trkpt lat="46.4856181" lon="12.8649461"><ele>531.0</ele><time>2026-04-12T07:31:09.001Z</time></trkpt><trkpt lat="46.4857347" lon="12.8649306"><ele>531.5</ele><time>2026-04-12T07:31:10.001Z</time></trkpt><trkpt lat="46.4858574" lon="12.8649155"><ele>532.0</ele><time>2026-04-12T07:31:11Z</time></trkpt><trkpt lat="46.4859883" lon="12.8648956"><ele>532.0</ele><time>2026-04-12T07:31:12Z</time></trkpt><trkpt lat="46.4861197" lon="12.8648784"><ele>532.0</ele><time>2026-04-12T07:31:13.001Z</time></trkpt><trkpt lat="46.4862502" lon="12.8648622"><ele>532.0</ele><time>2026-04-12T07:31:14Z</time></trkpt><trkpt lat="46.4863816" lon="12.86484"><ele>532.0</ele><time>2026-04-12T07:31:15.001Z</time></trkpt><trkpt lat="46.4865101" lon="12.864817"><ele>533.5</ele><time>2026-04-12T07:31:16.001Z</time></trkpt><trkpt lat="46.4866375" lon="12.8648108"><ele>535.0</ele><time>2026-04-12T07:31:17.002Z</time></trkpt><trkpt lat="46.4867629" lon="12.8648222"><ele>536.5</ele><time>2026-04-12T07:31:18.001Z</time></trkpt><trkpt lat="46.486886" lon="12.8648451"><ele>538.0</ele><time>2026-04-12T07:31:19Z</time></trkpt><trkpt lat="46.4870103" lon="12.8648663"><ele>538.5</ele><time>2026-04-12T07:31:20.001Z</time></trkpt><trkpt lat="46.4871347" lon="12.8648855"><ele>539.0</ele><time>2026-04-12T07:31:21Z</time></trkpt><trkpt lat="46.4872541" lon="12.8649038"><ele>539.5</ele><time>2026-04-12T07:31:22Z</time></trkpt><trkpt lat="46.4873764" lon="12.8649218"><ele>540.0</ele><time>2026-04-12T07:31:23.001Z</time></trkpt><trkpt lat="46.4875076" lon="12.8649435"><ele>540.0</ele><time>2026-04-12T07:31:24.001Z</time></trkpt><trkpt lat="46.4876346" lon="12.8649654"><ele>540.0</ele><time>2026-04-12T07:31:25.001Z</time></trkpt><trkpt lat="46.4877679" lon="12.8649877"><ele>540.0</ele><time>2026-04-12T07:31:26.001Z</time></trkpt><trkpt lat="46.4878987" lon="12.8650041"><ele>540.0</ele><time>2026-04-12T07:31:27Z</time></trkpt><trkpt lat="46.48803" lon="12.8650233"><ele>539.0</ele><time>2026-04-12T07:31:28.001Z</time></trkpt><trkpt lat="46.4881593" lon="12.8650421"><ele>538.0</ele><time>2026-04-12T07:31:29Z</time></trkpt><trkpt lat="46.4882914" lon="12.8650628"><ele>537.0</ele><time>2026-04-12T07:31:30.002Z</time></trkpt><trkpt lat="46.4884217" lon="12.8650808"><ele>536.0</ele><time>2026-04-12T07:31:31Z</time></trkpt><trkpt lat="46.4885483" lon="12.8651031"><ele>537.0</ele><time>2026-04-12T07:31:32Z</time></trkpt><trkpt lat="46.4886763" lon="12.8651218"><ele>538.0</ele><time>2026-04-12T07:31:33Z</time></trkpt><trkpt lat="46.488807" lon="12.865137"><ele>539.0</ele><time>2026-04-12T07:31:34.001Z</time></trkpt><trkpt lat="46.4889484" lon="12.8651608"><ele>540.0</ele><time>2026-04-12T07:31:35Z</time></trkpt><trkpt lat="46.4891144" lon="12.8651864"><ele>540.0</ele><time>2026-04-12T07:31:36Z</time></trkpt><trkpt lat="46.4892838" lon="12.8652089"><ele>540.0</ele><time>2026-04-12T07:31:37Z</time></trkpt><trkpt lat="46.4894509" lon="12.8652352"><ele>540.0</ele><time>2026-04-12T07:31:38.001Z</time></trkpt><trkpt lat="46.4896229" lon="12.865264"><ele>538.0</ele><time>2026-04-12T07:31:39Z</time></trkpt><trkpt lat="46.4897896" lon="12.8652952"><ele>536.0</ele><time>2026-04-12T07:31:40Z</time></trkpt><trkpt lat="46.4899607" lon="12.8653262"><ele>534.0</ele><time>2026-04-12T07:31:41Z</time></trkpt><trkpt lat="46.4901265" lon="12.8653584"><ele>534.0</ele><time>2026-04-12T07:31:42Z</time></trkpt><trkpt lat="46.4902943" lon="12.8653979"><ele>534.0</ele><time>2026-04-12T07:31:43Z</time></trkpt><trkpt lat="46.4904579" lon="12.865439"><ele>534.0</ele><time>2026-04-12T07:31:44Z</time></trkpt><trkpt lat="46.4906223" lon="12.8654846"><ele>533.0</ele><time>2026-04-12T07:31:45.002Z</time></trkpt><trkpt lat="46.4907792" lon="12.8655293"><ele>532.0</ele><time>2026-04-12T07:31:46Z</time></trkpt><trkpt lat="46.4909353" lon="12.8655715"><ele>531.0</ele><time>2026-04-12T07:31:47.001Z</time></trkpt><trkpt lat="46.491093" lon="12.8656161"><ele>531.0</ele><time>2026-04-12T07:31:48Z</time></trkpt><trkpt lat="46.4912516" lon="12.8656564"><ele>531.0</ele><time>2026-04-12T07:31:49Z</time></trkpt><trkpt lat="46.4914097" lon="12.8656918"><ele>531.0</ele><time>2026-04-12T07:31:50Z</time></trkpt><trkpt lat="46.4915646" lon="12.8657207"><ele>528.0</ele><time>2026-04-12T07:31:51Z</time></trkpt><trkpt lat="46.4917255" lon="12.8657422"><ele>525.0</ele><time>2026-04-12T07:31:52Z</time></trkpt><trkpt lat="46.4918792" lon="12.8657577"><ele>522.0</ele><time>2026-04-12T07:31:53.001Z</time></trkpt><trkpt lat="46.4920342" lon="12.8657769"><ele>521.0</ele><time>2026-04-12T07:31:54.001Z</time></trkpt><trkpt lat="46.4921872" lon="12.8657898"><ele>520.0</ele><time>2026-04-12T07:31:55Z</time></trkpt><trkpt lat="46.4923393" lon="12.8658087"><ele>519.0</ele><time>2026-04-12T07:31:56Z</time></trkpt><trkpt lat="46.4924924" lon="12.8658429"><ele>519.0</ele><time>2026-04-12T07:31:57Z</time></trkpt><trkpt lat="46.4926471" lon="12.8658753"><ele>519.0</ele><time>2026-04-12T07:31:58Z</time></trkpt><trkpt lat="46.4928006" lon="12.8659123"><ele>519.0</ele><time>2026-04-12T07:31:59Z</time></trkpt><trkpt lat="46.4929536" lon="12.865963"><ele>523.0</ele><time>2026-04-12T07:32:00.001Z</time></trkpt><trkpt lat="46.4931037" lon="12.8660067"><ele>527.0</ele><time>2026-04-12T07:32:01.001Z</time></trkpt><trkpt lat="46.4932542" lon="12.866056"><ele>531.0</ele><time>2026-04-12T07:32:02Z</time></trkpt><trkpt lat="46.4934049" lon="12.8661005"><ele>531.0</ele><time>2026-04-12T07:32:03.001Z</time></trkpt><trkpt lat="46.49356" lon="12.8661505"><ele>531.0</ele><time>2026-04-12T07:32:04Z</time></trkpt><trkpt lat="46.4937157" lon="12.8661998"><ele>531.0</ele><time>2026-04-12T07:32:05.001Z</time></trkpt><trkpt lat="46.4938752" lon="12.8662494"><ele>532.3333333333334</ele><time>2026-04-12T07:32:06.001Z</time></trkpt><trkpt lat="46.4940347" lon="12.8662965"><ele>533.6666666666667</ele><time>2026-04-12T07:32:07Z</time></trkpt><trkpt lat="46.4941933" lon="12.8663535"><ele>535.0</ele><time>2026-04-12T07:32:08Z</time></trkpt><trkpt lat="46.4943538" lon="12.8663977"><ele>535.0</ele><time>2026-04-12T07:32:09Z</time></trkpt><trkpt lat="46.4945207" lon="12.8664253"><ele>535.0</ele><time>2026-04-12T07:32:10.001Z</time></trkpt><trkpt lat="46.4946992" lon="12.8664458"><ele>535.0</ele><time>2026-04-12T07:32:11Z</time></trkpt><trkpt lat="46.4948787" lon="12.8664547"><ele>531.6666666666667</ele><time>2026-04-12T07:32:12Z</time></trkpt><trkpt lat="46.4950522" lon="12.8664624"><ele>528.3333333333334</ele><time>2026-04-12T07:32:13Z</time></trkpt><trkpt lat="46.4952166" lon="12.8664693"><ele>525.0</ele><time>2026-04-12T07:32:14Z</time></trkpt><trkpt lat="46.4953739" lon="12.8664752"><ele>523.3333333333334</ele><time>2026-04-12T07:32:15Z</time></trkpt><trkpt lat="46.495522" lon="12.8664893"><ele>521.6666666666667</ele><time>2026-04-12T07:32:16Z</time></trkpt><trkpt lat="46.4956796" lon="12.8665194"><ele>520.0</ele><time>2026-04-12T07:32:17.001Z</time></trkpt><trkpt lat="46.4958352" lon="12.866582"><ele>520.0</ele><time>2026-04-12T07:32:18Z</time></trkpt><trkpt lat="46.495995" lon="12.8666691"><ele>520.0</ele><time>2026-04-12T07:32:19Z</time></trkpt><trkpt lat="46.4961625" lon="12.8667474"><ele>520.0</ele><time>2026-04-12T07:32:20.001Z</time></trkpt><trkpt lat="46.4963318" lon="12.8667984"><ele>532.3333333333334</ele><time>2026-04-12T07:32:21Z</time></trkpt><trkpt lat="46.4964997" lon="12.8668243"><ele>544.6666666666666</ele><time>2026-04-12T07:32:22.001Z</time></trkpt><trkpt lat="46.496661" lon="12.8668296"><ele>557.0</ele><time>2026-04-12T07:32:23Z</time></trkpt><trkpt lat="46.496809" lon="12.8668111"><ele>546.75</ele><time>2026-04-12T07:32:24Z</time></trkpt><trkpt lat="46.4969516" lon="12.8667618"><ele>536.5</ele><time>2026-04-12T07:32:25Z</time></trkpt><trkpt lat="46.4970962" lon="12.866696"><ele>526.25</ele><time>2026-04-12T07:32:26Z</time></trkpt><trkpt lat="46.4972372" lon="12.8666259"><ele>516.0</ele><time>2026-04-12T07:32:27.001Z</time></trkpt><trkpt lat="46.4973851" lon="12.8665702"><ele>516.0</ele><time>2026-04-12T07:32:28.001Z</time></trkpt><trkpt lat="46.4975312" lon="12.8665308"><ele>516.0</ele><time>2026-04-12T07:32:29Z</time></trkpt><trkpt lat="46.4976806" lon="12.8664974"><ele>516.0</ele><time>2026-04-12T07:32:30.001Z</time></trkpt><trkpt lat="46.4978285" lon="12.8664677"><ele>516.0</ele><time>2026-04-12T07:32:31.001Z</time></trkpt><trkpt lat="46.4979795" lon="12.8664371"><ele>517.0</ele><time>2026-04-12T07:32:32.001Z</time></trkpt><trkpt lat="46.4981313" lon="12.8664133"><ele>518.0</ele><time>2026-04-12T07:32:33Z</time></trkpt><trkpt lat="46.4982813" lon="12.8663904"><ele>519.0</ele><time>2026-04-12T07:32:34Z</time></trkpt><trkpt lat="46.4984263" lon="12.8663713"><ele>520.0</ele><time>2026-04-12T07:32:35.001Z</time></trkpt><trkpt lat="46.498563" lon="12.8663547"><ele>520.0</ele><time>2026-04-12T07:32:36Z</time></trkpt><trkpt lat="46.4986985" lon="12.866335"><ele>520.0</ele><time>2026-04-12T07:32:37Z</time></trkpt><trkpt lat="46.4988347" lon="12.8662877"><ele>520.0</ele><time>2026-04-12T07:32:38.002Z</time></trkpt><trkpt lat="46.4989658" lon="12.8662205"><ele>520.0</ele><time>2026-04-12T07:32:39Z</time></trkpt><trkpt lat="46.4990939" lon="12.8661331"><ele>519.0</ele><time>2026-04-12T07:32:40Z</time></trkpt><trkpt lat="46.4992134" lon="12.866034"><ele>518.0</ele><time>2026-04-12T07:32:41Z</time></trkpt><trkpt lat="46.4993238" lon="12.8659317"><ele>517.0</ele><time>2026-04-12T07:32:42Z</time></trkpt><trkpt lat="46.4994264" lon="12.8658128"><ele>516.0</ele><time>2026-04-12T07:32:43.001Z</time></trkpt><trkpt lat="46.4995246" lon="12.8656827"><ele>518.0</ele><time>2026-04-12T07:32:44Z</time></trkpt><trkpt lat="46.4996236" lon="12.8655626"><ele>520.0</ele><time>2026-04-12T07:32:45Z</time></trkpt><trkpt lat="46.4997289" lon="12.8654654"><ele>522.0</ele><time>2026-04-12T07:32:46Z</time></trkpt><trkpt lat="46.4998449" lon="12.8653991"><ele>524.0</ele><time>2026-04-12T07:32:47.001Z</time></trkpt><trkpt lat="46.4999792" lon="12.8653778"><ele>524.0</ele><time>2026-04-12T07:32:48Z</time></trkpt><trkpt lat="46.5001299" lon="12.8653876"><ele>524.0</ele><time>2026-04-12T07:32:49Z</time></trkpt><trkpt lat="46.5002842" lon="12.8654003"><ele>524.0</ele><time>2026-04-12T07:32:50Z</time></trkpt><trkpt lat="46.5004472" lon="12.8654149"><ele>524.6666666666666</ele><time>2026-04-12T07:32:51Z</time></trkpt><trkpt lat="46.50061" lon="12.865422"><ele>525.3333333333334</ele><time>2026-04-12T07:32:52.001Z</time></trkpt><trkpt lat="46.5007735" lon="12.8654251"><ele>526.0</ele><time>2026-04-12T07:32:53Z</time></trkpt><trkpt lat="46.5009321" lon="12.8654235"><ele>526.0</ele><time>2026-04-12T07:32:54.001Z</time></trkpt><trkpt lat="46.5010917" lon="12.865424"><ele>526.0</ele><time>2026-04-12T07:32:55Z</time></trkpt><trkpt lat="46.5012492" lon="12.8654301"><ele>526.0</ele><time>2026-04-12T07:32:56.001Z</time></trkpt><trkpt lat="46.5014084" lon="12.8654422"><ele>527.6666666666667</ele><time>2026-04-12T07:32:57Z</time></trkpt><trkpt lat="46.5015631" lon="12.8654766"><ele>529.3333333333334</ele><time>2026-04-12T07:32:58.001Z</time></trkpt><trkpt lat="46.5017167" lon="12.8655171"><ele>531.0</ele><time>2026-04-12T07:32:59Z</time></trkpt><trkpt lat="46.5018689" lon="12.8655566"><ele>531.0</ele><time>2026-04-12T07:33:00Z</time></trkpt><trkpt lat="46.5020235" lon="12.8655816"><ele>531.0</ele><time>2026-04-12T07:33:01Z</time></trkpt><trkpt lat="46.5021781" lon="12.8655955"><ele>531.0</ele><time>2026-04-12T07:33:02Z</time></trkpt><trkpt lat="46.5023336" lon="12.8656048"><ele>529.0</ele><time>2026-04-12T07:33:03Z</time></trkpt><trkpt lat="46.5024922" lon="12.8656219"><ele>527.0</ele><time>2026-04-12T07:33:04Z</time></trkpt><trkpt lat="46.5026486" lon="12.8656325"><ele>525.0</ele><time>2026-04-12T07:33:05Z</time></trkpt><trkpt lat="46.5028059" lon="12.8656448"><ele>528.0</ele><time>2026-04-12T07:33:06.001Z</time></trkpt><trkpt lat="46.5029616" lon="12.8656532"><ele>531.0</ele><time>2026-04-12T07:33:07Z</time></trkpt><trkpt lat="46.503117" lon="12.8656569"><ele>534.0</ele><time>2026-04-12T07:33:08Z</time></trkpt><trkpt lat="46.5032755" lon="12.8656539"><ele>534.0</ele><time>2026-04-12T07:33:09Z</time></trkpt><trkpt lat="46.503432" lon="12.8656407"><ele>534.0</ele><time>2026-04-12T07:33:10.001Z</time></trkpt><trkpt lat="46.5035874" lon="12.865621"><ele>534.0</ele><time>2026-04-12T07:33:11.001Z</time></trkpt><trkpt lat="46.5037424" lon="12.8655944"><ele>537.6666666666666</ele><time>2026-04-12T07:33:12Z</time></trkpt><trkpt lat="46.503897" lon="12.8655577"><ele>541.3333333333333</ele><time>2026-04-12T07:33:13Z</time></trkpt><trkpt lat="46.5040493" lon="12.8655021"><ele>545.0</ele><time>2026-04-12T07:33:14Z</time></trkpt><trkpt lat="46.5041905" lon="12.8654354"><ele>545.0</ele><time>2026-04-12T07:33:15Z</time></trkpt><trkpt lat="46.5043272" lon="12.8653647"><ele>545.0</ele><time>2026-04-12T07:33:16Z</time></trkpt><trkpt lat="46.504451" lon="12.8652934"><ele>545.0</ele><time>2026-04-12T07:33:17Z</time></trkpt><trkpt lat="46.504566" lon="12.8652237"><ele>545.0</ele><time>2026-04-12T07:33:18Z</time></trkpt><trkpt lat="46.5046744" lon="12.8651641"><ele>541.4</ele><time>2026-04-12T07:33:19Z</time></trkpt><trkpt lat="46.50478" lon="12.8651031"><ele>537.8</ele><time>2026-04-12T07:33:20Z</time></trkpt><trkpt lat="46.5048766" lon="12.8650593"><ele>534.2</ele><time>2026-04-12T07:33:21Z</time></trkpt><trkpt lat="46.50496" lon="12.865022"><ele>530.6</ele><time>2026-04-12T07:33:22Z</time></trkpt><trkpt lat="46.5050436" lon="12.86499"><ele>527.0</ele><time>2026-04-12T07:33:23.001Z</time></trkpt><trkpt lat="46.5051313" lon="12.8649595"><ele>527.0</ele><time>2026-04-12T07:33:24Z</time></trkpt><trkpt lat="46.5052278" lon="12.8649381"><ele>527.0</ele><time>2026-04-12T07:33:25Z</time></trkpt><trkpt lat="46.5053344" lon="12.8649329"><ele>527.0</ele><time>2026-04-12T07:33:26.001Z</time></trkpt><trkpt lat="46.5054508" lon="12.8649413"><ele>527.0</ele><time>2026-04-12T07:33:27Z</time></trkpt><trkpt lat="46.5055768" lon="12.8649477"><ele>527.0</ele><time>2026-04-12T07:33:28Z</time></trkpt><trkpt lat="46.5057044" lon="12.864964"><ele>529.25</ele><time>2026-04-12T07:33:29Z</time></trkpt><trkpt lat="46.5058364" lon="12.8649955"><ele>531.5</ele><time>2026-04-12T07:33:30.001Z</time></trkpt><trkpt lat="46.5059636" lon="12.8650581"><ele>533.75</ele><time>2026-04-12T07:33:31Z</time></trkpt><trkpt lat="46.5061036" lon="12.865146"><ele>536.0</ele><time>2026-04-12T07:33:32.001Z</time></trkpt><trkpt lat="46.5062492" lon="12.8652426"><ele>545.6666666666666</ele><time>2026-04-12T07:33:33Z</time></trkpt><trkpt lat="46.5063932" lon="12.8653459"><ele>555.3333333333334</ele><time>2026-04-12T07:33:34Z</time></trkpt><trkpt lat="46.5065398" lon="12.8654406"><ele>565.0</ele><time>2026-04-12T07:33:35Z</time></trkpt><trkpt lat="46.5066903" lon="12.8655141"><ele>565.0</ele><time>2026-04-12T07:33:36Z</time></trkpt><trkpt lat="46.5068443" lon="12.8655733"><ele>565.0</ele><time>2026-04-12T07:33:37.001Z</time></trkpt><trkpt lat="46.507001" lon="12.8656189"><ele>565.0</ele><time>2026-04-12T07:33:38Z</time></trkpt><trkpt lat="46.5071577" lon="12.865656"><ele>558.3333333333334</ele><time>2026-04-12T07:33:39Z</time></trkpt><trkpt lat="46.5073156" lon="12.8656877"><ele>551.6666666666666</ele><time>2026-04-12T07:33:40.001Z</time></trkpt><trkpt lat="46.5074712" lon="12.8657162"><ele>545.0</ele><time>2026-04-12T07:33:41Z</time></trkpt><trkpt lat="46.5076219" lon="12.8657464"><ele>545.0</ele><time>2026-04-12T07:33:42Z</time></trkpt><trkpt lat="46.5077677" lon="12.865778"><ele>545.0</ele><time>2026-04-12T07:33:43.001Z</time></trkpt><trkpt lat="46.5079124" lon="12.865798"><ele>545.0</ele><time>2026-04-12T07:33:44Z</time></trkpt><trkpt lat="46.5080588" lon="12.8658031"><ele>545.0</ele><time>2026-04-12T07:33:45Z</time></trkpt><trkpt lat="46.5082061" lon="12.8657844"><ele>547.3333333333333</ele><time>2026-04-12T07:33:46Z</time></trkpt><trkpt lat="46.5083546" lon="12.8657642"><ele>549.6666666666666</ele><time>2026-04-12T07:33:47Z</time></trkpt><trkpt lat="46.5085054" lon="12.8657635"><ele>552.0</ele><time>2026-04-12T07:33:48Z</time></trkpt><trkpt lat="46.5086553" lon="12.8657797"><ele>550.0</ele><time>2026-04-12T07:33:49.001Z</time></trkpt><trkpt lat="46.5088015" lon="12.8657964"><ele>548.0</ele><time>2026-04-12T07:33:50Z</time></trkpt><trkpt lat="46.5089495" lon="12.8658217"><ele>546.0</ele><time>2026-04-12T07:33:51.001Z</time></trkpt><trkpt lat="46.5090828" lon="12.8658733"><ele>544.0</ele><time>2026-04-12T07:33:52Z</time></trkpt><trkpt lat="46.5092243" lon="12.8659521"><ele>547.75</ele><time>2026-04-12T07:33:53Z</time></trkpt><trkpt lat="46.5093582" lon="12.8660346"><ele>551.5</ele><time>2026-04-12T07:33:54Z</time></trkpt><trkpt lat="46.5094917" lon="12.866118"><ele>555.25</ele><time>2026-04-12T07:33:55Z</time></trkpt><trkpt lat="46.5096263" lon="12.8662077"><ele>559.0</ele><time>2026-04-12T07:33:56Z</time></trkpt><trkpt lat="46.5097605" lon="12.8662965"><ele>559.0</ele><time>2026-04-12T07:33:57Z</time></trkpt><trkpt lat="46.5098948" lon="12.8663894"><ele>559.0</ele><time>2026-04-12T07:33:58Z</time></trkpt><trkpt lat="46.5100268" lon="12.8664805"><ele>559.0</ele><time>2026-04-12T07:33:59Z</time></trkpt><trkpt lat="46.5101557" lon="12.8665711"><ele>559.0</ele><time>2026-04-12T07:34:00Z</time></trkpt><trkpt lat="46.5102904" lon="12.8666543"><ele>556.75</ele><time>2026-04-12T07:34:01Z</time></trkpt><trkpt lat="46.5104322" lon="12.8667306"><ele>554.5</ele><time>2026-04-12T07:34:02Z</time></trkpt><trkpt lat="46.5105706" lon="12.8668041"><ele>552.25</ele><time>2026-04-12T07:34:03Z</time></trkpt><trkpt lat="46.5107084" lon="12.8668734"><ele>550.0</ele><time>2026-04-12T07:34:04Z</time></trkpt><trkpt lat="46.5108424" lon="12.8669411"><ele>554.25</ele><time>2026-04-12T07:34:05Z</time></trkpt><trkpt lat="46.510976" lon="12.8670053"><ele>558.5</ele><time>2026-04-12T07:34:06Z</time></trkpt><trkpt lat="46.5111113" lon="12.8670696"><ele>562.75</ele><time>2026-04-12T07:34:07Z</time></trkpt><trkpt lat="46.511238" lon="12.8671364"><ele>567.0</ele><time>2026-04-12T07:34:08.001Z</time></trkpt><trkpt lat="46.5113664" lon="12.8672037"><ele>567.0</ele><time>2026-04-12T07:34:09Z</time></trkpt><trkpt lat="46.5114978" lon="12.8672689"><ele>567.0</ele><time>2026-04-12T07:34:10Z</time></trkpt><trkpt lat="46.5116318" lon="12.8673362"><ele>567.0</ele><time>2026-04-12T07:34:11.001Z</time></trkpt><trkpt lat="46.5117662" lon="12.8674076"><ele>567.0</ele><time>2026-04-12T07:34:12Z</time></trkpt><trkpt lat="46.5118937" lon="12.8674847"><ele>567.0</ele><time>2026-04-12T07:34:13Z</time></trkpt><trkpt lat="46.5120018" lon="12.8675747"><ele>567.0</ele><time>2026-04-12T07:34:14Z</time></trkpt><trkpt lat="46.5121272" lon="12.8676634"><ele>567.0</ele><time>2026-04-12T07:34:15Z</time></trkpt><trkpt lat="46.5122541" lon="12.8677386"><ele>567.0</ele><time>2026-04-12T07:34:16.001Z</time></trkpt><trkpt lat="46.5123912" lon="12.8677903"><ele>566.5</ele><time>2026-04-12T07:34:17Z</time></trkpt><trkpt lat="46.5125242" lon="12.8678191"><ele>566.0</ele><time>2026-04-12T07:34:18Z</time></trkpt><trkpt lat="46.5126568" lon="12.8678386"><ele>565.5</ele><time>2026-04-12T07:34:19Z</time></trkpt><trkpt lat="46.5127836" lon="12.8678555"><ele>565.0</ele><time>2026-04-12T07:34:20.001Z</time></trkpt><trkpt lat="46.5128945" lon="12.8678723"><ele>562.8</ele><time>2026-04-12T07:34:21.001Z</time></trkpt><trkpt lat="46.5129975" lon="12.8678884"><ele>560.6</ele><time>2026-04-12T07:34:22Z</time></trkpt><trkpt lat="46.5131025" lon="12.8679083"><ele>558.4</ele><time>2026-04-12T07:34:23Z</time></trkpt><trkpt lat="46.5132084" lon="12.8679326"><ele>556.2</ele><time>2026-04-12T07:34:24.001Z</time></trkpt><trkpt lat="46.5133172" lon="12.8679568"><ele>554.0</ele><time>2026-04-12T07:34:25Z</time></trkpt><trkpt lat="46.5134259" lon="12.8679715"><ele>554.0</ele><time>2026-04-12T07:34:26Z</time></trkpt><trkpt lat="46.5135319" lon="12.8679681"><ele>554.0</ele><time>2026-04-12T07:34:27.001Z</time></trkpt><trkpt lat="46.5136367" lon="12.8679449"><ele>554.0</ele><time>2026-04-12T07:34:28Z</time></trkpt><trkpt lat="46.5137418" lon="12.8679056"><ele>554.0</ele><time>2026-04-12T07:34:29.001Z</time></trkpt><trkpt lat="46.5138491" lon="12.8678477"><ele>554.0</ele><time>2026-04-12T07:34:30Z</time></trkpt><trkpt lat="46.5139492" lon="12.8677757"><ele>554.6</ele><time>2026-04-12T07:34:31Z</time></trkpt><trkpt lat="46.5140466" lon="12.8676989"><ele>555.2</ele><time>2026-04-12T07:34:32Z</time></trkpt><trkpt lat="46.5141485" lon="12.8676209"><ele>555.8000000000001</ele><time>2026-04-12T07:34:33Z</time></trkpt><trkpt lat="46.5142497" lon="12.8675479"><ele>556.4</ele><time>2026-04-12T07:34:34Z</time></trkpt><trkpt lat="46.5143473" lon="12.8674799"><ele>557.0</ele><time>2026-04-12T07:34:35.001Z</time></trkpt><trkpt lat="46.5144458" lon="12.8674301"><ele>556.1666666666666</ele><time>2026-04-12T07:34:36.001Z</time></trkpt><trkpt lat="46.5145411" lon="12.8673961"><ele>555.3333333333333</ele><time>2026-04-12T07:34:37.001Z</time></trkpt><trkpt lat="46.5146347" lon="12.8673759"><ele>554.5</ele><time>2026-04-12T07:34:38Z</time></trkpt><trkpt lat="46.5147112" lon="12.8673971"><ele>553.6666666666666</ele><time>2026-04-12T07:34:39.001Z</time></trkpt><trkpt lat="46.5147835" lon="12.8674012"><ele>552.8333333333334</ele><time>2026-04-12T07:34:40Z</time></trkpt><trkpt lat="46.5148578" lon="12.8673929"><ele>552.0</ele><time>2026-04-12T07:34:41Z</time></trkpt><trkpt lat="46.5149266" lon="12.8673629"><ele>552.0</ele><time>2026-04-12T07:34:42Z</time></trkpt><trkpt lat="46.5149954" lon="12.8673329"><ele>552.0</ele><time>2026-04-12T07:34:43Z</time></trkpt><trkpt lat="46.5150767" lon="12.8672866"><ele>552.0</ele><time>2026-04-12T07:34:44.001Z</time></trkpt><trkpt lat="46.5151373" lon="12.8672151"><ele>552.0</ele><time>2026-04-12T07:34:45Z</time></trkpt><trkpt lat="46.5152005" lon="12.8671287"><ele>552.0</ele><time>2026-04-12T07:34:46Z</time></trkpt><trkpt lat="46.5152662" lon="12.8670467"><ele>552.0</ele><time>2026-04-12T07:34:47Z</time></trkpt><trkpt lat="46.5153306" lon="12.8669641"><ele>552.0</ele><time>2026-04-12T07:34:48.001Z</time></trkpt><trkpt lat="46.5153976" lon="12.8668966"><ele>552.0</ele><time>2026-04-12T07:34:49Z</time></trkpt><trkpt lat="46.515466" lon="12.8668417"><ele>552.0</ele><time>2026-04-12T07:34:50Z</time></trkpt><trkpt lat="46.5155614" lon="12.8668074"><ele>552.0</ele><time>2026-04-12T07:34:51Z</time></trkpt><trkpt lat="46.515658" lon="12.866772"><ele>552.0</ele><time>2026-04-12T07:34:52.002Z</time></trkpt><trkpt lat="46.515759" lon="12.866759"><ele>551.4</ele><time>2026-04-12T07:34:53.001Z</time></trkpt><trkpt lat="46.5158495" lon="12.8667373"><ele>550.8000000000001</ele><time>2026-04-12T07:34:54Z</time></trkpt><trkpt lat="46.5159427" lon="12.8667313"><ele>550.2</ele><time>2026-04-12T07:34:55.001Z</time></trkpt><trkpt lat="46.5160331" lon="12.8667304"><ele>549.6</ele><time>2026-04-12T07:34:56Z</time></trkpt><trkpt lat="46.5161213" lon="12.8667268"><ele>549.0</ele><time>2026-04-12T07:34:57Z</time></trkpt><trkpt lat="46.5162087" lon="12.8667232"><ele>552.6</ele><time>2026-04-12T07:34:58Z</time></trkpt><trkpt lat="46.5162868" lon="12.8667188"><ele>556.2</ele><time>2026-04-12T07:34:59Z</time></trkpt><trkpt lat="46.5163689" lon="12.866716"><ele>559.8000000000001</ele><time>2026-04-12T07:35:00Z</time></trkpt><trkpt lat="46.5164582" lon="12.8667275"><ele>563.4</ele><time>2026-04-12T07:35:01Z</time></trkpt><trkpt lat="46.516561" lon="12.866746"><ele>567.0</ele><time>2026-04-12T07:35:02Z</time></trkpt><trkpt lat="46.5166711" lon="12.8667687"><ele>568.2</ele><time>2026-04-12T07:35:03Z</time></trkpt><trkpt lat="46.5167836" lon="12.8667909"><ele>569.4000000000001</ele><time>2026-04-12T07:35:04.001Z</time></trkpt><trkpt lat="46.5168858" lon="12.8668063"><ele>570.5999999999999</ele><time>2026-04-12T07:35:05Z</time></trkpt><trkpt lat="46.5169868" lon="12.866809"><ele>571.8</ele><time>2026-04-12T07:35:06.002Z</time></trkpt><trkpt lat="46.5170904" lon="12.8668212"><ele>573.0</ele><time>2026-04-12T07:35:07Z</time></trkpt><trkpt lat="46.5171931" lon="12.8668321"><ele>579.3333333333334</ele><time>2026-04-12T07:35:08.001Z</time></trkpt><trkpt lat="46.5174438" lon="12.8670855"><ele>585.6666666666667</ele><time>2026-04-12T07:35:11Z</time></trkpt><trkpt lat="46.5174726" lon="12.8672408"><ele>592.0</ele><time>2026-04-12T07:35:12Z</time></trkpt><trkpt lat="46.5175598" lon="12.8673997"><ele>592.0</ele><time>2026-04-12T07:35:13Z</time></trkpt><trkpt lat="46.5176238" lon="12.8675511"><ele>592.0</ele><time>2026-04-12T07:35:14Z</time></trkpt><trkpt lat="46.5176888" lon="12.8677116"><ele>592.0</ele><time>2026-04-12T07:35:15Z</time></trkpt><trkpt lat="46.5177403" lon="12.8678471"><ele>592.0</ele><time>2026-04-12T07:35:16Z</time></trkpt><trkpt lat="46.5178083" lon="12.8679794"><ele>593.25</ele><time>2026-04-12T07:35:17Z</time></trkpt><trkpt lat="46.517883" lon="12.8681131"><ele>594.5</ele><time>2026-04-12T07:35:18Z</time></trkpt><trkpt lat="46.5179784" lon="12.8682274"><ele>595.75</ele><time>2026-04-12T07:35:19Z</time></trkpt><trkpt lat="46.518068" lon="12.8683509"><ele>597.0</ele><time>2026-04-12T07:35:20Z</time></trkpt><trkpt lat="46.5181436" lon="12.8684903"><ele>598.0</ele><time>2026-04-12T07:35:21.002Z</time></trkpt><trkpt lat="46.5181918" lon="12.8686463"><ele>599.0</ele><time>2026-04-12T07:35:22Z</time></trkpt><trkpt lat="46.5182482" lon="12.8687935"><ele>600.0</ele><time>2026-04-12T07:35:23Z</time></trkpt><trkpt lat="46.5183115" lon="12.8689369"><ele>601.0</ele><time>2026-04-12T07:35:24Z</time></trkpt><trkpt lat="46.5183899" lon="12.8690511"><ele>601.0</ele><time>2026-04-12T07:35:24.999Z</time></trkpt><trkpt lat="46.5184756" lon="12.8691646"><ele>601.0</ele><time>2026-04-12T07:35:26Z</time></trkpt><trkpt lat="46.5185567" lon="12.8692948"><ele>601.0</ele><time>2026-04-12T07:35:27Z</time></trkpt><trkpt lat="46.5186272" lon="12.8694389"><ele>601.0</ele><time>2026-04-12T07:35:28Z</time></trkpt><trkpt lat="46.5186908" lon="12.8695933"><ele>600.0</ele><time>2026-04-12T07:35:29Z</time></trkpt><trkpt lat="46.5187562" lon="12.8697411"><ele>599.0</ele><time>2026-04-12T07:35:30.001Z</time></trkpt><trkpt lat="46.5188185" lon="12.8698857"><ele>598.0</ele><time>2026-04-12T07:35:31Z</time></trkpt><trkpt lat="46.5188765" lon="12.8700207"><ele>597.0</ele><time>2026-04-12T07:35:32Z</time></trkpt><trkpt lat="46.5189284" lon="12.8701505"><ele>597.0</ele><time>2026-04-12T07:35:33Z</time></trkpt><trkpt lat="46.5189813" lon="12.8702758"><ele>597.0</ele><time>2026-04-12T07:35:34.001Z</time></trkpt><trkpt lat="46.519067" lon="12.8703626"><ele>597.0</ele><time>2026-04-12T07:35:35Z</time></trkpt><trkpt lat="46.5191408" lon="12.8704499"><ele>597.0</ele><time>2026-04-12T07:35:36Z</time></trkpt><trkpt lat="46.5192062" lon="12.8705235"><ele>597.0</ele><time>2026-04-12T07:35:37Z</time></trkpt><trkpt lat="46.5192669" lon="12.8705878"><ele>597.0</ele><time>2026-04-12T07:35:38.001Z</time></trkpt><trkpt lat="46.5193178" lon="12.8706499"><ele>597.0</ele><time>2026-04-12T07:35:39Z</time></trkpt><trkpt lat="46.5193732" lon="12.8707008"><ele>597.0</ele><time>2026-04-12T07:35:40Z</time></trkpt><trkpt lat="46.5194426" lon="12.8707193"><ele>597.0</ele><time>2026-04-12T07:35:41.001Z</time></trkpt><trkpt lat="46.5195143" lon="12.8706818"><ele>597.0</ele><time>2026-04-12T07:35:42.001Z</time></trkpt><trkpt lat="46.5195876" lon="12.8706208"><ele>597.0</ele><time>2026-04-12T07:35:42.999Z</time></trkpt><trkpt lat="46.5196657" lon="12.8705544"><ele>592.0</ele><time>2026-04-12T07:35:44Z</time></trkpt><trkpt lat="46.51974" lon="12.8704971"><ele>587.0</ele><time>2026-04-12T07:35:45Z</time></trkpt><trkpt lat="46.5198072" lon="12.8704338"><ele>582.0</ele><time>2026-04-12T07:35:46Z</time></trkpt><trkpt lat="46.5198714" lon="12.870381"><ele>577.0</ele><time>2026-04-12T07:35:47.001Z</time></trkpt><trkpt lat="46.5199354" lon="12.8703422"><ele>572.0</ele><time>2026-04-12T07:35:48Z</time></trkpt><trkpt lat="46.5200073" lon="12.8703346"><ele>567.0</ele><time>2026-04-12T07:35:49Z</time></trkpt><trkpt lat="46.5200967" lon="12.8703577"><ele>567.0</ele><time>2026-04-12T07:35:50.001Z</time></trkpt><trkpt lat="46.5201972" lon="12.8704391"><ele>567.0</ele><time>2026-04-12T07:35:51Z</time></trkpt><trkpt lat="46.5202903" lon="12.8705376"><ele>567.0</ele><time>2026-04-12T07:35:52Z</time></trkpt><trkpt lat="46.5203962" lon="12.8706403"><ele>567.0</ele><time>2026-04-12T07:35:53Z</time></trkpt><trkpt lat="46.5205199" lon="12.8707182"><ele>566.75</ele><time>2026-04-12T07:35:54Z</time></trkpt><trkpt lat="46.5206485" lon="12.8707312"><ele>566.5</ele><time>2026-04-12T07:35:55Z</time></trkpt><trkpt lat="46.5207734" lon="12.8706782"><ele>566.25</ele><time>2026-04-12T07:35:56Z</time></trkpt><trkpt lat="46.5208964" lon="12.8705828"><ele>566.0</ele><time>2026-04-12T07:35:57Z</time></trkpt><trkpt lat="46.5210129" lon="12.8704627"><ele>566.0</ele><time>2026-04-12T07:35:58Z</time></trkpt><trkpt lat="46.5211176" lon="12.8703339"><ele>566.0</ele><time>2026-04-12T07:35:59Z</time></trkpt><trkpt lat="46.5211968" lon="12.8701945"><ele>566.0</ele><time>2026-04-12T07:36:00Z</time></trkpt><trkpt lat="46.5212807" lon="12.8700469"><ele>566.0</ele><time>2026-04-12T07:36:01Z</time></trkpt><trkpt lat="46.5213772" lon="12.869915"><ele>570.3333333333333</ele><time>2026-04-12T07:36:02Z</time></trkpt><trkpt lat="46.521502" lon="12.869796"><ele>574.6666666666666</ele><time>2026-04-12T07:36:03Z</time></trkpt><trkpt lat="46.5216369" lon="12.8697041"><ele>579.0</ele><time>2026-04-12T07:36:04.001Z</time></trkpt><trkpt lat="46.5217657" lon="12.8695859"><ele>579.0</ele><time>2026-04-12T07:36:05Z</time></trkpt><trkpt lat="46.5218833" lon="12.8694601"><ele>579.0</ele><time>2026-04-12T07:36:05.999Z</time></trkpt><trkpt lat="46.5219973" lon="12.8693654"><ele>579.0</ele><time>2026-04-12T07:36:06.999Z</time></trkpt><trkpt lat="46.5221234" lon="12.8693008"><ele>579.0</ele><time>2026-04-12T07:36:08Z</time></trkpt><trkpt lat="46.5222727" lon="12.8692719"><ele>582.6666666666666</ele><time>2026-04-12T07:36:09Z</time></trkpt><trkpt lat="46.5224276" lon="12.8692614"><ele>586.3333333333333</ele><time>2026-04-12T07:36:10Z</time></trkpt><trkpt lat="46.522585" lon="12.869262"><ele>590.0</ele><time>2026-04-12T07:36:11Z</time></trkpt><trkpt lat="46.5227342" lon="12.8692603"><ele>586.75</ele><time>2026-04-12T07:36:11.999Z</time></trkpt><trkpt lat="46.5228746" lon="12.8692855"><ele>583.5</ele><time>2026-04-12T07:36:13Z</time></trkpt><trkpt lat="46.5230113" lon="12.8693406"><ele>580.25</ele><time>2026-04-12T07:36:14Z</time></trkpt><trkpt lat="46.5231523" lon="12.8694365"><ele>577.0</ele><time>2026-04-12T07:36:15Z</time></trkpt><trkpt lat="46.523286" lon="12.8695122"><ele>577.0</ele><time>2026-04-12T07:36:16Z</time></trkpt><trkpt lat="46.5234288" lon="12.869563"><ele>577.0</ele><time>2026-04-12T07:36:16.999Z</time></trkpt><trkpt lat="46.5235752" lon="12.8695577"><ele>577.0</ele><time>2026-04-12T07:36:18.001Z</time></trkpt><trkpt lat="46.5237241" lon="12.8695318"><ele>577.0</ele><time>2026-04-12T07:36:19Z</time></trkpt><trkpt lat="46.5239178" lon="12.8694513"><ele>579.6666666666667</ele><time>2026-04-12T07:36:19.999Z</time></trkpt><trkpt lat="46.5241177" lon="12.8694281"><ele>582.3333333333334</ele><time>2026-04-12T07:36:21Z</time></trkpt><trkpt lat="46.5242981" lon="12.869431"><ele>585.0</ele><time>2026-04-12T07:36:22Z</time></trkpt><trkpt lat="46.5244642" lon="12.869449"><ele>586.25</ele><time>2026-04-12T07:36:23Z</time></trkpt><trkpt lat="46.5246135" lon="12.8694836"><ele>587.5</ele><time>2026-04-12T07:36:24Z</time></trkpt><trkpt lat="46.5247598" lon="12.8695481"><ele>588.75</ele><time>2026-04-12T07:36:25Z</time></trkpt><trkpt lat="46.524885" lon="12.8696162"><ele>590.0</ele><time>2026-04-12T07:36:26Z</time></trkpt><trkpt lat="46.5250132" lon="12.8696539"><ele>590.0</ele><time>2026-04-12T07:36:27.001Z</time></trkpt><trkpt lat="46.5251424" lon="12.869644"><ele>590.0</ele><time>2026-04-12T07:36:28Z</time></trkpt><trkpt lat="46.5252681" lon="12.8696041"><ele>590.0</ele><time>2026-04-12T07:36:28.999Z</time></trkpt><trkpt lat="46.5253523" lon="12.8694646"><ele>590.0</ele><time>2026-04-12T07:36:30.001Z</time></trkpt><trkpt lat="46.5254358" lon="12.8693477"><ele>589.25</ele><time>2026-04-12T07:36:31.001Z</time></trkpt><trkpt lat="46.525525" lon="12.8692536"><ele>588.5</ele><time>2026-04-12T07:36:32.001Z</time></trkpt><trkpt lat="46.5256409" lon="12.8692277"><ele>587.75</ele><time>2026-04-12T07:36:33.001Z</time></trkpt><trkpt lat="46.525767" lon="12.8692497"><ele>587.0</ele><time>2026-04-12T07:36:34Z</time></trkpt><trkpt lat="46.5259071" lon="12.8693096"><ele>587.0</ele><time>2026-04-12T07:36:34.999Z</time></trkpt><trkpt lat="46.5260437" lon="12.8693659"><ele>587.0</ele><time>2026-04-12T07:36:36Z</time></trkpt><trkpt lat="46.5261674" lon="12.8694282"><ele>587.0</ele><time>2026-04-12T07:36:37Z</time></trkpt><trkpt lat="46.5262886" lon="12.8694633"><ele>587.0</ele><time>2026-04-12T07:36:38Z</time></trkpt><trkpt lat="46.5264173" lon="12.869447"><ele>589.6</ele><time>2026-04-12T07:36:39Z</time></trkpt><trkpt lat="46.5265208" lon="12.8693747"><ele>592.2</ele><time>2026-04-12T07:36:40Z</time></trkpt><trkpt lat="46.52662" lon="12.8693219"><ele>594.8</ele><time>2026-04-12T07:36:41Z</time></trkpt><trkpt lat="46.5267247" lon="12.8693193"><ele>597.4</ele><time>2026-04-12T07:36:42Z</time></trkpt><trkpt lat="46.5268348" lon="12.8693711"><ele>600.0</ele><time>2026-04-12T07:36:43Z</time></trkpt><trkpt lat="46.5269318" lon="12.8694874"><ele>600.0</ele><time>2026-04-12T07:36:44Z</time></trkpt><trkpt lat="46.5270136" lon="12.8696202"><ele>600.0</ele><time>2026-04-12T07:36:45Z</time></trkpt><trkpt lat="46.5271202" lon="12.8697239"><ele>600.0</ele><time>2026-04-12T07:36:46.001Z</time></trkpt><trkpt lat="46.5272456" lon="12.8697817"><ele>600.0</ele><time>2026-04-12T07:36:47Z</time></trkpt><trkpt lat="46.5274171" lon="12.869789"><ele>607.3333333333334</ele><time>2026-04-12T07:36:47.999Z</time></trkpt><trkpt lat="46.5275924" lon="12.8697832"><ele>614.6666666666667</ele><time>2026-04-12T07:36:49Z</time></trkpt><trkpt lat="46.527786" lon="12.869769"><ele>622.0</ele><time>2026-04-12T07:36:50Z</time></trkpt><trkpt lat="46.5279993" lon="12.8697566"><ele>624.6666666666667</ele><time>2026-04-12T07:36:50.999Z</time></trkpt><trkpt lat="46.5282051" lon="12.8697485"><ele>627.3333333333334</ele><time>2026-04-12T07:36:52Z</time></trkpt><trkpt lat="46.5283874" lon="12.8697388"><ele>630.0</ele><time>2026-04-12T07:36:53.001Z</time></trkpt><trkpt lat="46.5285572" lon="12.8697319"><ele>630.0</ele><time>2026-04-12T07:36:54.001Z</time></trkpt><trkpt lat="46.5287024" lon="12.8696863"><ele>630.0</ele><time>2026-04-12T07:36:55Z</time></trkpt><trkpt lat="46.5288216" lon="12.8695769"><ele>630.0</ele><time>2026-04-12T07:36:56.001Z</time></trkpt><trkpt lat="46.5289125" lon="12.8694113"><ele>630.0</ele><time>2026-04-12T07:36:57Z</time></trkpt><trkpt lat="46.5290222" lon="12.8692581"><ele>633.3333333333334</ele><time>2026-04-12T07:36:57.999Z</time></trkpt><trkpt lat="46.5291573" lon="12.8691556"><ele>636.6666666666667</ele><time>2026-04-12T07:36:59Z</time></trkpt><trkpt lat="46.5293203" lon="12.8690812"><ele>640.0</ele><time>2026-04-12T07:37:00.001Z</time></trkpt><trkpt lat="46.5295038" lon="12.8690418"><ele>638.3333333333334</ele><time>2026-04-12T07:37:01Z</time></trkpt><trkpt lat="46.5296709" lon="12.8689626"><ele>636.6666666666666</ele><time>2026-04-12T07:37:01.999Z</time></trkpt><trkpt lat="46.529821" lon="12.8688713"><ele>635.0</ele><time>2026-04-12T07:37:02.999Z</time></trkpt><trkpt lat="46.5299685" lon="12.8688202"><ele>635.0</ele><time>2026-04-12T07:37:03.999Z</time></trkpt><trkpt lat="46.5301197" lon="12.8688351"><ele>635.0</ele><time>2026-04-12T07:37:05Z</time></trkpt><trkpt lat="46.5302781" lon="12.8688935"><ele>635.0</ele><time>2026-04-12T07:37:06Z</time></trkpt><trkpt lat="46.5304389" lon="12.8689586"><ele>636.0</ele><time>2026-04-12T07:37:07Z</time></trkpt><trkpt lat="46.5305901" lon="12.8690019"><ele>637.0</ele><time>2026-04-12T07:37:08Z</time></trkpt><trkpt lat="46.530731" lon="12.8690392"><ele>638.0</ele><time>2026-04-12T07:37:09Z</time></trkpt><trkpt lat="46.5308597" lon="12.8690738"><ele>639.0</ele><time>2026-04-12T07:37:10Z</time></trkpt><trkpt lat="46.5309735" lon="12.8691066"><ele>639.0</ele><time>2026-04-12T07:37:11Z</time></trkpt><trkpt lat="46.531082" lon="12.8691374"><ele>639.0</ele><time>2026-04-12T07:37:12Z</time></trkpt><trkpt lat="46.5311785" lon="12.8691453"><ele>639.0</ele><time>2026-04-12T07:37:13Z</time></trkpt><trkpt lat="46.531268" lon="12.8691167"><ele>639.0</ele><time>2026-04-12T07:37:13.999Z</time></trkpt><trkpt lat="46.5313535" lon="12.8690189"><ele>639.0</ele><time>2026-04-12T07:37:15Z</time></trkpt><trkpt lat="46.5314387" lon="12.868876"><ele>639.5</ele><time>2026-04-12T07:37:16Z</time></trkpt><trkpt lat="46.5315117" lon="12.8686978"><ele>640.0</ele><time>2026-04-12T07:37:17Z</time></trkpt><trkpt lat="46.5315896" lon="12.8685094"><ele>640.5</ele><time>2026-04-12T07:37:17.999Z</time></trkpt><trkpt lat="46.531672" lon="12.8683369"><ele>641.0</ele><time>2026-04-12T07:37:18.999Z</time></trkpt><trkpt lat="46.5317727" lon="12.8681895"><ele>642.6666666666666</ele><time>2026-04-12T07:37:20Z</time></trkpt><trkpt lat="46.5319099" lon="12.8680744"><ele>644.3333333333334</ele><time>2026-04-12T07:37:21Z</time></trkpt><trkpt lat="46.5320651" lon="12.8679871"><ele>646.0</ele><time>2026-04-12T07:37:22Z</time></trkpt><trkpt lat="46.5322291" lon="12.8679148"><ele>646.0</ele><time>2026-04-12T07:37:23Z</time></trkpt><trkpt lat="46.5323845" lon="12.8678516"><ele>646.0</ele><time>2026-04-12T07:37:24Z</time></trkpt><trkpt lat="46.5325309" lon="12.8677948"><ele>646.0</ele><time>2026-04-12T07:37:25Z</time></trkpt><trkpt lat="46.5326753" lon="12.8677363"><ele>646.0</ele><time>2026-04-12T07:37:26Z</time></trkpt><trkpt lat="46.5328066" lon="12.8676277"><ele>646.0</ele><time>2026-04-12T07:37:27Z</time></trkpt><trkpt lat="46.5329125" lon="12.8674771"><ele>646.0</ele><time>2026-04-12T07:37:28.001Z</time></trkpt><trkpt lat="46.533011" lon="12.8673187"><ele>646.0</ele><time>2026-04-12T07:37:29.001Z</time></trkpt><trkpt lat="46.5331211" lon="12.8671767"><ele>648.5</ele><time>2026-04-12T07:37:30Z</time></trkpt><trkpt lat="46.5332344" lon="12.8670582"><ele>651.0</ele><time>2026-04-12T07:37:30.999Z</time></trkpt><trkpt lat="46.5333385" lon="12.8669213"><ele>653.5</ele><time>2026-04-12T07:37:32Z</time></trkpt><trkpt lat="46.5334012" lon="12.8667418"><ele>656.0</ele><time>2026-04-12T07:37:33.001Z</time></trkpt><trkpt lat="46.5334451" lon="12.8665594"><ele>659.8</ele><time>2026-04-12T07:37:34Z</time></trkpt><trkpt lat="46.5334875" lon="12.8664101"><ele>663.5999999999999</ele><time>2026-04-12T07:37:34.999Z</time></trkpt><trkpt lat="46.5335496" lon="12.8662967"><ele>667.4</ele><time>2026-04-12T07:37:36.001Z</time></trkpt><trkpt lat="46.5336347" lon="12.8662307"><ele>671.2</ele><time>2026-04-12T07:37:36.999Z</time></trkpt><trkpt lat="46.5337394" lon="12.8662391"><ele>675.0</ele><time>2026-04-12T07:37:38Z</time></trkpt><trkpt lat="46.5338544" lon="12.8662727"><ele>675.0</ele><time>2026-04-12T07:37:38.999Z</time></trkpt><trkpt lat="46.533948" lon="12.8663583"><ele>675.0</ele><time>2026-04-12T07:37:39.999Z</time></trkpt><trkpt lat="46.5340775" lon="12.8664089"><ele>675.0</ele><time>2026-04-12T07:37:41.001Z</time></trkpt><trkpt lat="46.534201" lon="12.8663946"><ele>675.0</ele><time>2026-04-12T07:37:41.999Z</time></trkpt><trkpt lat="46.5343268" lon="12.8663202"><ele>675.0</ele><time>2026-04-12T07:37:43Z</time></trkpt><trkpt lat="46.5344417" lon="12.8661711"><ele>675.0</ele><time>2026-04-12T07:37:43.999Z</time></trkpt><trkpt lat="46.5345638" lon="12.865991"><ele>675.0</ele><time>2026-04-12T07:37:44.999Z</time></trkpt><trkpt lat="46.5346983" lon="12.8658294"><ele>679.0</ele><time>2026-04-12T07:37:46.001Z</time></trkpt><trkpt lat="46.5348319" lon="12.8656996"><ele>683.0</ele><time>2026-04-12T07:37:47Z</time></trkpt><trkpt lat="46.5349448" lon="12.8655557"><ele>687.0</ele><time>2026-04-12T07:37:48Z</time></trkpt><trkpt lat="46.5350301" lon="12.8653617"><ele>687.0</ele><time>2026-04-12T07:37:49Z</time></trkpt><trkpt lat="46.5351044" lon="12.865131"><ele>687.0</ele><time>2026-04-12T07:37:50Z</time></trkpt><trkpt lat="46.5351727" lon="12.8648834"><ele>687.0</ele><time>2026-04-12T07:37:51Z</time></trkpt><trkpt lat="46.5352479" lon="12.8646408"><ele>691.6666666666666</ele><time>2026-04-12T07:37:51.999Z</time></trkpt><trkpt lat="46.5353152" lon="12.8644072"><ele>696.3333333333333</ele><time>2026-04-12T07:37:53Z</time></trkpt><trkpt lat="46.5353654" lon="12.8641704"><ele>701.0</ele><time>2026-04-12T07:37:54Z</time></trkpt><trkpt lat="46.5353833" lon="12.8639418"><ele>702.0</ele><time>2026-04-12T07:37:55Z</time></trkpt><trkpt lat="46.535388" lon="12.8637089"><ele>703.0</ele><time>2026-04-12T07:37:56Z</time></trkpt><trkpt lat="46.5353904" lon="12.8634879"><ele>704.0</ele><time>2026-04-12T07:37:57.001Z</time></trkpt><trkpt lat="46.5354046" lon="12.8632872"><ele>704.0</ele><time>2026-04-12T07:37:58Z</time></trkpt><trkpt lat="46.5354412" lon="12.8630987"><ele>704.0</ele><time>2026-04-12T07:37:59.001Z</time></trkpt><trkpt lat="46.535492" lon="12.8629342"><ele>704.0</ele><time>2026-04-12T07:38:00Z</time></trkpt><trkpt lat="46.5355496" lon="12.8627927"><ele>704.0</ele><time>2026-04-12T07:38:00.999Z</time></trkpt><trkpt lat="46.5356095" lon="12.8626717"><ele>704.0</ele><time>2026-04-12T07:38:02Z</time></trkpt><trkpt lat="46.5356831" lon="12.8625923"><ele>704.0</ele><time>2026-04-12T07:38:02.999Z</time></trkpt><trkpt lat="46.5357703" lon="12.8625562"><ele>704.0</ele><time>2026-04-12T07:38:04Z</time></trkpt><trkpt lat="46.5358542" lon="12.8625781"><ele>704.0</ele><time>2026-04-12T07:38:05.001Z</time></trkpt><trkpt lat="46.5359306" lon="12.8626715"><ele>704.0</ele><time>2026-04-12T07:38:06Z</time></trkpt><trkpt lat="46.5359736" lon="12.862832"><ele>704.0</ele><time>2026-04-12T07:38:06.999Z</time></trkpt><trkpt lat="46.5360101" lon="12.8630074"><ele>704.0</ele><time>2026-04-12T07:38:08Z</time></trkpt><trkpt lat="46.5360719" lon="12.8631812"><ele>704.0</ele><time>2026-04-12T07:38:09Z</time></trkpt><trkpt lat="46.5361356" lon="12.8633512"><ele>704.0</ele><time>2026-04-12T07:38:10Z</time></trkpt><trkpt lat="46.5362754" lon="12.8634488"><ele>700.0</ele><time>2026-04-12T07:38:11.001Z</time></trkpt><trkpt lat="46.5364009" lon="12.8635292"><ele>696.0</ele><time>2026-04-12T07:38:12Z</time></trkpt><trkpt lat="46.5365154" lon="12.8635854"><ele>692.0</ele><time>2026-04-12T07:38:12.999Z</time></trkpt><trkpt lat="46.5366189" lon="12.8636224"><ele>688.0</ele><time>2026-04-12T07:38:14Z</time></trkpt><trkpt lat="46.5367149" lon="12.8636133"><ele>688.0</ele><time>2026-04-12T07:38:15.001Z</time></trkpt><trkpt lat="46.5367963" lon="12.8635517"><ele>688.0</ele><time>2026-04-12T07:38:16Z</time></trkpt><trkpt lat="46.5368614" lon="12.8634475"><ele>688.0</ele><time>2026-04-12T07:38:17Z</time></trkpt><trkpt lat="46.5368856" lon="12.8632958"><ele>688.0</ele><time>2026-04-12T07:38:18Z</time></trkpt><trkpt lat="46.5369112" lon="12.8631219"><ele>688.0</ele><time>2026-04-12T07:38:19.001Z</time></trkpt><trkpt lat="46.536957" lon="12.8629306"><ele>691.8</ele><time>2026-04-12T07:38:20Z</time></trkpt><trkpt lat="46.5370134" lon="12.8627683"><ele>695.5999999999999</ele><time>2026-04-12T07:38:21Z</time></trkpt><trkpt lat="46.5370663" lon="12.86262"><ele>699.4000000000001</ele><time>2026-04-12T07:38:22.001Z</time></trkpt><trkpt lat="46.5371152" lon="12.8624904"><ele>703.2</ele><time>2026-04-12T07:38:22.999Z</time></trkpt><trkpt lat="46.5371733" lon="12.8623781"><ele>707.0</ele><time>2026-04-12T07:38:23.999Z</time></trkpt><trkpt lat="46.537254" lon="12.8623039"><ele>707.0</ele><time>2026-04-12T07:38:25Z</time></trkpt><trkpt lat="46.5373451" lon="12.8623074"><ele>707.0</ele><time>2026-04-12T07:38:26Z</time></trkpt><trkpt lat="46.5374316" lon="12.862382"><ele>707.0</ele><time>2026-04-12T07:38:26.999Z</time></trkpt><trkpt lat="46.5375144" lon="12.8625164"><ele>707.0</ele><time>2026-04-12T07:38:28Z</time></trkpt><trkpt lat="46.5375897" lon="12.8626741"><ele>707.0</ele><time>2026-04-12T07:38:28.999Z</time></trkpt><trkpt lat="46.537657" lon="12.8628372"><ele>707.0</ele><time>2026-04-12T07:38:30.001Z</time></trkpt><trkpt lat="46.5377188" lon="12.8629989"><ele>707.0</ele><time>2026-04-12T07:38:30.999Z</time></trkpt><trkpt lat="46.5377696" lon="12.8631599"><ele>707.0</ele><time>2026-04-12T07:38:32.001Z</time></trkpt><trkpt lat="46.5378167" lon="12.863314"><ele>707.0</ele><time>2026-04-12T07:38:33Z</time></trkpt><trkpt lat="46.5378469" lon="12.8634826"><ele>705.5</ele><time>2026-04-12T07:38:34Z</time></trkpt><trkpt lat="46.5378419" lon="12.8636637"><ele>704.0</ele><time>2026-04-12T07:38:35.001Z</time></trkpt><trkpt lat="46.5378426" lon="12.863841"><ele>702.5</ele><time>2026-04-12T07:38:36.001Z</time></trkpt><trkpt lat="46.5378206" lon="12.864029"><ele>701.0</ele><time>2026-04-12T07:38:37Z</time></trkpt><trkpt lat="46.5377919" lon="12.8642106"><ele>699.5999999999999</ele><time>2026-04-12T07:38:38.001Z</time></trkpt><trkpt lat="46.537762" lon="12.8643741"><ele>698.2</ele><time>2026-04-12T07:38:39.001Z</time></trkpt><trkpt lat="46.5377347" lon="12.8645213"><ele>696.8</ele><time>2026-04-12T07:38:40Z</time></trkpt><trkpt lat="46.5377183" lon="12.8646712"><ele>695.4000000000001</ele><time>2026-04-12T07:38:40.999Z</time></trkpt><trkpt lat="46.5377236" lon="12.8648105"><ele>694.0</ele><time>2026-04-12T07:38:42Z</time></trkpt><trkpt lat="46.5377746" lon="12.8649388"><ele>694.0</ele><time>2026-04-12T07:38:43Z</time></trkpt><trkpt lat="46.5378601" lon="12.8650387"><ele>694.0</ele><time>2026-04-12T07:38:44Z</time></trkpt><trkpt lat="46.5379681" lon="12.8650975"><ele>694.0</ele><time>2026-04-12T07:38:45Z</time></trkpt><trkpt lat="46.5380962" lon="12.8651082"><ele>694.0</ele><time>2026-04-12T07:38:46Z</time></trkpt><trkpt lat="46.538232" lon="12.8650719"><ele>701.0</ele><time>2026-04-12T07:38:46.999Z</time></trkpt><trkpt lat="46.5383704" lon="12.8650372"><ele>708.0</ele><time>2026-04-12T07:38:48Z</time></trkpt><trkpt lat="46.5385124" lon="12.8649951"><ele>715.0</ele><time>2026-04-12T07:38:49Z</time></trkpt><trkpt lat="46.5386591" lon="12.864953"><ele>722.0</ele><time>2026-04-12T07:38:50Z</time></trkpt><trkpt lat="46.5388083" lon="12.8649175"><ele>722.3333333333333</ele><time>2026-04-12T07:38:51Z</time></trkpt><trkpt lat="46.5389581" lon="12.8648838"><ele>722.6666666666666</ele><time>2026-04-12T07:38:52.001Z</time></trkpt><trkpt lat="46.5391026" lon="12.8648504"><ele>723.0</ele><time>2026-04-12T07:38:52.999Z</time></trkpt><trkpt lat="46.5392533" lon="12.8648183"><ele>723.0</ele><time>2026-04-12T07:38:54.001Z</time></trkpt><trkpt lat="46.5394002" lon="12.8647913"><ele>723.0</ele><time>2026-04-12T07:38:54.999Z</time></trkpt><trkpt lat="46.5395458" lon="12.8647596"><ele>723.0</ele><time>2026-04-12T07:38:56Z</time></trkpt><trkpt lat="46.5396836" lon="12.8647297"><ele>723.0</ele><time>2026-04-12T07:38:56.999Z</time></trkpt><trkpt lat="46.5398203" lon="12.8646968"><ele>723.0</ele><time>2026-04-12T07:38:58Z</time></trkpt><trkpt lat="46.5399569" lon="12.8646573"><ele>723.0</ele><time>2026-04-12T07:38:59Z</time></trkpt><trkpt lat="46.5400887" lon="12.8645972"><ele>723.0</ele><time>2026-04-12T07:38:59.999Z</time></trkpt><trkpt lat="46.5402232" lon="12.8645142"><ele>723.0</ele><time>2026-04-12T07:39:01Z</time></trkpt><trkpt lat="46.5403566" lon="12.8644038"><ele>726.0</ele><time>2026-04-12T07:39:02Z</time></trkpt><trkpt lat="46.5404913" lon="12.8642782"><ele>729.0</ele><time>2026-04-12T07:39:02.999Z</time></trkpt><trkpt lat="46.5406284" lon="12.864139"><ele>732.0</ele><time>2026-04-12T07:39:03.999Z</time></trkpt><trkpt lat="46.5407564" lon="12.8640001"><ele>732.0</ele><time>2026-04-12T07:39:04.999Z</time></trkpt><trkpt lat="46.5408815" lon="12.8638423"><ele>732.0</ele><time>2026-04-12T07:39:06Z</time></trkpt><trkpt lat="46.5410084" lon="12.8636729"><ele>732.0</ele><time>2026-04-12T07:39:07Z</time></trkpt><trkpt lat="46.5411302" lon="12.8634991"><ele>731.3333333333334</ele><time>2026-04-12T07:39:08Z</time></trkpt><trkpt lat="46.5412585" lon="12.8633374"><ele>730.6666666666667</ele><time>2026-04-12T07:39:08.999Z</time></trkpt><trkpt lat="46.5413876" lon="12.8631837"><ele>730.0</ele><time>2026-04-12T07:39:10Z</time></trkpt><trkpt lat="46.5415241" lon="12.8630319"><ele>730.0</ele><time>2026-04-12T07:39:11Z</time></trkpt><trkpt lat="46.5416587" lon="12.8628934"><ele>730.0</ele><time>2026-04-12T07:39:11.999Z</time></trkpt><trkpt lat="46.5417935" lon="12.8627512"><ele>730.0</ele><time>2026-04-12T07:39:12.999Z</time></trkpt><trkpt lat="46.5419254" lon="12.862608"><ele>732.0</ele><time>2026-04-12T07:39:14Z</time></trkpt><trkpt lat="46.5420544" lon="12.8624698"><ele>734.0</ele><time>2026-04-12T07:39:14.999Z</time></trkpt><trkpt lat="46.5421831" lon="12.8623373"><ele>736.0</ele><time>2026-04-12T07:39:16Z</time></trkpt><trkpt lat="46.5423222" lon="12.8622071"><ele>736.0</ele><time>2026-04-12T07:39:17Z</time></trkpt><trkpt lat="46.5424576" lon="12.862069"><ele>736.0</ele><time>2026-04-12T07:39:18.001Z</time></trkpt><trkpt lat="46.5425928" lon="12.861921"><ele>736.0</ele><time>2026-04-12T07:39:19.001Z</time></trkpt><trkpt lat="46.542728" lon="12.8617836"><ele>740.6666666666667</ele><time>2026-04-12T07:39:20Z</time></trkpt><trkpt lat="46.5428691" lon="12.8616689"><ele>745.3333333333334</ele><time>2026-04-12T07:39:21Z</time></trkpt><trkpt lat="46.5430132" lon="12.8615705"><ele>750.0</ele><time>2026-04-12T07:39:22Z</time></trkpt><trkpt lat="46.5431577" lon="12.8614774"><ele>750.0</ele><time>2026-04-12T07:39:23Z</time></trkpt><trkpt lat="46.5433144" lon="12.8614021"><ele>750.0</ele><time>2026-04-12T07:39:23.999Z</time></trkpt><trkpt lat="46.5434571" lon="12.8613546"><ele>750.0</ele><time>2026-04-12T07:39:24.999Z</time></trkpt><trkpt lat="46.5435954" lon="12.8613414"><ele>748.75</ele><time>2026-04-12T07:39:26Z</time></trkpt><trkpt lat="46.5437355" lon="12.8613599"><ele>747.5</ele><time>2026-04-12T07:39:26.999Z</time></trkpt><trkpt lat="46.5438705" lon="12.8614064"><ele>746.25</ele><time>2026-04-12T07:39:28Z</time></trkpt><trkpt lat="46.5439997" lon="12.8614349"><ele>745.0</ele><time>2026-04-12T07:39:28.999Z</time></trkpt><trkpt lat="46.5441235" lon="12.8614116"><ele>745.0</ele><time>2026-04-12T07:39:30Z</time></trkpt><trkpt lat="46.5442424" lon="12.8613295"><ele>745.0</ele><time>2026-04-12T07:39:30.999Z</time></trkpt><trkpt lat="46.544354" lon="12.861197"><ele>745.0</ele><time>2026-04-12T07:39:32Z</time></trkpt><trkpt lat="46.5444653" lon="12.8610515"><ele>745.0</ele><time>2026-04-12T07:39:33Z</time></trkpt><trkpt lat="46.544563" lon="12.8608817"><ele>748.0</ele><time>2026-04-12T07:39:33.999Z</time></trkpt><trkpt lat="46.5446631" lon="12.8607174"><ele>751.0</ele><time>2026-04-12T07:39:34.999Z</time></trkpt><trkpt lat="46.5447813" lon="12.8605706"><ele>754.0</ele><time>2026-04-12T07:39:36Z</time></trkpt><trkpt lat="46.5449149" lon="12.8604514"><ele>754.0</ele><time>2026-04-12T07:39:37Z</time></trkpt><trkpt lat="46.5450563" lon="12.8603444"><ele>754.0</ele><time>2026-04-12T07:39:38Z</time></trkpt><trkpt lat="46.5451967" lon="12.8602339"><ele>754.0</ele><time>2026-04-12T07:39:39Z</time></trkpt><trkpt lat="46.5453342" lon="12.8601224"><ele>754.3333333333334</ele><time>2026-04-12T07:39:39.999Z</time></trkpt><trkpt lat="46.5454649" lon="12.8599861"><ele>754.6666666666666</ele><time>2026-04-12T07:39:40.999Z</time></trkpt><trkpt lat="46.5455895" lon="12.8598585"><ele>755.0</ele><time>2026-04-12T07:39:42Z</time></trkpt><trkpt lat="46.5456957" lon="12.8597256"><ele>755.0</ele><time>2026-04-12T07:39:43.001Z</time></trkpt><trkpt lat="46.5457988" lon="12.859598"><ele>755.0</ele><time>2026-04-12T07:39:44Z</time></trkpt><trkpt lat="46.5458874" lon="12.8594448"><ele>755.0</ele><time>2026-04-12T07:39:44.999Z</time></trkpt><trkpt lat="46.5459714" lon="12.8592647"><ele>755.0</ele><time>2026-04-12T07:39:46Z</time></trkpt><trkpt lat="46.5460468" lon="12.8590792"><ele>757.0</ele><time>2026-04-12T07:39:47Z</time></trkpt><trkpt lat="46.5461254" lon="12.8588993"><ele>759.0</ele><time>2026-04-12T07:39:48Z</time></trkpt><trkpt lat="46.5461996" lon="12.8587279"><ele>761.0</ele><time>2026-04-12T07:39:49.001Z</time></trkpt><trkpt lat="46.5462704" lon="12.8585582"><ele>763.0</ele><time>2026-04-12T07:39:49.999Z</time></trkpt><trkpt lat="46.546338" lon="12.858401"><ele>763.0</ele><time>2026-04-12T07:39:50.999Z</time></trkpt><trkpt lat="46.5463965" lon="12.8582566"><ele>763.0</ele><time>2026-04-12T07:39:52.001Z</time></trkpt><trkpt lat="46.5464428" lon="12.8581091"><ele>763.0</ele><time>2026-04-12T07:39:53.001Z</time></trkpt><trkpt lat="46.5464777" lon="12.8579591"><ele>763.0</ele><time>2026-04-12T07:39:54Z</time></trkpt><trkpt lat="46.546505" lon="12.8577988"><ele>763.0</ele><time>2026-04-12T07:39:55Z</time></trkpt><trkpt lat="46.5465264" lon="12.8576382"><ele>763.4</ele><time>2026-04-12T07:39:56Z</time></trkpt><trkpt lat="46.5465433" lon="12.8574812"><ele>763.8</ele><time>2026-04-12T07:39:56.999Z</time></trkpt><trkpt lat="46.5465617" lon="12.8573296"><ele>764.2</ele><time>2026-04-12T07:39:58Z</time></trkpt><trkpt lat="46.5465771" lon="12.8571859"><ele>764.6</ele><time>2026-04-12T07:39:59.001Z</time></trkpt><trkpt lat="46.546592" lon="12.8570455"><ele>765.0</ele><time>2026-04-12T07:40:00Z</time></trkpt><trkpt lat="46.5466196" lon="12.8569013"><ele>764.0</ele><time>2026-04-12T07:40:01Z</time></trkpt><trkpt lat="46.5466576" lon="12.8567576"><ele>763.0</ele><time>2026-04-12T07:40:01.999Z</time></trkpt><trkpt lat="46.5467059" lon="12.8566168"><ele>762.0</ele><time>2026-04-12T07:40:02.999Z</time></trkpt><trkpt lat="46.5467693" lon="12.8564832"><ele>761.0</ele><time>2026-04-12T07:40:04Z</time></trkpt><trkpt lat="46.5468423" lon="12.8563606"><ele>760.0</ele><time>2026-04-12T07:40:05Z</time></trkpt><trkpt lat="46.5469255" lon="12.8562493"><ele>760.0</ele><time>2026-04-12T07:40:06Z</time></trkpt><trkpt lat="46.5470135" lon="12.8561508"><ele>760.0</ele><time>2026-04-12T07:40:07Z</time></trkpt><trkpt lat="46.5471013" lon="12.8560528"><ele>760.0</ele><time>2026-04-12T07:40:07.999Z</time></trkpt><trkpt lat="46.5471801" lon="12.8559588"><ele>760.0</ele><time>2026-04-12T07:40:08.999Z</time></trkpt><trkpt lat="46.5472544" lon="12.85586"><ele>760.0</ele><time>2026-04-12T07:40:09.999Z</time></trkpt><trkpt lat="46.5473147" lon="12.855742"><ele>760.4</ele><time>2026-04-12T07:40:11.001Z</time></trkpt><trkpt lat="46.5473679" lon="12.8556246"><ele>760.8</ele><time>2026-04-12T07:40:12.001Z</time></trkpt><trkpt lat="46.5474178" lon="12.8555041"><ele>761.2</ele><time>2026-04-12T07:40:13Z</time></trkpt><trkpt lat="46.5474854" lon="12.8553898"><ele>761.6</ele><time>2026-04-12T07:40:14Z</time></trkpt><trkpt lat="46.5475689" lon="12.8552928"><ele>762.0</ele><time>2026-04-12T07:40:15Z</time></trkpt><trkpt lat="46.5476601" lon="12.8552047"><ele>762.8</ele><time>2026-04-12T07:40:16.001Z</time></trkpt><trkpt lat="46.5477556" lon="12.8551196"><ele>763.6</ele><time>2026-04-12T07:40:16.999Z</time></trkpt><trkpt lat="46.5478487" lon="12.8550392"><ele>764.4</ele><time>2026-04-12T07:40:18Z</time></trkpt><trkpt lat="46.5479403" lon="12.8549622"><ele>765.1999999999999</ele><time>2026-04-12T07:40:19.001Z</time></trkpt><trkpt lat="46.5480301" lon="12.8548875"><ele>766.0</ele><time>2026-04-12T07:40:20Z</time></trkpt><trkpt lat="46.5481301" lon="12.8548183"><ele>764.1999999999999</ele><time>2026-04-12T07:40:21Z</time></trkpt><trkpt lat="46.548224" lon="12.8547609"><ele>762.4</ele><time>2026-04-12T07:40:22Z</time></trkpt><trkpt lat="46.5483234" lon="12.8547259"><ele>760.6</ele><time>2026-04-12T07:40:22.999Z</time></trkpt><trkpt lat="46.5484167" lon="12.8546799"><ele>758.8</ele><time>2026-04-12T07:40:24Z</time></trkpt><trkpt lat="46.5485058" lon="12.8546228"><ele>757.0</ele><time>2026-04-12T07:40:25Z</time></trkpt><trkpt lat="46.5485964" lon="12.854557"><ele>757.0</ele><time>2026-04-12T07:40:26Z</time></trkpt><trkpt lat="46.5486792" lon="12.8544872"><ele>757.0</ele><time>2026-04-12T07:40:26.999Z</time></trkpt><trkpt lat="46.548762" lon="12.8544188"><ele>757.0</ele><time>2026-04-12T07:40:28.001Z</time></trkpt><trkpt lat="46.5488454" lon="12.8543478"><ele>757.0</ele><time>2026-04-12T07:40:29Z</time></trkpt><trkpt lat="46.5489263" lon="12.854284"><ele>757.0</ele><time>2026-04-12T07:40:29.999Z</time></trkpt><trkpt lat="46.5490091" lon="12.8542135"><ele>756.8</ele><time>2026-04-12T07:40:30.999Z</time></trkpt><trkpt lat="46.5490939" lon="12.8541514"><ele>756.6</ele><time>2026-04-12T07:40:32Z</time></trkpt><trkpt lat="46.5491842" lon="12.8541042"><ele>756.4</ele><time>2026-04-12T07:40:33Z</time></trkpt><trkpt lat="46.5492808" lon="12.8540738"><ele>756.1999999999999</ele><time>2026-04-12T07:40:34Z</time></trkpt><trkpt lat="46.5493792" lon="12.8540389"><ele>756.0</ele><time>2026-04-12T07:40:34.999Z</time></trkpt><trkpt lat="46.5494748" lon="12.8540127"><ele>755.5999999999999</ele><time>2026-04-12T07:40:35.999Z</time></trkpt><trkpt lat="46.5495731" lon="12.8539846"><ele>755.2</ele><time>2026-04-12T07:40:37Z</time></trkpt><trkpt lat="46.5496736" lon="12.8539662"><ele>754.8</ele><time>2026-04-12T07:40:38Z</time></trkpt><trkpt lat="46.549771" lon="12.853951"><ele>754.4000000000001</ele><time>2026-04-12T07:40:38.999Z</time></trkpt><trkpt lat="46.5498667" lon="12.853931"><ele>754.0</ele><time>2026-04-12T07:40:40Z</time></trkpt><trkpt lat="46.5499674" lon="12.8538919"><ele>754.0</ele><time>2026-04-12T07:40:41Z</time></trkpt><trkpt lat="46.550067" lon="12.8538621"><ele>754.0</ele><time>2026-04-12T07:40:42Z</time></trkpt><trkpt lat="46.5501708" lon="12.8538292"><ele>754.0</ele><time>2026-04-12T07:40:43Z</time></trkpt><trkpt lat="46.5502745" lon="12.8537817"><ele>754.0</ele><time>2026-04-12T07:40:44Z</time></trkpt><trkpt lat="46.55037" lon="12.8537175"><ele>754.0</ele><time>2026-04-12T07:40:44.999Z</time></trkpt><trkpt lat="46.5504794" lon="12.853625"><ele>753.4000000000001</ele><time>2026-04-12T07:40:46Z</time></trkpt><trkpt lat="46.5505624" lon="12.8535318"><ele>752.8</ele><time>2026-04-12T07:40:46.999Z</time></trkpt><trkpt lat="46.5506441" lon="12.8534396"><ele>752.2</ele><time>2026-04-12T07:40:48Z</time></trkpt><trkpt lat="46.5507299" lon="12.8533412"><ele>751.5999999999999</ele><time>2026-04-12T07:40:49Z</time></trkpt><trkpt lat="46.550815" lon="12.853227"><ele>751.0</ele><time>2026-04-12T07:40:49.999Z</time></trkpt><trkpt lat="46.5508998" lon="12.8531331"><ele>751.0</ele><time>2026-04-12T07:40:50.999Z</time></trkpt><trkpt lat="46.550978" lon="12.8530243"><ele>751.0</ele><time>2026-04-12T07:40:51.999Z</time></trkpt><trkpt lat="46.5510516" lon="12.8529236"><ele>751.0</ele><time>2026-04-12T07:40:52.999Z</time></trkpt><trkpt lat="46.5511326" lon="12.8528233"><ele>751.0</ele><time>2026-04-12T07:40:54Z</time></trkpt><trkpt lat="46.5512176" lon="12.8527261"><ele>751.0</ele><time>2026-04-12T07:40:54.999Z</time></trkpt><trkpt lat="46.5513025" lon="12.852637"><ele>751.1999999999999</ele><time>2026-04-12T07:40:56Z</time></trkpt><trkpt lat="46.5513856" lon="12.8525414"><ele>751.4</ele><time>2026-04-12T07:40:56.999Z</time></trkpt><trkpt lat="46.5514685" lon="12.8524511"><ele>751.6</ele><time>2026-04-12T07:40:57.999Z</time></trkpt><trkpt lat="46.5515466" lon="12.852358"><ele>751.8</ele><time>2026-04-12T07:40:59Z</time></trkpt><trkpt lat="46.5516292" lon="12.8522698"><ele>752.0</ele><time>2026-04-12T07:41:00.001Z</time></trkpt><trkpt lat="46.551707" lon="12.8521781"><ele>752.0</ele><time>2026-04-12T07:41:01Z</time></trkpt><trkpt lat="46.5517892" lon="12.8520983"><ele>752.0</ele><time>2026-04-12T07:41:02Z</time></trkpt><trkpt lat="46.5518761" lon="12.8520237"><ele>752.0</ele><time>2026-04-12T07:41:03Z</time></trkpt><trkpt lat="46.5519698" lon="12.8519503"><ele>752.0</ele><time>2026-04-12T07:41:04Z</time></trkpt><trkpt lat="46.5520668" lon="12.8518799"><ele>752.0</ele><time>2026-04-12T07:41:04.999Z</time></trkpt><trkpt lat="46.5521678" lon="12.8518062"><ele>752.2</ele><time>2026-04-12T07:41:05.999Z</time></trkpt><trkpt lat="46.5522619" lon="12.8517299"><ele>752.4000000000001</ele><time>2026-04-12T07:41:07Z</time></trkpt><trkpt lat="46.5523604" lon="12.8516584"><ele>752.5999999999999</ele><time>2026-04-12T07:41:08Z</time></trkpt><trkpt lat="46.5524558" lon="12.8515858"><ele>752.8</ele><time>2026-04-12T07:41:09Z</time></trkpt><trkpt lat="46.5525498" lon="12.8515209"><ele>753.0</ele><time>2026-04-12T07:41:09.999Z</time></trkpt><trkpt lat="46.5526396" lon="12.8514467"><ele>753.0</ele><time>2026-04-12T07:41:10.999Z</time></trkpt><trkpt lat="46.5527266" lon="12.8513757"><ele>753.0</ele><time>2026-04-12T07:41:12Z</time></trkpt><trkpt lat="46.5528078" lon="12.8512985"><ele>753.0</ele><time>2026-04-12T07:41:13Z</time></trkpt><trkpt lat="46.5528753" lon="12.8512334"><ele>753.0</ele><time>2026-04-12T07:41:13.999Z</time></trkpt><trkpt lat="46.5529387" lon="12.8511559"><ele>753.0</ele><time>2026-04-12T07:41:15Z</time></trkpt><trkpt lat="46.5529897" lon="12.8510809"><ele>753.0</ele><time>2026-04-12T07:41:15.999Z</time></trkpt><trkpt lat="46.5530349" lon="12.8510082"><ele>753.3333333333334</ele><time>2026-04-12T07:41:17.001Z</time></trkpt><trkpt lat="46.5531063" lon="12.850886"><ele>753.6666666666666</ele><time>2026-04-12T07:41:19Z</time></trkpt><trkpt lat="46.5531779" lon="12.8507381"><ele>754.0</ele><time>2026-04-12T07:41:20.999Z</time></trkpt><trkpt lat="46.5532152" lon="12.8506559"><ele>754.3333333333333</ele><time>2026-04-12T07:41:21.999Z</time></trkpt><trkpt lat="46.5532561" lon="12.8505763"><ele>754.6666666666666</ele><time>2026-04-12T07:41:23Z</time></trkpt><trkpt lat="46.553295" lon="12.850496"><ele>755.0</ele><time>2026-04-12T07:41:24Z</time></trkpt><trkpt lat="46.5533322" lon="12.8504168"><ele>755.0</ele><time>2026-04-12T07:41:25.002Z</time></trkpt><trkpt lat="46.5533699" lon="12.8503407"><ele>755.0</ele><time>2026-04-12T07:41:26Z</time></trkpt><trkpt lat="46.5534125" lon="12.8502628"><ele>755.0</ele><time>2026-04-12T07:41:27Z</time></trkpt><trkpt lat="46.5534513" lon="12.8501839"><ele>755.0</ele><time>2026-04-12T07:41:28Z</time></trkpt><trkpt lat="46.5535079" lon="12.8501063"><ele>755.0</ele><time>2026-04-12T07:41:29Z</time></trkpt><trkpt lat="46.5535731" lon="12.8500211"><ele>755.0</ele><time>2026-04-12T07:41:29.999Z</time></trkpt><trkpt lat="46.5536462" lon="12.8499291"><ele>753.5</ele><time>2026-04-12T07:41:31Z</time></trkpt><trkpt lat="46.5537262" lon="12.8498217"><ele>752.0</ele><time>2026-04-12T07:41:32Z</time></trkpt><trkpt lat="46.5538489" lon="12.8497696"><ele>750.5</ele><time>2026-04-12T07:41:32.999Z</time></trkpt><trkpt lat="46.5539515" lon="12.8496714"><ele>749.0</ele><time>2026-04-12T07:41:34Z</time></trkpt><trkpt lat="46.5540931" lon="12.8495684"><ele>749.0</ele><time>2026-04-12T07:41:35.001Z</time></trkpt><trkpt lat="46.5542176" lon="12.8494784"><ele>749.0</ele><time>2026-04-12T07:41:36.001Z</time></trkpt><trkpt lat="46.5543354" lon="12.8493928"><ele>749.0</ele><time>2026-04-12T07:41:37Z</time></trkpt><trkpt lat="46.5544506" lon="12.8493166"><ele>749.0</ele><time>2026-04-12T07:41:38Z</time></trkpt><trkpt lat="46.5545644" lon="12.8492477"><ele>750.2</ele><time>2026-04-12T07:41:38.999Z</time></trkpt><trkpt lat="46.554672" lon="12.849169"><ele>751.4000000000001</ele><time>2026-04-12T07:41:40Z</time></trkpt><trkpt lat="46.5547762" lon="12.849094"><ele>752.6</ele><time>2026-04-12T07:41:41Z</time></trkpt><trkpt lat="46.5548769" lon="12.8490462"><ele>753.8</ele><time>2026-04-12T07:41:42Z</time></trkpt><trkpt lat="46.5549739" lon="12.8490242"><ele>755.0</ele><time>2026-04-12T07:41:43.001Z</time></trkpt><trkpt lat="46.5550711" lon="12.849014"><ele>755.0</ele><time>2026-04-12T07:41:44Z</time></trkpt><trkpt lat="46.5551757" lon="12.848995"><ele>755.0</ele><time>2026-04-12T07:41:45.001Z</time></trkpt><trkpt lat="46.5552769" lon="12.8489747"><ele>755.0</ele><time>2026-04-12T07:41:46Z</time></trkpt><trkpt lat="46.5553689" lon="12.8488929"><ele>755.0</ele><time>2026-04-12T07:41:46.999Z</time></trkpt><trkpt lat="46.5554608" lon="12.8488338"><ele>755.0</ele><time>2026-04-12T07:41:47.999Z</time></trkpt><trkpt lat="46.5555505" lon="12.8487811"><ele>752.8</ele><time>2026-04-12T07:41:49Z</time></trkpt><trkpt lat="46.5556515" lon="12.8487471"><ele>750.6</ele><time>2026-04-12T07:41:50.001Z</time></trkpt><trkpt lat="46.5557551" lon="12.8487541"><ele>748.4000000000001</ele><time>2026-04-12T07:41:50.999Z</time></trkpt><trkpt lat="46.5558558" lon="12.8487689"><ele>746.2</ele><time>2026-04-12T07:41:52Z</time></trkpt><trkpt lat="46.5559524" lon="12.8487982"><ele>744.0</ele><time>2026-04-12T07:41:52.999Z</time></trkpt><trkpt lat="46.5560492" lon="12.8488277"><ele>744.0</ele><time>2026-04-12T07:41:54Z</time></trkpt><trkpt lat="46.5561452" lon="12.8488531"><ele>744.0</ele><time>2026-04-12T07:41:55.001Z</time></trkpt><trkpt lat="46.5562317" lon="12.8488944"><ele>744.0</ele><time>2026-04-12T07:41:56Z</time></trkpt><trkpt lat="46.5563108" lon="12.8489495"><ele>744.0</ele><time>2026-04-12T07:41:57Z</time></trkpt><trkpt lat="46.5564021" lon="12.8490104"><ele>744.0</ele><time>2026-04-12T07:41:58.001Z</time></trkpt><trkpt lat="46.5564973" lon="12.8490641"><ele>744.0</ele><time>2026-04-12T07:41:59.001Z</time></trkpt><trkpt lat="46.5566044" lon="12.8490802"><ele>744.0</ele><time>2026-04-12T07:42:00.001Z</time></trkpt><trkpt lat="46.5567117" lon="12.8490599"><ele>744.0</ele><time>2026-04-12T07:42:01Z</time></trkpt><trkpt lat="46.5568328" lon="12.8489382"><ele>744.0</ele><time>2026-04-12T07:42:01.999Z</time></trkpt><trkpt lat="46.5569781" lon="12.8488197"><ele>742.3333333333334</ele><time>2026-04-12T07:42:03Z</time></trkpt><trkpt lat="46.5571414" lon="12.8487051"><ele>740.6666666666667</ele><time>2026-04-12T07:42:04Z</time></trkpt><trkpt lat="46.557298" lon="12.8486096"><ele>739.0</ele><time>2026-04-12T07:42:05Z</time></trkpt><trkpt lat="46.5574555" lon="12.8485371"><ele>739.0</ele><time>2026-04-12T07:42:06.001Z</time></trkpt><trkpt lat="46.5576026" lon="12.8485023"><ele>739.0</ele><time>2026-04-12T07:42:06.999Z</time></trkpt><trkpt lat="46.5577441" lon="12.848457"><ele>739.0</ele><time>2026-04-12T07:42:07.999Z</time></trkpt><trkpt lat="46.5578819" lon="12.8484082"><ele>739.0</ele><time>2026-04-12T07:42:09Z</time></trkpt><trkpt lat="46.5580203" lon="12.8483288"><ele>740.3333333333334</ele><time>2026-04-12T07:42:10Z</time></trkpt><trkpt lat="46.5581535" lon="12.8482171"><ele>741.6666666666666</ele><time>2026-04-12T07:42:10.999Z</time></trkpt><trkpt lat="46.5582895" lon="12.8480934"><ele>743.0</ele><time>2026-04-12T07:42:12Z</time></trkpt><trkpt lat="46.5584266" lon="12.8479579"><ele>743.0</ele><time>2026-04-12T07:42:13Z</time></trkpt><trkpt lat="46.5585696" lon="12.8478145"><ele>743.0</ele><time>2026-04-12T07:42:14Z</time></trkpt><trkpt lat="46.5587124" lon="12.8476779"><ele>743.0</ele><time>2026-04-12T07:42:15.001Z</time></trkpt><trkpt lat="46.5588535" lon="12.8475474"><ele>743.6666666666666</ele><time>2026-04-12T07:42:16.001Z</time></trkpt><trkpt lat="46.5589848" lon="12.8474074"><ele>744.3333333333334</ele><time>2026-04-12T07:42:17.001Z</time></trkpt><trkpt lat="46.5591078" lon="12.8472513"><ele>745.0</ele><time>2026-04-12T07:42:17.999Z</time></trkpt><trkpt lat="46.5592218" lon="12.8470557"><ele>745.0</ele><time>2026-04-12T07:42:19Z</time></trkpt><trkpt lat="46.5593234" lon="12.8468785"><ele>745.0</ele><time>2026-04-12T07:42:20Z</time></trkpt><trkpt lat="46.5594158" lon="12.8466881"><ele>745.0</ele><time>2026-04-12T07:42:21.001Z</time></trkpt><trkpt lat="46.5594922" lon="12.8464908"><ele>745.6666666666667</ele><time>2026-04-12T07:42:22Z</time></trkpt><trkpt lat="46.5595731" lon="12.8462866"><ele>746.3333333333334</ele><time>2026-04-12T07:42:23Z</time></trkpt><trkpt lat="46.5596696" lon="12.8460856"><ele>747.0</ele><time>2026-04-12T07:42:24.001Z</time></trkpt><trkpt lat="46.5597815" lon="12.8458937"><ele>747.0</ele><time>2026-04-12T07:42:24.999Z</time></trkpt><trkpt lat="46.5599041" lon="12.8456992"><ele>747.0</ele><time>2026-04-12T07:42:26.001Z</time></trkpt><trkpt lat="46.5600346" lon="12.8455178"><ele>747.0</ele><time>2026-04-12T07:42:27Z</time></trkpt><trkpt lat="46.5601642" lon="12.8453524"><ele>747.0</ele><time>2026-04-12T07:42:28Z</time></trkpt><trkpt lat="46.5602924" lon="12.8451911"><ele>747.0</ele><time>2026-04-12T07:42:29Z</time></trkpt><trkpt lat="46.5604164" lon="12.845035"><ele>747.0</ele><time>2026-04-12T07:42:30Z</time></trkpt><trkpt lat="46.5605437" lon="12.8448773"><ele>744.0</ele><time>2026-04-12T07:42:30.999Z</time></trkpt><trkpt lat="46.5606758" lon="12.8447398"><ele>741.0</ele><time>2026-04-12T07:42:31.999Z</time></trkpt><trkpt lat="46.5608286" lon="12.8446324"><ele>738.0</ele><time>2026-04-12T07:42:32.999Z</time></trkpt><trkpt lat="46.5609861" lon="12.8445568"><ele>738.0</ele><time>2026-04-12T07:42:33.999Z</time></trkpt><trkpt lat="46.5611475" lon="12.8445147"><ele>738.0</ele><time>2026-04-12T07:42:35Z</time></trkpt><trkpt lat="46.5613143" lon="12.8444615"><ele>738.0</ele><time>2026-04-12T07:42:35.999Z</time></trkpt><trkpt lat="46.5614786" lon="12.8443929"><ele>743.3333333333334</ele><time>2026-04-12T07:42:37Z</time></trkpt><trkpt lat="46.5616392" lon="12.8443096"><ele>748.6666666666667</ele><time>2026-04-12T07:42:37.999Z</time></trkpt><trkpt lat="46.5617828" lon="12.8441985"><ele>754.0</ele><time>2026-04-12T07:42:39Z</time></trkpt><trkpt lat="46.5619319" lon="12.8440922"><ele>743.0</ele><time>2026-04-12T07:42:40.001Z</time></trkpt><trkpt lat="46.5620848" lon="12.8439982"><ele>732.0</ele><time>2026-04-12T07:42:41Z</time></trkpt><trkpt lat="46.5622339" lon="12.8440236"><ele>721.0</ele><time>2026-04-12T07:42:42.001Z</time></trkpt><trkpt lat="46.5623799" lon="12.8440179"><ele>721.0</ele><time>2026-04-12T07:42:42.999Z</time></trkpt><trkpt lat="46.562514" lon="12.8440024"><ele>721.0</ele><time>2026-04-12T07:42:44.001Z</time></trkpt><trkpt lat="46.5626365" lon="12.8438986"><ele>721.0</ele><time>2026-04-12T07:42:45.001Z</time></trkpt><trkpt lat="46.5627489" lon="12.8437566"><ele>721.0</ele><time>2026-04-12T07:42:46Z</time></trkpt><trkpt lat="46.562871" lon="12.8435702"><ele>722.6666666666667</ele><time>2026-04-12T07:42:47.001Z</time></trkpt><trkpt lat="46.5629934" lon="12.8433702"><ele>724.3333333333334</ele><time>2026-04-12T07:42:48.001Z</time></trkpt><trkpt lat="46.563121" lon="12.8431864"><ele>726.0</ele><time>2026-04-12T07:42:49Z</time></trkpt><trkpt lat="46.5632382" lon="12.8430027"><ele>726.0</ele><time>2026-04-12T07:42:49.999Z</time></trkpt><trkpt lat="46.5633556" lon="12.842824"><ele>726.0</ele><time>2026-04-12T07:42:51Z</time></trkpt><trkpt lat="46.5634666" lon="12.8426531"><ele>726.0</ele><time>2026-04-12T07:42:51.999Z</time></trkpt><trkpt lat="46.5635735" lon="12.8424688"><ele>727.3333333333334</ele><time>2026-04-12T07:42:53.001Z</time></trkpt><trkpt lat="46.5636738" lon="12.8422797"><ele>728.6666666666667</ele><time>2026-04-12T07:42:54.001Z</time></trkpt><trkpt lat="46.5637692" lon="12.8420703"><ele>730.0</ele><time>2026-04-12T07:42:55Z</time></trkpt><trkpt lat="46.5638619" lon="12.8418558"><ele>733.6666666666667</ele><time>2026-04-12T07:42:56Z</time></trkpt><trkpt lat="46.563956" lon="12.8416328"><ele>737.3333333333334</ele><time>2026-04-12T07:42:57Z</time></trkpt><trkpt lat="46.5640502" lon="12.8414133"><ele>741.0</ele><time>2026-04-12T07:42:58Z</time></trkpt><trkpt lat="46.5641479" lon="12.8411833"><ele>747.6666666666666</ele><time>2026-04-12T07:42:58.999Z</time></trkpt><trkpt lat="46.5642443" lon="12.8409303"><ele>754.3333333333333</ele><time>2026-04-12T07:42:59.999Z</time></trkpt><trkpt lat="46.5643341" lon="12.8406781"><ele>761.0</ele><time>2026-04-12T07:43:01Z</time></trkpt><trkpt lat="46.5644232" lon="12.8404265"><ele>761.0</ele><time>2026-04-12T07:43:01.999Z</time></trkpt><trkpt lat="46.5645161" lon="12.8401916"><ele>761.0</ele><time>2026-04-12T07:43:03.001Z</time></trkpt><trkpt lat="46.5646279" lon="12.8399708"><ele>761.0</ele><time>2026-04-12T07:43:03.999Z</time></trkpt><trkpt lat="46.5647395" lon="12.8397603"><ele>757.0</ele><time>2026-04-12T07:43:05Z</time></trkpt><trkpt lat="46.5648348" lon="12.839544"><ele>753.0</ele><time>2026-04-12T07:43:05.999Z</time></trkpt><trkpt lat="46.5649263" lon="12.8393044"><ele>749.0</ele><time>2026-04-12T07:43:06.999Z</time></trkpt><trkpt lat="46.5650121" lon="12.8390464"><ele>749.0</ele><time>2026-04-12T07:43:08.001Z</time></trkpt><trkpt lat="46.5650921" lon="12.8387941"><ele>749.0</ele><time>2026-04-12T07:43:09Z</time></trkpt><trkpt lat="46.5651678" lon="12.8385515"><ele>749.0</ele><time>2026-04-12T07:43:10Z</time></trkpt><trkpt lat="46.565245" lon="12.8383325"><ele>745.0</ele><time>2026-04-12T07:43:10.999Z</time></trkpt><trkpt lat="46.5653471" lon="12.8381444"><ele>741.0</ele><time>2026-04-12T07:43:11.999Z</time></trkpt><trkpt lat="46.5654637" lon="12.8379823"><ele>737.0</ele><time>2026-04-12T07:43:12.999Z</time></trkpt><trkpt lat="46.5655737" lon="12.8378187"><ele>738.6666666666666</ele><time>2026-04-12T07:43:13.999Z</time></trkpt><trkpt lat="46.5656725" lon="12.8376075"><ele>740.3333333333334</ele><time>2026-04-12T07:43:14.999Z</time></trkpt><trkpt lat="46.5657584" lon="12.8373671"><ele>742.0</ele><time>2026-04-12T07:43:16Z</time></trkpt><trkpt lat="46.5658288" lon="12.837129"><ele>742.0</ele><time>2026-04-12T07:43:17Z</time></trkpt><trkpt lat="46.5658985" lon="12.8368853"><ele>742.0</ele><time>2026-04-12T07:43:17.999Z</time></trkpt><trkpt lat="46.5659706" lon="12.8366672"><ele>742.0</ele><time>2026-04-12T07:43:19Z</time></trkpt><trkpt lat="46.5660414" lon="12.8364512"><ele>742.3333333333334</ele><time>2026-04-12T07:43:19.999Z</time></trkpt><trkpt lat="46.5661145" lon="12.8362503"><ele>742.6666666666666</ele><time>2026-04-12T07:43:21.001Z</time></trkpt><trkpt lat="46.5661914" lon="12.8360627"><ele>743.0</ele><time>2026-04-12T07:43:21.999Z</time></trkpt><trkpt lat="46.5662673" lon="12.8358826"><ele>743.0</ele><time>2026-04-12T07:43:23Z</time></trkpt><trkpt lat="46.5663326" lon="12.8357272"><ele>743.0</ele><time>2026-04-12T07:43:24Z</time></trkpt><trkpt lat="46.5663897" lon="12.8356056"><ele>743.0</ele><time>2026-04-12T07:43:24.999Z</time></trkpt><trkpt lat="46.5664379" lon="12.8355384"><ele>743.0</ele><time>2026-04-12T07:43:25.999Z</time></trkpt><trkpt lat="46.5665147" lon="12.8354459"><ele>743.0</ele><time>2026-04-12T07:43:28Z</time></trkpt><trkpt lat="46.5665487" lon="12.8353662"><ele>743.0</ele><time>2026-04-12T07:43:29.999Z</time></trkpt><trkpt lat="46.5665678" lon="12.8352683"><ele>743.0</ele><time>2026-04-12T07:50:49.999Z</time></trkpt><trkpt lat="46.5665836" lon="12.8350761"><ele>743.0</ele><time>2026-04-12T07:50:51.999Z</time></trkpt><trkpt lat="46.5666017" lon="12.8349576"><ele>743.0</ele><time>2026-04-12T07:50:52.999Z</time></trkpt><trkpt lat="46.5666277" lon="12.8348196"><ele>743.0</ele><time>2026-04-12T07:50:53.999Z</time></trkpt><trkpt lat="46.5666605" lon="12.8346614"><ele>742.75</ele><time>2026-04-12T07:50:54.999Z</time></trkpt><trkpt lat="46.5666976" lon="12.83449"><ele>742.5</ele><time>2026-04-12T07:50:55.998Z</time></trkpt><trkpt lat="46.5667344" lon="12.8343244"><ele>742.25</ele><time>2026-04-12T07:50:56.998Z</time></trkpt><trkpt lat="46.5667787" lon="12.8341528"><ele>742.0</ele><time>2026-04-12T07:50:57.999Z</time></trkpt><trkpt lat="46.5668216" lon="12.8339755"><ele>743.75</ele><time>2026-04-12T07:50:58.999Z</time></trkpt><trkpt lat="46.5668639" lon="12.8337939"><ele>745.5</ele><time>2026-04-12T07:50:59.999Z</time></trkpt><trkpt lat="46.5669133" lon="12.8336099"><ele>747.25</ele><time>2026-04-12T07:51:00.999Z</time></trkpt><trkpt lat="46.5669628" lon="12.8334099"><ele>749.0</ele><time>2026-04-12T07:51:01.998Z</time></trkpt><trkpt lat="46.5670152" lon="12.8331877"><ele>749.0</ele><time>2026-04-12T07:51:02.999Z</time></trkpt><trkpt lat="46.5670753" lon="12.8329336"><ele>749.0</ele><time>2026-04-12T07:51:03.999Z</time></trkpt><trkpt lat="46.5671461" lon="12.8326517"><ele>749.0</ele><time>2026-04-12T07:51:04.999Z</time></trkpt><trkpt lat="46.5672958" lon="12.8321161"><ele>749.0</ele><time>2026-04-12T07:51:07Z</time></trkpt><trkpt lat="46.5673758" lon="12.8318542"><ele>749.0</ele><time>2026-04-12T07:51:07.999Z</time></trkpt><trkpt lat="46.5674601" lon="12.8315885"><ele>749.0</ele><time>2026-04-12T07:51:09Z</time></trkpt><trkpt lat="46.5675502" lon="12.83132"><ele>751.6666666666666</ele><time>2026-04-12T07:51:09.999Z</time></trkpt><trkpt lat="46.5676432" lon="12.8310487"><ele>754.3333333333334</ele><time>2026-04-12T07:51:10.998Z</time></trkpt><trkpt lat="46.5677375" lon="12.8307814"><ele>757.0</ele><time>2026-04-12T07:51:11.999Z</time></trkpt><trkpt lat="46.5678343" lon="12.8305278"><ele>755.6666666666667</ele><time>2026-04-12T07:51:12.999Z</time></trkpt><trkpt lat="46.5679352" lon="12.8302834"><ele>754.3333333333334</ele><time>2026-04-12T07:51:14Z</time></trkpt><trkpt lat="46.5680348" lon="12.8300338"><ele>753.0</ele><time>2026-04-12T07:51:15Z</time></trkpt><trkpt lat="46.5681351" lon="12.8297914"><ele>753.0</ele><time>2026-04-12T07:51:15.998Z</time></trkpt><trkpt lat="46.5682344" lon="12.8295504"><ele>753.0</ele><time>2026-04-12T07:51:17Z</time></trkpt><trkpt lat="46.5683407" lon="12.8293152"><ele>753.0</ele><time>2026-04-12T07:51:17.999Z</time></trkpt><trkpt lat="46.5684451" lon="12.8290857"><ele>753.3333333333334</ele><time>2026-04-12T07:51:18.998Z</time></trkpt><trkpt lat="46.5685535" lon="12.8288638"><ele>753.6666666666667</ele><time>2026-04-12T07:51:19.998Z</time></trkpt><trkpt lat="46.5686576" lon="12.8286504"><ele>754.0</ele><time>2026-04-12T07:51:20.999Z</time></trkpt><trkpt lat="46.5687642" lon="12.8284277"><ele>758.3333333333334</ele><time>2026-04-12T07:51:21.999Z</time></trkpt><trkpt lat="46.5688682" lon="12.8282113"><ele>762.6666666666666</ele><time>2026-04-12T07:51:22.999Z</time></trkpt><trkpt lat="46.568974" lon="12.827996"><ele>767.0</ele><time>2026-04-12T07:51:23.998Z</time></trkpt><trkpt lat="46.5690759" lon="12.8277806"><ele>779.0</ele><time>2026-04-12T07:51:24.999Z</time></trkpt><trkpt lat="46.5692846" lon="12.8273522"><ele>791.0</ele><time>2026-04-12T07:51:27Z</time></trkpt><trkpt lat="46.5703444" lon="12.8109242"><ele>791.0</ele><time>2026-04-12T07:52:27.998Z</time></trkpt><trkpt lat="46.5703377" lon="12.8107189"><ele>791.0</ele><time>2026-04-12T07:52:28.998Z</time></trkpt><trkpt lat="46.5703285" lon="12.8104934"><ele>791.0</ele><time>2026-04-12T07:52:29.998Z</time></trkpt><trkpt lat="46.5703307" lon="12.810252"><ele>793.3333333333334</ele><time>2026-04-12T07:52:30.999Z</time></trkpt><trkpt lat="46.5703531" lon="12.8100345"><ele>795.6666666666667</ele><time>2026-04-12T07:52:31.998Z</time></trkpt><trkpt lat="46.5704008" lon="12.8098241"><ele>798.0</ele><time>2026-04-12T07:52:32.998Z</time></trkpt><trkpt lat="46.570469" lon="12.8096174"><ele>799.5</ele><time>2026-04-12T07:52:33.998Z</time></trkpt><trkpt lat="46.5705642" lon="12.8094482"><ele>801.0</ele><time>2026-04-12T07:52:34.998Z</time></trkpt><trkpt lat="46.5706828" lon="12.8093199"><ele>802.5</ele><time>2026-04-12T07:52:35.999Z</time></trkpt><trkpt lat="46.5708042" lon="12.8092077"><ele>804.0</ele><time>2026-04-12T07:52:36.998Z</time></trkpt><trkpt lat="46.5709587" lon="12.809125"><ele>804.0</ele><time>2026-04-12T07:52:37.998Z</time></trkpt><trkpt lat="46.5710913" lon="12.809005"><ele>804.0</ele><time>2026-04-12T07:52:38.998Z</time></trkpt><trkpt lat="46.5711994" lon="12.8088244"><ele>804.0</ele><time>2026-04-12T07:52:39.999Z</time></trkpt><trkpt lat="46.5713078" lon="12.8086205"><ele>811.3333333333333</ele><time>2026-04-12T07:52:40.998Z</time></trkpt><trkpt lat="46.5714049" lon="12.8083986"><ele>818.6666666666666</ele><time>2026-04-12T07:52:41.999Z</time></trkpt><trkpt lat="46.5714839" lon="12.8081595"><ele>826.0</ele><time>2026-04-12T07:52:42.998Z</time></trkpt><trkpt lat="46.5715528" lon="12.8079008"><ele>822.3333333333333</ele><time>2026-04-12T07:52:43.998Z</time></trkpt><trkpt lat="46.5716165" lon="12.8076323"><ele>818.6666666666667</ele><time>2026-04-12T07:52:44.998Z</time></trkpt><trkpt lat="46.5716764" lon="12.8073624"><ele>815.0</ele><time>2026-04-12T07:52:45.998Z</time></trkpt><trkpt lat="46.5717343" lon="12.8070983"><ele>815.0</ele><time>2026-04-12T07:52:46.998Z</time></trkpt><trkpt lat="46.5717913" lon="12.8068374"><ele>815.0</ele><time>2026-04-12T07:52:47.998Z</time></trkpt><trkpt lat="46.5718494" lon="12.8065845"><ele>815.0</ele><time>2026-04-12T07:52:48.999Z</time></trkpt><trkpt lat="46.5719061" lon="12.8063257"><ele>812.6666666666667</ele><time>2026-04-12T07:52:49.998Z</time></trkpt><trkpt lat="46.5719669" lon="12.8060713"><ele>810.3333333333333</ele><time>2026-04-12T07:52:50.998Z</time></trkpt><trkpt lat="46.5720271" lon="12.8058245"><ele>808.0</ele><time>2026-04-12T07:52:51.998Z</time></trkpt><trkpt lat="46.5720975" lon="12.8055891"><ele>811.3333333333333</ele><time>2026-04-12T07:52:52.998Z</time></trkpt><trkpt lat="46.5721708" lon="12.8053669"><ele>814.6666666666667</ele><time>2026-04-12T07:52:53.999Z</time></trkpt><trkpt lat="46.5722491" lon="12.8051451"><ele>818.0</ele><time>2026-04-12T07:52:54.998Z</time></trkpt><trkpt lat="46.5723312" lon="12.8049267"><ele>818.0</ele><time>2026-04-12T07:52:55.998Z</time></trkpt><trkpt lat="46.5724092" lon="12.8046996"><ele>818.0</ele><time>2026-04-12T07:52:56.998Z</time></trkpt><trkpt lat="46.5724722" lon="12.8044538"><ele>818.0</ele><time>2026-04-12T07:52:57.998Z</time></trkpt><trkpt lat="46.5725242" lon="12.8041948"><ele>815.6666666666667</ele><time>2026-04-12T07:52:58.998Z</time></trkpt><trkpt lat="46.5725677" lon="12.8039269"><ele>813.3333333333333</ele><time>2026-04-12T07:52:59.999Z</time></trkpt><trkpt lat="46.572593" lon="12.8036564"><ele>811.0</ele><time>2026-04-12T07:53:00.998Z</time></trkpt><trkpt lat="46.5725835" lon="12.8033778"><ele>811.0</ele><time>2026-04-12T07:53:01.998Z</time></trkpt><trkpt lat="46.5725521" lon="12.8030983"><ele>811.0</ele><time>2026-04-12T07:53:02.998Z</time></trkpt><trkpt lat="46.5725237" lon="12.8028063"><ele>811.0</ele><time>2026-04-12T07:53:03.998Z</time></trkpt><trkpt lat="46.5725336" lon="12.8025465"><ele>811.0</ele><time>2026-04-12T07:53:04.999Z</time></trkpt><trkpt lat="46.5725662" lon="12.8022866"><ele>811.0</ele><time>2026-04-12T07:53:05.998Z</time></trkpt><trkpt lat="46.5726169" lon="12.8020291"><ele>811.0</ele><time>2026-04-12T07:53:06.998Z</time></trkpt><trkpt lat="46.572671" lon="12.8017753"><ele>807.0</ele><time>2026-04-12T07:53:07.998Z</time></trkpt><trkpt lat="46.5727213" lon="12.8015248"><ele>803.0</ele><time>2026-04-12T07:53:08.998Z</time></trkpt><trkpt lat="46.5727794" lon="12.8012895"><ele>799.0</ele><time>2026-04-12T07:53:09.998Z</time></trkpt><trkpt lat="46.572844" lon="12.8010652"><ele>802.6666666666666</ele><time>2026-04-12T07:53:10.998Z</time></trkpt><trkpt lat="46.5729263" lon="12.8008561"><ele>806.3333333333333</ele><time>2026-04-12T07:53:11.999Z</time></trkpt><trkpt lat="46.5730267" lon="12.8006559"><ele>810.0</ele><time>2026-04-12T07:53:12.998Z</time></trkpt><trkpt lat="46.5731453" lon="12.8004601"><ele>810.0</ele><time>2026-04-12T07:53:13.998Z</time></trkpt><trkpt lat="46.5732671" lon="12.8002721"><ele>810.0</ele><time>2026-04-12T07:53:14.998Z</time></trkpt><trkpt lat="46.5733939" lon="12.800081"><ele>810.0</ele><time>2026-04-12T07:53:15.998Z</time></trkpt><trkpt lat="46.5735207" lon="12.7998888"><ele>809.6666666666667</ele><time>2026-04-12T07:53:16.998Z</time></trkpt><trkpt lat="46.5736537" lon="12.799692"><ele>809.3333333333334</ele><time>2026-04-12T07:53:17.998Z</time></trkpt><trkpt lat="46.5737936" lon="12.799489"><ele>809.0</ele><time>2026-04-12T07:53:18.998Z</time></trkpt><trkpt lat="46.5739423" lon="12.7992724"><ele>812.6666666666667</ele><time>2026-04-12T07:53:19.999Z</time></trkpt><trkpt lat="46.5740845" lon="12.7990668"><ele>816.3333333333333</ele><time>2026-04-12T07:53:20.998Z</time></trkpt><trkpt lat="46.5742195" lon="12.7988562"><ele>820.0</ele><time>2026-04-12T07:53:21.998Z</time></trkpt><trkpt lat="46.5743396" lon="12.7986394"><ele>818.0</ele><time>2026-04-12T07:53:22.998Z</time></trkpt><trkpt lat="46.5744512" lon="12.7984163"><ele>816.0</ele><time>2026-04-12T07:53:23.998Z</time></trkpt><trkpt lat="46.5745509" lon="12.7981888"><ele>814.0</ele><time>2026-04-12T07:53:24.999Z</time></trkpt><trkpt lat="46.5746498" lon="12.797955"><ele>822.0</ele><time>2026-04-12T07:53:25.999Z</time></trkpt><trkpt lat="46.5747475" lon="12.7977181"><ele>830.0</ele><time>2026-04-12T07:53:27Z</time></trkpt><trkpt lat="46.574845" lon="12.7974798"><ele>838.0</ele><time>2026-04-12T07:53:27.998Z</time></trkpt><trkpt lat="46.5749416" lon="12.7972366"><ele>838.0</ele><time>2026-04-12T07:53:28.998Z</time></trkpt><trkpt lat="46.5750374" lon="12.7969906"><ele>838.0</ele><time>2026-04-12T07:53:29.998Z</time></trkpt><trkpt lat="46.5751341" lon="12.7967511"><ele>838.0</ele><time>2026-04-12T07:53:30.998Z</time></trkpt><trkpt lat="46.5752291" lon="12.7964964"><ele>842.0</ele><time>2026-04-12T07:53:31.999Z</time></trkpt><trkpt lat="46.5753264" lon="12.7962484"><ele>846.0</ele><time>2026-04-12T07:53:32.998Z</time></trkpt><trkpt lat="46.5754203" lon="12.7960035"><ele>850.0</ele><time>2026-04-12T07:53:33.998Z</time></trkpt><trkpt lat="46.5755139" lon="12.7957613"><ele>850.0</ele><time>2026-04-12T07:53:34.999Z</time></trkpt><trkpt lat="46.5756038" lon="12.7955187"><ele>850.0</ele><time>2026-04-12T07:53:35.999Z</time></trkpt><trkpt lat="46.5756809" lon="12.7952603"><ele>850.0</ele><time>2026-04-12T07:53:37Z</time></trkpt><trkpt lat="46.575754" lon="12.7950001"><ele>843.3333333333333</ele><time>2026-04-12T07:53:37.999Z</time></trkpt><trkpt lat="46.5758396" lon="12.7947573"><ele>836.6666666666667</ele><time>2026-04-12T07:53:38.999Z</time></trkpt><trkpt lat="46.5759436" lon="12.7945295"><ele>830.0</ele><time>2026-04-12T07:53:39.998Z</time></trkpt><trkpt lat="46.5760687" lon="12.7943236"><ele>842.3333333333334</ele><time>2026-04-12T07:53:40.999Z</time></trkpt><trkpt lat="46.5762058" lon="12.7941182"><ele>854.6666666666667</ele><time>2026-04-12T07:53:41.999Z</time></trkpt><trkpt lat="46.57635" lon="12.7939116"><ele>867.0</ele><time>2026-04-12T07:53:42.998Z</time></trkpt><trkpt lat="46.5764929" lon="12.7937016"><ele>854.0</ele><time>2026-04-12T07:53:43.999Z</time></trkpt><trkpt lat="46.5766377" lon="12.7935028"><ele>841.0</ele><time>2026-04-12T07:53:44.998Z</time></trkpt><trkpt lat="46.5767764" lon="12.7932996"><ele>828.0</ele><time>2026-04-12T07:53:45.999Z</time></trkpt><trkpt lat="46.5769112" lon="12.7931046"><ele>833.0</ele><time>2026-04-12T07:53:46.998Z</time></trkpt><trkpt lat="46.577043" lon="12.7929204"><ele>838.0</ele><time>2026-04-12T07:53:47.999Z</time></trkpt><trkpt lat="46.5771681" lon="12.7927462"><ele>843.0</ele><time>2026-04-12T07:53:48.998Z</time></trkpt><trkpt lat="46.5772798" lon="12.7925801"><ele>843.0</ele><time>2026-04-12T07:53:49.999Z</time></trkpt><trkpt lat="46.5773899" lon="12.7924288"><ele>843.0</ele><time>2026-04-12T07:53:50.999Z</time></trkpt><trkpt lat="46.57749" lon="12.792277"><ele>843.0</ele><time>2026-04-12T07:53:51.999Z</time></trkpt><trkpt lat="46.5775773" lon="12.7921151"><ele>843.0</ele><time>2026-04-12T07:53:52.998Z</time></trkpt><trkpt lat="46.5776364" lon="12.7919265"><ele>837.0</ele><time>2026-04-12T07:53:53.998Z</time></trkpt><trkpt lat="46.5776807" lon="12.7917084"><ele>831.0</ele><time>2026-04-12T07:53:54.999Z</time></trkpt><trkpt lat="46.5777294" lon="12.7914941"><ele>825.0</ele><time>2026-04-12T07:53:55.998Z</time></trkpt><trkpt lat="46.5777891" lon="12.7912954"><ele>829.3333333333333</ele><time>2026-04-12T07:53:56.999Z</time></trkpt><trkpt lat="46.5778673" lon="12.7911073"><ele>833.6666666666666</ele><time>2026-04-12T07:53:57.998Z</time></trkpt><trkpt lat="46.5779632" lon="12.7909312"><ele>838.0</ele><time>2026-04-12T07:53:58.999Z</time></trkpt><trkpt lat="46.5780684" lon="12.7907788"><ele>838.0</ele><time>2026-04-12T07:53:59.999Z</time></trkpt><trkpt lat="46.578191" lon="12.7906542"><ele>838.0</ele><time>2026-04-12T07:54:00.998Z</time></trkpt><trkpt lat="46.5783274" lon="12.7905669"><ele>838.0</ele><time>2026-04-12T07:54:01.998Z</time></trkpt><trkpt lat="46.5784763" lon="12.7905131"><ele>838.0</ele><time>2026-04-12T07:54:02.998Z</time></trkpt><trkpt lat="46.5786349" lon="12.7904799"><ele>838.0</ele><time>2026-04-12T07:54:03.998Z</time></trkpt><trkpt lat="46.5787975" lon="12.7904257"><ele>838.0</ele><time>2026-04-12T07:54:04.998Z</time></trkpt><trkpt lat="46.5789539" lon="12.7903385"><ele>840.0</ele><time>2026-04-12T07:54:05.998Z</time></trkpt><trkpt lat="46.5790935" lon="12.790219"><ele>842.0</ele><time>2026-04-12T07:54:06.999Z</time></trkpt><trkpt lat="46.5792255" lon="12.7900574"><ele>844.0</ele><time>2026-04-12T07:54:07.999Z</time></trkpt><trkpt lat="46.5793441" lon="12.7898742"><ele>844.0</ele><time>2026-04-12T07:54:08.998Z</time></trkpt><trkpt lat="46.5794557" lon="12.7896807"><ele>844.0</ele><time>2026-04-12T07:54:09.999Z</time></trkpt><trkpt lat="46.5795382" lon="12.7894519"><ele>844.0</ele><time>2026-04-12T07:54:10.998Z</time></trkpt><trkpt lat="46.5796109" lon="12.7892155"><ele>847.3333333333333</ele><time>2026-04-12T07:54:11.999Z</time></trkpt><trkpt lat="46.5796606" lon="12.7889663"><ele>850.6666666666667</ele><time>2026-04-12T07:54:12.999Z</time></trkpt><trkpt lat="46.5797011" lon="12.7887079"><ele>854.0</ele><time>2026-04-12T07:54:13.998Z</time></trkpt><trkpt lat="46.5797472" lon="12.7884627"><ele>854.0</ele><time>2026-04-12T07:54:14.999Z</time></trkpt><trkpt lat="46.5797992" lon="12.7882162"><ele>854.0</ele><time>2026-04-12T07:54:15.999Z</time></trkpt><trkpt lat="46.5799024" lon="12.7879966"><ele>854.0</ele><time>2026-04-12T07:54:16.998Z</time></trkpt><trkpt lat="46.5799916" lon="12.7877715"><ele>850.0</ele><time>2026-04-12T07:54:17.998Z</time></trkpt><trkpt lat="46.5800895" lon="12.7875459"><ele>846.0</ele><time>2026-04-12T07:54:18.999Z</time></trkpt><trkpt lat="46.5802011" lon="12.7873169"><ele>842.0</ele><time>2026-04-12T07:54:19.999Z</time></trkpt><trkpt lat="46.5803184" lon="12.7871038"><ele>843.6666666666667</ele><time>2026-04-12T07:54:20.998Z</time></trkpt><trkpt lat="46.5804402" lon="12.7868929"><ele>845.3333333333333</ele><time>2026-04-12T07:54:21.998Z</time></trkpt><trkpt lat="46.5805612" lon="12.7866814"><ele>847.0</ele><time>2026-04-12T07:54:22.998Z</time></trkpt><trkpt lat="46.5806822" lon="12.7864816"><ele>847.0</ele><time>2026-04-12T07:54:23.998Z</time></trkpt><trkpt lat="46.5807976" lon="12.7862791"><ele>847.0</ele><time>2026-04-12T07:54:24.999Z</time></trkpt><trkpt lat="46.5809081" lon="12.7860781"><ele>847.0</ele><time>2026-04-12T07:54:25.999Z</time></trkpt><trkpt lat="46.5810068" lon="12.7858899"><ele>845.6666666666666</ele><time>2026-04-12T07:54:26.998Z</time></trkpt><trkpt lat="46.5810905" lon="12.7856935"><ele>844.3333333333333</ele><time>2026-04-12T07:54:27.999Z</time></trkpt><trkpt lat="46.5811615" lon="12.7854796"><ele>843.0</ele><time>2026-04-12T07:54:28.999Z</time></trkpt><trkpt lat="46.5812155" lon="12.7852436"><ele>850.6666666666667</ele><time>2026-04-12T07:54:29.999Z</time></trkpt><trkpt lat="46.581267" lon="12.7850085"><ele>858.3333333333334</ele><time>2026-04-12T07:54:31Z</time></trkpt><trkpt lat="46.5813143" lon="12.7847816"><ele>866.0</ele><time>2026-04-12T07:54:31.999Z</time></trkpt><trkpt lat="46.5813713" lon="12.7845586"><ele>864.3333333333334</ele><time>2026-04-12T07:54:33Z</time></trkpt><trkpt lat="46.5814396" lon="12.7843429"><ele>862.6666666666667</ele><time>2026-04-12T07:54:33.998Z</time></trkpt><trkpt lat="46.5815263" lon="12.7841338"><ele>861.0</ele><time>2026-04-12T07:54:34.999Z</time></trkpt><trkpt lat="46.5816337" lon="12.7839386"><ele>861.0</ele><time>2026-04-12T07:54:35.999Z</time></trkpt><trkpt lat="46.5817448" lon="12.7837558"><ele>861.0</ele><time>2026-04-12T07:54:36.999Z</time></trkpt><trkpt lat="46.5818599" lon="12.7835707"><ele>861.0</ele><time>2026-04-12T07:54:37.998Z</time></trkpt><trkpt lat="46.5819716" lon="12.7833842"><ele>863.6666666666667</ele><time>2026-04-12T07:54:38.998Z</time></trkpt><trkpt lat="46.5820857" lon="12.7832181"><ele>866.3333333333334</ele><time>2026-04-12T07:54:39.999Z</time></trkpt><trkpt lat="46.5822026" lon="12.7830777"><ele>869.0</ele><time>2026-04-12T07:54:40.998Z</time></trkpt><trkpt lat="46.5823406" lon="12.7829565"><ele>869.0</ele><time>2026-04-12T07:54:41.999Z</time></trkpt><trkpt lat="46.5824931" lon="12.7828792"><ele>869.0</ele><time>2026-04-12T07:54:42.998Z</time></trkpt><trkpt lat="46.5826445" lon="12.7828302"><ele>869.0</ele><time>2026-04-12T07:54:43.999Z</time></trkpt><trkpt lat="46.5827855" lon="12.7827596"><ele>868.5</ele><time>2026-04-12T07:54:44.999Z</time></trkpt><trkpt lat="46.5829199" lon="12.7826614"><ele>868.0</ele><time>2026-04-12T07:54:45.999Z</time></trkpt><trkpt lat="46.5830391" lon="12.7825364"><ele>867.5</ele><time>2026-04-12T07:54:46.998Z</time></trkpt><trkpt lat="46.5831516" lon="12.7824136"><ele>867.0</ele><time>2026-04-12T07:54:47.999Z</time></trkpt><trkpt lat="46.5832491" lon="12.7822997"><ele>867.0</ele><time>2026-04-12T07:54:48.999Z</time></trkpt><trkpt lat="46.583337" lon="12.7821891"><ele>867.0</ele><time>2026-04-12T07:54:49.998Z</time></trkpt><trkpt lat="46.5834158" lon="12.7820964"><ele>867.0</ele><time>2026-04-12T07:54:50.998Z</time></trkpt><trkpt lat="46.5834765" lon="12.7820174"><ele>867.0</ele><time>2026-04-12T07:54:51.998Z</time></trkpt><trkpt lat="46.5835367" lon="12.7819563"><ele>867.0</ele><time>2026-04-12T07:54:52.999Z</time></trkpt><trkpt lat="46.5835933" lon="12.7819134"><ele>867.0</ele><time>2026-04-12T07:54:53.999Z</time></trkpt><trkpt lat="46.5836784" lon="12.7818627"><ele>867.8</ele><time>2026-04-12T07:54:55.999Z</time></trkpt><trkpt lat="46.5837399" lon="12.7817947"><ele>868.6</ele><time>2026-04-12T07:54:57.998Z</time></trkpt><trkpt lat="46.5837931" lon="12.7817356"><ele>869.3999999999999</ele><time>2026-04-12T07:54:59.998Z</time></trkpt><trkpt lat="46.5838756" lon="12.7815722"><ele>870.1999999999999</ele><time>2026-04-12T07:58:56.999Z</time></trkpt><trkpt lat="46.5839275" lon="12.7814602"><ele>871.0</ele><time>2026-04-12T07:58:58.999Z</time></trkpt><trkpt lat="46.5840004" lon="12.7813754"><ele>871.0</ele><time>2026-04-12T07:58:59.998Z</time></trkpt><trkpt lat="46.5840684" lon="12.7812819"><ele>870.9999999999999</ele><time>2026-04-12T07:59:00.999Z</time></trkpt><trkpt lat="46.5841449" lon="12.7811658"><ele>870.9999999999999</ele><time>2026-04-12T07:59:01.998Z</time></trkpt><trkpt lat="46.5842193" lon="12.7810433"><ele>871.0</ele><time>2026-04-12T07:59:02.998Z</time></trkpt><trkpt lat="46.5842878" lon="12.7809199"><ele>871.0</ele><time>2026-04-12T07:59:03.998Z</time></trkpt><trkpt lat="46.5843581" lon="12.7808"><ele>870.1999999999999</ele><time>2026-04-12T07:59:04.999Z</time></trkpt><trkpt lat="46.5844255" lon="12.780694"><ele>869.3999999999999</ele><time>2026-04-12T07:59:05.998Z</time></trkpt><trkpt lat="46.5844854" lon="12.7805892"><ele>868.6</ele><time>2026-04-12T07:59:06.998Z</time></trkpt><trkpt lat="46.5845416" lon="12.7804901"><ele>867.8</ele><time>2026-04-12T07:59:07.998Z</time></trkpt><trkpt lat="46.5845924" lon="12.7803912"><ele>867.0</ele><time>2026-04-12T07:59:08.998Z</time></trkpt><trkpt lat="46.5846415" lon="12.7802921"><ele>869.0</ele><time>2026-04-12T07:59:09.998Z</time></trkpt><trkpt lat="46.5846907" lon="12.7801938"><ele>871.0</ele><time>2026-04-12T07:59:10.999Z</time></trkpt><trkpt lat="46.584732" lon="12.7800819"><ele>873.0</ele><time>2026-04-12T07:59:11.998Z</time></trkpt><trkpt lat="46.584752" lon="12.7799486"><ele>875.0</ele><time>2026-04-12T07:59:12.997Z</time></trkpt><trkpt lat="46.5847555" lon="12.7798033"><ele>877.0</ele><time>2026-04-12T07:59:13.997Z</time></trkpt><trkpt lat="46.5847502" lon="12.7796591"><ele>877.0</ele><time>2026-04-12T07:59:14.997Z</time></trkpt><trkpt lat="46.5847453" lon="12.7795136"><ele>877.0</ele><time>2026-04-12T07:59:15.997Z</time></trkpt><trkpt lat="46.5847432" lon="12.7793602"><ele>877.0</ele><time>2026-04-12T07:59:16.997Z</time></trkpt><trkpt lat="46.5847546" lon="12.7792091"><ele>877.0</ele><time>2026-04-12T07:59:17.997Z</time></trkpt><trkpt lat="46.5847738" lon="12.7790552"><ele>877.0</ele><time>2026-04-12T07:59:18.998Z</time></trkpt><trkpt lat="46.5847972" lon="12.7789009"><ele>877.25</ele><time>2026-04-12T07:59:19.997Z</time></trkpt><trkpt lat="46.5848226" lon="12.7787444"><ele>877.5</ele><time>2026-04-12T07:59:20.998Z</time></trkpt><trkpt lat="46.5848472" lon="12.7785916"><ele>877.75</ele><time>2026-04-12T07:59:21.997Z</time></trkpt><trkpt lat="46.5848763" lon="12.7784303"><ele>878.0</ele><time>2026-04-12T07:59:22.998Z</time></trkpt><trkpt lat="46.5849079" lon="12.7782582"><ele>878.5</ele><time>2026-04-12T07:59:23.999Z</time></trkpt><trkpt lat="46.5849374" lon="12.7780836"><ele>879.0</ele><time>2026-04-12T07:59:24.998Z</time></trkpt><trkpt lat="46.5849661" lon="12.7779221"><ele>879.5</ele><time>2026-04-12T07:59:25.997Z</time></trkpt><trkpt lat="46.5849899" lon="12.7777641"><ele>880.0</ele><time>2026-04-12T07:59:26.998Z</time></trkpt><trkpt lat="46.5850129" lon="12.7776164"><ele>881.0</ele><time>2026-04-12T07:59:27.997Z</time></trkpt><trkpt lat="46.5850397" lon="12.7774617"><ele>882.0</ele><time>2026-04-12T07:59:28.999Z</time></trkpt><trkpt lat="46.58506" lon="12.7773236"><ele>883.0</ele><time>2026-04-12T07:59:29.997Z</time></trkpt><trkpt lat="46.5850897" lon="12.777183"><ele>884.0</ele><time>2026-04-12T07:59:30.999Z</time></trkpt><trkpt lat="46.5851163" lon="12.7770445"><ele>885.0</ele><time>2026-04-12T07:59:31.998Z</time></trkpt><trkpt lat="46.5851401" lon="12.7769285"><ele>884.8</ele><time>2026-04-12T07:59:32.998Z</time></trkpt><trkpt lat="46.5851742" lon="12.7768237"><ele>884.6</ele><time>2026-04-12T07:59:33.998Z</time></trkpt><trkpt lat="46.5852197" lon="12.7767233"><ele>884.4000000000001</ele><time>2026-04-12T07:59:34.998Z</time></trkpt><trkpt lat="46.5852945" lon="12.7766444"><ele>884.2</ele><time>2026-04-12T07:59:35.997Z</time></trkpt><trkpt lat="46.5853832" lon="12.7765798"><ele>884.0</ele><time>2026-04-12T07:59:36.997Z</time></trkpt><trkpt lat="46.5854871" lon="12.7765395"><ele>884.0</ele><time>2026-04-12T07:59:37.998Z</time></trkpt><trkpt lat="46.5856003" lon="12.7765003"><ele>884.0</ele><time>2026-04-12T07:59:38.998Z</time></trkpt><trkpt lat="46.5857239" lon="12.7764604"><ele>884.0</ele><time>2026-04-12T07:59:39.999Z</time></trkpt><trkpt lat="46.5858478" lon="12.7764193"><ele>884.0</ele><time>2026-04-12T07:59:40.997Z</time></trkpt><trkpt lat="46.5859678" lon="12.7763899"><ele>884.0</ele><time>2026-04-12T07:59:41.999Z</time></trkpt><trkpt lat="46.5860969" lon="12.7763613"><ele>884.0</ele><time>2026-04-12T07:59:42.999Z</time></trkpt><trkpt lat="46.5862262" lon="12.776346"><ele>884.0</ele><time>2026-04-12T07:59:43.999Z</time></trkpt><trkpt lat="46.5863526" lon="12.7763286"><ele>884.0</ele><time>2026-04-12T07:59:44.998Z</time></trkpt><trkpt lat="46.5864751" lon="12.7763103"><ele>885.75</ele><time>2026-04-12T07:59:45.998Z</time></trkpt><trkpt lat="46.5865974" lon="12.7762781"><ele>887.5</ele><time>2026-04-12T07:59:46.998Z</time></trkpt><trkpt lat="46.5867255" lon="12.7762455"><ele>889.25</ele><time>2026-04-12T07:59:47.998Z</time></trkpt><trkpt lat="46.5868428" lon="12.7761779"><ele>891.0</ele><time>2026-04-12T07:59:48.999Z</time></trkpt><trkpt lat="46.5869605" lon="12.7761108"><ele>891.75</ele><time>2026-04-12T07:59:49.997Z</time></trkpt><trkpt lat="46.5870762" lon="12.7760237"><ele>892.5</ele><time>2026-04-12T07:59:50.998Z</time></trkpt><trkpt lat="46.5871867" lon="12.7759188"><ele>893.25</ele><time>2026-04-12T07:59:51.997Z</time></trkpt><trkpt lat="46.587286" lon="12.7758172"><ele>894.0</ele><time>2026-04-12T07:59:52.999Z</time></trkpt><trkpt lat="46.5873849" lon="12.7757206"><ele>894.0</ele><time>2026-04-12T07:59:53.999Z</time></trkpt><trkpt lat="46.587488" lon="12.7756287"><ele>894.0</ele><time>2026-04-12T07:59:54.999Z</time></trkpt><trkpt lat="46.587593" lon="12.7755522"><ele>894.0</ele><time>2026-04-12T07:59:55.997Z</time></trkpt><trkpt lat="46.5877114" lon="12.7754986"><ele>894.0</ele><time>2026-04-12T07:59:56.997Z</time></trkpt><trkpt lat="46.5878389" lon="12.7754651"><ele>897.5</ele><time>2026-04-12T07:59:57.999Z</time></trkpt><trkpt lat="46.5879835" lon="12.7754487"><ele>901.0</ele><time>2026-04-12T07:59:58.997Z</time></trkpt><trkpt lat="46.588125" lon="12.7754373"><ele>904.5</ele><time>2026-04-12T07:59:59.999Z</time></trkpt><trkpt lat="46.5882736" lon="12.7754254"><ele>908.0</ele><time>2026-04-12T08:00:00.999Z</time></trkpt><trkpt lat="46.5884258" lon="12.7754171"><ele>908.0</ele><time>2026-04-12T08:00:01.999Z</time></trkpt><trkpt lat="46.5885877" lon="12.7754082"><ele>908.0</ele><time>2026-04-12T08:00:02.999Z</time></trkpt><trkpt lat="46.5887431" lon="12.7754037"><ele>908.0</ele><time>2026-04-12T08:00:03.998Z</time></trkpt><trkpt lat="46.5888946" lon="12.7753931"><ele>910.3333333333334</ele><time>2026-04-12T08:00:04.998Z</time></trkpt><trkpt lat="46.589043" lon="12.7753783"><ele>912.6666666666667</ele><time>2026-04-12T08:00:05.998Z</time></trkpt><trkpt lat="46.589197" lon="12.7753516"><ele>915.0</ele><time>2026-04-12T08:00:06.997Z</time></trkpt><trkpt lat="46.5893372" lon="12.7752495"><ele>913.0</ele><time>2026-04-12T08:00:07.999Z</time></trkpt><trkpt lat="46.5894685" lon="12.7751648"><ele>911.0</ele><time>2026-04-12T08:00:08.998Z</time></trkpt><trkpt lat="46.5896021" lon="12.7751028"><ele>909.0</ele><time>2026-04-12T08:00:09.998Z</time></trkpt><trkpt lat="46.5897404" lon="12.775102"><ele>907.0</ele><time>2026-04-12T08:00:10.997Z</time></trkpt><trkpt lat="46.5898782" lon="12.7751437"><ele>912.25</ele><time>2026-04-12T08:00:11.998Z</time></trkpt><trkpt lat="46.5900239" lon="12.7752157"><ele>917.5</ele><time>2026-04-12T08:00:12.998Z</time></trkpt><trkpt lat="46.590168" lon="12.7752868"><ele>922.75</ele><time>2026-04-12T08:00:13.998Z</time></trkpt><trkpt lat="46.5902951" lon="12.7753445"><ele>928.0</ele><time>2026-04-12T08:00:14.998Z</time></trkpt><trkpt lat="46.5904193" lon="12.7754016"><ele>928.0</ele><time>2026-04-12T08:00:15.998Z</time></trkpt><trkpt lat="46.5905244" lon="12.7754602"><ele>928.0</ele><time>2026-04-12T08:00:16.998Z</time></trkpt><trkpt lat="46.5906225" lon="12.7755111"><ele>928.0</ele><time>2026-04-12T08:00:17.998Z</time></trkpt><trkpt lat="46.5907108" lon="12.7755307"><ele>928.0</ele><time>2026-04-12T08:00:18.997Z</time></trkpt><trkpt lat="46.5908106" lon="12.7755244"><ele>928.0</ele><time>2026-04-12T08:00:19.998Z</time></trkpt><trkpt lat="46.5908947" lon="12.7754659"><ele>928.0</ele><time>2026-04-12T08:00:20.997Z</time></trkpt><trkpt lat="46.5909641" lon="12.7753694"><ele>928.0</ele><time>2026-04-12T08:00:21.999Z</time></trkpt><trkpt lat="46.5910165" lon="12.7752297"><ele>928.0</ele><time>2026-04-12T08:00:22.998Z</time></trkpt><trkpt lat="46.5910567" lon="12.7750737"><ele>928.0</ele><time>2026-04-12T08:00:23.998Z</time></trkpt><trkpt lat="46.5910883" lon="12.774923"><ele>928.0</ele><time>2026-04-12T08:00:24.998Z</time></trkpt><trkpt lat="46.5911158" lon="12.7747641"><ele>928.4</ele><time>2026-04-12T08:00:25.999Z</time></trkpt><trkpt lat="46.5911516" lon="12.7746014"><ele>928.8</ele><time>2026-04-12T08:00:26.998Z</time></trkpt><trkpt lat="46.5911877" lon="12.7744463"><ele>929.2</ele><time>2026-04-12T08:00:27.998Z</time></trkpt><trkpt lat="46.5912184" lon="12.7743027"><ele>929.6</ele><time>2026-04-12T08:00:28.997Z</time></trkpt><trkpt lat="46.5912406" lon="12.7741641"><ele>930.0</ele><time>2026-04-12T08:00:29.998Z</time></trkpt><trkpt lat="46.5912425" lon="12.7740138"><ele>930.0</ele><time>2026-04-12T08:00:30.999Z</time></trkpt><trkpt lat="46.5912087" lon="12.7738862"><ele>930.0</ele><time>2026-04-12T08:00:31.999Z</time></trkpt><trkpt lat="46.5911385" lon="12.7737711"><ele>930.0</ele><time>2026-04-12T08:00:32.997Z</time></trkpt><trkpt lat="46.5910357" lon="12.7736772"><ele>930.0</ele><time>2026-04-12T08:00:33.999Z</time></trkpt><trkpt lat="46.590907" lon="12.7735958"><ele>933.3333333333333</ele><time>2026-04-12T08:00:34.997Z</time></trkpt><trkpt lat="46.5907626" lon="12.7735153"><ele>936.6666666666666</ele><time>2026-04-12T08:00:35.998Z</time></trkpt><trkpt lat="46.5906197" lon="12.7734424"><ele>940.0</ele><time>2026-04-12T08:00:36.998Z</time></trkpt><trkpt lat="46.5904746" lon="12.7733709"><ele>933.3333333333333</ele><time>2026-04-12T08:00:37.999Z</time></trkpt><trkpt lat="46.5903164" lon="12.7733043"><ele>926.6666666666667</ele><time>2026-04-12T08:00:38.997Z</time></trkpt><trkpt lat="46.5901443" lon="12.7732534"><ele>920.0</ele><time>2026-04-12T08:00:39.997Z</time></trkpt><trkpt lat="46.5899758" lon="12.7732076"><ele>920.0</ele><time>2026-04-12T08:00:40.997Z</time></trkpt><trkpt lat="46.5898187" lon="12.7731727"><ele>920.0</ele><time>2026-04-12T08:00:41.998Z</time></trkpt><trkpt lat="46.5896661" lon="12.7731636"><ele>920.0</ele><time>2026-04-12T08:00:42.997Z</time></trkpt><trkpt lat="46.5895089" lon="12.7731878"><ele>920.25</ele><time>2026-04-12T08:00:43.997Z</time></trkpt><trkpt lat="46.589356" lon="12.7732209"><ele>920.5</ele><time>2026-04-12T08:00:44.997Z</time></trkpt><trkpt lat="46.5892123" lon="12.773253"><ele>920.75</ele><time>2026-04-12T08:00:45.998Z</time></trkpt><trkpt lat="46.5890684" lon="12.7732626"><ele>921.0</ele><time>2026-04-12T08:00:46.997Z</time></trkpt><trkpt lat="46.5889258" lon="12.7732358"><ele>921.0</ele><time>2026-04-12T08:00:47.997Z</time></trkpt><trkpt lat="46.5887879" lon="12.7731884"><ele>921.0</ele><time>2026-04-12T08:00:48.998Z</time></trkpt><trkpt lat="46.5886652" lon="12.7731198"><ele>921.0</ele><time>2026-04-12T08:00:49.998Z</time></trkpt><trkpt lat="46.5885603" lon="12.7729949"><ele>921.0</ele><time>2026-04-12T08:00:50.997Z</time></trkpt><trkpt lat="46.5884529" lon="12.7728278"><ele>926.0</ele><time>2026-04-12T08:00:51.997Z</time></trkpt><trkpt lat="46.5883485" lon="12.7726343"><ele>931.0</ele><time>2026-04-12T08:00:52.998Z</time></trkpt><trkpt lat="46.5882397" lon="12.7724314"><ele>936.0</ele><time>2026-04-12T08:00:53.997Z</time></trkpt><trkpt lat="46.5881212" lon="12.7722186"><ele>936.0</ele><time>2026-04-12T08:00:54.998Z</time></trkpt><trkpt lat="46.587992" lon="12.7720047"><ele>936.0</ele><time>2026-04-12T08:00:55.998Z</time></trkpt><trkpt lat="46.5878615" lon="12.7718002"><ele>936.0</ele><time>2026-04-12T08:00:56.998Z</time></trkpt><trkpt lat="46.587734" lon="12.7715828"><ele>935.3333333333333</ele><time>2026-04-12T08:00:57.998Z</time></trkpt><trkpt lat="46.5876112" lon="12.7713566"><ele>934.6666666666666</ele><time>2026-04-12T08:00:58.997Z</time></trkpt><trkpt lat="46.5874919" lon="12.7711269"><ele>934.0</ele><time>2026-04-12T08:00:59.997Z</time></trkpt><trkpt lat="46.5873764" lon="12.7708865"><ele>940.0</ele><time>2026-04-12T08:01:00.997Z</time></trkpt><trkpt lat="46.5872714" lon="12.7706443"><ele>946.0</ele><time>2026-04-12T08:01:01.998Z</time></trkpt><trkpt lat="46.5871626" lon="12.7703974"><ele>952.0</ele><time>2026-04-12T08:01:02.997Z</time></trkpt><trkpt lat="46.5870351" lon="12.7701681"><ele>947.6666666666666</ele><time>2026-04-12T08:01:03.998Z</time></trkpt><trkpt lat="46.5869026" lon="12.7699482"><ele>943.3333333333333</ele><time>2026-04-12T08:01:04.999Z</time></trkpt><trkpt lat="46.5867799" lon="12.7697145"><ele>939.0</ele><time>2026-04-12T08:01:05.998Z</time></trkpt><trkpt lat="46.586666" lon="12.7694743"><ele>943.6666666666667</ele><time>2026-04-12T08:01:06.998Z</time></trkpt><trkpt lat="46.5865561" lon="12.7692233"><ele>948.3333333333334</ele><time>2026-04-12T08:01:07.998Z</time></trkpt><trkpt lat="46.5864516" lon="12.769018"><ele>953.0</ele><time>2026-04-12T08:01:08.999Z</time></trkpt><trkpt lat="46.5863693" lon="12.7688198"><ele>953.0</ele><time>2026-04-12T08:01:10Z</time></trkpt><trkpt lat="46.5862844" lon="12.7686193"><ele>953.0</ele><time>2026-04-12T08:01:10.998Z</time></trkpt><trkpt lat="46.586202" lon="12.7684394"><ele>953.0</ele><time>2026-04-12T08:01:11.998Z</time></trkpt><trkpt lat="46.5861182" lon="12.7682513"><ele>951.6666666666667</ele><time>2026-04-12T08:01:12.998Z</time></trkpt><trkpt lat="46.586032" lon="12.7680784"><ele>950.3333333333333</ele><time>2026-04-12T08:01:13.999Z</time></trkpt><trkpt lat="46.5859786" lon="12.7678764"><ele>949.0</ele><time>2026-04-12T08:01:14.998Z</time></trkpt><trkpt lat="46.5859524" lon="12.7675914"><ele>954.3333333333333</ele><time>2026-04-12T08:01:15.998Z</time></trkpt><trkpt lat="46.5859065" lon="12.7673158"><ele>959.6666666666667</ele><time>2026-04-12T08:01:16.998Z</time></trkpt><trkpt lat="46.5858345" lon="12.7670722"><ele>965.0</ele><time>2026-04-12T08:01:17.998Z</time></trkpt><trkpt lat="46.5857496" lon="12.7668295"><ele>967.0</ele><time>2026-04-12T08:01:18.999Z</time></trkpt><trkpt lat="46.5856539" lon="12.766584"><ele>969.0</ele><time>2026-04-12T08:01:19.999Z</time></trkpt><trkpt lat="46.5855411" lon="12.7663672"><ele>971.0</ele><time>2026-04-12T08:01:20.997Z</time></trkpt><trkpt lat="46.5854098" lon="12.7661541"><ele>970.0</ele><time>2026-04-12T08:01:21.997Z</time></trkpt><trkpt lat="46.5852913" lon="12.7659345"><ele>969.0</ele><time>2026-04-12T08:01:22.999Z</time></trkpt><trkpt lat="46.5851905" lon="12.7657208"><ele>968.0</ele><time>2026-04-12T08:01:23.998Z</time></trkpt><trkpt lat="46.5850957" lon="12.7655244"><ele>968.0</ele><time>2026-04-12T08:01:24.999Z</time></trkpt><trkpt lat="46.5849855" lon="12.76535"><ele>968.0</ele><time>2026-04-12T08:01:25.998Z</time></trkpt><trkpt lat="46.5848679" lon="12.7652015"><ele>968.0</ele><time>2026-04-12T08:01:26.998Z</time></trkpt><trkpt lat="46.5847308" lon="12.7650946"><ele>972.3333333333334</ele><time>2026-04-12T08:01:27.997Z</time></trkpt><trkpt lat="46.5845769" lon="12.7650148"><ele>976.6666666666667</ele><time>2026-04-12T08:01:28.998Z</time></trkpt><trkpt lat="46.5844122" lon="12.7649569"><ele>981.0</ele><time>2026-04-12T08:01:29.998Z</time></trkpt><trkpt lat="46.5842459" lon="12.7649068"><ele>981.0</ele><time>2026-04-12T08:01:30.998Z</time></trkpt><trkpt lat="46.5840754" lon="12.7648582"><ele>981.0</ele><time>2026-04-12T08:01:31.999Z</time></trkpt><trkpt lat="46.5839077" lon="12.7648176"><ele>981.0</ele><time>2026-04-12T08:01:32.997Z</time></trkpt><trkpt lat="46.5837425" lon="12.7647671"><ele>980.6666666666667</ele><time>2026-04-12T08:01:33.998Z</time></trkpt><trkpt lat="46.5835766" lon="12.7647166"><ele>980.3333333333334</ele><time>2026-04-12T08:01:34.998Z</time></trkpt><trkpt lat="46.583413" lon="12.7646598"><ele>980.0</ele><time>2026-04-12T08:01:35.998Z</time></trkpt><trkpt lat="46.583249" lon="12.7646213"><ele>980.0</ele><time>2026-04-12T08:01:36.998Z</time></trkpt><trkpt lat="46.5830883" lon="12.7645652"><ele>980.0</ele><time>2026-04-12T08:01:37.997Z</time></trkpt><trkpt lat="46.582924" lon="12.7645159"><ele>980.0</ele><time>2026-04-12T08:01:38.998Z</time></trkpt><trkpt lat="46.5827641" lon="12.7644656"><ele>979.5</ele><time>2026-04-12T08:01:39.997Z</time></trkpt><trkpt lat="46.5826134" lon="12.7644249"><ele>979.0</ele><time>2026-04-12T08:01:40.998Z</time></trkpt><trkpt lat="46.5824663" lon="12.7643896"><ele>978.5</ele><time>2026-04-12T08:01:41.997Z</time></trkpt><trkpt lat="46.5823295" lon="12.764326"><ele>978.0</ele><time>2026-04-12T08:01:42.998Z</time></trkpt><trkpt lat="46.5822011" lon="12.7642357"><ele>982.3333333333333</ele><time>2026-04-12T08:01:43.997Z</time></trkpt><trkpt lat="46.5820847" lon="12.7641011"><ele>986.6666666666666</ele><time>2026-04-12T08:01:44.998Z</time></trkpt><trkpt lat="46.5819848" lon="12.7639414"><ele>991.0</ele><time>2026-04-12T08:01:45.998Z</time></trkpt><trkpt lat="46.5819047" lon="12.7637519"><ele>991.3333333333333</ele><time>2026-04-12T08:01:46.997Z</time></trkpt><trkpt lat="46.5818273" lon="12.7635404"><ele>991.6666666666667</ele><time>2026-04-12T08:01:47.998Z</time></trkpt><trkpt lat="46.5817665" lon="12.763343"><ele>992.0</ele><time>2026-04-12T08:01:48.999Z</time></trkpt><trkpt lat="46.5816989" lon="12.7631619"><ele>995.0</ele><time>2026-04-12T08:01:49.998Z</time></trkpt><trkpt lat="46.5816025" lon="12.7630006"><ele>998.0</ele><time>2026-04-12T08:01:50.997Z</time></trkpt><trkpt lat="46.5814775" lon="12.7628667"><ele>1001.0</ele><time>2026-04-12T08:01:51.997Z</time></trkpt><trkpt lat="46.5813314" lon="12.7627384"><ele>1004.6666666666667</ele><time>2026-04-12T08:01:52.997Z</time></trkpt><trkpt lat="46.581188" lon="12.7626255"><ele>1008.3333333333333</ele><time>2026-04-12T08:01:53.999Z</time></trkpt><trkpt lat="46.5810463" lon="12.7624961"><ele>1012.0</ele><time>2026-04-12T08:01:54.999Z</time></trkpt><trkpt lat="46.5809114" lon="12.7623792"><ele>1012.0</ele><time>2026-04-12T08:01:55.997Z</time></trkpt><trkpt lat="46.5807988" lon="12.7622441"><ele>1012.0</ele><time>2026-04-12T08:01:56.997Z</time></trkpt><trkpt lat="46.580727" lon="12.7620804"><ele>1012.0</ele><time>2026-04-12T08:01:57.998Z</time></trkpt><trkpt lat="46.5806697" lon="12.7618897"><ele>1012.0</ele><time>2026-04-12T08:01:58.998Z</time></trkpt><trkpt lat="46.5805983" lon="12.7616955"><ele>1012.0</ele><time>2026-04-12T08:01:59.998Z</time></trkpt><trkpt lat="46.580493" lon="12.7615309"><ele>1012.0</ele><time>2026-04-12T08:02:00.998Z</time></trkpt><trkpt lat="46.5803672" lon="12.7613856"><ele>1012.0</ele><time>2026-04-12T08:02:01.998Z</time></trkpt><trkpt lat="46.5802447" lon="12.7612491"><ele>1012.0</ele><time>2026-04-12T08:02:02.998Z</time></trkpt><trkpt lat="46.5801247" lon="12.7611229"><ele>1012.0</ele><time>2026-04-12T08:02:03.998Z</time></trkpt><trkpt lat="46.5800166" lon="12.7610206"><ele>1012.0</ele><time>2026-04-12T08:02:04.997Z</time></trkpt><trkpt lat="46.5799031" lon="12.7609741"><ele>1012.0</ele><time>2026-04-12T08:02:05.997Z</time></trkpt><trkpt lat="46.5797808" lon="12.7609992"><ele>1012.0</ele><time>2026-04-12T08:02:06.997Z</time></trkpt><trkpt lat="46.5796555" lon="12.7610641"><ele>1012.0</ele><time>2026-04-12T08:02:07.998Z</time></trkpt><trkpt lat="46.5795236" lon="12.7610909"><ele>1012.0</ele><time>2026-04-12T08:02:08.998Z</time></trkpt><trkpt lat="46.5793967" lon="12.7610547"><ele>1012.0</ele><time>2026-04-12T08:02:09.998Z</time></trkpt><trkpt lat="46.5792722" lon="12.7609549"><ele>1015.0</ele><time>2026-04-12T08:02:10.999Z</time></trkpt><trkpt lat="46.5791617" lon="12.7608106"><ele>1018.0</ele><time>2026-04-12T08:02:11.998Z</time></trkpt><trkpt lat="46.5790625" lon="12.7606398"><ele>1021.0</ele><time>2026-04-12T08:02:12.998Z</time></trkpt><trkpt lat="46.5789637" lon="12.76047"><ele>1021.0</ele><time>2026-04-12T08:02:13.998Z</time></trkpt><trkpt lat="46.5788601" lon="12.7603033"><ele>1021.0</ele><time>2026-04-12T08:02:14.997Z</time></trkpt><trkpt lat="46.5787472" lon="12.7601379"><ele>1021.0</ele><time>2026-04-12T08:02:15.998Z</time></trkpt><trkpt lat="46.5786341" lon="12.7599667"><ele>1021.3333333333333</ele><time>2026-04-12T08:02:16.997Z</time></trkpt><trkpt lat="46.5785186" lon="12.759793"><ele>1021.6666666666667</ele><time>2026-04-12T08:02:17.998Z</time></trkpt><trkpt lat="46.5783921" lon="12.7596081"><ele>1022.0</ele><time>2026-04-12T08:02:18.998Z</time></trkpt><trkpt lat="46.57826" lon="12.7594166"><ele>1023.3333333333334</ele><time>2026-04-12T08:02:19.999Z</time></trkpt><trkpt lat="46.5781411" lon="12.7592214"><ele>1024.6666666666667</ele><time>2026-04-12T08:02:20.999Z</time></trkpt><trkpt lat="46.5780314" lon="12.7590062"><ele>1026.0</ele><time>2026-04-12T08:02:21.997Z</time></trkpt><trkpt lat="46.577939" lon="12.7587872"><ele>1026.0</ele><time>2026-04-12T08:02:22.998Z</time></trkpt><trkpt lat="46.5778579" lon="12.7585699"><ele>1026.0</ele><time>2026-04-12T08:02:23.998Z</time></trkpt><trkpt lat="46.5777782" lon="12.7583463"><ele>1026.0</ele><time>2026-04-12T08:02:24.997Z</time></trkpt><trkpt lat="46.5777069" lon="12.7581366"><ele>1026.5</ele><time>2026-04-12T08:02:25.998Z</time></trkpt><trkpt lat="46.5776444" lon="12.7579367"><ele>1027.0</ele><time>2026-04-12T08:02:26.998Z</time></trkpt><trkpt lat="46.5775999" lon="12.7577359"><ele>1027.5</ele><time>2026-04-12T08:02:27.997Z</time></trkpt><trkpt lat="46.5775882" lon="12.757534"><ele>1028.0</ele><time>2026-04-12T08:02:28.999Z</time></trkpt><trkpt lat="46.5776026" lon="12.7573213"><ele>1028.0</ele><time>2026-04-12T08:02:29.998Z</time></trkpt><trkpt lat="46.5776353" lon="12.7571103"><ele>1028.0</ele><time>2026-04-12T08:02:30.998Z</time></trkpt><trkpt lat="46.5776687" lon="12.7569088"><ele>1028.0</ele><time>2026-04-12T08:02:31.998Z</time></trkpt><trkpt lat="46.5777057" lon="12.7567126"><ele>1028.0</ele><time>2026-04-12T08:02:32.999Z</time></trkpt><trkpt lat="46.5777402" lon="12.7565263"><ele>1029.0</ele><time>2026-04-12T08:02:33.998Z</time></trkpt><trkpt lat="46.5777796" lon="12.7563461"><ele>1030.0</ele><time>2026-04-12T08:02:34.998Z</time></trkpt><trkpt lat="46.5778147" lon="12.7561865"><ele>1031.0</ele><time>2026-04-12T08:02:35.998Z</time></trkpt><trkpt lat="46.577843" lon="12.7560381"><ele>1032.0</ele><time>2026-04-12T08:02:36.998Z</time></trkpt><trkpt lat="46.577843" lon="12.755885"><ele>1033.0</ele><time>2026-04-12T08:02:37.997Z</time></trkpt><trkpt lat="46.5778028" lon="12.7557278"><ele>1034.0</ele><time>2026-04-12T08:02:38.998Z</time></trkpt><trkpt lat="46.5777326" lon="12.7555562"><ele>1035.0</ele><time>2026-04-12T08:02:39.997Z</time></trkpt><trkpt lat="46.5776519" lon="12.7553664"><ele>1036.0</ele><time>2026-04-12T08:02:40.997Z</time></trkpt><trkpt lat="46.5775689" lon="12.7551626"><ele>1036.3333333333333</ele><time>2026-04-12T08:02:41.997Z</time></trkpt><trkpt lat="46.5774967" lon="12.7549561"><ele>1036.6666666666667</ele><time>2026-04-12T08:02:42.997Z</time></trkpt><trkpt lat="46.5774237" lon="12.7547399"><ele>1037.0</ele><time>2026-04-12T08:02:43.998Z</time></trkpt><trkpt lat="46.5773584" lon="12.7545361"><ele>1037.6666666666667</ele><time>2026-04-12T08:02:44.998Z</time></trkpt><trkpt lat="46.577298" lon="12.7543265"><ele>1038.3333333333333</ele><time>2026-04-12T08:02:45.998Z</time></trkpt><trkpt lat="46.5772366" lon="12.7541222"><ele>1039.0</ele><time>2026-04-12T08:02:46.997Z</time></trkpt><trkpt lat="46.5771792" lon="12.7539226"><ele>1039.0</ele><time>2026-04-12T08:02:47.998Z</time></trkpt><trkpt lat="46.5771235" lon="12.7537179"><ele>1039.0</ele><time>2026-04-12T08:02:48.998Z</time></trkpt><trkpt lat="46.5770871" lon="12.7535117"><ele>1039.0</ele><time>2026-04-12T08:02:49.998Z</time></trkpt><trkpt lat="46.5770557" lon="12.7533024"><ele>1039.0</ele><time>2026-04-12T08:02:50.997Z</time></trkpt><trkpt lat="46.5770253" lon="12.7530896"><ele>1037.5</ele><time>2026-04-12T08:02:51.998Z</time></trkpt><trkpt lat="46.577002" lon="12.7528822"><ele>1036.0</ele><time>2026-04-12T08:02:52.998Z</time></trkpt><trkpt lat="46.5769802" lon="12.7526851"><ele>1034.5</ele><time>2026-04-12T08:02:53.997Z</time></trkpt><trkpt lat="46.5769562" lon="12.7524942"><ele>1033.0</ele><time>2026-04-12T08:02:54.997Z</time></trkpt><trkpt lat="46.5769191" lon="12.7523112"><ele>1033.0</ele><time>2026-04-12T08:02:55.997Z</time></trkpt><trkpt lat="46.5768601" lon="12.7521412"><ele>1033.0</ele><time>2026-04-12T08:02:56.999Z</time></trkpt><trkpt lat="46.5767645" lon="12.7519921"><ele>1033.0</ele><time>2026-04-12T08:02:57.998Z</time></trkpt><trkpt lat="46.5766504" lon="12.7518555"><ele>1033.0</ele><time>2026-04-12T08:02:58.998Z</time></trkpt><trkpt lat="46.5765141" lon="12.7517391"><ele>1035.3333333333333</ele><time>2026-04-12T08:02:59.998Z</time></trkpt><trkpt lat="46.5763662" lon="12.7516389"><ele>1037.6666666666667</ele><time>2026-04-12T08:03:00.997Z</time></trkpt><trkpt lat="46.5762109" lon="12.7515612"><ele>1040.0</ele><time>2026-04-12T08:03:01.997Z</time></trkpt><trkpt lat="46.5760418" lon="12.7514914"><ele>1040.0</ele><time>2026-04-12T08:03:02.997Z</time></trkpt><trkpt lat="46.5758617" lon="12.7514069"><ele>1040.0</ele><time>2026-04-12T08:03:03.997Z</time></trkpt><trkpt lat="46.575684" lon="12.7513144"><ele>1040.0</ele><time>2026-04-12T08:03:04.998Z</time></trkpt><trkpt lat="46.5755109" lon="12.751219"><ele>1038.3333333333335</ele><time>2026-04-12T08:03:05.997Z</time></trkpt><trkpt lat="46.5753359" lon="12.7511144"><ele>1036.6666666666667</ele><time>2026-04-12T08:03:06.997Z</time></trkpt><trkpt lat="46.5751648" lon="12.7510197"><ele>1035.0</ele><time>2026-04-12T08:03:07.998Z</time></trkpt><trkpt lat="46.574993" lon="12.7509274"><ele>1035.0</ele><time>2026-04-12T08:03:08.999Z</time></trkpt><trkpt lat="46.5748186" lon="12.7508574"><ele>1035.0</ele><time>2026-04-12T08:03:09.997Z</time></trkpt><trkpt lat="46.5746466" lon="12.7507967"><ele>1035.0</ele><time>2026-04-12T08:03:10.997Z</time></trkpt><trkpt lat="46.57448" lon="12.7507546"><ele>1035.0</ele><time>2026-04-12T08:03:11.997Z</time></trkpt><trkpt lat="46.5743212" lon="12.7507136"><ele>1035.0</ele><time>2026-04-12T08:03:12.997Z</time></trkpt><trkpt lat="46.5741765" lon="12.7506644"><ele>1035.0</ele><time>2026-04-12T08:03:13.998Z</time></trkpt><trkpt lat="46.5740389" lon="12.7505971"><ele>1035.0</ele><time>2026-04-12T08:03:14.997Z</time></trkpt><trkpt lat="46.573907" lon="12.7505053"><ele>1035.0</ele><time>2026-04-12T08:03:15.998Z</time></trkpt><trkpt lat="46.5737907" lon="12.7503756"><ele>1035.0</ele><time>2026-04-12T08:03:16.997Z</time></trkpt><trkpt lat="46.5736884" lon="12.7502091"><ele>1035.0</ele><time>2026-04-12T08:03:17.997Z</time></trkpt><trkpt lat="46.5736046" lon="12.7500119"><ele>1038.0</ele><time>2026-04-12T08:03:18.998Z</time></trkpt><trkpt lat="46.5735287" lon="12.7497996"><ele>1041.0</ele><time>2026-04-12T08:03:19.997Z</time></trkpt><trkpt lat="46.5734589" lon="12.7495795"><ele>1044.0</ele><time>2026-04-12T08:03:20.997Z</time></trkpt><trkpt lat="46.5733917" lon="12.7493556"><ele>1044.0</ele><time>2026-04-12T08:03:21.998Z</time></trkpt><trkpt lat="46.5733276" lon="12.7491287"><ele>1044.0</ele><time>2026-04-12T08:03:22.997Z</time></trkpt><trkpt lat="46.5732657" lon="12.7489051"><ele>1044.0</ele><time>2026-04-12T08:03:23.997Z</time></trkpt><trkpt lat="46.5732081" lon="12.7486785"><ele>1044.3333333333333</ele><time>2026-04-12T08:03:24.998Z</time></trkpt><trkpt lat="46.5731603" lon="12.7484441"><ele>1044.6666666666665</ele><time>2026-04-12T08:03:25.997Z</time></trkpt><trkpt lat="46.5731284" lon="12.7482027"><ele>1045.0</ele><time>2026-04-12T08:03:26.997Z</time></trkpt><trkpt lat="46.5731006" lon="12.7479708"><ele>1045.0</ele><time>2026-04-12T08:03:27.998Z</time></trkpt><trkpt lat="46.5730656" lon="12.7477324"><ele>1045.0</ele><time>2026-04-12T08:03:28.997Z</time></trkpt><trkpt lat="46.5730214" lon="12.7474916"><ele>1045.0</ele><time>2026-04-12T08:03:29.997Z</time></trkpt><trkpt lat="46.5729752" lon="12.7472569"><ele>1045.0</ele><time>2026-04-12T08:03:30.997Z</time></trkpt><trkpt lat="46.572921" lon="12.7470156"><ele>1045.0</ele><time>2026-04-12T08:03:31.997Z</time></trkpt><trkpt lat="46.5728679" lon="12.7467822"><ele>1045.0</ele><time>2026-04-12T08:03:32.998Z</time></trkpt><trkpt lat="46.5728261" lon="12.7465463"><ele>1043.6666666666665</ele><time>2026-04-12T08:03:33.998Z</time></trkpt><trkpt lat="46.5727928" lon="12.7462983"><ele>1042.3333333333333</ele><time>2026-04-12T08:03:34.997Z</time></trkpt><trkpt lat="46.5727655" lon="12.746053"><ele>1041.0</ele><time>2026-04-12T08:03:35.997Z</time></trkpt><trkpt lat="46.5727391" lon="12.745809"><ele>1041.0</ele><time>2026-04-12T08:03:36.997Z</time></trkpt><trkpt lat="46.5727081" lon="12.7455704"><ele>1041.0</ele><time>2026-04-12T08:03:37.997Z</time></trkpt><trkpt lat="46.572666" lon="12.7453388"><ele>1041.0</ele><time>2026-04-12T08:03:38.997Z</time></trkpt><trkpt lat="46.5726142" lon="12.7451063"><ele>1043.6666666666667</ele><time>2026-04-12T08:03:39.997Z</time></trkpt><trkpt lat="46.5725493" lon="12.744877"><ele>1046.3333333333335</ele><time>2026-04-12T08:03:40.997Z</time></trkpt><trkpt lat="46.5724784" lon="12.74465"><ele>1049.0</ele><time>2026-04-12T08:03:41.997Z</time></trkpt><trkpt lat="46.5723992" lon="12.7444291"><ele>1051.6666666666667</ele><time>2026-04-12T08:03:42.998Z</time></trkpt><trkpt lat="46.5723064" lon="12.7442188"><ele>1054.3333333333333</ele><time>2026-04-12T08:03:43.997Z</time></trkpt><trkpt lat="46.5721961" lon="12.7440148"><ele>1057.0</ele><time>2026-04-12T08:03:44.997Z</time></trkpt><trkpt lat="46.5720755" lon="12.7438177"><ele>1055.0</ele><time>2026-04-12T08:03:45.997Z</time></trkpt><trkpt lat="46.5719437" lon="12.7436143"><ele>1053.0</ele><time>2026-04-12T08:03:46.997Z</time></trkpt><trkpt lat="46.571804" lon="12.7434004"><ele>1051.0</ele><time>2026-04-12T08:03:47.997Z</time></trkpt><trkpt lat="46.5716714" lon="12.7431845"><ele>1052.3333333333333</ele><time>2026-04-12T08:03:48.998Z</time></trkpt><trkpt lat="46.5715403" lon="12.74297"><ele>1053.6666666666667</ele><time>2026-04-12T08:03:49.997Z</time></trkpt><trkpt lat="46.5714114" lon="12.7427451"><ele>1055.0</ele><time>2026-04-12T08:03:50.997Z</time></trkpt><trkpt lat="46.571287" lon="12.742527"><ele>1054.6666666666667</ele><time>2026-04-12T08:03:51.997Z</time></trkpt><trkpt lat="46.5711662" lon="12.7422977"><ele>1054.3333333333333</ele><time>2026-04-12T08:03:52.997Z</time></trkpt><trkpt lat="46.5710435" lon="12.7420683"><ele>1054.0</ele><time>2026-04-12T08:03:53.997Z</time></trkpt><trkpt lat="46.5709232" lon="12.7418403"><ele>1056.6666666666665</ele><time>2026-04-12T08:03:54.997Z</time></trkpt><trkpt lat="46.5708033" lon="12.7416182"><ele>1059.3333333333333</ele><time>2026-04-12T08:03:55.997Z</time></trkpt><trkpt lat="46.570688" lon="12.7413984"><ele>1062.0</ele><time>2026-04-12T08:03:56.997Z</time></trkpt><trkpt lat="46.5705737" lon="12.7411767"><ele>1068.3333333333333</ele><time>2026-04-12T08:03:57.998Z</time></trkpt><trkpt lat="46.5704622" lon="12.7409586"><ele>1074.6666666666665</ele><time>2026-04-12T08:03:58.997Z</time></trkpt><trkpt lat="46.5703493" lon="12.7407394"><ele>1081.0</ele><time>2026-04-12T08:03:59.997Z</time></trkpt><trkpt lat="46.5702341" lon="12.7405239"><ele>1081.6666666666665</ele><time>2026-04-12T08:04:00.997Z</time></trkpt><trkpt lat="46.5701208" lon="12.740318"><ele>1082.3333333333333</ele><time>2026-04-12T08:04:01.997Z</time></trkpt><trkpt lat="46.5700097" lon="12.7401126"><ele>1083.0</ele><time>2026-04-12T08:04:02.997Z</time></trkpt><trkpt lat="46.5699011" lon="12.7399025"><ele>1084.6666666666667</ele><time>2026-04-12T08:04:03.997Z</time></trkpt><trkpt lat="46.5697904" lon="12.739705"><ele>1086.3333333333335</ele><time>2026-04-12T08:04:04.997Z</time></trkpt><trkpt lat="46.5696829" lon="12.7394884"><ele>1088.0</ele><time>2026-04-12T08:04:05.998Z</time></trkpt><trkpt lat="46.5695948" lon="12.7392669"><ele>1090.3333333333335</ele><time>2026-04-12T08:04:06.997Z</time></trkpt><trkpt lat="46.5695198" lon="12.739049"><ele>1092.6666666666667</ele><time>2026-04-12T08:04:07.997Z</time></trkpt><trkpt lat="46.5694365" lon="12.7388391"><ele>1095.0</ele><time>2026-04-12T08:04:08.999Z</time></trkpt><trkpt lat="46.5693397" lon="12.7386362"><ele>1099.3333333333333</ele><time>2026-04-12T08:04:09.997Z</time></trkpt><trkpt lat="46.5692273" lon="12.7384422"><ele>1103.6666666666665</ele><time>2026-04-12T08:04:10.998Z</time></trkpt><trkpt lat="46.5691001" lon="12.7382526"><ele>1108.0</ele><time>2026-04-12T08:04:11.998Z</time></trkpt><trkpt lat="46.5689814" lon="12.738068"><ele>1108.0</ele><time>2026-04-12T08:04:12.997Z</time></trkpt><trkpt lat="46.5688675" lon="12.7379099"><ele>1108.0</ele><time>2026-04-12T08:04:13.998Z</time></trkpt><trkpt lat="46.5687522" lon="12.7377621"><ele>1108.0</ele><time>2026-04-12T08:04:14.997Z</time></trkpt><trkpt lat="46.5686306" lon="12.7376098"><ele>1109.5</ele><time>2026-04-12T08:04:15.997Z</time></trkpt><trkpt lat="46.568524" lon="12.73744"><ele>1111.0</ele><time>2026-04-12T08:04:16.997Z</time></trkpt><trkpt lat="46.5684355" lon="12.7372657"><ele>1112.5</ele><time>2026-04-12T08:04:17.999Z</time></trkpt><trkpt lat="46.5683474" lon="12.7371084"><ele>1114.0</ele><time>2026-04-12T08:04:18.998Z</time></trkpt><trkpt lat="46.5682439" lon="12.736984"><ele>1118.0</ele><time>2026-04-12T08:04:19.998Z</time></trkpt><trkpt lat="46.5681251" lon="12.7368836"><ele>1122.0</ele><time>2026-04-12T08:04:20.997Z</time></trkpt><trkpt lat="46.5679979" lon="12.7368084"><ele>1126.0</ele><time>2026-04-12T08:04:21.997Z</time></trkpt><trkpt lat="46.5678718" lon="12.7367395"><ele>1130.0</ele><time>2026-04-12T08:04:22.997Z</time></trkpt><trkpt lat="46.5677551" lon="12.7366672"><ele>1130.0</ele><time>2026-04-12T08:04:23.998Z</time></trkpt><trkpt lat="46.5676468" lon="12.7365923"><ele>1130.0</ele><time>2026-04-12T08:04:24.997Z</time></trkpt><trkpt lat="46.5675427" lon="12.7365078"><ele>1130.0</ele><time>2026-04-12T08:04:25.997Z</time></trkpt><trkpt lat="46.5674507" lon="12.7364437"><ele>1130.0</ele><time>2026-04-12T08:04:26.998Z</time></trkpt><trkpt lat="46.5673586" lon="12.7363863"><ele>1130.0</ele><time>2026-04-12T08:04:27.997Z</time></trkpt><trkpt lat="46.5672725" lon="12.7363008"><ele>1130.0</ele><time>2026-04-12T08:04:28.998Z</time></trkpt><trkpt lat="46.5671888" lon="12.7361994"><ele>1130.0</ele><time>2026-04-12T08:04:29.998Z</time></trkpt><trkpt lat="46.5671228" lon="12.736071"><ele>1130.0</ele><time>2026-04-12T08:04:30.997Z</time></trkpt><trkpt lat="46.5670682" lon="12.7359344"><ele>1130.0</ele><time>2026-04-12T08:04:31.997Z</time></trkpt><trkpt lat="46.567004" lon="12.7358039"><ele>1130.0</ele><time>2026-04-12T08:04:32.997Z</time></trkpt><trkpt lat="46.5669095" lon="12.7356734"><ele>1133.3333333333335</ele><time>2026-04-12T08:04:33.999Z</time></trkpt><trkpt lat="46.5667871" lon="12.7355258"><ele>1136.6666666666667</ele><time>2026-04-12T08:04:34.998Z</time></trkpt><trkpt lat="46.5666657" lon="12.735369"><ele>1140.0</ele><time>2026-04-12T08:04:35.997Z</time></trkpt><trkpt lat="46.5665503" lon="12.7352044"><ele>1143.0</ele><time>2026-04-12T08:04:36.998Z</time></trkpt><trkpt lat="46.5664324" lon="12.7350257"><ele>1146.0</ele><time>2026-04-12T08:04:37.997Z</time></trkpt><trkpt lat="46.5663051" lon="12.7348507"><ele>1149.0</ele><time>2026-04-12T08:04:38.997Z</time></trkpt><trkpt lat="46.5661831" lon="12.7346848"><ele>1149.0</ele><time>2026-04-12T08:04:39.997Z</time></trkpt><trkpt lat="46.5660754" lon="12.7345252"><ele>1149.0</ele><time>2026-04-12T08:04:40.997Z</time></trkpt><trkpt lat="46.5659688" lon="12.7343784"><ele>1149.0</ele><time>2026-04-12T08:04:41.997Z</time></trkpt><trkpt lat="46.5658718" lon="12.7342397"><ele>1149.0</ele><time>2026-04-12T08:04:42.997Z</time></trkpt><trkpt lat="46.5657899" lon="12.7341217"><ele>1151.0</ele><time>2026-04-12T08:04:43.998Z</time></trkpt><trkpt lat="46.5657296" lon="12.734021"><ele>1153.0</ele><time>2026-04-12T08:04:44.997Z</time></trkpt><trkpt lat="46.5657025" lon="12.733922"><ele>1155.0</ele><time>2026-04-12T08:04:45.997Z</time></trkpt><trkpt lat="46.5657675" lon="12.7337843"><ele>1157.0</ele><time>2026-04-12T08:04:47.998Z</time></trkpt><trkpt lat="46.5658309" lon="12.7337451"><ele>1159.0</ele><time>2026-04-12T08:04:48.997Z</time></trkpt><trkpt lat="46.5660053" lon="12.7337759"><ele>1159.0</ele><time>2026-04-12T08:04:49.997Z</time></trkpt><trkpt lat="46.5661492" lon="12.7338078"><ele>1159.0</ele><time>2026-04-12T08:04:50.998Z</time></trkpt><trkpt lat="46.5662871" lon="12.7338464"><ele>1159.0</ele><time>2026-04-12T08:04:51.998Z</time></trkpt><trkpt lat="46.5664028" lon="12.7338987"><ele>1159.0</ele><time>2026-04-12T08:04:52.997Z</time></trkpt><trkpt lat="46.566503" lon="12.7339684"><ele>1161.8333333333333</ele><time>2026-04-12T08:04:53.997Z</time></trkpt><trkpt lat="46.5665853" lon="12.7340513"><ele>1164.6666666666665</ele><time>2026-04-12T08:04:54.997Z</time></trkpt><trkpt lat="46.5666598" lon="12.7341186"><ele>1167.5</ele><time>2026-04-12T08:04:55.997Z</time></trkpt><trkpt lat="46.5667302" lon="12.7341416"><ele>1170.3333333333333</ele><time>2026-04-12T08:04:56.997Z</time></trkpt><trkpt lat="46.5668029" lon="12.7340359"><ele>1173.1666666666667</ele><time>2026-04-12T08:04:58.997Z</time></trkpt><trkpt lat="46.5667766" lon="12.7339509"><ele>1176.0</ele><time>2026-04-12T08:04:59.997Z</time></trkpt><trkpt lat="46.5667032" lon="12.7338668"><ele>1176.0</ele><time>2026-04-12T08:05:00.997Z</time></trkpt><trkpt lat="46.5666071" lon="12.7337591"><ele>1176.0</ele><time>2026-04-12T08:05:01.997Z</time></trkpt><trkpt lat="46.5664843" lon="12.7336101"><ele>1176.0</ele><time>2026-04-12T08:05:02.998Z</time></trkpt><trkpt lat="46.5663604" lon="12.7334636"><ele>1176.0</ele><time>2026-04-12T08:05:03.999Z</time></trkpt><trkpt lat="46.5662454" lon="12.7333135"><ele>1175.25</ele><time>2026-04-12T08:05:04.998Z</time></trkpt><trkpt lat="46.5661417" lon="12.7331716"><ele>1174.5</ele><time>2026-04-12T08:05:05.997Z</time></trkpt><trkpt lat="46.5660441" lon="12.733039"><ele>1173.75</ele><time>2026-04-12T08:05:06.997Z</time></trkpt><trkpt lat="46.5659571" lon="12.7328915"><ele>1173.0</ele><time>2026-04-12T08:05:07.997Z</time></trkpt><trkpt lat="46.5658929" lon="12.7326951"><ele>1176.0</ele><time>2026-04-12T08:05:08.997Z</time></trkpt><trkpt lat="46.5658611" lon="12.7324657"><ele>1179.0</ele><time>2026-04-12T08:05:09.997Z</time></trkpt><trkpt lat="46.5658473" lon="12.7321924"><ele>1182.0</ele><time>2026-04-12T08:05:10.998Z</time></trkpt><trkpt lat="46.5658397" lon="12.7319186"><ele>1183.6666666666667</ele><time>2026-04-12T08:05:11.997Z</time></trkpt><trkpt lat="46.5658334" lon="12.7316303"><ele>1185.3333333333335</ele><time>2026-04-12T08:05:12.998Z</time></trkpt><trkpt lat="46.5658308" lon="12.7313159"><ele>1187.0</ele><time>2026-04-12T08:05:13.997Z</time></trkpt><trkpt lat="46.5658277" lon="12.73101"><ele>1188.3333333333335</ele><time>2026-04-12T08:05:14.997Z</time></trkpt><trkpt lat="46.5658271" lon="12.7307259"><ele>1189.6666666666667</ele><time>2026-04-12T08:05:15.997Z</time></trkpt><trkpt lat="46.5658154" lon="12.7304576"><ele>1191.0</ele><time>2026-04-12T08:05:16.997Z</time></trkpt><trkpt lat="46.5657945" lon="12.7301916"><ele>1194.6666666666667</ele><time>2026-04-12T08:05:17.998Z</time></trkpt><trkpt lat="46.5657678" lon="12.7299242"><ele>1198.3333333333335</ele><time>2026-04-12T08:05:18.997Z</time></trkpt><trkpt lat="46.5657453" lon="12.7296716"><ele>1202.0</ele><time>2026-04-12T08:05:19.998Z</time></trkpt><trkpt lat="46.5657312" lon="12.729432"><ele>1204.3333333333335</ele><time>2026-04-12T08:05:20.997Z</time></trkpt><trkpt lat="46.5657371" lon="12.7291982"><ele>1206.6666666666667</ele><time>2026-04-12T08:05:21.997Z</time></trkpt><trkpt lat="46.5657823" lon="12.7289685"><ele>1209.0</ele><time>2026-04-12T08:05:22.997Z</time></trkpt><trkpt lat="46.5658562" lon="12.7287507"><ele>1209.0</ele><time>2026-04-12T08:05:23.997Z</time></trkpt><trkpt lat="46.5659477" lon="12.7285724"><ele>1209.0</ele><time>2026-04-12T08:05:24.997Z</time></trkpt><trkpt lat="46.5660393" lon="12.7284123"><ele>1209.0</ele><time>2026-04-12T08:05:25.997Z</time></trkpt><trkpt lat="46.5661135" lon="12.7282526"><ele>1209.0</ele><time>2026-04-12T08:05:26.997Z</time></trkpt><trkpt lat="46.5661597" lon="12.7281196"><ele>1214.2</ele><time>2026-04-12T08:05:27.997Z</time></trkpt><trkpt lat="46.5662028" lon="12.7280238"><ele>1219.4</ele><time>2026-04-12T08:05:28.997Z</time></trkpt><trkpt lat="46.5662626" lon="12.7279598"><ele>1224.6</ele><time>2026-04-12T08:05:29.998Z</time></trkpt><trkpt lat="46.5663536" lon="12.7280542"><ele>1229.8</ele><time>2026-04-12T08:05:31.998Z</time></trkpt><trkpt lat="46.5663502" lon="12.7281829"><ele>1235.0</ele><time>2026-04-12T08:05:32.997Z</time></trkpt><trkpt lat="46.5663126" lon="12.7283363"><ele>1235.0</ele><time>2026-04-12T08:05:33.997Z</time></trkpt><trkpt lat="46.5662523" lon="12.7284996"><ele>1235.0</ele><time>2026-04-12T08:05:34.998Z</time></trkpt><trkpt lat="46.5661896" lon="12.7286405"><ele>1235.0</ele><time>2026-04-12T08:05:35.997Z</time></trkpt><trkpt lat="46.5661263" lon="12.7287571"><ele>1235.0</ele><time>2026-04-12T08:05:36.997Z</time></trkpt><trkpt lat="46.5660786" lon="12.7288784"><ele>1235.0</ele><time>2026-04-12T08:05:37.997Z</time></trkpt><trkpt lat="46.5660562" lon="12.7290022"><ele>1237.1666666666667</ele><time>2026-04-12T08:05:38.997Z</time></trkpt><trkpt lat="46.5660802" lon="12.7291195"><ele>1239.3333333333335</ele><time>2026-04-12T08:05:39.998Z</time></trkpt><trkpt lat="46.5661376" lon="12.729203"><ele>1241.5</ele><time>2026-04-12T08:05:40.997Z</time></trkpt><trkpt lat="46.566221" lon="12.7292381"><ele>1243.6666666666667</ele><time>2026-04-12T08:05:41.997Z</time></trkpt><trkpt lat="46.5663047" lon="12.7291874"><ele>1245.8333333333333</ele><time>2026-04-12T08:05:42.997Z</time></trkpt><trkpt lat="46.566376" lon="12.7290722"><ele>1248.0</ele><time>2026-04-12T08:05:43.998Z</time></trkpt><trkpt lat="46.5664425" lon="12.7288998"><ele>1248.0</ele><time>2026-04-12T08:05:44.997Z</time></trkpt><trkpt lat="46.5665063" lon="12.7287043"><ele>1248.0</ele><time>2026-04-12T08:05:45.997Z</time></trkpt><trkpt lat="46.5665753" lon="12.7284876"><ele>1248.0</ele><time>2026-04-12T08:05:46.998Z</time></trkpt><trkpt lat="46.5666485" lon="12.7282345"><ele>1243.6666666666667</ele><time>2026-04-12T08:05:47.998Z</time></trkpt><trkpt lat="46.5667269" lon="12.7279799"><ele>1239.3333333333335</ele><time>2026-04-12T08:05:48.997Z</time></trkpt><trkpt lat="46.5668016" lon="12.7277258"><ele>1235.0</ele><time>2026-04-12T08:05:49.998Z</time></trkpt><trkpt lat="46.5668665" lon="12.7274935"><ele>1232.6666666666667</ele><time>2026-04-12T08:05:50.997Z</time></trkpt><trkpt lat="46.5669268" lon="12.727277"><ele>1230.3333333333333</ele><time>2026-04-12T08:05:51.997Z</time></trkpt><trkpt lat="46.5669823" lon="12.7270769"><ele>1228.0</ele><time>2026-04-12T08:05:52.997Z</time></trkpt><trkpt lat="46.5670348" lon="12.7268826"><ele>1239.5</ele><time>2026-04-12T08:05:53.997Z</time></trkpt><trkpt lat="46.5670872" lon="12.7267004"><ele>1251.0</ele><time>2026-04-12T08:05:54.997Z</time></trkpt><trkpt lat="46.5671321" lon="12.7265264"><ele>1262.5</ele><time>2026-04-12T08:05:55.998Z</time></trkpt><trkpt lat="46.5671568" lon="12.7263513"><ele>1274.0</ele><time>2026-04-12T08:05:56.997Z</time></trkpt><trkpt lat="46.5671767" lon="12.7261866"><ele>1274.25</ele><time>2026-04-12T08:05:57.997Z</time></trkpt><trkpt lat="46.5671177" lon="12.7260115"><ele>1274.5</ele><time>2026-04-12T08:05:58.998Z</time></trkpt><trkpt lat="46.5670399" lon="12.7258499"><ele>1274.75</ele><time>2026-04-12T08:05:59.997Z</time></trkpt><trkpt lat="46.5669406" lon="12.7256795"><ele>1275.0</ele><time>2026-04-12T08:06:00.998Z</time></trkpt><trkpt lat="46.5668044" lon="12.7255247"><ele>1261.5</ele><time>2026-04-12T08:06:01.998Z</time></trkpt><trkpt lat="46.5666823" lon="12.7253642"><ele>1248.0</ele><time>2026-04-12T08:06:02.999Z</time></trkpt><trkpt lat="46.5657399" lon="12.7239266"><ele>1248.0</ele><time>2026-04-12T08:06:11.997Z</time></trkpt><trkpt lat="46.565659" lon="12.7237574"><ele>1248.0</ele><time>2026-04-12T08:06:12.998Z</time></trkpt><trkpt lat="46.5655373" lon="12.7235562"><ele>1248.0</ele><time>2026-04-12T08:06:13.997Z</time></trkpt><trkpt lat="46.565468" lon="12.7233917"><ele>1248.5</ele><time>2026-04-12T08:06:14.997Z</time></trkpt><trkpt lat="46.565405" lon="12.723246"><ele>1249.0</ele><time>2026-04-12T08:06:15.997Z</time></trkpt><trkpt lat="46.5653577" lon="12.7231024"><ele>1249.5</ele><time>2026-04-12T08:06:16.997Z</time></trkpt><trkpt lat="46.565323" lon="12.7229454"><ele>1250.0</ele><time>2026-04-12T08:06:17.997Z</time></trkpt><trkpt lat="46.5653039" lon="12.7227815"><ele>1255.4</ele><time>2026-04-12T08:06:18.997Z</time></trkpt><trkpt lat="46.5652901" lon="12.7226211"><ele>1260.8</ele><time>2026-04-12T08:06:19.997Z</time></trkpt><trkpt lat="46.5652792" lon="12.7224724"><ele>1266.2</ele><time>2026-04-12T08:06:20.997Z</time></trkpt><trkpt lat="46.5652707" lon="12.7223345"><ele>1271.6</ele><time>2026-04-12T08:06:21.997Z</time></trkpt><trkpt lat="46.565269" lon="12.7221936"><ele>1277.0</ele><time>2026-04-12T08:06:22.997Z</time></trkpt><trkpt lat="46.5652832" lon="12.7220508"><ele>1277.0</ele><time>2026-04-12T08:06:23.997Z</time></trkpt><trkpt lat="46.5653259" lon="12.7219138"><ele>1277.0</ele><time>2026-04-12T08:06:24.998Z</time></trkpt><trkpt lat="46.5653864" lon="12.7217984"><ele>1277.0</ele><time>2026-04-12T08:06:25.997Z</time></trkpt><trkpt lat="46.565466" lon="12.7217017"><ele>1277.0</ele><time>2026-04-12T08:06:26.998Z</time></trkpt><trkpt lat="46.5655449" lon="12.7216023"><ele>1277.0</ele><time>2026-04-12T08:06:27.997Z</time></trkpt><trkpt lat="46.5656281" lon="12.7214958"><ele>1281.5</ele><time>2026-04-12T08:06:28.998Z</time></trkpt><trkpt lat="46.5657099" lon="12.7213888"><ele>1286.0</ele><time>2026-04-12T08:06:29.997Z</time></trkpt><trkpt lat="46.5657853" lon="12.7212684"><ele>1290.5</ele><time>2026-04-12T08:06:30.997Z</time></trkpt><trkpt lat="46.565852" lon="12.7211325"><ele>1295.0</ele><time>2026-04-12T08:06:31.997Z</time></trkpt><trkpt lat="46.5659105" lon="12.7209887"><ele>1296.25</ele><time>2026-04-12T08:06:32.997Z</time></trkpt><trkpt lat="46.5659637" lon="12.7208386"><ele>1297.5</ele><time>2026-04-12T08:06:33.997Z</time></trkpt><trkpt lat="46.5660194" lon="12.7206897"><ele>1298.75</ele><time>2026-04-12T08:06:34.996Z</time></trkpt><trkpt lat="46.5660694" lon="12.7205372"><ele>1300.0</ele><time>2026-04-12T08:06:35.998Z</time></trkpt><trkpt lat="46.5661198" lon="12.7203912"><ele>1300.0</ele><time>2026-04-12T08:06:36.998Z</time></trkpt><trkpt lat="46.5661668" lon="12.7202497"><ele>1300.0</ele><time>2026-04-12T08:06:37.998Z</time></trkpt><trkpt lat="46.5662142" lon="12.7201139"><ele>1300.0</ele><time>2026-04-12T08:06:38.998Z</time></trkpt><trkpt lat="46.5662593" lon="12.7199755"><ele>1300.0</ele><time>2026-04-12T08:06:39.998Z</time></trkpt><trkpt lat="46.5663211" lon="12.719852"><ele>1300.0</ele><time>2026-04-12T08:06:40.997Z</time></trkpt><trkpt lat="46.5663989" lon="12.7197531"><ele>1296.4</ele><time>2026-04-12T08:06:41.997Z</time></trkpt><trkpt lat="46.5664924" lon="12.7197023"><ele>1292.8</ele><time>2026-04-12T08:06:42.997Z</time></trkpt><trkpt lat="46.5665922" lon="12.7196785"><ele>1289.1999999999998</ele><time>2026-04-12T08:06:43.997Z</time></trkpt><trkpt lat="46.5667032" lon="12.719748"><ele>1285.6</ele><time>2026-04-12T08:06:44.998Z</time></trkpt><trkpt lat="46.5668093" lon="12.7198136"><ele>1282.0</ele><time>2026-04-12T08:06:45.998Z</time></trkpt><trkpt lat="46.5669172" lon="12.7198957"><ele>1282.0</ele><time>2026-04-12T08:06:46.997Z</time></trkpt><trkpt lat="46.5670256" lon="12.7199731"><ele>1282.0</ele><time>2026-04-12T08:06:47.997Z</time></trkpt><trkpt lat="46.5671323" lon="12.720055"><ele>1282.0</ele><time>2026-04-12T08:06:48.997Z</time></trkpt><trkpt lat="46.5672427" lon="12.7201366"><ele>1282.0</ele><time>2026-04-12T08:06:49.997Z</time></trkpt><trkpt lat="46.5673493" lon="12.7202188"><ele>1283.5</ele><time>2026-04-12T08:06:50.997Z</time></trkpt><trkpt lat="46.5674578" lon="12.7203022"><ele>1285.0</ele><time>2026-04-12T08:06:51.998Z</time></trkpt><trkpt lat="46.567564" lon="12.7203799"><ele>1286.5</ele><time>2026-04-12T08:06:52.997Z</time></trkpt><trkpt lat="46.5676735" lon="12.7204546"><ele>1288.0</ele><time>2026-04-12T08:06:53.997Z</time></trkpt><trkpt lat="46.5677748" lon="12.7205289"><ele>1287.5</ele><time>2026-04-12T08:06:54.997Z</time></trkpt><trkpt lat="46.5678833" lon="12.7206092"><ele>1287.0</ele><time>2026-04-12T08:06:55.997Z</time></trkpt><trkpt lat="46.5679828" lon="12.7206871"><ele>1286.5</ele><time>2026-04-12T08:06:56.997Z</time></trkpt><trkpt lat="46.5680874" lon="12.7207654"><ele>1286.0</ele><time>2026-04-12T08:06:57.998Z</time></trkpt><trkpt lat="46.5681845" lon="12.7208412"><ele>1286.0</ele><time>2026-04-12T08:06:58.997Z</time></trkpt><trkpt lat="46.568286" lon="12.7209167"><ele>1286.0</ele><time>2026-04-12T08:06:59.997Z</time></trkpt><trkpt lat="46.5683857" lon="12.720989"><ele>1286.0</ele><time>2026-04-12T08:07:00.996Z</time></trkpt><trkpt lat="46.5684799" lon="12.7210603"><ele>1286.0</ele><time>2026-04-12T08:07:01.998Z</time></trkpt><trkpt lat="46.5685723" lon="12.7211358"><ele>1286.0</ele><time>2026-04-12T08:07:02.998Z</time></trkpt><trkpt lat="46.5686655" lon="12.7212087"><ele>1287.0</ele><time>2026-04-12T08:07:03.996Z</time></trkpt><trkpt lat="46.5687667" lon="12.7212636"><ele>1288.0</ele><time>2026-04-12T08:07:04.996Z</time></trkpt><trkpt lat="46.5688717" lon="12.721303"><ele>1289.0</ele><time>2026-04-12T08:07:05.997Z</time></trkpt><trkpt lat="46.5689803" lon="12.7213207"><ele>1290.0</ele><time>2026-04-12T08:07:06.997Z</time></trkpt><trkpt lat="46.5690845" lon="12.7213204"><ele>1291.0</ele><time>2026-04-12T08:07:07.997Z</time></trkpt><trkpt lat="46.5691931" lon="12.7213169"><ele>1291.0</ele><time>2026-04-12T08:07:08.998Z</time></trkpt><trkpt lat="46.569306" lon="12.7213039"><ele>1291.0</ele><time>2026-04-12T08:07:09.999Z</time></trkpt><trkpt lat="46.5694122" lon="12.7212952"><ele>1291.0</ele><time>2026-04-12T08:07:10.998Z</time></trkpt><trkpt lat="46.5695218" lon="12.7212883"><ele>1291.0</ele><time>2026-04-12T08:07:11.997Z</time></trkpt><trkpt lat="46.5696386" lon="12.7212728"><ele>1291.0</ele><time>2026-04-12T08:07:12.998Z</time></trkpt><trkpt lat="46.5697493" lon="12.7212681"><ele>1291.6</ele><time>2026-04-12T08:07:13.998Z</time></trkpt><trkpt lat="46.5698583" lon="12.721258"><ele>1292.1999999999998</ele><time>2026-04-12T08:07:14.997Z</time></trkpt><trkpt lat="46.5699685" lon="12.7212489"><ele>1292.8000000000002</ele><time>2026-04-12T08:07:15.997Z</time></trkpt><trkpt lat="46.5700817" lon="12.721238"><ele>1293.4</ele><time>2026-04-12T08:07:16.996Z</time></trkpt><trkpt lat="46.5701915" lon="12.7212272"><ele>1294.0</ele><time>2026-04-12T08:07:17.997Z</time></trkpt><trkpt lat="46.5703048" lon="12.721222"><ele>1293.5</ele><time>2026-04-12T08:07:18.998Z</time></trkpt><trkpt lat="46.5704294" lon="12.7212327"><ele>1293.0</ele><time>2026-04-12T08:07:19.997Z</time></trkpt><trkpt lat="46.5705523" lon="12.7212663"><ele>1292.5</ele><time>2026-04-12T08:07:20.997Z</time></trkpt><trkpt lat="46.5706733" lon="12.7213336"><ele>1292.0</ele><time>2026-04-12T08:07:21.997Z</time></trkpt><trkpt lat="46.5707811" lon="12.7214258"><ele>1292.0</ele><time>2026-04-12T08:07:22.997Z</time></trkpt><trkpt lat="46.5708836" lon="12.721527"><ele>1292.0</ele><time>2026-04-12T08:07:23.997Z</time></trkpt><trkpt lat="46.570996" lon="12.7216191"><ele>1292.0</ele><time>2026-04-12T08:07:24.997Z</time></trkpt><trkpt lat="46.5711216" lon="12.7216847"><ele>1292.0</ele><time>2026-04-12T08:07:25.997Z</time></trkpt><trkpt lat="46.571262" lon="12.7217185"><ele>1289.75</ele><time>2026-04-12T08:07:26.997Z</time></trkpt><trkpt lat="46.5713961" lon="12.7217292"><ele>1287.5</ele><time>2026-04-12T08:07:27.997Z</time></trkpt><trkpt lat="46.5715281" lon="12.7217353"><ele>1285.25</ele><time>2026-04-12T08:07:28.997Z</time></trkpt><trkpt lat="46.5716551" lon="12.7217655"><ele>1283.0</ele><time>2026-04-12T08:07:29.997Z</time></trkpt><trkpt lat="46.5717786" lon="12.7218306"><ele>1282.5</ele><time>2026-04-12T08:07:30.997Z</time></trkpt><trkpt lat="46.5718943" lon="12.7219241"><ele>1282.0</ele><time>2026-04-12T08:07:31.997Z</time></trkpt><trkpt lat="46.571993" lon="12.7220392"><ele>1281.5</ele><time>2026-04-12T08:07:32.997Z</time></trkpt><trkpt lat="46.5720748" lon="12.7221693"><ele>1281.0</ele><time>2026-04-12T08:07:33.997Z</time></trkpt><trkpt lat="46.5721305" lon="12.7222969"><ele>1281.0</ele><time>2026-04-12T08:07:34.997Z</time></trkpt><trkpt lat="46.5721658" lon="12.7224224"><ele>1281.0</ele><time>2026-04-12T08:07:35.997Z</time></trkpt><trkpt lat="46.5721985" lon="12.7225283"><ele>1281.0</ele><time>2026-04-12T08:07:36.997Z</time></trkpt><trkpt lat="46.5722279" lon="12.7226116"><ele>1281.0</ele><time>2026-04-12T08:07:37.998Z</time></trkpt><trkpt lat="46.5723132" lon="12.7226094"><ele>1281.0</ele><time>2026-04-12T08:07:38.996Z</time></trkpt><trkpt lat="46.5723767" lon="12.7224692"><ele>1281.0</ele><time>2026-04-12T08:07:40.997Z</time></trkpt><trkpt lat="46.572356" lon="12.7223409"><ele>1281.0</ele><time>2026-04-12T08:07:41.996Z</time></trkpt><trkpt lat="46.5723156" lon="12.722195"><ele>1281.0</ele><time>2026-04-12T08:07:42.996Z</time></trkpt><trkpt lat="46.572257" lon="12.7220258"><ele>1281.0</ele><time>2026-04-12T08:07:43.997Z</time></trkpt><trkpt lat="46.5721928" lon="12.7218524"><ele>1281.0</ele><time>2026-04-12T08:07:44.997Z</time></trkpt><trkpt lat="46.5721279" lon="12.721678"><ele>1281.5</ele><time>2026-04-12T08:07:45.997Z</time></trkpt><trkpt lat="46.5720638" lon="12.7215021"><ele>1282.0</ele><time>2026-04-12T08:07:46.997Z</time></trkpt><trkpt lat="46.5720026" lon="12.7213373"><ele>1282.5</ele><time>2026-04-12T08:07:47.997Z</time></trkpt><trkpt lat="46.5719406" lon="12.7211772"><ele>1283.0</ele><time>2026-04-12T08:07:48.996Z</time></trkpt><trkpt lat="46.5718797" lon="12.7210157"><ele>1279.5</ele><time>2026-04-12T08:07:49.997Z</time></trkpt><trkpt lat="46.5718237" lon="12.7208536"><ele>1276.0</ele><time>2026-04-12T08:07:50.996Z</time></trkpt><trkpt lat="46.5717648" lon="12.7206956"><ele>1272.5</ele><time>2026-04-12T08:07:51.997Z</time></trkpt><trkpt lat="46.5717081" lon="12.7205411"><ele>1269.0</ele><time>2026-04-12T08:07:52.998Z</time></trkpt><trkpt lat="46.5716505" lon="12.7203873"><ele>1269.0</ele><time>2026-04-12T08:07:53.997Z</time></trkpt><trkpt lat="46.5715992" lon="12.7202345"><ele>1269.0</ele><time>2026-04-12T08:07:54.997Z</time></trkpt><trkpt lat="46.5715496" lon="12.7200798"><ele>1269.0</ele><time>2026-04-12T08:07:55.998Z</time></trkpt><trkpt lat="46.5715118" lon="12.7199167"><ele>1269.0</ele><time>2026-04-12T08:07:56.997Z</time></trkpt><trkpt lat="46.5714877" lon="12.7197451"><ele>1267.75</ele><time>2026-04-12T08:07:57.997Z</time></trkpt><trkpt lat="46.5714784" lon="12.7195751"><ele>1266.5</ele><time>2026-04-12T08:07:58.997Z</time></trkpt><trkpt lat="46.5714829" lon="12.7193952"><ele>1265.25</ele><time>2026-04-12T08:07:59.996Z</time></trkpt><trkpt lat="46.5715045" lon="12.7192096"><ele>1264.0</ele><time>2026-04-12T08:08:00.997Z</time></trkpt><trkpt lat="46.5715403" lon="12.719023"><ele>1263.5</ele><time>2026-04-12T08:08:01.997Z</time></trkpt><trkpt lat="46.5715815" lon="12.718837"><ele>1263.0</ele><time>2026-04-12T08:08:02.997Z</time></trkpt><trkpt lat="46.5716151" lon="12.7186529"><ele>1262.5</ele><time>2026-04-12T08:08:03.997Z</time></trkpt><trkpt lat="46.5716331" lon="12.7184717"><ele>1262.0</ele><time>2026-04-12T08:08:04.997Z</time></trkpt><trkpt lat="46.571632" lon="12.7182852"><ele>1262.0</ele><time>2026-04-12T08:08:05.996Z</time></trkpt><trkpt lat="46.5716228" lon="12.7180909"><ele>1262.0</ele><time>2026-04-12T08:08:06.997Z</time></trkpt><trkpt lat="46.571604" lon="12.7179044"><ele>1262.0</ele><time>2026-04-12T08:08:07.998Z</time></trkpt><trkpt lat="46.5715883" lon="12.7177082"><ele>1262.0</ele><time>2026-04-12T08:08:08.997Z</time></trkpt><trkpt lat="46.5715701" lon="12.7175061"><ele>1263.25</ele><time>2026-04-12T08:08:09.997Z</time></trkpt><trkpt lat="46.5715448" lon="12.7172978"><ele>1264.5</ele><time>2026-04-12T08:08:10.998Z</time></trkpt><trkpt lat="46.5715158" lon="12.7170937"><ele>1265.75</ele><time>2026-04-12T08:08:11.997Z</time></trkpt><trkpt lat="46.5714802" lon="12.7168825"><ele>1267.0</ele><time>2026-04-12T08:08:12.997Z</time></trkpt><trkpt lat="46.5714411" lon="12.7166764"><ele>1267.75</ele><time>2026-04-12T08:08:13.996Z</time></trkpt><trkpt lat="46.5713984" lon="12.7164693"><ele>1268.5</ele><time>2026-04-12T08:08:14.998Z</time></trkpt><trkpt lat="46.5713571" lon="12.716271"><ele>1269.25</ele><time>2026-04-12T08:08:15.996Z</time></trkpt><trkpt lat="46.5713085" lon="12.7160786"><ele>1270.0</ele><time>2026-04-12T08:08:16.998Z</time></trkpt><trkpt lat="46.5712608" lon="12.7158801"><ele>1270.0</ele><time>2026-04-12T08:08:17.997Z</time></trkpt><trkpt lat="46.5712196" lon="12.7156881"><ele>1270.0</ele><time>2026-04-12T08:08:18.997Z</time></trkpt><trkpt lat="46.5711762" lon="12.7155039"><ele>1270.0</ele><time>2026-04-12T08:08:19.997Z</time></trkpt><trkpt lat="46.5711307" lon="12.7153135"><ele>1270.0</ele><time>2026-04-12T08:08:20.996Z</time></trkpt><trkpt lat="46.5710841" lon="12.7151189"><ele>1265.5</ele><time>2026-04-12T08:08:21.996Z</time></trkpt><trkpt lat="46.5710385" lon="12.7149279"><ele>1261.0</ele><time>2026-04-12T08:08:22.998Z</time></trkpt><trkpt lat="46.5709938" lon="12.7147338"><ele>1256.5</ele><time>2026-04-12T08:08:23.997Z</time></trkpt><trkpt lat="46.5709477" lon="12.714541"><ele>1252.0</ele><time>2026-04-12T08:08:24.997Z</time></trkpt><trkpt lat="46.5708983" lon="12.7143487"><ele>1251.75</ele><time>2026-04-12T08:08:25.997Z</time></trkpt><trkpt lat="46.5708499" lon="12.7141536"><ele>1251.5</ele><time>2026-04-12T08:08:26.997Z</time></trkpt><trkpt lat="46.5708045" lon="12.7139586"><ele>1251.25</ele><time>2026-04-12T08:08:27.997Z</time></trkpt><trkpt lat="46.5707593" lon="12.71377"><ele>1251.0</ele><time>2026-04-12T08:08:28.997Z</time></trkpt><trkpt lat="46.5707116" lon="12.7135798"><ele>1251.5</ele><time>2026-04-12T08:08:29.996Z</time></trkpt><trkpt lat="46.5706636" lon="12.7133885"><ele>1252.0</ele><time>2026-04-12T08:08:30.997Z</time></trkpt><trkpt lat="46.5706177" lon="12.7131995"><ele>1252.5</ele><time>2026-04-12T08:08:31.997Z</time></trkpt><trkpt lat="46.5705751" lon="12.7130033"><ele>1253.0</ele><time>2026-04-12T08:08:32.997Z</time></trkpt><trkpt lat="46.5705264" lon="12.7128087"><ele>1253.0</ele><time>2026-04-12T08:08:33.997Z</time></trkpt><trkpt lat="46.5704828" lon="12.7126201"><ele>1253.0</ele><time>2026-04-12T08:08:34.997Z</time></trkpt><trkpt lat="46.5704337" lon="12.7124284"><ele>1253.0</ele><time>2026-04-12T08:08:35.998Z</time></trkpt><trkpt lat="46.5703886" lon="12.712242"><ele>1253.0</ele><time>2026-04-12T08:08:36.996Z</time></trkpt><trkpt lat="46.570347" lon="12.7120563"><ele>1251.5</ele><time>2026-04-12T08:08:37.996Z</time></trkpt><trkpt lat="46.5703113" lon="12.7118656"><ele>1250.0</ele><time>2026-04-12T08:08:38.996Z</time></trkpt><trkpt lat="46.5702898" lon="12.7116661"><ele>1248.5</ele><time>2026-04-12T08:08:39.996Z</time></trkpt><trkpt lat="46.5702784" lon="12.7114604"><ele>1247.0</ele><time>2026-04-12T08:08:40.997Z</time></trkpt><trkpt lat="46.5702684" lon="12.7112528"><ele>1245.25</ele><time>2026-04-12T08:08:41.997Z</time></trkpt><trkpt lat="46.5702658" lon="12.7110461"><ele>1243.5</ele><time>2026-04-12T08:08:42.997Z</time></trkpt><trkpt lat="46.5702673" lon="12.7108423"><ele>1241.75</ele><time>2026-04-12T08:08:43.997Z</time></trkpt><trkpt lat="46.5702659" lon="12.7106469"><ele>1240.0</ele><time>2026-04-12T08:08:44.996Z</time></trkpt><trkpt lat="46.5702597" lon="12.7104449"><ele>1240.0</ele><time>2026-04-12T08:08:45.997Z</time></trkpt><trkpt lat="46.570256" lon="12.7102489"><ele>1240.0</ele><time>2026-04-12T08:08:46.998Z</time></trkpt><trkpt lat="46.5702514" lon="12.7100568"><ele>1240.0</ele><time>2026-04-12T08:08:47.996Z</time></trkpt><trkpt lat="46.5702502" lon="12.7098653"><ele>1240.0</ele><time>2026-04-12T08:08:48.997Z</time></trkpt><trkpt lat="46.5702394" lon="12.709679"><ele>1240.25</ele><time>2026-04-12T08:08:49.997Z</time></trkpt><trkpt lat="46.5702312" lon="12.7094946"><ele>1240.5</ele><time>2026-04-12T08:08:50.997Z</time></trkpt><trkpt lat="46.570216" lon="12.7093085"><ele>1240.75</ele><time>2026-04-12T08:08:51.997Z</time></trkpt><trkpt lat="46.5701912" lon="12.7091248"><ele>1241.0</ele><time>2026-04-12T08:08:52.996Z</time></trkpt><trkpt lat="46.5701441" lon="12.7089583"><ele>1241.0</ele><time>2026-04-12T08:08:53.996Z</time></trkpt><trkpt lat="46.570073" lon="12.7087963"><ele>1241.0</ele><time>2026-04-12T08:08:54.997Z</time></trkpt><trkpt lat="46.5699957" lon="12.7086375"><ele>1241.0</ele><time>2026-04-12T08:08:55.996Z</time></trkpt><trkpt lat="46.5699146" lon="12.7084745"><ele>1241.0</ele><time>2026-04-12T08:08:56.997Z</time></trkpt><trkpt lat="46.5698313" lon="12.7083127"><ele>1241.5</ele><time>2026-04-12T08:08:57.997Z</time></trkpt><trkpt lat="46.5697476" lon="12.7081525"><ele>1242.0</ele><time>2026-04-12T08:08:58.997Z</time></trkpt><trkpt lat="46.5696643" lon="12.7079878"><ele>1242.5</ele><time>2026-04-12T08:08:59.997Z</time></trkpt><trkpt lat="46.5695812" lon="12.7078201"><ele>1243.0</ele><time>2026-04-12T08:09:00.996Z</time></trkpt><trkpt lat="46.5695023" lon="12.7076526"><ele>1242.75</ele><time>2026-04-12T08:09:01.997Z</time></trkpt><trkpt lat="46.5694345" lon="12.7074704"><ele>1242.5</ele><time>2026-04-12T08:09:02.997Z</time></trkpt><trkpt lat="46.5693696" lon="12.7072832"><ele>1242.25</ele><time>2026-04-12T08:09:03.997Z</time></trkpt><trkpt lat="46.5693192" lon="12.7070834"><ele>1242.0</ele><time>2026-04-12T08:09:04.996Z</time></trkpt><trkpt lat="46.5692678" lon="12.7068856"><ele>1242.0</ele><time>2026-04-12T08:09:05.997Z</time></trkpt><trkpt lat="46.5692194" lon="12.7066777"><ele>1242.0</ele><time>2026-04-12T08:09:06.996Z</time></trkpt><trkpt lat="46.5691746" lon="12.7064735"><ele>1242.0</ele><time>2026-04-12T08:09:07.997Z</time></trkpt><trkpt lat="46.5691262" lon="12.7062693"><ele>1242.0</ele><time>2026-04-12T08:09:08.998Z</time></trkpt><trkpt lat="46.5690761" lon="12.7060644"><ele>1243.0</ele><time>2026-04-12T08:09:09.996Z</time></trkpt><trkpt lat="46.5690328" lon="12.705862"><ele>1244.0</ele><time>2026-04-12T08:09:10.998Z</time></trkpt><trkpt lat="46.568986" lon="12.705656"><ele>1245.0</ele><time>2026-04-12T08:09:11.997Z</time></trkpt><trkpt lat="46.5689449" lon="12.7054542"><ele>1246.0</ele><time>2026-04-12T08:09:12.998Z</time></trkpt><trkpt lat="46.568901" lon="12.705257"><ele>1245.25</ele><time>2026-04-12T08:09:13.996Z</time></trkpt><trkpt lat="46.5688562" lon="12.7050679"><ele>1244.5</ele><time>2026-04-12T08:09:14.997Z</time></trkpt><trkpt lat="46.5688127" lon="12.7048836"><ele>1243.75</ele><time>2026-04-12T08:09:15.998Z</time></trkpt><trkpt lat="46.5687753" lon="12.7046906"><ele>1243.0</ele><time>2026-04-12T08:09:16.998Z</time></trkpt><trkpt lat="46.568748" lon="12.7044938"><ele>1244.0</ele><time>2026-04-12T08:09:17.996Z</time></trkpt><trkpt lat="46.5687298" lon="12.7042935"><ele>1245.0</ele><time>2026-04-12T08:09:18.997Z</time></trkpt><trkpt lat="46.5687201" lon="12.7040871"><ele>1246.0</ele><time>2026-04-12T08:09:19.996Z</time></trkpt><trkpt lat="46.5687181" lon="12.703876"><ele>1247.0</ele><time>2026-04-12T08:09:20.997Z</time></trkpt><trkpt lat="46.5687189" lon="12.7036657"><ele>1246.75</ele><time>2026-04-12T08:09:21.996Z</time></trkpt><trkpt lat="46.5687205" lon="12.703461"><ele>1246.5</ele><time>2026-04-12T08:09:22.996Z</time></trkpt><trkpt lat="46.5687174" lon="12.7032505"><ele>1246.25</ele><time>2026-04-12T08:09:23.997Z</time></trkpt><trkpt lat="46.5687188" lon="12.7030378"><ele>1246.0</ele><time>2026-04-12T08:09:24.997Z</time></trkpt><trkpt lat="46.5687197" lon="12.7028283"><ele>1246.0</ele><time>2026-04-12T08:09:25.997Z</time></trkpt><trkpt lat="46.5687139" lon="12.7026085"><ele>1246.0</ele><time>2026-04-12T08:09:26.996Z</time></trkpt><trkpt lat="46.5687141" lon="12.7024087"><ele>1246.0</ele><time>2026-04-12T08:09:27.997Z</time></trkpt><trkpt lat="46.5687197" lon="12.7022061"><ele>1246.0</ele><time>2026-04-12T08:09:28.997Z</time></trkpt><trkpt lat="46.5687204" lon="12.7020141"><ele>1245.5</ele><time>2026-04-12T08:09:29.997Z</time></trkpt><trkpt lat="46.5687196" lon="12.701819"><ele>1245.0</ele><time>2026-04-12T08:09:30.997Z</time></trkpt><trkpt lat="46.5687172" lon="12.701626"><ele>1244.5</ele><time>2026-04-12T08:09:31.997Z</time></trkpt><trkpt lat="46.5687168" lon="12.7014347"><ele>1244.0</ele><time>2026-04-12T08:09:32.996Z</time></trkpt><trkpt lat="46.5687241" lon="12.7012406"><ele>1244.0</ele><time>2026-04-12T08:09:33.996Z</time></trkpt><trkpt lat="46.5687291" lon="12.7010471"><ele>1244.0</ele><time>2026-04-12T08:09:34.997Z</time></trkpt><trkpt lat="46.5687271" lon="12.7008625"><ele>1244.0</ele><time>2026-04-12T08:09:35.996Z</time></trkpt><trkpt lat="46.5687247" lon="12.7006803"><ele>1244.0</ele><time>2026-04-12T08:09:36.997Z</time></trkpt><trkpt lat="46.5687203" lon="12.700487"><ele>1244.0</ele><time>2026-04-12T08:09:37.997Z</time></trkpt><trkpt lat="46.5687116" lon="12.7003031"><ele>1244.0</ele><time>2026-04-12T08:09:38.996Z</time></trkpt><trkpt lat="46.5686931" lon="12.7001235"><ele>1244.0</ele><time>2026-04-12T08:09:39.997Z</time></trkpt><trkpt lat="46.5686683" lon="12.6999333"><ele>1244.0</ele><time>2026-04-12T08:09:40.997Z</time></trkpt><trkpt lat="46.5686387" lon="12.6997403"><ele>1242.25</ele><time>2026-04-12T08:09:41.996Z</time></trkpt><trkpt lat="46.5686021" lon="12.6995512"><ele>1240.5</ele><time>2026-04-12T08:09:42.997Z</time></trkpt><trkpt lat="46.5685678" lon="12.6993653"><ele>1238.75</ele><time>2026-04-12T08:09:43.996Z</time></trkpt><trkpt lat="46.5685287" lon="12.6991757"><ele>1237.0</ele><time>2026-04-12T08:09:44.997Z</time></trkpt><trkpt lat="46.568496" lon="12.6989959"><ele>1237.0</ele><time>2026-04-12T08:09:45.998Z</time></trkpt><trkpt lat="46.5684663" lon="12.6988176"><ele>1237.0</ele><time>2026-04-12T08:09:46.998Z</time></trkpt><trkpt lat="46.5684392" lon="12.6986389"><ele>1237.0</ele><time>2026-04-12T08:09:47.996Z</time></trkpt><trkpt lat="46.5684091" lon="12.6984542"><ele>1237.0</ele><time>2026-04-12T08:09:48.996Z</time></trkpt><trkpt lat="46.5683714" lon="12.698279"><ele>1237.25</ele><time>2026-04-12T08:09:49.996Z</time></trkpt><trkpt lat="46.5683345" lon="12.6981035"><ele>1237.5</ele><time>2026-04-12T08:09:50.997Z</time></trkpt><trkpt lat="46.568298" lon="12.6979261"><ele>1237.75</ele><time>2026-04-12T08:09:51.997Z</time></trkpt><trkpt lat="46.5682635" lon="12.6977371"><ele>1238.0</ele><time>2026-04-12T08:09:52.997Z</time></trkpt><trkpt lat="46.568227" lon="12.6975466"><ele>1238.0</ele><time>2026-04-12T08:09:53.997Z</time></trkpt><trkpt lat="46.5681893" lon="12.6973588"><ele>1238.0</ele><time>2026-04-12T08:09:54.997Z</time></trkpt><trkpt lat="46.5681532" lon="12.6971678"><ele>1238.0</ele><time>2026-04-12T08:09:55.997Z</time></trkpt><trkpt lat="46.5681161" lon="12.6969774"><ele>1238.0</ele><time>2026-04-12T08:09:56.997Z</time></trkpt><trkpt lat="46.5680771" lon="12.6967885"><ele>1238.25</ele><time>2026-04-12T08:09:57.996Z</time></trkpt><trkpt lat="46.5680395" lon="12.6965972"><ele>1238.5</ele><time>2026-04-12T08:09:58.997Z</time></trkpt><trkpt lat="46.5680032" lon="12.6964032"><ele>1238.75</ele><time>2026-04-12T08:09:59.997Z</time></trkpt><trkpt lat="46.5679715" lon="12.6962112"><ele>1239.0</ele><time>2026-04-12T08:10:00.996Z</time></trkpt><trkpt lat="46.5679346" lon="12.6960291"><ele>1240.0</ele><time>2026-04-12T08:10:01.997Z</time></trkpt><trkpt lat="46.5679062" lon="12.6958443"><ele>1241.0</ele><time>2026-04-12T08:10:02.997Z</time></trkpt><trkpt lat="46.5678703" lon="12.6956566"><ele>1242.0</ele><time>2026-04-12T08:10:03.997Z</time></trkpt><trkpt lat="46.5678375" lon="12.6954701"><ele>1243.0</ele><time>2026-04-12T08:10:04.998Z</time></trkpt><trkpt lat="46.5677987" lon="12.6952913"><ele>1238.5</ele><time>2026-04-12T08:10:05.996Z</time></trkpt><trkpt lat="46.5677654" lon="12.6951075"><ele>1234.0</ele><time>2026-04-12T08:10:06.997Z</time></trkpt><trkpt lat="46.5677312" lon="12.6949241"><ele>1229.5</ele><time>2026-04-12T08:10:07.997Z</time></trkpt><trkpt lat="46.5676958" lon="12.6947394"><ele>1225.0</ele><time>2026-04-12T08:10:08.996Z</time></trkpt><trkpt lat="46.5676562" lon="12.6945471"><ele>1228.0</ele><time>2026-04-12T08:10:09.998Z</time></trkpt><trkpt lat="46.5676261" lon="12.6943636"><ele>1231.0</ele><time>2026-04-12T08:10:10.997Z</time></trkpt><trkpt lat="46.5675932" lon="12.6941724"><ele>1234.0</ele><time>2026-04-12T08:10:11.998Z</time></trkpt><trkpt lat="46.5675588" lon="12.6939824"><ele>1237.0</ele><time>2026-04-12T08:10:12.997Z</time></trkpt><trkpt lat="46.5675286" lon="12.693787"><ele>1237.0</ele><time>2026-04-12T08:10:13.996Z</time></trkpt><trkpt lat="46.567493" lon="12.6935935"><ele>1237.0</ele><time>2026-04-12T08:10:14.996Z</time></trkpt><trkpt lat="46.5674513" lon="12.6933954"><ele>1237.0</ele><time>2026-04-12T08:10:15.996Z</time></trkpt><trkpt lat="46.5674186" lon="12.6931959"><ele>1237.0</ele><time>2026-04-12T08:10:16.997Z</time></trkpt><trkpt lat="46.5673806" lon="12.6929913"><ele>1237.75</ele><time>2026-04-12T08:10:17.997Z</time></trkpt><trkpt lat="46.5673435" lon="12.692793"><ele>1238.5</ele><time>2026-04-12T08:10:18.996Z</time></trkpt><trkpt lat="46.5673061" lon="12.6925912"><ele>1239.25</ele><time>2026-04-12T08:10:19.996Z</time></trkpt><trkpt lat="46.5672623" lon="12.6923883"><ele>1240.0</ele><time>2026-04-12T08:10:20.996Z</time></trkpt><trkpt lat="46.5672156" lon="12.6921883"><ele>1238.5</ele><time>2026-04-12T08:10:21.997Z</time></trkpt><trkpt lat="46.5671669" lon="12.6919895"><ele>1237.0</ele><time>2026-04-12T08:10:22.997Z</time></trkpt><trkpt lat="46.5671136" lon="12.691795"><ele>1235.5</ele><time>2026-04-12T08:10:23.996Z</time></trkpt><trkpt lat="46.5670546" lon="12.6916111"><ele>1234.0</ele><time>2026-04-12T08:10:24.997Z</time></trkpt><trkpt lat="46.5669904" lon="12.691426"><ele>1234.0</ele><time>2026-04-12T08:10:25.997Z</time></trkpt><trkpt lat="46.5669179" lon="12.6912474"><ele>1234.0</ele><time>2026-04-12T08:10:26.996Z</time></trkpt><trkpt lat="46.5668396" lon="12.6910616"><ele>1234.0</ele><time>2026-04-12T08:10:27.997Z</time></trkpt><trkpt lat="46.5667515" lon="12.6908845"><ele>1234.0</ele><time>2026-04-12T08:10:28.997Z</time></trkpt><trkpt lat="46.5666622" lon="12.6907181"><ele>1235.25</ele><time>2026-04-12T08:10:29.997Z</time></trkpt><trkpt lat="46.5665729" lon="12.6905414"><ele>1236.5</ele><time>2026-04-12T08:10:30.998Z</time></trkpt><trkpt lat="46.5664791" lon="12.6903777"><ele>1237.75</ele><time>2026-04-12T08:10:31.997Z</time></trkpt><trkpt lat="46.5663961" lon="12.6902241"><ele>1239.0</ele><time>2026-04-12T08:10:32.997Z</time></trkpt><trkpt lat="46.5663231" lon="12.6900842"><ele>1241.0</ele><time>2026-04-12T08:10:33.996Z</time></trkpt><trkpt lat="46.5662721" lon="12.6899478"><ele>1243.0</ele><time>2026-04-12T08:10:34.997Z</time></trkpt><trkpt lat="46.5662514" lon="12.6898089"><ele>1245.0</ele><time>2026-04-12T08:10:35.997Z</time></trkpt><trkpt lat="46.5662683" lon="12.6896702"><ele>1247.0</ele><time>2026-04-12T08:10:36.997Z</time></trkpt><trkpt lat="46.5663246" lon="12.6895523"><ele>1249.0</ele><time>2026-04-12T08:10:37.996Z</time></trkpt><trkpt lat="46.5664071" lon="12.6894472"><ele>1248.4</ele><time>2026-04-12T08:10:38.997Z</time></trkpt><trkpt lat="46.5665048" lon="12.6893583"><ele>1247.8000000000002</ele><time>2026-04-12T08:10:39.996Z</time></trkpt><trkpt lat="46.5666034" lon="12.6892855"><ele>1247.1999999999998</ele><time>2026-04-12T08:10:40.997Z</time></trkpt><trkpt lat="46.5667061" lon="12.6892202"><ele>1246.6</ele><time>2026-04-12T08:10:41.996Z</time></trkpt><trkpt lat="46.5668081" lon="12.6891563"><ele>1246.0</ele><time>2026-04-12T08:10:42.996Z</time></trkpt><trkpt lat="46.5669038" lon="12.6890969"><ele>1246.0</ele><time>2026-04-12T08:10:43.997Z</time></trkpt><trkpt lat="46.5669947" lon="12.6890377"><ele>1246.0</ele><time>2026-04-12T08:10:44.998Z</time></trkpt><trkpt lat="46.5670829" lon="12.6889827"><ele>1246.0</ele><time>2026-04-12T08:10:45.998Z</time></trkpt><trkpt lat="46.5671687" lon="12.6889399"><ele>1246.0</ele><time>2026-04-12T08:10:46.997Z</time></trkpt><trkpt lat="46.5672483" lon="12.6888811"><ele>1246.0</ele><time>2026-04-12T08:10:47.997Z</time></trkpt><trkpt lat="46.5673124" lon="12.6887933"><ele>1245.6666666666665</ele><time>2026-04-12T08:10:48.997Z</time></trkpt><trkpt lat="46.5673509" lon="12.6886836"><ele>1245.3333333333333</ele><time>2026-04-12T08:10:49.996Z</time></trkpt><trkpt lat="46.5673606" lon="12.6885594"><ele>1245.0</ele><time>2026-04-12T08:10:50.996Z</time></trkpt><trkpt lat="46.5673504" lon="12.6884315"><ele>1244.6666666666667</ele><time>2026-04-12T08:10:51.998Z</time></trkpt><trkpt lat="46.5673281" lon="12.6883008"><ele>1244.3333333333335</ele><time>2026-04-12T08:10:52.996Z</time></trkpt><trkpt lat="46.5673073" lon="12.688167"><ele>1244.0</ele><time>2026-04-12T08:10:53.997Z</time></trkpt><trkpt lat="46.5672799" lon="12.6880358"><ele>1244.0</ele><time>2026-04-12T08:10:54.998Z</time></trkpt><trkpt lat="46.5672536" lon="12.6879032"><ele>1244.0</ele><time>2026-04-12T08:10:55.997Z</time></trkpt><trkpt lat="46.5672237" lon="12.6877836"><ele>1244.0</ele><time>2026-04-12T08:10:56.997Z</time></trkpt><trkpt lat="46.5671765" lon="12.6876701"><ele>1244.0</ele><time>2026-04-12T08:10:57.997Z</time></trkpt><trkpt lat="46.5671089" lon="12.6875785"><ele>1244.0</ele><time>2026-04-12T08:10:58.996Z</time></trkpt><trkpt lat="46.5670166" lon="12.6875158"><ele>1244.4</ele><time>2026-04-12T08:10:59.996Z</time></trkpt><trkpt lat="46.5669074" lon="12.687494"><ele>1244.8000000000002</ele><time>2026-04-12T08:11:00.997Z</time></trkpt><trkpt lat="46.5668028" lon="12.687497"><ele>1245.1999999999998</ele><time>2026-04-12T08:11:01.996Z</time></trkpt><trkpt lat="46.566699" lon="12.6875205"><ele>1245.6</ele><time>2026-04-12T08:11:02.997Z</time></trkpt><trkpt lat="46.566597" lon="12.6875512"><ele>1246.0</ele><time>2026-04-12T08:11:03.997Z</time></trkpt><trkpt lat="46.5664956" lon="12.6875654"><ele>1246.0</ele><time>2026-04-12T08:11:04.998Z</time></trkpt><trkpt lat="46.5664018" lon="12.6875714"><ele>1246.0</ele><time>2026-04-12T08:11:05.997Z</time></trkpt><trkpt lat="46.5663094" lon="12.6875383"><ele>1246.0</ele><time>2026-04-12T08:11:06.997Z</time></trkpt><trkpt lat="46.5662267" lon="12.6874696"><ele>1246.0</ele><time>2026-04-12T08:11:07.996Z</time></trkpt><trkpt lat="46.5661735" lon="12.687358"><ele>1246.0</ele><time>2026-04-12T08:11:08.997Z</time></trkpt><trkpt lat="46.5661485" lon="12.6872252"><ele>1245.6</ele><time>2026-04-12T08:11:09.996Z</time></trkpt><trkpt lat="46.5661321" lon="12.6870791"><ele>1245.1999999999998</ele><time>2026-04-12T08:11:10.997Z</time></trkpt><trkpt lat="46.5661185" lon="12.6869374"><ele>1244.8000000000002</ele><time>2026-04-12T08:11:11.996Z</time></trkpt><trkpt lat="46.5661062" lon="12.6867792"><ele>1244.4</ele><time>2026-04-12T08:11:12.997Z</time></trkpt><trkpt lat="46.5660954" lon="12.6866181"><ele>1244.0</ele><time>2026-04-12T08:11:13.998Z</time></trkpt><trkpt lat="46.5660848" lon="12.6864497"><ele>1245.0</ele><time>2026-04-12T08:11:14.997Z</time></trkpt><trkpt lat="46.5660751" lon="12.6862826"><ele>1246.0</ele><time>2026-04-12T08:11:15.998Z</time></trkpt><trkpt lat="46.5660634" lon="12.6861166"><ele>1247.0</ele><time>2026-04-12T08:11:16.996Z</time></trkpt><trkpt lat="46.5660542" lon="12.6859465"><ele>1248.0</ele><time>2026-04-12T08:11:17.996Z</time></trkpt><trkpt lat="46.5660414" lon="12.6857816"><ele>1248.0</ele><time>2026-04-12T08:11:18.996Z</time></trkpt><trkpt lat="46.5660306" lon="12.6856208"><ele>1248.0</ele><time>2026-04-12T08:11:19.997Z</time></trkpt><trkpt lat="46.5660178" lon="12.6854586"><ele>1248.0</ele><time>2026-04-12T08:11:20.997Z</time></trkpt><trkpt lat="46.5660066" lon="12.6852948"><ele>1248.0</ele><time>2026-04-12T08:11:21.997Z</time></trkpt><trkpt lat="46.5659937" lon="12.6851318"><ele>1248.0</ele><time>2026-04-12T08:11:22.998Z</time></trkpt><trkpt lat="46.5659768" lon="12.684965"><ele>1246.8</ele><time>2026-04-12T08:11:23.997Z</time></trkpt><trkpt lat="46.5659623" lon="12.6847997"><ele>1245.6</ele><time>2026-04-12T08:11:24.996Z</time></trkpt><trkpt lat="46.5659516" lon="12.6846425"><ele>1244.4</ele><time>2026-04-12T08:11:25.997Z</time></trkpt><trkpt lat="46.5659399" lon="12.684479"><ele>1243.2</ele><time>2026-04-12T08:11:26.997Z</time></trkpt><trkpt lat="46.5659325" lon="12.6843207"><ele>1242.0</ele><time>2026-04-12T08:11:27.997Z</time></trkpt><trkpt lat="46.5659192" lon="12.6841544"><ele>1241.2</ele><time>2026-04-12T08:11:28.997Z</time></trkpt><trkpt lat="46.5659054" lon="12.6839969"><ele>1240.4</ele><time>2026-04-12T08:11:29.998Z</time></trkpt><trkpt lat="46.5658911" lon="12.6838423"><ele>1239.6</ele><time>2026-04-12T08:11:30.996Z</time></trkpt><trkpt lat="46.5658808" lon="12.6836819"><ele>1238.8</ele><time>2026-04-12T08:11:31.997Z</time></trkpt><trkpt lat="46.5658675" lon="12.6835252"><ele>1238.0</ele><time>2026-04-12T08:11:32.996Z</time></trkpt><trkpt lat="46.5658551" lon="12.6833612"><ele>1237.5</ele><time>2026-04-12T08:11:33.998Z</time></trkpt><trkpt lat="46.5658442" lon="12.6831995"><ele>1237.0</ele><time>2026-04-12T08:11:34.997Z</time></trkpt><trkpt lat="46.5658325" lon="12.6830366"><ele>1236.5</ele><time>2026-04-12T08:11:35.997Z</time></trkpt><trkpt lat="46.5658186" lon="12.6828707"><ele>1236.0</ele><time>2026-04-12T08:11:36.996Z</time></trkpt><trkpt lat="46.5658084" lon="12.6827001"><ele>1235.25</ele><time>2026-04-12T08:11:37.998Z</time></trkpt><trkpt lat="46.5657934" lon="12.6825372"><ele>1234.5</ele><time>2026-04-12T08:11:38.996Z</time></trkpt><trkpt lat="46.5657794" lon="12.6823689"><ele>1233.75</ele><time>2026-04-12T08:11:39.997Z</time></trkpt><trkpt lat="46.5657639" lon="12.682198"><ele>1233.0</ele><time>2026-04-12T08:11:40.997Z</time></trkpt><trkpt lat="46.5657473" lon="12.6820284"><ele>1231.75</ele><time>2026-04-12T08:11:41.997Z</time></trkpt><trkpt lat="46.5657273" lon="12.6818562"><ele>1230.5</ele><time>2026-04-12T08:11:42.997Z</time></trkpt><trkpt lat="46.5657185" lon="12.6816973"><ele>1229.25</ele><time>2026-04-12T08:11:43.996Z</time></trkpt><trkpt lat="46.565706" lon="12.6815302"><ele>1228.0</ele><time>2026-04-12T08:11:44.998Z</time></trkpt><trkpt lat="46.5656945" lon="12.6813724"><ele>1228.0</ele><time>2026-04-12T08:11:45.996Z</time></trkpt><trkpt lat="46.5656816" lon="12.6812087"><ele>1228.0</ele><time>2026-04-12T08:11:46.997Z</time></trkpt><trkpt lat="46.5656673" lon="12.6810472"><ele>1228.0</ele><time>2026-04-12T08:11:47.997Z</time></trkpt><trkpt lat="46.5656544" lon="12.6808921"><ele>1228.0</ele><time>2026-04-12T08:11:48.996Z</time></trkpt><trkpt lat="46.5656414" lon="12.6807344"><ele>1228.0</ele><time>2026-04-12T08:11:49.996Z</time></trkpt><trkpt lat="46.565632" lon="12.6805747"><ele>1227.6</ele><time>2026-04-12T08:11:50.996Z</time></trkpt><trkpt lat="46.5656267" lon="12.6804153"><ele>1227.1999999999998</ele><time>2026-04-12T08:11:51.998Z</time></trkpt><trkpt lat="46.5656215" lon="12.6802574"><ele>1226.8</ele><time>2026-04-12T08:11:52.997Z</time></trkpt><trkpt lat="46.5656144" lon="12.6800982"><ele>1226.3999999999999</ele><time>2026-04-12T08:11:53.996Z</time></trkpt><trkpt lat="46.5655956" lon="12.6799454"><ele>1226.0</ele><time>2026-04-12T08:11:54.996Z</time></trkpt><trkpt lat="46.5655609" lon="12.6797906"><ele>1225.0</ele><time>2026-04-12T08:11:55.997Z</time></trkpt><trkpt lat="46.5655197" lon="12.6796347"><ele>1224.0</ele><time>2026-04-12T08:11:56.997Z</time></trkpt><trkpt lat="46.5654713" lon="12.6794857"><ele>1223.0</ele><time>2026-04-12T08:11:57.996Z</time></trkpt><trkpt lat="46.5654223" lon="12.6793397"><ele>1222.0</ele><time>2026-04-12T08:11:58.997Z</time></trkpt><trkpt lat="46.5653719" lon="12.6791952"><ele>1222.0</ele><time>2026-04-12T08:11:59.996Z</time></trkpt><trkpt lat="46.5653188" lon="12.6790501"><ele>1222.0</ele><time>2026-04-12T08:12:00.997Z</time></trkpt><trkpt lat="46.5652722" lon="12.6789049"><ele>1222.0</ele><time>2026-04-12T08:12:01.997Z</time></trkpt><trkpt lat="46.5652314" lon="12.6787608"><ele>1222.0</ele><time>2026-04-12T08:12:02.997Z</time></trkpt><trkpt lat="46.5651884" lon="12.6786305"><ele>1222.0</ele><time>2026-04-12T08:12:03.997Z</time></trkpt><trkpt lat="46.5651431" lon="12.6784878"><ele>1222.0</ele><time>2026-04-12T08:12:04.997Z</time></trkpt><trkpt lat="46.5650973" lon="12.6783455"><ele>1222.0</ele><time>2026-04-12T08:12:05.996Z</time></trkpt><trkpt lat="46.5650601" lon="12.6781962"><ele>1222.0</ele><time>2026-04-12T08:12:06.997Z</time></trkpt><trkpt lat="46.5650248" lon="12.6780456"><ele>1222.0</ele><time>2026-04-12T08:12:07.996Z</time></trkpt><trkpt lat="46.5649958" lon="12.6778889"><ele>1222.0</ele><time>2026-04-12T08:12:08.998Z</time></trkpt><trkpt lat="46.56497" lon="12.677739"><ele>1223.2</ele><time>2026-04-12T08:12:09.996Z</time></trkpt><trkpt lat="46.5649504" lon="12.6775827"><ele>1224.4</ele><time>2026-04-12T08:12:10.997Z</time></trkpt><trkpt lat="46.5649248" lon="12.6774285"><ele>1225.6</ele><time>2026-04-12T08:12:11.996Z</time></trkpt><trkpt lat="46.5649025" lon="12.6772743"><ele>1226.8</ele><time>2026-04-12T08:12:12.997Z</time></trkpt><trkpt lat="46.5648855" lon="12.6771185"><ele>1228.0</ele><time>2026-04-12T08:12:13.996Z</time></trkpt><trkpt lat="46.5648698" lon="12.6769591"><ele>1228.6</ele><time>2026-04-12T08:12:14.997Z</time></trkpt><trkpt lat="46.5648547" lon="12.6768051"><ele>1229.1999999999998</ele><time>2026-04-12T08:12:15.996Z</time></trkpt><trkpt lat="46.5648371" lon="12.6766442"><ele>1229.8</ele><time>2026-04-12T08:12:16.996Z</time></trkpt><trkpt lat="46.5648216" lon="12.6764805"><ele>1230.3999999999999</ele><time>2026-04-12T08:12:17.997Z</time></trkpt><trkpt lat="46.564808" lon="12.6763206"><ele>1231.0</ele><time>2026-04-12T08:12:18.996Z</time></trkpt><trkpt lat="46.5647884" lon="12.6761544"><ele>1231.75</ele><time>2026-04-12T08:12:19.996Z</time></trkpt><trkpt lat="46.5647763" lon="12.6759885"><ele>1232.5</ele><time>2026-04-12T08:12:20.997Z</time></trkpt><trkpt lat="46.5647628" lon="12.6758204"><ele>1233.25</ele><time>2026-04-12T08:12:21.997Z</time></trkpt><trkpt lat="46.5647488" lon="12.6756536"><ele>1234.0</ele><time>2026-04-12T08:12:22.997Z</time></trkpt><trkpt lat="46.5647366" lon="12.6754885"><ele>1234.0</ele><time>2026-04-12T08:12:23.997Z</time></trkpt><trkpt lat="46.5647207" lon="12.6753197"><ele>1234.0</ele><time>2026-04-12T08:12:24.997Z</time></trkpt><trkpt lat="46.5647082" lon="12.6751469"><ele>1234.0</ele><time>2026-04-12T08:12:25.996Z</time></trkpt><trkpt lat="46.5646952" lon="12.6749735"><ele>1234.0</ele><time>2026-04-12T08:12:26.996Z</time></trkpt><trkpt lat="46.5646785" lon="12.6747989"><ele>1234.0</ele><time>2026-04-12T08:12:27.997Z</time></trkpt><trkpt lat="46.5646619" lon="12.6746084"><ele>1234.0</ele><time>2026-04-12T08:12:28.998Z</time></trkpt><trkpt lat="46.5646432" lon="12.6744179"><ele>1234.0</ele><time>2026-04-12T08:12:29.997Z</time></trkpt><trkpt lat="46.5646297" lon="12.6742285"><ele>1234.0</ele><time>2026-04-12T08:12:30.997Z</time></trkpt><trkpt lat="46.5646148" lon="12.6740479"><ele>1233.75</ele><time>2026-04-12T08:12:31.996Z</time></trkpt><trkpt lat="46.5645956" lon="12.6738677"><ele>1233.5</ele><time>2026-04-12T08:12:32.998Z</time></trkpt><trkpt lat="46.5645792" lon="12.6736923"><ele>1233.25</ele><time>2026-04-12T08:12:33.996Z</time></trkpt><trkpt lat="46.5645631" lon="12.6735184"><ele>1233.0</ele><time>2026-04-12T08:12:34.997Z</time></trkpt><trkpt lat="46.5645505" lon="12.6733438"><ele>1233.0</ele><time>2026-04-12T08:12:35.997Z</time></trkpt><trkpt lat="46.5645354" lon="12.6731666"><ele>1233.0</ele><time>2026-04-12T08:12:36.996Z</time></trkpt><trkpt lat="46.5645252" lon="12.6729921"><ele>1233.0</ele><time>2026-04-12T08:12:37.996Z</time></trkpt><trkpt lat="46.5645245" lon="12.6728137"><ele>1233.0</ele><time>2026-04-12T08:12:38.997Z</time></trkpt><trkpt lat="46.5645355" lon="12.6726289"><ele>1233.0</ele><time>2026-04-12T08:12:39.997Z</time></trkpt><trkpt lat="46.5645555" lon="12.6724423"><ele>1233.0</ele><time>2026-04-12T08:12:40.997Z</time></trkpt><trkpt lat="46.564587" lon="12.6722602"><ele>1233.0</ele><time>2026-04-12T08:12:41.996Z</time></trkpt><trkpt lat="46.5646259" lon="12.6720809"><ele>1233.0</ele><time>2026-04-12T08:12:42.997Z</time></trkpt><trkpt lat="46.5646685" lon="12.6718957"><ele>1232.25</ele><time>2026-04-12T08:12:43.996Z</time></trkpt><trkpt lat="46.5647144" lon="12.6717132"><ele>1231.5</ele><time>2026-04-12T08:12:44.996Z</time></trkpt><trkpt lat="46.5647636" lon="12.6715283"><ele>1230.75</ele><time>2026-04-12T08:12:45.997Z</time></trkpt><trkpt lat="46.5648076" lon="12.6713426"><ele>1230.0</ele><time>2026-04-12T08:12:46.996Z</time></trkpt><trkpt lat="46.5648533" lon="12.6711613"><ele>1229.0</ele><time>2026-04-12T08:12:47.997Z</time></trkpt><trkpt lat="46.5649011" lon="12.670977"><ele>1228.0</ele><time>2026-04-12T08:12:48.996Z</time></trkpt><trkpt lat="46.5649497" lon="12.6707915"><ele>1227.0</ele><time>2026-04-12T08:12:49.997Z</time></trkpt><trkpt lat="46.5649931" lon="12.6706081"><ele>1226.0</ele><time>2026-04-12T08:12:50.996Z</time></trkpt><trkpt lat="46.5650375" lon="12.670422"><ele>1225.0</ele><time>2026-04-12T08:12:51.996Z</time></trkpt><trkpt lat="46.5650808" lon="12.6702462"><ele>1224.0</ele><time>2026-04-12T08:12:52.996Z</time></trkpt><trkpt lat="46.5651269" lon="12.6700644"><ele>1223.0</ele><time>2026-04-12T08:12:53.997Z</time></trkpt><trkpt lat="46.5651778" lon="12.6698861"><ele>1222.0</ele><time>2026-04-12T08:12:54.996Z</time></trkpt><trkpt lat="46.5652227" lon="12.6697134"><ele>1222.0</ele><time>2026-04-12T08:12:55.997Z</time></trkpt><trkpt lat="46.5652656" lon="12.6695361"><ele>1222.0</ele><time>2026-04-12T08:12:56.996Z</time></trkpt><trkpt lat="46.5653104" lon="12.6693569"><ele>1222.0</ele><time>2026-04-12T08:12:57.996Z</time></trkpt><trkpt lat="46.5653574" lon="12.6691789"><ele>1222.0</ele><time>2026-04-12T08:12:58.996Z</time></trkpt><trkpt lat="46.5654028" lon="12.6689972"><ele>1223.25</ele><time>2026-04-12T08:12:59.996Z</time></trkpt><trkpt lat="46.5654463" lon="12.6688175"><ele>1224.5</ele><time>2026-04-12T08:13:00.997Z</time></trkpt><trkpt lat="46.5654934" lon="12.6686342"><ele>1225.75</ele><time>2026-04-12T08:13:01.997Z</time></trkpt><trkpt lat="46.5655371" lon="12.6684538"><ele>1227.0</ele><time>2026-04-12T08:13:02.997Z</time></trkpt><trkpt lat="46.5655801" lon="12.6682788"><ele>1227.0</ele><time>2026-04-12T08:13:03.996Z</time></trkpt><trkpt lat="46.5656211" lon="12.6681096"><ele>1227.0</ele><time>2026-04-12T08:13:04.996Z</time></trkpt><trkpt lat="46.5656654" lon="12.6679402"><ele>1227.0</ele><time>2026-04-12T08:13:05.997Z</time></trkpt><trkpt lat="46.5657101" lon="12.6677703"><ele>1227.0</ele><time>2026-04-12T08:13:06.996Z</time></trkpt><trkpt lat="46.5657566" lon="12.6675922"><ele>1226.25</ele><time>2026-04-12T08:13:07.997Z</time></trkpt><trkpt lat="46.5657967" lon="12.6674125"><ele>1225.5</ele><time>2026-04-12T08:13:08.996Z</time></trkpt><trkpt lat="46.5658407" lon="12.6672327"><ele>1224.75</ele><time>2026-04-12T08:13:09.996Z</time></trkpt><trkpt lat="46.5658877" lon="12.6670499"><ele>1224.0</ele><time>2026-04-12T08:13:10.996Z</time></trkpt><trkpt lat="46.5659381" lon="12.6668644"><ele>1223.0</ele><time>2026-04-12T08:13:11.997Z</time></trkpt><trkpt lat="46.5659903" lon="12.6666709"><ele>1222.0</ele><time>2026-04-12T08:13:12.996Z</time></trkpt><trkpt lat="46.5660437" lon="12.6664701"><ele>1221.0</ele><time>2026-04-12T08:13:13.999Z</time></trkpt><trkpt lat="46.5660918" lon="12.6662713"><ele>1220.0</ele><time>2026-04-12T08:13:14.996Z</time></trkpt><trkpt lat="46.5661366" lon="12.6660758"><ele>1221.25</ele><time>2026-04-12T08:13:15.996Z</time></trkpt><trkpt lat="46.5661827" lon="12.6658842"><ele>1222.5</ele><time>2026-04-12T08:13:16.996Z</time></trkpt><trkpt lat="46.5662375" lon="12.6656931"><ele>1223.75</ele><time>2026-04-12T08:13:17.997Z</time></trkpt><trkpt lat="46.5662936" lon="12.6655036"><ele>1225.0</ele><time>2026-04-12T08:13:18.998Z</time></trkpt><trkpt lat="46.566343" lon="12.6653218"><ele>1222.75</ele><time>2026-04-12T08:13:19.996Z</time></trkpt><trkpt lat="46.5663983" lon="12.665136"><ele>1220.5</ele><time>2026-04-12T08:13:20.997Z</time></trkpt><trkpt lat="46.5664644" lon="12.6649376"><ele>1218.25</ele><time>2026-04-12T08:13:21.997Z</time></trkpt><trkpt lat="46.5665322" lon="12.6647475"><ele>1216.0</ele><time>2026-04-12T08:13:22.996Z</time></trkpt><trkpt lat="46.5666015" lon="12.6645689"><ele>1215.5</ele><time>2026-04-12T08:13:23.996Z</time></trkpt><trkpt lat="46.5666749" lon="12.6643933"><ele>1215.0</ele><time>2026-04-12T08:13:24.996Z</time></trkpt><trkpt lat="46.5667392" lon="12.6642317"><ele>1214.5</ele><time>2026-04-12T08:13:25.998Z</time></trkpt><trkpt lat="46.5668001" lon="12.6640795"><ele>1214.0</ele><time>2026-04-12T08:13:26.997Z</time></trkpt><trkpt lat="46.5668571" lon="12.6639369"><ele>1214.0</ele><time>2026-04-12T08:13:27.996Z</time></trkpt><trkpt lat="46.5669108" lon="12.6637855"><ele>1214.0</ele><time>2026-04-12T08:13:28.996Z</time></trkpt><trkpt lat="46.5669481" lon="12.6636282"><ele>1214.0</ele><time>2026-04-12T08:13:29.996Z</time></trkpt><trkpt lat="46.5669469" lon="12.6634463"><ele>1214.0</ele><time>2026-04-12T08:13:30.997Z</time></trkpt><trkpt lat="46.5669186" lon="12.6632479"><ele>1212.75</ele><time>2026-04-12T08:13:31.997Z</time></trkpt><trkpt lat="46.5668729" lon="12.663065"><ele>1211.5</ele><time>2026-04-12T08:13:32.996Z</time></trkpt><trkpt lat="46.5668188" lon="12.6628816"><ele>1210.25</ele><time>2026-04-12T08:13:33.996Z</time></trkpt><trkpt lat="46.5667662" lon="12.6627115"><ele>1209.0</ele><time>2026-04-12T08:13:34.996Z</time></trkpt><trkpt lat="46.5667179" lon="12.6625402"><ele>1208.0</ele><time>2026-04-12T08:13:35.996Z</time></trkpt><trkpt lat="46.5666636" lon="12.6623746"><ele>1207.0</ele><time>2026-04-12T08:13:36.996Z</time></trkpt><trkpt lat="46.5666287" lon="12.6622066"><ele>1206.0</ele><time>2026-04-12T08:13:37.997Z</time></trkpt><trkpt lat="46.5666161" lon="12.6620384"><ele>1205.0</ele><time>2026-04-12T08:13:38.996Z</time></trkpt><trkpt lat="46.566642" lon="12.661872"><ele>1203.5</ele><time>2026-04-12T08:13:39.996Z</time></trkpt><trkpt lat="46.5667008" lon="12.6617112"><ele>1202.0</ele><time>2026-04-12T08:13:40.997Z</time></trkpt><trkpt lat="46.5667913" lon="12.6615676"><ele>1200.5</ele><time>2026-04-12T08:13:41.996Z</time></trkpt><trkpt lat="46.5668933" lon="12.6614416"><ele>1199.0</ele><time>2026-04-12T08:13:42.996Z</time></trkpt><trkpt lat="46.5670088" lon="12.661327"><ele>1201.25</ele><time>2026-04-12T08:13:43.996Z</time></trkpt><trkpt lat="46.5671251" lon="12.661204"><ele>1203.5</ele><time>2026-04-12T08:13:44.996Z</time></trkpt><trkpt lat="46.5672331" lon="12.6610599"><ele>1205.75</ele><time>2026-04-12T08:13:45.998Z</time></trkpt><trkpt lat="46.5673254" lon="12.6608903"><ele>1208.0</ele><time>2026-04-12T08:13:46.996Z</time></trkpt><trkpt lat="46.5674017" lon="12.6606974"><ele>1208.0</ele><time>2026-04-12T08:13:47.996Z</time></trkpt><trkpt lat="46.5674881" lon="12.6605154"><ele>1208.0</ele><time>2026-04-12T08:13:48.997Z</time></trkpt><trkpt lat="46.5675946" lon="12.6603517"><ele>1208.0</ele><time>2026-04-12T08:13:49.996Z</time></trkpt><trkpt lat="46.5677069" lon="12.6602034"><ele>1210.5</ele><time>2026-04-12T08:13:50.996Z</time></trkpt><trkpt lat="46.5678207" lon="12.660062"><ele>1213.0</ele><time>2026-04-12T08:13:51.996Z</time></trkpt><trkpt lat="46.5679329" lon="12.6599235"><ele>1215.5</ele><time>2026-04-12T08:13:52.997Z</time></trkpt><trkpt lat="46.5680401" lon="12.6597876"><ele>1218.0</ele><time>2026-04-12T08:13:53.996Z</time></trkpt><trkpt lat="46.5681472" lon="12.6596538"><ele>1218.0</ele><time>2026-04-12T08:13:54.996Z</time></trkpt><trkpt lat="46.5682498" lon="12.6595203"><ele>1218.0</ele><time>2026-04-12T08:13:55.996Z</time></trkpt><trkpt lat="46.5683522" lon="12.6593876"><ele>1218.0</ele><time>2026-04-12T08:13:56.996Z</time></trkpt><trkpt lat="46.5684453" lon="12.6592478"><ele>1218.0</ele><time>2026-04-12T08:13:57.996Z</time></trkpt><trkpt lat="46.5685254" lon="12.6590898"><ele>1213.0</ele><time>2026-04-12T08:13:58.998Z</time></trkpt><trkpt lat="46.56859" lon="12.6589085"><ele>1208.0</ele><time>2026-04-12T08:13:59.996Z</time></trkpt><trkpt lat="46.5686404" lon="12.6587204"><ele>1203.0</ele><time>2026-04-12T08:14:00.997Z</time></trkpt><trkpt lat="46.5686887" lon="12.6585337"><ele>1198.0</ele><time>2026-04-12T08:14:01.996Z</time></trkpt><trkpt lat="46.5687468" lon="12.65836"><ele>1198.0</ele><time>2026-04-12T08:14:02.996Z</time></trkpt><trkpt lat="46.568821" lon="12.6581913"><ele>1198.0</ele><time>2026-04-12T08:14:03.996Z</time></trkpt><trkpt lat="46.568908" lon="12.6580198"><ele>1198.0</ele><time>2026-04-12T08:14:04.997Z</time></trkpt><trkpt lat="46.569001" lon="12.6578536"><ele>1198.0</ele><time>2026-04-12T08:14:05.997Z</time></trkpt><trkpt lat="46.5690934" lon="12.6576814"><ele>1195.25</ele><time>2026-04-12T08:14:06.997Z</time></trkpt><trkpt lat="46.5691854" lon="12.657512"><ele>1192.5</ele><time>2026-04-12T08:14:07.996Z</time></trkpt><trkpt lat="46.5692713" lon="12.6573514"><ele>1189.75</ele><time>2026-04-12T08:14:08.997Z</time></trkpt><trkpt lat="46.5693605" lon="12.6571976"><ele>1187.0</ele><time>2026-04-12T08:14:09.997Z</time></trkpt><trkpt lat="46.5694493" lon="12.6570443"><ele>1190.5</ele><time>2026-04-12T08:14:10.997Z</time></trkpt><trkpt lat="46.5695362" lon="12.6568938"><ele>1194.0</ele><time>2026-04-12T08:14:11.996Z</time></trkpt><trkpt lat="46.56963" lon="12.6567491"><ele>1197.5</ele><time>2026-04-12T08:14:12.996Z</time></trkpt><trkpt lat="46.5697219" lon="12.6566082"><ele>1201.0</ele><time>2026-04-12T08:14:13.996Z</time></trkpt><trkpt lat="46.5698157" lon="12.6564706"><ele>1201.0</ele><time>2026-04-12T08:14:14.997Z</time></trkpt><trkpt lat="46.569916" lon="12.6563433"><ele>1201.0</ele><time>2026-04-12T08:14:15.996Z</time></trkpt><trkpt lat="46.5700097" lon="12.6562164"><ele>1201.0</ele><time>2026-04-12T08:14:16.996Z</time></trkpt><trkpt lat="46.5701" lon="12.6560944"><ele>1201.0</ele><time>2026-04-12T08:14:17.997Z</time></trkpt><trkpt lat="46.5701818" lon="12.655971"><ele>1200.0</ele><time>2026-04-12T08:14:18.996Z</time></trkpt><trkpt lat="46.5702591" lon="12.6558462"><ele>1199.0</ele><time>2026-04-12T08:14:19.997Z</time></trkpt><trkpt lat="46.5703317" lon="12.6557169"><ele>1198.0</ele><time>2026-04-12T08:14:20.996Z</time></trkpt><trkpt lat="46.5704007" lon="12.6555894"><ele>1197.0</ele><time>2026-04-12T08:14:21.996Z</time></trkpt><trkpt lat="46.5704721" lon="12.6554527"><ele>1197.0</ele><time>2026-04-12T08:14:22.996Z</time></trkpt><trkpt lat="46.5705529" lon="12.6553175"><ele>1197.0</ele><time>2026-04-12T08:14:23.996Z</time></trkpt><trkpt lat="46.5706447" lon="12.6551905"><ele>1197.0</ele><time>2026-04-12T08:14:24.996Z</time></trkpt><trkpt lat="46.5707444" lon="12.6550758"><ele>1197.0</ele><time>2026-04-12T08:14:25.997Z</time></trkpt><trkpt lat="46.5708531" lon="12.6549724"><ele>1197.75</ele><time>2026-04-12T08:14:26.996Z</time></trkpt><trkpt lat="46.5709659" lon="12.6548809"><ele>1198.5</ele><time>2026-04-12T08:14:27.996Z</time></trkpt><trkpt lat="46.571081" lon="12.6547973"><ele>1199.25</ele><time>2026-04-12T08:14:28.997Z</time></trkpt><trkpt lat="46.5711872" lon="12.6546981"><ele>1200.0</ele><time>2026-04-12T08:14:29.998Z</time></trkpt><trkpt lat="46.571277" lon="12.654579"><ele>1194.75</ele><time>2026-04-12T08:14:30.996Z</time></trkpt><trkpt lat="46.5713453" lon="12.6544252"><ele>1189.5</ele><time>2026-04-12T08:14:31.997Z</time></trkpt><trkpt lat="46.5713987" lon="12.6542469"><ele>1184.25</ele><time>2026-04-12T08:14:32.997Z</time></trkpt><trkpt lat="46.5714389" lon="12.654064"><ele>1179.0</ele><time>2026-04-12T08:14:33.996Z</time></trkpt><trkpt lat="46.5714794" lon="12.6538876"><ele>1179.0</ele><time>2026-04-12T08:14:34.996Z</time></trkpt><trkpt lat="46.5715267" lon="12.6537105"><ele>1179.0</ele><time>2026-04-12T08:14:35.998Z</time></trkpt><trkpt lat="46.5715847" lon="12.6535452"><ele>1179.0</ele><time>2026-04-12T08:14:36.996Z</time></trkpt><trkpt lat="46.5716428" lon="12.6533799"><ele>1179.0</ele><time>2026-04-12T08:14:37.996Z</time></trkpt><trkpt lat="46.5716911" lon="12.6532099"><ele>1175.5</ele><time>2026-04-12T08:14:38.996Z</time></trkpt><trkpt lat="46.5717237" lon="12.6530155"><ele>1172.0</ele><time>2026-04-12T08:14:39.996Z</time></trkpt><trkpt lat="46.5717391" lon="12.6528135"><ele>1168.5</ele><time>2026-04-12T08:14:40.996Z</time></trkpt><trkpt lat="46.5717317" lon="12.6526117"><ele>1165.0</ele><time>2026-04-12T08:14:41.996Z</time></trkpt><trkpt lat="46.5717162" lon="12.6524143"><ele>1164.0</ele><time>2026-04-12T08:14:42.996Z</time></trkpt><trkpt lat="46.5717026" lon="12.6522123"><ele>1163.0</ele><time>2026-04-12T08:14:43.997Z</time></trkpt><trkpt lat="46.5717025" lon="12.6520144"><ele>1162.0</ele><time>2026-04-12T08:14:44.997Z</time></trkpt><trkpt lat="46.5717242" lon="12.6518197"><ele>1161.0</ele><time>2026-04-12T08:14:45.997Z</time></trkpt><trkpt lat="46.5717684" lon="12.6516336"><ele>1161.75</ele><time>2026-04-12T08:14:46.997Z</time></trkpt><trkpt lat="46.5718288" lon="12.6514588"><ele>1162.5</ele><time>2026-04-12T08:14:47.997Z</time></trkpt><trkpt lat="46.571899" lon="12.6512887"><ele>1163.25</ele><time>2026-04-12T08:14:48.997Z</time></trkpt><trkpt lat="46.5719677" lon="12.6511184"><ele>1164.0</ele><time>2026-04-12T08:14:49.998Z</time></trkpt><trkpt lat="46.572034" lon="12.6509483"><ele>1164.0</ele><time>2026-04-12T08:14:50.996Z</time></trkpt><trkpt lat="46.5721037" lon="12.6507815"><ele>1164.0</ele><time>2026-04-12T08:14:51.996Z</time></trkpt><trkpt lat="46.5721804" lon="12.6506192"><ele>1164.0</ele><time>2026-04-12T08:14:52.996Z</time></trkpt><trkpt lat="46.5722705" lon="12.6504758"><ele>1164.0</ele><time>2026-04-12T08:14:53.996Z</time></trkpt><trkpt lat="46.5723691" lon="12.6503443"><ele>1157.0</ele><time>2026-04-12T08:14:54.996Z</time></trkpt><trkpt lat="46.5724823" lon="12.6502293"><ele>1150.0</ele><time>2026-04-12T08:14:55.997Z</time></trkpt><trkpt lat="46.5725953" lon="12.6501118"><ele>1143.0</ele><time>2026-04-12T08:14:56.997Z</time></trkpt><trkpt lat="46.5727118" lon="12.6499906"><ele>1136.0</ele><time>2026-04-12T08:14:57.997Z</time></trkpt><trkpt lat="46.5728252" lon="12.6498644"><ele>1140.75</ele><time>2026-04-12T08:14:58.996Z</time></trkpt><trkpt lat="46.5729451" lon="12.6497626"><ele>1145.5</ele><time>2026-04-12T08:14:59.996Z</time></trkpt><trkpt lat="46.5730709" lon="12.6496832"><ele>1150.25</ele><time>2026-04-12T08:15:00.997Z</time></trkpt><trkpt lat="46.5732006" lon="12.6496136"><ele>1155.0</ele><time>2026-04-12T08:15:01.996Z</time></trkpt><trkpt lat="46.5733266" lon="12.6495237"><ele>1152.0</ele><time>2026-04-12T08:15:02.996Z</time></trkpt><trkpt lat="46.5734525" lon="12.6494029"><ele>1149.0</ele><time>2026-04-12T08:15:03.997Z</time></trkpt><trkpt lat="46.5735594" lon="12.6492572"><ele>1146.0</ele><time>2026-04-12T08:15:04.996Z</time></trkpt><trkpt lat="46.5736573" lon="12.6491066"><ele>1143.0</ele><time>2026-04-12T08:15:05.997Z</time></trkpt><trkpt lat="46.5737659" lon="12.6489737"><ele>1143.0</ele><time>2026-04-12T08:15:06.996Z</time></trkpt><trkpt lat="46.5738852" lon="12.6488654"><ele>1143.0</ele><time>2026-04-12T08:15:07.997Z</time></trkpt><trkpt lat="46.5740132" lon="12.6487875"><ele>1143.0</ele><time>2026-04-12T08:15:08.996Z</time></trkpt><trkpt lat="46.574146" lon="12.6487"><ele>1143.0</ele><time>2026-04-12T08:15:09.996Z</time></trkpt><trkpt lat="46.5742715" lon="12.6485968"><ele>1142.5</ele><time>2026-04-12T08:15:10.996Z</time></trkpt><trkpt lat="46.5743963" lon="12.6484985"><ele>1142.0</ele><time>2026-04-12T08:15:11.996Z</time></trkpt><trkpt lat="46.5745008" lon="12.6483986"><ele>1141.5</ele><time>2026-04-12T08:15:12.996Z</time></trkpt><trkpt lat="46.5746014" lon="12.6482782"><ele>1141.0</ele><time>2026-04-12T08:15:13.996Z</time></trkpt><trkpt lat="46.5746887" lon="12.6481305"><ele>1141.0</ele><time>2026-04-12T08:15:14.996Z</time></trkpt><trkpt lat="46.5747789" lon="12.6479785"><ele>1141.0</ele><time>2026-04-12T08:15:15.996Z</time></trkpt><trkpt lat="46.5748931" lon="12.6478373"><ele>1141.0</ele><time>2026-04-12T08:15:16.997Z</time></trkpt><trkpt lat="46.5750077" lon="12.6477013"><ele>1141.0</ele><time>2026-04-12T08:15:17.996Z</time></trkpt><trkpt lat="46.5751205" lon="12.6475647"><ele>1141.75</ele><time>2026-04-12T08:15:18.997Z</time></trkpt><trkpt lat="46.5752389" lon="12.6474505"><ele>1142.5</ele><time>2026-04-12T08:15:19.996Z</time></trkpt><trkpt lat="46.5753567" lon="12.6473392"><ele>1143.25</ele><time>2026-04-12T08:15:20.996Z</time></trkpt><trkpt lat="46.5754676" lon="12.6472241"><ele>1144.0</ele><time>2026-04-12T08:15:21.997Z</time></trkpt><trkpt lat="46.575574" lon="12.6471059"><ele>1144.0</ele><time>2026-04-12T08:15:22.996Z</time></trkpt><trkpt lat="46.5756844" lon="12.6469858"><ele>1144.0</ele><time>2026-04-12T08:15:23.997Z</time></trkpt><trkpt lat="46.5758028" lon="12.6468699"><ele>1144.0</ele><time>2026-04-12T08:15:24.996Z</time></trkpt><trkpt lat="46.5759291" lon="12.6467655"><ele>1144.0</ele><time>2026-04-12T08:15:25.998Z</time></trkpt><trkpt lat="46.576055" lon="12.64667"><ele>1144.75</ele><time>2026-04-12T08:15:26.996Z</time></trkpt><trkpt lat="46.5761819" lon="12.6465688"><ele>1145.5</ele><time>2026-04-12T08:15:27.996Z</time></trkpt><trkpt lat="46.5762897" lon="12.646438"><ele>1146.25</ele><time>2026-04-12T08:15:28.996Z</time></trkpt><trkpt lat="46.5764015" lon="12.6463064"><ele>1147.0</ele><time>2026-04-12T08:15:29.996Z</time></trkpt><trkpt lat="46.5765108" lon="12.6461689"><ele>1127.6666666666665</ele><time>2026-04-12T08:15:30.996Z</time></trkpt><trkpt lat="46.5765925" lon="12.6459898"><ele>1108.3333333333333</ele><time>2026-04-12T08:15:31.997Z</time></trkpt><trkpt lat="46.5766805" lon="12.6457941"><ele>1089.0</ele><time>2026-04-12T08:15:32.996Z</time></trkpt><trkpt lat="46.5767496" lon="12.6455816"><ele>1089.0</ele><time>2026-04-12T08:15:33.996Z</time></trkpt><trkpt lat="46.576817" lon="12.6453708"><ele>1089.0</ele><time>2026-04-12T08:15:34.996Z</time></trkpt><trkpt lat="46.5768955" lon="12.6451731"><ele>1089.0</ele><time>2026-04-12T08:15:35.996Z</time></trkpt><trkpt lat="46.5769724" lon="12.6449949"><ele>1089.5</ele><time>2026-04-12T08:15:36.997Z</time></trkpt><trkpt lat="46.5770473" lon="12.6448094"><ele>1090.0</ele><time>2026-04-12T08:15:37.996Z</time></trkpt><trkpt lat="46.5771148" lon="12.6446336"><ele>1090.5</ele><time>2026-04-12T08:15:38.996Z</time></trkpt><trkpt lat="46.5771795" lon="12.6444621"><ele>1091.0</ele><time>2026-04-12T08:15:39.996Z</time></trkpt><trkpt lat="46.5772408" lon="12.644294"><ele>1091.0</ele><time>2026-04-12T08:15:40.996Z</time></trkpt><trkpt lat="46.5772504" lon="12.6440932"><ele>1091.0</ele><time>2026-04-12T08:15:41.996Z</time></trkpt><trkpt lat="46.5772821" lon="12.643911"><ele>1091.0</ele><time>2026-04-12T08:15:42.996Z</time></trkpt><trkpt lat="46.577336" lon="12.643725"><ele>1091.0</ele><time>2026-04-12T08:15:43.997Z</time></trkpt><trkpt lat="46.5773966" lon="12.6435357"><ele>1089.25</ele><time>2026-04-12T08:15:44.997Z</time></trkpt><trkpt lat="46.5774596" lon="12.6433488"><ele>1087.5</ele><time>2026-04-12T08:15:45.997Z</time></trkpt><trkpt lat="46.577518" lon="12.6431683"><ele>1085.75</ele><time>2026-04-12T08:15:46.996Z</time></trkpt><trkpt lat="46.57756" lon="12.6429865"><ele>1084.0</ele><time>2026-04-12T08:15:47.996Z</time></trkpt><trkpt lat="46.5775723" lon="12.6427946"><ele>1081.0</ele><time>2026-04-12T08:15:48.997Z</time></trkpt><trkpt lat="46.5775672" lon="12.6425929"><ele>1078.0</ele><time>2026-04-12T08:15:49.996Z</time></trkpt><trkpt lat="46.577553" lon="12.6424022"><ele>1075.0</ele><time>2026-04-12T08:15:50.996Z</time></trkpt><trkpt lat="46.5775375" lon="12.6422239"><ele>1072.0</ele><time>2026-04-12T08:15:51.996Z</time></trkpt><trkpt lat="46.5775251" lon="12.6420453"><ele>1069.5</ele><time>2026-04-12T08:15:52.996Z</time></trkpt><trkpt lat="46.57753" lon="12.6418707"><ele>1067.0</ele><time>2026-04-12T08:15:53.996Z</time></trkpt><trkpt lat="46.5775579" lon="12.6416928"><ele>1064.5</ele><time>2026-04-12T08:15:54.996Z</time></trkpt><trkpt lat="46.5776019" lon="12.6415194"><ele>1062.0</ele><time>2026-04-12T08:15:55.996Z</time></trkpt><trkpt lat="46.577652" lon="12.6413537"><ele>1062.0</ele><time>2026-04-12T08:15:56.996Z</time></trkpt><trkpt lat="46.577703" lon="12.6411937"><ele>1062.0</ele><time>2026-04-12T08:15:57.997Z</time></trkpt><trkpt lat="46.5777548" lon="12.6410359"><ele>1062.0</ele><time>2026-04-12T08:15:58.996Z</time></trkpt><trkpt lat="46.5778077" lon="12.6408802"><ele>1062.0</ele><time>2026-04-12T08:15:59.996Z</time></trkpt><trkpt lat="46.5778625" lon="12.6407244"><ele>1062.0</ele><time>2026-04-12T08:16:00.996Z</time></trkpt><trkpt lat="46.5779297" lon="12.6405816"><ele>1062.0</ele><time>2026-04-12T08:16:01.996Z</time></trkpt><trkpt lat="46.5780165" lon="12.6404438"><ele>1062.0</ele><time>2026-04-12T08:16:02.996Z</time></trkpt><trkpt lat="46.5781111" lon="12.6403143"><ele>1062.0</ele><time>2026-04-12T08:16:03.996Z</time></trkpt><trkpt lat="46.5782081" lon="12.6402057"><ele>1062.0</ele><time>2026-04-12T08:16:04.996Z</time></trkpt><trkpt lat="46.5782989" lon="12.6400998"><ele>1062.0</ele><time>2026-04-12T08:16:05.997Z</time></trkpt><trkpt lat="46.5783921" lon="12.6399927"><ele>1062.0</ele><time>2026-04-12T08:16:06.996Z</time></trkpt><trkpt lat="46.5784848" lon="12.6398903"><ele>1062.0</ele><time>2026-04-12T08:16:07.996Z</time></trkpt><trkpt lat="46.5785706" lon="12.6397786"><ele>1062.0</ele><time>2026-04-12T08:16:08.996Z</time></trkpt><trkpt lat="46.5786518" lon="12.6396581"><ele>1062.0</ele><time>2026-04-12T08:16:09.996Z</time></trkpt><trkpt lat="46.5787349" lon="12.6395354"><ele>1062.0</ele><time>2026-04-12T08:16:10.997Z</time></trkpt><trkpt lat="46.5788104" lon="12.6394075"><ele>1062.0</ele><time>2026-04-12T08:16:11.996Z</time></trkpt><trkpt lat="46.5788826" lon="12.6392551"><ele>1063.75</ele><time>2026-04-12T08:16:12.996Z</time></trkpt><trkpt lat="46.578955" lon="12.639088"><ele>1065.5</ele><time>2026-04-12T08:16:13.996Z</time></trkpt><trkpt lat="46.579014" lon="12.6389124"><ele>1067.25</ele><time>2026-04-12T08:16:14.997Z</time></trkpt><trkpt lat="46.5790668" lon="12.638725"><ele>1069.0</ele><time>2026-04-12T08:16:15.996Z</time></trkpt><trkpt lat="46.579108" lon="12.6385405"><ele>1064.75</ele><time>2026-04-12T08:16:16.997Z</time></trkpt><trkpt lat="46.5791411" lon="12.6383556"><ele>1060.5</ele><time>2026-04-12T08:16:17.996Z</time></trkpt><trkpt lat="46.579163" lon="12.6381629"><ele>1056.25</ele><time>2026-04-12T08:16:18.996Z</time></trkpt><trkpt lat="46.5791773" lon="12.6379687"><ele>1052.0</ele><time>2026-04-12T08:16:19.996Z</time></trkpt><trkpt lat="46.5791825" lon="12.63778"><ele>1052.0</ele><time>2026-04-12T08:16:20.996Z</time></trkpt><trkpt lat="46.5791762" lon="12.6375857"><ele>1052.0</ele><time>2026-04-12T08:16:21.996Z</time></trkpt><trkpt lat="46.5791638" lon="12.6373901"><ele>1052.0</ele><time>2026-04-12T08:16:22.996Z</time></trkpt><trkpt lat="46.5791488" lon="12.6371993"><ele>1052.0</ele><time>2026-04-12T08:16:23.996Z</time></trkpt><trkpt lat="46.5791327" lon="12.6370055"><ele>1052.0</ele><time>2026-04-12T08:16:24.996Z</time></trkpt><trkpt lat="46.5791221" lon="12.6368069"><ele>1052.0</ele><time>2026-04-12T08:16:25.997Z</time></trkpt><trkpt lat="46.5791239" lon="12.6366054"><ele>1052.0</ele><time>2026-04-12T08:16:26.996Z</time></trkpt><trkpt lat="46.5791349" lon="12.6363995"><ele>1052.0</ele><time>2026-04-12T08:16:27.997Z</time></trkpt><trkpt lat="46.5791572" lon="12.6361923"><ele>1050.5</ele><time>2026-04-12T08:16:28.996Z</time></trkpt><trkpt lat="46.5791866" lon="12.6359872"><ele>1049.0</ele><time>2026-04-12T08:16:29.996Z</time></trkpt><trkpt lat="46.57922" lon="12.6357842"><ele>1047.5</ele><time>2026-04-12T08:16:30.996Z</time></trkpt><trkpt lat="46.5792519" lon="12.6355839"><ele>1046.0</ele><time>2026-04-12T08:16:31.996Z</time></trkpt><trkpt lat="46.5792824" lon="12.6353889"><ele>1043.25</ele><time>2026-04-12T08:16:32.996Z</time></trkpt><trkpt lat="46.5793142" lon="12.6351948"><ele>1040.5</ele><time>2026-04-12T08:16:33.997Z</time></trkpt><trkpt lat="46.5793397" lon="12.6349965"><ele>1037.75</ele><time>2026-04-12T08:16:34.995Z</time></trkpt><trkpt lat="46.5793718" lon="12.6348029"><ele>1035.0</ele><time>2026-04-12T08:16:35.996Z</time></trkpt><trkpt lat="46.5794081" lon="12.6346081"><ele>1033.0</ele><time>2026-04-12T08:16:36.996Z</time></trkpt><trkpt lat="46.579455" lon="12.63442"><ele>1031.0</ele><time>2026-04-12T08:16:37.997Z</time></trkpt><trkpt lat="46.5795096" lon="12.6342283"><ele>1029.0</ele><time>2026-04-12T08:16:38.996Z</time></trkpt><trkpt lat="46.5795714" lon="12.6340394"><ele>1027.0</ele><time>2026-04-12T08:16:39.996Z</time></trkpt><trkpt lat="46.5796281" lon="12.6338456"><ele>1032.0</ele><time>2026-04-12T08:16:40.996Z</time></trkpt><trkpt lat="46.5796816" lon="12.6336544"><ele>1037.0</ele><time>2026-04-12T08:16:41.996Z</time></trkpt><trkpt lat="46.5797389" lon="12.6334623"><ele>1042.0</ele><time>2026-04-12T08:16:42.996Z</time></trkpt><trkpt lat="46.5797968" lon="12.6332725"><ele>1047.0</ele><time>2026-04-12T08:16:43.996Z</time></trkpt><trkpt lat="46.5798595" lon="12.633089"><ele>1047.0</ele><time>2026-04-12T08:16:44.996Z</time></trkpt><trkpt lat="46.5799209" lon="12.6329057"><ele>1047.0</ele><time>2026-04-12T08:16:45.995Z</time></trkpt><trkpt lat="46.5799839" lon="12.6327238"><ele>1047.0</ele><time>2026-04-12T08:16:46.997Z</time></trkpt><trkpt lat="46.580047" lon="12.6325461"><ele>1047.0</ele><time>2026-04-12T08:16:47.996Z</time></trkpt><trkpt lat="46.5801094" lon="12.6323626"><ele>1049.75</ele><time>2026-04-12T08:16:48.996Z</time></trkpt><trkpt lat="46.5801769" lon="12.6321813"><ele>1052.5</ele><time>2026-04-12T08:16:49.996Z</time></trkpt><trkpt lat="46.5802394" lon="12.6319936"><ele>1055.25</ele><time>2026-04-12T08:16:50.997Z</time></trkpt><trkpt lat="46.580307" lon="12.6318105"><ele>1058.0</ele><time>2026-04-12T08:16:51.996Z</time></trkpt><trkpt lat="46.5803703" lon="12.6316213"><ele>1058.0</ele><time>2026-04-12T08:16:52.996Z</time></trkpt><trkpt lat="46.5804361" lon="12.6314376"><ele>1058.0</ele><time>2026-04-12T08:16:53.997Z</time></trkpt><trkpt lat="46.5804978" lon="12.6312654"><ele>1058.0</ele><time>2026-04-12T08:16:54.996Z</time></trkpt><trkpt lat="46.5805595" lon="12.6310927"><ele>1058.0</ele><time>2026-04-12T08:16:55.996Z</time></trkpt><trkpt lat="46.5806199" lon="12.6309184"><ele>1053.5</ele><time>2026-04-12T08:16:56.996Z</time></trkpt><trkpt lat="46.5806763" lon="12.630751"><ele>1049.0</ele><time>2026-04-12T08:16:57.996Z</time></trkpt><trkpt lat="46.5807282" lon="12.6305779"><ele>1044.5</ele><time>2026-04-12T08:16:58.996Z</time></trkpt><trkpt lat="46.5807709" lon="12.6303966"><ele>1040.0</ele><time>2026-04-12T08:16:59.997Z</time></trkpt><trkpt lat="46.5807979" lon="12.6302158"><ele>1037.25</ele><time>2026-04-12T08:17:00.997Z</time></trkpt><trkpt lat="46.5808087" lon="12.6300298"><ele>1034.5</ele><time>2026-04-12T08:17:01.996Z</time></trkpt><trkpt lat="46.5808139" lon="12.6298355"><ele>1031.75</ele><time>2026-04-12T08:17:02.996Z</time></trkpt><trkpt lat="46.5808143" lon="12.6296517"><ele>1029.0</ele><time>2026-04-12T08:17:03.996Z</time></trkpt><trkpt lat="46.5808196" lon="12.6294641"><ele>1028.25</ele><time>2026-04-12T08:17:04.997Z</time></trkpt><trkpt lat="46.5808196" lon="12.6292696"><ele>1027.5</ele><time>2026-04-12T08:17:05.997Z</time></trkpt><trkpt lat="46.580822" lon="12.6290781"><ele>1026.75</ele><time>2026-04-12T08:17:06.996Z</time></trkpt><trkpt lat="46.5808242" lon="12.6288854"><ele>1026.0</ele><time>2026-04-12T08:17:07.996Z</time></trkpt><trkpt lat="46.580827" lon="12.6286928"><ele>1013.0</ele><time>2026-04-12T08:17:08.997Z</time></trkpt><trkpt lat="46.5810975" lon="12.6243022"><ele>1013.0</ele><time>2026-04-12T08:17:28.996Z</time></trkpt><trkpt lat="46.5809459" lon="12.6241795"><ele>1013.0</ele><time>2026-04-12T08:17:29.996Z</time></trkpt><trkpt lat="46.5809348" lon="12.6240459"><ele>1013.0</ele><time>2026-04-12T08:17:30.996Z</time></trkpt><trkpt lat="46.5809344" lon="12.6239281"><ele>1013.0</ele><time>2026-04-12T08:17:31.996Z</time></trkpt><trkpt lat="46.5809396" lon="12.6238317"><ele>1013.0</ele><time>2026-04-12T08:17:32.996Z</time></trkpt><trkpt lat="46.580942" lon="12.6236694"><ele>1013.0000000000001</ele><time>2026-04-12T08:17:34.996Z</time></trkpt><trkpt lat="46.5810004" lon="12.623578"><ele>1013.0</ele><time>2026-04-12T08:17:36.996Z</time></trkpt><trkpt lat="46.5811342" lon="12.6235582"><ele>1013.0</ele><time>2026-04-12T08:17:38.996Z</time></trkpt><trkpt lat="46.58121" lon="12.6235651"><ele>1013.0</ele><time>2026-04-12T08:17:39.996Z</time></trkpt><trkpt lat="46.5812793" lon="12.6235628"><ele>1013.0000000000001</ele><time>2026-04-12T08:17:40.996Z</time></trkpt><trkpt lat="46.581345" lon="12.6235606"><ele>1013.0</ele><time>2026-04-12T08:17:41.996Z</time></trkpt><trkpt lat="46.5814084" lon="12.6235607"><ele>1012.6666666666667</ele><time>2026-04-12T08:17:42.996Z</time></trkpt><trkpt lat="46.5814737" lon="12.6235633"><ele>1012.3333333333334</ele><time>2026-04-12T08:17:43.996Z</time></trkpt><trkpt lat="46.5815781" lon="12.6235704"><ele>1012.0</ele><time>2026-04-12T08:17:45.996Z</time></trkpt><trkpt lat="46.5816567" lon="12.6235831"><ele>1011.6666666666667</ele><time>2026-04-12T08:17:47.996Z</time></trkpt><trkpt lat="46.581737" lon="12.6235594"><ele>1011.3333333333334</ele><time>2026-04-12T08:17:49.997Z</time></trkpt><trkpt lat="46.5818163" lon="12.6234649"><ele>1011.0</ele><time>2026-04-12T08:17:51.997Z</time></trkpt><trkpt lat="46.581866" lon="12.6233152"><ele>1011.0</ele><time>2026-04-12T08:17:53.996Z</time></trkpt><trkpt lat="46.5819143" lon="12.6232023"><ele>1010.9999999999999</ele><time>2026-04-12T08:17:55.996Z</time></trkpt><trkpt lat="46.5819934" lon="12.6231653"><ele>1010.9999999999999</ele><time>2026-04-12T08:17:57.997Z</time></trkpt><trkpt lat="46.5820746" lon="12.6232976"><ele>1011.0</ele><time>2026-04-12T08:17:59.996Z</time></trkpt><trkpt lat="46.5820899" lon="12.6234072"><ele>1011.0</ele><time>2026-04-12T08:18:00.996Z</time></trkpt><trkpt lat="46.5820964" lon="12.6235713"><ele>1018.1999999999999</ele><time>2026-04-12T08:18:01.997Z</time></trkpt><trkpt lat="46.5821047" lon="12.623728"><ele>1025.3999999999999</ele><time>2026-04-12T08:18:02.996Z</time></trkpt><trkpt lat="46.5821208" lon="12.6238968"><ele>1032.6</ele><time>2026-04-12T08:18:03.996Z</time></trkpt><trkpt lat="46.5821426" lon="12.6240584"><ele>1039.8</ele><time>2026-04-12T08:18:04.996Z</time></trkpt><trkpt lat="46.5821617" lon="12.6242145"><ele>1047.0</ele><time>2026-04-12T08:18:05.996Z</time></trkpt><trkpt lat="46.5821853" lon="12.6243736"><ele>1046.0</ele><time>2026-04-12T08:18:06.996Z</time></trkpt><trkpt lat="46.5822073" lon="12.6245341"><ele>1045.0</ele><time>2026-04-12T08:18:07.997Z</time></trkpt><trkpt lat="46.5822253" lon="12.6246981"><ele>1044.0</ele><time>2026-04-12T08:18:08.997Z</time></trkpt><trkpt lat="46.582249" lon="12.6248674"><ele>1043.0</ele><time>2026-04-12T08:18:09.996Z</time></trkpt><trkpt lat="46.5822717" lon="12.6250439"><ele>1043.0</ele><time>2026-04-12T08:18:10.996Z</time></trkpt><trkpt lat="46.5822904" lon="12.625195"><ele>1043.0</ele><time>2026-04-12T08:18:11.996Z</time></trkpt><trkpt lat="46.5823103" lon="12.6253396"><ele>1043.0</ele><time>2026-04-12T08:18:12.996Z</time></trkpt><trkpt lat="46.5823247" lon="12.6254745"><ele>1043.0</ele><time>2026-04-12T08:18:13.996Z</time></trkpt><trkpt lat="46.5823403" lon="12.6255833"><ele>1043.0</ele><time>2026-04-12T08:18:14.996Z</time></trkpt><trkpt lat="46.5823571" lon="12.6256735"><ele>1043.0</ele><time>2026-04-12T08:18:15.996Z</time></trkpt><trkpt lat="46.5824312" lon="12.6257653"><ele>1043.0</ele><time>2026-04-12T08:18:17.996Z</time></trkpt><trkpt lat="46.582507" lon="12.6256877"><ele>1043.0</ele><time>2026-04-12T08:18:19.996Z</time></trkpt><trkpt lat="46.5825096" lon="12.6254739"><ele>1043.0</ele><time>2026-04-12T08:18:21.996Z</time></trkpt><trkpt lat="46.5825011" lon="12.6253154"><ele>1043.0</ele><time>2026-04-12T08:18:22.997Z</time></trkpt><trkpt lat="46.5825081" lon="12.6251544"><ele>1043.0</ele><time>2026-04-12T08:18:23.996Z</time></trkpt><trkpt lat="46.5825198" lon="12.6249828"><ele>1043.0</ele><time>2026-04-12T08:18:24.997Z</time></trkpt><trkpt lat="46.582538" lon="12.6248157"><ele>1043.0</ele><time>2026-04-12T08:18:25.995Z</time></trkpt><trkpt lat="46.5825534" lon="12.6246651"><ele>1043.0</ele><time>2026-04-12T08:18:26.995Z</time></trkpt><trkpt lat="46.5825652" lon="12.6245338"><ele>1043.0</ele><time>2026-04-12T08:18:27.995Z</time></trkpt><trkpt lat="46.5825792" lon="12.6244184"><ele>1043.6666666666667</ele><time>2026-04-12T08:18:28.996Z</time></trkpt><trkpt lat="46.5825908" lon="12.6243078"><ele>1044.3333333333335</ele><time>2026-04-12T08:18:29.996Z</time></trkpt><trkpt lat="46.5826039" lon="12.6242136"><ele>1045.0</ele><time>2026-04-12T08:18:30.996Z</time></trkpt><trkpt lat="46.5826247" lon="12.6241256"><ele>1045.6666666666667</ele><time>2026-04-12T08:18:31.996Z</time></trkpt><trkpt lat="46.5827214" lon="12.6240466"><ele>1046.3333333333333</ele><time>2026-04-12T08:18:33.996Z</time></trkpt><trkpt lat="46.5828006" lon="12.6241547"><ele>1047.0</ele><time>2026-04-12T08:18:35.996Z</time></trkpt><trkpt lat="46.5828034" lon="12.6242639"><ele>1047.0</ele><time>2026-04-12T08:18:36.996Z</time></trkpt><trkpt lat="46.582796" lon="12.6243945"><ele>1047.0</ele><time>2026-04-12T08:18:37.996Z</time></trkpt><trkpt lat="46.582789" lon="12.62453"><ele>1047.0</ele><time>2026-04-12T08:18:38.995Z</time></trkpt><trkpt lat="46.5827918" lon="12.6246702"><ele>1047.0</ele><time>2026-04-12T08:18:39.996Z</time></trkpt><trkpt lat="46.5828069" lon="12.6248105"><ele>1047.0</ele><time>2026-04-12T08:18:40.995Z</time></trkpt><trkpt lat="46.5828349" lon="12.6249475"><ele>1051.75</ele><time>2026-04-12T08:18:41.995Z</time></trkpt><trkpt lat="46.5828791" lon="12.6250873"><ele>1056.5</ele><time>2026-04-12T08:18:42.997Z</time></trkpt><trkpt lat="46.582944" lon="12.6252444"><ele>1061.25</ele><time>2026-04-12T08:18:43.997Z</time></trkpt><trkpt lat="46.5830142" lon="12.625392"><ele>1066.0</ele><time>2026-04-12T08:18:44.996Z</time></trkpt><trkpt lat="46.583083" lon="12.6255298"><ele>1066.0</ele><time>2026-04-12T08:18:45.996Z</time></trkpt><trkpt lat="46.5831452" lon="12.6256516"><ele>1066.0</ele><time>2026-04-12T08:18:46.995Z</time></trkpt><trkpt lat="46.5832017" lon="12.6257701"><ele>1066.0</ele><time>2026-04-12T08:18:47.997Z</time></trkpt><trkpt lat="46.5832522" lon="12.6258794"><ele>1066.0</ele><time>2026-04-12T08:18:48.995Z</time></trkpt><trkpt lat="46.5832991" lon="12.6259768"><ele>1066.0</ele><time>2026-04-12T08:18:49.996Z</time></trkpt><trkpt lat="46.5833534" lon="12.6260695"><ele>1063.3999999999999</ele><time>2026-04-12T08:18:50.996Z</time></trkpt><trkpt lat="46.5834348" lon="12.626169"><ele>1060.8</ele><time>2026-04-12T08:18:51.996Z</time></trkpt><trkpt lat="46.5835188" lon="12.6262516"><ele>1058.1999999999998</ele><time>2026-04-12T08:18:52.995Z</time></trkpt><trkpt lat="46.5835996" lon="12.6263296"><ele>1055.6</ele><time>2026-04-12T08:18:53.996Z</time></trkpt><trkpt lat="46.5836742" lon="12.6263998"><ele>1053.0</ele><time>2026-04-12T08:18:54.996Z</time></trkpt><trkpt lat="46.5837525" lon="12.6264689"><ele>1053.0</ele><time>2026-04-12T08:18:55.995Z</time></trkpt><trkpt lat="46.5838374" lon="12.6265336"><ele>1053.0</ele><time>2026-04-12T08:18:56.995Z</time></trkpt><trkpt lat="46.5839311" lon="12.6265875"><ele>1053.0</ele><time>2026-04-12T08:18:57.996Z</time></trkpt><trkpt lat="46.5840337" lon="12.6266184"><ele>1053.0</ele><time>2026-04-12T08:18:58.996Z</time></trkpt><trkpt lat="46.5841392" lon="12.6266359"><ele>1053.0</ele><time>2026-04-12T08:18:59.996Z</time></trkpt><trkpt lat="46.5842459" lon="12.6266518"><ele>1053.0</ele><time>2026-04-12T08:19:00.996Z</time></trkpt><trkpt lat="46.5843536" lon="12.6266704"><ele>1053.0</ele><time>2026-04-12T08:19:01.995Z</time></trkpt><trkpt lat="46.5844626" lon="12.6266974"><ele>1053.0</ele><time>2026-04-12T08:19:02.997Z</time></trkpt><trkpt lat="46.5845682" lon="12.6267382"><ele>1053.0</ele><time>2026-04-12T08:19:03.996Z</time></trkpt><trkpt lat="46.5846702" lon="12.626796"><ele>1053.0</ele><time>2026-04-12T08:19:04.997Z</time></trkpt><trkpt lat="46.5847719" lon="12.6268515"><ele>1056.8</ele><time>2026-04-12T08:19:05.996Z</time></trkpt><trkpt lat="46.5848739" lon="12.6269016"><ele>1060.6</ele><time>2026-04-12T08:19:06.997Z</time></trkpt><trkpt lat="46.5849756" lon="12.6269369"><ele>1064.4</ele><time>2026-04-12T08:19:07.996Z</time></trkpt><trkpt lat="46.5850728" lon="12.6269708"><ele>1068.2</ele><time>2026-04-12T08:19:08.996Z</time></trkpt><trkpt lat="46.5851735" lon="12.626965"><ele>1072.0</ele><time>2026-04-12T08:19:09.996Z</time></trkpt><trkpt lat="46.5852817" lon="12.6269455"><ele>1069.6</ele><time>2026-04-12T08:19:10.997Z</time></trkpt><trkpt lat="46.5853862" lon="12.626923"><ele>1067.2</ele><time>2026-04-12T08:19:11.996Z</time></trkpt><trkpt lat="46.5854883" lon="12.6269007"><ele>1064.8</ele><time>2026-04-12T08:19:12.996Z</time></trkpt><trkpt lat="46.5855914" lon="12.6268563"><ele>1062.4</ele><time>2026-04-12T08:19:13.996Z</time></trkpt><trkpt lat="46.5856911" lon="12.6268387"><ele>1060.0</ele><time>2026-04-12T08:19:14.995Z</time></trkpt><trkpt lat="46.5857967" lon="12.6268142"><ele>1060.0</ele><time>2026-04-12T08:19:15.995Z</time></trkpt><trkpt lat="46.5859093" lon="12.6268223"><ele>1060.0</ele><time>2026-04-12T08:19:16.997Z</time></trkpt><trkpt lat="46.5860198" lon="12.6268705"><ele>1060.0</ele><time>2026-04-12T08:19:17.997Z</time></trkpt><trkpt lat="46.5861345" lon="12.6269398"><ele>1060.0</ele><time>2026-04-12T08:19:18.996Z</time></trkpt><trkpt lat="46.5862388" lon="12.6270173"><ele>1062.2</ele><time>2026-04-12T08:19:19.996Z</time></trkpt><trkpt lat="46.5863298" lon="12.6270917"><ele>1064.4</ele><time>2026-04-12T08:19:20.996Z</time></trkpt><trkpt lat="46.5864183" lon="12.6271652"><ele>1066.6</ele><time>2026-04-12T08:19:21.996Z</time></trkpt><trkpt lat="46.5865117" lon="12.627227"><ele>1068.8</ele><time>2026-04-12T08:19:22.996Z</time></trkpt><trkpt lat="46.586615" lon="12.6272703"><ele>1071.0</ele><time>2026-04-12T08:19:23.995Z</time></trkpt><trkpt lat="46.5867045" lon="12.6273072"><ele>1071.0</ele><time>2026-04-12T08:19:24.996Z</time></trkpt><trkpt lat="46.5867802" lon="12.6273479"><ele>1071.0</ele><time>2026-04-12T08:19:25.996Z</time></trkpt><trkpt lat="46.5868532" lon="12.6273918"><ele>1071.0</ele><time>2026-04-12T08:19:26.996Z</time></trkpt><trkpt lat="46.5869587" lon="12.627443"><ele>1071.0</ele><time>2026-04-12T08:19:28.996Z</time></trkpt><trkpt lat="46.5870775" lon="12.6274463"><ele>1071.0</ele><time>2026-04-12T08:21:17.996Z</time></trkpt><trkpt lat="46.5871486" lon="12.6274623"><ele>1071.0</ele><time>2026-04-12T08:21:18.996Z</time></trkpt><trkpt lat="46.5872457" lon="12.6274677"><ele>1071.0</ele><time>2026-04-12T08:21:19.996Z</time></trkpt><trkpt lat="46.5873538" lon="12.6274709"><ele>1071.0</ele><time>2026-04-12T08:21:20.996Z</time></trkpt><trkpt lat="46.587464" lon="12.6274812"><ele>1071.0</ele><time>2026-04-12T08:21:21.996Z</time></trkpt><trkpt lat="46.5875883" lon="12.6274869"><ele>1071.0</ele><time>2026-04-12T08:21:22.996Z</time></trkpt><trkpt lat="46.5877094" lon="12.6274987"><ele>1071.0</ele><time>2026-04-12T08:21:23.996Z</time></trkpt><trkpt lat="46.5878301" lon="12.6274997"><ele>1071.0</ele><time>2026-04-12T08:21:24.996Z</time></trkpt><trkpt lat="46.5879502" lon="12.6274966"><ele>1071.0</ele><time>2026-04-12T08:21:25.996Z</time></trkpt><trkpt lat="46.5880752" lon="12.6275074"><ele>1071.0</ele><time>2026-04-12T08:21:26.997Z</time></trkpt><trkpt lat="46.5881994" lon="12.6275371"><ele>1071.0</ele><time>2026-04-12T08:21:27.996Z</time></trkpt><trkpt lat="46.5883284" lon="12.6275885"><ele>1071.0</ele><time>2026-04-12T08:21:28.996Z</time></trkpt><trkpt lat="46.5884569" lon="12.6276471"><ele>1071.0</ele><time>2026-04-12T08:21:29.996Z</time></trkpt><trkpt lat="46.5885807" lon="12.6277021"><ele>1071.0</ele><time>2026-04-12T08:21:30.996Z</time></trkpt><trkpt lat="46.5886896" lon="12.6277692"><ele>1071.0</ele><time>2026-04-12T08:21:31.996Z</time></trkpt><trkpt lat="46.5887968" lon="12.6278323"><ele>1071.0</ele><time>2026-04-12T08:21:32.996Z</time></trkpt><trkpt lat="46.5889151" lon="12.627886"><ele>1071.0</ele><time>2026-04-12T08:21:33.996Z</time></trkpt><trkpt lat="46.5890263" lon="12.6279344"><ele>1071.0</ele><time>2026-04-12T08:21:34.997Z</time></trkpt><trkpt lat="46.5891347" lon="12.6279748"><ele>1071.0</ele><time>2026-04-12T08:21:35.996Z</time></trkpt><trkpt lat="46.5892428" lon="12.6280267"><ele>1071.0</ele><time>2026-04-12T08:21:36.996Z</time></trkpt><trkpt lat="46.589344" lon="12.6280884"><ele>1071.0</ele><time>2026-04-12T08:21:37.996Z</time></trkpt><trkpt lat="46.5894467" lon="12.628147"><ele>1071.0</ele><time>2026-04-12T08:21:38.996Z</time></trkpt><trkpt lat="46.5895474" lon="12.6282181"><ele>1071.0</ele><time>2026-04-12T08:21:39.996Z</time></trkpt><trkpt lat="46.5896493" lon="12.6282874"><ele>1071.0</ele><time>2026-04-12T08:21:40.996Z</time></trkpt><trkpt lat="46.589752" lon="12.6283542"><ele>1071.0</ele><time>2026-04-12T08:21:41.997Z</time></trkpt><trkpt lat="46.589857" lon="12.6284116"><ele>1071.0</ele><time>2026-04-12T08:21:42.996Z</time></trkpt><trkpt lat="46.5899596" lon="12.6284654"><ele>1071.0</ele><time>2026-04-12T08:21:43.996Z</time></trkpt><trkpt lat="46.5900616" lon="12.6285044"><ele>1071.0</ele><time>2026-04-12T08:21:44.996Z</time></trkpt><trkpt lat="46.5901563" lon="12.6285442"><ele>1071.0</ele><time>2026-04-12T08:21:45.996Z</time></trkpt><trkpt lat="46.5902546" lon="12.6285878"><ele>1071.0</ele><time>2026-04-12T08:21:46.996Z</time></trkpt><trkpt lat="46.590341" lon="12.6286476"><ele>1071.0</ele><time>2026-04-12T08:21:47.996Z</time></trkpt><trkpt lat="46.5904249" lon="12.6287358"><ele>1071.0</ele><time>2026-04-12T08:21:48.997Z</time></trkpt><trkpt lat="46.5905153" lon="12.6288417"><ele>1071.0</ele><time>2026-04-12T08:21:49.996Z</time></trkpt><trkpt lat="46.5905993" lon="12.6289483"><ele>1071.0</ele><time>2026-04-12T08:21:50.996Z</time></trkpt><trkpt lat="46.590687" lon="12.62908"><ele>1071.0</ele><time>2026-04-12T08:21:51.996Z</time></trkpt><trkpt lat="46.5907751" lon="12.6292185"><ele>1071.0</ele><time>2026-04-12T08:21:52.996Z</time></trkpt><trkpt lat="46.5908537" lon="12.6293397"><ele>1071.0</ele><time>2026-04-12T08:21:53.996Z</time></trkpt><trkpt lat="46.5909329" lon="12.6294489"><ele>1071.0</ele><time>2026-04-12T08:21:54.996Z</time></trkpt><trkpt lat="46.5910163" lon="12.6295495"><ele>1071.0</ele><time>2026-04-12T08:21:55.996Z</time></trkpt><trkpt lat="46.5911216" lon="12.629638"><ele>1071.0</ele><time>2026-04-12T08:21:56.996Z</time></trkpt><trkpt lat="46.5912104" lon="12.6297278"><ele>1071.0</ele><time>2026-04-12T08:21:57.995Z</time></trkpt><trkpt lat="46.5912879" lon="12.6298138"><ele>1071.0</ele><time>2026-04-12T08:21:58.996Z</time></trkpt><trkpt lat="46.5913541" lon="12.629896"><ele>1071.0</ele><time>2026-04-12T08:21:59.996Z</time></trkpt><trkpt lat="46.5914151" lon="12.6299755"><ele>1071.0</ele><time>2026-04-12T08:22:00.996Z</time></trkpt><trkpt lat="46.5914783" lon="12.6300588"><ele>1071.0</ele><time>2026-04-12T08:22:01.996Z</time></trkpt><trkpt lat="46.5915403" lon="12.6301471"><ele>1071.0</ele><time>2026-04-12T08:22:02.996Z</time></trkpt><trkpt lat="46.5916039" lon="12.6302321"><ele>1071.0</ele><time>2026-04-12T08:22:03.995Z</time></trkpt><trkpt lat="46.591667" lon="12.6303183"><ele>1071.0</ele><time>2026-04-12T08:22:04.995Z</time></trkpt><trkpt lat="46.5917302" lon="12.630404"><ele>1071.0</ele><time>2026-04-12T08:22:05.997Z</time></trkpt><trkpt lat="46.5932876" lon="12.631478"><ele>1071.0</ele><time>2026-04-12T08:22:19.996Z</time></trkpt><trkpt lat="46.5933644" lon="12.6313224"><ele>1071.0</ele><time>2026-04-12T08:22:22.997Z</time></trkpt><trkpt lat="46.5934259" lon="12.6312238"><ele>1071.0</ele><time>2026-04-12T08:22:23.996Z</time></trkpt><trkpt lat="46.5934807" lon="12.6311618"><ele>1071.0</ele><time>2026-04-12T08:22:24.996Z</time></trkpt><trkpt lat="46.5935458" lon="12.6311404"><ele>1071.0</ele><time>2026-04-12T08:22:25.997Z</time></trkpt><trkpt lat="46.5936248" lon="12.631148"><ele>1071.0</ele><time>2026-04-12T08:22:26.996Z</time></trkpt><trkpt lat="46.5937158" lon="12.6311814"><ele>1071.0</ele><time>2026-04-12T08:22:27.996Z</time></trkpt><trkpt lat="46.5938213" lon="12.6312122"><ele>1071.0</ele><time>2026-04-12T08:22:28.996Z</time></trkpt><trkpt lat="46.5939336" lon="12.6312467"><ele>1071.0</ele><time>2026-04-12T08:22:29.997Z</time></trkpt><trkpt lat="46.5940511" lon="12.6312752"><ele>1071.0</ele><time>2026-04-12T08:22:30.996Z</time></trkpt><trkpt lat="46.5941558" lon="12.6312904"><ele>1071.0</ele><time>2026-04-12T08:22:31.996Z</time></trkpt><trkpt lat="46.5942443" lon="12.6312897"><ele>1083.3999999999999</ele><time>2026-04-12T08:22:32.996Z</time></trkpt><trkpt lat="46.5943281" lon="12.6312686"><ele>1095.8</ele><time>2026-04-12T08:22:33.996Z</time></trkpt><trkpt lat="46.5944091" lon="12.6312016"><ele>1108.1999999999998</ele><time>2026-04-12T08:22:34.996Z</time></trkpt><trkpt lat="46.5945006" lon="12.6311002"><ele>1120.6</ele><time>2026-04-12T08:22:35.997Z</time></trkpt><trkpt lat="46.5945976" lon="12.6309715"><ele>1133.0</ele><time>2026-04-12T08:22:36.996Z</time></trkpt><trkpt lat="46.594697" lon="12.6308511"><ele>1133.0</ele><time>2026-04-12T08:22:37.997Z</time></trkpt><trkpt lat="46.5947876" lon="12.6307476"><ele>1133.0</ele><time>2026-04-12T08:22:38.997Z</time></trkpt><trkpt lat="46.5948781" lon="12.6306548"><ele>1133.0</ele><time>2026-04-12T08:22:39.996Z</time></trkpt><trkpt lat="46.5949699" lon="12.6305693"><ele>1133.0</ele><time>2026-04-12T08:22:40.997Z</time></trkpt><trkpt lat="46.5950656" lon="12.630488"><ele>1133.0</ele><time>2026-04-12T08:22:41.996Z</time></trkpt><trkpt lat="46.5951503" lon="12.6304123"><ele>1133.0</ele><time>2026-04-12T08:22:42.996Z</time></trkpt><trkpt lat="46.5952229" lon="12.6303595"><ele>1133.0</ele><time>2026-04-12T08:22:43.996Z</time></trkpt><trkpt lat="46.5953008" lon="12.630319"><ele>1133.0</ele><time>2026-04-12T08:22:44.996Z</time></trkpt><trkpt lat="46.5953679" lon="12.6303133"><ele>1133.0</ele><time>2026-04-12T08:22:45.996Z</time></trkpt><trkpt lat="46.5954377" lon="12.6303456"><ele>1133.0</ele><time>2026-04-12T08:22:46.996Z</time></trkpt><trkpt lat="46.5955019" lon="12.6304107"><ele>1133.0</ele><time>2026-04-12T08:22:47.996Z</time></trkpt><trkpt lat="46.5955652" lon="12.6304718"><ele>1134.5</ele><time>2026-04-12T08:22:48.996Z</time></trkpt><trkpt lat="46.595636" lon="12.6305039"><ele>1136.0</ele><time>2026-04-12T08:22:49.997Z</time></trkpt><trkpt lat="46.5957118" lon="12.6305051"><ele>1137.5</ele><time>2026-04-12T08:22:50.996Z</time></trkpt><trkpt lat="46.5957781" lon="12.6304515"><ele>1139.0</ele><time>2026-04-12T08:22:51.996Z</time></trkpt><trkpt lat="46.5958349" lon="12.6303552"><ele>1140.5</ele><time>2026-04-12T08:22:52.996Z</time></trkpt><trkpt lat="46.595888" lon="12.6302358"><ele>1142.0</ele><time>2026-04-12T08:22:53.996Z</time></trkpt><trkpt lat="46.5959324" lon="12.6301217"><ele>1142.0</ele><time>2026-04-12T08:22:54.998Z</time></trkpt><trkpt lat="46.5959859" lon="12.6300247"><ele>1142.0</ele><time>2026-04-12T08:22:55.996Z</time></trkpt><trkpt lat="46.5960478" lon="12.6299295"><ele>1142.0</ele><time>2026-04-12T08:22:56.996Z</time></trkpt><trkpt lat="46.5961159" lon="12.6298542"><ele>1142.0</ele><time>2026-04-12T08:22:57.997Z</time></trkpt><trkpt lat="46.5961973" lon="12.6297902"><ele>1142.0</ele><time>2026-04-12T08:22:58.996Z</time></trkpt><trkpt lat="46.5962866" lon="12.6297415"><ele>1142.0</ele><time>2026-04-12T08:22:59.996Z</time></trkpt><trkpt lat="46.5963632" lon="12.6297181"><ele>1142.0</ele><time>2026-04-12T08:23:00.996Z</time></trkpt><trkpt lat="46.5964392" lon="12.6297038"><ele>1142.0</ele><time>2026-04-12T08:23:01.997Z</time></trkpt><trkpt lat="46.5965451" lon="12.6297984"><ele>1142.0</ele><time>2026-04-12T08:23:03.996Z</time></trkpt><trkpt lat="46.5966237" lon="12.6299115"><ele>1142.0</ele><time>2026-04-12T08:23:05.996Z</time></trkpt><trkpt lat="46.5966003" lon="12.6300971"><ele>1142.0</ele><time>2026-04-12T08:23:07.997Z</time></trkpt><trkpt lat="46.5965637" lon="12.6302556"><ele>1148.5</ele><time>2026-04-12T08:23:09.996Z</time></trkpt><trkpt lat="46.5966146" lon="12.6303874"><ele>1155.0</ele><time>2026-04-12T08:23:11.996Z</time></trkpt><trkpt lat="46.5967079" lon="12.6303379"><ele>1161.5</ele><time>2026-04-12T08:23:13.996Z</time></trkpt><trkpt lat="46.5967451" lon="12.6302506"><ele>1168.0</ele><time>2026-04-12T08:23:14.996Z</time></trkpt><trkpt lat="46.5967761" lon="12.6301549"><ele>1174.5</ele><time>2026-04-12T08:23:15.996Z</time></trkpt><trkpt lat="46.5968228" lon="12.63007"><ele>1181.0</ele><time>2026-04-12T08:23:16.996Z</time></trkpt><trkpt lat="46.5968821" lon="12.6299995"><ele>1183.8</ele><time>2026-04-12T08:23:17.996Z</time></trkpt><trkpt lat="46.5969572" lon="12.6299506"><ele>1186.6</ele><time>2026-04-12T08:23:18.997Z</time></trkpt><trkpt lat="46.5970602" lon="12.6299269"><ele>1189.4</ele><time>2026-04-12T08:23:19.996Z</time></trkpt><trkpt lat="46.5971651" lon="12.6299279"><ele>1192.2</ele><time>2026-04-12T08:23:20.996Z</time></trkpt><trkpt lat="46.5972671" lon="12.6299511"><ele>1195.0</ele><time>2026-04-12T08:23:21.996Z</time></trkpt><trkpt lat="46.5973764" lon="12.6299657"><ele>1195.0</ele><time>2026-04-12T08:23:22.996Z</time></trkpt><trkpt lat="46.5974772" lon="12.6299714"><ele>1195.0</ele><time>2026-04-12T08:23:23.996Z</time></trkpt><trkpt lat="46.5975577" lon="12.6299718"><ele>1195.0</ele><time>2026-04-12T08:23:24.996Z</time></trkpt><trkpt lat="46.5976231" lon="12.6299739"><ele>1195.0</ele><time>2026-04-12T08:23:25.996Z</time></trkpt><trkpt lat="46.5977003" lon="12.6300683"><ele>1195.0</ele><time>2026-04-12T08:23:27.996Z</time></trkpt><trkpt lat="46.5976687" lon="12.6301778"><ele>1195.0</ele><time>2026-04-12T08:23:29.996Z</time></trkpt><trkpt lat="46.5975413" lon="12.630185"><ele>1195.0</ele><time>2026-04-12T08:23:31.996Z</time></trkpt><trkpt lat="46.5974442" lon="12.6301874"><ele>1195.0</ele><time>2026-04-12T08:23:32.997Z</time></trkpt><trkpt lat="46.5973445" lon="12.6302129"><ele>1195.0</ele><time>2026-04-12T08:23:33.996Z</time></trkpt><trkpt lat="46.5972612" lon="12.6302384"><ele>1195.0</ele><time>2026-04-12T08:23:34.996Z</time></trkpt><trkpt lat="46.5971874" lon="12.630273"><ele>1195.0</ele><time>2026-04-12T08:23:35.996Z</time></trkpt><trkpt lat="46.5971054" lon="12.6303931"><ele>1200.8333333333333</ele><time>2026-04-12T08:23:37.996Z</time></trkpt><trkpt lat="46.5971255" lon="12.6305394"><ele>1206.6666666666665</ele><time>2026-04-12T08:23:39.996Z</time></trkpt><trkpt lat="46.5971961" lon="12.6305547"><ele>1212.5</ele><time>2026-04-12T08:23:40.996Z</time></trkpt><trkpt lat="46.5972689" lon="12.6305441"><ele>1218.3333333333333</ele><time>2026-04-12T08:23:41.997Z</time></trkpt><trkpt lat="46.5973605" lon="12.630504"><ele>1224.1666666666667</ele><time>2026-04-12T08:23:42.996Z</time></trkpt><trkpt lat="46.5974577" lon="12.6305003"><ele>1230.0</ele><time>2026-04-12T08:23:43.996Z</time></trkpt><trkpt lat="46.5975658" lon="12.6305255"><ele>1230.0</ele><time>2026-04-12T08:23:44.996Z</time></trkpt><trkpt lat="46.5976652" lon="12.6305474"><ele>1230.0</ele><time>2026-04-12T08:23:45.996Z</time></trkpt><trkpt lat="46.5977636" lon="12.6305234"><ele>1230.0</ele><time>2026-04-12T08:23:46.996Z</time></trkpt><trkpt lat="46.5978708" lon="12.6304651"><ele>1230.0</ele><time>2026-04-12T08:23:47.997Z</time></trkpt><trkpt lat="46.597994" lon="12.630377"><ele>1225.75</ele><time>2026-04-12T08:23:48.996Z</time></trkpt><trkpt lat="46.5981171" lon="12.6302854"><ele>1221.5</ele><time>2026-04-12T08:23:49.996Z</time></trkpt><trkpt lat="46.5982315" lon="12.6301985"><ele>1217.25</ele><time>2026-04-12T08:23:50.995Z</time></trkpt><trkpt lat="46.5983326" lon="12.630128"><ele>1213.0</ele><time>2026-04-12T08:23:51.995Z</time></trkpt><trkpt lat="46.5984305" lon="12.6300619"><ele>1213.0</ele><time>2026-04-12T08:23:52.995Z</time></trkpt><trkpt lat="46.5985281" lon="12.6299997"><ele>1213.0</ele><time>2026-04-12T08:23:53.995Z</time></trkpt><trkpt lat="46.5986246" lon="12.6299355"><ele>1213.0</ele><time>2026-04-12T08:23:54.995Z</time></trkpt><trkpt lat="46.5987207" lon="12.6298587"><ele>1213.0</ele><time>2026-04-12T08:23:55.996Z</time></trkpt><trkpt lat="46.5988049" lon="12.6297691"><ele>1213.0</ele><time>2026-04-12T08:23:56.996Z</time></trkpt><trkpt lat="46.5988719" lon="12.6296789"><ele>1218.0</ele><time>2026-04-12T08:23:57.996Z</time></trkpt><trkpt lat="46.5989324" lon="12.6296354"><ele>1223.0</ele><time>2026-04-12T08:23:58.995Z</time></trkpt><trkpt lat="46.5989962" lon="12.6296147"><ele>1228.0</ele><time>2026-04-12T08:23:59.996Z</time></trkpt><trkpt lat="46.5990772" lon="12.62963"><ele>1233.0</ele><time>2026-04-12T08:24:00.995Z</time></trkpt><trkpt lat="46.5991662" lon="12.6296597"><ele>1238.0</ele><time>2026-04-12T08:24:01.997Z</time></trkpt><trkpt lat="46.599266" lon="12.6296907"><ele>1243.0</ele><time>2026-04-12T08:24:02.995Z</time></trkpt><trkpt lat="46.5993705" lon="12.6297046"><ele>1243.0</ele><time>2026-04-12T08:24:03.996Z</time></trkpt><trkpt lat="46.5994671" lon="12.6297104"><ele>1243.0</ele><time>2026-04-12T08:24:04.995Z</time></trkpt><trkpt lat="46.5995583" lon="12.6297031"><ele>1243.0</ele><time>2026-04-12T08:24:05.996Z</time></trkpt><trkpt lat="46.5996389" lon="12.6296895"><ele>1243.0</ele><time>2026-04-12T08:24:06.996Z</time></trkpt><trkpt lat="46.5997151" lon="12.6296826"><ele>1243.0</ele><time>2026-04-12T08:24:07.996Z</time></trkpt><trkpt lat="46.5997954" lon="12.6296705"><ele>1243.0</ele><time>2026-04-12T08:24:08.996Z</time></trkpt><trkpt lat="46.5998794" lon="12.6296628"><ele>1247.1666666666665</ele><time>2026-04-12T08:24:09.995Z</time></trkpt><trkpt lat="46.5999591" lon="12.6296822"><ele>1251.3333333333333</ele><time>2026-04-12T08:24:10.996Z</time></trkpt><trkpt lat="46.6000349" lon="12.6297152"><ele>1255.5</ele><time>2026-04-12T08:24:11.996Z</time></trkpt><trkpt lat="46.6001099" lon="12.6297571"><ele>1259.6666666666667</ele><time>2026-04-12T08:24:12.995Z</time></trkpt><trkpt lat="46.6001755" lon="12.6298061"><ele>1263.8333333333335</ele><time>2026-04-12T08:24:13.995Z</time></trkpt><trkpt lat="46.6002443" lon="12.6298712"><ele>1268.0</ele><time>2026-04-12T08:24:14.995Z</time></trkpt><trkpt lat="46.6003164" lon="12.6299442"><ele>1267.1666666666667</ele><time>2026-04-12T08:24:15.995Z</time></trkpt><trkpt lat="46.6003891" lon="12.6300198"><ele>1266.3333333333335</ele><time>2026-04-12T08:24:16.996Z</time></trkpt><trkpt lat="46.6004665" lon="12.630093"><ele>1265.5</ele><time>2026-04-12T08:24:17.995Z</time></trkpt><trkpt lat="46.6005397" lon="12.6301615"><ele>1264.6666666666667</ele><time>2026-04-12T08:24:18.996Z</time></trkpt><trkpt lat="46.6006127" lon="12.6302285"><ele>1263.8333333333333</ele><time>2026-04-12T08:24:19.996Z</time></trkpt><trkpt lat="46.6006873" lon="12.630303"><ele>1263.0</ele><time>2026-04-12T08:24:20.996Z</time></trkpt><trkpt lat="46.600747" lon="12.6303797"><ele>1262.1666666666667</ele><time>2026-04-12T08:24:21.995Z</time></trkpt><trkpt lat="46.6007954" lon="12.6304595"><ele>1261.3333333333333</ele><time>2026-04-12T08:24:22.996Z</time></trkpt><trkpt lat="46.6008338" lon="12.6305371"><ele>1260.5</ele><time>2026-04-12T08:24:23.995Z</time></trkpt><trkpt lat="46.6008744" lon="12.6306166"><ele>1259.6666666666665</ele><time>2026-04-12T08:24:24.997Z</time></trkpt><trkpt lat="46.6009136" lon="12.6306899"><ele>1258.8333333333333</ele><time>2026-04-12T08:24:25.995Z</time></trkpt><trkpt lat="46.6009771" lon="12.6308324"><ele>1258.0</ele><time>2026-04-12T08:24:27.995Z</time></trkpt><trkpt lat="46.6010467" lon="12.6309549"><ele>1258.0</ele><time>2026-04-12T08:24:29.995Z</time></trkpt><trkpt lat="46.6011302" lon="12.6310655"><ele>1258.0</ele><time>2026-04-12T08:24:31.996Z</time></trkpt><trkpt lat="46.6011867" lon="12.631123"><ele>1258.0</ele><time>2026-04-12T08:24:32.995Z</time></trkpt><trkpt lat="46.6012452" lon="12.6311707"><ele>1258.0</ele><time>2026-04-12T08:24:33.995Z</time></trkpt><trkpt lat="46.6013076" lon="12.6312114"><ele>1258.0</ele><time>2026-04-12T08:24:34.996Z</time></trkpt><trkpt lat="46.6013743" lon="12.6312424"><ele>1258.0</ele><time>2026-04-12T08:24:35.996Z</time></trkpt><trkpt lat="46.6014381" lon="12.6312655"><ele>1255.6666666666665</ele><time>2026-04-12T08:24:36.996Z</time></trkpt><trkpt lat="46.6015095" lon="12.6312836"><ele>1253.3333333333333</ele><time>2026-04-12T08:24:37.997Z</time></trkpt><trkpt lat="46.6015746" lon="12.6313014"><ele>1251.0</ele><time>2026-04-12T08:24:38.996Z</time></trkpt><trkpt lat="46.6016441" lon="12.6313144"><ele>1248.6666666666667</ele><time>2026-04-12T08:24:39.997Z</time></trkpt><trkpt lat="46.6017219" lon="12.6313127"><ele>1246.3333333333335</ele><time>2026-04-12T08:24:40.995Z</time></trkpt><trkpt lat="46.6018108" lon="12.6313108"><ele>1244.0</ele><time>2026-04-12T08:24:41.995Z</time></trkpt><trkpt lat="46.6019084" lon="12.6313127"><ele>1244.5</ele><time>2026-04-12T08:24:42.995Z</time></trkpt><trkpt lat="46.6020163" lon="12.6313138"><ele>1245.0</ele><time>2026-04-12T08:24:43.996Z</time></trkpt><trkpt lat="46.602131" lon="12.631313"><ele>1245.5</ele><time>2026-04-12T08:24:44.996Z</time></trkpt><trkpt lat="46.6022452" lon="12.6312879"><ele>1246.0</ele><time>2026-04-12T08:24:45.995Z</time></trkpt><trkpt lat="46.6023635" lon="12.6312521"><ele>1246.0</ele><time>2026-04-12T08:24:46.995Z</time></trkpt><trkpt lat="46.6024715" lon="12.6312088"><ele>1246.0</ele><time>2026-04-12T08:24:47.996Z</time></trkpt><trkpt lat="46.602576" lon="12.6311617"><ele>1246.0</ele><time>2026-04-12T08:24:48.995Z</time></trkpt><trkpt lat="46.6026793" lon="12.6311064"><ele>1246.0</ele><time>2026-04-12T08:24:49.995Z</time></trkpt><trkpt lat="46.6027803" lon="12.6310478"><ele>1246.0</ele><time>2026-04-12T08:24:50.997Z</time></trkpt><trkpt lat="46.6028757" lon="12.6309963"><ele>1245.6</ele><time>2026-04-12T08:24:51.996Z</time></trkpt><trkpt lat="46.6029725" lon="12.6309311"><ele>1245.1999999999998</ele><time>2026-04-12T08:24:52.996Z</time></trkpt><trkpt lat="46.6030668" lon="12.6308667"><ele>1244.8000000000002</ele><time>2026-04-12T08:24:53.995Z</time></trkpt><trkpt lat="46.6031625" lon="12.6308086"><ele>1244.4</ele><time>2026-04-12T08:24:54.995Z</time></trkpt><trkpt lat="46.6032554" lon="12.630747"><ele>1244.0</ele><time>2026-04-12T08:24:55.996Z</time></trkpt><trkpt lat="46.6033505" lon="12.6306922"><ele>1244.0</ele><time>2026-04-12T08:24:56.996Z</time></trkpt><trkpt lat="46.6034417" lon="12.6306307"><ele>1244.0</ele><time>2026-04-12T08:24:57.995Z</time></trkpt><trkpt lat="46.6035283" lon="12.6305808"><ele>1244.0</ele><time>2026-04-12T08:24:58.996Z</time></trkpt><trkpt lat="46.6036204" lon="12.6305276"><ele>1244.0</ele><time>2026-04-12T08:24:59.995Z</time></trkpt><trkpt lat="46.6037151" lon="12.6304768"><ele>1244.0</ele><time>2026-04-12T08:25:00.997Z</time></trkpt><trkpt lat="46.6038087" lon="12.630432"><ele>1243.4</ele><time>2026-04-12T08:25:01.995Z</time></trkpt><trkpt lat="46.6039073" lon="12.6303922"><ele>1242.8000000000002</ele><time>2026-04-12T08:25:02.995Z</time></trkpt><trkpt lat="46.6040043" lon="12.6303633"><ele>1242.1999999999998</ele><time>2026-04-12T08:25:03.995Z</time></trkpt><trkpt lat="46.6040973" lon="12.6303369"><ele>1241.6</ele><time>2026-04-12T08:25:04.995Z</time></trkpt><trkpt lat="46.6042" lon="12.6303089"><ele>1241.0</ele><time>2026-04-12T08:25:05.995Z</time></trkpt><trkpt lat="46.6042986" lon="12.6302886"><ele>1241.0</ele><time>2026-04-12T08:25:06.996Z</time></trkpt><trkpt lat="46.6043912" lon="12.630275"><ele>1241.0</ele><time>2026-04-12T08:25:07.996Z</time></trkpt><trkpt lat="46.6044796" lon="12.6302601"><ele>1241.0</ele><time>2026-04-12T08:25:08.995Z</time></trkpt><trkpt lat="46.6045557" lon="12.630259"><ele>1241.0</ele><time>2026-04-12T08:25:09.995Z</time></trkpt><trkpt lat="46.6046271" lon="12.6302506"><ele>1241.0</ele><time>2026-04-12T08:25:10.995Z</time></trkpt><trkpt lat="46.6047062" lon="12.6302074"><ele>1241.0</ele><time>2026-04-12T08:25:12.995Z</time></trkpt><trkpt lat="46.6047887" lon="12.6301934"><ele>1242.25</ele><time>2026-04-12T08:25:24.995Z</time></trkpt><trkpt lat="46.6049141" lon="12.6302414"><ele>1243.5</ele><time>2026-04-12T08:25:26.996Z</time></trkpt><trkpt lat="46.6050163" lon="12.6302658"><ele>1244.75</ele><time>2026-04-12T08:25:27.995Z</time></trkpt><trkpt lat="46.6051354" lon="12.6302821"><ele>1246.0</ele><time>2026-04-12T08:25:28.995Z</time></trkpt><trkpt lat="46.6052653" lon="12.6302782"><ele>1247.5</ele><time>2026-04-12T08:25:29.995Z</time></trkpt><trkpt lat="46.6053927" lon="12.630251"><ele>1249.0</ele><time>2026-04-12T08:25:30.995Z</time></trkpt><trkpt lat="46.6055181" lon="12.6302061"><ele>1250.5</ele><time>2026-04-12T08:25:31.996Z</time></trkpt><trkpt lat="46.6056527" lon="12.6301503"><ele>1252.0</ele><time>2026-04-12T08:25:32.995Z</time></trkpt><trkpt lat="46.6057989" lon="12.6300758"><ele>1252.0</ele><time>2026-04-12T08:25:33.995Z</time></trkpt><trkpt lat="46.60594" lon="12.630005"><ele>1252.0</ele><time>2026-04-12T08:25:34.995Z</time></trkpt><trkpt lat="46.6060826" lon="12.6299264"><ele>1252.0</ele><time>2026-04-12T08:25:35.995Z</time></trkpt><trkpt lat="46.6062188" lon="12.6298599"><ele>1252.0</ele><time>2026-04-12T08:25:36.995Z</time></trkpt><trkpt lat="46.6063597" lon="12.6297975"><ele>1253.25</ele><time>2026-04-12T08:25:37.995Z</time></trkpt><trkpt lat="46.606494" lon="12.6297426"><ele>1254.5</ele><time>2026-04-12T08:25:38.996Z</time></trkpt><trkpt lat="46.6066225" lon="12.6297075"><ele>1255.75</ele><time>2026-04-12T08:25:39.996Z</time></trkpt><trkpt lat="46.6067487" lon="12.6296912"><ele>1257.0</ele><time>2026-04-12T08:25:40.995Z</time></trkpt><trkpt lat="46.6068762" lon="12.6296981"><ele>1256.75</ele><time>2026-04-12T08:25:41.995Z</time></trkpt><trkpt lat="46.6069965" lon="12.6297189"><ele>1256.5</ele><time>2026-04-12T08:25:42.995Z</time></trkpt><trkpt lat="46.6071089" lon="12.6297656"><ele>1256.25</ele><time>2026-04-12T08:25:43.995Z</time></trkpt><trkpt lat="46.6072228" lon="12.6298361"><ele>1256.0</ele><time>2026-04-12T08:25:44.995Z</time></trkpt><trkpt lat="46.6073317" lon="12.6299249"><ele>1256.0</ele><time>2026-04-12T08:25:45.996Z</time></trkpt><trkpt lat="46.6074583" lon="12.6300332"><ele>1256.0</ele><time>2026-04-12T08:25:46.995Z</time></trkpt><trkpt lat="46.6075877" lon="12.6301239"><ele>1256.0</ele><time>2026-04-12T08:25:47.995Z</time></trkpt><trkpt lat="46.6077174" lon="12.6301953"><ele>1256.0</ele><time>2026-04-12T08:25:48.996Z</time></trkpt><trkpt lat="46.6078476" lon="12.6302523"><ele>1257.5</ele><time>2026-04-12T08:25:49.995Z</time></trkpt><trkpt lat="46.6079727" lon="12.6303268"><ele>1259.0</ele><time>2026-04-12T08:25:50.995Z</time></trkpt><trkpt lat="46.6080897" lon="12.6304222"><ele>1260.5</ele><time>2026-04-12T08:25:51.995Z</time></trkpt><trkpt lat="46.6081956" lon="12.6305382"><ele>1262.0</ele><time>2026-04-12T08:25:52.996Z</time></trkpt><trkpt lat="46.6082994" lon="12.6306629"><ele>1262.0</ele><time>2026-04-12T08:25:53.995Z</time></trkpt><trkpt lat="46.6083993" lon="12.630797"><ele>1262.0</ele><time>2026-04-12T08:25:54.996Z</time></trkpt><trkpt lat="46.6084986" lon="12.6309325"><ele>1262.0</ele><time>2026-04-12T08:25:55.995Z</time></trkpt><trkpt lat="46.6086058" lon="12.6310623"><ele>1262.0</ele><time>2026-04-12T08:25:56.995Z</time></trkpt><trkpt lat="46.6087269" lon="12.6311735"><ele>1263.25</ele><time>2026-04-12T08:25:57.995Z</time></trkpt><trkpt lat="46.6088537" lon="12.6312719"><ele>1264.5</ele><time>2026-04-12T08:25:58.995Z</time></trkpt><trkpt lat="46.6089794" lon="12.6313576"><ele>1265.75</ele><time>2026-04-12T08:25:59.995Z</time></trkpt><trkpt lat="46.6091171" lon="12.6314504"><ele>1267.0</ele><time>2026-04-12T08:26:00.995Z</time></trkpt><trkpt lat="46.6092445" lon="12.6315347"><ele>1267.0</ele><time>2026-04-12T08:26:01.996Z</time></trkpt><trkpt lat="46.6093753" lon="12.6316191"><ele>1267.0</ele><time>2026-04-12T08:26:02.995Z</time></trkpt><trkpt lat="46.6095034" lon="12.6317067"><ele>1267.0</ele><time>2026-04-12T08:26:03.995Z</time></trkpt><trkpt lat="46.6096289" lon="12.6317973"><ele>1267.0</ele><time>2026-04-12T08:26:04.995Z</time></trkpt><trkpt lat="46.6097519" lon="12.631889"><ele>1268.0</ele><time>2026-04-12T08:26:05.996Z</time></trkpt><trkpt lat="46.6098747" lon="12.6319715"><ele>1269.0</ele><time>2026-04-12T08:26:06.995Z</time></trkpt><trkpt lat="46.61" lon="12.6320557"><ele>1270.0</ele><time>2026-04-12T08:26:07.995Z</time></trkpt><trkpt lat="46.6101247" lon="12.6321395"><ele>1271.0</ele><time>2026-04-12T08:26:08.996Z</time></trkpt><trkpt lat="46.6102508" lon="12.6322247"><ele>1270.75</ele><time>2026-04-12T08:26:09.995Z</time></trkpt><trkpt lat="46.6103774" lon="12.6323037"><ele>1270.5</ele><time>2026-04-12T08:26:10.997Z</time></trkpt><trkpt lat="46.6105087" lon="12.6323881"><ele>1270.25</ele><time>2026-04-12T08:26:11.995Z</time></trkpt><trkpt lat="46.6106382" lon="12.6324619"><ele>1270.0</ele><time>2026-04-12T08:26:12.995Z</time></trkpt><trkpt lat="46.6107664" lon="12.6325368"><ele>1270.0</ele><time>2026-04-12T08:26:13.995Z</time></trkpt><trkpt lat="46.6108984" lon="12.6326011"><ele>1270.0</ele><time>2026-04-12T08:26:14.995Z</time></trkpt><trkpt lat="46.6110386" lon="12.6326671"><ele>1270.0</ele><time>2026-04-12T08:26:15.996Z</time></trkpt><trkpt lat="46.6111767" lon="12.6327289"><ele>1270.0</ele><time>2026-04-12T08:26:16.995Z</time></trkpt><trkpt lat="46.6113153" lon="12.63279"><ele>1271.75</ele><time>2026-04-12T08:26:17.996Z</time></trkpt><trkpt lat="46.611446" lon="12.6328528"><ele>1273.5</ele><time>2026-04-12T08:26:18.995Z</time></trkpt><trkpt lat="46.6115729" lon="12.6329167"><ele>1275.25</ele><time>2026-04-12T08:26:19.995Z</time></trkpt><trkpt lat="46.6116925" lon="12.632974"><ele>1277.0</ele><time>2026-04-12T08:26:20.996Z</time></trkpt><trkpt lat="46.6118085" lon="12.6330293"><ele>1277.0</ele><time>2026-04-12T08:26:21.996Z</time></trkpt><trkpt lat="46.6119194" lon="12.6330777"><ele>1277.0</ele><time>2026-04-12T08:26:22.995Z</time></trkpt><trkpt lat="46.6120223" lon="12.6331268"><ele>1277.0</ele><time>2026-04-12T08:26:23.995Z</time></trkpt><trkpt lat="46.6121221" lon="12.6331716"><ele>1277.0</ele><time>2026-04-12T08:26:24.996Z</time></trkpt><trkpt lat="46.6122187" lon="12.633219"><ele>1277.0</ele><time>2026-04-12T08:26:25.995Z</time></trkpt><trkpt lat="46.6123156" lon="12.6332589"><ele>1276.25</ele><time>2026-04-12T08:26:26.995Z</time></trkpt><trkpt lat="46.6124124" lon="12.6333041"><ele>1275.5</ele><time>2026-04-12T08:26:27.995Z</time></trkpt><trkpt lat="46.6125174" lon="12.6333377"><ele>1274.75</ele><time>2026-04-12T08:26:28.995Z</time></trkpt><trkpt lat="46.6126442" lon="12.6333525"><ele>1274.0</ele><time>2026-04-12T08:26:29.995Z</time></trkpt><trkpt lat="46.6127628" lon="12.6333493"><ele>1275.0</ele><time>2026-04-12T08:26:30.995Z</time></trkpt><trkpt lat="46.6128796" lon="12.6333424"><ele>1276.0</ele><time>2026-04-12T08:26:31.995Z</time></trkpt><trkpt lat="46.6129927" lon="12.6333235"><ele>1277.0</ele><time>2026-04-12T08:26:32.996Z</time></trkpt><trkpt lat="46.6131118" lon="12.6333091"><ele>1278.0</ele><time>2026-04-12T08:26:33.995Z</time></trkpt><trkpt lat="46.6132352" lon="12.6333089"><ele>1278.0</ele><time>2026-04-12T08:26:34.995Z</time></trkpt><trkpt lat="46.6133474" lon="12.6333227"><ele>1278.0</ele><time>2026-04-12T08:26:35.995Z</time></trkpt><trkpt lat="46.6134525" lon="12.6333508"><ele>1278.0</ele><time>2026-04-12T08:26:36.996Z</time></trkpt><trkpt lat="46.6135482" lon="12.6333787"><ele>1278.0</ele><time>2026-04-12T08:26:37.995Z</time></trkpt><trkpt lat="46.6136354" lon="12.6334112"><ele>1278.0</ele><time>2026-04-12T08:26:38.996Z</time></trkpt><trkpt lat="46.6137162" lon="12.6334463"><ele>1278.5</ele><time>2026-04-12T08:26:39.995Z</time></trkpt><trkpt lat="46.6137901" lon="12.6334746"><ele>1279.0</ele><time>2026-04-12T08:26:40.995Z</time></trkpt><trkpt lat="46.6138548" lon="12.6335081"><ele>1279.5</ele><time>2026-04-12T08:26:41.995Z</time></trkpt><trkpt lat="46.6139202" lon="12.6335597"><ele>1280.0</ele><time>2026-04-12T08:26:42.995Z</time></trkpt><trkpt lat="46.6139856" lon="12.6336105"><ele>1280.5</ele><time>2026-04-12T08:26:43.995Z</time></trkpt><trkpt lat="46.614053" lon="12.6336603"><ele>1281.0</ele><time>2026-04-12T08:26:44.995Z</time></trkpt><trkpt lat="46.6141377" lon="12.6337077"><ele>1281.0</ele><time>2026-04-12T08:26:45.995Z</time></trkpt><trkpt lat="46.6142378" lon="12.6337531"><ele>1281.0</ele><time>2026-04-12T08:26:46.995Z</time></trkpt><trkpt lat="46.6143385" lon="12.6337808"><ele>1281.0</ele><time>2026-04-12T08:26:47.996Z</time></trkpt><trkpt lat="46.6144384" lon="12.6338055"><ele>1281.0</ele><time>2026-04-12T08:26:48.995Z</time></trkpt><trkpt lat="46.6145354" lon="12.63382"><ele>1281.0</ele><time>2026-04-12T08:26:49.995Z</time></trkpt><trkpt lat="46.6146334" lon="12.6338333"><ele>1280.8</ele><time>2026-04-12T08:26:50.995Z</time></trkpt><trkpt lat="46.6147264" lon="12.6338598"><ele>1280.6</ele><time>2026-04-12T08:26:51.995Z</time></trkpt><trkpt lat="46.6148227" lon="12.6339048"><ele>1280.4</ele><time>2026-04-12T08:26:52.995Z</time></trkpt><trkpt lat="46.6149113" lon="12.633956"><ele>1280.2</ele><time>2026-04-12T08:26:53.995Z</time></trkpt><trkpt lat="46.6150019" lon="12.6340025"><ele>1280.0</ele><time>2026-04-12T08:26:54.995Z</time></trkpt><trkpt lat="46.615091" lon="12.6340574"><ele>1280.0</ele><time>2026-04-12T08:26:55.996Z</time></trkpt><trkpt lat="46.6151854" lon="12.6341323"><ele>1280.0</ele><time>2026-04-12T08:26:56.996Z</time></trkpt><trkpt lat="46.6152761" lon="12.6341863"><ele>1280.0</ele><time>2026-04-12T08:26:57.995Z</time></trkpt><trkpt lat="46.6153657" lon="12.6342604"><ele>1280.0</ele><time>2026-04-12T08:26:58.995Z</time></trkpt><trkpt lat="46.6154473" lon="12.6343472"><ele>1280.0</ele><time>2026-04-12T08:26:59.995Z</time></trkpt><trkpt lat="46.6155249" lon="12.6344351"><ele>1279.2</ele><time>2026-04-12T08:27:00.995Z</time></trkpt><trkpt lat="46.6156009" lon="12.6345334"><ele>1278.4</ele><time>2026-04-12T08:27:01.996Z</time></trkpt><trkpt lat="46.6156831" lon="12.6346265"><ele>1277.6</ele><time>2026-04-12T08:27:02.995Z</time></trkpt><trkpt lat="46.6157633" lon="12.6347132"><ele>1276.8</ele><time>2026-04-12T08:27:03.995Z</time></trkpt><trkpt lat="46.6158539" lon="12.6347973"><ele>1276.0</ele><time>2026-04-12T08:27:04.995Z</time></trkpt><trkpt lat="46.6159386" lon="12.6348718"><ele>1276.0</ele><time>2026-04-12T08:27:05.995Z</time></trkpt><trkpt lat="46.6160256" lon="12.6349513"><ele>1276.0</ele><time>2026-04-12T08:27:06.995Z</time></trkpt><trkpt lat="46.6161137" lon="12.635025"><ele>1276.0</ele><time>2026-04-12T08:27:07.995Z</time></trkpt><trkpt lat="46.6162021" lon="12.6350964"><ele>1276.0</ele><time>2026-04-12T08:27:08.997Z</time></trkpt><trkpt lat="46.6162912" lon="12.6351747"><ele>1276.0</ele><time>2026-04-12T08:27:09.995Z</time></trkpt><trkpt lat="46.6163765" lon="12.6352547"><ele>1275.3999999999999</ele><time>2026-04-12T08:27:10.995Z</time></trkpt><trkpt lat="46.6164571" lon="12.6353434"><ele>1274.8</ele><time>2026-04-12T08:27:11.996Z</time></trkpt><trkpt lat="46.6165448" lon="12.6354362"><ele>1274.1999999999998</ele><time>2026-04-12T08:27:12.995Z</time></trkpt><trkpt lat="46.6166292" lon="12.6355285"><ele>1273.6</ele><time>2026-04-12T08:27:13.995Z</time></trkpt><trkpt lat="46.6167114" lon="12.6356251"><ele>1273.0</ele><time>2026-04-12T08:27:14.995Z</time></trkpt><trkpt lat="46.6167923" lon="12.6357201"><ele>1273.0</ele><time>2026-04-12T08:27:15.996Z</time></trkpt><trkpt lat="46.6168691" lon="12.6358172"><ele>1273.0</ele><time>2026-04-12T08:27:16.996Z</time></trkpt><trkpt lat="46.6169466" lon="12.6359171"><ele>1273.0</ele><time>2026-04-12T08:27:17.995Z</time></trkpt><trkpt lat="46.6170232" lon="12.6360183"><ele>1273.0</ele><time>2026-04-12T08:27:18.995Z</time></trkpt><trkpt lat="46.6170981" lon="12.6361228"><ele>1273.0</ele><time>2026-04-12T08:27:19.997Z</time></trkpt><trkpt lat="46.6171721" lon="12.6362323"><ele>1272.6666666666665</ele><time>2026-04-12T08:27:20.995Z</time></trkpt><trkpt lat="46.617243" lon="12.6363385"><ele>1272.3333333333333</ele><time>2026-04-12T08:27:21.995Z</time></trkpt><trkpt lat="46.6173097" lon="12.6364395"><ele>1272.0</ele><time>2026-04-12T08:27:22.995Z</time></trkpt><trkpt lat="46.6173663" lon="12.6365353"><ele>1271.6666666666667</ele><time>2026-04-12T08:27:23.996Z</time></trkpt><trkpt lat="46.6174199" lon="12.6366111"><ele>1271.3333333333335</ele><time>2026-04-12T08:27:24.995Z</time></trkpt><trkpt lat="46.6174757" lon="12.63668"><ele>1271.0</ele><time>2026-04-12T08:27:25.996Z</time></trkpt><trkpt lat="46.6175236" lon="12.636741"><ele>1271.0</ele><time>2026-04-12T08:27:26.995Z</time></trkpt><trkpt lat="46.61757" lon="12.6368089"><ele>1271.0</ele><time>2026-04-12T08:27:27.995Z</time></trkpt><trkpt lat="46.6176198" lon="12.6368959"><ele>1271.0</ele><time>2026-04-12T08:27:28.995Z</time></trkpt><trkpt lat="46.6176791" lon="12.6370015"><ele>1271.0</ele><time>2026-04-12T08:27:29.995Z</time></trkpt><trkpt lat="46.6177371" lon="12.6371377"><ele>1271.0</ele><time>2026-04-12T08:27:30.995Z</time></trkpt><trkpt lat="46.6178044" lon="12.6373036"><ele>1272.75</ele><time>2026-04-12T08:27:31.995Z</time></trkpt><trkpt lat="46.61786" lon="12.6374514"><ele>1274.5</ele><time>2026-04-12T08:27:32.995Z</time></trkpt><trkpt lat="46.6179195" lon="12.6376122"><ele>1276.25</ele><time>2026-04-12T08:27:33.996Z</time></trkpt><trkpt lat="46.6179809" lon="12.6377775"><ele>1278.0</ele><time>2026-04-12T08:27:34.995Z</time></trkpt><trkpt lat="46.6180391" lon="12.6379479"><ele>1279.0</ele><time>2026-04-12T08:27:35.995Z</time></trkpt><trkpt lat="46.6180953" lon="12.6381165"><ele>1280.0</ele><time>2026-04-12T08:27:36.995Z</time></trkpt><trkpt lat="46.618146" lon="12.6382747"><ele>1281.0</ele><time>2026-04-12T08:27:37.996Z</time></trkpt><trkpt lat="46.6182053" lon="12.6384291"><ele>1282.0</ele><time>2026-04-12T08:27:38.996Z</time></trkpt><trkpt lat="46.6182635" lon="12.6385821"><ele>1282.75</ele><time>2026-04-12T08:27:39.995Z</time></trkpt><trkpt lat="46.6183262" lon="12.6387256"><ele>1283.5</ele><time>2026-04-12T08:27:40.996Z</time></trkpt><trkpt lat="46.618395" lon="12.6388653"><ele>1284.25</ele><time>2026-04-12T08:27:41.995Z</time></trkpt><trkpt lat="46.6184639" lon="12.6389973"><ele>1285.0</ele><time>2026-04-12T08:27:42.995Z</time></trkpt><trkpt lat="46.6185351" lon="12.6391212"><ele>1285.0</ele><time>2026-04-12T08:27:43.995Z</time></trkpt><trkpt lat="46.6186113" lon="12.6392493"><ele>1285.0</ele><time>2026-04-12T08:27:44.996Z</time></trkpt><trkpt lat="46.6187032" lon="12.639385"><ele>1285.0</ele><time>2026-04-12T08:27:45.995Z</time></trkpt><trkpt lat="46.6187921" lon="12.6395167"><ele>1285.0</ele><time>2026-04-12T08:27:46.995Z</time></trkpt><trkpt lat="46.6188726" lon="12.6396534"><ele>1284.75</ele><time>2026-04-12T08:27:47.995Z</time></trkpt><trkpt lat="46.6189513" lon="12.6397948"><ele>1284.5</ele><time>2026-04-12T08:27:48.995Z</time></trkpt><trkpt lat="46.6190295" lon="12.6399376"><ele>1284.25</ele><time>2026-04-12T08:27:49.995Z</time></trkpt><trkpt lat="46.6190906" lon="12.6401004"><ele>1284.0</ele><time>2026-04-12T08:27:50.995Z</time></trkpt><trkpt lat="46.6191437" lon="12.6402692"><ele>1284.5</ele><time>2026-04-12T08:27:51.995Z</time></trkpt><trkpt lat="46.6191884" lon="12.6404476"><ele>1285.0</ele><time>2026-04-12T08:27:52.995Z</time></trkpt><trkpt lat="46.6192294" lon="12.6406263"><ele>1285.5</ele><time>2026-04-12T08:27:53.995Z</time></trkpt><trkpt lat="46.6192638" lon="12.6407928"><ele>1286.0</ele><time>2026-04-12T08:27:54.995Z</time></trkpt><trkpt lat="46.6192959" lon="12.6409482"><ele>1286.0</ele><time>2026-04-12T08:27:55.995Z</time></trkpt><trkpt lat="46.6193285" lon="12.6411091"><ele>1286.0</ele><time>2026-04-12T08:27:56.995Z</time></trkpt><trkpt lat="46.619363" lon="12.6412626"><ele>1286.0</ele><time>2026-04-12T08:27:57.995Z</time></trkpt><trkpt lat="46.6193967" lon="12.6414205"><ele>1286.0</ele><time>2026-04-12T08:27:58.995Z</time></trkpt><trkpt lat="46.6194324" lon="12.6415837"><ele>1285.25</ele><time>2026-04-12T08:27:59.995Z</time></trkpt><trkpt lat="46.6194759" lon="12.6417417"><ele>1284.5</ele><time>2026-04-12T08:28:00.995Z</time></trkpt><trkpt lat="46.6195238" lon="12.6419023"><ele>1283.75</ele><time>2026-04-12T08:28:01.996Z</time></trkpt><trkpt lat="46.6195789" lon="12.6420379"><ele>1283.0</ele><time>2026-04-12T08:28:02.995Z</time></trkpt><trkpt lat="46.6196339" lon="12.6421967"><ele>1284.6000000000001</ele><time>2026-04-12T08:28:03.995Z</time></trkpt><trkpt lat="46.61968" lon="12.6423471"><ele>1286.2</ele><time>2026-04-12T08:28:04.995Z</time></trkpt><trkpt lat="46.6197295" lon="12.6425028"><ele>1287.8</ele><time>2026-04-12T08:28:05.996Z</time></trkpt><trkpt lat="46.6197768" lon="12.6426574"><ele>1289.4</ele><time>2026-04-12T08:28:06.996Z</time></trkpt><trkpt lat="46.6198131" lon="12.6427868"><ele>1291.0</ele><time>2026-04-12T08:28:07.995Z</time></trkpt><trkpt lat="46.6198386" lon="12.6429179"><ele>1291.0</ele><time>2026-04-12T08:28:08.995Z</time></trkpt><trkpt lat="46.6198512" lon="12.6430383"><ele>1291.0</ele><time>2026-04-12T08:28:09.996Z</time></trkpt><trkpt lat="46.6198475" lon="12.6431628"><ele>1291.0</ele><time>2026-04-12T08:28:10.995Z</time></trkpt><trkpt lat="46.61984" lon="12.6432874"><ele>1291.0</ele><time>2026-04-12T08:28:11.995Z</time></trkpt><trkpt lat="46.6198166" lon="12.6434123"><ele>1291.0</ele><time>2026-04-12T08:28:12.994Z</time></trkpt><trkpt lat="46.6197764" lon="12.6435494"><ele>1291.0</ele><time>2026-04-12T08:28:13.995Z</time></trkpt><trkpt lat="46.6197284" lon="12.6436955"><ele>1290.6</ele><time>2026-04-12T08:28:14.995Z</time></trkpt><trkpt lat="46.6196874" lon="12.643835"><ele>1290.1999999999998</ele><time>2026-04-12T08:28:15.995Z</time></trkpt><trkpt lat="46.6196496" lon="12.6439623"><ele>1289.8000000000002</ele><time>2026-04-12T08:28:16.996Z</time></trkpt><trkpt lat="46.6196058" lon="12.6440662"><ele>1289.4</ele><time>2026-04-12T08:28:17.995Z</time></trkpt><trkpt lat="46.6195607" lon="12.6441745"><ele>1289.0</ele><time>2026-04-12T08:28:18.995Z</time></trkpt><trkpt lat="46.6195361" lon="12.6442906"><ele>1289.0</ele><time>2026-04-12T08:28:19.994Z</time></trkpt><trkpt lat="46.6195093" lon="12.6444027"><ele>1289.0</ele><time>2026-04-12T08:28:20.995Z</time></trkpt><trkpt lat="46.6195286" lon="12.6445351"><ele>1289.0</ele><time>2026-04-12T08:28:21.995Z</time></trkpt><trkpt lat="46.6195403" lon="12.6446666"><ele>1289.0</ele><time>2026-04-12T08:28:22.995Z</time></trkpt><trkpt lat="46.619579" lon="12.6447968"><ele>1289.0</ele><time>2026-04-12T08:28:23.995Z</time></trkpt><trkpt lat="46.6196202" lon="12.6449188"><ele>1289.1666666666667</ele><time>2026-04-12T08:28:24.996Z</time></trkpt><trkpt lat="46.6196676" lon="12.6450398"><ele>1289.3333333333335</ele><time>2026-04-12T08:28:25.995Z</time></trkpt><trkpt lat="46.6197216" lon="12.6451566"><ele>1289.5</ele><time>2026-04-12T08:28:26.995Z</time></trkpt><trkpt lat="46.6197596" lon="12.6452551"><ele>1289.6666666666667</ele><time>2026-04-12T08:28:27.996Z</time></trkpt><trkpt lat="46.6197921" lon="12.6453676"><ele>1289.8333333333333</ele><time>2026-04-12T08:28:28.995Z</time></trkpt><trkpt lat="46.6198187" lon="12.6454814"><ele>1290.0</ele><time>2026-04-12T08:28:29.995Z</time></trkpt><trkpt lat="46.6198431" lon="12.6455952"><ele>1293.0</ele><time>2026-04-12T08:28:30.995Z</time></trkpt><trkpt lat="46.6198624" lon="12.6457074"><ele>1296.0</ele><time>2026-04-12T08:28:31.995Z</time></trkpt><trkpt lat="46.6198525" lon="12.645836"><ele>1299.0</ele><time>2026-04-12T08:28:32.995Z</time></trkpt><trkpt lat="46.6198598" lon="12.6459741"><ele>1302.0</ele><time>2026-04-12T08:28:33.995Z</time></trkpt><trkpt lat="46.6198749" lon="12.6461084"><ele>1305.0</ele><time>2026-04-12T08:28:34.995Z</time></trkpt><trkpt lat="46.6199061" lon="12.6462429"><ele>1305.75</ele><time>2026-04-12T08:28:35.996Z</time></trkpt><trkpt lat="46.6199546" lon="12.6463774"><ele>1306.5</ele><time>2026-04-12T08:28:36.995Z</time></trkpt><trkpt lat="46.6200173" lon="12.6465185"><ele>1307.25</ele><time>2026-04-12T08:28:37.995Z</time></trkpt><trkpt lat="46.6200894" lon="12.6466677"><ele>1308.0</ele><time>2026-04-12T08:28:38.995Z</time></trkpt><trkpt lat="46.620162" lon="12.6468061"><ele>1308.0</ele><time>2026-04-12T08:28:39.995Z</time></trkpt><trkpt lat="46.6202386" lon="12.6469344"><ele>1308.0</ele><time>2026-04-12T08:28:40.995Z</time></trkpt><trkpt lat="46.6203287" lon="12.6470552"><ele>1308.0</ele><time>2026-04-12T08:28:41.995Z</time></trkpt><trkpt lat="46.6204201" lon="12.6471656"><ele>1308.0</ele><time>2026-04-12T08:28:42.996Z</time></trkpt><trkpt lat="46.620505" lon="12.6472723"><ele>1312.4</ele><time>2026-04-12T08:28:43.996Z</time></trkpt><trkpt lat="46.6205849" lon="12.6473772"><ele>1316.8000000000002</ele><time>2026-04-12T08:28:44.994Z</time></trkpt><trkpt lat="46.6206638" lon="12.6474772"><ele>1321.2</ele><time>2026-04-12T08:28:45.995Z</time></trkpt><trkpt lat="46.6207392" lon="12.6475804"><ele>1325.6</ele><time>2026-04-12T08:28:46.995Z</time></trkpt><trkpt lat="46.6208043" lon="12.6476945"><ele>1330.0</ele><time>2026-04-12T08:28:47.995Z</time></trkpt><trkpt lat="46.6208579" lon="12.6478285"><ele>1330.5</ele><time>2026-04-12T08:28:48.995Z</time></trkpt><trkpt lat="46.6208966" lon="12.6479912"><ele>1331.0</ele><time>2026-04-12T08:28:49.994Z</time></trkpt><trkpt lat="46.6209281" lon="12.6481628"><ele>1331.5</ele><time>2026-04-12T08:28:50.996Z</time></trkpt><trkpt lat="46.6209619" lon="12.6483318"><ele>1332.0</ele><time>2026-04-12T08:28:51.996Z</time></trkpt><trkpt lat="46.6209898" lon="12.6485013"><ele>1331.8</ele><time>2026-04-12T08:28:52.995Z</time></trkpt><trkpt lat="46.6210195" lon="12.6486603"><ele>1331.6</ele><time>2026-04-12T08:28:53.995Z</time></trkpt><trkpt lat="46.6210479" lon="12.6488112"><ele>1331.3999999999999</ele><time>2026-04-12T08:28:54.996Z</time></trkpt><trkpt lat="46.6210754" lon="12.6489589"><ele>1331.1999999999998</ele><time>2026-04-12T08:28:55.995Z</time></trkpt><trkpt lat="46.6211029" lon="12.649095"><ele>1331.0</ele><time>2026-04-12T08:28:56.996Z</time></trkpt><trkpt lat="46.6211306" lon="12.649223"><ele>1332.1666666666667</ele><time>2026-04-12T08:28:57.995Z</time></trkpt><trkpt lat="46.6211587" lon="12.6493386"><ele>1333.3333333333335</ele><time>2026-04-12T08:28:58.995Z</time></trkpt><trkpt lat="46.6211835" lon="12.6494418"><ele>1334.5</ele><time>2026-04-12T08:28:59.995Z</time></trkpt><trkpt lat="46.6212043" lon="12.6495465"><ele>1335.6666666666667</ele><time>2026-04-12T08:29:00.995Z</time></trkpt><trkpt lat="46.6212329" lon="12.6496625"><ele>1336.8333333333333</ele><time>2026-04-12T08:29:01.995Z</time></trkpt><trkpt lat="46.6212648" lon="12.6497677"><ele>1338.0</ele><time>2026-04-12T08:29:02.995Z</time></trkpt><trkpt lat="46.6212863" lon="12.6498577"><ele>1338.0</ele><time>2026-04-12T08:29:03.995Z</time></trkpt><trkpt lat="46.6213223" lon="12.6500031"><ele>1338.0</ele><time>2026-04-12T08:29:05.996Z</time></trkpt><trkpt lat="46.6213811" lon="12.6500736"><ele>1338.0</ele><time>2026-04-12T08:29:07.996Z</time></trkpt><trkpt lat="46.6214574" lon="12.6501105"><ele>1338.0</ele><time>2026-04-12T08:29:09.994Z</time></trkpt><trkpt lat="46.6215593" lon="12.6500972"><ele>1338.0</ele><time>2026-04-12T08:29:11.997Z</time></trkpt><trkpt lat="46.6216392" lon="12.6500674"><ele>1338.0</ele><time>2026-04-12T08:29:13.996Z</time></trkpt><trkpt lat="46.6217264" lon="12.6500808"><ele>1338.0</ele><time>2026-04-12T08:29:16.995Z</time></trkpt><trkpt lat="46.6217982" lon="12.6500436"><ele>1338.0</ele><time>2026-04-12T08:29:19.996Z</time></trkpt><trkpt lat="46.6216986" lon="12.6500971"><ele>1338.0</ele><time>2026-04-12T08:29:43.995Z</time></trkpt><trkpt lat="46.6215949" lon="12.6500944"><ele>1338.0</ele><time>2026-04-12T08:29:45.995Z</time></trkpt><trkpt lat="46.6215079" lon="12.6500932"><ele>1338.0</ele><time>2026-04-12T08:29:47.995Z</time></trkpt><trkpt lat="46.6214304" lon="12.6500736"><ele>1338.0</ele><time>2026-04-12T08:29:49.995Z</time></trkpt><trkpt lat="46.6213626" lon="12.6500453"><ele>1338.0</ele><time>2026-04-12T08:29:51.995Z</time></trkpt><trkpt lat="46.6213059" lon="12.6499625"><ele>1338.0</ele><time>2026-04-12T08:29:53.995Z</time></trkpt><trkpt lat="46.6212745" lon="12.649789"><ele>1338.0</ele><time>2026-04-12T08:29:55.996Z</time></trkpt><trkpt lat="46.6212564" lon="12.6496594"><ele>1338.0</ele><time>2026-04-12T08:29:56.996Z</time></trkpt><trkpt lat="46.6212436" lon="12.6495568"><ele>1338.0</ele><time>2026-04-12T08:29:57.995Z</time></trkpt><trkpt lat="46.6212121" lon="12.6493878"><ele>1338.6000000000001</ele><time>2026-04-12T08:29:59.995Z</time></trkpt><trkpt lat="46.6211668" lon="12.6492478"><ele>1339.2</ele><time>2026-04-12T08:30:01.995Z</time></trkpt><trkpt lat="46.6211449" lon="12.6491037"><ele>1339.8</ele><time>2026-04-12T08:30:03.996Z</time></trkpt><trkpt lat="46.6211131" lon="12.6489624"><ele>1340.4</ele><time>2026-04-12T08:30:05.995Z</time></trkpt><trkpt lat="46.621096" lon="12.6488414"><ele>1341.0</ele><time>2026-04-12T08:30:07.995Z</time></trkpt><trkpt lat="46.6210645" lon="12.6487334"><ele>1339.1999999999998</ele><time>2026-04-12T08:30:54.995Z</time></trkpt><trkpt lat="46.6210355" lon="12.6486407"><ele>1337.3999999999999</ele><time>2026-04-12T08:30:56.995Z</time></trkpt><trkpt lat="46.621003" lon="12.6484679"><ele>1335.6</ele><time>2026-04-12T08:30:58.995Z</time></trkpt><trkpt lat="46.6209735" lon="12.6483129"><ele>1333.8</ele><time>2026-04-12T08:31:00.995Z</time></trkpt><trkpt lat="46.6209436" lon="12.6481672"><ele>1332.0</ele><time>2026-04-12T08:31:02.995Z</time></trkpt><trkpt lat="46.6209233" lon="12.6480333"><ele>1332.0</ele><time>2026-04-12T08:31:04.995Z</time></trkpt><trkpt lat="46.6209008" lon="12.6479062"><ele>1332.0</ele><time>2026-04-12T08:31:06.995Z</time></trkpt><trkpt lat="46.6208641" lon="12.6477803"><ele>1332.0</ele><time>2026-04-12T08:31:08.995Z</time></trkpt><trkpt lat="46.6208006" lon="12.6476531"><ele>1332.0</ele><time>2026-04-12T08:31:10.995Z</time></trkpt><trkpt lat="46.6207606" lon="12.6475803"><ele>1332.0</ele><time>2026-04-12T08:31:11.995Z</time></trkpt><trkpt lat="46.6207103" lon="12.6474992"><ele>1332.0</ele><time>2026-04-12T08:31:12.995Z</time></trkpt><trkpt lat="46.6206541" lon="12.6474259"><ele>1331.7142857142858</ele><time>2026-04-12T08:31:13.996Z</time></trkpt><trkpt lat="46.6205976" lon="12.647359"><ele>1331.4285714285713</ele><time>2026-04-12T08:31:14.994Z</time></trkpt><trkpt lat="46.6205464" lon="12.6472919"><ele>1331.142857142857</ele><time>2026-04-12T08:31:15.995Z</time></trkpt><trkpt lat="46.6204957" lon="12.647224"><ele>1330.857142857143</ele><time>2026-04-12T08:31:16.995Z</time></trkpt><trkpt lat="46.620443" lon="12.6471557"><ele>1330.5714285714284</ele><time>2026-04-12T08:31:17.994Z</time></trkpt><trkpt lat="46.6203912" lon="12.6470905"><ele>1330.2857142857142</ele><time>2026-04-12T08:31:18.994Z</time></trkpt><trkpt lat="46.6203351" lon="12.6470255"><ele>1330.0</ele><time>2026-04-12T08:31:19.995Z</time></trkpt><trkpt lat="46.6202739" lon="12.6469459"><ele>1326.857142857143</ele><time>2026-04-12T08:31:20.995Z</time></trkpt><trkpt lat="46.6202178" lon="12.6468637"><ele>1323.7142857142858</ele><time>2026-04-12T08:31:21.995Z</time></trkpt><trkpt lat="46.6201677" lon="12.6467781"><ele>1320.5714285714284</ele><time>2026-04-12T08:31:22.995Z</time></trkpt><trkpt lat="46.6201228" lon="12.6466921"><ele>1317.4285714285716</ele><time>2026-04-12T08:31:23.996Z</time></trkpt><trkpt lat="46.6200709" lon="12.6466074"><ele>1314.2857142857142</ele><time>2026-04-12T08:31:24.995Z</time></trkpt><trkpt lat="46.6200284" lon="12.6465292"><ele>1311.142857142857</ele><time>2026-04-12T08:31:25.995Z</time></trkpt><trkpt lat="46.619984" lon="12.6464598"><ele>1308.0</ele><time>2026-04-12T08:31:26.996Z</time></trkpt><trkpt lat="46.619954" lon="12.6463696"><ele>1308.0</ele><time>2026-04-12T08:31:27.996Z</time></trkpt><trkpt lat="46.6199152" lon="12.6462717"><ele>1308.0</ele><time>2026-04-12T08:31:28.994Z</time></trkpt><trkpt lat="46.6198877" lon="12.6461726"><ele>1308.0</ele><time>2026-04-12T08:31:29.996Z</time></trkpt><trkpt lat="46.6198863" lon="12.6460743"><ele>1308.0</ele><time>2026-04-12T08:31:30.995Z</time></trkpt><trkpt lat="46.619881" lon="12.6459818"><ele>1308.0</ele><time>2026-04-12T08:31:31.995Z</time></trkpt><trkpt lat="46.619902" lon="12.6458548"><ele>1308.0</ele><time>2026-04-12T08:31:33.995Z</time></trkpt><trkpt lat="46.6199067" lon="12.6457552"><ele>1308.0</ele><time>2026-04-12T08:31:43.996Z</time></trkpt><trkpt lat="46.619912" lon="12.6456424"><ele>1307.5714285714284</ele><time>2026-04-12T08:31:46.995Z</time></trkpt><trkpt lat="46.6199459" lon="12.6455631"><ele>1307.142857142857</ele><time>2026-04-12T08:31:58.995Z</time></trkpt><trkpt lat="46.6200051" lon="12.6455302"><ele>1306.7142857142858</ele><time>2026-04-12T08:31:59.995Z</time></trkpt><trkpt lat="46.6200726" lon="12.6454783"><ele>1306.2857142857142</ele><time>2026-04-12T08:32:01.995Z</time></trkpt><trkpt lat="46.6201421" lon="12.6454283"><ele>1305.857142857143</ele><time>2026-04-12T08:32:03.995Z</time></trkpt><trkpt lat="46.6202033" lon="12.6453626"><ele>1305.4285714285713</ele><time>2026-04-12T08:32:06.995Z</time></trkpt><trkpt lat="46.6201586" lon="12.6454481"><ele>1305.0</ele><time>2026-04-12T08:32:14.995Z</time></trkpt><trkpt lat="46.6201012" lon="12.6455075"><ele>1305.0</ele><time>2026-04-12T08:38:24.994Z</time></trkpt><trkpt lat="46.6200273" lon="12.6455635"><ele>1305.0</ele><time>2026-04-12T08:38:26.994Z</time></trkpt><trkpt lat="46.6199536" lon="12.6456091"><ele>1305.0</ele><time>2026-04-12T08:38:28.995Z</time></trkpt><trkpt lat="46.61988" lon="12.645572"><ele>1305.0</ele><time>2026-04-12T08:38:30.995Z</time></trkpt><trkpt lat="46.6198072" lon="12.6454363"><ele>1305.0</ele><time>2026-04-12T08:38:32.994Z</time></trkpt><trkpt lat="46.6197635" lon="12.6452671"><ele>1302.0</ele><time>2026-04-12T08:38:34.994Z</time></trkpt><trkpt lat="46.6197147" lon="12.6451265"><ele>1299.0</ele><time>2026-04-12T08:38:36.995Z</time></trkpt><trkpt lat="46.6196548" lon="12.6449576"><ele>1296.0</ele><time>2026-04-12T08:38:38.995Z</time></trkpt><trkpt lat="46.6196147" lon="12.6448608"><ele>1293.0</ele><time>2026-04-12T08:38:39.994Z</time></trkpt><trkpt lat="46.6195895" lon="12.644766"><ele>1290.0</ele><time>2026-04-12T08:38:40.994Z</time></trkpt><trkpt lat="46.6195607" lon="12.6446675"><ele>1290.0</ele><time>2026-04-12T08:38:41.994Z</time></trkpt><trkpt lat="46.6195502" lon="12.644566"><ele>1290.0</ele><time>2026-04-12T08:38:42.994Z</time></trkpt><trkpt lat="46.6195534" lon="12.6444469"><ele>1290.0</ele><time>2026-04-12T08:38:43.994Z</time></trkpt><trkpt lat="46.6195775" lon="12.6443133"><ele>1290.0</ele><time>2026-04-12T08:38:44.994Z</time></trkpt><trkpt lat="46.6196119" lon="12.6441744"><ele>1290.0</ele><time>2026-04-12T08:38:45.994Z</time></trkpt><trkpt lat="46.6196602" lon="12.6440402"><ele>1289.8</ele><time>2026-04-12T08:38:46.995Z</time></trkpt><trkpt lat="46.6196964" lon="12.6439038"><ele>1289.6</ele><time>2026-04-12T08:38:47.995Z</time></trkpt><trkpt lat="46.6197403" lon="12.6437724"><ele>1289.4</ele><time>2026-04-12T08:38:48.994Z</time></trkpt><trkpt lat="46.6197781" lon="12.6436421"><ele>1289.2</ele><time>2026-04-12T08:38:49.994Z</time></trkpt><trkpt lat="46.6198045" lon="12.6435155"><ele>1289.0</ele><time>2026-04-12T08:38:50.994Z</time></trkpt><trkpt lat="46.6198336" lon="12.6433964"><ele>1289.4</ele><time>2026-04-12T08:38:51.994Z</time></trkpt><trkpt lat="46.6198519" lon="12.6432757"><ele>1289.8000000000002</ele><time>2026-04-12T08:38:52.994Z</time></trkpt><trkpt lat="46.6198653" lon="12.6431385"><ele>1290.1999999999998</ele><time>2026-04-12T08:38:53.994Z</time></trkpt><trkpt lat="46.6198581" lon="12.6430015"><ele>1290.6</ele><time>2026-04-12T08:38:54.994Z</time></trkpt><trkpt lat="46.6198196" lon="12.6428461"><ele>1291.0</ele><time>2026-04-12T08:38:55.994Z</time></trkpt><trkpt lat="46.6197893" lon="12.6427017"><ele>1291.0</ele><time>2026-04-12T08:38:56.994Z</time></trkpt><trkpt lat="46.6197503" lon="12.642558"><ele>1291.0</ele><time>2026-04-12T08:38:57.995Z</time></trkpt><trkpt lat="46.6197125" lon="12.642425"><ele>1291.0</ele><time>2026-04-12T08:38:58.994Z</time></trkpt><trkpt lat="46.6196631" lon="12.6422932"><ele>1291.0</ele><time>2026-04-12T08:38:59.994Z</time></trkpt><trkpt lat="46.6196157" lon="12.642152"><ele>1291.0</ele><time>2026-04-12T08:39:00.995Z</time></trkpt><trkpt lat="46.6195679" lon="12.6420163"><ele>1291.1999999999998</ele><time>2026-04-12T08:39:01.994Z</time></trkpt><trkpt lat="46.6195259" lon="12.6418839"><ele>1291.3999999999999</ele><time>2026-04-12T08:39:02.994Z</time></trkpt><trkpt lat="46.6194842" lon="12.6417383"><ele>1291.6</ele><time>2026-04-12T08:39:03.994Z</time></trkpt><trkpt lat="46.619467" lon="12.6415871"><ele>1291.8</ele><time>2026-04-12T08:39:04.996Z</time></trkpt><trkpt lat="46.619432" lon="12.6414469"><ele>1292.0</ele><time>2026-04-12T08:39:05.995Z</time></trkpt><trkpt lat="46.6194017" lon="12.6413057"><ele>1292.0</ele><time>2026-04-12T08:39:06.994Z</time></trkpt><trkpt lat="46.6193641" lon="12.6411588"><ele>1292.0</ele><time>2026-04-12T08:39:07.994Z</time></trkpt><trkpt lat="46.6193334" lon="12.6410039"><ele>1292.0</ele><time>2026-04-12T08:39:08.995Z</time></trkpt><trkpt lat="46.6192994" lon="12.6408544"><ele>1292.0</ele><time>2026-04-12T08:39:09.994Z</time></trkpt><trkpt lat="46.6192555" lon="12.6406804"><ele>1290.5</ele><time>2026-04-12T08:39:10.994Z</time></trkpt><trkpt lat="46.6192139" lon="12.6405085"><ele>1289.0</ele><time>2026-04-12T08:39:11.995Z</time></trkpt><trkpt lat="46.6191691" lon="12.6403289"><ele>1287.5</ele><time>2026-04-12T08:39:12.995Z</time></trkpt><trkpt lat="46.6191172" lon="12.6401573"><ele>1286.0</ele><time>2026-04-12T08:39:13.995Z</time></trkpt><trkpt lat="46.6190604" lon="12.6399953"><ele>1285.6</ele><time>2026-04-12T08:39:14.995Z</time></trkpt><trkpt lat="46.6189889" lon="12.6398477"><ele>1285.1999999999998</ele><time>2026-04-12T08:39:15.994Z</time></trkpt><trkpt lat="46.6189293" lon="12.6397146"><ele>1284.8000000000002</ele><time>2026-04-12T08:39:16.994Z</time></trkpt><trkpt lat="46.618863" lon="12.6395894"><ele>1284.4</ele><time>2026-04-12T08:39:17.994Z</time></trkpt><trkpt lat="46.618795" lon="12.6394768"><ele>1284.0</ele><time>2026-04-12T08:39:18.994Z</time></trkpt><trkpt lat="46.6187241" lon="12.6393724"><ele>1284.0</ele><time>2026-04-12T08:39:19.994Z</time></trkpt><trkpt lat="46.6186537" lon="12.6392765"><ele>1284.0</ele><time>2026-04-12T08:39:20.995Z</time></trkpt><trkpt lat="46.6185819" lon="12.6391641"><ele>1284.0</ele><time>2026-04-12T08:39:21.995Z</time></trkpt><trkpt lat="46.6185065" lon="12.6390376"><ele>1284.0</ele><time>2026-04-12T08:39:22.995Z</time></trkpt><trkpt lat="46.6184229" lon="12.6388884"><ele>1284.0</ele><time>2026-04-12T08:39:23.994Z</time></trkpt><trkpt lat="46.6183445" lon="12.63873"><ele>1283.5</ele><time>2026-04-12T08:39:24.995Z</time></trkpt><trkpt lat="46.6182782" lon="12.6385592"><ele>1283.0</ele><time>2026-04-12T08:39:25.994Z</time></trkpt><trkpt lat="46.6182127" lon="12.6383981"><ele>1282.5</ele><time>2026-04-12T08:39:26.995Z</time></trkpt><trkpt lat="46.6181524" lon="12.638233"><ele>1282.0</ele><time>2026-04-12T08:39:27.994Z</time></trkpt><trkpt lat="46.6180927" lon="12.6380739"><ele>1282.0</ele><time>2026-04-12T08:39:28.994Z</time></trkpt><trkpt lat="46.618033" lon="12.6379158"><ele>1282.0</ele><time>2026-04-12T08:39:29.994Z</time></trkpt><trkpt lat="46.6179774" lon="12.637761"><ele>1282.0</ele><time>2026-04-12T08:39:30.994Z</time></trkpt><trkpt lat="46.6179125" lon="12.6376085"><ele>1282.0</ele><time>2026-04-12T08:39:31.995Z</time></trkpt><trkpt lat="46.6178391" lon="12.6374372"><ele>1282.75</ele><time>2026-04-12T08:39:32.994Z</time></trkpt><trkpt lat="46.6177661" lon="12.6372813"><ele>1283.5</ele><time>2026-04-12T08:39:33.995Z</time></trkpt><trkpt lat="46.6176916" lon="12.6371317"><ele>1284.25</ele><time>2026-04-12T08:39:34.995Z</time></trkpt><trkpt lat="46.6176154" lon="12.6369861"><ele>1285.0</ele><time>2026-04-12T08:39:35.994Z</time></trkpt><trkpt lat="46.6175368" lon="12.636843"><ele>1281.5</ele><time>2026-04-12T08:39:36.994Z</time></trkpt><trkpt lat="46.6174607" lon="12.6367012"><ele>1278.0</ele><time>2026-04-12T08:39:37.994Z</time></trkpt><trkpt lat="46.6173797" lon="12.6365609"><ele>1274.5</ele><time>2026-04-12T08:39:38.994Z</time></trkpt><trkpt lat="46.6172877" lon="12.6364354"><ele>1271.0</ele><time>2026-04-12T08:39:39.994Z</time></trkpt><trkpt lat="46.6172009" lon="12.6363002"><ele>1271.0</ele><time>2026-04-12T08:39:40.995Z</time></trkpt><trkpt lat="46.6171152" lon="12.6361659"><ele>1271.0</ele><time>2026-04-12T08:39:41.994Z</time></trkpt><trkpt lat="46.617027" lon="12.6360345"><ele>1271.0</ele><time>2026-04-12T08:39:42.994Z</time></trkpt><trkpt lat="46.6169422" lon="12.6359297"><ele>1271.0</ele><time>2026-04-12T08:39:43.995Z</time></trkpt><trkpt lat="46.616861" lon="12.6358171"><ele>1271.5</ele><time>2026-04-12T08:39:44.994Z</time></trkpt><trkpt lat="46.6167772" lon="12.6357042"><ele>1272.0</ele><time>2026-04-12T08:39:45.994Z</time></trkpt><trkpt lat="46.616685" lon="12.6355845"><ele>1272.5</ele><time>2026-04-12T08:39:46.994Z</time></trkpt><trkpt lat="46.616588" lon="12.6354781"><ele>1273.0</ele><time>2026-04-12T08:39:47.994Z</time></trkpt><trkpt lat="46.6164855" lon="12.6353803"><ele>1273.75</ele><time>2026-04-12T08:39:48.994Z</time></trkpt><trkpt lat="46.6163822" lon="12.6352816"><ele>1274.5</ele><time>2026-04-12T08:39:49.994Z</time></trkpt><trkpt lat="46.6162687" lon="12.6351937"><ele>1275.25</ele><time>2026-04-12T08:39:50.995Z</time></trkpt><trkpt lat="46.6161595" lon="12.6351039"><ele>1276.0</ele><time>2026-04-12T08:39:51.994Z</time></trkpt><trkpt lat="46.616055" lon="12.6350047"><ele>1276.0</ele><time>2026-04-12T08:39:52.994Z</time></trkpt><trkpt lat="46.6159483" lon="12.6349076"><ele>1276.0</ele><time>2026-04-12T08:39:53.996Z</time></trkpt><trkpt lat="46.6158503" lon="12.6348029"><ele>1276.0</ele><time>2026-04-12T08:39:54.995Z</time></trkpt><trkpt lat="46.615749" lon="12.6346932"><ele>1276.0</ele><time>2026-04-12T08:39:55.994Z</time></trkpt><trkpt lat="46.6156516" lon="12.6345864"><ele>1277.0</ele><time>2026-04-12T08:39:56.994Z</time></trkpt><trkpt lat="46.6155543" lon="12.634469"><ele>1278.0</ele><time>2026-04-12T08:39:57.994Z</time></trkpt><trkpt lat="46.6154635" lon="12.6343543"><ele>1279.0</ele><time>2026-04-12T08:39:58.994Z</time></trkpt><trkpt lat="46.6153637" lon="12.6342478"><ele>1280.0</ele><time>2026-04-12T08:39:59.995Z</time></trkpt><trkpt lat="46.6152626" lon="12.6341501"><ele>1280.0</ele><time>2026-04-12T08:40:00.994Z</time></trkpt><trkpt lat="46.6151459" lon="12.6340791"><ele>1280.0</ele><time>2026-04-12T08:40:01.994Z</time></trkpt><trkpt lat="46.6150321" lon="12.6340084"><ele>1280.0</ele><time>2026-04-12T08:40:02.994Z</time></trkpt><trkpt lat="46.6149291" lon="12.6339449"><ele>1280.0</ele><time>2026-04-12T08:40:03.994Z</time></trkpt><trkpt lat="46.6148114" lon="12.6339038"><ele>1280.0</ele><time>2026-04-12T08:40:04.995Z</time></trkpt><trkpt lat="46.6146858" lon="12.6338599"><ele>1280.0</ele><time>2026-04-12T08:40:05.994Z</time></trkpt><trkpt lat="46.6145581" lon="12.6338196"><ele>1280.0</ele><time>2026-04-12T08:40:06.994Z</time></trkpt><trkpt lat="46.6144279" lon="12.633797"><ele>1280.0</ele><time>2026-04-12T08:40:07.994Z</time></trkpt><trkpt lat="46.6143055" lon="12.6337675"><ele>1280.2</ele><time>2026-04-12T08:40:08.994Z</time></trkpt><trkpt lat="46.6141915" lon="12.633725"><ele>1280.4</ele><time>2026-04-12T08:40:09.994Z</time></trkpt><trkpt lat="46.6140945" lon="12.6336746"><ele>1280.6</ele><time>2026-04-12T08:40:10.995Z</time></trkpt><trkpt lat="46.6139978" lon="12.6336132"><ele>1280.8</ele><time>2026-04-12T08:40:11.994Z</time></trkpt><trkpt lat="46.6138969" lon="12.6335418"><ele>1281.0</ele><time>2026-04-12T08:40:12.994Z</time></trkpt><trkpt lat="46.613794" lon="12.6334778"><ele>1280.25</ele><time>2026-04-12T08:40:13.995Z</time></trkpt><trkpt lat="46.6136789" lon="12.6334164"><ele>1279.5</ele><time>2026-04-12T08:40:14.995Z</time></trkpt><trkpt lat="46.61357" lon="12.6333619"><ele>1278.75</ele><time>2026-04-12T08:40:15.994Z</time></trkpt><trkpt lat="46.6134487" lon="12.6333209"><ele>1278.0</ele><time>2026-04-12T08:40:16.994Z</time></trkpt><trkpt lat="46.6133269" lon="12.6332891"><ele>1278.0</ele><time>2026-04-12T08:40:17.994Z</time></trkpt><trkpt lat="46.6132045" lon="12.6332861"><ele>1278.0</ele><time>2026-04-12T08:40:18.994Z</time></trkpt><trkpt lat="46.6130763" lon="12.6332912"><ele>1278.0</ele><time>2026-04-12T08:40:19.995Z</time></trkpt><trkpt lat="46.6129573" lon="12.6333014"><ele>1278.0</ele><time>2026-04-12T08:40:20.995Z</time></trkpt><trkpt lat="46.612836" lon="12.6333252"><ele>1277.0</ele><time>2026-04-12T08:40:21.994Z</time></trkpt><trkpt lat="46.6127174" lon="12.6333385"><ele>1276.0</ele><time>2026-04-12T08:40:22.994Z</time></trkpt><trkpt lat="46.612606" lon="12.6333282"><ele>1275.0</ele><time>2026-04-12T08:40:23.994Z</time></trkpt><trkpt lat="46.6124909" lon="12.6332995"><ele>1274.0</ele><time>2026-04-12T08:40:24.994Z</time></trkpt><trkpt lat="46.6123772" lon="12.6332562"><ele>1274.0</ele><time>2026-04-12T08:40:25.994Z</time></trkpt><trkpt lat="46.6122672" lon="12.6332102"><ele>1274.0</ele><time>2026-04-12T08:40:26.995Z</time></trkpt><trkpt lat="46.6121521" lon="12.6331623"><ele>1274.0</ele><time>2026-04-12T08:40:27.994Z</time></trkpt><trkpt lat="46.612039" lon="12.633105"><ele>1274.0</ele><time>2026-04-12T08:40:28.995Z</time></trkpt><trkpt lat="46.6119266" lon="12.633043"><ele>1274.75</ele><time>2026-04-12T08:40:29.994Z</time></trkpt><trkpt lat="46.6118112" lon="12.6329863"><ele>1275.5</ele><time>2026-04-12T08:40:30.994Z</time></trkpt><trkpt lat="46.6116942" lon="12.6329291"><ele>1276.25</ele><time>2026-04-12T08:40:31.994Z</time></trkpt><trkpt lat="46.6115785" lon="12.6328693"><ele>1277.0</ele><time>2026-04-12T08:40:32.994Z</time></trkpt><trkpt lat="46.6114603" lon="12.6328192"><ele>1276.0</ele><time>2026-04-12T08:40:33.995Z</time></trkpt><trkpt lat="46.6113494" lon="12.6327663"><ele>1275.0</ele><time>2026-04-12T08:40:34.995Z</time></trkpt><trkpt lat="46.6112361" lon="12.6327139"><ele>1274.0</ele><time>2026-04-12T08:40:35.995Z</time></trkpt><trkpt lat="46.6111218" lon="12.6326554"><ele>1273.0</ele><time>2026-04-12T08:40:36.994Z</time></trkpt><trkpt lat="46.6110074" lon="12.6326"><ele>1272.25</ele><time>2026-04-12T08:40:37.994Z</time></trkpt><trkpt lat="46.6108951" lon="12.6325475"><ele>1271.5</ele><time>2026-04-12T08:40:38.994Z</time></trkpt><trkpt lat="46.6107778" lon="12.6324903"><ele>1270.75</ele><time>2026-04-12T08:40:39.996Z</time></trkpt><trkpt lat="46.6106629" lon="12.6324313"><ele>1270.0</ele><time>2026-04-12T08:40:40.994Z</time></trkpt><trkpt lat="46.6105499" lon="12.6323695"><ele>1270.0</ele><time>2026-04-12T08:40:41.994Z</time></trkpt><trkpt lat="46.6104382" lon="12.6323006"><ele>1270.0</ele><time>2026-04-12T08:40:42.995Z</time></trkpt><trkpt lat="46.6103288" lon="12.6322347"><ele>1270.0</ele><time>2026-04-12T08:40:43.994Z</time></trkpt><trkpt lat="46.6102212" lon="12.6321614"><ele>1270.0</ele><time>2026-04-12T08:40:44.994Z</time></trkpt><trkpt lat="46.6101129" lon="12.6320805"><ele>1270.25</ele><time>2026-04-12T08:40:45.994Z</time></trkpt><trkpt lat="46.6100009" lon="12.6319957"><ele>1270.5</ele><time>2026-04-12T08:40:46.994Z</time></trkpt><trkpt lat="46.6098832" lon="12.6319163"><ele>1270.75</ele><time>2026-04-12T08:40:47.993Z</time></trkpt><trkpt lat="46.6097532" lon="12.6318351"><ele>1271.0</ele><time>2026-04-12T08:40:48.993Z</time></trkpt><trkpt lat="46.6096328" lon="12.6317567"><ele>1270.0</ele><time>2026-04-12T08:40:49.994Z</time></trkpt><trkpt lat="46.6095132" lon="12.6316744"><ele>1269.0</ele><time>2026-04-12T08:40:50.994Z</time></trkpt><trkpt lat="46.6093915" lon="12.6315987"><ele>1268.0</ele><time>2026-04-12T08:40:51.994Z</time></trkpt><trkpt lat="46.6092739" lon="12.6315212"><ele>1267.0</ele><time>2026-04-12T08:40:52.995Z</time></trkpt><trkpt lat="46.6091577" lon="12.6314427"><ele>1267.0</ele><time>2026-04-12T08:40:53.994Z</time></trkpt><trkpt lat="46.609043" lon="12.6313691"><ele>1267.0</ele><time>2026-04-12T08:40:54.995Z</time></trkpt><trkpt lat="46.6089295" lon="12.6312955"><ele>1267.0</ele><time>2026-04-12T08:40:55.994Z</time></trkpt><trkpt lat="46.6088176" lon="12.6312119"><ele>1267.0</ele><time>2026-04-12T08:40:56.994Z</time></trkpt><trkpt lat="46.6087125" lon="12.6311204"><ele>1265.75</ele><time>2026-04-12T08:40:57.994Z</time></trkpt><trkpt lat="46.608609" lon="12.6310219"><ele>1264.5</ele><time>2026-04-12T08:40:58.995Z</time></trkpt><trkpt lat="46.6085166" lon="12.6309098"><ele>1263.25</ele><time>2026-04-12T08:40:59.994Z</time></trkpt><trkpt lat="46.6084292" lon="12.6307912"><ele>1262.0</ele><time>2026-04-12T08:41:00.994Z</time></trkpt><trkpt lat="46.6083479" lon="12.6306701"><ele>1262.0</ele><time>2026-04-12T08:41:01.994Z</time></trkpt><trkpt lat="46.6082636" lon="12.6305651"><ele>1262.0</ele><time>2026-04-12T08:41:02.994Z</time></trkpt><trkpt lat="46.6081758" lon="12.6304614"><ele>1262.0</ele><time>2026-04-12T08:41:03.994Z</time></trkpt><trkpt lat="46.608081" lon="12.6303706"><ele>1262.0</ele><time>2026-04-12T08:41:04.994Z</time></trkpt><trkpt lat="46.6079706" lon="12.6302975"><ele>1260.5</ele><time>2026-04-12T08:41:05.994Z</time></trkpt><trkpt lat="46.6078572" lon="12.6302401"><ele>1259.0</ele><time>2026-04-12T08:41:06.995Z</time></trkpt><trkpt lat="46.6077495" lon="12.6301808"><ele>1257.5</ele><time>2026-04-12T08:41:07.994Z</time></trkpt><trkpt lat="46.6076419" lon="12.6301216"><ele>1256.0</ele><time>2026-04-12T08:41:08.994Z</time></trkpt><trkpt lat="46.607533" lon="12.6300492"><ele>1256.0</ele><time>2026-04-12T08:41:09.994Z</time></trkpt><trkpt lat="46.6074355" lon="12.6299611"><ele>1256.0</ele><time>2026-04-12T08:41:10.994Z</time></trkpt><trkpt lat="46.6073377" lon="12.6298793"><ele>1256.0</ele><time>2026-04-12T08:41:11.994Z</time></trkpt><trkpt lat="46.6072365" lon="12.6297997"><ele>1256.0</ele><time>2026-04-12T08:41:12.994Z</time></trkpt><trkpt lat="46.6071299" lon="12.6297327"><ele>1256.0</ele><time>2026-04-12T08:41:13.995Z</time></trkpt><trkpt lat="46.6070124" lon="12.6296909"><ele>1256.0</ele><time>2026-04-12T08:41:14.995Z</time></trkpt><trkpt lat="46.6068865" lon="12.6296629"><ele>1256.0</ele><time>2026-04-12T08:41:15.995Z</time></trkpt><trkpt lat="46.6067507" lon="12.6296567"><ele>1256.0</ele><time>2026-04-12T08:41:16.994Z</time></trkpt><trkpt lat="46.606619" lon="12.6296698"><ele>1256.25</ele><time>2026-04-12T08:41:17.994Z</time></trkpt><trkpt lat="46.6064906" lon="12.6297006"><ele>1256.5</ele><time>2026-04-12T08:41:18.993Z</time></trkpt><trkpt lat="46.6063681" lon="12.6297511"><ele>1256.75</ele><time>2026-04-12T08:41:19.994Z</time></trkpt><trkpt lat="46.606237" lon="12.6298108"><ele>1257.0</ele><time>2026-04-12T08:41:20.994Z</time></trkpt><trkpt lat="46.6061201" lon="12.6298624"><ele>1255.75</ele><time>2026-04-12T08:41:21.994Z</time></trkpt><trkpt lat="46.605999" lon="12.6299229"><ele>1254.5</ele><time>2026-04-12T08:41:22.994Z</time></trkpt><trkpt lat="46.6058754" lon="12.6299782"><ele>1253.25</ele><time>2026-04-12T08:41:23.995Z</time></trkpt><trkpt lat="46.6057537" lon="12.6300388"><ele>1252.0</ele><time>2026-04-12T08:41:24.995Z</time></trkpt><trkpt lat="46.6056366" lon="12.630097"><ele>1252.0</ele><time>2026-04-12T08:41:25.994Z</time></trkpt><trkpt lat="46.6055232" lon="12.6301549"><ele>1252.0</ele><time>2026-04-12T08:41:26.994Z</time></trkpt><trkpt lat="46.6054067" lon="12.6302048"><ele>1252.0</ele><time>2026-04-12T08:41:27.994Z</time></trkpt><trkpt lat="46.6052898" lon="12.6302409"><ele>1252.0</ele><time>2026-04-12T08:41:28.994Z</time></trkpt><trkpt lat="46.6051736" lon="12.6302497"><ele>1250.5</ele><time>2026-04-12T08:41:29.994Z</time></trkpt><trkpt lat="46.6050526" lon="12.6302421"><ele>1249.0</ele><time>2026-04-12T08:41:30.995Z</time></trkpt><trkpt lat="46.6049396" lon="12.6302305"><ele>1247.5</ele><time>2026-04-12T08:41:31.994Z</time></trkpt><trkpt lat="46.6048212" lon="12.6302198"><ele>1246.0</ele><time>2026-04-12T08:41:32.994Z</time></trkpt><trkpt lat="46.6047099" lon="12.6302078"><ele>1246.0</ele><time>2026-04-12T08:41:33.995Z</time></trkpt><trkpt lat="46.604593" lon="12.6302125"><ele>1246.0</ele><time>2026-04-12T08:41:34.995Z</time></trkpt><trkpt lat="46.6044753" lon="12.630229"><ele>1246.0</ele><time>2026-04-12T08:41:35.993Z</time></trkpt><trkpt lat="46.6043565" lon="12.6302515"><ele>1246.0</ele><time>2026-04-12T08:41:36.994Z</time></trkpt><trkpt lat="46.6042361" lon="12.6302857"><ele>1247.5</ele><time>2026-04-12T08:41:37.995Z</time></trkpt><trkpt lat="46.6041183" lon="12.630327"><ele>1249.0</ele><time>2026-04-12T08:41:38.993Z</time></trkpt><trkpt lat="46.6040001" lon="12.6303528"><ele>1250.5</ele><time>2026-04-12T08:41:39.994Z</time></trkpt><trkpt lat="46.6038839" lon="12.630381"><ele>1252.0</ele><time>2026-04-12T08:41:40.993Z</time></trkpt><trkpt lat="46.6037704" lon="12.630423"><ele>1250.0</ele><time>2026-04-12T08:41:41.994Z</time></trkpt><trkpt lat="46.6036535" lon="12.6304772"><ele>1248.0</ele><time>2026-04-12T08:41:42.994Z</time></trkpt><trkpt lat="46.6035387" lon="12.6305425"><ele>1246.0</ele><time>2026-04-12T08:41:43.995Z</time></trkpt><trkpt lat="46.6034273" lon="12.6306106"><ele>1244.0</ele><time>2026-04-12T08:41:44.994Z</time></trkpt><trkpt lat="46.603314" lon="12.630679"><ele>1244.0</ele><time>2026-04-12T08:41:45.994Z</time></trkpt><trkpt lat="46.6032031" lon="12.6307505"><ele>1244.0</ele><time>2026-04-12T08:41:46.995Z</time></trkpt><trkpt lat="46.6031001" lon="12.6308144"><ele>1244.0</ele><time>2026-04-12T08:41:47.995Z</time></trkpt><trkpt lat="46.6029957" lon="12.6308752"><ele>1244.0</ele><time>2026-04-12T08:41:48.994Z</time></trkpt><trkpt lat="46.6028836" lon="12.630948"><ele>1243.5</ele><time>2026-04-12T08:41:49.994Z</time></trkpt><trkpt lat="46.6027739" lon="12.6310154"><ele>1243.0</ele><time>2026-04-12T08:41:50.994Z</time></trkpt><trkpt lat="46.6026651" lon="12.6310817"><ele>1242.5</ele><time>2026-04-12T08:41:51.993Z</time></trkpt><trkpt lat="46.6025561" lon="12.6311444"><ele>1242.0</ele><time>2026-04-12T08:41:52.993Z</time></trkpt><trkpt lat="46.602441" lon="12.6311959"><ele>1242.4</ele><time>2026-04-12T08:41:53.994Z</time></trkpt><trkpt lat="46.6023332" lon="12.6312321"><ele>1242.8000000000002</ele><time>2026-04-12T08:41:54.994Z</time></trkpt><trkpt lat="46.6022222" lon="12.6312559"><ele>1243.2</ele><time>2026-04-12T08:41:55.994Z</time></trkpt><trkpt lat="46.6021194" lon="12.6312758"><ele>1243.6000000000001</ele><time>2026-04-12T08:41:56.994Z</time></trkpt><trkpt lat="46.6020081" lon="12.6312884"><ele>1244.0</ele><time>2026-04-12T08:41:57.994Z</time></trkpt><trkpt lat="46.6018958" lon="12.6312886"><ele>1244.0</ele><time>2026-04-12T08:41:58.995Z</time></trkpt><trkpt lat="46.6017904" lon="12.6312776"><ele>1244.0</ele><time>2026-04-12T08:41:59.995Z</time></trkpt><trkpt lat="46.6016848" lon="12.6312551"><ele>1244.0</ele><time>2026-04-12T08:42:00.994Z</time></trkpt><trkpt lat="46.6015828" lon="12.6312396"><ele>1244.0</ele><time>2026-04-12T08:42:01.994Z</time></trkpt><trkpt lat="46.601486" lon="12.6312093"><ele>1244.0</ele><time>2026-04-12T08:42:02.994Z</time></trkpt><trkpt lat="46.6013942" lon="12.6311752"><ele>1245.0</ele><time>2026-04-12T08:42:03.994Z</time></trkpt><trkpt lat="46.6013064" lon="12.6311308"><ele>1246.0</ele><time>2026-04-12T08:42:04.994Z</time></trkpt><trkpt lat="46.6012254" lon="12.6310798"><ele>1247.0</ele><time>2026-04-12T08:42:05.993Z</time></trkpt><trkpt lat="46.6011459" lon="12.6310242"><ele>1248.0</ele><time>2026-04-12T08:42:06.993Z</time></trkpt><trkpt lat="46.6010793" lon="12.630957"><ele>1249.0</ele><time>2026-04-12T08:42:07.994Z</time></trkpt><trkpt lat="46.6010169" lon="12.6308757"><ele>1250.0</ele><time>2026-04-12T08:42:08.994Z</time></trkpt><trkpt lat="46.6009565" lon="12.6307678"><ele>1251.6</ele><time>2026-04-12T08:42:09.994Z</time></trkpt><trkpt lat="46.6009066" lon="12.6306454"><ele>1253.2</ele><time>2026-04-12T08:42:10.993Z</time></trkpt><trkpt lat="46.600856" lon="12.6305262"><ele>1254.8</ele><time>2026-04-12T08:42:11.995Z</time></trkpt><trkpt lat="46.6008043" lon="12.6304091"><ele>1256.4</ele><time>2026-04-12T08:42:12.994Z</time></trkpt><trkpt lat="46.6007276" lon="12.630318"><ele>1258.0</ele><time>2026-04-12T08:42:13.994Z</time></trkpt><trkpt lat="46.6006423" lon="12.6302357"><ele>1259.0</ele><time>2026-04-12T08:42:14.994Z</time></trkpt><trkpt lat="46.6005563" lon="12.6301527"><ele>1260.0</ele><time>2026-04-12T08:42:15.994Z</time></trkpt><trkpt lat="46.6004757" lon="12.6300662"><ele>1261.0</ele><time>2026-04-12T08:42:16.995Z</time></trkpt><trkpt lat="46.6003941" lon="12.6299797"><ele>1262.0</ele><time>2026-04-12T08:42:17.994Z</time></trkpt><trkpt lat="46.6003206" lon="12.6298972"><ele>1263.0</ele><time>2026-04-12T08:42:18.994Z</time></trkpt><trkpt lat="46.6002483" lon="12.6298192"><ele>1264.0</ele><time>2026-04-12T08:42:19.994Z</time></trkpt><trkpt lat="46.600164" lon="12.6297486"><ele>1265.0</ele><time>2026-04-12T08:42:20.994Z</time></trkpt><trkpt lat="46.6000792" lon="12.6297008"><ele>1266.0</ele><time>2026-04-12T08:42:21.994Z</time></trkpt><trkpt lat="46.5999902" lon="12.6296651"><ele>1267.0</ele><time>2026-04-12T08:42:22.994Z</time></trkpt><trkpt lat="46.5998954" lon="12.6296407"><ele>1268.0</ele><time>2026-04-12T08:42:23.995Z</time></trkpt><trkpt lat="46.5997963" lon="12.629642"><ele>1268.0</ele><time>2026-04-12T08:42:24.994Z</time></trkpt><trkpt lat="46.5996969" lon="12.6296514"><ele>1268.0</ele><time>2026-04-12T08:42:25.993Z</time></trkpt><trkpt lat="46.5995943" lon="12.6296617"><ele>1268.0</ele><time>2026-04-12T08:42:26.994Z</time></trkpt><trkpt lat="46.5994915" lon="12.629666"><ele>1268.0</ele><time>2026-04-12T08:42:27.994Z</time></trkpt><trkpt lat="46.5993902" lon="12.6296653"><ele>1268.0</ele><time>2026-04-12T08:42:28.993Z</time></trkpt><trkpt lat="46.5992934" lon="12.6296471"><ele>1263.8333333333335</ele><time>2026-04-12T08:42:29.995Z</time></trkpt><trkpt lat="46.5992073" lon="12.629616"><ele>1259.6666666666667</ele><time>2026-04-12T08:42:30.994Z</time></trkpt><trkpt lat="46.5991306" lon="12.6295868"><ele>1255.5</ele><time>2026-04-12T08:42:31.994Z</time></trkpt><trkpt lat="46.5990567" lon="12.6295643"><ele>1251.3333333333333</ele><time>2026-04-12T08:42:32.995Z</time></trkpt><trkpt lat="46.5989864" lon="12.6295662"><ele>1247.1666666666665</ele><time>2026-04-12T08:42:33.995Z</time></trkpt><trkpt lat="46.5989169" lon="12.6296015"><ele>1243.0</ele><time>2026-04-12T08:42:34.994Z</time></trkpt><trkpt lat="46.5988468" lon="12.6296513"><ele>1243.0</ele><time>2026-04-12T08:42:35.993Z</time></trkpt><trkpt lat="46.5987722" lon="12.6297439"><ele>1243.0</ele><time>2026-04-12T08:42:36.994Z</time></trkpt><trkpt lat="46.5986916" lon="12.6298244"><ele>1243.0</ele><time>2026-04-12T08:42:37.994Z</time></trkpt><trkpt lat="46.5986145" lon="12.6298932"><ele>1243.0</ele><time>2026-04-12T08:42:38.994Z</time></trkpt><trkpt lat="46.5985284" lon="12.6299624"><ele>1243.0</ele><time>2026-04-12T08:42:39.993Z</time></trkpt><trkpt lat="46.5984368" lon="12.6300181"><ele>1248.0</ele><time>2026-04-12T08:42:40.994Z</time></trkpt><trkpt lat="46.5983493" lon="12.6300763"><ele>1253.0</ele><time>2026-04-12T08:42:41.994Z</time></trkpt><trkpt lat="46.5982588" lon="12.630131"><ele>1258.0</ele><time>2026-04-12T08:42:42.994Z</time></trkpt><trkpt lat="46.598171" lon="12.6301988"><ele>1263.0</ele><time>2026-04-12T08:42:43.994Z</time></trkpt><trkpt lat="46.5980903" lon="12.6302619"><ele>1268.0</ele><time>2026-04-12T08:42:44.993Z</time></trkpt><trkpt lat="46.5980138" lon="12.630329"><ele>1268.0</ele><time>2026-04-12T08:42:45.994Z</time></trkpt><trkpt lat="46.5979373" lon="12.6303849"><ele>1268.0</ele><time>2026-04-12T08:42:46.993Z</time></trkpt><trkpt lat="46.59787" lon="12.6304344"><ele>1268.0</ele><time>2026-04-12T08:42:47.994Z</time></trkpt><trkpt lat="46.5977988" lon="12.6304825"><ele>1268.0</ele><time>2026-04-12T08:42:48.994Z</time></trkpt><trkpt lat="46.5977186" lon="12.6305073"><ele>1268.0</ele><time>2026-04-12T08:42:49.994Z</time></trkpt><trkpt lat="46.5976356" lon="12.6305026"><ele>1268.0</ele><time>2026-04-12T08:42:50.994Z</time></trkpt><trkpt lat="46.5975502" lon="12.6304793"><ele>1261.6666666666667</ele><time>2026-04-12T08:42:51.994Z</time></trkpt><trkpt lat="46.5974693" lon="12.6304608"><ele>1255.3333333333335</ele><time>2026-04-12T08:42:52.994Z</time></trkpt><trkpt lat="46.5973933" lon="12.6304555"><ele>1249.0</ele><time>2026-04-12T08:42:53.994Z</time></trkpt><trkpt lat="46.5972846" lon="12.6304998"><ele>1242.6666666666667</ele><time>2026-04-12T08:42:55.993Z</time></trkpt><trkpt lat="46.5971942" lon="12.6305237"><ele>1236.3333333333333</ele><time>2026-04-12T08:42:57.994Z</time></trkpt><trkpt lat="46.5971372" lon="12.6304511"><ele>1230.0</ele><time>2026-04-12T08:42:59.995Z</time></trkpt><trkpt lat="46.5971863" lon="12.6303319"><ele>1224.1666666666667</ele><time>2026-04-12T08:43:01.994Z</time></trkpt><trkpt lat="46.5972468" lon="12.6302837"><ele>1218.3333333333333</ele><time>2026-04-12T08:43:02.994Z</time></trkpt><trkpt lat="46.5973163" lon="12.6302467"><ele>1212.5</ele><time>2026-04-12T08:43:03.994Z</time></trkpt><trkpt lat="46.5973822" lon="12.6302204"><ele>1206.6666666666665</ele><time>2026-04-12T08:43:04.994Z</time></trkpt><trkpt lat="46.5974466" lon="12.6302064"><ele>1200.8333333333333</ele><time>2026-04-12T08:43:05.994Z</time></trkpt><trkpt lat="46.5975123" lon="12.630209"><ele>1195.0</ele><time>2026-04-12T08:43:06.994Z</time></trkpt><trkpt lat="46.5976293" lon="12.6302407"><ele>1195.0</ele><time>2026-04-12T08:43:08.995Z</time></trkpt><trkpt lat="46.5977309" lon="12.6302142"><ele>1195.0</ele><time>2026-04-12T08:43:10.994Z</time></trkpt><trkpt lat="46.5977694" lon="12.6301083"><ele>1195.0</ele><time>2026-04-12T08:43:12.995Z</time></trkpt><trkpt lat="46.5977218" lon="12.6300194"><ele>1195.0</ele><time>2026-04-12T08:43:14.994Z</time></trkpt><trkpt lat="46.5976014" lon="12.6299755"><ele>1195.0</ele><time>2026-04-12T08:43:16.994Z</time></trkpt><trkpt lat="46.5975326" lon="12.6299594"><ele>1195.0</ele><time>2026-04-12T08:43:17.994Z</time></trkpt><trkpt lat="46.597447" lon="12.6299366"><ele>1195.0</ele><time>2026-04-12T08:43:18.994Z</time></trkpt><trkpt lat="46.5973492" lon="12.6299167"><ele>1195.0</ele><time>2026-04-12T08:43:19.994Z</time></trkpt><trkpt lat="46.5972515" lon="12.6299002"><ele>1195.0</ele><time>2026-04-12T08:43:20.994Z</time></trkpt><trkpt lat="46.5971575" lon="12.6298953"><ele>1195.0</ele><time>2026-04-12T08:43:21.993Z</time></trkpt><trkpt lat="46.5970708" lon="12.629891"><ele>1195.0</ele><time>2026-04-12T08:43:22.994Z</time></trkpt><trkpt lat="46.5969966" lon="12.629901"><ele>1195.0</ele><time>2026-04-12T08:43:23.994Z</time></trkpt><trkpt lat="46.5969233" lon="12.6299325"><ele>1195.0</ele><time>2026-04-12T08:43:24.993Z</time></trkpt><trkpt lat="46.5968588" lon="12.6299892"><ele>1195.0</ele><time>2026-04-12T08:43:25.994Z</time></trkpt><trkpt lat="46.596812" lon="12.6300573"><ele>1195.0</ele><time>2026-04-12T08:43:26.997Z</time></trkpt><trkpt lat="46.5967544" lon="12.6301876"><ele>1195.0</ele><time>2026-04-12T08:43:28.994Z</time></trkpt><trkpt lat="46.596722" lon="12.6302976"><ele>1192.6666666666665</ele><time>2026-04-12T08:43:30.994Z</time></trkpt><trkpt lat="46.5966597" lon="12.6303285"><ele>1190.3333333333333</ele><time>2026-04-12T08:43:32.994Z</time></trkpt><trkpt lat="46.5966271" lon="12.6302441"><ele>1188.0</ele><time>2026-04-12T08:43:34.994Z</time></trkpt><trkpt lat="46.5966564" lon="12.6301187"><ele>1185.6666666666667</ele><time>2026-04-12T08:43:36.994Z</time></trkpt><trkpt lat="46.5966716" lon="12.6299866"><ele>1183.3333333333335</ele><time>2026-04-12T08:43:38.994Z</time></trkpt><trkpt lat="46.5966296" lon="12.6298539"><ele>1181.0</ele><time>2026-04-12T08:43:40.996Z</time></trkpt><trkpt lat="46.5965502" lon="12.629752"><ele>1181.0</ele><time>2026-04-12T08:43:42.994Z</time></trkpt><trkpt lat="46.5964438" lon="12.6297"><ele>1181.0</ele><time>2026-04-12T08:43:44.994Z</time></trkpt><trkpt lat="46.5963757" lon="12.6296999"><ele>1181.0</ele><time>2026-04-12T08:43:45.994Z</time></trkpt><trkpt lat="46.5963054" lon="12.6297134"><ele>1181.0</ele><time>2026-04-12T08:43:46.995Z</time></trkpt><trkpt lat="46.596238" lon="12.6297402"><ele>1181.0</ele><time>2026-04-12T08:43:47.994Z</time></trkpt><trkpt lat="46.5961742" lon="12.6297737"><ele>1181.0</ele><time>2026-04-12T08:43:48.995Z</time></trkpt><trkpt lat="46.5961077" lon="12.6298181"><ele>1174.5</ele><time>2026-04-12T08:43:49.994Z</time></trkpt><trkpt lat="46.596045" lon="12.6298798"><ele>1168.0</ele><time>2026-04-12T08:43:50.995Z</time></trkpt><trkpt lat="46.5959866" lon="12.6299628"><ele>1161.5</ele><time>2026-04-12T08:43:51.994Z</time></trkpt><trkpt lat="46.5959401" lon="12.6300535"><ele>1155.0</ele><time>2026-04-12T08:43:52.994Z</time></trkpt><trkpt lat="46.5958957" lon="12.6301379"><ele>1148.5</ele><time>2026-04-12T08:43:53.994Z</time></trkpt><trkpt lat="46.5958552" lon="12.6302243"><ele>1142.0</ele><time>2026-04-12T08:43:54.994Z</time></trkpt><trkpt lat="46.595795" lon="12.6303703"><ele>1142.0</ele><time>2026-04-12T08:43:56.994Z</time></trkpt><trkpt lat="46.5957001" lon="12.6304621"><ele>1142.0</ele><time>2026-04-12T08:43:58.994Z</time></trkpt><trkpt lat="46.595637" lon="12.6304604"><ele>1142.0</ele><time>2026-04-12T08:43:59.994Z</time></trkpt><trkpt lat="46.5955696" lon="12.6304248"><ele>1142.0</ele><time>2026-04-12T08:44:00.995Z</time></trkpt><trkpt lat="46.5955116" lon="12.6303677"><ele>1142.0</ele><time>2026-04-12T08:44:01.994Z</time></trkpt><trkpt lat="46.5954523" lon="12.630311"><ele>1142.0</ele><time>2026-04-12T08:44:02.994Z</time></trkpt><trkpt lat="46.5953901" lon="12.6302707"><ele>1140.5</ele><time>2026-04-12T08:44:03.995Z</time></trkpt><trkpt lat="46.5953191" lon="12.6302618"><ele>1139.0</ele><time>2026-04-12T08:44:04.994Z</time></trkpt><trkpt lat="46.5952469" lon="12.6302863"><ele>1137.5</ele><time>2026-04-12T08:44:05.994Z</time></trkpt><trkpt lat="46.5951738" lon="12.6303347"><ele>1136.0</ele><time>2026-04-12T08:44:06.994Z</time></trkpt><trkpt lat="46.595101" lon="12.6303896"><ele>1134.5</ele><time>2026-04-12T08:44:07.995Z</time></trkpt><trkpt lat="46.595027" lon="12.6304543"><ele>1133.0</ele><time>2026-04-12T08:44:08.994Z</time></trkpt><trkpt lat="46.5949542" lon="12.6305158"><ele>1133.0</ele><time>2026-04-12T08:44:09.994Z</time></trkpt><trkpt lat="46.5948833" lon="12.6305728"><ele>1133.0</ele><time>2026-04-12T08:44:10.995Z</time></trkpt><trkpt lat="46.5948123" lon="12.630634"><ele>1133.0</ele><time>2026-04-12T08:44:11.994Z</time></trkpt><trkpt lat="46.594751" lon="12.6307016"><ele>1133.0</ele><time>2026-04-12T08:44:12.994Z</time></trkpt><trkpt lat="46.5946894" lon="12.6307696"><ele>1133.0</ele><time>2026-04-12T08:44:13.995Z</time></trkpt><trkpt lat="46.5946336" lon="12.6308388"><ele>1133.0</ele><time>2026-04-12T08:44:14.994Z</time></trkpt><trkpt lat="46.5945755" lon="12.6309123"><ele>1133.0</ele><time>2026-04-12T08:44:15.994Z</time></trkpt><trkpt lat="46.5945243" lon="12.6309808"><ele>1133.0</ele><time>2026-04-12T08:44:16.994Z</time></trkpt><trkpt lat="46.5944749" lon="12.631047"><ele>1133.0</ele><time>2026-04-12T08:44:17.995Z</time></trkpt><trkpt lat="46.5944221" lon="12.6311112"><ele>1133.0</ele><time>2026-04-12T08:44:18.994Z</time></trkpt><trkpt lat="46.5943604" lon="12.6311672"><ele>1133.0</ele><time>2026-04-12T08:44:19.994Z</time></trkpt><trkpt lat="46.5942939" lon="12.6312066"><ele>1133.0</ele><time>2026-04-12T08:44:20.995Z</time></trkpt><trkpt lat="46.5942172" lon="12.6312228"><ele>1133.0</ele><time>2026-04-12T08:44:21.994Z</time></trkpt><trkpt lat="46.5941265" lon="12.6312114"><ele>1133.0</ele><time>2026-04-12T08:44:22.994Z</time></trkpt><trkpt lat="46.5940277" lon="12.6311941"><ele>1133.0</ele><time>2026-04-12T08:44:23.995Z</time></trkpt><trkpt lat="46.5939277" lon="12.631179"><ele>1133.0</ele><time>2026-04-12T08:44:24.994Z</time></trkpt><trkpt lat="46.5938378" lon="12.6311517"><ele>1133.0</ele><time>2026-04-12T08:44:25.994Z</time></trkpt><trkpt lat="46.593754" lon="12.6311147"><ele>1133.0</ele><time>2026-04-12T08:44:26.995Z</time></trkpt><trkpt lat="46.5936802" lon="12.6310799"><ele>1133.0</ele><time>2026-04-12T08:44:27.994Z</time></trkpt><trkpt lat="46.5936106" lon="12.6310495"><ele>1133.0</ele><time>2026-04-12T08:44:28.994Z</time></trkpt><trkpt lat="46.5935442" lon="12.6310411"><ele>1133.0</ele><time>2026-04-12T08:44:29.994Z</time></trkpt><trkpt lat="46.5934746" lon="12.6310701"><ele>1133.0</ele><time>2026-04-12T08:44:30.994Z</time></trkpt><trkpt lat="46.5934121" lon="12.6311262"><ele>1133.0</ele><time>2026-04-12T08:44:31.994Z</time></trkpt><trkpt lat="46.5933612" lon="12.6311881"><ele>1133.0</ele><time>2026-04-12T08:44:32.995Z</time></trkpt><trkpt lat="46.5932699" lon="12.6312955"><ele>1133.0</ele><time>2026-04-12T08:44:34.994Z</time></trkpt><trkpt lat="46.593208" lon="12.6313222"><ele>1133.0</ele><time>2026-04-12T08:44:35.994Z</time></trkpt><trkpt lat="46.5931373" lon="12.6313114"><ele>1133.0</ele><time>2026-04-12T08:44:36.994Z</time></trkpt><trkpt lat="46.5930511" lon="12.6312765"><ele>1133.0</ele><time>2026-04-12T08:44:37.995Z</time></trkpt><trkpt lat="46.592978" lon="12.6312259"><ele>1133.0</ele><time>2026-04-12T08:44:38.994Z</time></trkpt><trkpt lat="46.5928921" lon="12.6311782"><ele>1133.0</ele><time>2026-04-12T08:44:39.994Z</time></trkpt><trkpt lat="46.5927863" lon="12.6310948"><ele>1133.0</ele><time>2026-04-12T08:44:40.994Z</time></trkpt><trkpt lat="46.5926531" lon="12.6310041"><ele>1133.0</ele><time>2026-04-12T08:44:41.995Z</time></trkpt><trkpt lat="46.5925351" lon="12.6309652"><ele>1133.0</ele><time>2026-04-12T08:44:42.994Z</time></trkpt><trkpt lat="46.5924379" lon="12.6308993"><ele>1133.0</ele><time>2026-04-12T08:44:43.995Z</time></trkpt><trkpt lat="46.5923333" lon="12.6308612"><ele>1133.0</ele><time>2026-04-12T08:44:44.994Z</time></trkpt><trkpt lat="46.5922329" lon="12.6308269"><ele>1133.0</ele><time>2026-04-12T08:44:45.994Z</time></trkpt><trkpt lat="46.5921316" lon="12.6307902"><ele>1133.0</ele><time>2026-04-12T08:44:46.995Z</time></trkpt><trkpt lat="46.5917762" lon="12.6306152"><ele>1133.0</ele><time>2026-04-12T08:44:50.994Z</time></trkpt><trkpt lat="46.5916616" lon="12.6305545"><ele>1133.0</ele><time>2026-04-12T08:44:51.994Z</time></trkpt><trkpt lat="46.5916012" lon="12.6303136"><ele>1133.0</ele><time>2026-04-12T08:44:52.994Z</time></trkpt><trkpt lat="46.5915435" lon="12.6301189"><ele>1133.0</ele><time>2026-04-12T08:44:53.994Z</time></trkpt><trkpt lat="46.5914351" lon="12.629965"><ele>1133.0</ele><time>2026-04-12T08:44:54.995Z</time></trkpt><trkpt lat="46.5913645" lon="12.6298714"><ele>1133.0</ele><time>2026-04-12T08:44:55.995Z</time></trkpt><trkpt lat="46.5912964" lon="12.6297876"><ele>1133.0</ele><time>2026-04-12T08:44:56.994Z</time></trkpt><trkpt lat="46.5912235" lon="12.6297001"><ele>1133.0</ele><time>2026-04-12T08:44:57.994Z</time></trkpt><trkpt lat="46.5911383" lon="12.6296243"><ele>1133.0</ele><time>2026-04-12T08:44:58.994Z</time></trkpt><trkpt lat="46.591055" lon="12.6295533"><ele>1133.0</ele><time>2026-04-12T08:44:59.995Z</time></trkpt><trkpt lat="46.5909823" lon="12.6294673"><ele>1133.0</ele><time>2026-04-12T08:45:00.994Z</time></trkpt><trkpt lat="46.5909156" lon="12.6293716"><ele>1133.0</ele><time>2026-04-12T08:45:01.994Z</time></trkpt><trkpt lat="46.5908513" lon="12.629271"><ele>1133.0</ele><time>2026-04-12T08:45:02.995Z</time></trkpt><trkpt lat="46.5907875" lon="12.6291731"><ele>1133.0</ele><time>2026-04-12T08:45:03.994Z</time></trkpt><trkpt lat="46.5907183" lon="12.6290767"><ele>1133.0</ele><time>2026-04-12T08:45:04.995Z</time></trkpt><trkpt lat="46.5906496" lon="12.6289753"><ele>1133.0</ele><time>2026-04-12T08:45:05.994Z</time></trkpt><trkpt lat="46.5905818" lon="12.6288825"><ele>1133.0</ele><time>2026-04-12T08:45:06.994Z</time></trkpt><trkpt lat="46.5905189" lon="12.6287954"><ele>1133.0</ele><time>2026-04-12T08:45:07.994Z</time></trkpt><trkpt lat="46.5904378" lon="12.6287149"><ele>1133.0</ele><time>2026-04-12T08:45:08.994Z</time></trkpt><trkpt lat="46.5903529" lon="12.6286451"><ele>1133.0</ele><time>2026-04-12T08:45:09.994Z</time></trkpt><trkpt lat="46.5902556" lon="12.6285811"><ele>1133.0</ele><time>2026-04-12T08:45:10.995Z</time></trkpt><trkpt lat="46.590156" lon="12.6285319"><ele>1133.0</ele><time>2026-04-12T08:45:11.994Z</time></trkpt><trkpt lat="46.5900547" lon="12.6284867"><ele>1133.0</ele><time>2026-04-12T08:45:12.995Z</time></trkpt><trkpt lat="46.589953" lon="12.6284445"><ele>1133.0</ele><time>2026-04-12T08:45:13.994Z</time></trkpt><trkpt lat="46.5898533" lon="12.6283883"><ele>1133.0</ele><time>2026-04-12T08:45:14.994Z</time></trkpt><trkpt lat="46.5897617" lon="12.6283267"><ele>1133.0</ele><time>2026-04-12T08:45:15.994Z</time></trkpt><trkpt lat="46.5896678" lon="12.6282699"><ele>1133.0</ele><time>2026-04-12T08:45:16.994Z</time></trkpt><trkpt lat="46.5895768" lon="12.62821"><ele>1133.0</ele><time>2026-04-12T08:45:17.994Z</time></trkpt><trkpt lat="46.5894874" lon="12.6281478"><ele>1133.0</ele><time>2026-04-12T08:45:18.994Z</time></trkpt><trkpt lat="46.5893948" lon="12.6280909"><ele>1133.0</ele><time>2026-04-12T08:45:19.994Z</time></trkpt><trkpt lat="46.5892987" lon="12.6280391"><ele>1133.0</ele><time>2026-04-12T08:45:20.994Z</time></trkpt><trkpt lat="46.5892017" lon="12.627993"><ele>1133.0</ele><time>2026-04-12T08:45:21.994Z</time></trkpt><trkpt lat="46.5890989" lon="12.627945"><ele>1133.0</ele><time>2026-04-12T08:45:22.994Z</time></trkpt><trkpt lat="46.5889965" lon="12.627893"><ele>1133.0</ele><time>2026-04-12T08:45:23.994Z</time></trkpt><trkpt lat="46.588896" lon="12.6278485"><ele>1133.0</ele><time>2026-04-12T08:45:24.994Z</time></trkpt><trkpt lat="46.5887988" lon="12.6278017"><ele>1133.0</ele><time>2026-04-12T08:45:25.994Z</time></trkpt><trkpt lat="46.5887033" lon="12.6277531"><ele>1133.0</ele><time>2026-04-12T08:45:26.994Z</time></trkpt><trkpt lat="46.5886097" lon="12.6277061"><ele>1133.0</ele><time>2026-04-12T08:45:27.994Z</time></trkpt><trkpt lat="46.5885157" lon="12.6276526"><ele>1133.0</ele><time>2026-04-12T08:45:28.994Z</time></trkpt><trkpt lat="46.5884168" lon="12.6276045"><ele>1133.0</ele><time>2026-04-12T08:45:29.995Z</time></trkpt><trkpt lat="46.5883068" lon="12.6275583"><ele>1133.0</ele><time>2026-04-12T08:45:30.994Z</time></trkpt><trkpt lat="46.588193" lon="12.6275282"><ele>1133.0</ele><time>2026-04-12T08:45:31.994Z</time></trkpt><trkpt lat="46.5880729" lon="12.6275078"><ele>1133.0</ele><time>2026-04-12T08:45:32.994Z</time></trkpt><trkpt lat="46.5879614" lon="12.6274908"><ele>1133.0</ele><time>2026-04-12T08:45:33.994Z</time></trkpt><trkpt lat="46.5878511" lon="12.6274837"><ele>1133.0</ele><time>2026-04-12T08:45:34.994Z</time></trkpt><trkpt lat="46.5877435" lon="12.6274778"><ele>1133.0</ele><time>2026-04-12T08:45:35.995Z</time></trkpt><trkpt lat="46.587639" lon="12.6274656"><ele>1133.0</ele><time>2026-04-12T08:45:36.994Z</time></trkpt><trkpt lat="46.5875349" lon="12.6274583"><ele>1133.0</ele><time>2026-04-12T08:45:37.995Z</time></trkpt><trkpt lat="46.5874287" lon="12.6274486"><ele>1120.6</ele><time>2026-04-12T08:45:38.994Z</time></trkpt><trkpt lat="46.5873204" lon="12.6274342"><ele>1108.1999999999998</ele><time>2026-04-12T08:45:39.995Z</time></trkpt><trkpt lat="46.5872129" lon="12.6274092"><ele>1095.8</ele><time>2026-04-12T08:45:40.994Z</time></trkpt><trkpt lat="46.5871109" lon="12.6273784"><ele>1083.3999999999999</ele><time>2026-04-12T08:45:41.994Z</time></trkpt><trkpt lat="46.5870081" lon="12.6273446"><ele>1071.0</ele><time>2026-04-12T08:45:42.994Z</time></trkpt><trkpt lat="46.5869057" lon="12.6273181"><ele>1071.0</ele><time>2026-04-12T08:45:43.994Z</time></trkpt><trkpt lat="46.5868005" lon="12.627294"><ele>1071.0</ele><time>2026-04-12T08:45:44.994Z</time></trkpt><trkpt lat="46.5866855" lon="12.6272559"><ele>1071.0</ele><time>2026-04-12T08:45:45.995Z</time></trkpt><trkpt lat="46.5865819" lon="12.6272102"><ele>1071.0</ele><time>2026-04-12T08:45:46.994Z</time></trkpt><trkpt lat="46.5864804" lon="12.6271567"><ele>1071.0</ele><time>2026-04-12T08:45:47.995Z</time></trkpt><trkpt lat="46.5863861" lon="12.6270938"><ele>1071.0</ele><time>2026-04-12T08:45:48.994Z</time></trkpt><trkpt lat="46.5862976" lon="12.6270195"><ele>1071.0</ele><time>2026-04-12T08:45:49.994Z</time></trkpt><trkpt lat="46.5862085" lon="12.6269461"><ele>1071.0</ele><time>2026-04-12T08:45:50.994Z</time></trkpt><trkpt lat="46.586118" lon="12.6268799"><ele>1071.0</ele><time>2026-04-12T08:45:51.994Z</time></trkpt><trkpt lat="46.5860291" lon="12.6268244"><ele>1071.0</ele><time>2026-04-12T08:45:52.994Z</time></trkpt><trkpt lat="46.5859335" lon="12.6267906"><ele>1068.25</ele><time>2026-04-12T08:45:53.995Z</time></trkpt><trkpt lat="46.5858327" lon="12.6267774"><ele>1065.5</ele><time>2026-04-12T08:45:54.994Z</time></trkpt><trkpt lat="46.5857159" lon="12.6267907"><ele>1062.75</ele><time>2026-04-12T08:45:55.994Z</time></trkpt><trkpt lat="46.5855833" lon="12.6268271"><ele>1060.0</ele><time>2026-04-12T08:45:56.995Z</time></trkpt><trkpt lat="46.5854608" lon="12.6268665"><ele>1063.0</ele><time>2026-04-12T08:45:57.994Z</time></trkpt><trkpt lat="46.5853408" lon="12.6268998"><ele>1066.0</ele><time>2026-04-12T08:45:58.994Z</time></trkpt><trkpt lat="46.5852251" lon="12.6269179"><ele>1069.0</ele><time>2026-04-12T08:45:59.994Z</time></trkpt><trkpt lat="46.5851142" lon="12.626916"><ele>1072.0</ele><time>2026-04-12T08:46:00.994Z</time></trkpt><trkpt lat="46.5850072" lon="12.6268917"><ele>1072.0</ele><time>2026-04-12T08:46:01.994Z</time></trkpt><trkpt lat="46.5848869" lon="12.6268472"><ele>1072.0</ele><time>2026-04-12T08:46:02.994Z</time></trkpt><trkpt lat="46.5847615" lon="12.6267767"><ele>1072.0</ele><time>2026-04-12T08:46:03.994Z</time></trkpt><trkpt lat="46.5846518" lon="12.6267185"><ele>1072.0</ele><time>2026-04-12T08:46:04.994Z</time></trkpt><trkpt lat="46.5845451" lon="12.6266755"><ele>1068.2</ele><time>2026-04-12T08:46:05.995Z</time></trkpt><trkpt lat="46.5844229" lon="12.6266363"><ele>1064.4</ele><time>2026-04-12T08:46:06.994Z</time></trkpt><trkpt lat="46.5843034" lon="12.6266146"><ele>1060.6</ele><time>2026-04-12T08:46:07.994Z</time></trkpt><trkpt lat="46.5842017" lon="12.6266015"><ele>1056.8</ele><time>2026-04-12T08:46:08.994Z</time></trkpt><trkpt lat="46.5841075" lon="12.6265899"><ele>1053.0</ele><time>2026-04-12T08:46:09.994Z</time></trkpt><trkpt lat="46.5840026" lon="12.6265735"><ele>1053.0</ele><time>2026-04-12T08:46:10.994Z</time></trkpt><trkpt lat="46.5839154" lon="12.6265393"><ele>1053.0</ele><time>2026-04-12T08:46:11.994Z</time></trkpt><trkpt lat="46.5838322" lon="12.626485"><ele>1053.0</ele><time>2026-04-12T08:46:12.995Z</time></trkpt><trkpt lat="46.5837397" lon="12.6264087"><ele>1053.0</ele><time>2026-04-12T08:46:13.994Z</time></trkpt><trkpt lat="46.5836434" lon="12.6263247"><ele>1053.0</ele><time>2026-04-12T08:46:14.994Z</time></trkpt><trkpt lat="46.5835626" lon="12.626254"><ele>1055.6</ele><time>2026-04-12T08:46:15.993Z</time></trkpt><trkpt lat="46.5834862" lon="12.6261833"><ele>1058.1999999999998</ele><time>2026-04-12T08:46:16.993Z</time></trkpt><trkpt lat="46.5834135" lon="12.6261066"><ele>1060.8</ele><time>2026-04-12T08:46:17.993Z</time></trkpt><trkpt lat="46.5833446" lon="12.6260031"><ele>1063.3999999999999</ele><time>2026-04-12T08:46:18.994Z</time></trkpt><trkpt lat="46.5832727" lon="12.6258657"><ele>1066.0</ele><time>2026-04-12T08:46:19.993Z</time></trkpt><trkpt lat="46.5831973" lon="12.6257292"><ele>1066.0</ele><time>2026-04-12T08:46:20.994Z</time></trkpt><trkpt lat="46.5831261" lon="12.6255968"><ele>1066.0</ele><time>2026-04-12T08:46:21.993Z</time></trkpt><trkpt lat="46.5830637" lon="12.6254671"><ele>1066.0</ele><time>2026-04-12T08:46:22.993Z</time></trkpt><trkpt lat="46.5830025" lon="12.6253457"><ele>1066.0</ele><time>2026-04-12T08:46:23.994Z</time></trkpt><trkpt lat="46.5829449" lon="12.625239"><ele>1066.0</ele><time>2026-04-12T08:46:24.994Z</time></trkpt><trkpt lat="46.5828932" lon="12.6251201"><ele>1062.2</ele><time>2026-04-12T08:46:25.994Z</time></trkpt><trkpt lat="46.5828577" lon="12.6249962"><ele>1058.3999999999999</ele><time>2026-04-12T08:46:26.993Z</time></trkpt><trkpt lat="46.5828308" lon="12.6248594"><ele>1054.6</ele><time>2026-04-12T08:46:27.994Z</time></trkpt><trkpt lat="46.5828102" lon="12.6247099"><ele>1050.8</ele><time>2026-04-12T08:46:28.993Z</time></trkpt><trkpt lat="46.5828122" lon="12.6245617"><ele>1047.0</ele><time>2026-04-12T08:46:29.994Z</time></trkpt><trkpt lat="46.5828196" lon="12.6244357"><ele>1047.0</ele><time>2026-04-12T08:46:30.994Z</time></trkpt><trkpt lat="46.5828275" lon="12.6243221"><ele>1047.0</ele><time>2026-04-12T08:46:31.994Z</time></trkpt><trkpt lat="46.5828346" lon="12.6242168"><ele>1047.0</ele><time>2026-04-12T08:46:32.993Z</time></trkpt><trkpt lat="46.5828199" lon="12.6241249"><ele>1047.0</ele><time>2026-04-12T08:46:33.993Z</time></trkpt><trkpt lat="46.5827275" lon="12.6240297"><ele>1047.0</ele><time>2026-04-12T08:46:35.994Z</time></trkpt><trkpt lat="46.5826253" lon="12.62411"><ele>1047.0</ele><time>2026-04-12T08:46:37.995Z</time></trkpt><trkpt lat="46.5825997" lon="12.6242036"><ele>1047.0</ele><time>2026-04-12T08:46:38.994Z</time></trkpt><trkpt lat="46.5825853" lon="12.6243257"><ele>1047.0</ele><time>2026-04-12T08:46:39.993Z</time></trkpt><trkpt lat="46.5825733" lon="12.6244492"><ele>1047.0</ele><time>2026-04-12T08:46:40.994Z</time></trkpt><trkpt lat="46.5825498" lon="12.6245625"><ele>1047.0</ele><time>2026-04-12T08:46:41.994Z</time></trkpt><trkpt lat="46.5825399" lon="12.6246771"><ele>1047.0</ele><time>2026-04-12T08:46:42.993Z</time></trkpt><trkpt lat="46.5825275" lon="12.6247945"><ele>1047.0</ele><time>2026-04-12T08:46:43.993Z</time></trkpt><trkpt lat="46.5825164" lon="12.6249043"><ele>1046.3333333333333</ele><time>2026-04-12T08:46:44.994Z</time></trkpt><trkpt lat="46.5825042" lon="12.6250206"><ele>1045.6666666666667</ele><time>2026-04-12T08:46:45.993Z</time></trkpt><trkpt lat="46.5824879" lon="12.6251364"><ele>1045.0</ele><time>2026-04-12T08:46:46.994Z</time></trkpt><trkpt lat="46.5824823" lon="12.6252487"><ele>1044.3333333333335</ele><time>2026-04-12T08:46:47.995Z</time></trkpt><trkpt lat="46.5824822" lon="12.6253583"><ele>1043.6666666666667</ele><time>2026-04-12T08:46:48.993Z</time></trkpt><trkpt lat="46.5824941" lon="12.6254521"><ele>1043.0</ele><time>2026-04-12T08:46:49.994Z</time></trkpt><trkpt lat="46.5825062" lon="12.6255992"><ele>1043.0</ele><time>2026-04-12T08:46:51.993Z</time></trkpt><trkpt lat="46.5824505" lon="12.625685"><ele>1043.0</ele><time>2026-04-12T08:46:53.994Z</time></trkpt><trkpt lat="46.5823751" lon="12.6256125"><ele>1043.0</ele><time>2026-04-12T08:46:55.993Z</time></trkpt><trkpt lat="46.5823391" lon="12.6255123"><ele>1043.0</ele><time>2026-04-12T08:46:56.994Z</time></trkpt><trkpt lat="46.5823063" lon="12.6253589"><ele>1043.0</ele><time>2026-04-12T08:46:57.995Z</time></trkpt><trkpt lat="46.5822808" lon="12.6251931"><ele>1043.0</ele><time>2026-04-12T08:46:58.994Z</time></trkpt><trkpt lat="46.5822725" lon="12.625013"><ele>1043.0</ele><time>2026-04-12T08:46:59.993Z</time></trkpt><trkpt lat="46.5822603" lon="12.6248398"><ele>1043.0</ele><time>2026-04-12T08:47:00.994Z</time></trkpt><trkpt lat="46.5822484" lon="12.6246692"><ele>1043.0</ele><time>2026-04-12T08:47:01.994Z</time></trkpt><trkpt lat="46.5822254" lon="12.624503"><ele>1043.8</ele><time>2026-04-12T08:47:02.994Z</time></trkpt><trkpt lat="46.582201" lon="12.6243472"><ele>1044.6</ele><time>2026-04-12T08:47:03.993Z</time></trkpt><trkpt lat="46.5821766" lon="12.624195"><ele>1045.4</ele><time>2026-04-12T08:47:04.993Z</time></trkpt><trkpt lat="46.5821541" lon="12.624051"><ele>1046.2</ele><time>2026-04-12T08:47:05.993Z</time></trkpt><trkpt lat="46.5821383" lon="12.6239072"><ele>1047.0</ele><time>2026-04-12T08:47:06.994Z</time></trkpt><trkpt lat="46.5821281" lon="12.6237763"><ele>1047.0</ele><time>2026-04-12T08:47:07.993Z</time></trkpt><trkpt lat="46.5821222" lon="12.623647"><ele>1047.0</ele><time>2026-04-12T08:47:08.994Z</time></trkpt><trkpt lat="46.5821182" lon="12.6235191"><ele>1047.0</ele><time>2026-04-12T08:47:09.994Z</time></trkpt><trkpt lat="46.5821178" lon="12.6234126"><ele>1047.0</ele><time>2026-04-12T08:47:10.995Z</time></trkpt><trkpt lat="46.5821118" lon="12.6233163"><ele>1047.0</ele><time>2026-04-12T08:47:11.993Z</time></trkpt><trkpt lat="46.5820837" lon="12.6232166"><ele>1047.0</ele><time>2026-04-12T08:47:12.993Z</time></trkpt><trkpt lat="46.5819961" lon="12.6231196"><ele>1041.0</ele><time>2026-04-12T08:47:14.994Z</time></trkpt><trkpt lat="46.5818899" lon="12.6231836"><ele>1035.0</ele><time>2026-04-12T08:47:16.993Z</time></trkpt><trkpt lat="46.5818633" lon="12.6232682"><ele>1029.0</ele><time>2026-04-12T08:47:17.994Z</time></trkpt><trkpt lat="46.5818336" lon="12.6233573"><ele>1023.0</ele><time>2026-04-12T08:47:18.994Z</time></trkpt><trkpt lat="46.5817554" lon="12.6234992"><ele>1017.0</ele><time>2026-04-12T08:47:20.994Z</time></trkpt><trkpt lat="46.5816888" lon="12.623538"><ele>1011.0</ele><time>2026-04-12T08:47:21.993Z</time></trkpt><trkpt lat="46.5816144" lon="12.6235379"><ele>1010.9999999999999</ele><time>2026-04-12T08:47:22.994Z</time></trkpt><trkpt lat="46.581541" lon="12.6235325"><ele>1011.0</ele><time>2026-04-12T08:47:23.994Z</time></trkpt><trkpt lat="46.581469" lon="12.6235269"><ele>1010.9999999999999</ele><time>2026-04-12T08:47:24.994Z</time></trkpt><trkpt lat="46.5813991" lon="12.623523"><ele>1010.9999999999999</ele><time>2026-04-12T08:47:25.994Z</time></trkpt><trkpt lat="46.5813309" lon="12.6235138"><ele>1011.0</ele><time>2026-04-12T08:47:26.993Z</time></trkpt><trkpt lat="46.5812581" lon="12.6235125"><ele>1010.9999999999999</ele><time>2026-04-12T08:47:27.993Z</time></trkpt><trkpt lat="46.5811827" lon="12.623515"><ele>1010.9999999999999</ele><time>2026-04-12T08:47:28.993Z</time></trkpt><trkpt lat="46.5810665" lon="12.6234967"><ele>1011.3333333333334</ele><time>2026-04-12T08:47:30.994Z</time></trkpt><trkpt lat="46.5809939" lon="12.6234726"><ele>1011.6666666666667</ele><time>2026-04-12T08:47:32.993Z</time></trkpt><trkpt lat="46.5809375" lon="12.6233788"><ele>1012.0</ele><time>2026-04-12T08:47:34.993Z</time></trkpt><trkpt lat="46.5809265" lon="12.6232818"><ele>1012.3333333333334</ele><time>2026-04-12T08:47:35.994Z</time></trkpt><trkpt lat="46.5809278" lon="12.6231564"><ele>1012.6666666666667</ele><time>2026-04-12T08:47:36.994Z</time></trkpt><trkpt lat="46.5809273" lon="12.6229993"><ele>1013.0</ele><time>2026-04-12T08:47:37.993Z</time></trkpt><trkpt lat="46.5809279" lon="12.6228065"><ele>1012.0</ele><time>2026-04-12T08:47:38.994Z</time></trkpt><trkpt lat="46.580922" lon="12.6226115"><ele>1011.0</ele><time>2026-04-12T08:47:39.994Z</time></trkpt><trkpt lat="46.5809182" lon="12.6223967"><ele>1010.0</ele><time>2026-04-12T08:47:40.994Z</time></trkpt><trkpt lat="46.5809115" lon="12.6221656"><ele>1009.0</ele><time>2026-04-12T08:47:41.993Z</time></trkpt><trkpt lat="46.5808945" lon="12.6219363"><ele>1007.75</ele><time>2026-04-12T08:47:42.993Z</time></trkpt><trkpt lat="46.5808813" lon="12.6217132"><ele>1006.5</ele><time>2026-04-12T08:47:43.993Z</time></trkpt><trkpt lat="46.5808689" lon="12.6214964"><ele>1005.25</ele><time>2026-04-12T08:47:44.994Z</time></trkpt><trkpt lat="46.5808517" lon="12.6212871"><ele>1004.0</ele><time>2026-04-12T08:47:45.994Z</time></trkpt><trkpt lat="46.580828" lon="12.6210795"><ele>1003.0</ele><time>2026-04-12T08:47:46.993Z</time></trkpt><trkpt lat="46.5807911" lon="12.6208744"><ele>1002.0</ele><time>2026-04-12T08:47:47.994Z</time></trkpt><trkpt lat="46.580745" lon="12.6206712"><ele>1001.0</ele><time>2026-04-12T08:47:48.993Z</time></trkpt><trkpt lat="46.5806854" lon="12.6204758"><ele>1000.0</ele><time>2026-04-12T08:47:49.993Z</time></trkpt><trkpt lat="46.580616" lon="12.6202925"><ele>1000.0</ele><time>2026-04-12T08:47:50.993Z</time></trkpt><trkpt lat="46.5805322" lon="12.6201119"><ele>1000.0</ele><time>2026-04-12T08:47:51.994Z</time></trkpt><trkpt lat="46.5804445" lon="12.6199396"><ele>1000.0</ele><time>2026-04-12T08:47:52.993Z</time></trkpt><trkpt lat="46.5803524" lon="12.6197766"><ele>1000.0</ele><time>2026-04-12T08:47:53.995Z</time></trkpt><trkpt lat="46.580256" lon="12.6196179"><ele>999.25</ele><time>2026-04-12T08:47:54.994Z</time></trkpt><trkpt lat="46.5801642" lon="12.6194522"><ele>998.5</ele><time>2026-04-12T08:47:55.994Z</time></trkpt><trkpt lat="46.5800747" lon="12.6192837"><ele>997.75</ele><time>2026-04-12T08:47:56.994Z</time></trkpt><trkpt lat="46.579986" lon="12.6191175"><ele>997.0</ele><time>2026-04-12T08:47:57.993Z</time></trkpt><trkpt lat="46.5798988" lon="12.6189497"><ele>997.0</ele><time>2026-04-12T08:47:58.993Z</time></trkpt><trkpt lat="46.5798086" lon="12.6187841"><ele>997.0</ele><time>2026-04-12T08:47:59.993Z</time></trkpt><trkpt lat="46.579716" lon="12.6186214"><ele>997.0</ele><time>2026-04-12T08:48:00.994Z</time></trkpt><trkpt lat="46.5796259" lon="12.6184592"><ele>997.0</ele><time>2026-04-12T08:48:01.993Z</time></trkpt><trkpt lat="46.5795368" lon="12.6182976"><ele>996.75</ele><time>2026-04-12T08:48:02.993Z</time></trkpt><trkpt lat="46.5794473" lon="12.6181344"><ele>996.5</ele><time>2026-04-12T08:48:03.994Z</time></trkpt><trkpt lat="46.579359" lon="12.617972"><ele>996.25</ele><time>2026-04-12T08:48:04.993Z</time></trkpt><trkpt lat="46.5792702" lon="12.6178083"><ele>996.0</ele><time>2026-04-12T08:48:05.993Z</time></trkpt><trkpt lat="46.579184" lon="12.6176472"><ele>996.0</ele><time>2026-04-12T08:48:06.993Z</time></trkpt><trkpt lat="46.5791007" lon="12.6174855"><ele>996.0</ele><time>2026-04-12T08:48:07.993Z</time></trkpt><trkpt lat="46.5790148" lon="12.6173259"><ele>996.0</ele><time>2026-04-12T08:48:08.994Z</time></trkpt><trkpt lat="46.5789285" lon="12.6171679"><ele>996.0</ele><time>2026-04-12T08:48:09.994Z</time></trkpt><trkpt lat="46.578844" lon="12.6170125"><ele>995.0</ele><time>2026-04-12T08:48:10.994Z</time></trkpt><trkpt lat="46.5787592" lon="12.6168535"><ele>994.0</ele><time>2026-04-12T08:48:11.993Z</time></trkpt><trkpt lat="46.5786698" lon="12.6166906"><ele>993.0</ele><time>2026-04-12T08:48:12.993Z</time></trkpt><trkpt lat="46.5785766" lon="12.6165202"><ele>992.0</ele><time>2026-04-12T08:48:13.994Z</time></trkpt><trkpt lat="46.5784774" lon="12.616337"><ele>992.0</ele><time>2026-04-12T08:48:14.995Z</time></trkpt><trkpt lat="46.5783833" lon="12.6161499"><ele>992.0</ele><time>2026-04-12T08:48:15.994Z</time></trkpt><trkpt lat="46.5782952" lon="12.6159462"><ele>992.0</ele><time>2026-04-12T08:48:16.994Z</time></trkpt><trkpt lat="46.5782143" lon="12.6157431"><ele>992.0</ele><time>2026-04-12T08:48:17.993Z</time></trkpt><trkpt lat="46.5781357" lon="12.615538"><ele>992.0</ele><time>2026-04-12T08:48:18.993Z</time></trkpt><trkpt lat="46.5780679" lon="12.6153387"><ele>992.0</ele><time>2026-04-12T08:48:19.994Z</time></trkpt><trkpt lat="46.5780052" lon="12.6151459"><ele>990.5</ele><time>2026-04-12T08:48:20.993Z</time></trkpt><trkpt lat="46.5779498" lon="12.6149501"><ele>989.0</ele><time>2026-04-12T08:48:21.993Z</time></trkpt><trkpt lat="46.577899" lon="12.614753"><ele>987.5</ele><time>2026-04-12T08:48:22.994Z</time></trkpt><trkpt lat="46.5778571" lon="12.6145523"><ele>986.0</ele><time>2026-04-12T08:48:23.994Z</time></trkpt><trkpt lat="46.5778206" lon="12.614347"><ele>989.25</ele><time>2026-04-12T08:48:24.993Z</time></trkpt><trkpt lat="46.577792" lon="12.6141447"><ele>992.5</ele><time>2026-04-12T08:48:25.993Z</time></trkpt><trkpt lat="46.5777639" lon="12.6139372"><ele>995.75</ele><time>2026-04-12T08:48:26.993Z</time></trkpt><trkpt lat="46.5777409" lon="12.6137231"><ele>999.0</ele><time>2026-04-12T08:48:27.994Z</time></trkpt><trkpt lat="46.5777241" lon="12.613514"><ele>999.0</ele><time>2026-04-12T08:48:28.993Z</time></trkpt><trkpt lat="46.5777146" lon="12.6133016"><ele>999.0</ele><time>2026-04-12T08:48:29.993Z</time></trkpt><trkpt lat="46.5777161" lon="12.6130823"><ele>999.0</ele><time>2026-04-12T08:48:30.993Z</time></trkpt><trkpt lat="46.5777128" lon="12.6128701"><ele>999.0</ele><time>2026-04-12T08:48:31.993Z</time></trkpt><trkpt lat="46.577711" lon="12.6126498"><ele>997.6666666666667</ele><time>2026-04-12T08:48:32.994Z</time></trkpt><trkpt lat="46.5777113" lon="12.612431"><ele>996.3333333333334</ele><time>2026-04-12T08:48:33.993Z</time></trkpt><trkpt lat="46.5777104" lon="12.6122108"><ele>995.0</ele><time>2026-04-12T08:48:34.993Z</time></trkpt><trkpt lat="46.5777104" lon="12.6119913"><ele>993.3333333333334</ele><time>2026-04-12T08:48:35.993Z</time></trkpt><trkpt lat="46.5777096" lon="12.6117714"><ele>991.6666666666667</ele><time>2026-04-12T08:48:36.993Z</time></trkpt><trkpt lat="46.5777084" lon="12.61155"><ele>990.0</ele><time>2026-04-12T08:48:37.993Z</time></trkpt><trkpt lat="46.5777113" lon="12.6113304"><ele>991.0</ele><time>2026-04-12T08:48:38.993Z</time></trkpt><trkpt lat="46.5777096" lon="12.6111046"><ele>992.0</ele><time>2026-04-12T08:48:39.993Z</time></trkpt><trkpt lat="46.5777052" lon="12.6108837"><ele>993.0</ele><time>2026-04-12T08:48:40.994Z</time></trkpt><trkpt lat="46.5777041" lon="12.6106645"><ele>993.0</ele><time>2026-04-12T08:48:41.994Z</time></trkpt><trkpt lat="46.5777037" lon="12.6104502"><ele>993.0</ele><time>2026-04-12T08:48:42.993Z</time></trkpt><trkpt lat="46.5777018" lon="12.6102306"><ele>993.0</ele><time>2026-04-12T08:48:43.994Z</time></trkpt><trkpt lat="46.577707" lon="12.6100201"><ele>993.0</ele><time>2026-04-12T08:48:44.993Z</time></trkpt><trkpt lat="46.5777105" lon="12.6098073"><ele>992.75</ele><time>2026-04-12T08:48:45.993Z</time></trkpt><trkpt lat="46.5777098" lon="12.6095943"><ele>992.5</ele><time>2026-04-12T08:48:46.993Z</time></trkpt><trkpt lat="46.5777075" lon="12.609386"><ele>992.25</ele><time>2026-04-12T08:48:47.994Z</time></trkpt><trkpt lat="46.5777077" lon="12.6091831"><ele>992.0</ele><time>2026-04-12T08:48:48.994Z</time></trkpt><trkpt lat="46.5777064" lon="12.6089943"><ele>993.25</ele><time>2026-04-12T08:48:49.994Z</time></trkpt><trkpt lat="46.5777036" lon="12.6088135"><ele>994.5</ele><time>2026-04-12T08:48:50.994Z</time></trkpt><trkpt lat="46.5777029" lon="12.6086402"><ele>995.75</ele><time>2026-04-12T08:48:51.993Z</time></trkpt><trkpt lat="46.5777069" lon="12.6084712"><ele>997.0</ele><time>2026-04-12T08:48:52.993Z</time></trkpt><trkpt lat="46.5777127" lon="12.6082956"><ele>997.5</ele><time>2026-04-12T08:48:53.993Z</time></trkpt><trkpt lat="46.5777186" lon="12.6081192"><ele>998.0</ele><time>2026-04-12T08:48:54.993Z</time></trkpt><trkpt lat="46.5777189" lon="12.6079457"><ele>998.5</ele><time>2026-04-12T08:48:55.994Z</time></trkpt><trkpt lat="46.5777181" lon="12.6077687"><ele>999.0</ele><time>2026-04-12T08:48:56.994Z</time></trkpt><trkpt lat="46.5777214" lon="12.6075801"><ele>999.0</ele><time>2026-04-12T08:48:57.993Z</time></trkpt><trkpt lat="46.5777288" lon="12.6073893"><ele>999.0</ele><time>2026-04-12T08:48:58.995Z</time></trkpt><trkpt lat="46.5777364" lon="12.6071894"><ele>999.0</ele><time>2026-04-12T08:48:59.994Z</time></trkpt><trkpt lat="46.5777432" lon="12.6070028"><ele>999.0</ele><time>2026-04-12T08:49:00.995Z</time></trkpt><trkpt lat="46.5777545" lon="12.6068215"><ele>997.8000000000001</ele><time>2026-04-12T08:49:01.994Z</time></trkpt><trkpt lat="46.5777628" lon="12.6066465"><ele>996.6000000000001</ele><time>2026-04-12T08:49:02.993Z</time></trkpt><trkpt lat="46.5777716" lon="12.6064845"><ele>995.4</ele><time>2026-04-12T08:49:03.993Z</time></trkpt><trkpt lat="46.5777792" lon="12.6063246"><ele>994.2</ele><time>2026-04-12T08:49:04.994Z</time></trkpt><trkpt lat="46.5777859" lon="12.6061698"><ele>993.0</ele><time>2026-04-12T08:49:05.994Z</time></trkpt><trkpt lat="46.577783" lon="12.6060178"><ele>992.2</ele><time>2026-04-12T08:49:06.994Z</time></trkpt><trkpt lat="46.5777628" lon="12.6058788"><ele>991.4</ele><time>2026-04-12T08:49:07.994Z</time></trkpt><trkpt lat="46.5777196" lon="12.6057457"><ele>990.6000000000001</ele><time>2026-04-12T08:49:08.994Z</time></trkpt><trkpt lat="46.5776627" lon="12.6056123"><ele>989.8000000000001</ele><time>2026-04-12T08:49:09.994Z</time></trkpt><trkpt lat="46.5775921" lon="12.6054827"><ele>989.0</ele><time>2026-04-12T08:49:10.993Z</time></trkpt><trkpt lat="46.5775244" lon="12.6053495"><ele>988.0</ele><time>2026-04-12T08:49:11.994Z</time></trkpt><trkpt lat="46.5774683" lon="12.6052194"><ele>987.0000000000001</ele><time>2026-04-12T08:49:12.994Z</time></trkpt><trkpt lat="46.5774074" lon="12.6050923"><ele>986.0000000000001</ele><time>2026-04-12T08:49:13.993Z</time></trkpt><trkpt lat="46.5773497" lon="12.6049624"><ele>985.0</ele><time>2026-04-12T08:49:14.993Z</time></trkpt><trkpt lat="46.5772926" lon="12.6048334"><ele>984.0</ele><time>2026-04-12T08:49:15.994Z</time></trkpt><trkpt lat="46.5772318" lon="12.6047058"><ele>984.0</ele><time>2026-04-12T08:49:16.993Z</time></trkpt><trkpt lat="46.5771706" lon="12.6045906"><ele>984.0000000000001</ele><time>2026-04-12T08:49:17.993Z</time></trkpt><trkpt lat="46.5771136" lon="12.6044668"><ele>984.0000000000001</ele><time>2026-04-12T08:49:18.993Z</time></trkpt><trkpt lat="46.5770542" lon="12.6043395"><ele>984.0</ele><time>2026-04-12T08:49:19.993Z</time></trkpt><trkpt lat="46.5770269" lon="12.6041956"><ele>984.0</ele><time>2026-04-12T08:49:20.993Z</time></trkpt><trkpt lat="46.5770231" lon="12.6040503"><ele>985.0</ele><time>2026-04-12T08:49:21.993Z</time></trkpt><trkpt lat="46.5770362" lon="12.6039078"><ele>986.0000000000001</ele><time>2026-04-12T08:49:22.994Z</time></trkpt><trkpt lat="46.5770434" lon="12.6037605"><ele>987.0000000000001</ele><time>2026-04-12T08:49:23.994Z</time></trkpt><trkpt lat="46.5770205" lon="12.6036119"><ele>988.0</ele><time>2026-04-12T08:49:24.993Z</time></trkpt><trkpt lat="46.5769643" lon="12.6034704"><ele>989.0</ele><time>2026-04-12T08:49:25.993Z</time></trkpt><trkpt lat="46.5768843" lon="12.6033225"><ele>989.75</ele><time>2026-04-12T08:49:26.993Z</time></trkpt><trkpt lat="46.5768061" lon="12.6031785"><ele>990.5</ele><time>2026-04-12T08:49:27.993Z</time></trkpt><trkpt lat="46.5767278" lon="12.6030295"><ele>991.25</ele><time>2026-04-12T08:49:28.994Z</time></trkpt><trkpt lat="46.5766489" lon="12.6028742"><ele>992.0</ele><time>2026-04-12T08:49:29.994Z</time></trkpt><trkpt lat="46.5765722" lon="12.6027181"><ele>992.0</ele><time>2026-04-12T08:49:30.993Z</time></trkpt><trkpt lat="46.5764968" lon="12.602563"><ele>992.0</ele><time>2026-04-12T08:49:31.993Z</time></trkpt><trkpt lat="46.5764241" lon="12.6024047"><ele>992.0</ele><time>2026-04-12T08:49:32.994Z</time></trkpt><trkpt lat="46.5763503" lon="12.6022544"><ele>992.0</ele><time>2026-04-12T08:49:33.993Z</time></trkpt><trkpt lat="46.5762791" lon="12.6021044"><ele>995.5</ele><time>2026-04-12T08:49:34.993Z</time></trkpt><trkpt lat="46.5762069" lon="12.6019561"><ele>999.0</ele><time>2026-04-12T08:49:35.993Z</time></trkpt><trkpt lat="46.5761321" lon="12.601813"><ele>1002.5</ele><time>2026-04-12T08:49:36.993Z</time></trkpt><trkpt lat="46.5760479" lon="12.6016813"><ele>1006.0</ele><time>2026-04-12T08:49:37.993Z</time></trkpt><trkpt lat="46.5759641" lon="12.6015531"><ele>1001.25</ele><time>2026-04-12T08:49:38.994Z</time></trkpt><trkpt lat="46.5758786" lon="12.6014264"><ele>996.5</ele><time>2026-04-12T08:49:39.994Z</time></trkpt><trkpt lat="46.5757901" lon="12.6012972"><ele>991.75</ele><time>2026-04-12T08:49:40.993Z</time></trkpt><trkpt lat="46.5757001" lon="12.6011712"><ele>987.0</ele><time>2026-04-12T08:49:41.993Z</time></trkpt><trkpt lat="46.5756137" lon="12.6010474"><ele>987.0</ele><time>2026-04-12T08:49:42.993Z</time></trkpt><trkpt lat="46.575526" lon="12.6009216"><ele>987.0</ele><time>2026-04-12T08:49:43.993Z</time></trkpt><trkpt lat="46.5754425" lon="12.6007962"><ele>987.0</ele><time>2026-04-12T08:49:44.993Z</time></trkpt><trkpt lat="46.5753607" lon="12.6006739"><ele>987.0</ele><time>2026-04-12T08:49:45.993Z</time></trkpt><trkpt lat="46.575277" lon="12.6005515"><ele>984.5</ele><time>2026-04-12T08:49:46.993Z</time></trkpt><trkpt lat="46.575192" lon="12.6004265"><ele>982.0</ele><time>2026-04-12T08:49:47.993Z</time></trkpt><trkpt lat="46.5751079" lon="12.6003074"><ele>979.5</ele><time>2026-04-12T08:49:48.993Z</time></trkpt><trkpt lat="46.5750266" lon="12.6001876"><ele>977.0</ele><time>2026-04-12T08:49:49.993Z</time></trkpt><trkpt lat="46.5749436" lon="12.6000694"><ele>977.0</ele><time>2026-04-12T08:49:50.993Z</time></trkpt><trkpt lat="46.5748705" lon="12.5999494"><ele>977.0</ele><time>2026-04-12T08:49:51.993Z</time></trkpt><trkpt lat="46.5748137" lon="12.5998191"><ele>977.0</ele><time>2026-04-12T08:49:52.993Z</time></trkpt><trkpt lat="46.5747532" lon="12.5996785"><ele>977.0</ele><time>2026-04-12T08:49:53.993Z</time></trkpt><trkpt lat="46.5746999" lon="12.5995247"><ele>977.0</ele><time>2026-04-12T08:49:54.993Z</time></trkpt><trkpt lat="46.5746545" lon="12.5993612"><ele>975.75</ele><time>2026-04-12T08:49:55.993Z</time></trkpt><trkpt lat="46.5746084" lon="12.5991969"><ele>974.5</ele><time>2026-04-12T08:49:56.993Z</time></trkpt><trkpt lat="46.5745595" lon="12.5990329"><ele>973.25</ele><time>2026-04-12T08:49:57.993Z</time></trkpt><trkpt lat="46.5745153" lon="12.5988609"><ele>972.0</ele><time>2026-04-12T08:49:58.994Z</time></trkpt><trkpt lat="46.5744737" lon="12.5986918"><ele>973.25</ele><time>2026-04-12T08:49:59.993Z</time></trkpt><trkpt lat="46.5744309" lon="12.5985238"><ele>974.5</ele><time>2026-04-12T08:50:00.993Z</time></trkpt><trkpt lat="46.5743798" lon="12.598357"><ele>975.75</ele><time>2026-04-12T08:50:01.993Z</time></trkpt><trkpt lat="46.5743111" lon="12.5981929"><ele>977.0</ele><time>2026-04-12T08:50:02.994Z</time></trkpt><trkpt lat="46.57423" lon="12.5980215"><ele>977.0</ele><time>2026-04-12T08:50:03.993Z</time></trkpt><trkpt lat="46.5741476" lon="12.5978485"><ele>977.0</ele><time>2026-04-12T08:50:04.995Z</time></trkpt><trkpt lat="46.5740643" lon="12.5976784"><ele>977.0</ele><time>2026-04-12T08:50:05.993Z</time></trkpt><trkpt lat="46.5739854" lon="12.5975168"><ele>977.0</ele><time>2026-04-12T08:50:06.993Z</time></trkpt><trkpt lat="46.5739071" lon="12.5973634"><ele>978.25</ele><time>2026-04-12T08:50:07.994Z</time></trkpt><trkpt lat="46.5738307" lon="12.5972139"><ele>979.5</ele><time>2026-04-12T08:50:08.993Z</time></trkpt><trkpt lat="46.5737599" lon="12.5970617"><ele>980.75</ele><time>2026-04-12T08:50:09.993Z</time></trkpt><trkpt lat="46.5736921" lon="12.5969133"><ele>982.0</ele><time>2026-04-12T08:50:10.994Z</time></trkpt><trkpt lat="46.5736169" lon="12.5967744"><ele>978.0</ele><time>2026-04-12T08:50:11.993Z</time></trkpt><trkpt lat="46.5735309" lon="12.5966395"><ele>974.0</ele><time>2026-04-12T08:50:12.993Z</time></trkpt><trkpt lat="46.5734454" lon="12.5965091"><ele>970.0</ele><time>2026-04-12T08:50:13.993Z</time></trkpt><trkpt lat="46.5733537" lon="12.5963802"><ele>966.0</ele><time>2026-04-12T08:50:14.993Z</time></trkpt><trkpt lat="46.5732544" lon="12.5962653"><ele>969.75</ele><time>2026-04-12T08:50:15.994Z</time></trkpt><trkpt lat="46.5731617" lon="12.5961329"><ele>973.5</ele><time>2026-04-12T08:50:16.993Z</time></trkpt><trkpt lat="46.5730771" lon="12.5959927"><ele>977.25</ele><time>2026-04-12T08:50:17.993Z</time></trkpt><trkpt lat="46.5730002" lon="12.5958444"><ele>981.0</ele><time>2026-04-12T08:50:18.993Z</time></trkpt><trkpt lat="46.5729288" lon="12.5956928"><ele>981.0</ele><time>2026-04-12T08:50:19.993Z</time></trkpt><trkpt lat="46.5728573" lon="12.5955373"><ele>981.0</ele><time>2026-04-12T08:50:20.993Z</time></trkpt><trkpt lat="46.5727922" lon="12.5953837"><ele>981.0</ele><time>2026-04-12T08:50:21.993Z</time></trkpt><trkpt lat="46.5727346" lon="12.5952239"><ele>981.0</ele><time>2026-04-12T08:50:22.993Z</time></trkpt><trkpt lat="46.5726847" lon="12.5950458"><ele>977.5</ele><time>2026-04-12T08:50:23.993Z</time></trkpt><trkpt lat="46.5726325" lon="12.5948757"><ele>974.0</ele><time>2026-04-12T08:50:24.994Z</time></trkpt><trkpt lat="46.5725813" lon="12.594705"><ele>970.5</ele><time>2026-04-12T08:50:25.994Z</time></trkpt><trkpt lat="46.572523" lon="12.5945378"><ele>967.0</ele><time>2026-04-12T08:50:26.993Z</time></trkpt><trkpt lat="46.5724587" lon="12.5943726"><ele>967.0</ele><time>2026-04-12T08:50:27.993Z</time></trkpt><trkpt lat="46.5723949" lon="12.5942183"><ele>967.0</ele><time>2026-04-12T08:50:28.993Z</time></trkpt><trkpt lat="46.5723274" lon="12.5940699"><ele>967.0</ele><time>2026-04-12T08:50:29.993Z</time></trkpt><trkpt lat="46.5722556" lon="12.5939335"><ele>967.0</ele><time>2026-04-12T08:50:30.993Z</time></trkpt><trkpt lat="46.5721787" lon="12.5937908"><ele>965.25</ele><time>2026-04-12T08:50:31.994Z</time></trkpt><trkpt lat="46.5721073" lon="12.5936552"><ele>963.5</ele><time>2026-04-12T08:50:32.993Z</time></trkpt><trkpt lat="46.5720309" lon="12.593524"><ele>961.75</ele><time>2026-04-12T08:50:33.993Z</time></trkpt><trkpt lat="46.57196" lon="12.5933918"><ele>960.0</ele><time>2026-04-12T08:50:34.994Z</time></trkpt><trkpt lat="46.5718889" lon="12.5932629"><ele>960.0</ele><time>2026-04-12T08:50:35.994Z</time></trkpt><trkpt lat="46.5718209" lon="12.5931316"><ele>960.0</ele><time>2026-04-12T08:50:36.993Z</time></trkpt><trkpt lat="46.5717573" lon="12.5929996"><ele>960.0</ele><time>2026-04-12T08:50:37.993Z</time></trkpt><trkpt lat="46.5716954" lon="12.5928763"><ele>960.0</ele><time>2026-04-12T08:50:38.993Z</time></trkpt><trkpt lat="46.5716375" lon="12.5927559"><ele>960.0</ele><time>2026-04-12T08:50:39.993Z</time></trkpt><trkpt lat="46.5715776" lon="12.5926354"><ele>960.4</ele><time>2026-04-12T08:50:40.994Z</time></trkpt><trkpt lat="46.5715142" lon="12.5925229"><ele>960.8</ele><time>2026-04-12T08:50:41.993Z</time></trkpt><trkpt lat="46.5714582" lon="12.5924096"><ele>961.2</ele><time>2026-04-12T08:50:42.994Z</time></trkpt><trkpt lat="46.5714009" lon="12.5922985"><ele>961.6</ele><time>2026-04-12T08:50:43.993Z</time></trkpt><trkpt lat="46.571344" lon="12.5921884"><ele>962.0</ele><time>2026-04-12T08:50:44.993Z</time></trkpt><trkpt lat="46.5712892" lon="12.5920783"><ele>961.5000000000001</ele><time>2026-04-12T08:50:45.993Z</time></trkpt><trkpt lat="46.5712281" lon="12.5919755"><ele>961.0</ele><time>2026-04-12T08:50:46.993Z</time></trkpt><trkpt lat="46.5711724" lon="12.5918724"><ele>960.5</ele><time>2026-04-12T08:50:47.993Z</time></trkpt><trkpt lat="46.5711189" lon="12.5917699"><ele>960.0</ele><time>2026-04-12T08:50:48.993Z</time></trkpt><trkpt lat="46.5710601" lon="12.5916738"><ele>959.5000000000001</ele><time>2026-04-12T08:50:49.993Z</time></trkpt><trkpt lat="46.5710024" lon="12.5915781"><ele>959.0</ele><time>2026-04-12T08:50:50.994Z</time></trkpt><trkpt lat="46.5709507" lon="12.5914843"><ele>959.0000000000001</ele><time>2026-04-12T08:50:51.993Z</time></trkpt><trkpt lat="46.5709052" lon="12.5913941"><ele>959.0</ele><time>2026-04-12T08:50:52.993Z</time></trkpt><trkpt lat="46.570861" lon="12.5913045"><ele>959.0</ele><time>2026-04-12T08:50:53.993Z</time></trkpt><trkpt lat="46.5708124" lon="12.5912107"><ele>959.0</ele><time>2026-04-12T08:50:54.993Z</time></trkpt><trkpt lat="46.5707601" lon="12.5911162"><ele>959.0000000000001</ele><time>2026-04-12T08:50:55.993Z</time></trkpt><trkpt lat="46.5707146" lon="12.5910092"><ele>959.0</ele><time>2026-04-12T08:50:56.993Z</time></trkpt><trkpt lat="46.5706585" lon="12.5909019"><ele>959.0000000000001</ele><time>2026-04-12T08:50:57.994Z</time></trkpt><trkpt lat="46.570606" lon="12.590793"><ele>959.0</ele><time>2026-04-12T08:50:58.993Z</time></trkpt><trkpt lat="46.5705545" lon="12.5906917"><ele>959.0</ele><time>2026-04-12T08:50:59.994Z</time></trkpt><trkpt lat="46.5705006" lon="12.5905886"><ele>959.0</ele><time>2026-04-12T08:51:00.993Z</time></trkpt><trkpt lat="46.5704445" lon="12.5904861"><ele>959.0000000000001</ele><time>2026-04-12T08:51:01.993Z</time></trkpt><trkpt lat="46.5703867" lon="12.5903819"><ele>959.0</ele><time>2026-04-12T08:51:02.993Z</time></trkpt><trkpt lat="46.5703265" lon="12.5902842"><ele>958.6666666666667</ele><time>2026-04-12T08:51:03.994Z</time></trkpt><trkpt lat="46.5702596" lon="12.5901902"><ele>958.3333333333334</ele><time>2026-04-12T08:51:04.993Z</time></trkpt><trkpt lat="46.5701901" lon="12.590098"><ele>958.0</ele><time>2026-04-12T08:51:05.994Z</time></trkpt><trkpt lat="46.5701209" lon="12.5900133"><ele>957.6666666666667</ele><time>2026-04-12T08:51:06.994Z</time></trkpt><trkpt lat="46.5700501" lon="12.5899353"><ele>957.3333333333334</ele><time>2026-04-12T08:51:07.993Z</time></trkpt><trkpt lat="46.5699931" lon="12.5898681"><ele>957.0</ele><time>2026-04-12T08:51:08.994Z</time></trkpt><trkpt lat="46.5699419" lon="12.5898092"><ele>957.0</ele><time>2026-04-12T08:51:09.993Z</time></trkpt><trkpt lat="46.5698397" lon="12.5897014"><ele>957.0</ele><time>2026-04-12T08:51:11.994Z</time></trkpt><trkpt lat="46.5697819" lon="12.5896474"><ele>957.0</ele><time>2026-04-12T08:51:12.993Z</time></trkpt><trkpt lat="46.5697278" lon="12.5895913"><ele>957.0</ele><time>2026-04-12T08:51:13.993Z</time></trkpt><trkpt lat="46.5696763" lon="12.5895336"><ele>957.0</ele><time>2026-04-12T08:51:14.992Z</time></trkpt><trkpt lat="46.5696251" lon="12.58947"><ele>957.0</ele><time>2026-04-12T08:51:15.994Z</time></trkpt><trkpt lat="46.5695731" lon="12.5894147"><ele>956.6666666666666</ele><time>2026-04-12T08:51:16.993Z</time></trkpt><trkpt lat="46.5694721" lon="12.5893022"><ele>956.3333333333333</ele><time>2026-04-12T08:51:18.993Z</time></trkpt><trkpt lat="46.5694175" lon="12.5892436"><ele>956.0</ele><time>2026-04-12T08:51:19.993Z</time></trkpt><trkpt lat="46.5693562" lon="12.5891805"><ele>955.6666666666666</ele><time>2026-04-12T08:51:20.993Z</time></trkpt><trkpt lat="46.5692914" lon="12.5891069"><ele>955.3333333333333</ele><time>2026-04-12T08:51:21.994Z</time></trkpt><trkpt lat="46.5692324" lon="12.589035"><ele>955.0</ele><time>2026-04-12T08:51:22.993Z</time></trkpt><trkpt lat="46.5691714" lon="12.5889642"><ele>954.9999999999999</ele><time>2026-04-12T08:51:23.993Z</time></trkpt><trkpt lat="46.5691085" lon="12.5888904"><ele>955.0</ele><time>2026-04-12T08:51:24.993Z</time></trkpt><trkpt lat="46.5690359" lon="12.5888128"><ele>955.0</ele><time>2026-04-12T08:51:25.993Z</time></trkpt><trkpt lat="46.568967" lon="12.58874"><ele>955.0</ele><time>2026-04-12T08:51:26.993Z</time></trkpt><trkpt lat="46.5689074" lon="12.5886729"><ele>954.9999999999999</ele><time>2026-04-12T08:51:27.993Z</time></trkpt><trkpt lat="46.5688484" lon="12.5886001"><ele>955.0</ele><time>2026-04-12T08:51:28.993Z</time></trkpt><trkpt lat="46.5687849" lon="12.5885339"><ele>954.9999999999999</ele><time>2026-04-12T08:51:29.993Z</time></trkpt><trkpt lat="46.5687288" lon="12.5884699"><ele>955.0</ele><time>2026-04-12T08:51:30.993Z</time></trkpt><trkpt lat="46.5686682" lon="12.5884039"><ele>955.0</ele><time>2026-04-12T08:51:31.993Z</time></trkpt><trkpt lat="46.5686029" lon="12.588333"><ele>955.0</ele><time>2026-04-12T08:51:32.994Z</time></trkpt><trkpt lat="46.5685341" lon="12.5882517"><ele>954.9999999999999</ele><time>2026-04-12T08:51:33.993Z</time></trkpt><trkpt lat="46.5684599" lon="12.5881703"><ele>955.0</ele><time>2026-04-12T08:51:34.993Z</time></trkpt><trkpt lat="46.5683887" lon="12.5880919"><ele>954.9999999999999</ele><time>2026-04-12T08:51:35.994Z</time></trkpt><trkpt lat="46.5683191" lon="12.5880161"><ele>955.0</ele><time>2026-04-12T08:51:36.992Z</time></trkpt><trkpt lat="46.5682469" lon="12.5879341"><ele>955.0</ele><time>2026-04-12T08:51:37.993Z</time></trkpt><trkpt lat="46.5681802" lon="12.5878571"><ele>955.0</ele><time>2026-04-12T08:51:38.993Z</time></trkpt><trkpt lat="46.5681069" lon="12.5877766"><ele>954.9999999999999</ele><time>2026-04-12T08:51:39.993Z</time></trkpt><trkpt lat="46.5680358" lon="12.5877006"><ele>955.0</ele><time>2026-04-12T08:51:40.993Z</time></trkpt><trkpt lat="46.5679702" lon="12.5876235"><ele>954.6666666666666</ele><time>2026-04-12T08:51:41.993Z</time></trkpt><trkpt lat="46.5679059" lon="12.5875518"><ele>954.3333333333333</ele><time>2026-04-12T08:51:42.992Z</time></trkpt><trkpt lat="46.567838" lon="12.5874817"><ele>954.0</ele><time>2026-04-12T08:51:43.992Z</time></trkpt><trkpt lat="46.5677751" lon="12.5873983"><ele>953.6666666666667</ele><time>2026-04-12T08:51:44.995Z</time></trkpt><trkpt lat="46.5677075" lon="12.5873308"><ele>953.3333333333334</ele><time>2026-04-12T08:51:45.994Z</time></trkpt><trkpt lat="46.5676394" lon="12.5872568"><ele>953.0</ele><time>2026-04-12T08:51:46.994Z</time></trkpt><trkpt lat="46.5675556" lon="12.5871805"><ele>953.0</ele><time>2026-04-12T08:51:47.992Z</time></trkpt><trkpt lat="46.5674735" lon="12.5870937"><ele>953.0</ele><time>2026-04-12T08:51:48.993Z</time></trkpt><trkpt lat="46.5673949" lon="12.5869999"><ele>953.0</ele><time>2026-04-12T08:51:49.992Z</time></trkpt><trkpt lat="46.5673151" lon="12.5868945"><ele>953.0</ele><time>2026-04-12T08:51:50.993Z</time></trkpt><trkpt lat="46.5672414" lon="12.5867822"><ele>953.0</ele><time>2026-04-12T08:51:51.993Z</time></trkpt><trkpt lat="46.5671656" lon="12.586674"><ele>953.4</ele><time>2026-04-12T08:51:52.994Z</time></trkpt><trkpt lat="46.5670935" lon="12.5865612"><ele>953.8</ele><time>2026-04-12T08:51:53.993Z</time></trkpt><trkpt lat="46.5670193" lon="12.5864445"><ele>954.2</ele><time>2026-04-12T08:51:54.994Z</time></trkpt><trkpt lat="46.566948" lon="12.5863199"><ele>954.6</ele><time>2026-04-12T08:51:55.994Z</time></trkpt><trkpt lat="46.5668739" lon="12.5861961"><ele>955.0</ele><time>2026-04-12T08:51:56.993Z</time></trkpt><trkpt lat="46.5667968" lon="12.5860754"><ele>955.0</ele><time>2026-04-12T08:51:57.994Z</time></trkpt><trkpt lat="46.5667196" lon="12.5859575"><ele>955.0</ele><time>2026-04-12T08:51:58.994Z</time></trkpt><trkpt lat="46.5666389" lon="12.585838"><ele>955.0</ele><time>2026-04-12T08:51:59.992Z</time></trkpt><trkpt lat="46.5665617" lon="12.5857164"><ele>955.0</ele><time>2026-04-12T08:52:00.994Z</time></trkpt><trkpt lat="46.5664845" lon="12.5855831"><ele>955.0</ele><time>2026-04-12T08:52:01.993Z</time></trkpt><trkpt lat="46.5664137" lon="12.5854436"><ele>955.0</ele><time>2026-04-12T08:52:02.993Z</time></trkpt><trkpt lat="46.5663494" lon="12.585298"><ele>955.0</ele><time>2026-04-12T08:52:03.993Z</time></trkpt><trkpt lat="46.5662752" lon="12.5851233"><ele>955.0</ele><time>2026-04-12T08:52:04.993Z</time></trkpt><trkpt lat="46.5662041" lon="12.5849634"><ele>952.25</ele><time>2026-04-12T08:52:05.993Z</time></trkpt><trkpt lat="46.5661423" lon="12.5848019"><ele>949.5</ele><time>2026-04-12T08:52:06.994Z</time></trkpt><trkpt lat="46.5660812" lon="12.5846476"><ele>946.75</ele><time>2026-04-12T08:52:07.993Z</time></trkpt><trkpt lat="46.5660414" lon="12.5844811"><ele>944.0</ele><time>2026-04-12T08:52:08.993Z</time></trkpt><trkpt lat="46.566005" lon="12.5843144"><ele>944.0</ele><time>2026-04-12T08:52:09.993Z</time></trkpt><trkpt lat="46.5659816" lon="12.5841412"><ele>944.0</ele><time>2026-04-12T08:52:10.993Z</time></trkpt><trkpt lat="46.5659645" lon="12.5839568"><ele>944.0</ele><time>2026-04-12T08:52:11.993Z</time></trkpt><trkpt lat="46.5659507" lon="12.5837748"><ele>944.0</ele><time>2026-04-12T08:52:12.993Z</time></trkpt><trkpt lat="46.5659339" lon="12.5835909"><ele>945.0</ele><time>2026-04-12T08:52:13.993Z</time></trkpt><trkpt lat="46.5659083" lon="12.5834036"><ele>946.0</ele><time>2026-04-12T08:52:14.993Z</time></trkpt><trkpt lat="46.5658723" lon="12.5832171"><ele>947.0</ele><time>2026-04-12T08:52:15.993Z</time></trkpt><trkpt lat="46.5658402" lon="12.583047"><ele>948.0</ele><time>2026-04-12T08:52:16.993Z</time></trkpt><trkpt lat="46.5657971" lon="12.5828848"><ele>949.0</ele><time>2026-04-12T08:52:17.993Z</time></trkpt><trkpt lat="46.5657478" lon="12.582729"><ele>950.0</ele><time>2026-04-12T08:52:18.993Z</time></trkpt><trkpt lat="46.5656948" lon="12.5825809"><ele>951.0</ele><time>2026-04-12T08:52:19.993Z</time></trkpt><trkpt lat="46.5656447" lon="12.5824353"><ele>952.0</ele><time>2026-04-12T08:52:20.993Z</time></trkpt><trkpt lat="46.5656019" lon="12.5822886"><ele>952.0</ele><time>2026-04-12T08:52:21.992Z</time></trkpt><trkpt lat="46.5655666" lon="12.5821343"><ele>952.0</ele><time>2026-04-12T08:52:22.994Z</time></trkpt><trkpt lat="46.565542" lon="12.5819787"><ele>952.0</ele><time>2026-04-12T08:52:23.992Z</time></trkpt><trkpt lat="46.565529" lon="12.5818266"><ele>952.0</ele><time>2026-04-12T08:52:24.993Z</time></trkpt><trkpt lat="46.5655207" lon="12.581685"><ele>952.0</ele><time>2026-04-12T08:52:25.993Z</time></trkpt><trkpt lat="46.5655111" lon="12.5815416"><ele>952.0</ele><time>2026-04-12T08:52:26.992Z</time></trkpt><trkpt lat="46.5655033" lon="12.581399"><ele>952.0</ele><time>2026-04-12T08:52:27.992Z</time></trkpt><trkpt lat="46.5654981" lon="12.5812625"><ele>952.0</ele><time>2026-04-12T08:52:28.994Z</time></trkpt><trkpt lat="46.5654876" lon="12.5811247"><ele>952.0</ele><time>2026-04-12T08:52:29.994Z</time></trkpt><trkpt lat="46.5654773" lon="12.5809871"><ele>952.0</ele><time>2026-04-12T08:52:30.992Z</time></trkpt><trkpt lat="46.5654642" lon="12.5808516"><ele>951.9999999999999</ele><time>2026-04-12T08:52:31.993Z</time></trkpt><trkpt lat="46.5654574" lon="12.5807223"><ele>952.0</ele><time>2026-04-12T08:52:32.993Z</time></trkpt><trkpt lat="46.5654402" lon="12.580598"><ele>952.0</ele><time>2026-04-12T08:52:33.993Z</time></trkpt><trkpt lat="46.5654304" lon="12.5804836"><ele>952.0</ele><time>2026-04-12T08:52:34.993Z</time></trkpt><trkpt lat="46.56542" lon="12.580379"><ele>951.9999999999999</ele><time>2026-04-12T08:52:35.992Z</time></trkpt><trkpt lat="46.5654093" lon="12.5802082"><ele>952.0</ele><time>2026-04-12T08:52:37.993Z</time></trkpt><trkpt lat="46.565395" lon="12.5800792"><ele>951.9999999999999</ele><time>2026-04-12T08:52:39.993Z</time></trkpt><trkpt lat="46.5653936" lon="12.579987"><ele>952.0</ele><time>2026-04-12T08:52:42.993Z</time></trkpt><trkpt lat="46.5653565" lon="12.5798951"><ele>952.0</ele><time>2026-04-12T08:54:02.992Z</time></trkpt><trkpt lat="46.5653362" lon="12.5798037"><ele>952.0</ele><time>2026-04-12T08:54:03.992Z</time></trkpt><trkpt lat="46.5653151" lon="12.5796961"><ele>951.9999999999999</ele><time>2026-04-12T08:54:04.993Z</time></trkpt><trkpt lat="46.5652908" lon="12.5795581"><ele>952.0</ele><time>2026-04-12T08:54:05.994Z</time></trkpt><trkpt lat="46.5652659" lon="12.5794148"><ele>950.2</ele><time>2026-04-12T08:54:06.994Z</time></trkpt><trkpt lat="46.5652378" lon="12.5792682"><ele>948.4000000000001</ele><time>2026-04-12T08:54:07.993Z</time></trkpt><trkpt lat="46.565212" lon="12.5791182"><ele>946.5999999999999</ele><time>2026-04-12T08:54:08.993Z</time></trkpt><trkpt lat="46.5651809" lon="12.5789682"><ele>944.8</ele><time>2026-04-12T08:54:09.992Z</time></trkpt><trkpt lat="46.5651485" lon="12.5788049"><ele>943.0</ele><time>2026-04-12T08:54:10.993Z</time></trkpt><trkpt lat="46.5651168" lon="12.5786483"><ele>942.8</ele><time>2026-04-12T08:54:11.993Z</time></trkpt><trkpt lat="46.5650889" lon="12.5784926"><ele>942.5999999999999</ele><time>2026-04-12T08:54:12.993Z</time></trkpt><trkpt lat="46.5650596" lon="12.5783436"><ele>942.4000000000001</ele><time>2026-04-12T08:54:13.993Z</time></trkpt><trkpt lat="46.5650385" lon="12.5781936"><ele>942.2</ele><time>2026-04-12T08:54:14.993Z</time></trkpt><trkpt lat="46.5650263" lon="12.5780417"><ele>942.0</ele><time>2026-04-12T08:54:15.992Z</time></trkpt><trkpt lat="46.5650241" lon="12.5778904"><ele>941.6666666666666</ele><time>2026-04-12T08:54:16.992Z</time></trkpt><trkpt lat="46.5650266" lon="12.5777502"><ele>941.3333333333333</ele><time>2026-04-12T08:54:17.993Z</time></trkpt><trkpt lat="46.5650348" lon="12.5776204"><ele>941.0</ele><time>2026-04-12T08:54:18.993Z</time></trkpt><trkpt lat="46.5650502" lon="12.5774979"><ele>940.6666666666666</ele><time>2026-04-12T08:54:19.992Z</time></trkpt><trkpt lat="46.5650623" lon="12.577382"><ele>940.3333333333333</ele><time>2026-04-12T08:54:20.992Z</time></trkpt><trkpt lat="46.5650765" lon="12.5772744"><ele>940.0</ele><time>2026-04-12T08:54:21.993Z</time></trkpt><trkpt lat="46.5650894" lon="12.5771731"><ele>939.4999999999999</ele><time>2026-04-12T08:54:22.993Z</time></trkpt><trkpt lat="46.5651115" lon="12.5769986"><ele>939.0</ele><time>2026-04-12T08:54:24.993Z</time></trkpt><trkpt lat="46.5651277" lon="12.5768629"><ele>938.5</ele><time>2026-04-12T08:54:26.993Z</time></trkpt><trkpt lat="46.5651484" lon="12.5767397"><ele>938.0</ele><time>2026-04-12T08:54:28.993Z</time></trkpt><trkpt lat="46.5651725" lon="12.5766426"><ele>937.4999999999999</ele><time>2026-04-12T08:54:30.992Z</time></trkpt><trkpt lat="46.5651904" lon="12.5765434"><ele>937.0</ele><time>2026-04-12T08:54:47.993Z</time></trkpt><trkpt lat="46.5651947" lon="12.5763809"><ele>937.0</ele><time>2026-04-12T08:54:49.993Z</time></trkpt><trkpt lat="46.5652038" lon="12.5762682"><ele>937.0</ele><time>2026-04-12T08:54:50.994Z</time></trkpt><trkpt lat="46.5652216" lon="12.5761467"><ele>937.0</ele><time>2026-04-12T08:54:51.993Z</time></trkpt><trkpt lat="46.5652347" lon="12.5760103"><ele>937.0</ele><time>2026-04-12T08:54:52.992Z</time></trkpt><trkpt lat="46.5652404" lon="12.5758653"><ele>937.0</ele><time>2026-04-12T08:54:53.992Z</time></trkpt><trkpt lat="46.5652578" lon="12.5757188"><ele>937.0</ele><time>2026-04-12T08:54:54.994Z</time></trkpt><trkpt lat="46.5652613" lon="12.5755653"><ele>937.0</ele><time>2026-04-12T08:54:55.992Z</time></trkpt><trkpt lat="46.5652439" lon="12.5754064"><ele>937.0</ele><time>2026-04-12T08:54:56.992Z</time></trkpt><trkpt lat="46.565207" lon="12.5752424"><ele>937.0</ele><time>2026-04-12T08:54:57.994Z</time></trkpt><trkpt lat="46.565151" lon="12.5750851"><ele>937.0</ele><time>2026-04-12T08:54:58.993Z</time></trkpt><trkpt lat="46.5650789" lon="12.5749394"><ele>937.0</ele><time>2026-04-12T08:54:59.994Z</time></trkpt><trkpt lat="46.5650031" lon="12.5747993"><ele>937.0</ele><time>2026-04-12T08:55:00.994Z</time></trkpt><trkpt lat="46.564938" lon="12.5746452"><ele>937.0</ele><time>2026-04-12T08:55:01.993Z</time></trkpt><trkpt lat="46.5648853" lon="12.574472"><ele>939.25</ele><time>2026-04-12T08:55:02.992Z</time></trkpt><trkpt lat="46.5648309" lon="12.5742922"><ele>941.5</ele><time>2026-04-12T08:55:03.992Z</time></trkpt><trkpt lat="46.5647809" lon="12.5741092"><ele>943.75</ele><time>2026-04-12T08:55:04.993Z</time></trkpt><trkpt lat="46.5647311" lon="12.5739274"><ele>946.0</ele><time>2026-04-12T08:55:05.993Z</time></trkpt><trkpt lat="46.5646797" lon="12.5737401"><ele>948.75</ele><time>2026-04-12T08:55:06.993Z</time></trkpt><trkpt lat="46.5646194" lon="12.573559"><ele>951.5</ele><time>2026-04-12T08:55:07.992Z</time></trkpt><trkpt lat="46.5645534" lon="12.5733862"><ele>954.25</ele><time>2026-04-12T08:55:08.992Z</time></trkpt><trkpt lat="46.5644818" lon="12.5732208"><ele>957.0</ele><time>2026-04-12T08:55:09.992Z</time></trkpt><trkpt lat="46.5644015" lon="12.5730658"><ele>950.5</ele><time>2026-04-12T08:55:10.993Z</time></trkpt><trkpt lat="46.5643136" lon="12.5729182"><ele>944.0</ele><time>2026-04-12T08:55:11.992Z</time></trkpt><trkpt lat="46.5642217" lon="12.5727824"><ele>937.5</ele><time>2026-04-12T08:55:12.993Z</time></trkpt><trkpt lat="46.5641273" lon="12.5726503"><ele>931.0</ele><time>2026-04-12T08:55:13.992Z</time></trkpt><trkpt lat="46.5640375" lon="12.5725171"><ele>931.0</ele><time>2026-04-12T08:55:14.993Z</time></trkpt><trkpt lat="46.5639519" lon="12.5723763"><ele>931.0</ele><time>2026-04-12T08:55:15.993Z</time></trkpt><trkpt lat="46.5638688" lon="12.5722395"><ele>931.0</ele><time>2026-04-12T08:55:16.993Z</time></trkpt><trkpt lat="46.5637859" lon="12.5721027"><ele>931.0</ele><time>2026-04-12T08:55:17.992Z</time></trkpt><trkpt lat="46.5637005" lon="12.5719675"><ele>930.75</ele><time>2026-04-12T08:55:18.993Z</time></trkpt><trkpt lat="46.5636202" lon="12.5718308"><ele>930.5</ele><time>2026-04-12T08:55:19.993Z</time></trkpt><trkpt lat="46.5635302" lon="12.5716857"><ele>930.25</ele><time>2026-04-12T08:55:20.993Z</time></trkpt><trkpt lat="46.5634435" lon="12.5715468"><ele>930.0</ele><time>2026-04-12T08:55:21.994Z</time></trkpt><trkpt lat="46.5633604" lon="12.5713995"><ele>930.0</ele><time>2026-04-12T08:55:22.993Z</time></trkpt><trkpt lat="46.5632816" lon="12.5712442"><ele>930.0</ele><time>2026-04-12T08:55:23.993Z</time></trkpt><trkpt lat="46.5632101" lon="12.5710793"><ele>930.0</ele><time>2026-04-12T08:55:24.993Z</time></trkpt><trkpt lat="46.5631415" lon="12.5708918"><ele>930.0</ele><time>2026-04-12T08:55:25.994Z</time></trkpt><trkpt lat="46.5630809" lon="12.570694"><ele>931.6666666666667</ele><time>2026-04-12T08:55:26.993Z</time></trkpt><trkpt lat="46.5630128" lon="12.5704932"><ele>933.3333333333334</ele><time>2026-04-12T08:55:27.993Z</time></trkpt><trkpt lat="46.562946" lon="12.57029"><ele>935.0</ele><time>2026-04-12T08:55:28.992Z</time></trkpt><trkpt lat="46.5628764" lon="12.5700852"><ele>931.0</ele><time>2026-04-12T08:55:29.992Z</time></trkpt><trkpt lat="46.5628061" lon="12.5698793"><ele>927.0</ele><time>2026-04-12T08:55:30.992Z</time></trkpt><trkpt lat="46.5627332" lon="12.5696782"><ele>923.0</ele><time>2026-04-12T08:55:31.992Z</time></trkpt><trkpt lat="46.5626624" lon="12.5694752"><ele>923.0</ele><time>2026-04-12T08:55:32.992Z</time></trkpt><trkpt lat="46.5625938" lon="12.5692695"><ele>923.0</ele><time>2026-04-12T08:55:33.993Z</time></trkpt><trkpt lat="46.5625245" lon="12.5690631"><ele>923.0</ele><time>2026-04-12T08:55:34.993Z</time></trkpt><trkpt lat="46.5624545" lon="12.5688614"><ele>924.0</ele><time>2026-04-12T08:55:35.993Z</time></trkpt><trkpt lat="46.562386" lon="12.568656"><ele>925.0</ele><time>2026-04-12T08:55:36.992Z</time></trkpt><trkpt lat="46.5623126" lon="12.5684562"><ele>926.0</ele><time>2026-04-12T08:55:37.993Z</time></trkpt><trkpt lat="46.5622401" lon="12.5682584"><ele>926.0</ele><time>2026-04-12T08:55:38.993Z</time></trkpt><trkpt lat="46.562171" lon="12.5680586"><ele>926.0</ele><time>2026-04-12T08:55:39.994Z</time></trkpt><trkpt lat="46.5620998" lon="12.5678512"><ele>926.0</ele><time>2026-04-12T08:55:40.993Z</time></trkpt><trkpt lat="46.5620223" lon="12.5676365"><ele>924.0</ele><time>2026-04-12T08:55:41.992Z</time></trkpt><trkpt lat="46.5619301" lon="12.5674029"><ele>922.0</ele><time>2026-04-12T08:55:42.992Z</time></trkpt><trkpt lat="46.5618402" lon="12.5671505"><ele>920.0</ele><time>2026-04-12T08:55:43.993Z</time></trkpt><trkpt lat="46.5617488" lon="12.5669016"><ele>920.0</ele><time>2026-04-12T08:55:44.993Z</time></trkpt><trkpt lat="46.5616556" lon="12.5666463"><ele>920.0</ele><time>2026-04-12T08:55:45.993Z</time></trkpt><trkpt lat="46.5615632" lon="12.5663937"><ele>920.0</ele><time>2026-04-12T08:55:46.994Z</time></trkpt><trkpt lat="46.561474" lon="12.5661352"><ele>922.3333333333334</ele><time>2026-04-12T08:55:47.993Z</time></trkpt><trkpt lat="46.5613806" lon="12.5658804"><ele>924.6666666666667</ele><time>2026-04-12T08:55:48.993Z</time></trkpt><trkpt lat="46.5612902" lon="12.5656276"><ele>927.0</ele><time>2026-04-12T08:55:49.992Z</time></trkpt><trkpt lat="46.5611992" lon="12.5653769"><ele>924.0</ele><time>2026-04-12T08:55:50.995Z</time></trkpt><trkpt lat="46.5611064" lon="12.5651266"><ele>921.0</ele><time>2026-04-12T08:55:51.992Z</time></trkpt><trkpt lat="46.5610191" lon="12.5648879"><ele>918.0</ele><time>2026-04-12T08:55:52.992Z</time></trkpt><trkpt lat="46.5609363" lon="12.5646563"><ele>920.3333333333333</ele><time>2026-04-12T08:55:53.993Z</time></trkpt><trkpt lat="46.5608567" lon="12.5644373"><ele>922.6666666666666</ele><time>2026-04-12T08:55:54.992Z</time></trkpt><trkpt lat="46.5607794" lon="12.5642174"><ele>925.0</ele><time>2026-04-12T08:55:55.993Z</time></trkpt><trkpt lat="46.5607144" lon="12.5639974"><ele>925.0</ele><time>2026-04-12T08:55:56.992Z</time></trkpt><trkpt lat="46.5606552" lon="12.5637709"><ele>925.0</ele><time>2026-04-12T08:55:57.993Z</time></trkpt><trkpt lat="46.5606019" lon="12.5635499"><ele>925.0</ele><time>2026-04-12T08:55:58.993Z</time></trkpt><trkpt lat="46.5605514" lon="12.5633382"><ele>926.5</ele><time>2026-04-12T08:55:59.992Z</time></trkpt><trkpt lat="46.5605026" lon="12.5631278"><ele>928.0</ele><time>2026-04-12T08:56:00.993Z</time></trkpt><trkpt lat="46.5604566" lon="12.5629199"><ele>929.5</ele><time>2026-04-12T08:56:01.992Z</time></trkpt><trkpt lat="46.5604122" lon="12.5627189"><ele>931.0</ele><time>2026-04-12T08:56:02.993Z</time></trkpt><trkpt lat="46.5603651" lon="12.5625176"><ele>927.0</ele><time>2026-04-12T08:56:03.993Z</time></trkpt><trkpt lat="46.5603139" lon="12.5623186"><ele>923.0</ele><time>2026-04-12T08:56:04.993Z</time></trkpt><trkpt lat="46.5602708" lon="12.5621184"><ele>919.0</ele><time>2026-04-12T08:56:05.993Z</time></trkpt><trkpt lat="46.5602277" lon="12.5619245"><ele>915.0</ele><time>2026-04-12T08:56:06.992Z</time></trkpt><trkpt lat="46.5601895" lon="12.5617398"><ele>915.0</ele><time>2026-04-12T08:56:07.992Z</time></trkpt><trkpt lat="46.5601506" lon="12.5615569"><ele>915.0</ele><time>2026-04-12T08:56:08.992Z</time></trkpt><trkpt lat="46.5601155" lon="12.5613859"><ele>915.0</ele><time>2026-04-12T08:56:09.993Z</time></trkpt><trkpt lat="46.5600712" lon="12.5612135"><ele>915.0</ele><time>2026-04-12T08:56:10.993Z</time></trkpt><trkpt lat="46.5600332" lon="12.5610354"><ele>915.5</ele><time>2026-04-12T08:56:11.992Z</time></trkpt><trkpt lat="46.5599882" lon="12.5608605"><ele>916.0</ele><time>2026-04-12T08:56:12.993Z</time></trkpt><trkpt lat="46.5599456" lon="12.5606809"><ele>916.5</ele><time>2026-04-12T08:56:13.993Z</time></trkpt><trkpt lat="46.5599041" lon="12.5605021"><ele>917.0</ele><time>2026-04-12T08:56:14.993Z</time></trkpt><trkpt lat="46.5598579" lon="12.5603222"><ele>917.0</ele><time>2026-04-12T08:56:15.993Z</time></trkpt><trkpt lat="46.5598151" lon="12.5601392"><ele>917.0</ele><time>2026-04-12T08:56:16.992Z</time></trkpt><trkpt lat="46.5597749" lon="12.5599575"><ele>917.0</ele><time>2026-04-12T08:56:17.993Z</time></trkpt><trkpt lat="46.5597316" lon="12.5597844"><ele>917.0</ele><time>2026-04-12T08:56:18.993Z</time></trkpt><trkpt lat="46.5596895" lon="12.5596127"><ele>917.0</ele><time>2026-04-12T08:56:19.992Z</time></trkpt><trkpt lat="46.5596477" lon="12.5594379"><ele>917.0</ele><time>2026-04-12T08:56:20.993Z</time></trkpt><trkpt lat="46.5596091" lon="12.5592713"><ele>917.0</ele><time>2026-04-12T08:56:21.992Z</time></trkpt><trkpt lat="46.5595717" lon="12.559098"><ele>917.0</ele><time>2026-04-12T08:56:22.993Z</time></trkpt><trkpt lat="46.5595341" lon="12.5589266"><ele>916.25</ele><time>2026-04-12T08:56:23.994Z</time></trkpt><trkpt lat="46.559495" lon="12.5587575"><ele>915.5</ele><time>2026-04-12T08:56:24.994Z</time></trkpt><trkpt lat="46.5594576" lon="12.558584"><ele>914.75</ele><time>2026-04-12T08:56:25.994Z</time></trkpt><trkpt lat="46.5594254" lon="12.5584149"><ele>914.0</ele><time>2026-04-12T08:56:26.992Z</time></trkpt><trkpt lat="46.5593937" lon="12.5582406"><ele>913.5</ele><time>2026-04-12T08:56:27.993Z</time></trkpt><trkpt lat="46.559364" lon="12.5580688"><ele>913.0</ele><time>2026-04-12T08:56:28.992Z</time></trkpt><trkpt lat="46.5593411" lon="12.5578966"><ele>912.5</ele><time>2026-04-12T08:56:29.993Z</time></trkpt><trkpt lat="46.5593187" lon="12.5577206"><ele>912.0</ele><time>2026-04-12T08:56:30.993Z</time></trkpt><trkpt lat="46.5592908" lon="12.5575503"><ele>911.5</ele><time>2026-04-12T08:56:31.993Z</time></trkpt><trkpt lat="46.5592665" lon="12.5573776"><ele>911.0</ele><time>2026-04-12T08:56:32.994Z</time></trkpt><trkpt lat="46.5592425" lon="12.5572058"><ele>910.5</ele><time>2026-04-12T08:56:33.992Z</time></trkpt><trkpt lat="46.559223" lon="12.5570349"><ele>910.0</ele><time>2026-04-12T08:56:34.992Z</time></trkpt><trkpt lat="46.559197" lon="12.5568665"><ele>910.0</ele><time>2026-04-12T08:56:35.992Z</time></trkpt><trkpt lat="46.5591687" lon="12.556706"><ele>910.0</ele><time>2026-04-12T08:56:36.992Z</time></trkpt><trkpt lat="46.5591419" lon="12.5565461"><ele>910.0</ele><time>2026-04-12T08:56:37.994Z</time></trkpt><trkpt lat="46.559114" lon="12.5563875"><ele>910.0</ele><time>2026-04-12T08:56:38.993Z</time></trkpt><trkpt lat="46.5590913" lon="12.5562295"><ele>910.75</ele><time>2026-04-12T08:56:39.993Z</time></trkpt><trkpt lat="46.559065" lon="12.5560779"><ele>911.5</ele><time>2026-04-12T08:56:40.993Z</time></trkpt><trkpt lat="46.5590379" lon="12.5559195"><ele>912.25</ele><time>2026-04-12T08:56:41.992Z</time></trkpt><trkpt lat="46.5590103" lon="12.5557551"><ele>913.0</ele><time>2026-04-12T08:56:42.993Z</time></trkpt><trkpt lat="46.5589819" lon="12.5555922"><ele>913.0</ele><time>2026-04-12T08:56:43.993Z</time></trkpt><trkpt lat="46.5589519" lon="12.5554066"><ele>913.0</ele><time>2026-04-12T08:56:44.992Z</time></trkpt><trkpt lat="46.5589235" lon="12.5552155"><ele>913.0</ele><time>2026-04-12T08:56:45.992Z</time></trkpt><trkpt lat="46.5588943" lon="12.5550314"><ele>913.0</ele><time>2026-04-12T08:56:46.992Z</time></trkpt><trkpt lat="46.5588662" lon="12.554852"><ele>913.25</ele><time>2026-04-12T08:56:47.992Z</time></trkpt><trkpt lat="46.5588414" lon="12.5546822"><ele>913.5</ele><time>2026-04-12T08:56:48.992Z</time></trkpt><trkpt lat="46.5588182" lon="12.5545169"><ele>913.75</ele><time>2026-04-12T08:56:49.992Z</time></trkpt><trkpt lat="46.5587968" lon="12.5543541"><ele>914.0</ele><time>2026-04-12T08:56:50.992Z</time></trkpt><trkpt lat="46.5587767" lon="12.5541914"><ele>914.25</ele><time>2026-04-12T08:56:51.992Z</time></trkpt><trkpt lat="46.5587527" lon="12.5540247"><ele>914.5</ele><time>2026-04-12T08:56:52.992Z</time></trkpt><trkpt lat="46.558731" lon="12.5538592"><ele>914.75</ele><time>2026-04-12T08:56:53.992Z</time></trkpt><trkpt lat="46.5587022" lon="12.5536949"><ele>915.0</ele><time>2026-04-12T08:56:54.992Z</time></trkpt><trkpt lat="46.5586761" lon="12.5535278"><ele>913.75</ele><time>2026-04-12T08:56:55.992Z</time></trkpt><trkpt lat="46.558647" lon="12.5533589"><ele>912.5</ele><time>2026-04-12T08:56:56.993Z</time></trkpt><trkpt lat="46.5586237" lon="12.5531951"><ele>911.25</ele><time>2026-04-12T08:56:57.993Z</time></trkpt><trkpt lat="46.5585987" lon="12.5530277"><ele>910.0</ele><time>2026-04-12T08:56:58.993Z</time></trkpt><trkpt lat="46.5585712" lon="12.5528712"><ele>910.0</ele><time>2026-04-12T08:56:59.994Z</time></trkpt><trkpt lat="46.5585463" lon="12.5527067"><ele>910.0</ele><time>2026-04-12T08:57:00.994Z</time></trkpt><trkpt lat="46.5585205" lon="12.5525442"><ele>910.0</ele><time>2026-04-12T08:57:01.992Z</time></trkpt><trkpt lat="46.5584928" lon="12.5523781"><ele>910.0</ele><time>2026-04-12T08:57:02.992Z</time></trkpt><trkpt lat="46.5584684" lon="12.5522215"><ele>910.0</ele><time>2026-04-12T08:57:03.992Z</time></trkpt><trkpt lat="46.5584454" lon="12.552065"><ele>910.0</ele><time>2026-04-12T08:57:04.993Z</time></trkpt><trkpt lat="46.5584174" lon="12.5519116"><ele>910.0</ele><time>2026-04-12T08:57:05.992Z</time></trkpt><trkpt lat="46.5583835" lon="12.5517614"><ele>910.0</ele><time>2026-04-12T08:57:06.993Z</time></trkpt><trkpt lat="46.558348" lon="12.5516207"><ele>910.0</ele><time>2026-04-12T08:57:07.992Z</time></trkpt><trkpt lat="46.5583108" lon="12.5514749"><ele>909.8</ele><time>2026-04-12T08:57:08.992Z</time></trkpt><trkpt lat="46.5582707" lon="12.5513325"><ele>909.6</ele><time>2026-04-12T08:57:09.993Z</time></trkpt><trkpt lat="46.5582342" lon="12.5511944"><ele>909.4000000000001</ele><time>2026-04-12T08:57:10.993Z</time></trkpt><trkpt lat="46.5582026" lon="12.5510553"><ele>909.2</ele><time>2026-04-12T08:57:11.994Z</time></trkpt><trkpt lat="46.5581733" lon="12.550918"><ele>909.0</ele><time>2026-04-12T08:57:12.993Z</time></trkpt><trkpt lat="46.5581485" lon="12.5507871"><ele>909.3333333333334</ele><time>2026-04-12T08:57:13.994Z</time></trkpt><trkpt lat="46.558126" lon="12.5506559"><ele>909.6666666666667</ele><time>2026-04-12T08:57:14.992Z</time></trkpt><trkpt lat="46.5581122" lon="12.5505292"><ele>910.0</ele><time>2026-04-12T08:57:15.993Z</time></trkpt><trkpt lat="46.5581044" lon="12.5504154"><ele>910.3333333333334</ele><time>2026-04-12T08:57:16.994Z</time></trkpt><trkpt lat="46.5581075" lon="12.5502931"><ele>910.6666666666667</ele><time>2026-04-12T08:57:17.992Z</time></trkpt><trkpt lat="46.5581052" lon="12.550171"><ele>911.0</ele><time>2026-04-12T08:57:18.994Z</time></trkpt><trkpt lat="46.5581069" lon="12.5500494"><ele>911.3333333333334</ele><time>2026-04-12T08:57:19.992Z</time></trkpt><trkpt lat="46.5581074" lon="12.5499257"><ele>911.6666666666667</ele><time>2026-04-12T08:57:20.993Z</time></trkpt><trkpt lat="46.558096" lon="12.5498192"><ele>912.0</ele><time>2026-04-12T08:57:21.992Z</time></trkpt><trkpt lat="46.5580869" lon="12.5497069"><ele>912.3333333333333</ele><time>2026-04-12T08:57:22.992Z</time></trkpt><trkpt lat="46.5580775" lon="12.5496109"><ele>912.6666666666666</ele><time>2026-04-12T08:57:23.992Z</time></trkpt><trkpt lat="46.5580687" lon="12.5495201"><ele>913.0</ele><time>2026-04-12T08:57:24.993Z</time></trkpt><trkpt lat="46.558048" lon="12.5493522"><ele>912.9999999999999</ele><time>2026-04-12T08:57:26.992Z</time></trkpt><trkpt lat="46.5580371" lon="12.5492306"><ele>913.0</ele><time>2026-04-12T08:57:28.992Z</time></trkpt><trkpt lat="46.5580219" lon="12.5491376"><ele>913.0</ele><time>2026-04-12T08:57:31.993Z</time></trkpt><trkpt lat="46.5579343" lon="12.5490841"><ele>913.0</ele><time>2026-04-12T08:57:34.993Z</time></trkpt><trkpt lat="46.557863" lon="12.5490918"><ele>912.9999999999999</ele><time>2026-04-12T08:57:35.992Z</time></trkpt><trkpt lat="46.5577854" lon="12.5491107"><ele>913.0</ele><time>2026-04-12T08:57:36.992Z</time></trkpt><trkpt lat="46.5576875" lon="12.5491446"><ele>912.4</ele><time>2026-04-12T08:57:37.993Z</time></trkpt><trkpt lat="46.5575855" lon="12.5491774"><ele>911.8</ele><time>2026-04-12T08:57:38.992Z</time></trkpt><trkpt lat="46.557483" lon="12.5492093"><ele>911.2</ele><time>2026-04-12T08:57:39.992Z</time></trkpt><trkpt lat="46.5573812" lon="12.5492534"><ele>910.6</ele><time>2026-04-12T08:57:40.992Z</time></trkpt><trkpt lat="46.5572813" lon="12.5492851"><ele>910.0</ele><time>2026-04-12T08:57:41.992Z</time></trkpt><trkpt lat="46.5571798" lon="12.5493173"><ele>910.0</ele><time>2026-04-12T08:57:42.992Z</time></trkpt><trkpt lat="46.5570793" lon="12.5493537"><ele>910.0</ele><time>2026-04-12T08:57:43.992Z</time></trkpt><trkpt lat="46.5569743" lon="12.5493895"><ele>910.0</ele><time>2026-04-12T08:57:44.993Z</time></trkpt><trkpt lat="46.5568719" lon="12.5494208"><ele>910.0</ele><time>2026-04-12T08:57:45.993Z</time></trkpt><trkpt lat="46.5567702" lon="12.5494521"><ele>910.0</ele><time>2026-04-12T08:57:46.993Z</time></trkpt><trkpt lat="46.556669" lon="12.5494856"><ele>909.25</ele><time>2026-04-12T08:57:47.992Z</time></trkpt><trkpt lat="46.5565669" lon="12.5495222"><ele>908.5</ele><time>2026-04-12T08:57:48.992Z</time></trkpt><trkpt lat="46.556457" lon="12.549555"><ele>907.75</ele><time>2026-04-12T08:57:49.992Z</time></trkpt><trkpt lat="46.5563405" lon="12.5495936"><ele>907.0</ele><time>2026-04-12T08:57:50.993Z</time></trkpt><trkpt lat="46.5562081" lon="12.5496333"><ele>906.25</ele><time>2026-04-12T08:57:51.992Z</time></trkpt><trkpt lat="46.5560812" lon="12.5496785"><ele>905.5</ele><time>2026-04-12T08:57:52.992Z</time></trkpt><trkpt lat="46.5559515" lon="12.5497146"><ele>904.75</ele><time>2026-04-12T08:57:53.992Z</time></trkpt><trkpt lat="46.5558171" lon="12.5497605"><ele>904.0</ele><time>2026-04-12T08:57:54.992Z</time></trkpt><trkpt lat="46.5556819" lon="12.549799"><ele>904.0</ele><time>2026-04-12T08:57:55.992Z</time></trkpt><trkpt lat="46.5555424" lon="12.5498465"><ele>904.0</ele><time>2026-04-12T08:57:56.992Z</time></trkpt><trkpt lat="46.5554037" lon="12.549906"><ele>904.0</ele><time>2026-04-12T08:57:57.992Z</time></trkpt><trkpt lat="46.5552774" lon="12.5499807"><ele>904.0</ele><time>2026-04-12T08:57:58.992Z</time></trkpt><trkpt lat="46.5551588" lon="12.5500648"><ele>903.0</ele><time>2026-04-12T08:57:59.994Z</time></trkpt><trkpt lat="46.5550477" lon="12.550145"><ele>902.0</ele><time>2026-04-12T08:58:00.993Z</time></trkpt><trkpt lat="46.554939" lon="12.5502235"><ele>901.0</ele><time>2026-04-12T08:58:01.992Z</time></trkpt><trkpt lat="46.5548277" lon="12.5502954"><ele>900.0</ele><time>2026-04-12T08:58:02.992Z</time></trkpt><trkpt lat="46.5547075" lon="12.5503459"><ele>900.0</ele><time>2026-04-12T08:58:03.992Z</time></trkpt><trkpt lat="46.5545856" lon="12.5503828"><ele>900.0</ele><time>2026-04-12T08:58:04.993Z</time></trkpt><trkpt lat="46.5544554" lon="12.5503934"><ele>900.0</ele><time>2026-04-12T08:58:05.992Z</time></trkpt><trkpt lat="46.5543173" lon="12.5503748"><ele>900.0</ele><time>2026-04-12T08:58:06.992Z</time></trkpt><trkpt lat="46.5541778" lon="12.5503185"><ele>900.0</ele><time>2026-04-12T08:58:07.992Z</time></trkpt><trkpt lat="46.5540387" lon="12.5502254"><ele>900.0</ele><time>2026-04-12T08:58:08.992Z</time></trkpt><trkpt lat="46.5539116" lon="12.5501099"><ele>900.0</ele><time>2026-04-12T08:58:09.992Z</time></trkpt><trkpt lat="46.5537924" lon="12.5499833"><ele>903.3333333333333</ele><time>2026-04-12T08:58:10.992Z</time></trkpt><trkpt lat="46.5536747" lon="12.5498504"><ele>906.6666666666666</ele><time>2026-04-12T08:58:11.993Z</time></trkpt><trkpt lat="46.5535533" lon="12.5497165"><ele>910.0</ele><time>2026-04-12T08:58:12.992Z</time></trkpt><trkpt lat="46.5534342" lon="12.5495786"><ele>906.0</ele><time>2026-04-12T08:58:13.993Z</time></trkpt><trkpt lat="46.5533119" lon="12.5494439"><ele>902.0</ele><time>2026-04-12T08:58:14.992Z</time></trkpt><trkpt lat="46.5531929" lon="12.5493048"><ele>898.0</ele><time>2026-04-12T08:58:15.992Z</time></trkpt><trkpt lat="46.5530765" lon="12.5491712"><ele>898.0</ele><time>2026-04-12T08:58:16.992Z</time></trkpt><trkpt lat="46.5529759" lon="12.5490464"><ele>898.0</ele><time>2026-04-12T08:58:17.993Z</time></trkpt><trkpt lat="46.5528885" lon="12.548928"><ele>898.0</ele><time>2026-04-12T08:58:18.992Z</time></trkpt><trkpt lat="46.5528106" lon="12.5488109"><ele>898.0</ele><time>2026-04-12T08:58:19.992Z</time></trkpt><trkpt lat="46.5527488" lon="12.5486934"><ele>898.8</ele><time>2026-04-12T08:58:20.992Z</time></trkpt><trkpt lat="46.5526937" lon="12.5485762"><ele>899.5999999999999</ele><time>2026-04-12T08:58:21.992Z</time></trkpt><trkpt lat="46.5526428" lon="12.548461"><ele>900.4000000000001</ele><time>2026-04-12T08:58:22.992Z</time></trkpt><trkpt lat="46.5525949" lon="12.5483382"><ele>901.2</ele><time>2026-04-12T08:58:23.992Z</time></trkpt><trkpt lat="46.5525466" lon="12.5482246"><ele>902.0</ele><time>2026-04-12T08:58:24.993Z</time></trkpt><trkpt lat="46.5525015" lon="12.5481064"><ele>902.0</ele><time>2026-04-12T08:58:25.992Z</time></trkpt><trkpt lat="46.5524568" lon="12.5479944"><ele>902.0</ele><time>2026-04-12T08:58:26.992Z</time></trkpt><trkpt lat="46.5524154" lon="12.5478744"><ele>902.0</ele><time>2026-04-12T08:58:27.993Z</time></trkpt><trkpt lat="46.5523624" lon="12.5477518"><ele>902.0</ele><time>2026-04-12T08:58:28.993Z</time></trkpt><trkpt lat="46.5523001" lon="12.5476152"><ele>902.0</ele><time>2026-04-12T08:58:29.992Z</time></trkpt><trkpt lat="46.5522555" lon="12.5474766"><ele>901.0000000000001</ele><time>2026-04-12T08:58:30.992Z</time></trkpt><trkpt lat="46.5522124" lon="12.5473539"><ele>900.0</ele><time>2026-04-12T08:58:31.992Z</time></trkpt><trkpt lat="46.5521754" lon="12.5472673"><ele>899.0</ele><time>2026-04-12T08:58:32.992Z</time></trkpt><trkpt lat="46.5521075" lon="12.5471893"><ele>898.0</ele><time>2026-04-12T08:58:34.992Z</time></trkpt><trkpt lat="46.5520388" lon="12.5471942"><ele>897.0000000000001</ele><time>2026-04-12T08:58:36.993Z</time></trkpt><trkpt lat="46.5519817" lon="12.547118"><ele>896.0</ele><time>2026-04-12T08:58:39.992Z</time></trkpt><trkpt lat="46.5520237" lon="12.5470277"><ele>898.4</ele><time>2026-04-12T08:58:51.992Z</time></trkpt><trkpt lat="46.5520123" lon="12.5468557"><ele>900.8</ele><time>2026-04-12T08:58:53.992Z</time></trkpt><trkpt lat="46.5519773" lon="12.5467514"><ele>903.1999999999999</ele><time>2026-04-12T08:58:54.992Z</time></trkpt><trkpt lat="46.5519249" lon="12.5466176"><ele>905.5999999999999</ele><time>2026-04-12T08:58:55.992Z</time></trkpt><trkpt lat="46.551863" lon="12.5464753"><ele>908.0</ele><time>2026-04-12T08:58:56.992Z</time></trkpt><trkpt lat="46.5518028" lon="12.5463051"><ele>907.0</ele><time>2026-04-12T08:58:57.992Z</time></trkpt><trkpt lat="46.5517547" lon="12.5460962"><ele>906.0</ele><time>2026-04-12T08:58:58.993Z</time></trkpt><trkpt lat="46.5517247" lon="12.5458371"><ele>905.0</ele><time>2026-04-12T08:58:59.992Z</time></trkpt><trkpt lat="46.5517153" lon="12.545559"><ele>904.3333333333334</ele><time>2026-04-12T08:59:00.993Z</time></trkpt><trkpt lat="46.5517281" lon="12.5452731"><ele>903.6666666666667</ele><time>2026-04-12T08:59:01.992Z</time></trkpt><trkpt lat="46.5517447" lon="12.5449853"><ele>903.0</ele><time>2026-04-12T08:59:02.993Z</time></trkpt><trkpt lat="46.5517559" lon="12.5447085"><ele>901.6666666666667</ele><time>2026-04-12T08:59:03.994Z</time></trkpt><trkpt lat="46.5517689" lon="12.5444352"><ele>900.3333333333334</ele><time>2026-04-12T08:59:04.993Z</time></trkpt><trkpt lat="46.5517824" lon="12.5441689"><ele>899.0</ele><time>2026-04-12T08:59:05.992Z</time></trkpt><trkpt lat="46.5517968" lon="12.5439144"><ele>898.6666666666667</ele><time>2026-04-12T08:59:06.993Z</time></trkpt><trkpt lat="46.5518094" lon="12.5436751"><ele>898.3333333333333</ele><time>2026-04-12T08:59:07.993Z</time></trkpt><trkpt lat="46.551827" lon="12.5434383"><ele>898.0</ele><time>2026-04-12T08:59:08.992Z</time></trkpt><trkpt lat="46.5518389" lon="12.5432162"><ele>898.0</ele><time>2026-04-12T08:59:09.992Z</time></trkpt><trkpt lat="46.5518587" lon="12.5429993"><ele>898.0</ele><time>2026-04-12T08:59:10.992Z</time></trkpt><trkpt lat="46.5518929" lon="12.5427843"><ele>898.0</ele><time>2026-04-12T08:59:11.992Z</time></trkpt><trkpt lat="46.551951" lon="12.5425786"><ele>896.0</ele><time>2026-04-12T08:59:12.992Z</time></trkpt><trkpt lat="46.5520307" lon="12.5423872"><ele>894.0</ele><time>2026-04-12T08:59:13.992Z</time></trkpt><trkpt lat="46.552127" lon="12.5421995"><ele>892.0</ele><time>2026-04-12T08:59:14.992Z</time></trkpt><trkpt lat="46.5522346" lon="12.5420079"><ele>898.6666666666666</ele><time>2026-04-12T08:59:15.992Z</time></trkpt><trkpt lat="46.552342" lon="12.541825"><ele>905.3333333333333</ele><time>2026-04-12T08:59:16.992Z</time></trkpt><trkpt lat="46.5524526" lon="12.5416278"><ele>912.0</ele><time>2026-04-12T08:59:17.992Z</time></trkpt><trkpt lat="46.5525706" lon="12.5414339"><ele>912.0</ele><time>2026-04-12T08:59:18.993Z</time></trkpt><trkpt lat="46.5526774" lon="12.5412593"><ele>912.0</ele><time>2026-04-12T08:59:19.993Z</time></trkpt><trkpt lat="46.5527847" lon="12.5411022"><ele>912.0</ele><time>2026-04-12T08:59:20.992Z</time></trkpt><trkpt lat="46.5528981" lon="12.5409652"><ele>910.0</ele><time>2026-04-12T08:59:21.992Z</time></trkpt><trkpt lat="46.5530132" lon="12.5408355"><ele>908.0</ele><time>2026-04-12T08:59:22.992Z</time></trkpt><trkpt lat="46.5531167" lon="12.5407006"><ele>906.0</ele><time>2026-04-12T08:59:23.992Z</time></trkpt><trkpt lat="46.5532127" lon="12.5405402"><ele>904.0</ele><time>2026-04-12T08:59:24.992Z</time></trkpt><trkpt lat="46.5532932" lon="12.5403609"><ele>904.0</ele><time>2026-04-12T08:59:25.993Z</time></trkpt><trkpt lat="46.5533509" lon="12.5401608"><ele>904.0</ele><time>2026-04-12T08:59:26.993Z</time></trkpt><trkpt lat="46.5533862" lon="12.5399338"><ele>904.0</ele><time>2026-04-12T08:59:27.992Z</time></trkpt><trkpt lat="46.5534032" lon="12.539709"><ele>907.0</ele><time>2026-04-12T08:59:28.992Z</time></trkpt><trkpt lat="46.5534061" lon="12.5394754"><ele>910.0</ele><time>2026-04-12T08:59:29.992Z</time></trkpt><trkpt lat="46.5534048" lon="12.5392477"><ele>913.0</ele><time>2026-04-12T08:59:30.993Z</time></trkpt><trkpt lat="46.5533982" lon="12.5390259"><ele>913.0</ele><time>2026-04-12T08:59:31.992Z</time></trkpt><trkpt lat="46.5533762" lon="12.5388013"><ele>913.0</ele><time>2026-04-12T08:59:32.992Z</time></trkpt><trkpt lat="46.5533368" lon="12.5385764"><ele>913.0</ele><time>2026-04-12T08:59:33.992Z</time></trkpt><trkpt lat="46.5532929" lon="12.5383507"><ele>908.6666666666666</ele><time>2026-04-12T08:59:34.992Z</time></trkpt><trkpt lat="46.5532352" lon="12.538128"><ele>904.3333333333333</ele><time>2026-04-12T08:59:35.992Z</time></trkpt><trkpt lat="46.5531723" lon="12.5379076"><ele>900.0</ele><time>2026-04-12T08:59:36.993Z</time></trkpt><trkpt lat="46.5531136" lon="12.5376857"><ele>900.3333333333333</ele><time>2026-04-12T08:59:37.992Z</time></trkpt><trkpt lat="46.553051" lon="12.5374557"><ele>900.6666666666666</ele><time>2026-04-12T08:59:38.992Z</time></trkpt><trkpt lat="46.5529927" lon="12.5372358"><ele>901.0</ele><time>2026-04-12T08:59:39.992Z</time></trkpt><trkpt lat="46.5529304" lon="12.5370165"><ele>901.0</ele><time>2026-04-12T08:59:40.992Z</time></trkpt><trkpt lat="46.5528732" lon="12.536797"><ele>901.0</ele><time>2026-04-12T08:59:41.993Z</time></trkpt><trkpt lat="46.5528162" lon="12.5365686"><ele>901.0</ele><time>2026-04-12T08:59:42.992Z</time></trkpt><trkpt lat="46.5527531" lon="12.5363493"><ele>898.6666666666666</ele><time>2026-04-12T08:59:43.993Z</time></trkpt><trkpt lat="46.5526947" lon="12.5361347"><ele>896.3333333333333</ele><time>2026-04-12T08:59:44.992Z</time></trkpt><trkpt lat="46.5526341" lon="12.5359149"><ele>894.0</ele><time>2026-04-12T08:59:45.992Z</time></trkpt><trkpt lat="46.5525738" lon="12.5356956"><ele>894.0</ele><time>2026-04-12T08:59:46.992Z</time></trkpt><trkpt lat="46.5525083" lon="12.535483"><ele>894.0</ele><time>2026-04-12T08:59:47.992Z</time></trkpt><trkpt lat="46.5524379" lon="12.5352665"><ele>894.0</ele><time>2026-04-12T08:59:48.992Z</time></trkpt><trkpt lat="46.5523688" lon="12.5350714"><ele>893.75</ele><time>2026-04-12T08:59:49.992Z</time></trkpt><trkpt lat="46.5522988" lon="12.5348875"><ele>893.5</ele><time>2026-04-12T08:59:50.992Z</time></trkpt><trkpt lat="46.5522021" lon="12.534742"><ele>893.25</ele><time>2026-04-12T08:59:51.991Z</time></trkpt><trkpt lat="46.5520852" lon="12.5346246"><ele>893.0</ele><time>2026-04-12T08:59:52.993Z</time></trkpt><trkpt lat="46.5519474" lon="12.5345395"><ele>892.25</ele><time>2026-04-12T08:59:53.992Z</time></trkpt><trkpt lat="46.551809" lon="12.5344739"><ele>891.5</ele><time>2026-04-12T08:59:54.992Z</time></trkpt><trkpt lat="46.5516776" lon="12.5344235"><ele>890.75</ele><time>2026-04-12T08:59:55.993Z</time></trkpt><trkpt lat="46.551562" lon="12.5343774"><ele>890.0</ele><time>2026-04-12T08:59:56.992Z</time></trkpt><trkpt lat="46.5514558" lon="12.5343345"><ele>890.0</ele><time>2026-04-12T08:59:57.992Z</time></trkpt><trkpt lat="46.5513616" lon="12.5342836"><ele>890.0</ele><time>2026-04-12T08:59:58.992Z</time></trkpt><trkpt lat="46.5512746" lon="12.5342136"><ele>890.0</ele><time>2026-04-12T08:59:59.991Z</time></trkpt><trkpt lat="46.551206" lon="12.5340828"><ele>890.0</ele><time>2026-04-12T09:00:00.992Z</time></trkpt><trkpt lat="46.5511708" lon="12.5339353"><ele>890.0</ele><time>2026-04-12T09:00:01.993Z</time></trkpt><trkpt lat="46.5511617" lon="12.5337785"><ele>888.4</ele><time>2026-04-12T09:00:02.992Z</time></trkpt><trkpt lat="46.5511652" lon="12.5336196"><ele>886.8</ele><time>2026-04-12T09:00:03.992Z</time></trkpt><trkpt lat="46.5511545" lon="12.5334666"><ele>885.2</ele><time>2026-04-12T09:00:04.992Z</time></trkpt><trkpt lat="46.5511242" lon="12.5333228"><ele>883.6</ele><time>2026-04-12T09:00:05.992Z</time></trkpt><trkpt lat="46.5510722" lon="12.5331908"><ele>882.0</ele><time>2026-04-12T09:00:06.993Z</time></trkpt><trkpt lat="46.5510205" lon="12.5330671"><ele>882.0</ele><time>2026-04-12T09:00:07.993Z</time></trkpt><trkpt lat="46.5509642" lon="12.5329535"><ele>882.0</ele><time>2026-04-12T09:00:08.992Z</time></trkpt><trkpt lat="46.5509138" lon="12.5328528"><ele>882.0</ele><time>2026-04-12T09:00:09.991Z</time></trkpt><trkpt lat="46.5508684" lon="12.5327548"><ele>882.0</ele><time>2026-04-12T09:00:10.992Z</time></trkpt><trkpt lat="46.5508231" lon="12.5326648"><ele>882.0</ele><time>2026-04-12T09:00:11.992Z</time></trkpt><trkpt lat="46.5507867" lon="12.5325789"><ele>882.0</ele><time>2026-04-12T09:00:12.992Z</time></trkpt><trkpt lat="46.5507145" lon="12.5324378"><ele>884.8333333333334</ele><time>2026-04-12T09:00:14.993Z</time></trkpt><trkpt lat="46.5506498" lon="12.5323393"><ele>887.6666666666667</ele><time>2026-04-12T09:00:16.992Z</time></trkpt><trkpt lat="46.5506064" lon="12.5322697"><ele>890.5</ele><time>2026-04-12T09:00:18.992Z</time></trkpt><trkpt lat="46.5505766" lon="12.5321876"><ele>893.3333333333334</ele><time>2026-04-12T09:00:52.992Z</time></trkpt><trkpt lat="46.5504906" lon="12.5320687"><ele>896.1666666666667</ele><time>2026-04-12T09:04:19.991Z</time></trkpt><trkpt lat="46.5504507" lon="12.5319745"><ele>899.0</ele><time>2026-04-12T09:04:20.991Z</time></trkpt><trkpt lat="46.5504051" lon="12.5318721"><ele>896.6</ele><time>2026-04-12T09:04:21.991Z</time></trkpt><trkpt lat="46.5503448" lon="12.5317608"><ele>894.2</ele><time>2026-04-12T09:04:22.991Z</time></trkpt><trkpt lat="46.5502735" lon="12.5316655"><ele>891.8000000000001</ele><time>2026-04-12T09:04:23.991Z</time></trkpt><trkpt lat="46.5501825" lon="12.5315963"><ele>889.4000000000001</ele><time>2026-04-12T09:04:24.991Z</time></trkpt><trkpt lat="46.5500831" lon="12.5315732"><ele>887.0</ele><time>2026-04-12T09:04:25.991Z</time></trkpt><trkpt lat="46.5499867" lon="12.5315767"><ele>887.0</ele><time>2026-04-12T09:04:26.992Z</time></trkpt><trkpt lat="46.5498986" lon="12.5315914"><ele>887.0</ele><time>2026-04-12T09:04:27.991Z</time></trkpt><trkpt lat="46.549821" lon="12.5315962"><ele>887.0</ele><time>2026-04-12T09:04:28.991Z</time></trkpt><trkpt lat="46.5497355" lon="12.5315748"><ele>887.0</ele><time>2026-04-12T09:04:29.991Z</time></trkpt><trkpt lat="46.5496586" lon="12.5315008"><ele>887.0</ele><time>2026-04-12T09:04:30.992Z</time></trkpt><trkpt lat="46.5495806" lon="12.5313966"><ele>888.2</ele><time>2026-04-12T09:04:31.991Z</time></trkpt><trkpt lat="46.5495066" lon="12.5312774"><ele>889.4000000000001</ele><time>2026-04-12T09:04:32.991Z</time></trkpt><trkpt lat="46.5494349" lon="12.5311591"><ele>890.5999999999999</ele><time>2026-04-12T09:04:33.992Z</time></trkpt><trkpt lat="46.5493578" lon="12.5310543"><ele>891.8</ele><time>2026-04-12T09:04:34.992Z</time></trkpt><trkpt lat="46.549276" lon="12.5309704"><ele>893.0</ele><time>2026-04-12T09:04:35.991Z</time></trkpt><trkpt lat="46.5491756" lon="12.5309144"><ele>893.0</ele><time>2026-04-12T09:04:36.991Z</time></trkpt><trkpt lat="46.549073" lon="12.5308756"><ele>893.0</ele><time>2026-04-12T09:04:37.991Z</time></trkpt><trkpt lat="46.5489661" lon="12.5308501"><ele>893.0</ele><time>2026-04-12T09:04:38.991Z</time></trkpt><trkpt lat="46.5488614" lon="12.5308376"><ele>893.0</ele><time>2026-04-12T09:04:39.991Z</time></trkpt><trkpt lat="46.5487607" lon="12.5308302"><ele>893.0</ele><time>2026-04-12T09:04:40.991Z</time></trkpt><trkpt lat="46.5486508" lon="12.5308231"><ele>891.4</ele><time>2026-04-12T09:04:41.991Z</time></trkpt><trkpt lat="46.5485481" lon="12.5308243"><ele>889.8</ele><time>2026-04-12T09:04:42.991Z</time></trkpt><trkpt lat="46.5484471" lon="12.5308448"><ele>888.2</ele><time>2026-04-12T09:04:43.991Z</time></trkpt><trkpt lat="46.5483479" lon="12.5308858"><ele>886.6</ele><time>2026-04-12T09:04:44.991Z</time></trkpt><trkpt lat="46.5482493" lon="12.5309303"><ele>885.0</ele><time>2026-04-12T09:04:45.992Z</time></trkpt><trkpt lat="46.5481509" lon="12.530976"><ele>942.0</ele><time>2026-04-12T09:04:46.991Z</time></trkpt><trkpt lat="46.5469826" lon="12.5312846"><ele>942.0</ele><time>2026-04-12T09:04:56.991Z</time></trkpt><trkpt lat="46.5468507" lon="12.5313662"><ele>942.0</ele><time>2026-04-12T09:04:57.991Z</time></trkpt><trkpt lat="46.5467332" lon="12.5313713"><ele>942.0</ele><time>2026-04-12T09:04:58.991Z</time></trkpt><trkpt lat="46.5466199" lon="12.5314244"><ele>942.0</ele><time>2026-04-12T09:04:59.992Z</time></trkpt><trkpt lat="46.5464726" lon="12.531383"><ele>942.0</ele><time>2026-04-12T09:05:00.991Z</time></trkpt><trkpt lat="46.5463481" lon="12.5314019"><ele>942.0</ele><time>2026-04-12T09:05:01.991Z</time></trkpt><trkpt lat="46.546247" lon="12.5314727"><ele>942.0</ele><time>2026-04-12T09:05:02.992Z</time></trkpt><trkpt lat="46.5461226" lon="12.5314744"><ele>942.0</ele><time>2026-04-12T09:05:03.991Z</time></trkpt><trkpt lat="46.5460051" lon="12.531498"><ele>943.0</ele><time>2026-04-12T09:05:04.991Z</time></trkpt><trkpt lat="46.5458217" lon="12.5314575"><ele>944.0</ele><time>2026-04-12T09:05:05.991Z</time></trkpt><trkpt lat="46.5456925" lon="12.5314918"><ele>945.0</ele><time>2026-04-12T09:05:06.992Z</time></trkpt><trkpt lat="46.5455357" lon="12.5313251"><ele>930.0</ele><time>2026-04-12T09:05:07.991Z</time></trkpt><trkpt lat="46.5453203" lon="12.531051"><ele>915.0</ele><time>2026-04-12T09:05:08.991Z</time></trkpt><trkpt lat="46.5451957" lon="12.5309049"><ele>900.0</ele><time>2026-04-12T09:05:09.991Z</time></trkpt><trkpt lat="46.5450624" lon="12.5311933"><ele>900.0</ele><time>2026-04-12T09:05:10.991Z</time></trkpt><trkpt lat="46.5449742" lon="12.5313739"><ele>900.0</ele><time>2026-04-12T09:05:11.992Z</time></trkpt><trkpt lat="46.544945" lon="12.5304642"><ele>900.0</ele><time>2026-04-12T09:05:12.991Z</time></trkpt><trkpt lat="46.5448102" lon="12.5304479"><ele>900.0</ele><time>2026-04-12T09:05:13.991Z</time></trkpt><trkpt lat="46.5447155" lon="12.5303376"><ele>900.0</ele><time>2026-04-12T09:05:14.992Z</time></trkpt><trkpt lat="46.5444911" lon="12.5302143"><ele>897.3333333333333</ele><time>2026-04-12T09:05:15.991Z</time></trkpt><trkpt lat="46.5443556" lon="12.530025"><ele>894.6666666666666</ele><time>2026-04-12T09:05:16.991Z</time></trkpt><trkpt lat="46.5441824" lon="12.5299286"><ele>892.0</ele><time>2026-04-12T09:05:17.991Z</time></trkpt><trkpt lat="46.5440466" lon="12.529868"><ele>892.0</ele><time>2026-04-12T09:05:18.991Z</time></trkpt><trkpt lat="46.5437801" lon="12.5302005"><ele>892.0</ele><time>2026-04-12T09:05:19.991Z</time></trkpt><trkpt lat="46.5437044" lon="12.5300028"><ele>892.8</ele><time>2026-04-12T09:05:20.991Z</time></trkpt><trkpt lat="46.5436315" lon="12.5301291"><ele>893.6</ele><time>2026-04-12T09:05:21.991Z</time></trkpt><trkpt lat="46.5435393" lon="12.5301245"><ele>894.3999999999999</ele><time>2026-04-12T09:05:22.991Z</time></trkpt><trkpt lat="46.5434291" lon="12.5300373"><ele>895.1999999999999</ele><time>2026-04-12T09:05:23.991Z</time></trkpt><trkpt lat="46.5433273" lon="12.5299505"><ele>896.0</ele><time>2026-04-12T09:05:24.991Z</time></trkpt><trkpt lat="46.5432215" lon="12.5298666"><ele>896.0</ele><time>2026-04-12T09:05:25.991Z</time></trkpt><trkpt lat="46.5430857" lon="12.5297875"><ele>896.0</ele><time>2026-04-12T09:05:26.991Z</time></trkpt><trkpt lat="46.5429199" lon="12.5297416"><ele>896.0</ele><time>2026-04-12T09:05:27.991Z</time></trkpt><trkpt lat="46.5427569" lon="12.529714"><ele>894.5</ele><time>2026-04-12T09:05:28.991Z</time></trkpt><trkpt lat="46.5426045" lon="12.5296921"><ele>893.0</ele><time>2026-04-12T09:05:29.991Z</time></trkpt><trkpt lat="46.5424544" lon="12.5296716"><ele>891.5</ele><time>2026-04-12T09:05:30.992Z</time></trkpt><trkpt lat="46.5423111" lon="12.529653"><ele>890.0</ele><time>2026-04-12T09:05:31.991Z</time></trkpt><trkpt lat="46.5421709" lon="12.5296323"><ele>888.5</ele><time>2026-04-12T09:05:32.992Z</time></trkpt><trkpt lat="46.5420338" lon="12.5296182"><ele>887.0</ele><time>2026-04-12T09:05:33.991Z</time></trkpt><trkpt lat="46.5418963" lon="12.5296214"><ele>885.5</ele><time>2026-04-12T09:05:34.991Z</time></trkpt><trkpt lat="46.5417546" lon="12.5296524"><ele>884.0</ele><time>2026-04-12T09:05:35.992Z</time></trkpt><trkpt lat="46.5416222" lon="12.529699"><ele>884.0</ele><time>2026-04-12T09:05:36.992Z</time></trkpt><trkpt lat="46.541496" lon="12.5297432"><ele>884.0</ele><time>2026-04-12T09:05:37.991Z</time></trkpt><trkpt lat="46.5413787" lon="12.5297881"><ele>884.0</ele><time>2026-04-12T09:05:38.991Z</time></trkpt><trkpt lat="46.5412658" lon="12.5298246"><ele>884.0</ele><time>2026-04-12T09:05:39.992Z</time></trkpt><trkpt lat="46.5411525" lon="12.5298228"><ele>883.0</ele><time>2026-04-12T09:05:40.991Z</time></trkpt><trkpt lat="46.5410423" lon="12.5297744"><ele>882.0</ele><time>2026-04-12T09:05:41.991Z</time></trkpt><trkpt lat="46.5409507" lon="12.5296698"><ele>881.0</ele><time>2026-04-12T09:05:42.992Z</time></trkpt><trkpt lat="46.5408755" lon="12.5295143"><ele>880.0</ele><time>2026-04-12T09:05:43.991Z</time></trkpt><trkpt lat="46.5408166" lon="12.5293264"><ele>880.0</ele><time>2026-04-12T09:05:44.991Z</time></trkpt><trkpt lat="46.5407449" lon="12.5291411"><ele>880.0</ele><time>2026-04-12T09:05:45.991Z</time></trkpt><trkpt lat="46.5406487" lon="12.5289686"><ele>880.0</ele><time>2026-04-12T09:05:46.991Z</time></trkpt><trkpt lat="46.5405268" lon="12.5287922"><ele>880.3333333333333</ele><time>2026-04-12T09:05:47.992Z</time></trkpt><trkpt lat="46.5403987" lon="12.5286195"><ele>880.6666666666667</ele><time>2026-04-12T09:05:48.991Z</time></trkpt><trkpt lat="46.5402689" lon="12.5284572"><ele>881.0</ele><time>2026-04-12T09:05:49.991Z</time></trkpt><trkpt lat="46.5401375" lon="12.5283001"><ele>881.0</ele><time>2026-04-12T09:05:50.992Z</time></trkpt><trkpt lat="46.5400066" lon="12.5281441"><ele>881.0</ele><time>2026-04-12T09:05:51.991Z</time></trkpt><trkpt lat="46.5398769" lon="12.5279889"><ele>881.0</ele><time>2026-04-12T09:05:52.991Z</time></trkpt><trkpt lat="46.5397458" lon="12.527836"><ele>880.3333333333334</ele><time>2026-04-12T09:05:53.991Z</time></trkpt><trkpt lat="46.5396172" lon="12.5276805"><ele>879.6666666666667</ele><time>2026-04-12T09:05:54.991Z</time></trkpt><trkpt lat="46.5394938" lon="12.5275241"><ele>879.0</ele><time>2026-04-12T09:05:55.991Z</time></trkpt><trkpt lat="46.5393762" lon="12.5273722"><ele>879.0</ele><time>2026-04-12T09:05:56.991Z</time></trkpt><trkpt lat="46.5392675" lon="12.5272135"><ele>879.0</ele><time>2026-04-12T09:05:57.991Z</time></trkpt><trkpt lat="46.5391667" lon="12.5270541"><ele>879.0</ele><time>2026-04-12T09:05:58.991Z</time></trkpt><trkpt lat="46.5390735" lon="12.5268932"><ele>879.0</ele><time>2026-04-12T09:05:59.992Z</time></trkpt><trkpt lat="46.5389842" lon="12.5267355"><ele>874.0</ele><time>2026-04-12T09:06:00.991Z</time></trkpt><trkpt lat="46.5389014" lon="12.5265758"><ele>869.0</ele><time>2026-04-12T09:06:01.991Z</time></trkpt><trkpt lat="46.5388346" lon="12.5264"><ele>864.0</ele><time>2026-04-12T09:06:02.992Z</time></trkpt><trkpt lat="46.5387909" lon="12.52621"><ele>859.0</ele><time>2026-04-12T09:06:03.991Z</time></trkpt><trkpt lat="46.5387646" lon="12.5260126"><ele>858.5</ele><time>2026-04-12T09:06:04.991Z</time></trkpt><trkpt lat="46.5387614" lon="12.5258067"><ele>858.0</ele><time>2026-04-12T09:06:05.991Z</time></trkpt><trkpt lat="46.5387659" lon="12.5255962"><ele>857.5</ele><time>2026-04-12T09:06:06.99Z</time></trkpt><trkpt lat="46.5387706" lon="12.5253886"><ele>857.0</ele><time>2026-04-12T09:06:07.99Z</time></trkpt><trkpt lat="46.5387755" lon="12.5251878"><ele>861.75</ele><time>2026-04-12T09:06:08.99Z</time></trkpt><trkpt lat="46.5387753" lon="12.5249968"><ele>866.5</ele><time>2026-04-12T09:06:09.991Z</time></trkpt><trkpt lat="46.538777" lon="12.5248089"><ele>871.25</ele><time>2026-04-12T09:06:10.991Z</time></trkpt><trkpt lat="46.5387691" lon="12.524622"><ele>876.0</ele><time>2026-04-12T09:06:11.991Z</time></trkpt><trkpt lat="46.5387488" lon="12.5244375"><ele>872.5</ele><time>2026-04-12T09:06:12.991Z</time></trkpt><trkpt lat="46.5387165" lon="12.5242538"><ele>869.0</ele><time>2026-04-12T09:06:13.991Z</time></trkpt><trkpt lat="46.5386743" lon="12.5240711"><ele>865.5</ele><time>2026-04-12T09:06:14.991Z</time></trkpt><trkpt lat="46.5386281" lon="12.5238901"><ele>862.0</ele><time>2026-04-12T09:06:15.992Z</time></trkpt><trkpt lat="46.5385803" lon="12.5237085"><ele>862.0</ele><time>2026-04-12T09:06:16.991Z</time></trkpt><trkpt lat="46.5385313" lon="12.5235326"><ele>862.0</ele><time>2026-04-12T09:06:17.991Z</time></trkpt><trkpt lat="46.5384836" lon="12.5233601"><ele>862.0</ele><time>2026-04-12T09:06:18.991Z</time></trkpt><trkpt lat="46.5384414" lon="12.5231888"><ele>862.0</ele><time>2026-04-12T09:06:19.991Z</time></trkpt><trkpt lat="46.5384017" lon="12.5230204"><ele>863.6</ele><time>2026-04-12T09:06:20.991Z</time></trkpt><trkpt lat="46.5383668" lon="12.5228633"><ele>865.2</ele><time>2026-04-12T09:06:21.991Z</time></trkpt><trkpt lat="46.5383342" lon="12.5227078"><ele>866.8</ele><time>2026-04-12T09:06:22.991Z</time></trkpt><trkpt lat="46.5383073" lon="12.5225518"><ele>868.4</ele><time>2026-04-12T09:06:23.991Z</time></trkpt><trkpt lat="46.5382879" lon="12.5223958"><ele>870.0</ele><time>2026-04-12T09:06:24.991Z</time></trkpt><trkpt lat="46.538271" lon="12.522242"><ele>870.0</ele><time>2026-04-12T09:06:25.991Z</time></trkpt><trkpt lat="46.5382578" lon="12.5220916"><ele>870.0</ele><time>2026-04-12T09:06:26.992Z</time></trkpt><trkpt lat="46.5382467" lon="12.521928"><ele>870.0</ele><time>2026-04-12T09:06:27.991Z</time></trkpt><trkpt lat="46.5382387" lon="12.5217562"><ele>870.0</ele><time>2026-04-12T09:06:28.991Z</time></trkpt><trkpt lat="46.53823" lon="12.5215786"><ele>874.6666666666667</ele><time>2026-04-12T09:06:29.991Z</time></trkpt><trkpt lat="46.5382216" lon="12.5214027"><ele>879.3333333333334</ele><time>2026-04-12T09:06:30.99Z</time></trkpt><trkpt lat="46.5382121" lon="12.5212273"><ele>884.0</ele><time>2026-04-12T09:06:31.992Z</time></trkpt><trkpt lat="46.5330893" lon="12.4695052"><ele>869.2</ele><time>2026-04-12T09:09:59.99Z</time></trkpt><trkpt lat="46.5331507" lon="12.4694519"><ele>854.4000000000001</ele><time>2026-04-12T09:10:00.991Z</time></trkpt><trkpt lat="46.5332264" lon="12.4693573"><ele>839.6</ele><time>2026-04-12T09:10:01.99Z</time></trkpt><trkpt lat="46.5332904" lon="12.4692562"><ele>824.8</ele><time>2026-04-12T09:10:02.99Z</time></trkpt><trkpt lat="46.5333522" lon="12.4691456"><ele>810.0</ele><time>2026-04-12T09:10:03.99Z</time></trkpt><trkpt lat="46.5334205" lon="12.469042"><ele>810.0</ele><time>2026-04-12T09:10:04.991Z</time></trkpt><trkpt lat="46.5334987" lon="12.4689478"><ele>810.0</ele><time>2026-04-12T09:10:05.99Z</time></trkpt><trkpt lat="46.5335767" lon="12.4688505"><ele>810.0</ele><time>2026-04-12T09:10:06.991Z</time></trkpt><trkpt lat="46.5336571" lon="12.4687526"><ele>810.0</ele><time>2026-04-12T09:10:07.99Z</time></trkpt><trkpt lat="46.5337383" lon="12.4686589"><ele>810.0</ele><time>2026-04-12T09:10:08.99Z</time></trkpt><trkpt lat="46.5338197" lon="12.4685681"><ele>811.8</ele><time>2026-04-12T09:10:09.99Z</time></trkpt><trkpt lat="46.5339018" lon="12.4684776"><ele>813.6</ele><time>2026-04-12T09:10:10.99Z</time></trkpt><trkpt lat="46.5339812" lon="12.4683874"><ele>815.4000000000001</ele><time>2026-04-12T09:10:11.99Z</time></trkpt><trkpt lat="46.5340614" lon="12.4683062"><ele>817.2</ele><time>2026-04-12T09:10:12.991Z</time></trkpt><trkpt lat="46.5341418" lon="12.4682359"><ele>819.0</ele><time>2026-04-12T09:10:13.99Z</time></trkpt><trkpt lat="46.5342313" lon="12.4681654"><ele>819.0</ele><time>2026-04-12T09:10:14.99Z</time></trkpt><trkpt lat="46.5343304" lon="12.4680908"><ele>819.0</ele><time>2026-04-12T09:10:15.99Z</time></trkpt><trkpt lat="46.5344413" lon="12.4680211"><ele>819.0</ele><time>2026-04-12T09:10:16.99Z</time></trkpt><trkpt lat="46.5345589" lon="12.4679516"><ele>819.0</ele><time>2026-04-12T09:10:17.99Z</time></trkpt><trkpt lat="46.5346838" lon="12.4678835"><ele>815.0</ele><time>2026-04-12T09:10:18.99Z</time></trkpt><trkpt lat="46.5348171" lon="12.4678203"><ele>811.0</ele><time>2026-04-12T09:10:19.99Z</time></trkpt><trkpt lat="46.5349743" lon="12.4677438"><ele>807.0</ele><time>2026-04-12T09:10:20.99Z</time></trkpt><trkpt lat="46.53514" lon="12.4676624"><ele>807.0</ele><time>2026-04-12T09:10:21.99Z</time></trkpt><trkpt lat="46.5352962" lon="12.467583"><ele>807.0</ele><time>2026-04-12T09:10:22.99Z</time></trkpt><trkpt lat="46.5354643" lon="12.467517"><ele>807.0</ele><time>2026-04-12T09:10:23.99Z</time></trkpt><trkpt lat="46.5356287" lon="12.4674719"><ele>813.0</ele><time>2026-04-12T09:10:24.99Z</time></trkpt><trkpt lat="46.5357848" lon="12.467431"><ele>819.0</ele><time>2026-04-12T09:10:25.99Z</time></trkpt><trkpt lat="46.5359345" lon="12.4673904"><ele>825.0</ele><time>2026-04-12T09:10:26.99Z</time></trkpt><trkpt lat="46.5360775" lon="12.4673547"><ele>825.0</ele><time>2026-04-12T09:10:27.99Z</time></trkpt><trkpt lat="46.5362173" lon="12.4673227"><ele>825.0</ele><time>2026-04-12T09:10:28.991Z</time></trkpt><trkpt lat="46.5363586" lon="12.4672942"><ele>825.0</ele><time>2026-04-12T09:10:29.99Z</time></trkpt><trkpt lat="46.5365128" lon="12.4672797"><ele>825.0</ele><time>2026-04-12T09:10:30.99Z</time></trkpt><trkpt lat="46.5366757" lon="12.4672775"><ele>825.6666666666667</ele><time>2026-04-12T09:10:31.99Z</time></trkpt><trkpt lat="46.5368455" lon="12.4672502"><ele>826.3333333333334</ele><time>2026-04-12T09:10:32.991Z</time></trkpt><trkpt lat="46.5370116" lon="12.4671793"><ele>827.0</ele><time>2026-04-12T09:10:33.99Z</time></trkpt><trkpt lat="46.5371636" lon="12.4670682"><ele>827.0</ele><time>2026-04-12T09:10:34.99Z</time></trkpt><trkpt lat="46.5373153" lon="12.4669073"><ele>827.0</ele><time>2026-04-12T09:10:35.99Z</time></trkpt><trkpt lat="46.5374805" lon="12.4667039"><ele>827.0</ele><time>2026-04-12T09:10:36.991Z</time></trkpt><trkpt lat="46.5376345" lon="12.4665079"><ele>827.0</ele><time>2026-04-12T09:10:37.99Z</time></trkpt><trkpt lat="46.5377774" lon="12.4663235"><ele>827.0</ele><time>2026-04-12T09:10:38.99Z</time></trkpt><trkpt lat="46.5379083" lon="12.4661513"><ele>827.0</ele><time>2026-04-12T09:10:39.99Z</time></trkpt><trkpt lat="46.5380286" lon="12.4659934"><ele>833.3333333333334</ele><time>2026-04-12T09:10:40.99Z</time></trkpt><trkpt lat="46.5381372" lon="12.4658331"><ele>839.6666666666667</ele><time>2026-04-12T09:10:41.99Z</time></trkpt><trkpt lat="46.5382322" lon="12.4656425"><ele>846.0</ele><time>2026-04-12T09:10:42.991Z</time></trkpt><trkpt lat="46.5383151" lon="12.4654483"><ele>839.75</ele><time>2026-04-12T09:10:43.991Z</time></trkpt><trkpt lat="46.538392" lon="12.4652649"><ele>833.5</ele><time>2026-04-12T09:10:44.99Z</time></trkpt><trkpt lat="46.5384663" lon="12.4650861"><ele>827.25</ele><time>2026-04-12T09:10:45.991Z</time></trkpt><trkpt lat="46.5385351" lon="12.4649179"><ele>821.0</ele><time>2026-04-12T09:10:46.99Z</time></trkpt><trkpt lat="46.5386076" lon="12.4647641"><ele>821.0</ele><time>2026-04-12T09:10:47.99Z</time></trkpt><trkpt lat="46.5386829" lon="12.4646228"><ele>821.0</ele><time>2026-04-12T09:10:48.99Z</time></trkpt><trkpt lat="46.5387602" lon="12.4644788"><ele>821.0</ele><time>2026-04-12T09:10:49.99Z</time></trkpt><trkpt lat="46.5388355" lon="12.4643492"><ele>821.0</ele><time>2026-04-12T09:10:50.991Z</time></trkpt><trkpt lat="46.5389061" lon="12.4642268"><ele>819.5</ele><time>2026-04-12T09:10:51.99Z</time></trkpt><trkpt lat="46.5389741" lon="12.4640977"><ele>818.0</ele><time>2026-04-12T09:10:52.991Z</time></trkpt><trkpt lat="46.5390642" lon="12.4639742"><ele>816.5</ele><time>2026-04-12T09:10:53.99Z</time></trkpt><trkpt lat="46.5391759" lon="12.4638554"><ele>815.0</ele><time>2026-04-12T09:10:54.99Z</time></trkpt><trkpt lat="46.5392854" lon="12.463762"><ele>815.0</ele><time>2026-04-12T09:10:55.99Z</time></trkpt><trkpt lat="46.5393942" lon="12.4636727"><ele>815.0</ele><time>2026-04-12T09:10:56.99Z</time></trkpt><trkpt lat="46.539503" lon="12.4635894"><ele>815.0</ele><time>2026-04-12T09:10:57.99Z</time></trkpt><trkpt lat="46.5396051" lon="12.4635046"><ele>815.0</ele><time>2026-04-12T09:10:58.99Z</time></trkpt><trkpt lat="46.5397024" lon="12.4634259"><ele>817.6</ele><time>2026-04-12T09:10:59.99Z</time></trkpt><trkpt lat="46.5397947" lon="12.4633568"><ele>820.2</ele><time>2026-04-12T09:11:00.99Z</time></trkpt><trkpt lat="46.5398625" lon="12.4633098"><ele>822.8</ele><time>2026-04-12T09:11:01.991Z</time></trkpt><trkpt lat="46.5399632" lon="12.463302"><ele>825.4</ele><time>2026-04-12T09:11:03.991Z</time></trkpt><trkpt lat="46.5400941" lon="12.4633711"><ele>828.0</ele><time>2026-04-12T09:11:05.99Z</time></trkpt><trkpt lat="46.5401782" lon="12.463423"><ele>828.0</ele><time>2026-04-12T09:11:06.99Z</time></trkpt><trkpt lat="46.5402537" lon="12.4634803"><ele>828.0</ele><time>2026-04-12T09:11:07.99Z</time></trkpt><trkpt lat="46.5403186" lon="12.4635326"><ele>828.0</ele><time>2026-04-12T09:11:08.991Z</time></trkpt><trkpt lat="46.5403802" lon="12.4635819"><ele>828.0</ele><time>2026-04-12T09:11:09.991Z</time></trkpt><trkpt lat="46.5405095" lon="12.4635879"><ele>828.0</ele><time>2026-04-12T09:11:11.99Z</time></trkpt><trkpt lat="46.5405923" lon="12.4635316"><ele>828.8</ele><time>2026-04-12T09:11:12.991Z</time></trkpt><trkpt lat="46.540661" lon="12.4634675"><ele>829.5999999999999</ele><time>2026-04-12T09:11:13.991Z</time></trkpt><trkpt lat="46.5407133" lon="12.4634089"><ele>830.4000000000001</ele><time>2026-04-12T09:11:14.991Z</time></trkpt><trkpt lat="46.5408024" lon="12.4633103"><ele>831.2</ele><time>2026-04-12T09:11:16.99Z</time></trkpt><trkpt lat="46.5408858" lon="12.4631794"><ele>832.0</ele><time>2026-04-12T09:11:18.992Z</time></trkpt><trkpt lat="46.5409451" lon="12.4630746"><ele>831.9999999999999</ele><time>2026-04-12T09:11:20.991Z</time></trkpt><trkpt lat="46.541" lon="12.4629802"><ele>832.0</ele><time>2026-04-12T09:11:22.99Z</time></trkpt><trkpt lat="46.5409965" lon="12.4628869"><ele>832.0</ele><time>2026-04-12T09:11:25.99Z</time></trkpt><trkpt lat="46.5409222" lon="12.4628558"><ele>832.0</ele><time>2026-04-12T09:11:35.992Z</time></trkpt><trkpt lat="46.5408513" lon="12.4628643"><ele>831.9999999999999</ele><time>2026-04-12T09:11:36.991Z</time></trkpt><trkpt lat="46.540774" lon="12.4628926"><ele>832.0</ele><time>2026-04-12T09:11:37.991Z</time></trkpt><trkpt lat="46.5406825" lon="12.4629321"><ele>832.0</ele><time>2026-04-12T09:11:38.99Z</time></trkpt><trkpt lat="46.5405725" lon="12.4629764"><ele>832.0</ele><time>2026-04-12T09:11:39.99Z</time></trkpt><trkpt lat="46.5404652" lon="12.4630109"><ele>832.0</ele><time>2026-04-12T09:11:40.991Z</time></trkpt><trkpt lat="46.5403613" lon="12.4630479"><ele>832.0</ele><time>2026-04-12T09:11:41.99Z</time></trkpt><trkpt lat="46.540264" lon="12.4630816"><ele>832.0</ele><time>2026-04-12T09:11:42.991Z</time></trkpt><trkpt lat="46.540161" lon="12.4631201"><ele>831.0</ele><time>2026-04-12T09:11:43.99Z</time></trkpt><trkpt lat="46.5400566" lon="12.463162"><ele>830.0</ele><time>2026-04-12T09:11:44.991Z</time></trkpt><trkpt lat="46.5399491" lon="12.4632223"><ele>829.0</ele><time>2026-04-12T09:11:45.991Z</time></trkpt><trkpt lat="46.5398348" lon="12.4632938"><ele>828.0</ele><time>2026-04-12T09:11:46.991Z</time></trkpt><trkpt lat="46.5397301" lon="12.4633741"><ele>828.0</ele><time>2026-04-12T09:11:47.991Z</time></trkpt><trkpt lat="46.5396281" lon="12.4634528"><ele>828.0</ele><time>2026-04-12T09:11:48.992Z</time></trkpt><trkpt lat="46.5395299" lon="12.463532"><ele>828.0</ele><time>2026-04-12T09:11:49.991Z</time></trkpt><trkpt lat="46.5394246" lon="12.4636101"><ele>828.0</ele><time>2026-04-12T09:11:50.991Z</time></trkpt><trkpt lat="46.5393203" lon="12.4636853"><ele>829.25</ele><time>2026-04-12T09:11:51.99Z</time></trkpt><trkpt lat="46.5392171" lon="12.4637676"><ele>830.5</ele><time>2026-04-12T09:11:52.991Z</time></trkpt><trkpt lat="46.5391129" lon="12.4638673"><ele>831.75</ele><time>2026-04-12T09:11:53.991Z</time></trkpt><trkpt lat="46.5390051" lon="12.4640056"><ele>833.0</ele><time>2026-04-12T09:11:54.99Z</time></trkpt><trkpt lat="46.5389089" lon="12.4641514"><ele>833.0</ele><time>2026-04-12T09:11:55.991Z</time></trkpt><trkpt lat="46.538815" lon="12.4643135"><ele>833.0</ele><time>2026-04-12T09:11:56.992Z</time></trkpt><trkpt lat="46.5387195" lon="12.4644844"><ele>833.0</ele><time>2026-04-12T09:11:57.992Z</time></trkpt><trkpt lat="46.5386096" lon="12.4646904"><ele>829.0</ele><time>2026-04-12T09:11:58.99Z</time></trkpt><trkpt lat="46.5385057" lon="12.4649142"><ele>825.0</ele><time>2026-04-12T09:11:59.991Z</time></trkpt><trkpt lat="46.5384118" lon="12.4651423"><ele>821.0</ele><time>2026-04-12T09:12:00.99Z</time></trkpt><trkpt lat="46.5383224" lon="12.4653584"><ele>829.3333333333334</ele><time>2026-04-12T09:12:01.992Z</time></trkpt><trkpt lat="46.5382315" lon="12.465575"><ele>837.6666666666667</ele><time>2026-04-12T09:12:02.991Z</time></trkpt><trkpt lat="46.5381253" lon="12.4657694"><ele>846.0</ele><time>2026-04-12T09:12:03.99Z</time></trkpt><trkpt lat="46.538006" lon="12.4659489"><ele>839.6666666666667</ele><time>2026-04-12T09:12:04.991Z</time></trkpt><trkpt lat="46.5378826" lon="12.4661225"><ele>833.3333333333334</ele><time>2026-04-12T09:12:05.991Z</time></trkpt><trkpt lat="46.5377557" lon="12.46629"><ele>827.0</ele><time>2026-04-12T09:12:06.99Z</time></trkpt><trkpt lat="46.5376258" lon="12.4664513"><ele>827.0</ele><time>2026-04-12T09:12:07.99Z</time></trkpt><trkpt lat="46.5375073" lon="12.4666225"><ele>827.0</ele><time>2026-04-12T09:12:08.99Z</time></trkpt><trkpt lat="46.5373889" lon="12.466777"><ele>827.0</ele><time>2026-04-12T09:12:09.99Z</time></trkpt><trkpt lat="46.5372701" lon="12.4669173"><ele>827.0</ele><time>2026-04-12T09:12:10.991Z</time></trkpt><trkpt lat="46.5371478" lon="12.4670411"><ele>827.0</ele><time>2026-04-12T09:12:11.991Z</time></trkpt><trkpt lat="46.5370047" lon="12.4671341"><ele>827.0</ele><time>2026-04-12T09:12:12.99Z</time></trkpt><trkpt lat="46.5368538" lon="12.4671953"><ele>833.0</ele><time>2026-04-12T09:12:13.991Z</time></trkpt><trkpt lat="46.5366975" lon="12.4672204"><ele>839.0</ele><time>2026-04-12T09:12:14.992Z</time></trkpt><trkpt lat="46.5365339" lon="12.4672303"><ele>845.0</ele><time>2026-04-12T09:12:15.99Z</time></trkpt><trkpt lat="46.5363645" lon="12.4672478"><ele>838.3333333333334</ele><time>2026-04-12T09:12:16.991Z</time></trkpt><trkpt lat="46.5361962" lon="12.4672779"><ele>831.6666666666667</ele><time>2026-04-12T09:12:17.99Z</time></trkpt><trkpt lat="46.5360296" lon="12.4673096"><ele>825.0</ele><time>2026-04-12T09:12:18.992Z</time></trkpt><trkpt lat="46.5358725" lon="12.4673439"><ele>825.0</ele><time>2026-04-12T09:12:19.991Z</time></trkpt><trkpt lat="46.5357194" lon="12.4673764"><ele>825.0</ele><time>2026-04-12T09:12:20.99Z</time></trkpt><trkpt lat="46.5355703" lon="12.4674149"><ele>825.0</ele><time>2026-04-12T09:12:21.992Z</time></trkpt><trkpt lat="46.5354256" lon="12.4674552"><ele>820.5</ele><time>2026-04-12T09:12:22.99Z</time></trkpt><trkpt lat="46.5352843" lon="12.4675068"><ele>816.0</ele><time>2026-04-12T09:12:23.99Z</time></trkpt><trkpt lat="46.5351508" lon="12.4675625"><ele>811.5</ele><time>2026-04-12T09:12:24.99Z</time></trkpt><trkpt lat="46.5350142" lon="12.4676243"><ele>807.0</ele><time>2026-04-12T09:12:25.991Z</time></trkpt><trkpt lat="46.5348763" lon="12.4676866"><ele>807.0</ele><time>2026-04-12T09:12:26.99Z</time></trkpt><trkpt lat="46.5347333" lon="12.4677627"><ele>807.0</ele><time>2026-04-12T09:12:27.991Z</time></trkpt><trkpt lat="46.5345884" lon="12.4678413"><ele>807.0</ele><time>2026-04-12T09:12:28.991Z</time></trkpt><trkpt lat="46.534447" lon="12.4679154"><ele>810.0</ele><time>2026-04-12T09:12:29.99Z</time></trkpt><trkpt lat="46.5343132" lon="12.4679862"><ele>813.0</ele><time>2026-04-12T09:12:30.99Z</time></trkpt><trkpt lat="46.534182" lon="12.4680595"><ele>816.0</ele><time>2026-04-12T09:12:31.99Z</time></trkpt><trkpt lat="46.5340601" lon="12.4681317"><ele>819.0</ele><time>2026-04-12T09:12:32.991Z</time></trkpt><trkpt lat="46.5339396" lon="12.4682044"><ele>819.0</ele><time>2026-04-12T09:12:33.99Z</time></trkpt><trkpt lat="46.5338202" lon="12.4682818"><ele>819.0</ele><time>2026-04-12T09:12:34.99Z</time></trkpt><trkpt lat="46.5336996" lon="12.4683688"><ele>819.0</ele><time>2026-04-12T09:12:35.991Z</time></trkpt><trkpt lat="46.5335892" lon="12.4684746"><ele>819.0</ele><time>2026-04-12T09:12:36.992Z</time></trkpt><trkpt lat="46.5334788" lon="12.4685931"><ele>816.75</ele><time>2026-04-12T09:12:37.991Z</time></trkpt><trkpt lat="46.5333703" lon="12.4687146"><ele>814.5</ele><time>2026-04-12T09:12:38.992Z</time></trkpt><trkpt lat="46.5332693" lon="12.4688329"><ele>812.25</ele><time>2026-04-12T09:12:39.99Z</time></trkpt><trkpt lat="46.5331719" lon="12.4689511"><ele>810.0</ele><time>2026-04-12T09:12:40.991Z</time></trkpt><trkpt lat="46.533073" lon="12.4690624"><ele>810.0</ele><time>2026-04-12T09:12:41.991Z</time></trkpt><trkpt lat="46.5329661" lon="12.4691655"><ele>810.0</ele><time>2026-04-12T09:12:42.992Z</time></trkpt><trkpt lat="46.5328473" lon="12.4692466"><ele>810.0</ele><time>2026-04-12T09:12:43.99Z</time></trkpt><trkpt lat="46.5327192" lon="12.4693015"><ele>810.0</ele><time>2026-04-12T09:12:44.992Z</time></trkpt><trkpt lat="46.5325782" lon="12.4693369"><ele>808.25</ele><time>2026-04-12T09:12:45.992Z</time></trkpt><trkpt lat="46.5324293" lon="12.4693668"><ele>806.5</ele><time>2026-04-12T09:12:46.99Z</time></trkpt><trkpt lat="46.5322866" lon="12.4694015"><ele>804.75</ele><time>2026-04-12T09:12:47.99Z</time></trkpt><trkpt lat="46.5321437" lon="12.4694184"><ele>803.0</ele><time>2026-04-12T09:12:48.99Z</time></trkpt><trkpt lat="46.5319974" lon="12.4694206"><ele>801.5</ele><time>2026-04-12T09:12:49.99Z</time></trkpt><trkpt lat="46.5318505" lon="12.469401"><ele>800.0</ele><time>2026-04-12T09:12:50.99Z</time></trkpt><trkpt lat="46.5317019" lon="12.4693665"><ele>798.5</ele><time>2026-04-12T09:12:51.99Z</time></trkpt><trkpt lat="46.5315548" lon="12.4693288"><ele>797.0</ele><time>2026-04-12T09:12:52.99Z</time></trkpt><trkpt lat="46.5314118" lon="12.4692942"><ele>797.0</ele><time>2026-04-12T09:12:53.99Z</time></trkpt><trkpt lat="46.5312655" lon="12.4692552"><ele>797.0</ele><time>2026-04-12T09:12:54.991Z</time></trkpt><trkpt lat="46.5311163" lon="12.4692134"><ele>797.0</ele><time>2026-04-12T09:12:55.991Z</time></trkpt><trkpt lat="46.5309645" lon="12.4691724"><ele>799.0</ele><time>2026-04-12T09:12:56.99Z</time></trkpt><trkpt lat="46.5308109" lon="12.4691334"><ele>801.0</ele><time>2026-04-12T09:12:57.99Z</time></trkpt><trkpt lat="46.5306547" lon="12.4690906"><ele>803.0</ele><time>2026-04-12T09:12:58.991Z</time></trkpt><trkpt lat="46.5304969" lon="12.4690436"><ele>807.6666666666667</ele><time>2026-04-12T09:12:59.99Z</time></trkpt><trkpt lat="46.5303362" lon="12.4689935"><ele>812.3333333333333</ele><time>2026-04-12T09:13:00.99Z</time></trkpt><trkpt lat="46.5301723" lon="12.4689448"><ele>817.0</ele><time>2026-04-12T09:13:01.991Z</time></trkpt><trkpt lat="46.5300096" lon="12.4688904"><ele>817.0</ele><time>2026-04-12T09:13:02.991Z</time></trkpt><trkpt lat="46.5298493" lon="12.4688439"><ele>817.0</ele><time>2026-04-12T09:13:03.99Z</time></trkpt><trkpt lat="46.5296887" lon="12.4687945"><ele>817.0</ele><time>2026-04-12T09:13:04.99Z</time></trkpt><trkpt lat="46.5295275" lon="12.4687446"><ele>809.0</ele><time>2026-04-12T09:13:05.991Z</time></trkpt><trkpt lat="46.5293718" lon="12.4686942"><ele>801.0</ele><time>2026-04-12T09:13:06.991Z</time></trkpt><trkpt lat="46.5292167" lon="12.4686409"><ele>793.0</ele><time>2026-04-12T09:13:07.99Z</time></trkpt><trkpt lat="46.5290655" lon="12.4685864"><ele>793.0</ele><time>2026-04-12T09:13:08.99Z</time></trkpt><trkpt lat="46.5289153" lon="12.4685274"><ele>793.0</ele><time>2026-04-12T09:13:09.992Z</time></trkpt><trkpt lat="46.5287687" lon="12.4684584"><ele>793.0</ele><time>2026-04-12T09:13:10.991Z</time></trkpt><trkpt lat="46.5286246" lon="12.4683874"><ele>796.6666666666666</ele><time>2026-04-12T09:13:11.99Z</time></trkpt><trkpt lat="46.5284794" lon="12.4683206"><ele>800.3333333333333</ele><time>2026-04-12T09:13:12.99Z</time></trkpt><trkpt lat="46.5283342" lon="12.468261"><ele>804.0</ele><time>2026-04-12T09:13:13.991Z</time></trkpt><trkpt lat="46.5281864" lon="12.4682049"><ele>804.0</ele><time>2026-04-12T09:13:14.991Z</time></trkpt><trkpt lat="46.5280345" lon="12.4681554"><ele>804.0</ele><time>2026-04-12T09:13:15.99Z</time></trkpt><trkpt lat="46.5278874" lon="12.4681083"><ele>804.0</ele><time>2026-04-12T09:13:16.99Z</time></trkpt><trkpt lat="46.527737" lon="12.4680642"><ele>801.3333333333333</ele><time>2026-04-12T09:13:17.99Z</time></trkpt><trkpt lat="46.5275922" lon="12.468017"><ele>798.6666666666666</ele><time>2026-04-12T09:13:18.99Z</time></trkpt><trkpt lat="46.5274417" lon="12.4679755"><ele>796.0</ele><time>2026-04-12T09:13:19.991Z</time></trkpt><trkpt lat="46.5272946" lon="12.4679327"><ele>796.0</ele><time>2026-04-12T09:13:20.991Z</time></trkpt><trkpt lat="46.5271446" lon="12.4678898"><ele>796.0</ele><time>2026-04-12T09:13:21.991Z</time></trkpt><trkpt lat="46.5269896" lon="12.4678536"><ele>796.0</ele><time>2026-04-12T09:13:22.991Z</time></trkpt><trkpt lat="46.5268295" lon="12.4678305"><ele>797.3333333333333</ele><time>2026-04-12T09:13:23.99Z</time></trkpt><trkpt lat="46.526665" lon="12.4678242"><ele>798.6666666666667</ele><time>2026-04-12T09:13:24.992Z</time></trkpt><trkpt lat="46.5264947" lon="12.467832"><ele>800.0</ele><time>2026-04-12T09:13:25.99Z</time></trkpt><trkpt lat="46.5263289" lon="12.4678372"><ele>798.3333333333334</ele><time>2026-04-12T09:13:26.991Z</time></trkpt><trkpt lat="46.5261739" lon="12.4678469"><ele>796.6666666666667</ele><time>2026-04-12T09:13:27.99Z</time></trkpt><trkpt lat="46.5260169" lon="12.4678491"><ele>795.0</ele><time>2026-04-12T09:13:28.99Z</time></trkpt><trkpt lat="46.525858" lon="12.4678552"><ele>795.0</ele><time>2026-04-12T09:13:29.991Z</time></trkpt><trkpt lat="46.5257011" lon="12.467819"><ele>795.0</ele><time>2026-04-12T09:13:30.991Z</time></trkpt><trkpt lat="46.5255472" lon="12.4677878"><ele>795.0</ele><time>2026-04-12T09:13:31.99Z</time></trkpt><trkpt lat="46.5253969" lon="12.467694"><ele>800.6666666666667</ele><time>2026-04-12T09:13:32.993Z</time></trkpt><trkpt lat="46.5252475" lon="12.4675854"><ele>806.3333333333334</ele><time>2026-04-12T09:13:33.991Z</time></trkpt><trkpt lat="46.5251124" lon="12.4674621"><ele>812.0</ele><time>2026-04-12T09:13:34.99Z</time></trkpt><trkpt lat="46.5249871" lon="12.467332"><ele>812.0</ele><time>2026-04-12T09:13:35.991Z</time></trkpt><trkpt lat="46.5248685" lon="12.4672105"><ele>812.0</ele><time>2026-04-12T09:13:36.992Z</time></trkpt><trkpt lat="46.5247609" lon="12.4670908"><ele>812.0</ele><time>2026-04-12T09:13:37.99Z</time></trkpt><trkpt lat="46.5246607" lon="12.4669777"><ele>812.0</ele><time>2026-04-12T09:13:38.99Z</time></trkpt><trkpt lat="46.5245573" lon="12.4668788"><ele>805.75</ele><time>2026-04-12T09:13:39.991Z</time></trkpt><trkpt lat="46.5244418" lon="12.4668092"><ele>799.5</ele><time>2026-04-12T09:13:40.992Z</time></trkpt><trkpt lat="46.5243092" lon="12.4667604"><ele>793.25</ele><time>2026-04-12T09:13:41.99Z</time></trkpt><trkpt lat="46.5241525" lon="12.4667722"><ele>787.0</ele><time>2026-04-12T09:13:42.99Z</time></trkpt><trkpt lat="46.5239849" lon="12.4668088"><ele>787.0</ele><time>2026-04-12T09:13:43.99Z</time></trkpt><trkpt lat="46.5238234" lon="12.466899"><ele>787.0</ele><time>2026-04-12T09:13:44.99Z</time></trkpt><trkpt lat="46.5236654" lon="12.4669888"><ele>787.0</ele><time>2026-04-12T09:13:45.991Z</time></trkpt><trkpt lat="46.5235141" lon="12.4670791"><ele>794.6666666666666</ele><time>2026-04-12T09:13:46.99Z</time></trkpt><trkpt lat="46.5233694" lon="12.4671627"><ele>802.3333333333333</ele><time>2026-04-12T09:13:47.991Z</time></trkpt><trkpt lat="46.5232242" lon="12.4672393"><ele>810.0</ele><time>2026-04-12T09:13:48.99Z</time></trkpt><trkpt lat="46.523065" lon="12.4672864"><ele>805.6666666666667</ele><time>2026-04-12T09:13:49.99Z</time></trkpt><trkpt lat="46.5228954" lon="12.4673035"><ele>801.3333333333334</ele><time>2026-04-12T09:13:50.99Z</time></trkpt><trkpt lat="46.5227224" lon="12.4672875"><ele>797.0</ele><time>2026-04-12T09:13:51.99Z</time></trkpt><trkpt lat="46.5225574" lon="12.4672685"><ele>797.0</ele><time>2026-04-12T09:13:52.992Z</time></trkpt><trkpt lat="46.5223973" lon="12.467245"><ele>797.0</ele><time>2026-04-12T09:13:53.991Z</time></trkpt><trkpt lat="46.5222396" lon="12.4672204"><ele>797.0</ele><time>2026-04-12T09:13:54.99Z</time></trkpt><trkpt lat="46.5220808" lon="12.4671959"><ele>798.3333333333334</ele><time>2026-04-12T09:13:55.992Z</time></trkpt><trkpt lat="46.5219192" lon="12.4671774"><ele>799.6666666666667</ele><time>2026-04-12T09:13:56.991Z</time></trkpt><trkpt lat="46.5217584" lon="12.467188"><ele>801.0</ele><time>2026-04-12T09:13:57.991Z</time></trkpt><trkpt lat="46.5215918" lon="12.4672144"><ele>801.0</ele><time>2026-04-12T09:13:58.991Z</time></trkpt><trkpt lat="46.5214288" lon="12.467259"><ele>801.0</ele><time>2026-04-12T09:13:59.99Z</time></trkpt><trkpt lat="46.5212582" lon="12.4673145"><ele>801.0</ele><time>2026-04-12T09:14:00.991Z</time></trkpt><trkpt lat="46.5210898" lon="12.4673693"><ele>801.6666666666667</ele><time>2026-04-12T09:14:01.992Z</time></trkpt><trkpt lat="46.5209252" lon="12.4674002"><ele>802.3333333333334</ele><time>2026-04-12T09:14:02.991Z</time></trkpt><trkpt lat="46.5207618" lon="12.467418"><ele>803.0</ele><time>2026-04-12T09:14:03.991Z</time></trkpt><trkpt lat="46.5206034" lon="12.46738"><ele>803.0</ele><time>2026-04-12T09:14:04.991Z</time></trkpt><trkpt lat="46.5204533" lon="12.4673411"><ele>803.0</ele><time>2026-04-12T09:14:05.99Z</time></trkpt><trkpt lat="46.5203087" lon="12.4672722"><ele>803.0</ele><time>2026-04-12T09:14:06.99Z</time></trkpt><trkpt lat="46.5201729" lon="12.4671869"><ele>797.0</ele><time>2026-04-12T09:14:07.99Z</time></trkpt><trkpt lat="46.5200339" lon="12.4670941"><ele>791.0</ele><time>2026-04-12T09:14:08.991Z</time></trkpt><trkpt lat="46.5198968" lon="12.4669909"><ele>785.0</ele><time>2026-04-12T09:14:09.991Z</time></trkpt><trkpt lat="46.5197659" lon="12.4668709"><ele>785.0</ele><time>2026-04-12T09:14:10.991Z</time></trkpt><trkpt lat="46.5196333" lon="12.4667342"><ele>785.0</ele><time>2026-04-12T09:14:11.991Z</time></trkpt><trkpt lat="46.5194988" lon="12.4665891"><ele>785.0</ele><time>2026-04-12T09:14:12.991Z</time></trkpt><trkpt lat="46.5193718" lon="12.4664314"><ele>786.0</ele><time>2026-04-12T09:14:13.991Z</time></trkpt><trkpt lat="46.5192486" lon="12.466284"><ele>787.0</ele><time>2026-04-12T09:14:14.99Z</time></trkpt><trkpt lat="46.519114" lon="12.4661473"><ele>788.0</ele><time>2026-04-12T09:14:15.99Z</time></trkpt><trkpt lat="46.5189731" lon="12.4660327"><ele>788.0</ele><time>2026-04-12T09:14:16.991Z</time></trkpt><trkpt lat="46.518834" lon="12.4659229"><ele>788.0</ele><time>2026-04-12T09:14:17.99Z</time></trkpt><trkpt lat="46.5187025" lon="12.4658207"><ele>788.0</ele><time>2026-04-12T09:14:18.991Z</time></trkpt><trkpt lat="46.5185708" lon="12.465738"><ele>787.0</ele><time>2026-04-12T09:14:19.99Z</time></trkpt><trkpt lat="46.5184474" lon="12.4656596"><ele>786.0</ele><time>2026-04-12T09:14:20.99Z</time></trkpt><trkpt lat="46.5183314" lon="12.4655811"><ele>785.0</ele><time>2026-04-12T09:14:21.992Z</time></trkpt><trkpt lat="46.5182137" lon="12.4655058"><ele>784.0</ele><time>2026-04-12T09:14:22.991Z</time></trkpt><trkpt lat="46.5181004" lon="12.4654275"><ele>784.0</ele><time>2026-04-12T09:14:23.99Z</time></trkpt><trkpt lat="46.5179882" lon="12.4653477"><ele>784.0</ele><time>2026-04-12T09:14:24.99Z</time></trkpt><trkpt lat="46.5178777" lon="12.4652672"><ele>784.0</ele><time>2026-04-12T09:14:25.992Z</time></trkpt><trkpt lat="46.5177651" lon="12.4651876"><ele>784.0</ele><time>2026-04-12T09:14:26.992Z</time></trkpt><trkpt lat="46.5176517" lon="12.4651072"><ele>785.75</ele><time>2026-04-12T09:14:27.991Z</time></trkpt><trkpt lat="46.5175329" lon="12.4650219"><ele>787.5</ele><time>2026-04-12T09:14:28.992Z</time></trkpt><trkpt lat="46.5174114" lon="12.4649368"><ele>789.25</ele><time>2026-04-12T09:14:29.992Z</time></trkpt><trkpt lat="46.5172888" lon="12.4648538"><ele>791.0</ele><time>2026-04-12T09:14:30.991Z</time></trkpt><trkpt lat="46.5171739" lon="12.464775"><ele>791.0</ele><time>2026-04-12T09:14:31.991Z</time></trkpt><trkpt lat="46.517064" lon="12.4647005"><ele>791.0</ele><time>2026-04-12T09:14:32.99Z</time></trkpt><trkpt lat="46.516959" lon="12.4646259"><ele>791.0</ele><time>2026-04-12T09:14:33.99Z</time></trkpt><trkpt lat="46.5168543" lon="12.4645526"><ele>791.0</ele><time>2026-04-12T09:14:34.99Z</time></trkpt><trkpt lat="46.5167581" lon="12.4644817"><ele>790.75</ele><time>2026-04-12T09:14:35.99Z</time></trkpt><trkpt lat="46.5166674" lon="12.464417"><ele>790.5</ele><time>2026-04-12T09:14:36.991Z</time></trkpt><trkpt lat="46.5165671" lon="12.4643443"><ele>790.25</ele><time>2026-04-12T09:14:37.991Z</time></trkpt><trkpt lat="46.5164611" lon="12.4642738"><ele>790.0</ele><time>2026-04-12T09:14:38.992Z</time></trkpt><trkpt lat="46.5163467" lon="12.4642011"><ele>789.25</ele><time>2026-04-12T09:14:39.99Z</time></trkpt><trkpt lat="46.5162313" lon="12.464145"><ele>788.5</ele><time>2026-04-12T09:14:40.991Z</time></trkpt><trkpt lat="46.5161077" lon="12.4640946"><ele>787.75</ele><time>2026-04-12T09:14:41.99Z</time></trkpt><trkpt lat="46.5159817" lon="12.4640504"><ele>787.0</ele><time>2026-04-12T09:14:42.99Z</time></trkpt><trkpt lat="46.5158538" lon="12.4640201"><ele>787.0</ele><time>2026-04-12T09:14:43.991Z</time></trkpt><trkpt lat="46.5157279" lon="12.4639865"><ele>787.0</ele><time>2026-04-12T09:14:44.992Z</time></trkpt><trkpt lat="46.5155998" lon="12.4639519"><ele>787.0</ele><time>2026-04-12T09:14:45.991Z</time></trkpt><trkpt lat="46.5154743" lon="12.4639151"><ele>787.0</ele><time>2026-04-12T09:14:46.99Z</time></trkpt><trkpt lat="46.5153478" lon="12.4638814"><ele>785.75</ele><time>2026-04-12T09:14:47.99Z</time></trkpt><trkpt lat="46.5152207" lon="12.4638468"><ele>784.5</ele><time>2026-04-12T09:14:48.99Z</time></trkpt><trkpt lat="46.5150966" lon="12.4638154"><ele>783.25</ele><time>2026-04-12T09:14:49.99Z</time></trkpt><trkpt lat="46.5149716" lon="12.463782"><ele>782.0</ele><time>2026-04-12T09:14:50.99Z</time></trkpt><trkpt lat="46.5148501" lon="12.463748"><ele>781.25</ele><time>2026-04-12T09:14:51.991Z</time></trkpt><trkpt lat="46.5147329" lon="12.4637106"><ele>780.5</ele><time>2026-04-12T09:14:52.99Z</time></trkpt><trkpt lat="46.5146166" lon="12.4636722"><ele>779.75</ele><time>2026-04-12T09:14:53.99Z</time></trkpt><trkpt lat="46.514498" lon="12.4636345"><ele>779.0</ele><time>2026-04-12T09:14:54.992Z</time></trkpt><trkpt lat="46.5143833" lon="12.4635993"><ele>779.0</ele><time>2026-04-12T09:14:55.99Z</time></trkpt><trkpt lat="46.5142645" lon="12.4635485"><ele>779.0</ele><time>2026-04-12T09:14:56.99Z</time></trkpt><trkpt lat="46.5141509" lon="12.4634812"><ele>779.0</ele><time>2026-04-12T09:14:57.99Z</time></trkpt><trkpt lat="46.5140415" lon="12.4633994"><ele>779.0</ele><time>2026-04-12T09:14:58.992Z</time></trkpt><trkpt lat="46.5139414" lon="12.4633054"><ele>779.0</ele><time>2026-04-12T09:14:59.99Z</time></trkpt><trkpt lat="46.5138523" lon="12.4631977"><ele>779.0</ele><time>2026-04-12T09:15:00.991Z</time></trkpt><trkpt lat="46.5137641" lon="12.4630935"><ele>779.0</ele><time>2026-04-12T09:15:01.991Z</time></trkpt><trkpt lat="46.5136773" lon="12.4629864"><ele>779.0</ele><time>2026-04-12T09:15:02.99Z</time></trkpt><trkpt lat="46.5135911" lon="12.4628787"><ele>777.5</ele><time>2026-04-12T09:15:03.99Z</time></trkpt><trkpt lat="46.5135031" lon="12.4627711"><ele>776.0</ele><time>2026-04-12T09:15:04.99Z</time></trkpt><trkpt lat="46.5134113" lon="12.4626691"><ele>774.5</ele><time>2026-04-12T09:15:05.99Z</time></trkpt><trkpt lat="46.5133185" lon="12.4625652"><ele>773.0</ele><time>2026-04-12T09:15:06.99Z</time></trkpt><trkpt lat="46.5132221" lon="12.4624617"><ele>773.0</ele><time>2026-04-12T09:15:07.991Z</time></trkpt><trkpt lat="46.5131195" lon="12.4623637"><ele>773.0</ele><time>2026-04-12T09:15:08.99Z</time></trkpt><trkpt lat="46.5130103" lon="12.4622658"><ele>773.0</ele><time>2026-04-12T09:15:09.99Z</time></trkpt><trkpt lat="46.5129001" lon="12.4621829"><ele>773.0</ele><time>2026-04-12T09:15:10.99Z</time></trkpt><trkpt lat="46.5127905" lon="12.4621002"><ele>771.5</ele><time>2026-04-12T09:15:11.99Z</time></trkpt><trkpt lat="46.512684" lon="12.4620107"><ele>770.0</ele><time>2026-04-12T09:15:12.991Z</time></trkpt><trkpt lat="46.5125759" lon="12.4619314"><ele>768.5</ele><time>2026-04-12T09:15:13.99Z</time></trkpt><trkpt lat="46.5124684" lon="12.4618424"><ele>767.0</ele><time>2026-04-12T09:15:14.991Z</time></trkpt><trkpt lat="46.5123664" lon="12.4617618"><ele>767.0</ele><time>2026-04-12T09:15:15.99Z</time></trkpt><trkpt lat="46.512266" lon="12.46169"><ele>767.0</ele><time>2026-04-12T09:15:16.991Z</time></trkpt><trkpt lat="46.5121733" lon="12.461618"><ele>767.0</ele><time>2026-04-12T09:15:17.99Z</time></trkpt><trkpt lat="46.5120787" lon="12.4615465"><ele>767.0</ele><time>2026-04-12T09:15:18.99Z</time></trkpt><trkpt lat="46.5120102" lon="12.4614793"><ele>767.0</ele><time>2026-04-12T09:15:19.991Z</time></trkpt><trkpt lat="46.511936" lon="12.4614007"><ele>767.3333333333333</ele><time>2026-04-12T09:15:21.99Z</time></trkpt><trkpt lat="46.5118662" lon="12.4613442"><ele>767.6666666666666</ele><time>2026-04-12T09:15:24.99Z</time></trkpt><trkpt lat="46.5118039" lon="12.4612892"><ele>768.0</ele><time>2026-04-12T09:16:58.99Z</time></trkpt><trkpt lat="46.5117316" lon="12.461249"><ele>768.3333333333333</ele><time>2026-04-12T09:16:59.99Z</time></trkpt><trkpt lat="46.51166" lon="12.4612006"><ele>768.6666666666666</ele><time>2026-04-12T09:17:00.99Z</time></trkpt><trkpt lat="46.5115689" lon="12.4611424"><ele>769.0</ele><time>2026-04-12T09:17:01.99Z</time></trkpt><trkpt lat="46.5114672" lon="12.4610724"><ele>769.75</ele><time>2026-04-12T09:17:02.99Z</time></trkpt><trkpt lat="46.5113572" lon="12.4609941"><ele>770.5</ele><time>2026-04-12T09:17:03.99Z</time></trkpt><trkpt lat="46.5112474" lon="12.4609118"><ele>771.25</ele><time>2026-04-12T09:17:04.99Z</time></trkpt><trkpt lat="46.5111284" lon="12.4608196"><ele>772.0</ele><time>2026-04-12T09:17:05.99Z</time></trkpt><trkpt lat="46.5109992" lon="12.4607145"><ele>772.0</ele><time>2026-04-12T09:17:06.99Z</time></trkpt><trkpt lat="46.5108809" lon="12.4605969"><ele>772.0</ele><time>2026-04-12T09:17:07.99Z</time></trkpt><trkpt lat="46.5107666" lon="12.4604686"><ele>772.0</ele><time>2026-04-12T09:17:08.99Z</time></trkpt><trkpt lat="46.5106537" lon="12.4603305"><ele>772.0</ele><time>2026-04-12T09:17:09.991Z</time></trkpt><trkpt lat="46.5105406" lon="12.4601898"><ele>771.3333333333333</ele><time>2026-04-12T09:17:10.99Z</time></trkpt><trkpt lat="46.5104285" lon="12.4600454"><ele>770.6666666666667</ele><time>2026-04-12T09:17:11.991Z</time></trkpt><trkpt lat="46.5103114" lon="12.4599017"><ele>770.0</ele><time>2026-04-12T09:17:12.99Z</time></trkpt><trkpt lat="46.5101923" lon="12.4597487"><ele>765.0</ele><time>2026-04-12T09:17:13.99Z</time></trkpt><trkpt lat="46.5100704" lon="12.459595"><ele>760.0</ele><time>2026-04-12T09:17:14.99Z</time></trkpt><trkpt lat="46.5099452" lon="12.4594359"><ele>755.0</ele><time>2026-04-12T09:17:15.99Z</time></trkpt><trkpt lat="46.5098136" lon="12.4592799"><ele>755.0</ele><time>2026-04-12T09:17:16.99Z</time></trkpt><trkpt lat="46.5096738" lon="12.4591279"><ele>755.0</ele><time>2026-04-12T09:17:17.99Z</time></trkpt><trkpt lat="46.5095225" lon="12.4589896"><ele>755.0</ele><time>2026-04-12T09:17:18.99Z</time></trkpt><trkpt lat="46.5093758" lon="12.4588678"><ele>752.0</ele><time>2026-04-12T09:17:19.99Z</time></trkpt><trkpt lat="46.5092277" lon="12.4587623"><ele>749.0</ele><time>2026-04-12T09:17:20.99Z</time></trkpt><trkpt lat="46.5090798" lon="12.4586632"><ele>746.0</ele><time>2026-04-12T09:17:21.99Z</time></trkpt><trkpt lat="46.5089366" lon="12.4585716"><ele>746.0</ele><time>2026-04-12T09:17:22.99Z</time></trkpt><trkpt lat="46.5087968" lon="12.4584902"><ele>746.0</ele><time>2026-04-12T09:17:23.99Z</time></trkpt><trkpt lat="46.5086615" lon="12.4584091"><ele>746.0</ele><time>2026-04-12T09:17:24.991Z</time></trkpt><trkpt lat="46.5085293" lon="12.4583344"><ele>746.0</ele><time>2026-04-12T09:17:25.99Z</time></trkpt><trkpt lat="46.5083963" lon="12.4582611"><ele>743.75</ele><time>2026-04-12T09:17:26.99Z</time></trkpt><trkpt lat="46.5082637" lon="12.4581855"><ele>741.5</ele><time>2026-04-12T09:17:27.991Z</time></trkpt><trkpt lat="46.5081293" lon="12.4581123"><ele>739.25</ele><time>2026-04-12T09:17:28.99Z</time></trkpt><trkpt lat="46.5079959" lon="12.4580384"><ele>737.0</ele><time>2026-04-12T09:17:29.99Z</time></trkpt><trkpt lat="46.5078627" lon="12.4579647"><ele>738.0</ele><time>2026-04-12T09:17:30.99Z</time></trkpt><trkpt lat="46.5077296" lon="12.457898"><ele>739.0</ele><time>2026-04-12T09:17:31.99Z</time></trkpt><trkpt lat="46.5075947" lon="12.4578293"><ele>740.0</ele><time>2026-04-12T09:17:32.991Z</time></trkpt><trkpt lat="46.5074609" lon="12.4577602"><ele>741.0</ele><time>2026-04-12T09:17:33.99Z</time></trkpt><trkpt lat="46.507329" lon="12.4576923"><ele>741.0</ele><time>2026-04-12T09:17:34.99Z</time></trkpt><trkpt lat="46.5071992" lon="12.4576286"><ele>741.0</ele><time>2026-04-12T09:17:35.99Z</time></trkpt><trkpt lat="46.5070695" lon="12.4575685"><ele>741.0</ele><time>2026-04-12T09:17:36.99Z</time></trkpt><trkpt lat="46.5069376" lon="12.4575212"><ele>741.0</ele><time>2026-04-12T09:17:37.99Z</time></trkpt><trkpt lat="46.5067991" lon="12.4574963"><ele>741.5</ele><time>2026-04-12T09:17:38.99Z</time></trkpt><trkpt lat="46.5066553" lon="12.4574896"><ele>742.0</ele><time>2026-04-12T09:17:39.99Z</time></trkpt><trkpt lat="46.5065078" lon="12.4574995"><ele>742.5</ele><time>2026-04-12T09:17:40.99Z</time></trkpt><trkpt lat="46.5063567" lon="12.4575174"><ele>743.0</ele><time>2026-04-12T09:17:41.99Z</time></trkpt><trkpt lat="46.5062057" lon="12.4575376"><ele>743.0</ele><time>2026-04-12T09:17:42.99Z</time></trkpt><trkpt lat="46.5060582" lon="12.4575646"><ele>743.0</ele><time>2026-04-12T09:17:43.99Z</time></trkpt><trkpt lat="46.505913" lon="12.4575907"><ele>743.0</ele><time>2026-04-12T09:17:44.99Z</time></trkpt><trkpt lat="46.5057692" lon="12.4576082"><ele>743.0</ele><time>2026-04-12T09:17:45.991Z</time></trkpt><trkpt lat="46.5056275" lon="12.4576121"><ele>743.0</ele><time>2026-04-12T09:17:46.99Z</time></trkpt><trkpt lat="46.5054867" lon="12.4576026"><ele>743.0</ele><time>2026-04-12T09:17:47.99Z</time></trkpt><trkpt lat="46.5053498" lon="12.4575769"><ele>743.0</ele><time>2026-04-12T09:17:48.991Z</time></trkpt><trkpt lat="46.5052143" lon="12.4575459"><ele>743.0</ele><time>2026-04-12T09:17:49.99Z</time></trkpt><trkpt lat="46.5050775" lon="12.4575189"><ele>743.5</ele><time>2026-04-12T09:17:50.99Z</time></trkpt><trkpt lat="46.5049448" lon="12.4574895"><ele>744.0</ele><time>2026-04-12T09:17:51.99Z</time></trkpt><trkpt lat="46.5048122" lon="12.4574685"><ele>744.5</ele><time>2026-04-12T09:17:52.991Z</time></trkpt><trkpt lat="46.5046754" lon="12.4574657"><ele>745.0</ele><time>2026-04-12T09:17:53.99Z</time></trkpt><trkpt lat="46.5045377" lon="12.4574823"><ele>743.5</ele><time>2026-04-12T09:17:54.99Z</time></trkpt><trkpt lat="46.5044035" lon="12.4575075"><ele>742.0</ele><time>2026-04-12T09:17:55.99Z</time></trkpt><trkpt lat="46.5042727" lon="12.4575276"><ele>740.5</ele><time>2026-04-12T09:17:56.99Z</time></trkpt><trkpt lat="46.5041437" lon="12.4575449"><ele>739.0</ele><time>2026-04-12T09:17:57.99Z</time></trkpt><trkpt lat="46.5040184" lon="12.4575655"><ele>739.0</ele><time>2026-04-12T09:17:58.991Z</time></trkpt><trkpt lat="46.5038976" lon="12.4575811"><ele>739.0</ele><time>2026-04-12T09:17:59.991Z</time></trkpt><trkpt lat="46.5037784" lon="12.45759"><ele>739.0</ele><time>2026-04-12T09:18:00.991Z</time></trkpt><trkpt lat="46.5036606" lon="12.4575898"><ele>739.0</ele><time>2026-04-12T09:18:01.99Z</time></trkpt><trkpt lat="46.5035434" lon="12.4575769"><ele>740.0</ele><time>2026-04-12T09:18:02.99Z</time></trkpt><trkpt lat="46.503426" lon="12.4575439"><ele>741.0</ele><time>2026-04-12T09:18:03.99Z</time></trkpt><trkpt lat="46.5033096" lon="12.4574906"><ele>742.0</ele><time>2026-04-12T09:18:04.99Z</time></trkpt><trkpt lat="46.5031957" lon="12.457423"><ele>743.0</ele><time>2026-04-12T09:18:05.99Z</time></trkpt><trkpt lat="46.5030859" lon="12.457345"><ele>743.0</ele><time>2026-04-12T09:18:06.99Z</time></trkpt><trkpt lat="46.5029743" lon="12.4572611"><ele>743.0</ele><time>2026-04-12T09:18:07.99Z</time></trkpt><trkpt lat="46.5028625" lon="12.4571741"><ele>743.0</ele><time>2026-04-12T09:18:08.99Z</time></trkpt><trkpt lat="46.5027501" lon="12.457084"><ele>743.0</ele><time>2026-04-12T09:18:09.99Z</time></trkpt><trkpt lat="46.5026248" lon="12.4569853"><ele>740.25</ele><time>2026-04-12T09:18:10.99Z</time></trkpt><trkpt lat="46.502496" lon="12.4568842"><ele>737.5</ele><time>2026-04-12T09:18:11.991Z</time></trkpt><trkpt lat="46.5023658" lon="12.4567762"><ele>734.75</ele><time>2026-04-12T09:18:12.99Z</time></trkpt><trkpt lat="46.5022335" lon="12.4566715"><ele>732.0</ele><time>2026-04-12T09:18:13.99Z</time></trkpt><trkpt lat="46.5021029" lon="12.4565639"><ele>733.25</ele><time>2026-04-12T09:18:14.991Z</time></trkpt><trkpt lat="46.5019713" lon="12.4564598"><ele>734.5</ele><time>2026-04-12T09:18:15.99Z</time></trkpt><trkpt lat="46.501845" lon="12.456359"><ele>735.75</ele><time>2026-04-12T09:18:16.99Z</time></trkpt><trkpt lat="46.501738" lon="12.4562714"><ele>737.0</ele><time>2026-04-12T09:18:17.991Z</time></trkpt><trkpt lat="46.5016514" lon="12.4562031"><ele>737.0</ele><time>2026-04-12T09:18:18.99Z</time></trkpt><trkpt lat="46.5015751" lon="12.4561437"><ele>737.0</ele><time>2026-04-12T09:18:19.99Z</time></trkpt><trkpt lat="46.5015157" lon="12.4560951"><ele>737.0</ele><time>2026-04-12T09:18:20.99Z</time></trkpt><trkpt lat="46.501425" lon="12.4560166"><ele>737.0</ele><time>2026-04-12T09:18:22.991Z</time></trkpt><trkpt lat="46.5013537" lon="12.456003"><ele>737.0</ele><time>2026-04-12T09:18:24.99Z</time></trkpt><trkpt lat="46.5013104" lon="12.4560935"><ele>737.0</ele><time>2026-04-12T09:18:26.99Z</time></trkpt><trkpt lat="46.5012789" lon="12.4562211"><ele>738.1666666666666</ele><time>2026-04-12T09:18:28.991Z</time></trkpt><trkpt lat="46.5012415" lon="12.4563337"><ele>739.3333333333333</ele><time>2026-04-12T09:18:30.99Z</time></trkpt><trkpt lat="46.50121" lon="12.4564415"><ele>740.5</ele><time>2026-04-12T09:18:32.99Z</time></trkpt><trkpt lat="46.5011835" lon="12.4565363"><ele>741.6666666666666</ele><time>2026-04-12T09:18:34.991Z</time></trkpt><trkpt lat="46.5011419" lon="12.4566224"><ele>742.8333333333334</ele><time>2026-04-12T09:18:36.991Z</time></trkpt><trkpt lat="46.5011036" lon="12.4567103"><ele>744.0</ele><time>2026-04-12T09:18:38.99Z</time></trkpt><trkpt lat="46.5010678" lon="12.4568015"><ele>744.0</ele><time>2026-04-12T09:18:40.99Z</time></trkpt><trkpt lat="46.5010334" lon="12.4569064"><ele>744.0</ele><time>2026-04-12T09:18:42.991Z</time></trkpt><trkpt lat="46.5010001" lon="12.4569865"><ele>744.0</ele><time>2026-04-12T09:18:44.99Z</time></trkpt><trkpt lat="46.5009417" lon="12.4570367"><ele>744.0</ele><time>2026-04-12T09:18:46.99Z</time></trkpt><trkpt lat="46.5008525" lon="12.4570533"><ele>744.0</ele><time>2026-04-12T09:18:48.99Z</time></trkpt><trkpt lat="46.5007699" lon="12.4570498"><ele>744.0</ele><time>2026-04-12T09:18:50.99Z</time></trkpt><trkpt lat="46.5006836" lon="12.4570971"><ele>748.2</ele><time>2026-04-12T09:18:52.991Z</time></trkpt><trkpt lat="46.5006103" lon="12.457261"><ele>752.4000000000001</ele><time>2026-04-12T09:18:54.99Z</time></trkpt><trkpt lat="46.5005216" lon="12.457366"><ele>756.6</ele><time>2026-04-12T09:18:56.991Z</time></trkpt><trkpt lat="46.5004529" lon="12.4573932"><ele>760.8</ele><time>2026-04-12T09:18:57.99Z</time></trkpt><trkpt lat="46.5003736" lon="12.4573967"><ele>765.0</ele><time>2026-04-12T09:18:58.99Z</time></trkpt><trkpt lat="46.5002869" lon="12.4573925"><ele>766.2857142857143</ele><time>2026-04-12T09:18:59.991Z</time></trkpt><trkpt lat="46.5002093" lon="12.4573984"><ele>767.5714285714286</ele><time>2026-04-12T09:19:00.99Z</time></trkpt><trkpt lat="46.500132" lon="12.4574137"><ele>768.8571428571429</ele><time>2026-04-12T09:19:01.99Z</time></trkpt><trkpt lat="46.5000619" lon="12.4574022"><ele>770.1428571428571</ele><time>2026-04-12T09:19:02.99Z</time></trkpt><trkpt lat="46.4999921" lon="12.4573884"><ele>771.4285714285714</ele><time>2026-04-12T09:19:03.99Z</time></trkpt><trkpt lat="46.4999151" lon="12.457378"><ele>772.7142857142858</ele><time>2026-04-12T09:19:04.991Z</time></trkpt><trkpt lat="46.4998515" lon="12.4573916"><ele>774.0</ele><time>2026-04-12T09:19:05.99Z</time></trkpt><trkpt lat="46.4997765" lon="12.4574107"><ele>774.0</ele><time>2026-04-12T09:19:06.991Z</time></trkpt><trkpt lat="46.4997062" lon="12.4574501"><ele>774.0</ele><time>2026-04-12T09:19:07.99Z</time></trkpt><trkpt lat="46.4996056" lon="12.457545"><ele>774.0</ele><time>2026-04-12T09:19:09.991Z</time></trkpt><trkpt lat="46.4995314" lon="12.4576148"><ele>774.0</ele><time>2026-04-12T09:19:10.991Z</time></trkpt><trkpt lat="46.4994506" lon="12.457676"><ele>774.0</ele><time>2026-04-12T09:19:11.99Z</time></trkpt><trkpt lat="46.4993543" lon="12.4577502"><ele>776.0</ele><time>2026-04-12T09:19:12.99Z</time></trkpt><trkpt lat="46.4992777" lon="12.4578107"><ele>778.0</ele><time>2026-04-12T09:19:13.99Z</time></trkpt><trkpt lat="46.4992173" lon="12.4578644"><ele>780.0</ele><time>2026-04-12T09:19:14.99Z</time></trkpt><trkpt lat="46.4991747" lon="12.4579376"><ele>782.0</ele><time>2026-04-12T09:19:15.99Z</time></trkpt><trkpt lat="46.4991401" lon="12.4580255"><ele>784.0</ele><time>2026-04-12T09:19:16.991Z</time></trkpt><trkpt lat="46.4991441" lon="12.4581189"><ele>786.0</ele><time>2026-04-12T09:19:17.99Z</time></trkpt><trkpt lat="46.4991282" lon="12.4582708"><ele>790.0</ele><time>2026-04-12T09:19:19.99Z</time></trkpt><trkpt lat="46.4990558" lon="12.4583272"><ele>794.0</ele><time>2026-04-12T09:19:21.99Z</time></trkpt><trkpt lat="46.4989653" lon="12.458298"><ele>798.0</ele><time>2026-04-12T09:19:23.99Z</time></trkpt><trkpt lat="46.498814" lon="12.4582622"><ele>802.0</ele><time>2026-04-12T09:19:25.991Z</time></trkpt><trkpt lat="46.4987205" lon="12.4582295"><ele>806.0</ele><time>2026-04-12T09:19:26.99Z</time></trkpt><trkpt lat="46.4986296" lon="12.4581779"><ele>807.4</ele><time>2026-04-12T09:19:27.99Z</time></trkpt><trkpt lat="46.4985555" lon="12.4581392"><ele>808.8</ele><time>2026-04-12T09:19:28.99Z</time></trkpt><trkpt lat="46.4984832" lon="12.4581352"><ele>810.1999999999999</ele><time>2026-04-12T09:19:29.99Z</time></trkpt><trkpt lat="46.4984058" lon="12.4581492"><ele>811.5999999999999</ele><time>2026-04-12T09:19:30.991Z</time></trkpt><trkpt lat="46.498309" lon="12.4582297"><ele>813.0</ele><time>2026-04-12T09:19:32.991Z</time></trkpt><trkpt lat="46.4982269" lon="12.4583433"><ele>813.0</ele><time>2026-04-12T09:19:34.99Z</time></trkpt><trkpt lat="46.4981274" lon="12.458466"><ele>813.0</ele><time>2026-04-12T09:19:36.99Z</time></trkpt><trkpt lat="46.4980773" lon="12.4585309"><ele>813.0</ele><time>2026-04-12T09:19:37.99Z</time></trkpt><trkpt lat="46.4980052" lon="12.4586429"><ele>813.0</ele><time>2026-04-12T09:19:39.99Z</time></trkpt><trkpt lat="46.4979395" lon="12.4587222"><ele>813.0</ele><time>2026-04-12T09:19:41.991Z</time></trkpt><trkpt lat="46.4978704" lon="12.4587563"><ele>814.1666666666666</ele><time>2026-04-12T09:19:43.99Z</time></trkpt><trkpt lat="46.4977791" lon="12.4587109"><ele>815.3333333333333</ele><time>2026-04-12T09:19:45.99Z</time></trkpt><trkpt lat="46.4977165" lon="12.4586945"><ele>816.5</ele><time>2026-04-12T09:19:46.99Z</time></trkpt><trkpt lat="46.4976393" lon="12.4586745"><ele>817.6666666666666</ele><time>2026-04-12T09:19:47.99Z</time></trkpt><trkpt lat="46.4975683" lon="12.4586613"><ele>818.8333333333333</ele><time>2026-04-12T09:19:48.99Z</time></trkpt><trkpt lat="46.4974387" lon="12.4586068"><ele>820.0</ele><time>2026-04-12T09:19:50.99Z</time></trkpt><trkpt lat="46.4973738" lon="12.4585709"><ele>819.9999999999999</ele><time>2026-04-12T09:19:51.991Z</time></trkpt><trkpt lat="46.4973065" lon="12.4585405"><ele>820.0</ele><time>2026-04-12T09:19:52.99Z</time></trkpt><trkpt lat="46.4972354" lon="12.4585114"><ele>820.0</ele><time>2026-04-12T09:19:53.99Z</time></trkpt><trkpt lat="46.4971566" lon="12.4584743"><ele>820.0</ele><time>2026-04-12T09:19:54.99Z</time></trkpt><trkpt lat="46.4970814" lon="12.4584363"><ele>819.9999999999999</ele><time>2026-04-12T09:19:55.99Z</time></trkpt><trkpt lat="46.4970077" lon="12.4584023"><ele>820.0</ele><time>2026-04-12T09:19:56.99Z</time></trkpt><trkpt lat="46.4969408" lon="12.4583863"><ele>823.9999999999999</ele><time>2026-04-12T09:19:57.989Z</time></trkpt><trkpt lat="46.4968629" lon="12.4583705"><ele>828.0</ele><time>2026-04-12T09:19:58.989Z</time></trkpt><trkpt lat="46.4967958" lon="12.4583365"><ele>832.0</ele><time>2026-04-12T09:19:59.989Z</time></trkpt><trkpt lat="46.4967196" lon="12.4582927"><ele>836.0</ele><time>2026-04-12T09:20:00.989Z</time></trkpt><trkpt lat="46.4966534" lon="12.4582539"><ele>839.9999999999999</ele><time>2026-04-12T09:20:01.989Z</time></trkpt><trkpt lat="46.4965795" lon="12.4582361"><ele>844.0</ele><time>2026-04-12T09:20:02.989Z</time></trkpt><trkpt lat="46.496505" lon="12.4582297"><ele>843.9999999999999</ele><time>2026-04-12T09:20:03.989Z</time></trkpt><trkpt lat="46.496419" lon="12.4582286"><ele>844.0</ele><time>2026-04-12T09:20:04.989Z</time></trkpt><trkpt lat="46.4963318" lon="12.4582366"><ele>844.0</ele><time>2026-04-12T09:20:05.989Z</time></trkpt><trkpt lat="46.4962575" lon="12.4582345"><ele>844.0</ele><time>2026-04-12T09:20:06.989Z</time></trkpt><trkpt lat="46.4961809" lon="12.4582295"><ele>843.9999999999999</ele><time>2026-04-12T09:20:07.989Z</time></trkpt><trkpt lat="46.4961038" lon="12.4582303"><ele>844.0</ele><time>2026-04-12T09:20:08.989Z</time></trkpt><trkpt lat="46.4960279" lon="12.4582299"><ele>844.8333333333333</ele><time>2026-04-12T09:20:09.99Z</time></trkpt><trkpt lat="46.4959508" lon="12.4582194"><ele>845.6666666666666</ele><time>2026-04-12T09:20:10.989Z</time></trkpt><trkpt lat="46.4958784" lon="12.4581991"><ele>846.5</ele><time>2026-04-12T09:20:11.989Z</time></trkpt><trkpt lat="46.4958073" lon="12.4581679"><ele>847.3333333333333</ele><time>2026-04-12T09:20:12.989Z</time></trkpt><trkpt lat="46.4957339" lon="12.4581431"><ele>848.1666666666666</ele><time>2026-04-12T09:20:13.989Z</time></trkpt><trkpt lat="46.4956546" lon="12.4581314"><ele>849.0</ele><time>2026-04-12T09:20:14.989Z</time></trkpt><trkpt lat="46.495566" lon="12.4581533"><ele>849.0</ele><time>2026-04-12T09:20:15.989Z</time></trkpt><trkpt lat="46.4954629" lon="12.4581678"><ele>849.0</ele><time>2026-04-12T09:20:16.989Z</time></trkpt><trkpt lat="46.4953407" lon="12.4581954"><ele>849.0</ele><time>2026-04-12T09:20:17.989Z</time></trkpt><trkpt lat="46.4952304" lon="12.4582247"><ele>849.0</ele><time>2026-04-12T09:20:18.989Z</time></trkpt><trkpt lat="46.4951301" lon="12.4582426"><ele>849.0</ele><time>2026-04-12T09:20:19.989Z</time></trkpt><trkpt lat="46.4950326" lon="12.4582588"><ele>848.0</ele><time>2026-04-12T09:20:20.989Z</time></trkpt><trkpt lat="46.4949316" lon="12.4582785"><ele>847.0</ele><time>2026-04-12T09:20:21.989Z</time></trkpt><trkpt lat="46.494831" lon="12.4583041"><ele>846.0</ele><time>2026-04-12T09:20:22.989Z</time></trkpt><trkpt lat="46.4947254" lon="12.4583277"><ele>845.0</ele><time>2026-04-12T09:20:23.989Z</time></trkpt><trkpt lat="46.4946051" lon="12.458337"><ele>844.0</ele><time>2026-04-12T09:20:24.989Z</time></trkpt><trkpt lat="46.4944891" lon="12.4583648"><ele>843.8000000000001</ele><time>2026-04-12T09:20:25.989Z</time></trkpt><trkpt lat="46.494384" lon="12.4583869"><ele>843.6</ele><time>2026-04-12T09:20:26.989Z</time></trkpt><trkpt lat="46.4942776" lon="12.458417"><ele>843.4</ele><time>2026-04-12T09:20:27.989Z</time></trkpt><trkpt lat="46.4941784" lon="12.4584363"><ele>843.2</ele><time>2026-04-12T09:20:28.989Z</time></trkpt><trkpt lat="46.4940827" lon="12.4584523"><ele>843.0</ele><time>2026-04-12T09:20:29.989Z</time></trkpt><trkpt lat="46.4939827" lon="12.4584662"><ele>843.0</ele><time>2026-04-12T09:20:30.989Z</time></trkpt><trkpt lat="46.4938737" lon="12.4584769"><ele>843.0</ele><time>2026-04-12T09:20:31.989Z</time></trkpt><trkpt lat="46.4937679" lon="12.4584836"><ele>843.0</ele><time>2026-04-12T09:20:32.989Z</time></trkpt><trkpt lat="46.4936621" lon="12.458486"><ele>843.0</ele><time>2026-04-12T09:20:33.989Z</time></trkpt><trkpt lat="46.493559" lon="12.4584815"><ele>843.0</ele><time>2026-04-12T09:20:34.989Z</time></trkpt><trkpt lat="46.4934578" lon="12.4584734"><ele>841.8</ele><time>2026-04-12T09:20:35.989Z</time></trkpt><trkpt lat="46.4933588" lon="12.45846"><ele>840.5999999999999</ele><time>2026-04-12T09:20:36.989Z</time></trkpt><trkpt lat="46.4932605" lon="12.4584377"><ele>839.4000000000001</ele><time>2026-04-12T09:20:37.989Z</time></trkpt><trkpt lat="46.493166" lon="12.4584249"><ele>838.2</ele><time>2026-04-12T09:20:38.989Z</time></trkpt><trkpt lat="46.4930714" lon="12.4584187"><ele>837.0</ele><time>2026-04-12T09:20:39.989Z</time></trkpt><trkpt lat="46.4929774" lon="12.4584114"><ele>835.1666666666666</ele><time>2026-04-12T09:20:40.989Z</time></trkpt><trkpt lat="46.4928849" lon="12.4584024"><ele>833.3333333333333</ele><time>2026-04-12T09:20:41.989Z</time></trkpt><trkpt lat="46.4928015" lon="12.4583955"><ele>831.5</ele><time>2026-04-12T09:20:42.989Z</time></trkpt><trkpt lat="46.4927223" lon="12.4583762"><ele>829.6666666666666</ele><time>2026-04-12T09:20:43.989Z</time></trkpt><trkpt lat="46.4926446" lon="12.4583482"><ele>827.8333333333333</ele><time>2026-04-12T09:20:44.989Z</time></trkpt><trkpt lat="46.4925698" lon="12.4583117"><ele>826.0</ele><time>2026-04-12T09:20:45.989Z</time></trkpt><trkpt lat="46.492499" lon="12.458269"><ele>825.9999999999999</ele><time>2026-04-12T09:20:46.99Z</time></trkpt><trkpt lat="46.492432" lon="12.4582262"><ele>826.0</ele><time>2026-04-12T09:20:47.989Z</time></trkpt><trkpt lat="46.4923746" lon="12.4581713"><ele>826.0</ele><time>2026-04-12T09:20:48.99Z</time></trkpt><trkpt lat="46.4922655" lon="12.458074"><ele>826.0</ele><time>2026-04-12T09:20:50.99Z</time></trkpt><trkpt lat="46.4921831" lon="12.4580563"><ele>825.9999999999999</ele><time>2026-04-12T09:20:51.989Z</time></trkpt><trkpt lat="46.4920999" lon="12.4580469"><ele>826.0</ele><time>2026-04-12T09:20:52.989Z</time></trkpt><trkpt lat="46.4920165" lon="12.4580516"><ele>823.8333333333333</ele><time>2026-04-12T09:20:53.99Z</time></trkpt><trkpt lat="46.4919306" lon="12.4580647"><ele>821.6666666666666</ele><time>2026-04-12T09:20:54.989Z</time></trkpt><trkpt lat="46.4918432" lon="12.4580685"><ele>819.5</ele><time>2026-04-12T09:20:55.99Z</time></trkpt><trkpt lat="46.4917536" lon="12.4580748"><ele>817.3333333333333</ele><time>2026-04-12T09:20:56.989Z</time></trkpt><trkpt lat="46.4916647" lon="12.4580951"><ele>815.1666666666666</ele><time>2026-04-12T09:20:57.99Z</time></trkpt><trkpt lat="46.4915745" lon="12.4581142"><ele>813.0</ele><time>2026-04-12T09:20:58.989Z</time></trkpt><trkpt lat="46.4914774" lon="12.4581481"><ele>813.0</ele><time>2026-04-12T09:20:59.99Z</time></trkpt><trkpt lat="46.4913786" lon="12.4581987"><ele>813.0</ele><time>2026-04-12T09:21:00.989Z</time></trkpt><trkpt lat="46.4912742" lon="12.4582526"><ele>813.0</ele><time>2026-04-12T09:21:01.989Z</time></trkpt><trkpt lat="46.4911796" lon="12.4583033"><ele>813.0</ele><time>2026-04-12T09:21:02.989Z</time></trkpt><trkpt lat="46.4910893" lon="12.4583523"><ele>813.0</ele><time>2026-04-12T09:21:03.989Z</time></trkpt><trkpt lat="46.4910026" lon="12.4583998"><ele>812.0</ele><time>2026-04-12T09:21:04.989Z</time></trkpt><trkpt lat="46.4909234" lon="12.4584679"><ele>811.0</ele><time>2026-04-12T09:21:05.989Z</time></trkpt><trkpt lat="46.4908533" lon="12.4585505"><ele>810.0</ele><time>2026-04-12T09:21:06.989Z</time></trkpt><trkpt lat="46.4907831" lon="12.4586294"><ele>809.0</ele><time>2026-04-12T09:21:07.989Z</time></trkpt><trkpt lat="46.4907148" lon="12.4587031"><ele>808.0</ele><time>2026-04-12T09:21:08.989Z</time></trkpt><trkpt lat="46.4906472" lon="12.4587778"><ele>807.0</ele><time>2026-04-12T09:21:09.989Z</time></trkpt><trkpt lat="46.4905808" lon="12.4588497"><ele>807.0</ele><time>2026-04-12T09:21:10.99Z</time></trkpt><trkpt lat="46.4905175" lon="12.458926"><ele>807.0</ele><time>2026-04-12T09:21:11.989Z</time></trkpt><trkpt lat="46.4904508" lon="12.459003"><ele>807.0</ele><time>2026-04-12T09:21:12.989Z</time></trkpt><trkpt lat="46.4903825" lon="12.4590739"><ele>807.0</ele><time>2026-04-12T09:21:13.989Z</time></trkpt><trkpt lat="46.4903174" lon="12.4591408"><ele>807.0</ele><time>2026-04-12T09:21:14.989Z</time></trkpt><trkpt lat="46.4902597" lon="12.4592006"><ele>807.0</ele><time>2026-04-12T09:21:15.989Z</time></trkpt><trkpt lat="46.4902059" lon="12.4592575"><ele>805.5</ele><time>2026-04-12T09:21:16.989Z</time></trkpt><trkpt lat="46.4901546" lon="12.459311"><ele>804.0</ele><time>2026-04-12T09:21:17.989Z</time></trkpt><trkpt lat="46.4900793" lon="12.4594222"><ele>802.5</ele><time>2026-04-12T09:21:19.989Z</time></trkpt><trkpt lat="46.4900281" lon="12.4595299"><ele>801.0</ele><time>2026-04-12T09:21:21.989Z</time></trkpt><trkpt lat="46.4899914" lon="12.4596194"><ele>799.5</ele><time>2026-04-12T09:21:23.99Z</time></trkpt><trkpt lat="46.4899676" lon="12.4597093"><ele>798.0</ele><time>2026-04-12T09:21:27.989Z</time></trkpt><trkpt lat="46.4898964" lon="12.4597679"><ele>798.0</ele><time>2026-04-12T09:21:33.989Z</time></trkpt><trkpt lat="46.4898193" lon="12.4598758"><ele>798.0</ele><time>2026-04-12T09:21:35.989Z</time></trkpt><trkpt lat="46.4897805" lon="12.4599689"><ele>798.0</ele><time>2026-04-12T09:21:36.989Z</time></trkpt><trkpt lat="46.4897361" lon="12.4600957"><ele>798.0</ele><time>2026-04-12T09:21:37.99Z</time></trkpt><trkpt lat="46.4896818" lon="12.4602431"><ele>798.0</ele><time>2026-04-12T09:21:38.989Z</time></trkpt><trkpt lat="46.4896209" lon="12.4604078"><ele>794.5</ele><time>2026-04-12T09:21:39.99Z</time></trkpt><trkpt lat="46.4895529" lon="12.4605693"><ele>791.0</ele><time>2026-04-12T09:21:40.989Z</time></trkpt><trkpt lat="46.4894921" lon="12.4607448"><ele>787.5</ele><time>2026-04-12T09:21:41.989Z</time></trkpt><trkpt lat="46.4894431" lon="12.4609121"><ele>784.0</ele><time>2026-04-12T09:21:42.989Z</time></trkpt><trkpt lat="46.4894" lon="12.4610758"><ele>784.0</ele><time>2026-04-12T09:21:43.989Z</time></trkpt><trkpt lat="46.4893683" lon="12.4612373"><ele>784.0</ele><time>2026-04-12T09:21:44.99Z</time></trkpt><trkpt lat="46.4893464" lon="12.461398"><ele>784.0</ele><time>2026-04-12T09:21:45.989Z</time></trkpt><trkpt lat="46.4893295" lon="12.4615517"><ele>784.0</ele><time>2026-04-12T09:21:46.991Z</time></trkpt><trkpt lat="46.4893132" lon="12.4616966"><ele>784.0</ele><time>2026-04-12T09:21:47.989Z</time></trkpt><trkpt lat="46.4892988" lon="12.4618341"><ele>784.1666666666666</ele><time>2026-04-12T09:21:48.989Z</time></trkpt><trkpt lat="46.489293" lon="12.4619524"><ele>784.3333333333333</ele><time>2026-04-12T09:21:49.989Z</time></trkpt><trkpt lat="46.4892789" lon="12.462056"><ele>784.5</ele><time>2026-04-12T09:21:50.989Z</time></trkpt><trkpt lat="46.4892423" lon="12.4621472"><ele>784.6666666666667</ele><time>2026-04-12T09:21:51.989Z</time></trkpt><trkpt lat="46.4891847" lon="12.4622101"><ele>784.8333333333334</ele><time>2026-04-12T09:21:52.99Z</time></trkpt><trkpt lat="46.4891095" lon="12.4622168"><ele>785.0</ele><time>2026-04-12T09:21:53.989Z</time></trkpt><trkpt lat="46.4889945" lon="12.4621949"><ele>785.6</ele><time>2026-04-12T09:21:55.989Z</time></trkpt><trkpt lat="46.4889063" lon="12.4621529"><ele>786.2</ele><time>2026-04-12T09:21:57.99Z</time></trkpt><trkpt lat="46.4888321" lon="12.4621501"><ele>786.8</ele><time>2026-04-12T09:22:02.989Z</time></trkpt><trkpt lat="46.4887805" lon="12.4622932"><ele>787.4</ele><time>2026-04-12T09:22:04.989Z</time></trkpt><trkpt lat="46.4887462" lon="12.46242"><ele>788.0</ele><time>2026-04-12T09:22:05.989Z</time></trkpt><trkpt lat="46.4887091" lon="12.4625755"><ele>785.2</ele><time>2026-04-12T09:22:06.989Z</time></trkpt><trkpt lat="46.4886807" lon="12.4627343"><ele>782.4</ele><time>2026-04-12T09:22:07.989Z</time></trkpt><trkpt lat="46.4886576" lon="12.4628828"><ele>779.6</ele><time>2026-04-12T09:22:08.989Z</time></trkpt><trkpt lat="46.4886554" lon="12.4630393"><ele>776.8000000000001</ele><time>2026-04-12T09:22:09.989Z</time></trkpt><trkpt lat="46.4886851" lon="12.4631938"><ele>774.0</ele><time>2026-04-12T09:22:10.99Z</time></trkpt><trkpt lat="46.4887444" lon="12.4633168"><ele>776.1666666666666</ele><time>2026-04-12T09:22:11.989Z</time></trkpt><trkpt lat="46.4888182" lon="12.4634054"><ele>778.3333333333333</ele><time>2026-04-12T09:22:12.989Z</time></trkpt><trkpt lat="46.4888915" lon="12.4634766"><ele>780.5</ele><time>2026-04-12T09:22:13.989Z</time></trkpt><trkpt lat="46.4889433" lon="12.4635669"><ele>782.6666666666666</ele><time>2026-04-12T09:22:14.989Z</time></trkpt><trkpt lat="46.488963" lon="12.4636792"><ele>784.8333333333333</ele><time>2026-04-12T09:22:15.99Z</time></trkpt><trkpt lat="46.488943" lon="12.4638054"><ele>787.0</ele><time>2026-04-12T09:22:16.989Z</time></trkpt><trkpt lat="46.4888888" lon="12.4639228"><ele>787.4000000000001</ele><time>2026-04-12T09:22:17.989Z</time></trkpt><trkpt lat="46.4888308" lon="12.4640232"><ele>787.8000000000001</ele><time>2026-04-12T09:22:18.989Z</time></trkpt><trkpt lat="46.4887576" lon="12.4640854"><ele>788.2</ele><time>2026-04-12T09:22:19.989Z</time></trkpt><trkpt lat="46.488663" lon="12.4640852"><ele>788.6</ele><time>2026-04-12T09:22:20.989Z</time></trkpt><trkpt lat="46.4885512" lon="12.4640376"><ele>789.0</ele><time>2026-04-12T09:22:21.989Z</time></trkpt><trkpt lat="46.48843" lon="12.4639795"><ele>787.0</ele><time>2026-04-12T09:22:22.99Z</time></trkpt><trkpt lat="46.4883178" lon="12.4639229"><ele>785.0</ele><time>2026-04-12T09:22:23.989Z</time></trkpt><trkpt lat="46.4882118" lon="12.4638645"><ele>783.0</ele><time>2026-04-12T09:22:24.99Z</time></trkpt><trkpt lat="46.4881113" lon="12.4638132"><ele>781.0</ele><time>2026-04-12T09:22:25.989Z</time></trkpt><trkpt lat="46.4880069" lon="12.4637991"><ele>779.0</ele><time>2026-04-12T09:22:26.989Z</time></trkpt><trkpt lat="46.4879069" lon="12.4638255"><ele>776.4000000000001</ele><time>2026-04-12T09:22:27.989Z</time></trkpt><trkpt lat="46.4878135" lon="12.4638956"><ele>773.8</ele><time>2026-04-12T09:22:28.989Z</time></trkpt><trkpt lat="46.4877437" lon="12.4640182"><ele>771.2</ele><time>2026-04-12T09:22:29.989Z</time></trkpt><trkpt lat="46.4877065" lon="12.4641702"><ele>768.5999999999999</ele><time>2026-04-12T09:22:30.989Z</time></trkpt><trkpt lat="46.4877043" lon="12.4643441"><ele>766.0</ele><time>2026-04-12T09:22:31.989Z</time></trkpt><trkpt lat="46.4877204" lon="12.4645496"><ele>766.25</ele><time>2026-04-12T09:22:32.989Z</time></trkpt><trkpt lat="46.4877452" lon="12.4647573"><ele>766.5</ele><time>2026-04-12T09:22:33.989Z</time></trkpt><trkpt lat="46.4877717" lon="12.4649675"><ele>766.75</ele><time>2026-04-12T09:22:34.989Z</time></trkpt><trkpt lat="46.4878017" lon="12.4651745"><ele>767.0</ele><time>2026-04-12T09:22:35.989Z</time></trkpt><trkpt lat="46.4878388" lon="12.465379"><ele>765.5</ele><time>2026-04-12T09:22:36.989Z</time></trkpt><trkpt lat="46.4878906" lon="12.4655676"><ele>764.0</ele><time>2026-04-12T09:22:37.989Z</time></trkpt><trkpt lat="46.4879447" lon="12.4657452"><ele>762.5</ele><time>2026-04-12T09:22:38.989Z</time></trkpt><trkpt lat="46.4879937" lon="12.4659055"><ele>761.0</ele><time>2026-04-12T09:22:39.989Z</time></trkpt><trkpt lat="46.4880357" lon="12.4660835"><ele>766.0</ele><time>2026-04-12T09:22:40.99Z</time></trkpt><trkpt lat="46.4880577" lon="12.4662635"><ele>771.0</ele><time>2026-04-12T09:22:41.989Z</time></trkpt><trkpt lat="46.4880502" lon="12.4664474"><ele>776.0</ele><time>2026-04-12T09:22:42.989Z</time></trkpt><trkpt lat="46.4880168" lon="12.4666172"><ele>781.0</ele><time>2026-04-12T09:22:43.989Z</time></trkpt><trkpt lat="46.4879857" lon="12.4667858"><ele>781.25</ele><time>2026-04-12T09:22:44.989Z</time></trkpt><trkpt lat="46.4879859" lon="12.4669612"><ele>781.5</ele><time>2026-04-12T09:22:45.99Z</time></trkpt><trkpt lat="46.4880002" lon="12.46713"><ele>781.75</ele><time>2026-04-12T09:22:46.989Z</time></trkpt><trkpt lat="46.4880258" lon="12.4672842"><ele>782.0</ele><time>2026-04-12T09:22:47.989Z</time></trkpt><trkpt lat="46.4880432" lon="12.4674388"><ele>780.2</ele><time>2026-04-12T09:22:48.989Z</time></trkpt><trkpt lat="46.4880444" lon="12.4675845"><ele>778.4000000000001</ele><time>2026-04-12T09:22:49.99Z</time></trkpt><trkpt lat="46.4880211" lon="12.4677269"><ele>776.5999999999999</ele><time>2026-04-12T09:22:50.99Z</time></trkpt><trkpt lat="46.4879606" lon="12.4678464"><ele>774.8</ele><time>2026-04-12T09:22:51.989Z</time></trkpt><trkpt lat="46.487875" lon="12.467945"><ele>773.0</ele><time>2026-04-12T09:22:52.989Z</time></trkpt><trkpt lat="46.4877872" lon="12.4680174"><ele>773.0</ele><time>2026-04-12T09:22:53.989Z</time></trkpt><trkpt lat="46.4876995" lon="12.4680722"><ele>773.0</ele><time>2026-04-12T09:22:54.989Z</time></trkpt><trkpt lat="46.4876166" lon="12.4681223"><ele>773.0</ele><time>2026-04-12T09:22:55.989Z</time></trkpt><trkpt lat="46.4875287" lon="12.4681262"><ele>773.0</ele><time>2026-04-12T09:22:56.99Z</time></trkpt><trkpt lat="46.4874448" lon="12.4680584"><ele>773.0</ele><time>2026-04-12T09:22:57.989Z</time></trkpt><trkpt lat="46.487369" lon="12.4679614"><ele>770.5999999999999</ele><time>2026-04-12T09:22:58.99Z</time></trkpt><trkpt lat="46.4873011" lon="12.467856"><ele>768.1999999999999</ele><time>2026-04-12T09:22:59.989Z</time></trkpt><trkpt lat="46.4872336" lon="12.4677516"><ele>765.8</ele><time>2026-04-12T09:23:00.989Z</time></trkpt><trkpt lat="46.4871977" lon="12.4676208"><ele>763.4</ele><time>2026-04-12T09:23:01.989Z</time></trkpt><trkpt lat="46.4871924" lon="12.4674546"><ele>761.0</ele><time>2026-04-12T09:23:02.989Z</time></trkpt><trkpt lat="46.4871904" lon="12.4672504"><ele>762.0</ele><time>2026-04-12T09:23:03.989Z</time></trkpt><trkpt lat="46.4871731" lon="12.4670204"><ele>763.0</ele><time>2026-04-12T09:23:04.99Z</time></trkpt><trkpt lat="46.4871418" lon="12.4667984"><ele>764.0</ele><time>2026-04-12T09:23:05.989Z</time></trkpt><trkpt lat="46.4870973" lon="12.46655"><ele>775.3333333333333</ele><time>2026-04-12T09:23:06.989Z</time></trkpt><trkpt lat="46.4870485" lon="12.4663027"><ele>786.6666666666666</ele><time>2026-04-12T09:23:07.99Z</time></trkpt><trkpt lat="46.4869983" lon="12.4660695"><ele>798.0</ele><time>2026-04-12T09:23:08.989Z</time></trkpt><trkpt lat="46.4869364" lon="12.4658362"><ele>798.0</ele><time>2026-04-12T09:23:09.989Z</time></trkpt><trkpt lat="46.4868761" lon="12.4656138"><ele>798.0</ele><time>2026-04-12T09:23:10.989Z</time></trkpt><trkpt lat="46.4868367" lon="12.4653826"><ele>798.0</ele><time>2026-04-12T09:23:11.989Z</time></trkpt><trkpt lat="46.4868062" lon="12.4651392"><ele>795.3333333333333</ele><time>2026-04-12T09:23:12.99Z</time></trkpt><trkpt lat="46.4867814" lon="12.4648892"><ele>792.6666666666666</ele><time>2026-04-12T09:23:13.989Z</time></trkpt><trkpt lat="46.4867526" lon="12.464659"><ele>790.0</ele><time>2026-04-12T09:23:14.99Z</time></trkpt><trkpt lat="46.4867109" lon="12.4644398"><ele>788.0</ele><time>2026-04-12T09:23:15.989Z</time></trkpt><trkpt lat="46.4866671" lon="12.4642344"><ele>786.0</ele><time>2026-04-12T09:23:16.989Z</time></trkpt><trkpt lat="46.4866231" lon="12.4640428"><ele>784.0</ele><time>2026-04-12T09:23:17.989Z</time></trkpt><trkpt lat="46.4865614" lon="12.4638608"><ele>782.0</ele><time>2026-04-12T09:23:18.989Z</time></trkpt><trkpt lat="46.4864799" lon="12.4636878"><ele>780.3333333333334</ele><time>2026-04-12T09:23:19.989Z</time></trkpt><trkpt lat="46.4863802" lon="12.4635344"><ele>778.6666666666667</ele><time>2026-04-12T09:23:20.989Z</time></trkpt><trkpt lat="46.48626" lon="12.4633921"><ele>777.0</ele><time>2026-04-12T09:23:21.989Z</time></trkpt><trkpt lat="46.4861464" lon="12.4632465"><ele>784.6666666666667</ele><time>2026-04-12T09:23:22.989Z</time></trkpt><trkpt lat="46.4860429" lon="12.4630752"><ele>792.3333333333334</ele><time>2026-04-12T09:23:23.989Z</time></trkpt><trkpt lat="46.4859542" lon="12.462882"><ele>800.0</ele><time>2026-04-12T09:23:24.99Z</time></trkpt><trkpt lat="46.4858797" lon="12.4626651"><ele>800.0</ele><time>2026-04-12T09:23:25.989Z</time></trkpt><trkpt lat="46.4858201" lon="12.4624234"><ele>800.0</ele><time>2026-04-12T09:23:26.989Z</time></trkpt><trkpt lat="46.4857778" lon="12.4621748"><ele>800.0</ele><time>2026-04-12T09:23:27.99Z</time></trkpt><trkpt lat="46.4857458" lon="12.4619239"><ele>798.0</ele><time>2026-04-12T09:23:28.989Z</time></trkpt><trkpt lat="46.4857193" lon="12.4616699"><ele>796.0</ele><time>2026-04-12T09:23:29.989Z</time></trkpt><trkpt lat="46.4856924" lon="12.4614317"><ele>794.0</ele><time>2026-04-12T09:23:30.989Z</time></trkpt><trkpt lat="46.48566" lon="12.4612014"><ele>793.0</ele><time>2026-04-12T09:23:31.99Z</time></trkpt><trkpt lat="46.4856326" lon="12.4609757"><ele>792.0</ele><time>2026-04-12T09:23:32.989Z</time></trkpt><trkpt lat="46.4856105" lon="12.4607521"><ele>791.0</ele><time>2026-04-12T09:23:33.989Z</time></trkpt><trkpt lat="46.4855927" lon="12.4605321"><ele>791.25</ele><time>2026-04-12T09:23:34.99Z</time></trkpt><trkpt lat="46.4855743" lon="12.4603131"><ele>791.5</ele><time>2026-04-12T09:23:35.989Z</time></trkpt><trkpt lat="46.4855527" lon="12.4601106"><ele>791.75</ele><time>2026-04-12T09:23:36.989Z</time></trkpt><trkpt lat="46.4855317" lon="12.459926"><ele>792.0</ele><time>2026-04-12T09:23:37.989Z</time></trkpt><trkpt lat="46.485517" lon="12.4597534"><ele>792.5</ele><time>2026-04-12T09:23:38.989Z</time></trkpt><trkpt lat="46.4855083" lon="12.4595991"><ele>793.0</ele><time>2026-04-12T09:23:39.989Z</time></trkpt><trkpt lat="46.4854964" lon="12.4594679"><ele>793.5</ele><time>2026-04-12T09:23:40.989Z</time></trkpt><trkpt lat="46.4854758" lon="12.4593601"><ele>794.0</ele><time>2026-04-12T09:23:41.989Z</time></trkpt><trkpt lat="46.4854284" lon="12.4592885"><ele>794.5</ele><time>2026-04-12T09:23:42.989Z</time></trkpt><trkpt lat="46.4853637" lon="12.4592596"><ele>795.0</ele><time>2026-04-12T09:23:43.989Z</time></trkpt><trkpt lat="46.485297" lon="12.4592888"><ele>799.0</ele><time>2026-04-12T09:23:44.989Z</time></trkpt><trkpt lat="46.4852421" lon="12.4593788"><ele>803.0</ele><time>2026-04-12T09:23:45.99Z</time></trkpt><trkpt lat="46.4852088" lon="12.4595088"><ele>807.0</ele><time>2026-04-12T09:23:46.989Z</time></trkpt><trkpt lat="46.4851833" lon="12.4596739"><ele>811.0</ele><time>2026-04-12T09:23:47.989Z</time></trkpt><trkpt lat="46.4851641" lon="12.4598621"><ele>815.0</ele><time>2026-04-12T09:23:48.989Z</time></trkpt><trkpt lat="46.4851428" lon="12.4600647"><ele>815.0</ele><time>2026-04-12T09:23:49.989Z</time></trkpt><trkpt lat="46.4851177" lon="12.4603027"><ele>815.0</ele><time>2026-04-12T09:23:50.99Z</time></trkpt><trkpt lat="46.4850929" lon="12.4605264"><ele>815.0</ele><time>2026-04-12T09:23:51.989Z</time></trkpt><trkpt lat="46.4850665" lon="12.4607533"><ele>817.0</ele><time>2026-04-12T09:23:52.989Z</time></trkpt><trkpt lat="46.4850405" lon="12.4609761"><ele>819.0</ele><time>2026-04-12T09:23:53.989Z</time></trkpt><trkpt lat="46.4850312" lon="12.4611967"><ele>821.0</ele><time>2026-04-12T09:23:54.989Z</time></trkpt><trkpt lat="46.4850489" lon="12.4614125"><ele>822.0</ele><time>2026-04-12T09:23:55.989Z</time></trkpt><trkpt lat="46.4850894" lon="12.4616275"><ele>823.0</ele><time>2026-04-12T09:23:56.989Z</time></trkpt><trkpt lat="46.4851282" lon="12.4618496"><ele>824.0</ele><time>2026-04-12T09:23:57.989Z</time></trkpt><trkpt lat="46.4851652" lon="12.4620856"><ele>825.3333333333334</ele><time>2026-04-12T09:23:58.989Z</time></trkpt><trkpt lat="46.4852061" lon="12.4623377"><ele>826.6666666666667</ele><time>2026-04-12T09:23:59.989Z</time></trkpt><trkpt lat="46.4852453" lon="12.4625673"><ele>828.0</ele><time>2026-04-12T09:24:00.99Z</time></trkpt><trkpt lat="46.4852805" lon="12.4627785"><ele>828.75</ele><time>2026-04-12T09:24:01.989Z</time></trkpt><trkpt lat="46.4853098" lon="12.4629768"><ele>829.5</ele><time>2026-04-12T09:24:02.989Z</time></trkpt><trkpt lat="46.4853397" lon="12.4631507"><ele>830.25</ele><time>2026-04-12T09:24:03.989Z</time></trkpt><trkpt lat="46.4853722" lon="12.4633086"><ele>831.0</ele><time>2026-04-12T09:24:04.989Z</time></trkpt><trkpt lat="46.4854036" lon="12.4634515"><ele>831.0</ele><time>2026-04-12T09:24:05.989Z</time></trkpt><trkpt lat="46.4854183" lon="12.463585"><ele>831.0</ele><time>2026-04-12T09:24:06.989Z</time></trkpt><trkpt lat="46.4853956" lon="12.4637105"><ele>831.0</ele><time>2026-04-12T09:24:07.989Z</time></trkpt><trkpt lat="46.4853389" lon="12.4638077"><ele>831.0</ele><time>2026-04-12T09:24:08.989Z</time></trkpt><trkpt lat="46.4852627" lon="12.4638415"><ele>831.0</ele><time>2026-04-12T09:24:09.989Z</time></trkpt><trkpt lat="46.4851897" lon="12.4637991"><ele>831.0</ele><time>2026-04-12T09:24:10.99Z</time></trkpt><trkpt lat="46.4851406" lon="12.4636968"><ele>831.0</ele><time>2026-04-12T09:24:11.989Z</time></trkpt><trkpt lat="46.4850992" lon="12.4635516"><ele>831.0</ele><time>2026-04-12T09:24:12.99Z</time></trkpt><trkpt lat="46.4850531" lon="12.4633786"><ele>831.0</ele><time>2026-04-12T09:24:13.989Z</time></trkpt><trkpt lat="46.4849992" lon="12.4631845"><ele>831.0</ele><time>2026-04-12T09:24:14.989Z</time></trkpt><trkpt lat="46.4849429" lon="12.463003"><ele>830.0</ele><time>2026-04-12T09:24:15.99Z</time></trkpt><trkpt lat="46.4848735" lon="12.4628228"><ele>829.0</ele><time>2026-04-12T09:24:16.989Z</time></trkpt><trkpt lat="46.4847836" lon="12.4626374"><ele>828.0</ele><time>2026-04-12T09:24:17.989Z</time></trkpt><trkpt lat="46.4846733" lon="12.462433"><ele>833.0</ele><time>2026-04-12T09:24:18.989Z</time></trkpt><trkpt lat="46.4845661" lon="12.4622419"><ele>838.0</ele><time>2026-04-12T09:24:19.989Z</time></trkpt><trkpt lat="46.4844552" lon="12.4620472"><ele>843.0</ele><time>2026-04-12T09:24:20.99Z</time></trkpt><trkpt lat="46.4843414" lon="12.4618515"><ele>843.0</ele><time>2026-04-12T09:24:21.989Z</time></trkpt><trkpt lat="46.4842265" lon="12.4616557"><ele>843.0</ele><time>2026-04-12T09:24:22.989Z</time></trkpt><trkpt lat="46.4841128" lon="12.4614605"><ele>843.0</ele><time>2026-04-12T09:24:23.989Z</time></trkpt><trkpt lat="46.4840008" lon="12.4612646"><ele>841.6666666666667</ele><time>2026-04-12T09:24:24.989Z</time></trkpt><trkpt lat="46.4838899" lon="12.4610728"><ele>840.3333333333334</ele><time>2026-04-12T09:24:25.99Z</time></trkpt><trkpt lat="46.4837823" lon="12.4608842"><ele>839.0</ele><time>2026-04-12T09:24:26.989Z</time></trkpt><trkpt lat="46.4836766" lon="12.4607011"><ele>843.3333333333334</ele><time>2026-04-12T09:24:27.989Z</time></trkpt><trkpt lat="46.4835726" lon="12.460522"><ele>847.6666666666667</ele><time>2026-04-12T09:24:28.989Z</time></trkpt><trkpt lat="46.4834687" lon="12.4603441"><ele>852.0</ele><time>2026-04-12T09:24:29.989Z</time></trkpt><trkpt lat="46.4833707" lon="12.4601641"><ele>852.0</ele><time>2026-04-12T09:24:30.989Z</time></trkpt><trkpt lat="46.4832846" lon="12.4599774"><ele>852.0</ele><time>2026-04-12T09:24:31.989Z</time></trkpt><trkpt lat="46.4832082" lon="12.4597827"><ele>852.0</ele><time>2026-04-12T09:24:32.989Z</time></trkpt><trkpt lat="46.4831396" lon="12.4595863"><ele>852.0</ele><time>2026-04-12T09:24:33.989Z</time></trkpt><trkpt lat="46.4830763" lon="12.4593813"><ele>852.0</ele><time>2026-04-12T09:24:34.989Z</time></trkpt><trkpt lat="46.4830127" lon="12.4591635"><ele>852.0</ele><time>2026-04-12T09:24:35.989Z</time></trkpt><trkpt lat="46.4829428" lon="12.458933"><ele>853.6666666666667</ele><time>2026-04-12T09:24:36.99Z</time></trkpt><trkpt lat="46.4828794" lon="12.4587202"><ele>855.3333333333334</ele><time>2026-04-12T09:24:37.989Z</time></trkpt><trkpt lat="46.4828188" lon="12.4585139"><ele>857.0</ele><time>2026-04-12T09:24:38.989Z</time></trkpt><trkpt lat="46.482763" lon="12.4583268"><ele>857.0</ele><time>2026-04-12T09:24:39.99Z</time></trkpt><trkpt lat="46.4827087" lon="12.4581464"><ele>857.0</ele><time>2026-04-12T09:24:40.989Z</time></trkpt><trkpt lat="46.4826541" lon="12.4579673"><ele>857.0</ele><time>2026-04-12T09:24:41.989Z</time></trkpt><trkpt lat="46.482601" lon="12.4577909"><ele>857.0</ele><time>2026-04-12T09:24:42.989Z</time></trkpt><trkpt lat="46.482553" lon="12.4576252"><ele>858.0</ele><time>2026-04-12T09:24:43.989Z</time></trkpt><trkpt lat="46.4825096" lon="12.4574771"><ele>859.0</ele><time>2026-04-12T09:24:44.989Z</time></trkpt><trkpt lat="46.4824674" lon="12.4573417"><ele>860.0</ele><time>2026-04-12T09:24:45.989Z</time></trkpt><trkpt lat="46.4824199" lon="12.4572243"><ele>861.0</ele><time>2026-04-12T09:24:46.99Z</time></trkpt><trkpt lat="46.4823632" lon="12.4571219"><ele>862.0</ele><time>2026-04-12T09:24:47.989Z</time></trkpt><trkpt lat="46.482293" lon="12.4570369"><ele>862.0</ele><time>2026-04-12T09:24:48.99Z</time></trkpt><trkpt lat="46.4822131" lon="12.4569733"><ele>862.0</ele><time>2026-04-12T09:24:49.989Z</time></trkpt><trkpt lat="46.4821175" lon="12.4569566"><ele>862.0</ele><time>2026-04-12T09:24:50.989Z</time></trkpt><trkpt lat="46.4820169" lon="12.4569688"><ele>862.0</ele><time>2026-04-12T09:24:51.99Z</time></trkpt><trkpt lat="46.4819186" lon="12.4570168"><ele>862.0</ele><time>2026-04-12T09:24:52.989Z</time></trkpt><trkpt lat="46.4818337" lon="12.4570909"><ele>863.2</ele><time>2026-04-12T09:24:53.989Z</time></trkpt><trkpt lat="46.4817506" lon="12.4571672"><ele>864.4000000000001</ele><time>2026-04-12T09:24:54.99Z</time></trkpt><trkpt lat="46.4816645" lon="12.4572523"><ele>865.5999999999999</ele><time>2026-04-12T09:24:55.989Z</time></trkpt><trkpt lat="46.4815781" lon="12.4573362"><ele>866.8</ele><time>2026-04-12T09:24:56.99Z</time></trkpt><trkpt lat="46.4814901" lon="12.4574184"><ele>868.0</ele><time>2026-04-12T09:24:57.989Z</time></trkpt><trkpt lat="46.4813971" lon="12.4575078"><ele>868.0</ele><time>2026-04-12T09:24:58.989Z</time></trkpt><trkpt lat="46.4813032" lon="12.457598"><ele>868.0</ele><time>2026-04-12T09:24:59.99Z</time></trkpt><trkpt lat="46.4812096" lon="12.4576889"><ele>868.0</ele><time>2026-04-12T09:25:00.989Z</time></trkpt><trkpt lat="46.4811127" lon="12.4577882"><ele>868.0</ele><time>2026-04-12T09:25:01.989Z</time></trkpt><trkpt lat="46.4810182" lon="12.4578821"><ele>871.5</ele><time>2026-04-12T09:25:02.99Z</time></trkpt><trkpt lat="46.4809229" lon="12.4579747"><ele>875.0</ele><time>2026-04-12T09:25:03.989Z</time></trkpt><trkpt lat="46.4808274" lon="12.45807"><ele>878.5</ele><time>2026-04-12T09:25:04.989Z</time></trkpt><trkpt lat="46.4807322" lon="12.4581627"><ele>882.0</ele><time>2026-04-12T09:25:05.989Z</time></trkpt><trkpt lat="46.4806358" lon="12.4582541"><ele>882.0</ele><time>2026-04-12T09:25:06.99Z</time></trkpt><trkpt lat="46.4805415" lon="12.4583421"><ele>882.0</ele><time>2026-04-12T09:25:07.989Z</time></trkpt><trkpt lat="46.4804579" lon="12.4584446"><ele>882.0</ele><time>2026-04-12T09:25:08.989Z</time></trkpt><trkpt lat="46.4803184" lon="12.4586984"><ele>882.0</ele><time>2026-04-12T09:25:10.989Z</time></trkpt><trkpt lat="46.4802494" lon="12.4588351"><ele>884.0</ele><time>2026-04-12T09:25:11.989Z</time></trkpt><trkpt lat="46.4801757" lon="12.4589675"><ele>886.0</ele><time>2026-04-12T09:25:12.99Z</time></trkpt><trkpt lat="46.4801016" lon="12.4590956"><ele>888.0</ele><time>2026-04-12T09:25:13.989Z</time></trkpt><trkpt lat="46.4800263" lon="12.4592223"><ele>890.0</ele><time>2026-04-12T09:25:14.989Z</time></trkpt><trkpt lat="46.4799519" lon="12.4593513"><ele>890.0</ele><time>2026-04-12T09:25:15.989Z</time></trkpt><trkpt lat="46.479871" lon="12.4594896"><ele>890.0</ele><time>2026-04-12T09:25:16.99Z</time></trkpt><trkpt lat="46.4797971" lon="12.4596052"><ele>890.0</ele><time>2026-04-12T09:25:17.989Z</time></trkpt><trkpt lat="46.4797264" lon="12.4597112"><ele>890.0</ele><time>2026-04-12T09:25:18.989Z</time></trkpt><trkpt lat="46.4796628" lon="12.4598187"><ele>890.0</ele><time>2026-04-12T09:25:19.989Z</time></trkpt><trkpt lat="46.4796135" lon="12.4599358"><ele>890.0</ele><time>2026-04-12T09:25:20.989Z</time></trkpt><trkpt lat="46.4795755" lon="12.4600745"><ele>890.0</ele><time>2026-04-12T09:25:21.989Z</time></trkpt><trkpt lat="46.4795491" lon="12.46022"><ele>890.0</ele><time>2026-04-12T09:25:22.989Z</time></trkpt><trkpt lat="46.4795332" lon="12.4603578"><ele>890.0</ele><time>2026-04-12T09:25:23.99Z</time></trkpt><trkpt lat="46.4795233" lon="12.4604927"><ele>890.0</ele><time>2026-04-12T09:25:24.989Z</time></trkpt><trkpt lat="46.4795137" lon="12.4606208"><ele>890.3333333333334</ele><time>2026-04-12T09:25:25.99Z</time></trkpt><trkpt lat="46.4795028" lon="12.4607318"><ele>890.6666666666667</ele><time>2026-04-12T09:25:26.989Z</time></trkpt><trkpt lat="46.4794774" lon="12.4608337"><ele>891.0</ele><time>2026-04-12T09:25:27.989Z</time></trkpt><trkpt lat="46.4794181" lon="12.4609223"><ele>891.3333333333333</ele><time>2026-04-12T09:25:28.99Z</time></trkpt><trkpt lat="46.4793295" lon="12.4609624"><ele>891.6666666666666</ele><time>2026-04-12T09:25:29.989Z</time></trkpt><trkpt lat="46.4792351" lon="12.4609421"><ele>892.0</ele><time>2026-04-12T09:25:30.99Z</time></trkpt><trkpt lat="46.479129" lon="12.4608906"><ele>892.0</ele><time>2026-04-12T09:25:31.99Z</time></trkpt><trkpt lat="46.4790224" lon="12.4608264"><ele>892.0</ele><time>2026-04-12T09:25:32.991Z</time></trkpt><trkpt lat="46.4788935" lon="12.4607523"><ele>892.0</ele><time>2026-04-12T09:25:33.989Z</time></trkpt><trkpt lat="46.4787642" lon="12.4606735"><ele>892.0</ele><time>2026-04-12T09:25:34.989Z</time></trkpt><trkpt lat="46.47864" lon="12.4605942"><ele>890.5</ele><time>2026-04-12T09:25:35.989Z</time></trkpt><trkpt lat="46.4785141" lon="12.4605164"><ele>889.0</ele><time>2026-04-12T09:25:36.989Z</time></trkpt><trkpt lat="46.4783858" lon="12.4604367"><ele>887.5</ele><time>2026-04-12T09:25:37.989Z</time></trkpt><trkpt lat="46.4782529" lon="12.460361"><ele>886.0</ele><time>2026-04-12T09:25:38.99Z</time></trkpt><trkpt lat="46.4781154" lon="12.460279"><ele>886.0</ele><time>2026-04-12T09:25:39.989Z</time></trkpt><trkpt lat="46.4779948" lon="12.4602032"><ele>886.0</ele><time>2026-04-12T09:25:40.989Z</time></trkpt><trkpt lat="46.4778813" lon="12.4601299"><ele>886.0</ele><time>2026-04-12T09:25:41.989Z</time></trkpt><trkpt lat="46.4777693" lon="12.4600559"><ele>886.0</ele><time>2026-04-12T09:25:42.989Z</time></trkpt><trkpt lat="46.4776568" lon="12.4599942"><ele>888.0</ele><time>2026-04-12T09:25:43.99Z</time></trkpt><trkpt lat="46.4775424" lon="12.4599699"><ele>890.0</ele><time>2026-04-12T09:25:44.989Z</time></trkpt><trkpt lat="46.4774331" lon="12.4599912"><ele>892.0</ele><time>2026-04-12T09:25:45.989Z</time></trkpt><trkpt lat="46.4773206" lon="12.4600361"><ele>894.0</ele><time>2026-04-12T09:25:46.989Z</time></trkpt><trkpt lat="46.4772181" lon="12.4601051"><ele>894.0</ele><time>2026-04-12T09:25:47.989Z</time></trkpt><trkpt lat="46.4771243" lon="12.4602281"><ele>894.0</ele><time>2026-04-12T09:25:48.989Z</time></trkpt><trkpt lat="46.4770333" lon="12.4603819"><ele>894.0</ele><time>2026-04-12T09:25:49.99Z</time></trkpt><trkpt lat="46.4769446" lon="12.4605325"><ele>894.0</ele><time>2026-04-12T09:25:50.989Z</time></trkpt><trkpt lat="46.4768549" lon="12.460691"><ele>895.25</ele><time>2026-04-12T09:25:51.99Z</time></trkpt><trkpt lat="46.4767711" lon="12.4608465"><ele>896.5</ele><time>2026-04-12T09:25:52.989Z</time></trkpt><trkpt lat="46.4766915" lon="12.4609998"><ele>897.75</ele><time>2026-04-12T09:25:53.989Z</time></trkpt><trkpt lat="46.4766136" lon="12.4611406"><ele>899.0</ele><time>2026-04-12T09:25:54.989Z</time></trkpt><trkpt lat="46.4765417" lon="12.4612725"><ele>899.6</ele><time>2026-04-12T09:25:55.99Z</time></trkpt><trkpt lat="46.4764615" lon="12.4613835"><ele>900.2</ele><time>2026-04-12T09:25:56.989Z</time></trkpt><trkpt lat="46.4763683" lon="12.4614689"><ele>900.8000000000001</ele><time>2026-04-12T09:25:57.99Z</time></trkpt><trkpt lat="46.4762649" lon="12.4615211"><ele>901.4000000000001</ele><time>2026-04-12T09:25:58.989Z</time></trkpt><trkpt lat="46.4761665" lon="12.461569"><ele>902.0</ele><time>2026-04-12T09:25:59.99Z</time></trkpt><trkpt lat="46.4760754" lon="12.4616463"><ele>902.0</ele><time>2026-04-12T09:26:00.989Z</time></trkpt><trkpt lat="46.4759897" lon="12.4617429"><ele>902.0</ele><time>2026-04-12T09:26:01.989Z</time></trkpt><trkpt lat="46.4759211" lon="12.4618685"><ele>902.0</ele><time>2026-04-12T09:26:02.989Z</time></trkpt><trkpt lat="46.4758711" lon="12.4620193"><ele>902.0</ele><time>2026-04-12T09:26:03.989Z</time></trkpt><trkpt lat="46.4758215" lon="12.4621844"><ele>903.75</ele><time>2026-04-12T09:26:04.99Z</time></trkpt><trkpt lat="46.4757702" lon="12.4623754"><ele>905.5</ele><time>2026-04-12T09:26:05.989Z</time></trkpt><trkpt lat="46.4757241" lon="12.462558"><ele>907.25</ele><time>2026-04-12T09:26:06.989Z</time></trkpt><trkpt lat="46.4756806" lon="12.4627258"><ele>909.0</ele><time>2026-04-12T09:26:07.989Z</time></trkpt><trkpt lat="46.4756378" lon="12.4628869"><ele>911.0</ele><time>2026-04-12T09:26:08.989Z</time></trkpt><trkpt lat="46.475598" lon="12.4630433"><ele>913.0000000000001</ele><time>2026-04-12T09:26:09.99Z</time></trkpt><trkpt lat="46.4755665" lon="12.4631817"><ele>915.0000000000001</ele><time>2026-04-12T09:26:10.989Z</time></trkpt><trkpt lat="46.475536" lon="12.463307"><ele>917.0</ele><time>2026-04-12T09:26:11.989Z</time></trkpt><trkpt lat="46.4754962" lon="12.46341"><ele>919.0</ele><time>2026-04-12T09:26:12.989Z</time></trkpt><trkpt lat="46.4754214" lon="12.4634673"><ele>919.0</ele><time>2026-04-12T09:26:13.989Z</time></trkpt><trkpt lat="46.4753391" lon="12.4634656"><ele>919.0000000000001</ele><time>2026-04-12T09:26:14.99Z</time></trkpt><trkpt lat="46.4752487" lon="12.4634091"><ele>919.0000000000001</ele><time>2026-04-12T09:26:15.989Z</time></trkpt><trkpt lat="46.4751536" lon="12.4633033"><ele>919.0</ele><time>2026-04-12T09:26:16.989Z</time></trkpt><trkpt lat="46.4750477" lon="12.463171"><ele>919.0</ele><time>2026-04-12T09:26:17.989Z</time></trkpt><trkpt lat="46.4749428" lon="12.4630337"><ele>916.6666666666666</ele><time>2026-04-12T09:26:18.989Z</time></trkpt><trkpt lat="46.4748367" lon="12.4628806"><ele>914.3333333333333</ele><time>2026-04-12T09:26:19.988Z</time></trkpt><trkpt lat="46.4747342" lon="12.4627063"><ele>912.0</ele><time>2026-04-12T09:26:20.988Z</time></trkpt><trkpt lat="46.4746337" lon="12.4624991"><ele>924.6666666666667</ele><time>2026-04-12T09:26:21.988Z</time></trkpt><trkpt lat="46.4745371" lon="12.4622895"><ele>937.3333333333334</ele><time>2026-04-12T09:26:22.988Z</time></trkpt><trkpt lat="46.4744414" lon="12.46209"><ele>950.0</ele><time>2026-04-12T09:26:23.988Z</time></trkpt><trkpt lat="46.4743564" lon="12.4618801"><ele>950.0</ele><time>2026-04-12T09:26:24.988Z</time></trkpt><trkpt lat="46.4742892" lon="12.4616506"><ele>950.0</ele><time>2026-04-12T09:26:25.988Z</time></trkpt><trkpt lat="46.4742301" lon="12.4614072"><ele>950.0</ele><time>2026-04-12T09:26:26.988Z</time></trkpt><trkpt lat="46.4741771" lon="12.4611728"><ele>946.25</ele><time>2026-04-12T09:26:27.988Z</time></trkpt><trkpt lat="46.4741243" lon="12.4609564"><ele>942.5</ele><time>2026-04-12T09:26:28.988Z</time></trkpt><trkpt lat="46.4740506" lon="12.4607696"><ele>938.75</ele><time>2026-04-12T09:26:29.988Z</time></trkpt><trkpt lat="46.473959" lon="12.4606137"><ele>935.0</ele><time>2026-04-12T09:26:30.988Z</time></trkpt><trkpt lat="46.4738594" lon="12.4605098"><ele>936.75</ele><time>2026-04-12T09:26:31.988Z</time></trkpt><trkpt lat="46.4737426" lon="12.4604738"><ele>938.5</ele><time>2026-04-12T09:26:32.989Z</time></trkpt><trkpt lat="46.4736231" lon="12.4604584"><ele>940.25</ele><time>2026-04-12T09:26:33.988Z</time></trkpt><trkpt lat="46.4735216" lon="12.4603973"><ele>942.0</ele><time>2026-04-12T09:26:34.988Z</time></trkpt><trkpt lat="46.4734258" lon="12.460283"><ele>942.0</ele><time>2026-04-12T09:26:35.989Z</time></trkpt><trkpt lat="46.4733456" lon="12.4601368"><ele>942.0</ele><time>2026-04-12T09:26:36.988Z</time></trkpt><trkpt lat="46.4732757" lon="12.4599932"><ele>942.0</ele><time>2026-04-12T09:26:37.988Z</time></trkpt><trkpt lat="46.4731742" lon="12.4598731"><ele>942.0</ele><time>2026-04-12T09:26:38.988Z</time></trkpt><trkpt lat="46.4730387" lon="12.4597709"><ele>942.3333333333333</ele><time>2026-04-12T09:26:39.988Z</time></trkpt><trkpt lat="46.4728987" lon="12.4596882"><ele>942.6666666666666</ele><time>2026-04-12T09:26:40.988Z</time></trkpt><trkpt lat="46.4727401" lon="12.459608"><ele>943.0</ele><time>2026-04-12T09:26:41.988Z</time></trkpt><trkpt lat="46.472581" lon="12.4595068"><ele>943.0</ele><time>2026-04-12T09:26:42.989Z</time></trkpt><trkpt lat="46.4724358" lon="12.4593837"><ele>943.0</ele><time>2026-04-12T09:26:43.988Z</time></trkpt><trkpt lat="46.4723129" lon="12.4592287"><ele>943.0</ele><time>2026-04-12T09:26:44.988Z</time></trkpt><trkpt lat="46.4722108" lon="12.4590512"><ele>943.0</ele><time>2026-04-12T09:26:45.988Z</time></trkpt><trkpt lat="46.4721275" lon="12.458867"><ele>943.0</ele><time>2026-04-12T09:26:46.989Z</time></trkpt><trkpt lat="46.4720367" lon="12.4587103"><ele>943.0</ele><time>2026-04-12T09:26:47.988Z</time></trkpt><trkpt lat="46.4719018" lon="12.4585973"><ele>943.0</ele><time>2026-04-12T09:26:48.988Z</time></trkpt><trkpt lat="46.4717569" lon="12.4584956"><ele>945.25</ele><time>2026-04-12T09:26:49.989Z</time></trkpt><trkpt lat="46.4716154" lon="12.4584025"><ele>947.5</ele><time>2026-04-12T09:26:50.988Z</time></trkpt><trkpt lat="46.4714835" lon="12.4583116"><ele>949.75</ele><time>2026-04-12T09:26:51.988Z</time></trkpt><trkpt lat="46.4713528" lon="12.4582185"><ele>952.0</ele><time>2026-04-12T09:26:52.989Z</time></trkpt><trkpt lat="46.4712199" lon="12.4581462"><ele>954.0</ele><time>2026-04-12T09:26:53.988Z</time></trkpt><trkpt lat="46.4710798" lon="12.4581216"><ele>956.0</ele><time>2026-04-12T09:26:54.988Z</time></trkpt><trkpt lat="46.470917" lon="12.4581312"><ele>958.0</ele><time>2026-04-12T09:26:55.988Z</time></trkpt><trkpt lat="46.4707452" lon="12.4581542"><ele>958.0</ele><time>2026-04-12T09:26:56.989Z</time></trkpt><trkpt lat="46.4705904" lon="12.4581792"><ele>958.0</ele><time>2026-04-12T09:26:57.988Z</time></trkpt><trkpt lat="46.4704422" lon="12.4582032"><ele>958.0</ele><time>2026-04-12T09:26:58.988Z</time></trkpt><trkpt lat="46.4703018" lon="12.4582435"><ele>958.0</ele><time>2026-04-12T09:26:59.989Z</time></trkpt><trkpt lat="46.4701679" lon="12.4583204"><ele>956.0</ele><time>2026-04-12T09:27:00.988Z</time></trkpt><trkpt lat="46.4700364" lon="12.4584412"><ele>954.0</ele><time>2026-04-12T09:27:01.988Z</time></trkpt><trkpt lat="46.4699133" lon="12.4585933"><ele>952.0</ele><time>2026-04-12T09:27:02.988Z</time></trkpt><trkpt lat="46.4698036" lon="12.4587508"><ele>957.0</ele><time>2026-04-12T09:27:03.988Z</time></trkpt><trkpt lat="46.4697078" lon="12.4588952"><ele>962.0</ele><time>2026-04-12T09:27:04.989Z</time></trkpt><trkpt lat="46.4696273" lon="12.4590543"><ele>967.0</ele><time>2026-04-12T09:27:05.988Z</time></trkpt><trkpt lat="46.4695704" lon="12.4592515"><ele>972.0</ele><time>2026-04-12T09:27:06.988Z</time></trkpt><trkpt lat="46.4695218" lon="12.4594661"><ele>962.3333333333333</ele><time>2026-04-12T09:27:07.988Z</time></trkpt><trkpt lat="46.4694811" lon="12.4596853"><ele>952.6666666666666</ele><time>2026-04-12T09:27:08.988Z</time></trkpt><trkpt lat="46.4694571" lon="12.4599095"><ele>943.0</ele><time>2026-04-12T09:27:09.988Z</time></trkpt><trkpt lat="46.4694552" lon="12.4601439"><ele>943.0</ele><time>2026-04-12T09:27:10.988Z</time></trkpt><trkpt lat="46.4694718" lon="12.4603905"><ele>943.0</ele><time>2026-04-12T09:27:11.988Z</time></trkpt><trkpt lat="46.4695083" lon="12.4606434"><ele>943.0</ele><time>2026-04-12T09:27:12.989Z</time></trkpt><trkpt lat="46.4695487" lon="12.460898"><ele>945.0</ele><time>2026-04-12T09:27:13.988Z</time></trkpt><trkpt lat="46.4695686" lon="12.4611486"><ele>947.0</ele><time>2026-04-12T09:27:14.988Z</time></trkpt><trkpt lat="46.469573" lon="12.4613875"><ele>949.0</ele><time>2026-04-12T09:27:15.988Z</time></trkpt><trkpt lat="46.4695778" lon="12.461616"><ele>949.5</ele><time>2026-04-12T09:27:16.988Z</time></trkpt><trkpt lat="46.4695872" lon="12.4618328"><ele>950.0</ele><time>2026-04-12T09:27:17.988Z</time></trkpt><trkpt lat="46.4695924" lon="12.4620394"><ele>950.5</ele><time>2026-04-12T09:27:18.988Z</time></trkpt><trkpt lat="46.4695885" lon="12.4622459"><ele>951.0</ele><time>2026-04-12T09:27:19.988Z</time></trkpt><trkpt lat="46.4695644" lon="12.4624566"><ele>951.0</ele><time>2026-04-12T09:27:20.989Z</time></trkpt><trkpt lat="46.4695097" lon="12.4626652"><ele>951.0</ele><time>2026-04-12T09:27:21.988Z</time></trkpt><trkpt lat="46.4694263" lon="12.4628622"><ele>951.0</ele><time>2026-04-12T09:27:22.989Z</time></trkpt><trkpt lat="46.4693293" lon="12.4630461"><ele>955.6666666666667</ele><time>2026-04-12T09:27:23.988Z</time></trkpt><trkpt lat="46.4692403" lon="12.4632343"><ele>960.3333333333334</ele><time>2026-04-12T09:27:24.988Z</time></trkpt><trkpt lat="46.4691765" lon="12.4634612"><ele>965.0</ele><time>2026-04-12T09:27:25.988Z</time></trkpt><trkpt lat="46.4691132" lon="12.4637115"><ele>973.0</ele><time>2026-04-12T09:27:26.988Z</time></trkpt><trkpt lat="46.4690549" lon="12.4639433"><ele>981.0</ele><time>2026-04-12T09:27:27.989Z</time></trkpt><trkpt lat="46.4689963" lon="12.4641641"><ele>989.0</ele><time>2026-04-12T09:27:28.988Z</time></trkpt><trkpt lat="46.4689449" lon="12.4643792"><ele>989.0</ele><time>2026-04-12T09:27:29.988Z</time></trkpt><trkpt lat="46.4688912" lon="12.4645847"><ele>989.0</ele><time>2026-04-12T09:27:30.988Z</time></trkpt><trkpt lat="46.4688227" lon="12.4647665"><ele>989.0</ele><time>2026-04-12T09:27:31.988Z</time></trkpt><trkpt lat="46.4687498" lon="12.4649265"><ele>989.0</ele><time>2026-04-12T09:27:32.988Z</time></trkpt><trkpt lat="46.4686888" lon="12.4650806"><ele>986.25</ele><time>2026-04-12T09:27:33.988Z</time></trkpt><trkpt lat="46.4686474" lon="12.4652615"><ele>983.5</ele><time>2026-04-12T09:27:34.989Z</time></trkpt><trkpt lat="46.4686225" lon="12.4654676"><ele>980.75</ele><time>2026-04-12T09:27:35.988Z</time></trkpt><trkpt lat="46.4686101" lon="12.4656928"><ele>978.0</ele><time>2026-04-12T09:27:36.988Z</time></trkpt><trkpt lat="46.4686062" lon="12.4659427"><ele>978.0</ele><time>2026-04-12T09:27:37.989Z</time></trkpt><trkpt lat="46.4686075" lon="12.4661801"><ele>978.0</ele><time>2026-04-12T09:27:38.988Z</time></trkpt><trkpt lat="46.4686085" lon="12.4664335"><ele>978.0</ele><time>2026-04-12T09:27:39.989Z</time></trkpt><trkpt lat="46.4686089" lon="12.4666587"><ele>979.0</ele><time>2026-04-12T09:27:40.988Z</time></trkpt><trkpt lat="46.4686123" lon="12.4668759"><ele>980.0</ele><time>2026-04-12T09:27:41.988Z</time></trkpt><trkpt lat="46.4686173" lon="12.4670845"><ele>981.0</ele><time>2026-04-12T09:27:42.988Z</time></trkpt><trkpt lat="46.4686213" lon="12.4672897"><ele>982.0</ele><time>2026-04-12T09:27:43.988Z</time></trkpt><trkpt lat="46.4686246" lon="12.4674799"><ele>983.75</ele><time>2026-04-12T09:27:44.988Z</time></trkpt><trkpt lat="46.4686253" lon="12.4676519"><ele>985.5</ele><time>2026-04-12T09:27:45.988Z</time></trkpt><trkpt lat="46.4686086" lon="12.4678149"><ele>987.25</ele><time>2026-04-12T09:27:46.988Z</time></trkpt><trkpt lat="46.4685605" lon="12.4679761"><ele>989.0</ele><time>2026-04-12T09:27:47.989Z</time></trkpt><trkpt lat="46.4684887" lon="12.4681337"><ele>992.0</ele><time>2026-04-12T09:27:48.988Z</time></trkpt><trkpt lat="46.468405" lon="12.4682803"><ele>995.0</ele><time>2026-04-12T09:27:49.989Z</time></trkpt><trkpt lat="46.4683247" lon="12.4684223"><ele>998.0</ele><time>2026-04-12T09:27:50.988Z</time></trkpt><trkpt lat="46.4682488" lon="12.4685668"><ele>1001.0</ele><time>2026-04-12T09:27:51.988Z</time></trkpt><trkpt lat="46.4681705" lon="12.4687114"><ele>999.0</ele><time>2026-04-12T09:27:52.988Z</time></trkpt><trkpt lat="46.4680908" lon="12.4688527"><ele>997.0</ele><time>2026-04-12T09:27:53.988Z</time></trkpt><trkpt lat="46.4680067" lon="12.4689922"><ele>995.0</ele><time>2026-04-12T09:27:54.989Z</time></trkpt><trkpt lat="46.4679161" lon="12.4691235"><ele>993.0</ele><time>2026-04-12T09:27:55.988Z</time></trkpt><trkpt lat="46.4678087" lon="12.4692371"><ele>993.0</ele><time>2026-04-12T09:27:56.989Z</time></trkpt><trkpt lat="46.4676921" lon="12.4693344"><ele>993.0</ele><time>2026-04-12T09:27:57.988Z</time></trkpt><trkpt lat="46.4675884" lon="12.4694493"><ele>993.0</ele><time>2026-04-12T09:27:58.988Z</time></trkpt><trkpt lat="46.4674907" lon="12.4695995"><ele>993.0</ele><time>2026-04-12T09:27:59.988Z</time></trkpt><trkpt lat="46.4674005" lon="12.4697871"><ele>999.6666666666667</ele><time>2026-04-12T09:28:00.988Z</time></trkpt><trkpt lat="46.4673218" lon="12.4699954"><ele>1006.3333333333334</ele><time>2026-04-12T09:28:01.988Z</time></trkpt><trkpt lat="46.4672574" lon="12.4702131"><ele>1013.0</ele><time>2026-04-12T09:28:02.988Z</time></trkpt><trkpt lat="46.4671946" lon="12.4704469"><ele>1019.6666666666667</ele><time>2026-04-12T09:28:03.988Z</time></trkpt><trkpt lat="46.4671389" lon="12.4706645"><ele>1026.3333333333333</ele><time>2026-04-12T09:28:04.989Z</time></trkpt><trkpt lat="46.4670825" lon="12.4708776"><ele>1033.0</ele><time>2026-04-12T09:28:05.988Z</time></trkpt><trkpt lat="46.4670338" lon="12.4710944"><ele>1020.3333333333333</ele><time>2026-04-12T09:28:06.989Z</time></trkpt><trkpt lat="46.4670062" lon="12.4713244"><ele>1007.6666666666667</ele><time>2026-04-12T09:28:07.988Z</time></trkpt><trkpt lat="46.4669928" lon="12.4715625"><ele>995.0</ele><time>2026-04-12T09:28:08.988Z</time></trkpt><trkpt lat="46.4669839" lon="12.4717897"><ele>995.0</ele><time>2026-04-12T09:28:09.988Z</time></trkpt><trkpt lat="46.4669739" lon="12.4720098"><ele>995.0</ele><time>2026-04-12T09:28:10.988Z</time></trkpt><trkpt lat="46.4669692" lon="12.4722267"><ele>995.0</ele><time>2026-04-12T09:28:11.989Z</time></trkpt><trkpt lat="46.4669729" lon="12.4724438"><ele>996.3333333333334</ele><time>2026-04-12T09:28:12.989Z</time></trkpt><trkpt lat="46.4669804" lon="12.4726622"><ele>997.6666666666667</ele><time>2026-04-12T09:28:13.988Z</time></trkpt><trkpt lat="46.4669652" lon="12.4728804"><ele>999.0</ele><time>2026-04-12T09:28:14.988Z</time></trkpt><trkpt lat="46.4669361" lon="12.4730958"><ele>1000.75</ele><time>2026-04-12T09:28:15.988Z</time></trkpt><trkpt lat="46.4669092" lon="12.4733091"><ele>1002.5</ele><time>2026-04-12T09:28:16.988Z</time></trkpt><trkpt lat="46.4668687" lon="12.4735029"><ele>1004.25</ele><time>2026-04-12T09:28:17.989Z</time></trkpt><trkpt lat="46.4667916" lon="12.4736723"><ele>1006.0</ele><time>2026-04-12T09:28:18.988Z</time></trkpt><trkpt lat="46.4666865" lon="12.473811"><ele>1010.0</ele><time>2026-04-12T09:28:19.988Z</time></trkpt><trkpt lat="46.4665901" lon="12.473937"><ele>1014.0</ele><time>2026-04-12T09:28:20.988Z</time></trkpt><trkpt lat="46.466509" lon="12.474095"><ele>1018.0</ele><time>2026-04-12T09:28:21.988Z</time></trkpt><trkpt lat="46.4664439" lon="12.4743024"><ele>1022.0</ele><time>2026-04-12T09:28:22.988Z</time></trkpt><trkpt lat="46.4664035" lon="12.4745228"><ele>1025.75</ele><time>2026-04-12T09:28:23.988Z</time></trkpt><trkpt lat="46.4663792" lon="12.4747409"><ele>1029.5</ele><time>2026-04-12T09:28:24.988Z</time></trkpt><trkpt lat="46.4663562" lon="12.4749554"><ele>1033.25</ele><time>2026-04-12T09:28:25.988Z</time></trkpt><trkpt lat="46.4663382" lon="12.4751626"><ele>1037.0</ele><time>2026-04-12T09:28:26.988Z</time></trkpt><trkpt lat="46.4663117" lon="12.4753626"><ele>1030.3333333333335</ele><time>2026-04-12T09:28:27.988Z</time></trkpt><trkpt lat="46.4662479" lon="12.4755533"><ele>1023.6666666666667</ele><time>2026-04-12T09:28:28.988Z</time></trkpt><trkpt lat="46.4661523" lon="12.475737"><ele>1017.0</ele><time>2026-04-12T09:28:29.988Z</time></trkpt><trkpt lat="46.466046" lon="12.4759132"><ele>1017.0</ele><time>2026-04-12T09:28:30.988Z</time></trkpt><trkpt lat="46.4659448" lon="12.476089"><ele>1017.0</ele><time>2026-04-12T09:28:31.989Z</time></trkpt><trkpt lat="46.4658383" lon="12.4762609"><ele>1017.0</ele><time>2026-04-12T09:28:32.988Z</time></trkpt><trkpt lat="46.4657337" lon="12.476428"><ele>1023.3333333333333</ele><time>2026-04-12T09:28:33.988Z</time></trkpt><trkpt lat="46.4656496" lon="12.4765992"><ele>1029.6666666666665</ele><time>2026-04-12T09:28:34.988Z</time></trkpt><trkpt lat="46.4655889" lon="12.4768053"><ele>1036.0</ele><time>2026-04-12T09:28:35.988Z</time></trkpt><trkpt lat="46.4655422" lon="12.4770247"><ele>1034.0</ele><time>2026-04-12T09:28:36.988Z</time></trkpt><trkpt lat="46.4655085" lon="12.4772258"><ele>1032.0</ele><time>2026-04-12T09:28:37.989Z</time></trkpt><trkpt lat="46.4654765" lon="12.4774091"><ele>1030.0</ele><time>2026-04-12T09:28:38.988Z</time></trkpt><trkpt lat="46.4654332" lon="12.4775837"><ele>1028.0</ele><time>2026-04-12T09:28:39.989Z</time></trkpt><trkpt lat="46.4653627" lon="12.477751"><ele>1028.0</ele><time>2026-04-12T09:28:40.988Z</time></trkpt><trkpt lat="46.4652584" lon="12.4779017"><ele>1028.0</ele><time>2026-04-12T09:28:41.988Z</time></trkpt><trkpt lat="46.4651436" lon="12.4780413"><ele>1028.0</ele><time>2026-04-12T09:28:42.989Z</time></trkpt><trkpt lat="46.4650312" lon="12.4781657"><ele>1028.0</ele><time>2026-04-12T09:28:43.988Z</time></trkpt><trkpt lat="46.4649175" lon="12.4782683"><ele>1029.75</ele><time>2026-04-12T09:28:44.989Z</time></trkpt><trkpt lat="46.4647981" lon="12.4783437"><ele>1031.5</ele><time>2026-04-12T09:28:45.988Z</time></trkpt><trkpt lat="46.4646885" lon="12.4784024"><ele>1033.25</ele><time>2026-04-12T09:28:46.988Z</time></trkpt><trkpt lat="46.4645915" lon="12.4784583"><ele>1035.0</ele><time>2026-04-12T09:28:47.988Z</time></trkpt><trkpt lat="46.4645071" lon="12.478536"><ele>1035.0</ele><time>2026-04-12T09:28:48.988Z</time></trkpt><trkpt lat="46.4644587" lon="12.4786642"><ele>1035.0</ele><time>2026-04-12T09:28:49.988Z</time></trkpt><trkpt lat="46.4666865" lon="12.473811"><ele>1031.75</ele><time>2026-04-12T09:28:19.988Z</time></trkpt><trkpt lat="46.4665901" lon="12.473937"><ele>1028.5</ele><time>2026-04-12T09:28:20.988Z</time></trkpt><trkpt lat="46.466509" lon="12.474095"><ele>1025.25</ele><time>2026-04-12T09:28:21.988Z</time></trkpt><trkpt lat="46.4664439" lon="12.4743024"><ele>1022.0</ele><time>2026-04-12T09:28:22.988Z</time></trkpt><trkpt lat="46.4664035" lon="12.4745228"><ele>1025.75</ele><time>2026-04-12T09:28:23.988Z</time></trkpt><trkpt lat="46.4663792" lon="12.4747409"><ele>1029.5</ele><time>2026-04-12T09:28:24.988Z</time></trkpt><trkpt lat="46.4663562" lon="12.4749554"><ele>1033.25</ele><time>2026-04-12T09:28:25.988Z</time></trkpt><trkpt lat="46.4663382" lon="12.4751626"><ele>1037.0</ele><time>2026-04-12T09:28:26.988Z</time></trkpt><trkpt lat="46.4663117" lon="12.4753626"><ele>1030.3333333333335</ele><time>2026-04-12T09:28:27.988Z</time></trkpt><trkpt lat="46.4662479" lon="12.4755533"><ele>1023.6666666666667</ele><time>2026-04-12T09:28:28.988Z</time></trkpt><trkpt lat="46.4661523" lon="12.475737"><ele>1017.0</ele><time>2026-04-12T09:28:29.988Z</time></trkpt><trkpt lat="46.466046" lon="12.4759132"><ele>1017.0</ele><time>2026-04-12T09:28:30.988Z</time></trkpt><trkpt lat="46.4659448" lon="12.476089"><ele>1017.0</ele><time>2026-04-12T09:28:31.989Z</time></trkpt><trkpt lat="46.4658383" lon="12.4762609"><ele>1017.0</ele><time>2026-04-12T09:28:32.988Z</time></trkpt><trkpt lat="46.4657337" lon="12.476428"><ele>1023.3333333333333</ele><time>2026-04-12T09:28:33.988Z</time></trkpt><trkpt lat="46.4656496" lon="12.4765992"><ele>1029.6666666666665</ele><time>2026-04-12T09:28:34.988Z</time></trkpt><trkpt lat="46.4655889" lon="12.4768053"><ele>1036.0</ele><time>2026-04-12T09:28:35.988Z</time></trkpt><trkpt lat="46.4655422" lon="12.4770247"><ele>1034.0</ele><time>2026-04-12T09:28:36.988Z</time></trkpt><trkpt lat="46.4655085" lon="12.4772258"><ele>1032.0</ele><time>2026-04-12T09:28:37.989Z</time></trkpt><trkpt lat="46.4654765" lon="12.4774091"><ele>1030.0</ele><time>2026-04-12T09:28:38.988Z</time></trkpt><trkpt lat="46.4654332" lon="12.4775837"><ele>1028.0</ele><time>2026-04-12T09:28:39.989Z</time></trkpt><trkpt lat="46.4653627" lon="12.477751"><ele>1028.0</ele><time>2026-04-12T09:28:40.988Z</time></trkpt><trkpt lat="46.4652584" lon="12.4779017"><ele>1028.0</ele><time>2026-04-12T09:28:41.988Z</time></trkpt><trkpt lat="46.4651436" lon="12.4780413"><ele>1028.0</ele><time>2026-04-12T09:28:42.989Z</time></trkpt><trkpt lat="46.4650312" lon="12.4781657"><ele>1028.0</ele><time>2026-04-12T09:28:43.988Z</time></trkpt><trkpt lat="46.4649175" lon="12.4782683"><ele>1029.75</ele><time>2026-04-12T09:28:44.989Z</time></trkpt><trkpt lat="46.4647981" lon="12.4783437"><ele>1031.5</ele><time>2026-04-12T09:28:45.988Z</time></trkpt><trkpt lat="46.4646885" lon="12.4784024"><ele>1033.25</ele><time>2026-04-12T09:28:46.988Z</time></trkpt><trkpt lat="46.4645915" lon="12.4784583"><ele>1035.0</ele><time>2026-04-12T09:28:47.988Z</time></trkpt><trkpt lat="46.4645071" lon="12.478536"><ele>1035.0</ele><time>2026-04-12T09:28:48.988Z</time></trkpt><trkpt lat="46.4644587" lon="12.4786642"><ele>1035.0</ele><time>2026-04-12T09:28:49.988Z</time></trkpt><trkpt lat="46.4644493" lon="12.4788126"><ele>1035.0</ele><time>2026-04-12T09:28:50.988Z</time></trkpt><trkpt lat="46.4644621" lon="12.4789733"><ele>1035.0</ele><time>2026-04-12T09:28:51.988Z</time></trkpt><trkpt lat="46.4644481" lon="12.4791423"><ele>1035.0</ele><time>2026-04-12T09:28:52.989Z</time></trkpt><trkpt lat="46.4643886" lon="12.4793031"><ele>1038.25</ele><time>2026-04-12T09:28:53.988Z</time></trkpt><trkpt lat="46.4643041" lon="12.4794377"><ele>1041.5</ele><time>2026-04-12T09:28:54.989Z</time></trkpt><trkpt lat="46.4642422" lon="12.4795806"><ele>1044.75</ele><time>2026-04-12T09:28:55.988Z</time></trkpt><trkpt lat="46.4641929" lon="12.4797743"><ele>1048.0</ele><time>2026-04-12T09:28:56.988Z</time></trkpt><trkpt lat="46.4641512" lon="12.479991"><ele>1050.5</ele><time>2026-04-12T09:28:57.988Z</time></trkpt><trkpt lat="46.46413" lon="12.4801923"><ele>1053.0</ele><time>2026-04-12T09:28:58.988Z</time></trkpt><trkpt lat="46.4641405" lon="12.4804107"><ele>1055.5</ele><time>2026-04-12T09:28:59.988Z</time></trkpt><trkpt lat="46.4641602" lon="12.480616"><ele>1058.0</ele><time>2026-04-12T09:29:00.989Z</time></trkpt><trkpt lat="46.4641568" lon="12.4808237"><ele>1059.6666666666667</ele><time>2026-04-12T09:29:01.989Z</time></trkpt><trkpt lat="46.4641238" lon="12.4810415"><ele>1061.3333333333333</ele><time>2026-04-12T09:29:02.988Z</time></trkpt><trkpt lat="46.4640734" lon="12.4812523"><ele>1063.0</ele><time>2026-04-12T09:29:03.989Z</time></trkpt><trkpt lat="46.4640236" lon="12.4814557"><ele>1065.0</ele><time>2026-04-12T09:29:04.988Z</time></trkpt><trkpt lat="46.4639749" lon="12.4816568"><ele>1067.0</ele><time>2026-04-12T09:29:05.988Z</time></trkpt><trkpt lat="46.4639274" lon="12.481846"><ele>1069.0</ele><time>2026-04-12T09:29:06.988Z</time></trkpt><trkpt lat="46.4638795" lon="12.4820291"><ele>1071.0</ele><time>2026-04-12T09:29:07.989Z</time></trkpt><trkpt lat="46.4638329" lon="12.4822054"><ele>1072.5</ele><time>2026-04-12T09:29:08.988Z</time></trkpt><trkpt lat="46.463808" lon="12.4823943"><ele>1074.0</ele><time>2026-04-12T09:29:09.988Z</time></trkpt><trkpt lat="46.463812" lon="12.482604"><ele>1075.5</ele><time>2026-04-12T09:29:10.988Z</time></trkpt><trkpt lat="46.4638379" lon="12.482835"><ele>1077.0</ele><time>2026-04-12T09:29:11.988Z</time></trkpt><trkpt lat="46.4638657" lon="12.4830622"><ele>1077.6666666666667</ele><time>2026-04-12T09:29:12.988Z</time></trkpt><trkpt lat="46.4638927" lon="12.4832906"><ele>1078.3333333333335</ele><time>2026-04-12T09:29:13.988Z</time></trkpt><trkpt lat="46.4639128" lon="12.4835154"><ele>1079.0</ele><time>2026-04-12T09:29:14.988Z</time></trkpt><trkpt lat="46.4639234" lon="12.4837471"><ele>1079.3333333333335</ele><time>2026-04-12T09:29:15.988Z</time></trkpt><trkpt lat="46.463921" lon="12.4839705"><ele>1079.6666666666667</ele><time>2026-04-12T09:29:16.989Z</time></trkpt><trkpt lat="46.463915" lon="12.4841853"><ele>1080.0</ele><time>2026-04-12T09:29:17.988Z</time></trkpt><trkpt lat="46.4639103" lon="12.4844052"><ele>1083.3333333333333</ele><time>2026-04-12T09:29:18.988Z</time></trkpt><trkpt lat="46.463906" lon="12.4846255"><ele>1086.6666666666665</ele><time>2026-04-12T09:29:19.988Z</time></trkpt><trkpt lat="46.4639023" lon="12.4848479"><ele>1090.0</ele><time>2026-04-12T09:29:20.989Z</time></trkpt><trkpt lat="46.4638979" lon="12.4850736"><ele>1090.0</ele><time>2026-04-12T09:29:21.988Z</time></trkpt><trkpt lat="46.4638892" lon="12.4853021"><ele>1090.0</ele><time>2026-04-12T09:29:22.988Z</time></trkpt><trkpt lat="46.4638733" lon="12.4855314"><ele>1090.0</ele><time>2026-04-12T09:29:23.988Z</time></trkpt><trkpt lat="46.4638515" lon="12.4857573"><ele>1092.0</ele><time>2026-04-12T09:29:24.988Z</time></trkpt><trkpt lat="46.4638262" lon="12.4859853"><ele>1094.0</ele><time>2026-04-12T09:29:25.988Z</time></trkpt><trkpt lat="46.4637999" lon="12.4862115"><ele>1096.0</ele><time>2026-04-12T09:29:26.988Z</time></trkpt><trkpt lat="46.4637801" lon="12.4864364"><ele>1088.3333333333333</ele><time>2026-04-12T09:29:27.988Z</time></trkpt><trkpt lat="46.4637584" lon="12.4866573"><ele>1080.6666666666667</ele><time>2026-04-12T09:29:28.988Z</time></trkpt><trkpt lat="46.463738" lon="12.4868748"><ele>1073.0</ele><time>2026-04-12T09:29:29.989Z</time></trkpt><trkpt lat="46.4637164" lon="12.4870888"><ele>1074.0</ele><time>2026-04-12T09:29:30.988Z</time></trkpt><trkpt lat="46.4636959" lon="12.4872973"><ele>1075.0</ele><time>2026-04-12T09:29:31.988Z</time></trkpt><trkpt lat="46.4636629" lon="12.4875063"><ele>1076.0</ele><time>2026-04-12T09:29:32.988Z</time></trkpt><trkpt lat="46.4636087" lon="12.487716"><ele>1077.0</ele><time>2026-04-12T09:29:33.988Z</time></trkpt><trkpt lat="46.4635376" lon="12.4879355"><ele>1079.6666666666667</ele><time>2026-04-12T09:29:34.988Z</time></trkpt><trkpt lat="46.4634678" lon="12.4881618"><ele>1082.3333333333335</ele><time>2026-04-12T09:29:35.989Z</time></trkpt><trkpt lat="46.4634091" lon="12.4883902"><ele>1085.0</ele><time>2026-04-12T09:29:36.988Z</time></trkpt><trkpt lat="46.4633606" lon="12.4886199"><ele>1089.0</ele><time>2026-04-12T09:29:37.988Z</time></trkpt><trkpt lat="46.4633205" lon="12.4888675"><ele>1093.0</ele><time>2026-04-12T09:29:38.988Z</time></trkpt><trkpt lat="46.463278" lon="12.4890983"><ele>1097.0</ele><time>2026-04-12T09:29:39.989Z</time></trkpt><trkpt lat="46.4632282" lon="12.489315"><ele>1097.0</ele><time>2026-04-12T09:29:40.988Z</time></trkpt><trkpt lat="46.4631764" lon="12.4895205"><ele>1097.0</ele><time>2026-04-12T09:29:41.99Z</time></trkpt><trkpt lat="46.4631165" lon="12.4897185"><ele>1097.0</ele><time>2026-04-12T09:29:42.988Z</time></trkpt><trkpt lat="46.4630566" lon="12.4899099"><ele>1097.0</ele><time>2026-04-12T09:29:43.988Z</time></trkpt><trkpt lat="46.4630187" lon="12.4901134"><ele>1096.5</ele><time>2026-04-12T09:29:44.989Z</time></trkpt><trkpt lat="46.4630005" lon="12.4903372"><ele>1096.0</ele><time>2026-04-12T09:29:45.988Z</time></trkpt><trkpt lat="46.4629906" lon="12.4905376"><ele>1095.5</ele><time>2026-04-12T09:29:46.988Z</time></trkpt><trkpt lat="46.4629594" lon="12.4907274"><ele>1095.0</ele><time>2026-04-12T09:29:47.989Z</time></trkpt><trkpt lat="46.4628921" lon="12.4909008"><ele>1095.0</ele><time>2026-04-12T09:29:48.988Z</time></trkpt><trkpt lat="46.4627867" lon="12.4910271"><ele>1095.0</ele><time>2026-04-12T09:29:49.988Z</time></trkpt><trkpt lat="46.462661" lon="12.4911293"><ele>1095.0</ele><time>2026-04-12T09:29:50.989Z</time></trkpt><trkpt lat="46.4625278" lon="12.4912501"><ele>1095.0</ele><time>2026-04-12T09:29:51.988Z</time></trkpt><trkpt lat="46.462402" lon="12.4914112"><ele>1095.3333333333333</ele><time>2026-04-12T09:29:52.988Z</time></trkpt><trkpt lat="46.4622913" lon="12.491624"><ele>1095.6666666666665</ele><time>2026-04-12T09:29:53.989Z</time></trkpt><trkpt lat="46.4621892" lon="12.4918582"><ele>1096.0</ele><time>2026-04-12T09:29:54.988Z</time></trkpt><trkpt lat="46.4620981" lon="12.4920672"><ele>1099.0</ele><time>2026-04-12T09:29:55.988Z</time></trkpt><trkpt lat="46.4620093" lon="12.4922709"><ele>1102.0</ele><time>2026-04-12T09:29:56.988Z</time></trkpt><trkpt lat="46.461905" lon="12.4924455"><ele>1105.0</ele><time>2026-04-12T09:29:57.988Z</time></trkpt><trkpt lat="46.4617746" lon="12.4925953"><ele>1105.0</ele><time>2026-04-12T09:29:58.988Z</time></trkpt><trkpt lat="46.4616429" lon="12.492736"><ele>1105.0</ele><time>2026-04-12T09:29:59.988Z</time></trkpt><trkpt lat="46.4615169" lon="12.4928671"><ele>1105.0</ele><time>2026-04-12T09:30:00.988Z</time></trkpt><trkpt lat="46.4613996" lon="12.4929833"><ele>1107.5</ele><time>2026-04-12T09:30:01.989Z</time></trkpt><trkpt lat="46.461279" lon="12.4930993"><ele>1110.0</ele><time>2026-04-12T09:30:02.989Z</time></trkpt><trkpt lat="46.4611496" lon="12.4931986"><ele>1112.5</ele><time>2026-04-12T09:30:03.989Z</time></trkpt><trkpt lat="46.4610223" lon="12.4932484"><ele>1115.0</ele><time>2026-04-12T09:30:04.988Z</time></trkpt><trkpt lat="46.4608956" lon="12.4932576"><ele>1115.0</ele><time>2026-04-12T09:30:05.988Z</time></trkpt><trkpt lat="46.4607797" lon="12.4932304"><ele>1115.0</ele><time>2026-04-12T09:30:06.989Z</time></trkpt><trkpt lat="46.4606815" lon="12.4931786"><ele>1115.0</ele><time>2026-04-12T09:30:07.988Z</time></trkpt><trkpt lat="46.4605996" lon="12.4931355"><ele>1115.0</ele><time>2026-04-12T09:30:08.988Z</time></trkpt><trkpt lat="46.4605202" lon="12.493144"><ele>1115.0</ele><time>2026-04-12T09:30:09.988Z</time></trkpt><trkpt lat="46.460454" lon="12.4932044"><ele>1115.0</ele><time>2026-04-12T09:30:10.988Z</time></trkpt><trkpt lat="46.4604243" lon="12.493307"><ele>1115.0</ele><time>2026-04-12T09:30:11.988Z</time></trkpt><trkpt lat="46.4604552" lon="12.4934185"><ele>1115.0</ele><time>2026-04-12T09:30:12.988Z</time></trkpt><trkpt lat="46.460539" lon="12.4934975"><ele>1115.0</ele><time>2026-04-12T09:30:13.988Z</time></trkpt><trkpt lat="46.4606403" lon="12.4935946"><ele>1115.0</ele><time>2026-04-12T09:30:14.988Z</time></trkpt><trkpt lat="46.4607406" lon="12.4937357"><ele>1118.0</ele><time>2026-04-12T09:30:15.988Z</time></trkpt><trkpt lat="46.460839" lon="12.4939025"><ele>1121.0</ele><time>2026-04-12T09:30:16.988Z</time></trkpt><trkpt lat="46.4609153" lon="12.494072"><ele>1124.0</ele><time>2026-04-12T09:30:17.988Z</time></trkpt><trkpt lat="46.4609738" lon="12.4942431"><ele>1127.0</ele><time>2026-04-12T09:30:18.988Z</time></trkpt><trkpt lat="46.4610253" lon="12.4944003"><ele>1127.0</ele><time>2026-04-12T09:30:19.988Z</time></trkpt><trkpt lat="46.4610723" lon="12.4945424"><ele>1127.0</ele><time>2026-04-12T09:30:20.988Z</time></trkpt><trkpt lat="46.4611203" lon="12.4946744"><ele>1127.0</ele><time>2026-04-12T09:30:21.988Z</time></trkpt><trkpt lat="46.461189" lon="12.4947666"><ele>1127.0</ele><time>2026-04-12T09:30:22.988Z</time></trkpt><trkpt lat="46.4612766" lon="12.4947901"><ele>1127.0</ele><time>2026-04-12T09:30:23.988Z</time></trkpt><trkpt lat="46.4613723" lon="12.4947638"><ele>1127.5</ele><time>2026-04-12T09:30:24.988Z</time></trkpt><trkpt lat="46.4614488" lon="12.4947092"><ele>1128.0</ele><time>2026-04-12T09:30:25.988Z</time></trkpt><trkpt lat="46.4614941" lon="12.4946006"><ele>1128.5</ele><time>2026-04-12T09:30:26.988Z</time></trkpt><trkpt lat="46.4615252" lon="12.494491"><ele>1129.0</ele><time>2026-04-12T09:30:27.989Z</time></trkpt><trkpt lat="46.4615704" lon="12.4944125"><ele>1129.5</ele><time>2026-04-12T09:30:28.988Z</time></trkpt><trkpt lat="46.4616357" lon="12.4943658"><ele>1130.0</ele><time>2026-04-12T09:30:29.988Z</time></trkpt><trkpt lat="46.4617008" lon="12.4943923"><ele>1130.0</ele><time>2026-04-12T09:30:30.988Z</time></trkpt><trkpt lat="46.4617315" lon="12.4944755"><ele>1130.0</ele><time>2026-04-12T09:30:31.988Z</time></trkpt><trkpt lat="46.4617091" lon="12.494582"><ele>1130.0</ele><time>2026-04-12T09:30:32.988Z</time></trkpt><trkpt lat="46.4616428" lon="12.4946848"><ele>1130.0</ele><time>2026-04-12T09:30:33.988Z</time></trkpt><trkpt lat="46.4615602" lon="12.4948085"><ele>1130.0</ele><time>2026-04-12T09:30:34.988Z</time></trkpt><trkpt lat="46.4614822" lon="12.4949669"><ele>1130.0</ele><time>2026-04-12T09:30:35.988Z</time></trkpt><trkpt lat="46.4614149" lon="12.4951306"><ele>1130.0</ele><time>2026-04-12T09:30:36.988Z</time></trkpt><trkpt lat="46.4613356" lon="12.4952657"><ele>1130.0</ele><time>2026-04-12T09:30:37.988Z</time></trkpt><trkpt lat="46.4612291" lon="12.495357"><ele>1130.0</ele><time>2026-04-12T09:30:38.988Z</time></trkpt><trkpt lat="46.4610992" lon="12.4953788"><ele>1132.0</ele><time>2026-04-12T09:30:39.988Z</time></trkpt><trkpt lat="46.4609825" lon="12.4953102"><ele>1134.0</ele><time>2026-04-12T09:30:40.988Z</time></trkpt><trkpt lat="46.4608633" lon="12.4952127"><ele>1136.0</ele><time>2026-04-12T09:30:41.988Z</time></trkpt><trkpt lat="46.4607367" lon="12.4951151"><ele>1138.0</ele><time>2026-04-12T09:30:42.988Z</time></trkpt><trkpt lat="46.4606282" lon="12.4950277"><ele>1138.0</ele><time>2026-04-12T09:30:43.988Z</time></trkpt><trkpt lat="46.4605322" lon="12.4949326"><ele>1138.0</ele><time>2026-04-12T09:30:44.989Z</time></trkpt><trkpt lat="46.4604457" lon="12.49483"><ele>1138.0</ele><time>2026-04-12T09:30:45.988Z</time></trkpt><trkpt lat="46.4603797" lon="12.494728"><ele>1138.0</ele><time>2026-04-12T09:30:46.988Z</time></trkpt><trkpt lat="46.4603291" lon="12.4946398"><ele>1138.0</ele><time>2026-04-12T09:30:47.988Z</time></trkpt><trkpt lat="46.4602597" lon="12.4945823"><ele>1139.0</ele><time>2026-04-12T09:30:48.988Z</time></trkpt><trkpt lat="46.4601787" lon="12.4945797"><ele>1140.0</ele><time>2026-04-12T09:30:49.989Z</time></trkpt><trkpt lat="46.4601187" lon="12.4946564"><ele>1141.0</ele><time>2026-04-12T09:30:50.988Z</time></trkpt><trkpt lat="46.4600985" lon="12.4947644"><ele>1142.0</ele><time>2026-04-12T09:30:51.988Z</time></trkpt><trkpt lat="46.4601408" lon="12.4948645"><ele>1143.0</ele><time>2026-04-12T09:30:52.988Z</time></trkpt><trkpt lat="46.4601787" lon="12.4949731"><ele>1144.0</ele><time>2026-04-12T09:30:53.989Z</time></trkpt><trkpt lat="46.460327" lon="12.4950737"><ele>1144.75</ele><time>2026-04-12T09:30:54.988Z</time></trkpt><trkpt lat="46.4604278" lon="12.495194"><ele>1145.5</ele><time>2026-04-12T09:30:55.988Z</time></trkpt><trkpt lat="46.4605443" lon="12.4953265"><ele>1146.25</ele><time>2026-04-12T09:30:56.988Z</time></trkpt><trkpt lat="46.4606474" lon="12.4955128"><ele>1147.0</ele><time>2026-04-12T09:30:57.988Z</time></trkpt><trkpt lat="46.4607429" lon="12.4957323"><ele>1147.0</ele><time>2026-04-12T09:30:58.988Z</time></trkpt><trkpt lat="46.4608328" lon="12.4959421"><ele>1147.0</ele><time>2026-04-12T09:30:59.989Z</time></trkpt><trkpt lat="46.4609264" lon="12.4961683"><ele>1147.0</ele><time>2026-04-12T09:31:00.988Z</time></trkpt><trkpt lat="46.4610124" lon="12.4963735"><ele>1148.25</ele><time>2026-04-12T09:31:01.988Z</time></trkpt><trkpt lat="46.4610907" lon="12.4965598"><ele>1149.5</ele><time>2026-04-12T09:31:02.989Z</time></trkpt><trkpt lat="46.4611644" lon="12.496735"><ele>1150.75</ele><time>2026-04-12T09:31:03.988Z</time></trkpt><trkpt lat="46.4612273" lon="12.4969033"><ele>1152.0</ele><time>2026-04-12T09:31:04.988Z</time></trkpt><trkpt lat="46.461278" lon="12.4970867"><ele>1153.75</ele><time>2026-04-12T09:31:05.988Z</time></trkpt><trkpt lat="46.4613155" lon="12.4972941"><ele>1155.5</ele><time>2026-04-12T09:31:06.988Z</time></trkpt><trkpt lat="46.4613492" lon="12.4974999"><ele>1157.25</ele><time>2026-04-12T09:31:07.988Z</time></trkpt><trkpt lat="46.4613777" lon="12.4976921"><ele>1159.0</ele><time>2026-04-12T09:31:08.989Z</time></trkpt><trkpt lat="46.4614015" lon="12.4978686"><ele>1159.6000000000001</ele><time>2026-04-12T09:31:09.988Z</time></trkpt><trkpt lat="46.461422" lon="12.4980294"><ele>1160.2</ele><time>2026-04-12T09:31:10.988Z</time></trkpt><trkpt lat="46.4614367" lon="12.4981796"><ele>1160.8000000000002</ele><time>2026-04-12T09:31:11.988Z</time></trkpt><trkpt lat="46.4614446" lon="12.4983228"><ele>1161.4</ele><time>2026-04-12T09:31:12.988Z</time></trkpt><trkpt lat="46.4614521" lon="12.4984465"><ele>1162.0</ele><time>2026-04-12T09:31:13.988Z</time></trkpt><trkpt lat="46.4614777" lon="12.4985531"><ele>1162.0</ele><time>2026-04-12T09:31:14.988Z</time></trkpt><trkpt lat="46.4615283" lon="12.4986445"><ele>1162.0</ele><time>2026-04-12T09:31:15.988Z</time></trkpt><trkpt lat="46.4616053" lon="12.4987161"><ele>1162.0</ele><time>2026-04-12T09:31:16.988Z</time></trkpt><trkpt lat="46.4617007" lon="12.49874"><ele>1162.0</ele><time>2026-04-12T09:31:17.988Z</time></trkpt><trkpt lat="46.4617987" lon="12.4987036"><ele>1162.0</ele><time>2026-04-12T09:31:18.989Z</time></trkpt><trkpt lat="46.461883" lon="12.4986048"><ele>1162.0</ele><time>2026-04-12T09:31:19.988Z</time></trkpt><trkpt lat="46.4619434" lon="12.4984456"><ele>1162.0</ele><time>2026-04-12T09:31:20.988Z</time></trkpt><trkpt lat="46.4619923" lon="12.4982403"><ele>1162.0</ele><time>2026-04-12T09:31:21.988Z</time></trkpt><trkpt lat="46.4620387" lon="12.4980133"><ele>1162.0</ele><time>2026-04-12T09:31:22.988Z</time></trkpt><trkpt lat="46.4620881" lon="12.4977848"><ele>1164.5</ele><time>2026-04-12T09:31:23.988Z</time></trkpt><trkpt lat="46.4621291" lon="12.4975811"><ele>1167.0</ele><time>2026-04-12T09:31:24.988Z</time></trkpt><trkpt lat="46.4621635" lon="12.497394"><ele>1169.5</ele><time>2026-04-12T09:31:25.988Z</time></trkpt><trkpt lat="46.4621972" lon="12.4972276"><ele>1172.0</ele><time>2026-04-12T09:31:26.988Z</time></trkpt><trkpt lat="46.4622285" lon="12.4970766"><ele>1172.0</ele><time>2026-04-12T09:31:27.988Z</time></trkpt><trkpt lat="46.4622631" lon="12.496936"><ele>1172.0</ele><time>2026-04-12T09:31:28.988Z</time></trkpt><trkpt lat="46.4623284" lon="12.4967906"><ele>1172.0</ele><time>2026-04-12T09:31:29.988Z</time></trkpt><trkpt lat="46.4624203" lon="12.4966751"><ele>1172.0</ele><time>2026-04-12T09:31:30.988Z</time></trkpt><trkpt lat="46.4625395" lon="12.4965768"><ele>1172.0</ele><time>2026-04-12T09:31:31.988Z</time></trkpt><trkpt lat="46.4626624" lon="12.496518"><ele>1172.0</ele><time>2026-04-12T09:31:32.988Z</time></trkpt><trkpt lat="46.4627793" lon="12.4964952"><ele>1172.0</ele><time>2026-04-12T09:31:33.988Z</time></trkpt><trkpt lat="46.4628841" lon="12.4965091"><ele>1172.0</ele><time>2026-04-12T09:31:34.988Z</time></trkpt><trkpt lat="46.4629771" lon="12.4965002"><ele>1172.0</ele><time>2026-04-12T09:31:35.988Z</time></trkpt><trkpt lat="46.4630659" lon="12.4964382"><ele>1176.0</ele><time>2026-04-12T09:31:36.988Z</time></trkpt><trkpt lat="46.4631343" lon="12.4963291"><ele>1180.0</ele><time>2026-04-12T09:31:37.988Z</time></trkpt><trkpt lat="46.4631666" lon="12.49617"><ele>1184.0</ele><time>2026-04-12T09:31:38.988Z</time></trkpt><trkpt lat="46.4631796" lon="12.4959742"><ele>1188.0</ele><time>2026-04-12T09:31:39.988Z</time></trkpt><trkpt lat="46.4631877" lon="12.4957651"><ele>1188.0</ele><time>2026-04-12T09:31:40.988Z</time></trkpt><trkpt lat="46.4632015" lon="12.4955787"><ele>1188.0</ele><time>2026-04-12T09:31:41.988Z</time></trkpt><trkpt lat="46.4632258" lon="12.4954101"><ele>1188.0</ele><time>2026-04-12T09:31:42.988Z</time></trkpt><trkpt lat="46.4632561" lon="12.4952608"><ele>1188.0</ele><time>2026-04-12T09:31:43.988Z</time></trkpt><trkpt lat="46.4632882" lon="12.4951342"><ele>1188.0</ele><time>2026-04-12T09:31:44.988Z</time></trkpt><trkpt lat="46.4633438" lon="12.4950647"><ele>1188.0</ele><time>2026-04-12T09:31:45.988Z</time></trkpt><trkpt lat="46.4634108" lon="12.4950646"><ele>1188.0</ele><time>2026-04-12T09:31:46.988Z</time></trkpt><trkpt lat="46.4634482" lon="12.4952455"><ele>1188.0</ele><time>2026-04-12T09:31:48.988Z</time></trkpt><trkpt lat="46.463406" lon="12.4953839"><ele>1188.0</ele><time>2026-04-12T09:31:49.988Z</time></trkpt><trkpt lat="46.4633466" lon="12.4955263"><ele>1188.0</ele><time>2026-04-12T09:31:50.988Z</time></trkpt><trkpt lat="46.4633033" lon="12.4956883"><ele>1188.0</ele><time>2026-04-12T09:31:51.988Z</time></trkpt><trkpt lat="46.4633055" lon="12.495874"><ele>1188.0</ele><time>2026-04-12T09:31:52.988Z</time></trkpt><trkpt lat="46.4633577" lon="12.4960602"><ele>1188.0</ele><time>2026-04-12T09:31:53.988Z</time></trkpt><trkpt lat="46.4634374" lon="12.4961972"><ele>1188.0</ele><time>2026-04-12T09:31:54.988Z</time></trkpt><trkpt lat="46.4635066" lon="12.4963468"><ele>1188.75</ele><time>2026-04-12T09:31:55.988Z</time></trkpt><trkpt lat="46.4635248" lon="12.4965082"><ele>1189.5</ele><time>2026-04-12T09:31:56.988Z</time></trkpt><trkpt lat="46.4634886" lon="12.4966613"><ele>1190.25</ele><time>2026-04-12T09:31:57.988Z</time></trkpt><trkpt lat="46.4634042" lon="12.4967686"><ele>1191.0</ele><time>2026-04-12T09:31:58.988Z</time></trkpt><trkpt lat="46.4632918" lon="12.4968264"><ele>1191.0</ele><time>2026-04-12T09:31:59.988Z</time></trkpt><trkpt lat="46.4631782" lon="12.496901"><ele>1191.0</ele><time>2026-04-12T09:32:00.988Z</time></trkpt><trkpt lat="46.4630768" lon="12.4970073"><ele>1191.0</ele><time>2026-04-12T09:32:01.988Z</time></trkpt><trkpt lat="46.4630055" lon="12.4971572"><ele>1191.0</ele><time>2026-04-12T09:32:02.989Z</time></trkpt><trkpt lat="46.4629701" lon="12.4973209"><ele>1192.75</ele><time>2026-04-12T09:32:03.988Z</time></trkpt><trkpt lat="46.4629806" lon="12.4975148"><ele>1194.5</ele><time>2026-04-12T09:32:04.988Z</time></trkpt><trkpt lat="46.4630129" lon="12.4977171"><ele>1196.25</ele><time>2026-04-12T09:32:05.988Z</time></trkpt><trkpt lat="46.4630529" lon="12.4979374"><ele>1198.0</ele><time>2026-04-12T09:32:06.988Z</time></trkpt><trkpt lat="46.4630601" lon="12.4981544"><ele>1196.5</ele><time>2026-04-12T09:32:07.989Z</time></trkpt><trkpt lat="46.4630425" lon="12.4983496"><ele>1195.0</ele><time>2026-04-12T09:32:08.988Z</time></trkpt><trkpt lat="46.4629864" lon="12.4985242"><ele>1193.5</ele><time>2026-04-12T09:32:09.989Z</time></trkpt><trkpt lat="46.4628929" lon="12.4986866"><ele>1192.0</ele><time>2026-04-12T09:32:10.988Z</time></trkpt><trkpt lat="46.462792" lon="12.498839"><ele>1192.0</ele><time>2026-04-12T09:32:11.988Z</time></trkpt><trkpt lat="46.4627009" lon="12.4989728"><ele>1192.0</ele><time>2026-04-12T09:32:12.988Z</time></trkpt><trkpt lat="46.4626113" lon="12.499103"><ele>1192.0</ele><time>2026-04-12T09:32:13.988Z</time></trkpt><trkpt lat="46.4625254" lon="12.4992372"><ele>1192.0</ele><time>2026-04-12T09:32:14.988Z</time></trkpt><trkpt lat="46.4624593" lon="12.4993945"><ele>1196.0</ele><time>2026-04-12T09:32:15.988Z</time></trkpt><trkpt lat="46.4624229" lon="12.4995861"><ele>1200.0</ele><time>2026-04-12T09:32:16.989Z</time></trkpt><trkpt lat="46.4623948" lon="12.4997821"><ele>1204.0</ele><time>2026-04-12T09:32:17.988Z</time></trkpt><trkpt lat="46.4623704" lon="12.4999593"><ele>1208.0</ele><time>2026-04-12T09:32:18.988Z</time></trkpt><trkpt lat="46.462344" lon="12.5001327"><ele>1208.0</ele><time>2026-04-12T09:32:19.988Z</time></trkpt><trkpt lat="46.4623235" lon="12.5003064"><ele>1208.0</ele><time>2026-04-12T09:32:20.988Z</time></trkpt><trkpt lat="46.4623341" lon="12.5004942"><ele>1208.0</ele><time>2026-04-12T09:32:21.988Z</time></trkpt><trkpt lat="46.4623587" lon="12.5006849"><ele>1208.0</ele><time>2026-04-12T09:32:22.988Z</time></trkpt><trkpt lat="46.4624056" lon="12.5008681"><ele>1208.25</ele><time>2026-04-12T09:32:23.989Z</time></trkpt><trkpt lat="46.4624882" lon="12.5010369"><ele>1208.5</ele><time>2026-04-12T09:32:24.988Z</time></trkpt><trkpt lat="46.4625879" lon="12.5011586"><ele>1208.75</ele><time>2026-04-12T09:32:25.988Z</time></trkpt><trkpt lat="46.4626868" lon="12.5012563"><ele>1209.0</ele><time>2026-04-12T09:32:26.988Z</time></trkpt><trkpt lat="46.4627764" lon="12.5013397"><ele>1208.6000000000001</ele><time>2026-04-12T09:32:27.988Z</time></trkpt><trkpt lat="46.4628525" lon="12.5014291"><ele>1208.2</ele><time>2026-04-12T09:32:28.989Z</time></trkpt><trkpt lat="46.4628909" lon="12.5015492"><ele>1207.8000000000002</ele><time>2026-04-12T09:32:29.988Z</time></trkpt><trkpt lat="46.4628803" lon="12.5016854"><ele>1207.4</ele><time>2026-04-12T09:32:30.988Z</time></trkpt><trkpt lat="46.4628224" lon="12.5018213"><ele>1207.0</ele><time>2026-04-12T09:32:31.988Z</time></trkpt><trkpt lat="46.4627275" lon="12.5019259"><ele>1207.0</ele><time>2026-04-12T09:32:32.987Z</time></trkpt><trkpt lat="46.4626177" lon="12.5019805"><ele>1207.0</ele><time>2026-04-12T09:32:33.988Z</time></trkpt><trkpt lat="46.4625232" lon="12.5020573"><ele>1207.0</ele><time>2026-04-12T09:32:34.987Z</time></trkpt><trkpt lat="46.462434" lon="12.5021761"><ele>1207.0</ele><time>2026-04-12T09:32:35.987Z</time></trkpt><trkpt lat="46.4623677" lon="12.5023261"><ele>1209.75</ele><time>2026-04-12T09:32:36.987Z</time></trkpt><trkpt lat="46.4623311" lon="12.5025207"><ele>1212.5</ele><time>2026-04-12T09:32:37.988Z</time></trkpt><trkpt lat="46.4623131" lon="12.5027438"><ele>1215.25</ele><time>2026-04-12T09:32:38.988Z</time></trkpt><trkpt lat="46.4623128" lon="12.5029543"><ele>1218.0</ele><time>2026-04-12T09:32:39.987Z</time></trkpt><trkpt lat="46.4623152" lon="12.5031526"><ele>1221.0</ele><time>2026-04-12T09:32:40.987Z</time></trkpt><trkpt lat="46.4623269" lon="12.5033468"><ele>1224.0</ele><time>2026-04-12T09:32:41.987Z</time></trkpt><trkpt lat="46.4623677" lon="12.5035436"><ele>1227.0</ele><time>2026-04-12T09:32:42.988Z</time></trkpt><trkpt lat="46.4624161" lon="12.5037155"><ele>1230.0</ele><time>2026-04-12T09:32:43.987Z</time></trkpt><trkpt lat="46.4624664" lon="12.5038654"><ele>1231.0</ele><time>2026-04-12T09:32:44.987Z</time></trkpt><trkpt lat="46.462508" lon="12.5040012"><ele>1232.0</ele><time>2026-04-12T09:32:45.987Z</time></trkpt><trkpt lat="46.4625282" lon="12.5041337"><ele>1233.0</ele><time>2026-04-12T09:32:46.987Z</time></trkpt><trkpt lat="46.4625125" lon="12.5042581"><ele>1234.0</ele><time>2026-04-12T09:32:47.987Z</time></trkpt><trkpt lat="46.4624586" lon="12.5043579"><ele>1235.0</ele><time>2026-04-12T09:32:48.988Z</time></trkpt><trkpt lat="46.4623748" lon="12.5044032"><ele>1235.0</ele><time>2026-04-12T09:32:49.987Z</time></trkpt><trkpt lat="46.4622759" lon="12.5043956"><ele>1235.0</ele><time>2026-04-12T09:32:50.987Z</time></trkpt><trkpt lat="46.4621724" lon="12.5043707"><ele>1235.0</ele><time>2026-04-12T09:32:51.987Z</time></trkpt><trkpt lat="46.4620449" lon="12.5043511"><ele>1235.0</ele><time>2026-04-12T09:32:52.987Z</time></trkpt><trkpt lat="46.4619146" lon="12.5043506"><ele>1232.0</ele><time>2026-04-12T09:32:53.987Z</time></trkpt><trkpt lat="46.4617615" lon="12.5043668"><ele>1229.0</ele><time>2026-04-12T09:32:54.988Z</time></trkpt><trkpt lat="46.4616178" lon="12.5044018"><ele>1226.0</ele><time>2026-04-12T09:32:55.987Z</time></trkpt><trkpt lat="46.4614924" lon="12.5044434"><ele>1223.0</ele><time>2026-04-12T09:32:56.987Z</time></trkpt><trkpt lat="46.4613795" lon="12.5044852"><ele>1224.5</ele><time>2026-04-12T09:32:57.988Z</time></trkpt><trkpt lat="46.4612692" lon="12.5045392"><ele>1226.0</ele><time>2026-04-12T09:32:58.987Z</time></trkpt><trkpt lat="46.4611781" lon="12.5046337"><ele>1227.5</ele><time>2026-04-12T09:32:59.987Z</time></trkpt><trkpt lat="46.4611085" lon="12.5047763"><ele>1229.0</ele><time>2026-04-12T09:33:00.988Z</time></trkpt><trkpt lat="46.4610781" lon="12.5049707"><ele>1229.0</ele><time>2026-04-12T09:33:01.988Z</time></trkpt><trkpt lat="46.4610613" lon="12.5051869"><ele>1229.0</ele><time>2026-04-12T09:33:02.987Z</time></trkpt><trkpt lat="46.461056" lon="12.5054327"><ele>1229.0</ele><time>2026-04-12T09:33:03.987Z</time></trkpt><trkpt lat="46.4610519" lon="12.5056742"><ele>1231.3333333333335</ele><time>2026-04-12T09:33:04.987Z</time></trkpt><trkpt lat="46.4610494" lon="12.5059058"><ele>1233.6666666666667</ele><time>2026-04-12T09:33:05.987Z</time></trkpt><trkpt lat="46.4610612" lon="12.5061246"><ele>1236.0</ele><time>2026-04-12T09:33:06.987Z</time></trkpt><trkpt lat="46.4610927" lon="12.5063309"><ele>1237.5</ele><time>2026-04-12T09:33:07.987Z</time></trkpt><trkpt lat="46.4611211" lon="12.5065281"><ele>1239.0</ele><time>2026-04-12T09:33:08.987Z</time></trkpt><trkpt lat="46.4611243" lon="12.506711"><ele>1240.5</ele><time>2026-04-12T09:33:09.987Z</time></trkpt><trkpt lat="46.4610891" lon="12.5068622"><ele>1242.0</ele><time>2026-04-12T09:33:10.987Z</time></trkpt><trkpt lat="46.4609986" lon="12.5069576"><ele>1242.0</ele><time>2026-04-12T09:33:11.987Z</time></trkpt><trkpt lat="46.4608794" lon="12.5070313"><ele>1242.0</ele><time>2026-04-12T09:33:12.988Z</time></trkpt><trkpt lat="46.4607492" lon="12.5070901"><ele>1242.0</ele><time>2026-04-12T09:33:13.987Z</time></trkpt><trkpt lat="46.4606217" lon="12.5071925"><ele>1242.0</ele><time>2026-04-12T09:33:14.987Z</time></trkpt><trkpt lat="46.460506" lon="12.5073473"><ele>1242.6666666666667</ele><time>2026-04-12T09:33:15.987Z</time></trkpt><trkpt lat="46.4603986" lon="12.5075515"><ele>1243.3333333333335</ele><time>2026-04-12T09:33:16.988Z</time></trkpt><trkpt lat="46.4603047" lon="12.5077725"><ele>1244.0</ele><time>2026-04-12T09:33:17.987Z</time></trkpt><trkpt lat="46.4602149" lon="12.5079953"><ele>1244.3333333333335</ele><time>2026-04-12T09:33:18.987Z</time></trkpt><trkpt lat="46.4601301" lon="12.5082192"><ele>1244.6666666666667</ele><time>2026-04-12T09:33:19.987Z</time></trkpt><trkpt lat="46.4600462" lon="12.5084362"><ele>1245.0</ele><time>2026-04-12T09:33:20.988Z</time></trkpt><trkpt lat="46.4599555" lon="12.5086421"><ele>1247.6666666666667</ele><time>2026-04-12T09:33:21.987Z</time></trkpt><trkpt lat="46.4598446" lon="12.5088404"><ele>1250.3333333333335</ele><time>2026-04-12T09:33:22.987Z</time></trkpt><trkpt lat="46.4597284" lon="12.5090131"><ele>1253.0</ele><time>2026-04-12T09:33:23.987Z</time></trkpt><trkpt lat="46.4596159" lon="12.5091687"><ele>1253.0</ele><time>2026-04-12T09:33:24.987Z</time></trkpt><trkpt lat="46.4595155" lon="12.5093207"><ele>1253.0</ele><time>2026-04-12T09:33:25.987Z</time></trkpt><trkpt lat="46.4594257" lon="12.5094563"><ele>1253.0</ele><time>2026-04-12T09:33:26.987Z</time></trkpt><trkpt lat="46.4593429" lon="12.5095774"><ele>1253.0</ele><time>2026-04-12T09:33:27.987Z</time></trkpt><trkpt lat="46.4592468" lon="12.5096673"><ele>1255.25</ele><time>2026-04-12T09:33:28.987Z</time></trkpt><trkpt lat="46.4591303" lon="12.5097135"><ele>1257.5</ele><time>2026-04-12T09:33:29.987Z</time></trkpt><trkpt lat="46.4590083" lon="12.509728"><ele>1259.75</ele><time>2026-04-12T09:33:30.987Z</time></trkpt><trkpt lat="46.4588959" lon="12.5097634"><ele>1262.0</ele><time>2026-04-12T09:33:31.988Z</time></trkpt><trkpt lat="46.4587832" lon="12.5098384"><ele>1262.0</ele><time>2026-04-12T09:33:32.987Z</time></trkpt><trkpt lat="46.4586804" lon="12.5099532"><ele>1262.0</ele><time>2026-04-12T09:33:33.987Z</time></trkpt><trkpt lat="46.4585993" lon="12.5101129"><ele>1262.0</ele><time>2026-04-12T09:33:34.988Z</time></trkpt><trkpt lat="46.4585578" lon="12.5102803"><ele>1262.0</ele><time>2026-04-12T09:33:35.987Z</time></trkpt><trkpt lat="46.4585441" lon="12.5104627"><ele>1262.75</ele><time>2026-04-12T09:33:36.987Z</time></trkpt><trkpt lat="46.4585586" lon="12.5106511"><ele>1263.5</ele><time>2026-04-12T09:33:37.987Z</time></trkpt><trkpt lat="46.4585833" lon="12.5108267"><ele>1264.25</ele><time>2026-04-12T09:33:38.988Z</time></trkpt><trkpt lat="46.4585867" lon="12.5110074"><ele>1265.0</ele><time>2026-04-12T09:33:39.988Z</time></trkpt><trkpt lat="46.4585383" lon="12.5111829"><ele>1267.25</ele><time>2026-04-12T09:33:40.987Z</time></trkpt><trkpt lat="46.4584518" lon="12.5113258"><ele>1269.5</ele><time>2026-04-12T09:33:41.987Z</time></trkpt><trkpt lat="46.4583309" lon="12.5114316"><ele>1271.75</ele><time>2026-04-12T09:33:42.989Z</time></trkpt><trkpt lat="46.4581862" lon="12.5115289"><ele>1274.0</ele><time>2026-04-12T09:33:43.987Z</time></trkpt><trkpt lat="46.4580311" lon="12.5116358"><ele>1274.0</ele><time>2026-04-12T09:33:44.987Z</time></trkpt><trkpt lat="46.4578956" lon="12.5117299"><ele>1274.0</ele><time>2026-04-12T09:33:45.987Z</time></trkpt><trkpt lat="46.4577897" lon="12.5117996"><ele>1274.0</ele><time>2026-04-12T09:33:46.987Z</time></trkpt><trkpt lat="46.4577049" lon="12.5118501"><ele>1274.0</ele><time>2026-04-12T09:33:47.988Z</time></trkpt><trkpt lat="46.4576413" lon="12.5118762"><ele>1274.0</ele><time>2026-04-12T09:33:48.989Z</time></trkpt><trkpt lat="46.4575491" lon="12.5118947"><ele>1274.0</ele><time>2026-04-12T09:33:50.987Z</time></trkpt><trkpt lat="46.457495" lon="12.5119558"><ele>1274.0</ele><time>2026-04-12T09:43:22.986Z</time></trkpt><trkpt lat="46.4574204" lon="12.5120462"><ele>1274.0</ele><time>2026-04-12T09:43:24.986Z</time></trkpt><trkpt lat="46.457367" lon="12.512101"><ele>1274.0</ele><time>2026-04-12T09:43:25.986Z</time></trkpt><trkpt lat="46.4573024" lon="12.5121461"><ele>1274.0</ele><time>2026-04-12T09:43:26.986Z</time></trkpt><trkpt lat="46.4572352" lon="12.5121849"><ele>1274.0</ele><time>2026-04-12T09:43:27.987Z</time></trkpt><trkpt lat="46.4571134" lon="12.5122641"><ele>1276.2</ele><time>2026-04-12T09:43:29.986Z</time></trkpt><trkpt lat="46.4570431" lon="12.512321"><ele>1278.4</ele><time>2026-04-12T09:43:30.986Z</time></trkpt><trkpt lat="46.4569756" lon="12.5124051"><ele>1280.6</ele><time>2026-04-12T09:43:31.986Z</time></trkpt><trkpt lat="46.4569081" lon="12.5125289"><ele>1282.8</ele><time>2026-04-12T09:43:32.987Z</time></trkpt><trkpt lat="46.4568426" lon="12.5126677"><ele>1285.0</ele><time>2026-04-12T09:43:33.986Z</time></trkpt><trkpt lat="46.4567777" lon="12.5128095"><ele>1285.25</ele><time>2026-04-12T09:43:34.986Z</time></trkpt><trkpt lat="46.4567186" lon="12.5129591"><ele>1285.5</ele><time>2026-04-12T09:43:35.986Z</time></trkpt><trkpt lat="46.4566566" lon="12.5131122"><ele>1285.75</ele><time>2026-04-12T09:43:36.986Z</time></trkpt><trkpt lat="46.4565882" lon="12.513269"><ele>1286.0</ele><time>2026-04-12T09:43:37.987Z</time></trkpt><trkpt lat="46.456518" lon="12.5134407"><ele>1286.0</ele><time>2026-04-12T09:43:38.986Z</time></trkpt><trkpt lat="46.456446" lon="12.5136231"><ele>1286.0</ele><time>2026-04-12T09:43:39.986Z</time></trkpt><trkpt lat="46.4563806" lon="12.5137916"><ele>1286.0</ele><time>2026-04-12T09:43:40.986Z</time></trkpt><trkpt lat="46.4563202" lon="12.5139477"><ele>1286.0</ele><time>2026-04-12T09:43:41.986Z</time></trkpt><trkpt lat="46.4562654" lon="12.5140878"><ele>1286.0</ele><time>2026-04-12T09:43:42.986Z</time></trkpt><trkpt lat="46.456213" lon="12.5142126"><ele>1286.0</ele><time>2026-04-12T09:43:43.986Z</time></trkpt><trkpt lat="46.4561589" lon="12.5143353"><ele>1286.0</ele><time>2026-04-12T09:43:44.986Z</time></trkpt><trkpt lat="46.4560955" lon="12.5144584"><ele>1286.0</ele><time>2026-04-12T09:43:45.987Z</time></trkpt><trkpt lat="46.4560174" lon="12.5145756"><ele>1286.0</ele><time>2026-04-12T09:43:46.986Z</time></trkpt><trkpt lat="46.4559137" lon="12.5146538"><ele>1286.0</ele><time>2026-04-12T09:43:47.986Z</time></trkpt><trkpt lat="46.4558001" lon="12.5146938"><ele>1286.0</ele><time>2026-04-12T09:43:48.987Z</time></trkpt><trkpt lat="46.4556808" lon="12.514682"><ele>1286.0</ele><time>2026-04-12T09:43:49.986Z</time></trkpt><trkpt lat="46.4555714" lon="12.5146148"><ele>1286.0</ele><time>2026-04-12T09:43:50.986Z</time></trkpt><trkpt lat="46.4554792" lon="12.5145036"><ele>1292.25</ele><time>2026-04-12T09:43:51.987Z</time></trkpt><trkpt lat="46.455411" lon="12.5143656"><ele>1298.5</ele><time>2026-04-12T09:43:52.986Z</time></trkpt><trkpt lat="46.4553516" lon="12.5142113"><ele>1304.75</ele><time>2026-04-12T09:43:53.986Z</time></trkpt><trkpt lat="46.4552966" lon="12.5140536"><ele>1311.0</ele><time>2026-04-12T09:43:54.986Z</time></trkpt><trkpt lat="46.4552637" lon="12.513887"><ele>1309.8</ele><time>2026-04-12T09:43:55.986Z</time></trkpt><trkpt lat="46.4552648" lon="12.5137272"><ele>1308.6</ele><time>2026-04-12T09:43:56.986Z</time></trkpt><trkpt lat="46.4552707" lon="12.5135932"><ele>1307.4</ele><time>2026-04-12T09:43:57.986Z</time></trkpt><trkpt lat="46.4552546" lon="12.513466"><ele>1306.2</ele><time>2026-04-12T09:43:58.986Z</time></trkpt><trkpt lat="46.4552118" lon="12.513349"><ele>1305.0</ele><time>2026-04-12T09:43:59.986Z</time></trkpt><trkpt lat="46.4551338" lon="12.51324"><ele>1305.0</ele><time>2026-04-12T09:44:00.986Z</time></trkpt><trkpt lat="46.4550418" lon="12.5131551"><ele>1305.0</ele><time>2026-04-12T09:44:01.986Z</time></trkpt><trkpt lat="46.4549483" lon="12.5130907"><ele>1305.0</ele><time>2026-04-12T09:44:02.986Z</time></trkpt><trkpt lat="46.4548411" lon="12.513075"><ele>1305.0</ele><time>2026-04-12T09:44:03.986Z</time></trkpt><trkpt lat="46.4547355" lon="12.5131182"><ele>1305.0</ele><time>2026-04-12T09:44:04.986Z</time></trkpt><trkpt lat="46.454638" lon="12.5131988"><ele>1307.5</ele><time>2026-04-12T09:44:05.986Z</time></trkpt><trkpt lat="46.4545391" lon="12.5132827"><ele>1310.0</ele><time>2026-04-12T09:44:06.988Z</time></trkpt><trkpt lat="46.4544454" lon="12.5133745"><ele>1312.5</ele><time>2026-04-12T09:44:07.986Z</time></trkpt><trkpt lat="46.4543657" lon="12.5134988"><ele>1315.0</ele><time>2026-04-12T09:44:08.986Z</time></trkpt><trkpt lat="46.4542912" lon="12.5136564"><ele>1313.5</ele><time>2026-04-12T09:44:09.986Z</time></trkpt><trkpt lat="46.4542365" lon="12.5138271"><ele>1312.0</ele><time>2026-04-12T09:44:10.986Z</time></trkpt><trkpt lat="46.4541971" lon="12.514018"><ele>1310.5</ele><time>2026-04-12T09:44:11.987Z</time></trkpt><trkpt lat="46.4541738" lon="12.5142013"><ele>1309.0</ele><time>2026-04-12T09:44:12.987Z</time></trkpt><trkpt lat="46.4541565" lon="12.5143811"><ele>1309.0</ele><time>2026-04-12T09:44:13.987Z</time></trkpt><trkpt lat="46.4541354" lon="12.5145594"><ele>1309.0</ele><time>2026-04-12T09:44:14.986Z</time></trkpt><trkpt lat="46.4540892" lon="12.5147307"><ele>1309.0</ele><time>2026-04-12T09:44:15.986Z</time></trkpt><trkpt lat="46.4540235" lon="12.5148877"><ele>1309.0</ele><time>2026-04-12T09:44:16.987Z</time></trkpt><trkpt lat="46.453958" lon="12.5150372"><ele>1309.5</ele><time>2026-04-12T09:44:17.987Z</time></trkpt><trkpt lat="46.4538923" lon="12.5151823"><ele>1310.0</ele><time>2026-04-12T09:44:18.986Z</time></trkpt><trkpt lat="46.4538346" lon="12.5153278"><ele>1310.5</ele><time>2026-04-12T09:44:19.986Z</time></trkpt><trkpt lat="46.4537987" lon="12.515478"><ele>1311.0</ele><time>2026-04-12T09:44:20.986Z</time></trkpt><trkpt lat="46.4537907" lon="12.5156337"><ele>1310.0</ele><time>2026-04-12T09:44:21.987Z</time></trkpt><trkpt lat="46.4538239" lon="12.5158"><ele>1309.0</ele><time>2026-04-12T09:44:22.986Z</time></trkpt><trkpt lat="46.4538946" lon="12.5159438"><ele>1308.0</ele><time>2026-04-12T09:44:23.986Z</time></trkpt><trkpt lat="46.4539787" lon="12.5160633"><ele>1307.0</ele><time>2026-04-12T09:44:24.986Z</time></trkpt><trkpt lat="46.4540722" lon="12.5161558"><ele>1304.3999999999999</ele><time>2026-04-12T09:44:25.987Z</time></trkpt><trkpt lat="46.4541653" lon="12.5162388"><ele>1301.8</ele><time>2026-04-12T09:44:26.986Z</time></trkpt><trkpt lat="46.4542477" lon="12.5163276"><ele>1299.2</ele><time>2026-04-12T09:44:27.986Z</time></trkpt><trkpt lat="46.4543011" lon="12.5164499"><ele>1296.6</ele><time>2026-04-12T09:44:28.986Z</time></trkpt><trkpt lat="46.4543164" lon="12.516596"><ele>1294.0</ele><time>2026-04-12T09:44:29.986Z</time></trkpt><trkpt lat="46.4542867" lon="12.51674"><ele>1294.0</ele><time>2026-04-12T09:44:30.986Z</time></trkpt><trkpt lat="46.4542104" lon="12.5168502"><ele>1294.0</ele><time>2026-04-12T09:44:31.986Z</time></trkpt><trkpt lat="46.4541223" lon="12.5169672"><ele>1294.0</ele><time>2026-04-12T09:44:32.986Z</time></trkpt><trkpt lat="46.4540522" lon="12.5171377"><ele>1294.0</ele><time>2026-04-12T09:44:33.986Z</time></trkpt><trkpt lat="46.4540088" lon="12.5173302"><ele>1294.5</ele><time>2026-04-12T09:44:34.986Z</time></trkpt><trkpt lat="46.4539739" lon="12.5175219"><ele>1295.0</ele><time>2026-04-12T09:44:35.986Z</time></trkpt><trkpt lat="46.4539227" lon="12.517709"><ele>1295.5</ele><time>2026-04-12T09:44:36.986Z</time></trkpt><trkpt lat="46.4538534" lon="12.5178823"><ele>1296.0</ele><time>2026-04-12T09:44:37.986Z</time></trkpt><trkpt lat="46.4537785" lon="12.518039"><ele>1293.0</ele><time>2026-04-12T09:44:38.986Z</time></trkpt><trkpt lat="46.4536907" lon="12.5181802"><ele>1290.0</ele><time>2026-04-12T09:44:39.987Z</time></trkpt><trkpt lat="46.453577" lon="12.5182732"><ele>1287.0</ele><time>2026-04-12T09:44:40.986Z</time></trkpt><trkpt lat="46.4534518" lon="12.5183462"><ele>1284.0</ele><time>2026-04-12T09:44:41.987Z</time></trkpt><trkpt lat="46.4533215" lon="12.5184124"><ele>1284.0</ele><time>2026-04-12T09:44:42.986Z</time></trkpt><trkpt lat="46.453191" lon="12.5184809"><ele>1284.0</ele><time>2026-04-12T09:44:43.986Z</time></trkpt><trkpt lat="46.4530617" lon="12.5185401"><ele>1284.0</ele><time>2026-04-12T09:44:44.986Z</time></trkpt><trkpt lat="46.4529327" lon="12.5185783"><ele>1284.0</ele><time>2026-04-12T09:44:45.986Z</time></trkpt><trkpt lat="46.4528084" lon="12.5186044"><ele>1282.25</ele><time>2026-04-12T09:44:46.986Z</time></trkpt><trkpt lat="46.4526916" lon="12.5186411"><ele>1280.5</ele><time>2026-04-12T09:44:47.986Z</time></trkpt><trkpt lat="46.4525825" lon="12.5187086"><ele>1278.75</ele><time>2026-04-12T09:44:48.986Z</time></trkpt><trkpt lat="46.4524832" lon="12.5188166"><ele>1277.0</ele><time>2026-04-12T09:44:49.986Z</time></trkpt><trkpt lat="46.4524116" lon="12.5189646"><ele>1277.0</ele><time>2026-04-12T09:44:50.986Z</time></trkpt><trkpt lat="46.4523667" lon="12.5191249"><ele>1277.0</ele><time>2026-04-12T09:44:51.986Z</time></trkpt><trkpt lat="46.4523387" lon="12.5192908"><ele>1277.0</ele><time>2026-04-12T09:44:52.987Z</time></trkpt><trkpt lat="46.4523051" lon="12.5194445"><ele>1277.0</ele><time>2026-04-12T09:44:53.987Z</time></trkpt><trkpt lat="46.4522388" lon="12.519574"><ele>1276.25</ele><time>2026-04-12T09:44:54.986Z</time></trkpt><trkpt lat="46.452142" lon="12.519664"><ele>1275.5</ele><time>2026-04-12T09:44:55.987Z</time></trkpt><trkpt lat="46.4520235" lon="12.5196912"><ele>1274.75</ele><time>2026-04-12T09:44:56.986Z</time></trkpt><trkpt lat="46.451906" lon="12.5196889"><ele>1274.0</ele><time>2026-04-12T09:44:57.986Z</time></trkpt><trkpt lat="46.4517921" lon="12.5197207"><ele>1274.0</ele><time>2026-04-12T09:44:58.986Z</time></trkpt><trkpt lat="46.4516631" lon="12.5197933"><ele>1274.0</ele><time>2026-04-12T09:44:59.986Z</time></trkpt><trkpt lat="46.4515483" lon="12.5198676"><ele>1274.0</ele><time>2026-04-12T09:45:00.987Z</time></trkpt><trkpt lat="46.4514387" lon="12.5199374"><ele>1274.0</ele><time>2026-04-12T09:45:01.986Z</time></trkpt><trkpt lat="46.4513342" lon="12.5199956"><ele>1268.8</ele><time>2026-04-12T09:45:02.986Z</time></trkpt><trkpt lat="46.4512425" lon="12.5200517"><ele>1263.6000000000001</ele><time>2026-04-12T09:45:03.986Z</time></trkpt><trkpt lat="46.4511667" lon="12.5201261"><ele>1258.4</ele><time>2026-04-12T09:45:04.986Z</time></trkpt><trkpt lat="46.4511055" lon="12.5202543"><ele>1253.2</ele><time>2026-04-12T09:45:05.986Z</time></trkpt><trkpt lat="46.451062" lon="12.5204231"><ele>1248.0</ele><time>2026-04-12T09:45:06.986Z</time></trkpt><trkpt lat="46.4510311" lon="12.5206222"><ele>1248.0</ele><time>2026-04-12T09:45:07.986Z</time></trkpt><trkpt lat="46.4510124" lon="12.5208117"><ele>1248.0</ele><time>2026-04-12T09:45:08.986Z</time></trkpt><trkpt lat="46.4509989" lon="12.5210006"><ele>1248.0</ele><time>2026-04-12T09:45:09.986Z</time></trkpt><trkpt lat="46.450983" lon="12.5211805"><ele>1248.0</ele><time>2026-04-12T09:45:10.986Z</time></trkpt><trkpt lat="46.4509747" lon="12.521359"><ele>1249.0</ele><time>2026-04-12T09:45:11.987Z</time></trkpt><trkpt lat="46.4509654" lon="12.5215312"><ele>1250.0</ele><time>2026-04-12T09:45:12.986Z</time></trkpt><trkpt lat="46.4509213" lon="12.5216938"><ele>1251.0</ele><time>2026-04-12T09:45:13.987Z</time></trkpt><trkpt lat="46.4508459" lon="12.5218247"><ele>1252.0</ele><time>2026-04-12T09:45:14.986Z</time></trkpt><trkpt lat="46.4507698" lon="12.5219701"><ele>1254.0</ele><time>2026-04-12T09:45:15.986Z</time></trkpt><trkpt lat="46.4507128" lon="12.5221374"><ele>1256.0</ele><time>2026-04-12T09:45:16.986Z</time></trkpt><trkpt lat="46.4506645" lon="12.5222953"><ele>1258.0</ele><time>2026-04-12T09:45:17.986Z</time></trkpt><trkpt lat="46.4506024" lon="12.522451"><ele>1260.0</ele><time>2026-04-12T09:45:18.986Z</time></trkpt><trkpt lat="46.4505404" lon="12.5225882"><ele>1260.0</ele><time>2026-04-12T09:45:19.987Z</time></trkpt><trkpt lat="46.4504905" lon="12.522708"><ele>1260.0</ele><time>2026-04-12T09:45:20.986Z</time></trkpt><trkpt lat="46.4504694" lon="12.5228321"><ele>1260.0</ele><time>2026-04-12T09:45:21.986Z</time></trkpt><trkpt lat="46.4504944" lon="12.5229614"><ele>1260.0</ele><time>2026-04-12T09:45:22.987Z</time></trkpt><trkpt lat="46.4505571" lon="12.5231087"><ele>1260.0</ele><time>2026-04-12T09:45:23.986Z</time></trkpt><trkpt lat="46.4506351" lon="12.5232601"><ele>1258.25</ele><time>2026-04-12T09:45:24.987Z</time></trkpt><trkpt lat="46.4507101" lon="12.5234025"><ele>1256.5</ele><time>2026-04-12T09:45:25.986Z</time></trkpt><trkpt lat="46.4507916" lon="12.5235324"><ele>1254.75</ele><time>2026-04-12T09:45:26.987Z</time></trkpt><trkpt lat="46.4508641" lon="12.5236674"><ele>1253.0</ele><time>2026-04-12T09:45:27.988Z</time></trkpt><trkpt lat="46.4509123" lon="12.5238317"><ele>1250.0</ele><time>2026-04-12T09:45:28.986Z</time></trkpt><trkpt lat="46.4509343" lon="12.5240066"><ele>1247.0</ele><time>2026-04-12T09:45:29.986Z</time></trkpt><trkpt lat="46.450947" lon="12.5241784"><ele>1244.0</ele><time>2026-04-12T09:45:30.986Z</time></trkpt><trkpt lat="46.4509615" lon="12.524344"><ele>1241.0</ele><time>2026-04-12T09:45:31.986Z</time></trkpt><trkpt lat="46.45099" lon="12.5244991"><ele>1237.25</ele><time>2026-04-12T09:45:32.986Z</time></trkpt><trkpt lat="46.4510569" lon="12.5246391"><ele>1233.5</ele><time>2026-04-12T09:45:33.986Z</time></trkpt><trkpt lat="46.4511469" lon="12.5247843"><ele>1229.75</ele><time>2026-04-12T09:45:34.986Z</time></trkpt><trkpt lat="46.4512178" lon="12.5249387"><ele>1226.0</ele><time>2026-04-12T09:45:35.986Z</time></trkpt><trkpt lat="46.4512725" lon="12.5250908"><ele>1226.8</ele><time>2026-04-12T09:45:36.986Z</time></trkpt><trkpt lat="46.4513304" lon="12.5252256"><ele>1227.6</ele><time>2026-04-12T09:45:37.987Z</time></trkpt><trkpt lat="46.4514038" lon="12.5253332"><ele>1228.4</ele><time>2026-04-12T09:45:38.986Z</time></trkpt><trkpt lat="46.4515028" lon="12.525405"><ele>1229.2</ele><time>2026-04-12T09:45:39.987Z</time></trkpt><trkpt lat="46.451608" lon="12.5254041"><ele>1230.0</ele><time>2026-04-12T09:45:40.986Z</time></trkpt><trkpt lat="46.4517001" lon="12.525358"><ele>1230.0</ele><time>2026-04-12T09:45:41.986Z</time></trkpt><trkpt lat="46.4517763" lon="12.5253097"><ele>1230.0</ele><time>2026-04-12T09:45:42.986Z</time></trkpt><trkpt lat="46.4518442" lon="12.5252648"><ele>1230.0</ele><time>2026-04-12T09:45:43.986Z</time></trkpt><trkpt lat="46.4519169" lon="12.5252608"><ele>1230.0</ele><time>2026-04-12T09:45:44.987Z</time></trkpt><trkpt lat="46.4519702" lon="12.5253233"><ele>1230.0</ele><time>2026-04-12T09:45:45.986Z</time></trkpt><trkpt lat="46.4519789" lon="12.525421"><ele>1230.0</ele><time>2026-04-12T09:45:46.987Z</time></trkpt><trkpt lat="46.4519275" lon="12.525494"><ele>1230.0</ele><time>2026-04-12T09:45:47.986Z</time></trkpt><trkpt lat="46.4518354" lon="12.5255358"><ele>1230.0</ele><time>2026-04-12T09:45:48.987Z</time></trkpt><trkpt lat="46.4517143" lon="12.5255487"><ele>1230.0</ele><time>2026-04-12T09:45:49.986Z</time></trkpt><trkpt lat="46.4515873" lon="12.5255507"><ele>1230.0</ele><time>2026-04-12T09:45:50.986Z</time></trkpt><trkpt lat="46.4514582" lon="12.5255509"><ele>1230.0</ele><time>2026-04-12T09:45:51.986Z</time></trkpt><trkpt lat="46.45133" lon="12.5254896"><ele>1229.0</ele><time>2026-04-12T09:45:52.986Z</time></trkpt><trkpt lat="46.4512154" lon="12.5253778"><ele>1228.0</ele><time>2026-04-12T09:45:53.986Z</time></trkpt><trkpt lat="46.4511123" lon="12.5252379"><ele>1227.0</ele><time>2026-04-12T09:45:54.986Z</time></trkpt><trkpt lat="46.4510199" lon="12.5251035"><ele>1226.0</ele><time>2026-04-12T09:45:55.986Z</time></trkpt><trkpt lat="46.450924" lon="12.5249821"><ele>1226.0</ele><time>2026-04-12T09:45:56.986Z</time></trkpt><trkpt lat="46.4508355" lon="12.524854"><ele>1226.0</ele><time>2026-04-12T09:45:57.986Z</time></trkpt><trkpt lat="46.4507619" lon="12.5247042"><ele>1226.0</ele><time>2026-04-12T09:45:58.986Z</time></trkpt><trkpt lat="46.4507047" lon="12.5245197"><ele>1226.0</ele><time>2026-04-12T09:45:59.986Z</time></trkpt><trkpt lat="46.4506566" lon="12.5243322"><ele>1231.0</ele><time>2026-04-12T09:46:00.986Z</time></trkpt><trkpt lat="46.4505873" lon="12.5241311"><ele>1236.0</ele><time>2026-04-12T09:46:01.986Z</time></trkpt><trkpt lat="46.4504879" lon="12.5239412"><ele>1241.0</ele><time>2026-04-12T09:46:02.987Z</time></trkpt><trkpt lat="46.4503967" lon="12.5237701"><ele>1235.0</ele><time>2026-04-12T09:46:03.986Z</time></trkpt><trkpt lat="46.450308" lon="12.5236012"><ele>1229.0</ele><time>2026-04-12T09:46:04.986Z</time></trkpt><trkpt lat="46.4502194" lon="12.5234397"><ele>1223.0</ele><time>2026-04-12T09:46:05.986Z</time></trkpt><trkpt lat="46.45014" lon="12.5232784"><ele>1217.0</ele><time>2026-04-12T09:46:06.986Z</time></trkpt><trkpt lat="46.4500684" lon="12.5231167"><ele>1217.0</ele><time>2026-04-12T09:46:07.986Z</time></trkpt><trkpt lat="46.4499886" lon="12.5229642"><ele>1217.0</ele><time>2026-04-12T09:46:08.986Z</time></trkpt><trkpt lat="46.4499078" lon="12.5228311"><ele>1217.0</ele><time>2026-04-12T09:46:09.986Z</time></trkpt><trkpt lat="46.4498293" lon="12.5227157"><ele>1217.0</ele><time>2026-04-12T09:46:10.986Z</time></trkpt><trkpt lat="46.449753" lon="12.5226145"><ele>1217.6666666666667</ele><time>2026-04-12T09:46:11.986Z</time></trkpt><trkpt lat="46.4496852" lon="12.5225211"><ele>1218.3333333333335</ele><time>2026-04-12T09:46:12.986Z</time></trkpt><trkpt lat="46.4496541" lon="12.5224097"><ele>1219.0</ele><time>2026-04-12T09:46:13.986Z</time></trkpt><trkpt lat="46.4496644" lon="12.5222874"><ele>1219.6666666666667</ele><time>2026-04-12T09:46:14.986Z</time></trkpt><trkpt lat="46.4497191" lon="12.5221869"><ele>1220.3333333333333</ele><time>2026-04-12T09:46:15.986Z</time></trkpt><trkpt lat="46.4498" lon="12.522112"><ele>1221.0</ele><time>2026-04-12T09:46:16.986Z</time></trkpt><trkpt lat="46.4498957" lon="12.5220049"><ele>1217.75</ele><time>2026-04-12T09:46:17.986Z</time></trkpt><trkpt lat="46.4499814" lon="12.5218794"><ele>1214.5</ele><time>2026-04-12T09:46:18.986Z</time></trkpt><trkpt lat="46.4500609" lon="12.5217595"><ele>1211.25</ele><time>2026-04-12T09:46:19.986Z</time></trkpt><trkpt lat="46.4501375" lon="12.5216432"><ele>1208.0</ele><time>2026-04-12T09:46:20.987Z</time></trkpt><trkpt lat="46.4501942" lon="12.5215132"><ele>1208.0</ele><time>2026-04-12T09:46:21.986Z</time></trkpt><trkpt lat="46.4502331" lon="12.5213743"><ele>1208.0</ele><time>2026-04-12T09:46:22.986Z</time></trkpt><trkpt lat="46.450263" lon="12.5212331"><ele>1208.0</ele><time>2026-04-12T09:46:23.986Z</time></trkpt><trkpt lat="46.4502847" lon="12.5211021"><ele>1208.0</ele><time>2026-04-12T09:46:24.986Z</time></trkpt><trkpt lat="46.4503022" lon="12.5209904"><ele>1208.0</ele><time>2026-04-12T09:46:25.986Z</time></trkpt><trkpt lat="46.4502907" lon="12.5208858"><ele>1208.3333333333335</ele><time>2026-04-12T09:46:26.986Z</time></trkpt><trkpt lat="46.4502444" lon="12.5208166"><ele>1208.6666666666667</ele><time>2026-04-12T09:46:27.986Z</time></trkpt><trkpt lat="46.4501764" lon="12.5207981"><ele>1209.0</ele><time>2026-04-12T09:46:28.986Z</time></trkpt><trkpt lat="46.4501128" lon="12.520835"><ele>1209.3333333333333</ele><time>2026-04-12T09:46:29.986Z</time></trkpt><trkpt lat="46.4500682" lon="12.5209132"><ele>1209.6666666666665</ele><time>2026-04-12T09:46:30.986Z</time></trkpt><trkpt lat="46.4500567" lon="12.5210517"><ele>1210.0</ele><time>2026-04-12T09:46:31.986Z</time></trkpt><trkpt lat="46.4500603" lon="12.5212043"><ele>1209.6</ele><time>2026-04-12T09:46:32.986Z</time></trkpt><trkpt lat="46.4500595" lon="12.5213585"><ele>1209.2</ele><time>2026-04-12T09:46:33.986Z</time></trkpt><trkpt lat="46.4500204" lon="12.5215086"><ele>1208.8</ele><time>2026-04-12T09:46:34.986Z</time></trkpt><trkpt lat="46.4499564" lon="12.5216472"><ele>1208.4</ele><time>2026-04-12T09:46:35.987Z</time></trkpt><trkpt lat="46.4498886" lon="12.5217747"><ele>1208.0</ele><time>2026-04-12T09:46:36.986Z</time></trkpt><trkpt lat="46.4498106" lon="12.5218853"><ele>1208.0</ele><time>2026-04-12T09:46:37.986Z</time></trkpt><trkpt lat="46.4497112" lon="12.5219549"><ele>1208.0</ele><time>2026-04-12T09:46:38.986Z</time></trkpt><trkpt lat="46.449611" lon="12.5220101"><ele>1208.0</ele><time>2026-04-12T09:46:39.986Z</time></trkpt><trkpt lat="46.449518" lon="12.5220715"><ele>1208.0</ele><time>2026-04-12T09:46:40.986Z</time></trkpt><trkpt lat="46.4494347" lon="12.5221578"><ele>1208.0</ele><time>2026-04-12T09:46:41.987Z</time></trkpt><trkpt lat="46.4493768" lon="12.5222766"><ele>1202.0</ele><time>2026-04-12T09:46:42.986Z</time></trkpt><trkpt lat="46.4493576" lon="12.5224246"><ele>1196.0</ele><time>2026-04-12T09:46:43.987Z</time></trkpt><trkpt lat="46.4493653" lon="12.5225803"><ele>1190.0</ele><time>2026-04-12T09:46:44.985Z</time></trkpt><trkpt lat="46.4493981" lon="12.522767"><ele>1184.0</ele><time>2026-04-12T09:46:45.985Z</time></trkpt><trkpt lat="46.4494248" lon="12.5229344"><ele>1183.25</ele><time>2026-04-12T09:46:46.985Z</time></trkpt><trkpt lat="46.4494561" lon="12.5231005"><ele>1182.5</ele><time>2026-04-12T09:46:47.986Z</time></trkpt><trkpt lat="46.4495138" lon="12.5232637"><ele>1181.75</ele><time>2026-04-12T09:46:48.985Z</time></trkpt><trkpt lat="46.449581" lon="12.5234238"><ele>1181.0</ele><time>2026-04-12T09:46:49.985Z</time></trkpt><trkpt lat="46.4496557" lon="12.5235701"><ele>1186.25</ele><time>2026-04-12T09:46:50.985Z</time></trkpt><trkpt lat="46.4497321" lon="12.523715"><ele>1191.5</ele><time>2026-04-12T09:46:51.986Z</time></trkpt><trkpt lat="46.4498051" lon="12.5238699"><ele>1196.75</ele><time>2026-04-12T09:46:52.986Z</time></trkpt><trkpt lat="46.4498698" lon="12.5240369"><ele>1202.0</ele><time>2026-04-12T09:46:53.985Z</time></trkpt><trkpt lat="46.4499212" lon="12.5242219"><ele>1202.0</ele><time>2026-04-12T09:46:54.985Z</time></trkpt><trkpt lat="46.4499497" lon="12.5244128"><ele>1202.0</ele><time>2026-04-12T09:46:55.985Z</time></trkpt><trkpt lat="46.4499759" lon="12.5246094"><ele>1202.0</ele><time>2026-04-12T09:46:56.986Z</time></trkpt><trkpt lat="46.4500111" lon="12.524806"><ele>1202.0</ele><time>2026-04-12T09:46:57.985Z</time></trkpt><trkpt lat="46.4500479" lon="12.5249917"><ele>1198.0</ele><time>2026-04-12T09:46:58.985Z</time></trkpt><trkpt lat="46.4500876" lon="12.525182"><ele>1194.0</ele><time>2026-04-12T09:46:59.986Z</time></trkpt><trkpt lat="46.4501216" lon="12.5253653"><ele>1190.0</ele><time>2026-04-12T09:47:00.985Z</time></trkpt><trkpt lat="46.4501573" lon="12.5255415"><ele>1186.0</ele><time>2026-04-12T09:47:01.985Z</time></trkpt><trkpt lat="46.4501941" lon="12.5257132"><ele>1183.5</ele><time>2026-04-12T09:47:02.985Z</time></trkpt><trkpt lat="46.4502391" lon="12.5258792"><ele>1181.0</ele><time>2026-04-12T09:47:03.985Z</time></trkpt><trkpt lat="46.4502982" lon="12.5260297"><ele>1178.5</ele><time>2026-04-12T09:47:04.985Z</time></trkpt><trkpt lat="46.4503597" lon="12.5261712"><ele>1176.0</ele><time>2026-04-12T09:47:05.985Z</time></trkpt><trkpt lat="46.4504209" lon="12.5262972"><ele>1174.8333333333333</ele><time>2026-04-12T09:47:06.985Z</time></trkpt><trkpt lat="46.4504658" lon="12.5264141"><ele>1173.6666666666667</ele><time>2026-04-12T09:47:07.986Z</time></trkpt><trkpt lat="46.4504801" lon="12.5265195"><ele>1172.5</ele><time>2026-04-12T09:47:08.985Z</time></trkpt><trkpt lat="46.4504151" lon="12.5266361"><ele>1171.3333333333335</ele><time>2026-04-12T09:47:10.985Z</time></trkpt><trkpt lat="46.4503552" lon="12.526595"><ele>1170.1666666666667</ele><time>2026-04-12T09:47:11.986Z</time></trkpt><trkpt lat="46.4503011" lon="12.5264763"><ele>1169.0</ele><time>2026-04-12T09:47:12.985Z</time></trkpt><trkpt lat="46.4502405" lon="12.5263257"><ele>1170.75</ele><time>2026-04-12T09:47:13.985Z</time></trkpt><trkpt lat="46.4501723" lon="12.5261583"><ele>1172.5</ele><time>2026-04-12T09:47:14.985Z</time></trkpt><trkpt lat="46.4500983" lon="12.5259729"><ele>1174.25</ele><time>2026-04-12T09:47:15.985Z</time></trkpt><trkpt lat="46.4500256" lon="12.5257859"><ele>1176.0</ele><time>2026-04-12T09:47:16.985Z</time></trkpt><trkpt lat="46.4499527" lon="12.5256048"><ele>1176.0</ele><time>2026-04-12T09:47:17.986Z</time></trkpt><trkpt lat="46.4498807" lon="12.5254299"><ele>1176.0</ele><time>2026-04-12T09:47:18.985Z</time></trkpt><trkpt lat="46.4498155" lon="12.5252548"><ele>1176.0</ele><time>2026-04-12T09:47:19.985Z</time></trkpt><trkpt lat="46.4497679" lon="12.5250772"><ele>1176.0</ele><time>2026-04-12T09:47:20.985Z</time></trkpt><trkpt lat="46.4497168" lon="12.5249011"><ele>1178.5</ele><time>2026-04-12T09:47:21.986Z</time></trkpt><trkpt lat="46.4496398" lon="12.524732"><ele>1181.0</ele><time>2026-04-12T09:47:22.985Z</time></trkpt><trkpt lat="46.4495553" lon="12.5245825"><ele>1183.5</ele><time>2026-04-12T09:47:23.985Z</time></trkpt><trkpt lat="46.4494684" lon="12.5244371"><ele>1186.0</ele><time>2026-04-12T09:47:24.985Z</time></trkpt><trkpt lat="46.4493829" lon="12.5242975"><ele>1180.25</ele><time>2026-04-12T09:47:25.985Z</time></trkpt><trkpt lat="46.4492946" lon="12.5241705"><ele>1174.5</ele><time>2026-04-12T09:47:26.985Z</time></trkpt><trkpt lat="46.4491982" lon="12.5240674"><ele>1168.75</ele><time>2026-04-12T09:47:27.986Z</time></trkpt><trkpt lat="46.449104" lon="12.5239604"><ele>1163.0</ele><time>2026-04-12T09:47:28.985Z</time></trkpt><trkpt lat="46.4490232" lon="12.5238085"><ele>1161.25</ele><time>2026-04-12T09:47:29.985Z</time></trkpt><trkpt lat="46.4489551" lon="12.5236466"><ele>1159.5</ele><time>2026-04-12T09:47:30.985Z</time></trkpt><trkpt lat="46.4488879" lon="12.5234778"><ele>1157.75</ele><time>2026-04-12T09:47:31.985Z</time></trkpt><trkpt lat="46.4488225" lon="12.5233069"><ele>1156.0</ele><time>2026-04-12T09:47:32.985Z</time></trkpt><trkpt lat="46.4487676" lon="12.5231363"><ele>1156.0</ele><time>2026-04-12T09:47:33.985Z</time></trkpt><trkpt lat="46.4487196" lon="12.5229676"><ele>1156.0</ele><time>2026-04-12T09:47:34.986Z</time></trkpt><trkpt lat="46.4486747" lon="12.5228146"><ele>1156.0</ele><time>2026-04-12T09:47:35.985Z</time></trkpt><trkpt lat="46.448636" lon="12.5226725"><ele>1156.0</ele><time>2026-04-12T09:47:36.985Z</time></trkpt><trkpt lat="46.4486198" lon="12.5225281"><ele>1156.0</ele><time>2026-04-12T09:47:37.985Z</time></trkpt><trkpt lat="46.4486334" lon="12.5223877"><ele>1156.2</ele><time>2026-04-12T09:47:38.986Z</time></trkpt><trkpt lat="46.4486718" lon="12.5222551"><ele>1156.3999999999999</ele><time>2026-04-12T09:47:39.985Z</time></trkpt><trkpt lat="46.4487128" lon="12.5221271"><ele>1156.6</ele><time>2026-04-12T09:47:40.985Z</time></trkpt><trkpt lat="46.448741" lon="12.5219964"><ele>1156.8</ele><time>2026-04-12T09:47:41.985Z</time></trkpt><trkpt lat="46.4487676" lon="12.5218718"><ele>1157.0</ele><time>2026-04-12T09:47:42.987Z</time></trkpt><trkpt lat="46.4487845" lon="12.5217601"><ele>1156.6666666666667</ele><time>2026-04-12T09:47:43.985Z</time></trkpt><trkpt lat="46.4487856" lon="12.5216519"><ele>1156.3333333333335</ele><time>2026-04-12T09:47:44.985Z</time></trkpt><trkpt lat="46.4487559" lon="12.5215544"><ele>1156.0</ele><time>2026-04-12T09:47:45.986Z</time></trkpt><trkpt lat="46.4487026" lon="12.5215049"><ele>1155.6666666666667</ele><time>2026-04-12T09:47:46.985Z</time></trkpt><trkpt lat="46.4485986" lon="12.5215657"><ele>1155.3333333333333</ele><time>2026-04-12T09:47:48.985Z</time></trkpt><trkpt lat="46.4485844" lon="12.5216631"><ele>1155.0</ele><time>2026-04-12T09:47:49.985Z</time></trkpt><trkpt lat="46.4486086" lon="12.5217823"><ele>1155.0</ele><time>2026-04-12T09:47:50.985Z</time></trkpt><trkpt lat="46.4486331" lon="12.5219153"><ele>1155.0</ele><time>2026-04-12T09:47:51.986Z</time></trkpt><trkpt lat="46.4486139" lon="12.5220616"><ele>1155.0</ele><time>2026-04-12T09:47:52.986Z</time></trkpt><trkpt lat="46.4485474" lon="12.5221968"><ele>1155.0</ele><time>2026-04-12T09:47:53.985Z</time></trkpt><trkpt lat="46.4484755" lon="12.5223392"><ele>1155.0</ele><time>2026-04-12T09:47:54.985Z</time></trkpt><trkpt lat="46.4484374" lon="12.5225232"><ele>1155.25</ele><time>2026-04-12T09:47:55.985Z</time></trkpt><trkpt lat="46.4484314" lon="12.5227141"><ele>1155.5</ele><time>2026-04-12T09:47:56.985Z</time></trkpt><trkpt lat="46.4484409" lon="12.5229093"><ele>1155.75</ele><time>2026-04-12T09:47:57.985Z</time></trkpt><trkpt lat="46.4484528" lon="12.5231054"><ele>1156.0</ele><time>2026-04-12T09:47:58.985Z</time></trkpt><trkpt lat="46.4484704" lon="12.5233029"><ele>1156.0</ele><time>2026-04-12T09:47:59.985Z</time></trkpt><trkpt lat="46.4484928" lon="12.5235014"><ele>1156.0</ele><time>2026-04-12T09:48:00.985Z</time></trkpt><trkpt lat="46.4485252" lon="12.5236999"><ele>1156.0</ele><time>2026-04-12T09:48:01.986Z</time></trkpt><trkpt lat="46.4485686" lon="12.5238924"><ele>1156.0</ele><time>2026-04-12T09:48:02.985Z</time></trkpt><trkpt lat="46.4486348" lon="12.5240854"><ele>1155.0</ele><time>2026-04-12T09:48:03.985Z</time></trkpt><trkpt lat="46.4487187" lon="12.5242745"><ele>1154.0</ele><time>2026-04-12T09:48:04.985Z</time></trkpt><trkpt lat="46.4488015" lon="12.5244554"><ele>1153.0</ele><time>2026-04-12T09:48:05.985Z</time></trkpt><trkpt lat="46.448891" lon="12.5246378"><ele>1151.0</ele><time>2026-04-12T09:48:06.986Z</time></trkpt><trkpt lat="46.4489732" lon="12.5248217"><ele>1149.0</ele><time>2026-04-12T09:48:07.985Z</time></trkpt><trkpt lat="46.4490322" lon="12.5250302"><ele>1147.0</ele><time>2026-04-12T09:48:08.985Z</time></trkpt><trkpt lat="46.4490706" lon="12.5252482"><ele>1144.3333333333333</ele><time>2026-04-12T09:48:09.985Z</time></trkpt><trkpt lat="46.449109" lon="12.5254609"><ele>1141.6666666666667</ele><time>2026-04-12T09:48:10.985Z</time></trkpt><trkpt lat="46.4491463" lon="12.5256755"><ele>1139.0</ele><time>2026-04-12T09:48:11.986Z</time></trkpt><trkpt lat="46.4491594" lon="12.525904"><ele>1139.0</ele><time>2026-04-12T09:48:12.985Z</time></trkpt><trkpt lat="46.4491466" lon="12.526134"><ele>1139.0</ele><time>2026-04-12T09:48:13.985Z</time></trkpt><trkpt lat="46.449122" lon="12.5263618"><ele>1139.0</ele><time>2026-04-12T09:48:14.985Z</time></trkpt><trkpt lat="46.4491084" lon="12.5265931"><ele>1139.0</ele><time>2026-04-12T09:48:15.985Z</time></trkpt><trkpt lat="46.4490958" lon="12.5268279"><ele>1139.0</ele><time>2026-04-12T09:48:16.985Z</time></trkpt><trkpt lat="46.4490817" lon="12.5270625"><ele>1139.0</ele><time>2026-04-12T09:48:17.986Z</time></trkpt><trkpt lat="46.4490775" lon="12.5272949"><ele>1136.6666666666667</ele><time>2026-04-12T09:48:18.986Z</time></trkpt><trkpt lat="46.4490837" lon="12.5275227"><ele>1134.3333333333333</ele><time>2026-04-12T09:48:19.985Z</time></trkpt><trkpt lat="46.4490854" lon="12.5277463"><ele>1132.0</ele><time>2026-04-12T09:48:20.986Z</time></trkpt><trkpt lat="46.4490729" lon="12.5279651"><ele>1130.25</ele><time>2026-04-12T09:48:21.985Z</time></trkpt><trkpt lat="46.4490446" lon="12.5281794"><ele>1128.5</ele><time>2026-04-12T09:48:22.985Z</time></trkpt><trkpt lat="46.4490114" lon="12.528387"><ele>1126.75</ele><time>2026-04-12T09:48:23.986Z</time></trkpt><trkpt lat="46.4489792" lon="12.528574"><ele>1125.0</ele><time>2026-04-12T09:48:24.986Z</time></trkpt><trkpt lat="46.4489545" lon="12.5287563"><ele>1124.0</ele><time>2026-04-12T09:48:25.985Z</time></trkpt><trkpt lat="46.4489605" lon="12.52895"><ele>1123.0</ele><time>2026-04-12T09:48:26.985Z</time></trkpt><trkpt lat="46.4490014" lon="12.5291266"><ele>1122.0</ele><time>2026-04-12T09:48:27.985Z</time></trkpt><trkpt lat="46.4490837" lon="12.5292583"><ele>1121.0</ele><time>2026-04-12T09:48:28.985Z</time></trkpt><trkpt lat="46.4491904" lon="12.529324"><ele>1121.0</ele><time>2026-04-12T09:48:29.985Z</time></trkpt><trkpt lat="46.4493217" lon="12.5293017"><ele>1121.0</ele><time>2026-04-12T09:48:30.985Z</time></trkpt><trkpt lat="46.449465" lon="12.5292559"><ele>1121.0</ele><time>2026-04-12T09:48:31.985Z</time></trkpt><trkpt lat="46.4496012" lon="12.5292029"><ele>1121.0</ele><time>2026-04-12T09:48:32.985Z</time></trkpt><trkpt lat="46.4497348" lon="12.5291565"><ele>1121.2</ele><time>2026-04-12T09:48:33.985Z</time></trkpt><trkpt lat="46.4498638" lon="12.5291102"><ele>1121.3999999999999</ele><time>2026-04-12T09:48:34.985Z</time></trkpt><trkpt lat="46.4499774" lon="12.5290655"><ele>1121.6</ele><time>2026-04-12T09:48:35.985Z</time></trkpt><trkpt lat="46.4500728" lon="12.5290458"><ele>1121.8</ele><time>2026-04-12T09:48:36.985Z</time></trkpt><trkpt lat="46.4501468" lon="12.5290998"><ele>1122.0</ele><time>2026-04-12T09:48:37.985Z</time></trkpt><trkpt lat="46.4501951" lon="12.5292102"><ele>1122.0</ele><time>2026-04-12T09:48:38.987Z</time></trkpt><trkpt lat="46.4502269" lon="12.5293248"><ele>1122.0</ele><time>2026-04-12T09:48:39.985Z</time></trkpt><trkpt lat="46.4502245" lon="12.5294425"><ele>1122.0</ele><time>2026-04-12T09:48:40.985Z</time></trkpt><trkpt lat="46.4501685" lon="12.5295593"><ele>1122.0</ele><time>2026-04-12T09:48:41.986Z</time></trkpt><trkpt lat="46.4500788" lon="12.529684"><ele>1122.0</ele><time>2026-04-12T09:48:42.985Z</time></trkpt><trkpt lat="46.4499692" lon="12.5297828"><ele>1121.25</ele><time>2026-04-12T09:48:43.985Z</time></trkpt><trkpt lat="46.4498433" lon="12.5298527"><ele>1120.5</ele><time>2026-04-12T09:48:44.985Z</time></trkpt><trkpt lat="46.4497144" lon="12.5299171"><ele>1119.75</ele><time>2026-04-12T09:48:45.985Z</time></trkpt><trkpt lat="46.4495946" lon="12.5300244"><ele>1119.0</ele><time>2026-04-12T09:48:46.985Z</time></trkpt><trkpt lat="46.4494851" lon="12.530166"><ele>1115.5</ele><time>2026-04-12T09:48:47.985Z</time></trkpt><trkpt lat="46.4493756" lon="12.5302869"><ele>1112.0</ele><time>2026-04-12T09:48:48.985Z</time></trkpt><trkpt lat="46.4492575" lon="12.5303818"><ele>1108.5</ele><time>2026-04-12T09:48:49.985Z</time></trkpt><trkpt lat="46.4491401" lon="12.5304845"><ele>1105.0</ele><time>2026-04-12T09:48:50.985Z</time></trkpt><trkpt lat="46.4490334" lon="12.5306215"><ele>1104.0</ele><time>2026-04-12T09:48:51.985Z</time></trkpt><trkpt lat="46.4489724" lon="12.5308147"><ele>1103.0</ele><time>2026-04-12T09:48:52.985Z</time></trkpt><trkpt lat="46.4488883" lon="12.5309984"><ele>1102.0</ele><time>2026-04-12T09:48:53.985Z</time></trkpt><trkpt lat="46.448757" lon="12.5311365"><ele>1100.5</ele><time>2026-04-12T09:48:54.985Z</time></trkpt><trkpt lat="46.4486456" lon="12.5312662"><ele>1099.0</ele><time>2026-04-12T09:48:55.985Z</time></trkpt><trkpt lat="46.4485206" lon="12.5313787"><ele>1097.5</ele><time>2026-04-12T09:48:56.985Z</time></trkpt><trkpt lat="46.4484202" lon="12.5315426"><ele>1096.0</ele><time>2026-04-12T09:48:57.985Z</time></trkpt><trkpt lat="46.4483567" lon="12.5317419"><ele>1096.0</ele><time>2026-04-12T09:48:58.985Z</time></trkpt><trkpt lat="46.4482623" lon="12.5319241"><ele>1096.0</ele><time>2026-04-12T09:48:59.985Z</time></trkpt><trkpt lat="46.4481311" lon="12.5320883"><ele>1096.0</ele><time>2026-04-12T09:49:00.985Z</time></trkpt><trkpt lat="46.4480029" lon="12.5322497"><ele>1092.3333333333333</ele><time>2026-04-12T09:49:01.985Z</time></trkpt><trkpt lat="46.447893" lon="12.5324422"><ele>1088.6666666666667</ele><time>2026-04-12T09:49:02.985Z</time></trkpt><trkpt lat="46.4477902" lon="12.5326328"><ele>1085.0</ele><time>2026-04-12T09:49:03.986Z</time></trkpt><trkpt lat="46.4476901" lon="12.5328213"><ele>1083.6666666666667</ele><time>2026-04-12T09:49:04.985Z</time></trkpt><trkpt lat="46.4475933" lon="12.5330053"><ele>1082.3333333333333</ele><time>2026-04-12T09:49:05.985Z</time></trkpt><trkpt lat="46.4474977" lon="12.5331813"><ele>1081.0</ele><time>2026-04-12T09:49:06.985Z</time></trkpt><trkpt lat="46.4474021" lon="12.5333546"><ele>1081.0</ele><time>2026-04-12T09:49:07.985Z</time></trkpt><trkpt lat="46.4473085" lon="12.5335338"><ele>1081.0</ele><time>2026-04-12T09:49:08.985Z</time></trkpt><trkpt lat="46.4472285" lon="12.5337221"><ele>1081.0</ele><time>2026-04-12T09:49:09.986Z</time></trkpt><trkpt lat="46.4471717" lon="12.5339314"><ele>1081.0</ele><time>2026-04-12T09:49:10.985Z</time></trkpt><trkpt lat="46.4471118" lon="12.5341427"><ele>1081.0</ele><time>2026-04-12T09:49:11.986Z</time></trkpt><trkpt lat="46.4470241" lon="12.5343391"><ele>1081.0</ele><time>2026-04-12T09:49:12.985Z</time></trkpt><trkpt lat="46.4469265" lon="12.5345135"><ele>1079.3333333333333</ele><time>2026-04-12T09:49:13.985Z</time></trkpt><trkpt lat="46.4468466" lon="12.5346992"><ele>1077.6666666666667</ele><time>2026-04-12T09:49:14.985Z</time></trkpt><trkpt lat="46.4467929" lon="12.5349021"><ele>1076.0</ele><time>2026-04-12T09:49:15.985Z</time></trkpt><trkpt lat="46.4467401" lon="12.5351134"><ele>1076.0</ele><time>2026-04-12T09:49:16.985Z</time></trkpt><trkpt lat="46.4466636" lon="12.5353129"><ele>1076.0</ele><time>2026-04-12T09:49:17.985Z</time></trkpt><trkpt lat="46.446584" lon="12.5354997"><ele>1076.0</ele><time>2026-04-12T09:49:18.985Z</time></trkpt><trkpt lat="46.4465158" lon="12.5356939"><ele>1076.25</ele><time>2026-04-12T09:49:19.985Z</time></trkpt><trkpt lat="46.4464384" lon="12.5358751"><ele>1076.5</ele><time>2026-04-12T09:49:20.985Z</time></trkpt><trkpt lat="46.4463431" lon="12.5360149"><ele>1076.75</ele><time>2026-04-12T09:49:21.985Z</time></trkpt><trkpt lat="46.4462426" lon="12.5361265"><ele>1077.0</ele><time>2026-04-12T09:49:22.985Z</time></trkpt><trkpt lat="46.4461669" lon="12.5362749"><ele>1073.5</ele><time>2026-04-12T09:49:23.986Z</time></trkpt><trkpt lat="46.4461155" lon="12.5364587"><ele>1070.0</ele><time>2026-04-12T09:49:24.985Z</time></trkpt><trkpt lat="46.4460428" lon="12.5366183"><ele>1066.5</ele><time>2026-04-12T09:49:25.985Z</time></trkpt><trkpt lat="46.445929" lon="12.5367557"><ele>1063.0</ele><time>2026-04-12T09:49:26.985Z</time></trkpt><trkpt lat="46.4457883" lon="12.5368781"><ele>1063.0</ele><time>2026-04-12T09:49:27.985Z</time></trkpt><trkpt lat="46.4456453" lon="12.5369898"><ele>1063.0</ele><time>2026-04-12T09:49:28.985Z</time></trkpt><trkpt lat="46.4454976" lon="12.5371043"><ele>1063.0</ele><time>2026-04-12T09:49:29.985Z</time></trkpt><trkpt lat="46.4453484" lon="12.5372155"><ele>1059.6666666666665</ele><time>2026-04-12T09:49:30.985Z</time></trkpt><trkpt lat="46.4451979" lon="12.5373304"><ele>1056.3333333333333</ele><time>2026-04-12T09:49:31.985Z</time></trkpt><trkpt lat="46.4450535" lon="12.5374348"><ele>1053.0</ele><time>2026-04-12T09:49:32.985Z</time></trkpt><trkpt lat="46.4449176" lon="12.5375521"><ele>1053.0</ele><time>2026-04-12T09:49:33.985Z</time></trkpt><trkpt lat="46.4447971" lon="12.5376795"><ele>1053.0</ele><time>2026-04-12T09:49:34.986Z</time></trkpt><trkpt lat="46.4446885" lon="12.5378081"><ele>1053.0</ele><time>2026-04-12T09:49:35.985Z</time></trkpt><trkpt lat="46.4445815" lon="12.5379229"><ele>1053.0</ele><time>2026-04-12T09:49:36.985Z</time></trkpt><trkpt lat="46.4444786" lon="12.5380331"><ele>1052.0</ele><time>2026-04-12T09:49:37.986Z</time></trkpt><trkpt lat="46.4443902" lon="12.5381521"><ele>1051.0</ele><time>2026-04-12T09:49:38.985Z</time></trkpt><trkpt lat="46.4443286" lon="12.5383177"><ele>1050.0</ele><time>2026-04-12T09:49:39.985Z</time></trkpt><trkpt lat="46.4443067" lon="12.5385279"><ele>1049.0</ele><time>2026-04-12T09:49:40.986Z</time></trkpt><trkpt lat="46.4442992" lon="12.5387511"><ele>1049.0</ele><time>2026-04-12T09:49:41.985Z</time></trkpt><trkpt lat="46.4442934" lon="12.538958"><ele>1049.0</ele><time>2026-04-12T09:49:42.986Z</time></trkpt><trkpt lat="46.4442875" lon="12.5391677"><ele>1049.0</ele><time>2026-04-12T09:49:43.985Z</time></trkpt><trkpt lat="46.4442607" lon="12.5393855"><ele>1049.0</ele><time>2026-04-12T09:49:44.986Z</time></trkpt><trkpt lat="46.4442044" lon="12.5395937"><ele>1049.3333333333335</ele><time>2026-04-12T09:49:45.985Z</time></trkpt><trkpt lat="46.4441188" lon="12.5397898"><ele>1049.6666666666667</ele><time>2026-04-12T09:49:46.985Z</time></trkpt><trkpt lat="46.4440121" lon="12.5399713"><ele>1050.0</ele><time>2026-04-12T09:49:47.985Z</time></trkpt><trkpt lat="46.4438991" lon="12.5401442"><ele>1046.6666666666667</ele><time>2026-04-12T09:49:48.985Z</time></trkpt><trkpt lat="46.4437805" lon="12.5403124"><ele>1043.3333333333335</ele><time>2026-04-12T09:49:49.986Z</time></trkpt><trkpt lat="46.4436605" lon="12.5404763"><ele>1040.0</ele><time>2026-04-12T09:49:50.985Z</time></trkpt><trkpt lat="46.4435403" lon="12.5406474"><ele>1040.0</ele><time>2026-04-12T09:49:51.986Z</time></trkpt><trkpt lat="46.4434435" lon="12.5408528"><ele>1040.0</ele><time>2026-04-12T09:49:52.985Z</time></trkpt><trkpt lat="46.4433595" lon="12.5410804"><ele>1040.0</ele><time>2026-04-12T09:49:53.985Z</time></trkpt><trkpt lat="46.443259" lon="12.5412864"><ele>1039.6666666666667</ele><time>2026-04-12T09:49:54.985Z</time></trkpt><trkpt lat="46.4431183" lon="12.5414482"><ele>1039.3333333333333</ele><time>2026-04-12T09:49:55.985Z</time></trkpt><trkpt lat="46.4429531" lon="12.5415662"><ele>1039.0</ele><time>2026-04-12T09:49:56.985Z</time></trkpt><trkpt lat="46.4427725" lon="12.5416614"><ele>1039.0</ele><time>2026-04-12T09:49:57.985Z</time></trkpt><trkpt lat="46.4425926" lon="12.5417381"><ele>1039.0</ele><time>2026-04-12T09:49:58.985Z</time></trkpt><trkpt lat="46.4424201" lon="12.5418164"><ele>1039.0</ele><time>2026-04-12T09:49:59.985Z</time></trkpt><trkpt lat="46.4422486" lon="12.5418956"><ele>1037.6666666666665</ele><time>2026-04-12T09:50:00.985Z</time></trkpt><trkpt lat="46.4420775" lon="12.5419729"><ele>1036.3333333333333</ele><time>2026-04-12T09:50:01.985Z</time></trkpt><trkpt lat="46.4419105" lon="12.5420644"><ele>1035.0</ele><time>2026-04-12T09:50:02.985Z</time></trkpt><trkpt lat="46.4417463" lon="12.5421731"><ele>1035.0</ele><time>2026-04-12T09:50:03.986Z</time></trkpt><trkpt lat="46.4415897" lon="12.5422784"><ele>1035.0</ele><time>2026-04-12T09:50:04.985Z</time></trkpt><trkpt lat="46.4414432" lon="12.5423997"><ele>1035.0</ele><time>2026-04-12T09:50:05.986Z</time></trkpt><trkpt lat="46.4413069" lon="12.5425428"><ele>1035.0</ele><time>2026-04-12T09:50:06.985Z</time></trkpt><trkpt lat="46.4411727" lon="12.5426855"><ele>1035.0</ele><time>2026-04-12T09:50:07.985Z</time></trkpt><trkpt lat="46.441031" lon="12.5428168"><ele>1035.0</ele><time>2026-04-12T09:50:08.985Z</time></trkpt><trkpt lat="46.4408869" lon="12.5429221"><ele>1035.0</ele><time>2026-04-12T09:50:09.985Z</time></trkpt><trkpt lat="46.4407464" lon="12.5430005"><ele>1035.0</ele><time>2026-04-12T09:50:10.985Z</time></trkpt><trkpt lat="46.4406091" lon="12.5430686"><ele>1035.0</ele><time>2026-04-12T09:50:11.985Z</time></trkpt><trkpt lat="46.4404726" lon="12.5431472"><ele>1035.0</ele><time>2026-04-12T09:50:12.985Z</time></trkpt><trkpt lat="46.4403514" lon="12.5432717"><ele>1034.25</ele><time>2026-04-12T09:50:13.985Z</time></trkpt><trkpt lat="46.4402551" lon="12.5434461"><ele>1033.5</ele><time>2026-04-12T09:50:14.985Z</time></trkpt><trkpt lat="46.4401552" lon="12.5435965"><ele>1032.75</ele><time>2026-04-12T09:50:15.985Z</time></trkpt><trkpt lat="46.4400285" lon="12.5437061"><ele>1032.0</ele><time>2026-04-12T09:50:16.985Z</time></trkpt><trkpt lat="46.4398884" lon="12.5437969"><ele>1032.0</ele><time>2026-04-12T09:50:17.985Z</time></trkpt><trkpt lat="46.4397556" lon="12.543885"><ele>1032.0</ele><time>2026-04-12T09:50:18.985Z</time></trkpt><trkpt lat="46.4396295" lon="12.5439765"><ele>1032.0</ele><time>2026-04-12T09:50:19.985Z</time></trkpt><trkpt lat="46.4395178" lon="12.5440867"><ele>1032.0</ele><time>2026-04-12T09:50:20.985Z</time></trkpt><trkpt lat="46.4394216" lon="12.5442172"><ele>1026.25</ele><time>2026-04-12T09:50:21.985Z</time></trkpt><trkpt lat="46.4393115" lon="12.5443295"><ele>1020.5</ele><time>2026-04-12T09:50:22.985Z</time></trkpt><trkpt lat="46.4391851" lon="12.544404"><ele>1014.75</ele><time>2026-04-12T09:50:23.985Z</time></trkpt><trkpt lat="46.4390586" lon="12.5444498"><ele>1009.0</ele><time>2026-04-12T09:50:24.986Z</time></trkpt><trkpt lat="46.4389354" lon="12.5445131"><ele>1012.75</ele><time>2026-04-12T09:50:25.985Z</time></trkpt><trkpt lat="46.43881" lon="12.5446001"><ele>1016.5</ele><time>2026-04-12T09:50:26.985Z</time></trkpt><trkpt lat="46.4386892" lon="12.5446847"><ele>1020.25</ele><time>2026-04-12T09:50:27.985Z</time></trkpt><trkpt lat="46.4385555" lon="12.5447313"><ele>1024.0</ele><time>2026-04-12T09:50:28.985Z</time></trkpt><trkpt lat="46.4384136" lon="12.5447449"><ele>1024.0</ele><time>2026-04-12T09:50:29.986Z</time></trkpt><trkpt lat="46.4382696" lon="12.5447367"><ele>1024.0</ele><time>2026-04-12T09:50:30.985Z</time></trkpt><trkpt lat="46.4381018" lon="12.5447467"><ele>1024.0</ele><time>2026-04-12T09:50:31.985Z</time></trkpt><trkpt lat="46.4379015" lon="12.5448116"><ele>1018.0</ele><time>2026-04-12T09:50:32.985Z</time></trkpt><trkpt lat="46.4377086" lon="12.544877"><ele>1012.0</ele><time>2026-04-12T09:50:33.985Z</time></trkpt><trkpt lat="46.437512" lon="12.5449431"><ele>1006.0</ele><time>2026-04-12T09:50:34.985Z</time></trkpt><trkpt lat="46.4373241" lon="12.5450119"><ele>1006.0</ele><time>2026-04-12T09:50:35.986Z</time></trkpt><trkpt lat="46.4371394" lon="12.5450514"><ele>1006.0</ele><time>2026-04-12T09:50:36.985Z</time></trkpt><trkpt lat="46.436962" lon="12.5450548"><ele>1006.0</ele><time>2026-04-12T09:50:37.985Z</time></trkpt><trkpt lat="46.4367927" lon="12.5450636"><ele>1002.3333333333333</ele><time>2026-04-12T09:50:38.985Z</time></trkpt><trkpt lat="46.4366214" lon="12.5451006"><ele>998.6666666666667</ele><time>2026-04-12T09:50:39.985Z</time></trkpt><trkpt lat="46.4364611" lon="12.5451802"><ele>995.0</ele><time>2026-04-12T09:50:40.985Z</time></trkpt><trkpt lat="46.4363145" lon="12.5453022"><ele>994.0</ele><time>2026-04-12T09:50:41.985Z</time></trkpt><trkpt lat="46.4361874" lon="12.5454672"><ele>993.0</ele><time>2026-04-12T09:50:42.985Z</time></trkpt><trkpt lat="46.4360734" lon="12.545643"><ele>992.0</ele><time>2026-04-12T09:50:43.985Z</time></trkpt><trkpt lat="46.4359559" lon="12.5458103"><ele>992.0</ele><time>2026-04-12T09:50:44.987Z</time></trkpt><trkpt lat="46.4358241" lon="12.5459545"><ele>992.0</ele><time>2026-04-12T09:50:45.985Z</time></trkpt><trkpt lat="46.4356832" lon="12.5460579"><ele>992.0</ele><time>2026-04-12T09:50:46.985Z</time></trkpt><trkpt lat="46.435536" lon="12.5461164"><ele>988.6666666666667</ele><time>2026-04-12T09:50:47.985Z</time></trkpt><trkpt lat="46.4353874" lon="12.5461627"><ele>985.3333333333333</ele><time>2026-04-12T09:50:48.986Z</time></trkpt><trkpt lat="46.4352358" lon="12.5462314"><ele>982.0</ele><time>2026-04-12T09:50:49.985Z</time></trkpt><trkpt lat="46.4350977" lon="12.5463195"><ele>982.0</ele><time>2026-04-12T09:50:50.986Z</time></trkpt><trkpt lat="46.4349704" lon="12.5464383"><ele>982.0</ele><time>2026-04-12T09:50:51.986Z</time></trkpt><trkpt lat="46.4348622" lon="12.5465912"><ele>982.0</ele><time>2026-04-12T09:50:52.986Z</time></trkpt><trkpt lat="46.4347554" lon="12.5467606"><ele>982.0</ele><time>2026-04-12T09:50:53.985Z</time></trkpt><trkpt lat="46.4346531" lon="12.5469316"><ele>982.0</ele><time>2026-04-12T09:50:54.986Z</time></trkpt><trkpt lat="46.4345552" lon="12.5471083"><ele>982.0</ele><time>2026-04-12T09:50:55.985Z</time></trkpt><trkpt lat="46.4344552" lon="12.5472918"><ele>979.3333333333333</ele><time>2026-04-12T09:50:56.985Z</time></trkpt><trkpt lat="46.4343608" lon="12.5474815"><ele>976.6666666666667</ele><time>2026-04-12T09:50:57.985Z</time></trkpt><trkpt lat="46.4342774" lon="12.5476775"><ele>974.0</ele><time>2026-04-12T09:50:58.986Z</time></trkpt><trkpt lat="46.4341982" lon="12.5478766"><ele>976.6666666666667</ele><time>2026-04-12T09:50:59.985Z</time></trkpt><trkpt lat="46.434133" lon="12.5480873"><ele>979.3333333333333</ele><time>2026-04-12T09:51:00.986Z</time></trkpt><trkpt lat="46.4340763" lon="12.548313"><ele>982.0</ele><time>2026-04-12T09:51:01.986Z</time></trkpt><trkpt lat="46.4340198" lon="12.5485322"><ele>984.6666666666666</ele><time>2026-04-12T09:51:02.985Z</time></trkpt><trkpt lat="46.4339615" lon="12.5487468"><ele>987.3333333333333</ele><time>2026-04-12T09:51:03.985Z</time></trkpt><trkpt lat="46.4338948" lon="12.548955"><ele>990.0</ele><time>2026-04-12T09:51:04.985Z</time></trkpt><trkpt lat="46.4338096" lon="12.5491482"><ele>984.0</ele><time>2026-04-12T09:51:05.985Z</time></trkpt><trkpt lat="46.433705" lon="12.5493214"><ele>978.0</ele><time>2026-04-12T09:51:06.986Z</time></trkpt><trkpt lat="46.4335947" lon="12.549487"><ele>972.0</ele><time>2026-04-12T09:51:07.985Z</time></trkpt><trkpt lat="46.4334776" lon="12.5496425"><ele>972.0</ele><time>2026-04-12T09:51:08.985Z</time></trkpt><trkpt lat="46.4333641" lon="12.5497962"><ele>972.0</ele><time>2026-04-12T09:51:09.985Z</time></trkpt><trkpt lat="46.4332537" lon="12.5499447"><ele>972.0</ele><time>2026-04-12T09:51:10.985Z</time></trkpt><trkpt lat="46.4331385" lon="12.5500771"><ele>972.0</ele><time>2026-04-12T09:51:11.985Z</time></trkpt><trkpt lat="46.4330163" lon="12.550198"><ele>972.0</ele><time>2026-04-12T09:51:12.986Z</time></trkpt><trkpt lat="46.4328851" lon="12.5503004"><ele>972.0</ele><time>2026-04-12T09:51:13.985Z</time></trkpt><trkpt lat="46.4327527" lon="12.5503786"><ele>972.0</ele><time>2026-04-12T09:51:14.985Z</time></trkpt><trkpt lat="46.4326247" lon="12.5504452"><ele>970.75</ele><time>2026-04-12T09:51:15.985Z</time></trkpt><trkpt lat="46.4325046" lon="12.5505138"><ele>969.5</ele><time>2026-04-12T09:51:16.985Z</time></trkpt><trkpt lat="46.4323824" lon="12.5505926"><ele>968.25</ele><time>2026-04-12T09:51:17.985Z</time></trkpt><trkpt lat="46.4322727" lon="12.5506809"><ele>967.0</ele><time>2026-04-12T09:51:18.986Z</time></trkpt><trkpt lat="46.4321794" lon="12.5507981"><ele>965.25</ele><time>2026-04-12T09:51:19.985Z</time></trkpt><trkpt lat="46.4320913" lon="12.5509313"><ele>963.5</ele><time>2026-04-12T09:51:20.985Z</time></trkpt><trkpt lat="46.4320144" lon="12.5510786"><ele>961.75</ele><time>2026-04-12T09:51:21.985Z</time></trkpt><trkpt lat="46.4319518" lon="12.5512432"><ele>960.0</ele><time>2026-04-12T09:51:22.985Z</time></trkpt><trkpt lat="46.4319049" lon="12.5514239"><ele>960.0</ele><time>2026-04-12T09:51:23.985Z</time></trkpt><trkpt lat="46.4318799" lon="12.5516194"><ele>960.0</ele><time>2026-04-12T09:51:24.985Z</time></trkpt><trkpt lat="46.431871" lon="12.5518262"><ele>960.0</ele><time>2026-04-12T09:51:25.985Z</time></trkpt><trkpt lat="46.4318718" lon="12.5520351"><ele>960.0</ele><time>2026-04-12T09:51:26.985Z</time></trkpt><trkpt lat="46.4318759" lon="12.5522402"><ele>961.0</ele><time>2026-04-12T09:51:27.985Z</time></trkpt><trkpt lat="46.4318825" lon="12.5524422"><ele>962.0</ele><time>2026-04-12T09:51:28.985Z</time></trkpt><trkpt lat="46.4318781" lon="12.552645"><ele>963.0</ele><time>2026-04-12T09:51:29.986Z</time></trkpt><trkpt lat="46.431832" lon="12.5528527"><ele>964.0</ele><time>2026-04-12T09:51:30.985Z</time></trkpt><trkpt lat="46.4317457" lon="12.5530206"><ele>966.25</ele><time>2026-04-12T09:51:31.985Z</time></trkpt><trkpt lat="46.4316316" lon="12.553141"><ele>968.5</ele><time>2026-04-12T09:51:32.985Z</time></trkpt><trkpt lat="46.4315304" lon="12.5532695"><ele>970.75</ele><time>2026-04-12T09:51:33.985Z</time></trkpt><trkpt lat="46.4314469" lon="12.5534384"><ele>973.0</ele><time>2026-04-12T09:51:34.986Z</time></trkpt><trkpt lat="46.4313812" lon="12.5536069"><ele>975.75</ele><time>2026-04-12T09:51:35.985Z</time></trkpt><trkpt lat="46.4313628" lon="12.5537772"><ele>978.5</ele><time>2026-04-12T09:51:36.986Z</time></trkpt><trkpt lat="46.4313845" lon="12.5539721"><ele>981.25</ele><time>2026-04-12T09:51:37.985Z</time></trkpt><trkpt lat="46.4314228" lon="12.5542147"><ele>984.0</ele><time>2026-04-12T09:51:38.985Z</time></trkpt><trkpt lat="46.4314372" lon="12.5544805"><ele>982.6666666666667</ele><time>2026-04-12T09:51:39.985Z</time></trkpt><trkpt lat="46.4314474" lon="12.5547307"><ele>981.3333333333334</ele><time>2026-04-12T09:51:40.985Z</time></trkpt><trkpt lat="46.4314645" lon="12.5549642"><ele>980.0</ele><time>2026-04-12T09:51:41.985Z</time></trkpt><trkpt lat="46.4315101" lon="12.5551759"><ele>980.0</ele><time>2026-04-12T09:51:42.985Z</time></trkpt><trkpt lat="46.4315975" lon="12.5553626"><ele>980.0</ele><time>2026-04-12T09:51:43.986Z</time></trkpt><trkpt lat="46.4316796" lon="12.5555395"><ele>980.0</ele><time>2026-04-12T09:51:44.985Z</time></trkpt><trkpt lat="46.4317237" lon="12.5557474"><ele>976.0</ele><time>2026-04-12T09:51:45.986Z</time></trkpt><trkpt lat="46.4317374" lon="12.5559609"><ele>972.0</ele><time>2026-04-12T09:51:46.985Z</time></trkpt><trkpt lat="46.4317705" lon="12.556174"><ele>968.0</ele><time>2026-04-12T09:51:47.986Z</time></trkpt><trkpt lat="46.4318339" lon="12.5563736"><ele>968.0</ele><time>2026-04-12T09:51:48.985Z</time></trkpt><trkpt lat="46.4319005" lon="12.5565548"><ele>968.0</ele><time>2026-04-12T09:51:49.986Z</time></trkpt><trkpt lat="46.4319327" lon="12.5567471"><ele>968.0</ele><time>2026-04-12T09:51:50.985Z</time></trkpt><trkpt lat="46.4319255" lon="12.5569411"><ele>968.0</ele><time>2026-04-12T09:51:51.985Z</time></trkpt><trkpt lat="46.4318698" lon="12.5571087"><ele>968.0</ele><time>2026-04-12T09:51:52.985Z</time></trkpt><trkpt lat="46.4317748" lon="12.5572523"><ele>968.0</ele><time>2026-04-12T09:51:53.985Z</time></trkpt><trkpt lat="46.4316633" lon="12.5573847"><ele>968.0</ele><time>2026-04-12T09:51:54.985Z</time></trkpt><trkpt lat="46.4315564" lon="12.5575048"><ele>968.0</ele><time>2026-04-12T09:51:55.985Z</time></trkpt><trkpt lat="46.43145" lon="12.5576231"><ele>968.0</ele><time>2026-04-12T09:51:56.985Z</time></trkpt><trkpt lat="46.4313433" lon="12.5577193"><ele>968.0</ele><time>2026-04-12T09:51:57.985Z</time></trkpt><trkpt lat="46.4312253" lon="12.5577807"><ele>968.0</ele><time>2026-04-12T09:51:58.985Z</time></trkpt><trkpt lat="46.4310915" lon="12.5578219"><ele>968.0</ele><time>2026-04-12T09:51:59.985Z</time></trkpt><trkpt lat="46.4309556" lon="12.5578327"><ele>969.5</ele><time>2026-04-12T09:52:00.985Z</time></trkpt><trkpt lat="46.430824" lon="12.5578324"><ele>971.0</ele><time>2026-04-12T09:52:01.985Z</time></trkpt><trkpt lat="46.4307018" lon="12.5578515"><ele>972.5</ele><time>2026-04-12T09:52:02.985Z</time></trkpt><trkpt lat="46.4305888" lon="12.5578926"><ele>974.0</ele><time>2026-04-12T09:52:03.985Z</time></trkpt><trkpt lat="46.4304887" lon="12.5579725"><ele>968.5</ele><time>2026-04-12T09:52:04.986Z</time></trkpt><trkpt lat="46.4304002" lon="12.5580879"><ele>963.0</ele><time>2026-04-12T09:52:05.985Z</time></trkpt><trkpt lat="46.4303348" lon="12.5582514"><ele>957.5</ele><time>2026-04-12T09:52:06.985Z</time></trkpt><trkpt lat="46.4302752" lon="12.5584314"><ele>952.0</ele><time>2026-04-12T09:52:07.985Z</time></trkpt><trkpt lat="46.4302179" lon="12.5586152"><ele>955.25</ele><time>2026-04-12T09:52:08.985Z</time></trkpt><trkpt lat="46.4301564" lon="12.5587979"><ele>958.5</ele><time>2026-04-12T09:52:09.985Z</time></trkpt><trkpt lat="46.4300925" lon="12.558978"><ele>961.75</ele><time>2026-04-12T09:52:10.985Z</time></trkpt><trkpt lat="46.4300277" lon="12.5591559"><ele>965.0</ele><time>2026-04-12T09:52:11.985Z</time></trkpt><trkpt lat="46.4299633" lon="12.5593282"><ele>965.0</ele><time>2026-04-12T09:52:12.985Z</time></trkpt><trkpt lat="46.429898" lon="12.5594967"><ele>965.0</ele><time>2026-04-12T09:52:13.985Z</time></trkpt><trkpt lat="46.4298322" lon="12.5596603"><ele>965.0</ele><time>2026-04-12T09:52:14.985Z</time></trkpt><trkpt lat="46.4297728" lon="12.559824"><ele>965.0</ele><time>2026-04-12T09:52:15.986Z</time></trkpt><trkpt lat="46.429708" lon="12.5599922"><ele>962.5</ele><time>2026-04-12T09:52:16.985Z</time></trkpt><trkpt lat="46.4296415" lon="12.5601595"><ele>960.0</ele><time>2026-04-12T09:52:17.985Z</time></trkpt><trkpt lat="46.4295739" lon="12.5603286"><ele>957.5</ele><time>2026-04-12T09:52:18.985Z</time></trkpt><trkpt lat="46.4295027" lon="12.5604998"><ele>955.0</ele><time>2026-04-12T09:52:19.986Z</time></trkpt><trkpt lat="46.4294219" lon="12.5606655"><ele>955.0</ele><time>2026-04-12T09:52:20.985Z</time></trkpt><trkpt lat="46.4293263" lon="12.560819"><ele>955.0</ele><time>2026-04-12T09:52:21.985Z</time></trkpt><trkpt lat="46.4292202" lon="12.5609577"><ele>955.0</ele><time>2026-04-12T09:52:22.985Z</time></trkpt><trkpt lat="46.4291065" lon="12.5610948"><ele>955.0</ele><time>2026-04-12T09:52:23.985Z</time></trkpt><trkpt lat="46.4289865" lon="12.5612335"><ele>951.6666666666666</ele><time>2026-04-12T09:52:24.985Z</time></trkpt><trkpt lat="46.4288595" lon="12.5613681"><ele>948.3333333333333</ele><time>2026-04-12T09:52:25.985Z</time></trkpt><trkpt lat="46.4287312" lon="12.5615132"><ele>945.0</ele><time>2026-04-12T09:52:26.985Z</time></trkpt><trkpt lat="46.4286101" lon="12.5616952"><ele>945.0</ele><time>2026-04-12T09:52:27.985Z</time></trkpt><trkpt lat="46.4285197" lon="12.5619646"><ele>945.0</ele><time>2026-04-12T09:52:28.985Z</time></trkpt><trkpt lat="46.4284515" lon="12.5622314"><ele>945.0</ele><time>2026-04-12T09:52:29.985Z</time></trkpt><trkpt lat="46.4283793" lon="12.5624859"><ele>946.0</ele><time>2026-04-12T09:52:30.985Z</time></trkpt><trkpt lat="46.4282949" lon="12.5627209"><ele>947.0</ele><time>2026-04-12T09:52:31.985Z</time></trkpt><trkpt lat="46.4282066" lon="12.5629359"><ele>948.0</ele><time>2026-04-12T09:52:32.985Z</time></trkpt><trkpt lat="46.4281108" lon="12.5631382"><ele>949.6666666666667</ele><time>2026-04-12T09:52:33.986Z</time></trkpt><trkpt lat="46.4280166" lon="12.5633339"><ele>951.3333333333334</ele><time>2026-04-12T09:52:34.985Z</time></trkpt><trkpt lat="46.427926" lon="12.5635215"><ele>953.0</ele><time>2026-04-12T09:52:35.985Z</time></trkpt><trkpt lat="46.4278368" lon="12.5637034"><ele>949.5</ele><time>2026-04-12T09:52:36.985Z</time></trkpt><trkpt lat="46.4277471" lon="12.5638789"><ele>946.0</ele><time>2026-04-12T09:52:37.985Z</time></trkpt><trkpt lat="46.4276613" lon="12.5640579"><ele>942.5</ele><time>2026-04-12T09:52:38.985Z</time></trkpt><trkpt lat="46.4275773" lon="12.5642315"><ele>939.0</ele><time>2026-04-12T09:52:39.985Z</time></trkpt><trkpt lat="46.4274924" lon="12.564392"><ele>941.75</ele><time>2026-04-12T09:52:40.985Z</time></trkpt><trkpt lat="46.4273964" lon="12.5645323"><ele>944.5</ele><time>2026-04-12T09:52:41.985Z</time></trkpt><trkpt lat="46.4272922" lon="12.5646457"><ele>947.25</ele><time>2026-04-12T09:52:42.985Z</time></trkpt><trkpt lat="46.4271885" lon="12.5647597"><ele>950.0</ele><time>2026-04-12T09:52:43.985Z</time></trkpt><trkpt lat="46.4270954" lon="12.5648989"><ele>945.0</ele><time>2026-04-12T09:52:44.985Z</time></trkpt><trkpt lat="46.4270298" lon="12.5650729"><ele>940.0</ele><time>2026-04-12T09:52:45.985Z</time></trkpt><trkpt lat="46.4269715" lon="12.5652609"><ele>935.0</ele><time>2026-04-12T09:52:46.985Z</time></trkpt><trkpt lat="46.4268843" lon="12.5654129"><ele>930.0</ele><time>2026-04-12T09:52:47.984Z</time></trkpt><trkpt lat="46.4267828" lon="12.5655354"><ele>930.0</ele><time>2026-04-12T09:52:48.984Z</time></trkpt><trkpt lat="46.4266816" lon="12.5656562"><ele>930.0</ele><time>2026-04-12T09:52:49.985Z</time></trkpt><trkpt lat="46.426595" lon="12.5657929"><ele>930.0</ele><time>2026-04-12T09:52:50.984Z</time></trkpt><trkpt lat="46.4265216" lon="12.5659487"><ele>930.0</ele><time>2026-04-12T09:52:51.984Z</time></trkpt><trkpt lat="46.4264667" lon="12.5661163"><ele>931.75</ele><time>2026-04-12T09:52:52.984Z</time></trkpt><trkpt lat="46.4264285" lon="12.5662847"><ele>933.5</ele><time>2026-04-12T09:52:53.985Z</time></trkpt><trkpt lat="46.4263966" lon="12.5664563"><ele>935.25</ele><time>2026-04-12T09:52:54.984Z</time></trkpt><trkpt lat="46.4263658" lon="12.566623"><ele>937.0</ele><time>2026-04-12T09:52:55.984Z</time></trkpt><trkpt lat="46.4263367" lon="12.5667803"><ele>933.6</ele><time>2026-04-12T09:52:56.984Z</time></trkpt><trkpt lat="46.4263082" lon="12.5669335"><ele>930.2</ele><time>2026-04-12T09:52:57.984Z</time></trkpt><trkpt lat="46.4262801" lon="12.5670874"><ele>926.8</ele><time>2026-04-12T09:52:58.985Z</time></trkpt><trkpt lat="46.4262528" lon="12.5672379"><ele>923.4</ele><time>2026-04-12T09:52:59.984Z</time></trkpt><trkpt lat="46.4262251" lon="12.5673865"><ele>920.0</ele><time>2026-04-12T09:53:00.984Z</time></trkpt><trkpt lat="46.4261974" lon="12.5675346"><ele>919.8</ele><time>2026-04-12T09:53:01.984Z</time></trkpt><trkpt lat="46.4261702" lon="12.5676874"><ele>919.6</ele><time>2026-04-12T09:53:02.985Z</time></trkpt><trkpt lat="46.4261446" lon="12.5678401"><ele>919.4000000000001</ele><time>2026-04-12T09:53:03.984Z</time></trkpt><trkpt lat="46.4261117" lon="12.5679893"><ele>919.2</ele><time>2026-04-12T09:53:04.984Z</time></trkpt><trkpt lat="46.4260791" lon="12.5681383"><ele>919.0</ele><time>2026-04-12T09:53:05.984Z</time></trkpt><trkpt lat="46.4260426" lon="12.5682878"><ele>919.0</ele><time>2026-04-12T09:53:06.984Z</time></trkpt><trkpt lat="46.4259949" lon="12.5684299"><ele>919.0000000000001</ele><time>2026-04-12T09:53:07.985Z</time></trkpt><trkpt lat="46.4259402" lon="12.568564"><ele>919.0000000000001</ele><time>2026-04-12T09:53:08.984Z</time></trkpt><trkpt lat="46.4258789" lon="12.5686926"><ele>919.0</ele><time>2026-04-12T09:53:09.985Z</time></trkpt><trkpt lat="46.4258159" lon="12.5688135"><ele>919.0</ele><time>2026-04-12T09:53:10.984Z</time></trkpt><trkpt lat="46.4257519" lon="12.5689332"><ele>919.6</ele><time>2026-04-12T09:53:11.984Z</time></trkpt><trkpt lat="46.425689" lon="12.5690547"><ele>920.2</ele><time>2026-04-12T09:53:12.984Z</time></trkpt><trkpt lat="46.4256251" lon="12.5691751"><ele>920.8000000000001</ele><time>2026-04-12T09:53:13.984Z</time></trkpt><trkpt lat="46.42556" lon="12.5692944"><ele>921.4000000000001</ele><time>2026-04-12T09:53:14.984Z</time></trkpt><trkpt lat="46.4254927" lon="12.5694114"><ele>922.0</ele><time>2026-04-12T09:53:15.984Z</time></trkpt><trkpt lat="46.4254275" lon="12.5695282"><ele>920.8</ele><time>2026-04-12T09:53:16.984Z</time></trkpt><trkpt lat="46.4253657" lon="12.5696506"><ele>919.6</ele><time>2026-04-12T09:53:17.984Z</time></trkpt><trkpt lat="46.4253002" lon="12.5697725"><ele>918.3999999999999</ele><time>2026-04-12T09:53:18.984Z</time></trkpt><trkpt lat="46.4252314" lon="12.5698927"><ele>917.1999999999999</ele><time>2026-04-12T09:53:19.984Z</time></trkpt><trkpt lat="46.4251585" lon="12.5700123"><ele>916.0</ele><time>2026-04-12T09:53:20.984Z</time></trkpt><trkpt lat="46.425087" lon="12.5701352"><ele>916.0</ele><time>2026-04-12T09:53:21.984Z</time></trkpt><trkpt lat="46.4250164" lon="12.5702618"><ele>916.0</ele><time>2026-04-12T09:53:22.984Z</time></trkpt><trkpt lat="46.4249513" lon="12.5703974"><ele>916.0</ele><time>2026-04-12T09:53:23.984Z</time></trkpt><trkpt lat="46.4248991" lon="12.5705475"><ele>916.0</ele><time>2026-04-12T09:53:24.984Z</time></trkpt><trkpt lat="46.424859" lon="12.5706985"><ele>916.0</ele><time>2026-04-12T09:53:25.984Z</time></trkpt><trkpt lat="46.424833" lon="12.5708556"><ele>915.9999999999999</ele><time>2026-04-12T09:53:26.984Z</time></trkpt><trkpt lat="46.4248208" lon="12.5710166"><ele>915.9999999999999</ele><time>2026-04-12T09:53:27.984Z</time></trkpt><trkpt lat="46.424815" lon="12.5711787"><ele>916.0</ele><time>2026-04-12T09:53:28.984Z</time></trkpt><trkpt lat="46.4248127" lon="12.571342"><ele>916.0</ele><time>2026-04-12T09:53:29.984Z</time></trkpt><trkpt lat="46.4248115" lon="12.571508"><ele>916.25</ele><time>2026-04-12T09:53:30.984Z</time></trkpt><trkpt lat="46.4248114" lon="12.5716729"><ele>916.5</ele><time>2026-04-12T09:53:31.985Z</time></trkpt><trkpt lat="46.4248115" lon="12.5718402"><ele>916.75</ele><time>2026-04-12T09:53:32.984Z</time></trkpt><trkpt lat="46.4248128" lon="12.5720058"><ele>917.0</ele><time>2026-04-12T09:53:33.984Z</time></trkpt><trkpt lat="46.4248115" lon="12.5721723"><ele>917.0</ele><time>2026-04-12T09:53:34.984Z</time></trkpt><trkpt lat="46.4248109" lon="12.5723369"><ele>917.0</ele><time>2026-04-12T09:53:35.984Z</time></trkpt><trkpt lat="46.4248105" lon="12.5725015"><ele>917.0</ele><time>2026-04-12T09:53:36.984Z</time></trkpt><trkpt lat="46.4248099" lon="12.5726645"><ele>917.0</ele><time>2026-04-12T09:53:37.984Z</time></trkpt><trkpt lat="46.4248098" lon="12.5728261"><ele>917.2</ele><time>2026-04-12T09:53:38.984Z</time></trkpt><trkpt lat="46.424808" lon="12.5729856"><ele>917.4000000000001</ele><time>2026-04-12T09:53:39.985Z</time></trkpt><trkpt lat="46.4248079" lon="12.573142"><ele>917.5999999999999</ele><time>2026-04-12T09:53:40.984Z</time></trkpt><trkpt lat="46.4248096" lon="12.5732971"><ele>917.8</ele><time>2026-04-12T09:53:41.984Z</time></trkpt><trkpt lat="46.4248091" lon="12.5734512"><ele>918.0</ele><time>2026-04-12T09:53:42.984Z</time></trkpt><trkpt lat="46.4248076" lon="12.5736031"><ele>918.0</ele><time>2026-04-12T09:53:43.985Z</time></trkpt><trkpt lat="46.4248077" lon="12.5737555"><ele>918.0</ele><time>2026-04-12T09:53:44.984Z</time></trkpt><trkpt lat="46.4248075" lon="12.5739067"><ele>918.0</ele><time>2026-04-12T09:53:45.984Z</time></trkpt><trkpt lat="46.424809" lon="12.5740514"><ele>918.0</ele><time>2026-04-12T09:53:46.984Z</time></trkpt><trkpt lat="46.4248063" lon="12.5741913"><ele>918.0</ele><time>2026-04-12T09:53:47.984Z</time></trkpt><trkpt lat="46.4248028" lon="12.5743232"><ele>918.0</ele><time>2026-04-12T09:53:48.984Z</time></trkpt><trkpt lat="46.4248089" lon="12.5744527"><ele>918.0</ele><time>2026-04-12T09:53:49.985Z</time></trkpt><trkpt lat="46.4248113" lon="12.57458"><ele>918.0</ele><time>2026-04-12T09:53:50.984Z</time></trkpt><trkpt lat="46.4248157" lon="12.574711"><ele>918.0</ele><time>2026-04-12T09:53:51.984Z</time></trkpt><trkpt lat="46.4248214" lon="12.5748449"><ele>918.0</ele><time>2026-04-12T09:53:52.985Z</time></trkpt><trkpt lat="46.4248252" lon="12.5749808"><ele>917.2</ele><time>2026-04-12T09:53:53.985Z</time></trkpt><trkpt lat="46.4248277" lon="12.575121"><ele>916.4</ele><time>2026-04-12T09:53:54.984Z</time></trkpt><trkpt lat="46.4248309" lon="12.5752624"><ele>915.6000000000001</ele><time>2026-04-12T09:53:55.984Z</time></trkpt><trkpt lat="46.4248344" lon="12.5754012"><ele>914.8000000000001</ele><time>2026-04-12T09:53:56.984Z</time></trkpt><trkpt lat="46.424837" lon="12.5755358"><ele>914.0</ele><time>2026-04-12T09:53:57.984Z</time></trkpt><trkpt lat="46.4248399" lon="12.5756706"><ele>912.8000000000001</ele><time>2026-04-12T09:53:58.984Z</time></trkpt><trkpt lat="46.4248426" lon="12.5758062"><ele>911.6000000000001</ele><time>2026-04-12T09:53:59.984Z</time></trkpt><trkpt lat="46.4248394" lon="12.5759454"><ele>910.4</ele><time>2026-04-12T09:54:00.985Z</time></trkpt><trkpt lat="46.4248313" lon="12.5760858"><ele>909.2</ele><time>2026-04-12T09:54:01.985Z</time></trkpt><trkpt lat="46.4248201" lon="12.5762279"><ele>908.0</ele><time>2026-04-12T09:54:02.984Z</time></trkpt><trkpt lat="46.4248032" lon="12.5763669"><ele>907.4</ele><time>2026-04-12T09:54:03.984Z</time></trkpt><trkpt lat="46.4247797" lon="12.5765036"><ele>906.8</ele><time>2026-04-12T09:54:04.985Z</time></trkpt><trkpt lat="46.4247515" lon="12.576635"><ele>906.2</ele><time>2026-04-12T09:54:05.984Z</time></trkpt><trkpt lat="46.4247156" lon="12.5767624"><ele>905.6</ele><time>2026-04-12T09:54:06.985Z</time></trkpt><trkpt lat="46.4246799" lon="12.5768851"><ele>905.0</ele><time>2026-04-12T09:54:07.984Z</time></trkpt><trkpt lat="46.4246344" lon="12.5770066"><ele>903.8</ele><time>2026-04-12T09:54:08.984Z</time></trkpt><trkpt lat="46.4245862" lon="12.577123"><ele>902.6</ele><time>2026-04-12T09:54:09.984Z</time></trkpt><trkpt lat="46.4245341" lon="12.5772442"><ele>901.4000000000001</ele><time>2026-04-12T09:54:10.984Z</time></trkpt><trkpt lat="46.4244846" lon="12.5773617"><ele>900.2</ele><time>2026-04-12T09:54:11.984Z</time></trkpt><trkpt lat="46.4244347" lon="12.577475"><ele>899.0</ele><time>2026-04-12T09:54:12.985Z</time></trkpt><trkpt lat="46.4243864" lon="12.5775905"><ele>899.0000000000001</ele><time>2026-04-12T09:54:13.984Z</time></trkpt><trkpt lat="46.4243401" lon="12.577703"><ele>899.0</ele><time>2026-04-12T09:54:14.984Z</time></trkpt><trkpt lat="46.4242906" lon="12.5778172"><ele>899.0</ele><time>2026-04-12T09:54:15.984Z</time></trkpt><trkpt lat="46.4242401" lon="12.5779309"><ele>899.0</ele><time>2026-04-12T09:54:16.984Z</time></trkpt><trkpt lat="46.4241943" lon="12.5780366"><ele>899.0000000000001</ele><time>2026-04-12T09:54:17.985Z</time></trkpt><trkpt lat="46.4241549" lon="12.5781433"><ele>899.0</ele><time>2026-04-12T09:54:18.984Z</time></trkpt><trkpt lat="46.4241283" lon="12.5782267"><ele>899.0</ele><time>2026-04-12T09:54:19.986Z</time></trkpt><trkpt lat="46.4240971" lon="12.5783386"><ele>899.0000000000001</ele><time>2026-04-12T09:54:21.984Z</time></trkpt><trkpt lat="46.4240708" lon="12.5784339"><ele>899.0000000000001</ele><time>2026-04-12T09:54:23.984Z</time></trkpt><trkpt lat="46.4240522" lon="12.5786014"><ele>899.0</ele><time>2026-04-12T09:54:26.984Z</time></trkpt><trkpt lat="46.424026" lon="12.5787948"><ele>899.0</ele><time>2026-04-12T09:54:28.984Z</time></trkpt><trkpt lat="46.4240114" lon="12.5789211"><ele>899.25</ele><time>2026-04-12T09:54:29.985Z</time></trkpt><trkpt lat="46.4239976" lon="12.5790716"><ele>899.5</ele><time>2026-04-12T09:54:30.984Z</time></trkpt><trkpt lat="46.423984" lon="12.5792474"><ele>899.75</ele><time>2026-04-12T09:54:31.984Z</time></trkpt><trkpt lat="46.4239699" lon="12.5794189"><ele>900.0</ele><time>2026-04-12T09:54:32.984Z</time></trkpt><trkpt lat="46.4239532" lon="12.5795882"><ele>899.5</ele><time>2026-04-12T09:54:33.984Z</time></trkpt><trkpt lat="46.4239381" lon="12.5797559"><ele>899.0</ele><time>2026-04-12T09:54:34.984Z</time></trkpt><trkpt lat="46.4239234" lon="12.5799197"><ele>898.5</ele><time>2026-04-12T09:54:35.984Z</time></trkpt><trkpt lat="46.4239082" lon="12.580082"><ele>898.0</ele><time>2026-04-12T09:54:36.984Z</time></trkpt><trkpt lat="46.4238957" lon="12.5802424"><ele>897.4</ele><time>2026-04-12T09:54:37.984Z</time></trkpt><trkpt lat="46.423882" lon="12.5804005"><ele>896.8</ele><time>2026-04-12T09:54:38.985Z</time></trkpt><trkpt lat="46.423872" lon="12.580552"><ele>896.2</ele><time>2026-04-12T09:54:39.984Z</time></trkpt><trkpt lat="46.4238583" lon="12.5807002"><ele>895.6</ele><time>2026-04-12T09:54:40.984Z</time></trkpt><trkpt lat="46.4238467" lon="12.5808468"><ele>895.0</ele><time>2026-04-12T09:54:41.984Z</time></trkpt><trkpt lat="46.423834" lon="12.5809904"><ele>895.0</ele><time>2026-04-12T09:54:42.985Z</time></trkpt><trkpt lat="46.4238216" lon="12.5811325"><ele>895.0</ele><time>2026-04-12T09:54:43.984Z</time></trkpt><trkpt lat="46.423809" lon="12.5812732"><ele>895.0</ele><time>2026-04-12T09:54:44.984Z</time></trkpt><trkpt lat="46.4237974" lon="12.5814117"><ele>895.0</ele><time>2026-04-12T09:54:45.984Z</time></trkpt><trkpt lat="46.4237641" lon="12.5815432"><ele>895.0</ele><time>2026-04-12T09:54:46.984Z</time></trkpt><trkpt lat="46.4237099" lon="12.5816651"><ele>894.4</ele><time>2026-04-12T09:54:47.985Z</time></trkpt><trkpt lat="46.4236389" lon="12.5817729"><ele>893.8</ele><time>2026-04-12T09:54:48.985Z</time></trkpt><trkpt lat="46.4235598" lon="12.5818603"><ele>893.2</ele><time>2026-04-12T09:54:49.984Z</time></trkpt><trkpt lat="46.423477" lon="12.5819202"><ele>892.6</ele><time>2026-04-12T09:54:50.984Z</time></trkpt><trkpt lat="46.4233859" lon="12.5819568"><ele>892.0</ele><time>2026-04-12T09:54:51.984Z</time></trkpt><trkpt lat="46.423278" lon="12.5819716"><ele>892.0</ele><time>2026-04-12T09:54:52.984Z</time></trkpt><trkpt lat="46.4231657" lon="12.5819896"><ele>892.0</ele><time>2026-04-12T09:54:53.984Z</time></trkpt><trkpt lat="46.4230489" lon="12.5820093"><ele>892.0</ele><time>2026-04-12T09:54:54.986Z</time></trkpt><trkpt lat="46.4229324" lon="12.5820324"><ele>892.0</ele><time>2026-04-12T09:54:55.984Z</time></trkpt><trkpt lat="46.4228163" lon="12.5820549"><ele>892.0</ele><time>2026-04-12T09:54:56.984Z</time></trkpt><trkpt lat="46.4226998" lon="12.5820768"><ele>892.0</ele><time>2026-04-12T09:54:57.984Z</time></trkpt><trkpt lat="46.422585" lon="12.5821007"><ele>892.0</ele><time>2026-04-12T09:54:58.984Z</time></trkpt><trkpt lat="46.4224655" lon="12.5821294"><ele>892.0</ele><time>2026-04-12T09:54:59.984Z</time></trkpt><trkpt lat="46.4223375" lon="12.5821559"><ele>892.0</ele><time>2026-04-12T09:55:00.984Z</time></trkpt><trkpt lat="46.4222171" lon="12.5821839"><ele>892.0</ele><time>2026-04-12T09:55:01.984Z</time></trkpt><trkpt lat="46.4220967" lon="12.5822162"><ele>892.0</ele><time>2026-04-12T09:55:02.984Z</time></trkpt><trkpt lat="46.4219753" lon="12.5822473"><ele>892.0</ele><time>2026-04-12T09:55:03.985Z</time></trkpt><trkpt lat="46.4218555" lon="12.5822912"><ele>890.5</ele><time>2026-04-12T09:55:04.984Z</time></trkpt><trkpt lat="46.4217349" lon="12.5823413"><ele>889.0</ele><time>2026-04-12T09:55:05.984Z</time></trkpt><trkpt lat="46.4216136" lon="12.5823884"><ele>887.5</ele><time>2026-04-12T09:55:06.985Z</time></trkpt><trkpt lat="46.4214911" lon="12.5824352"><ele>886.0</ele><time>2026-04-12T09:55:07.984Z</time></trkpt><trkpt lat="46.4213685" lon="12.5824829"><ele>883.75</ele><time>2026-04-12T09:55:08.984Z</time></trkpt><trkpt lat="46.4212459" lon="12.5825291"><ele>881.5</ele><time>2026-04-12T09:55:09.984Z</time></trkpt><trkpt lat="46.4211229" lon="12.5825765"><ele>879.25</ele><time>2026-04-12T09:55:10.985Z</time></trkpt><trkpt lat="46.4209995" lon="12.5826222"><ele>877.0</ele><time>2026-04-12T09:55:11.984Z</time></trkpt><trkpt lat="46.4208748" lon="12.5826684"><ele>877.0</ele><time>2026-04-12T09:55:12.985Z</time></trkpt><trkpt lat="46.4207515" lon="12.5827145"><ele>877.0</ele><time>2026-04-12T09:55:13.984Z</time></trkpt><trkpt lat="46.4206291" lon="12.5827611"><ele>877.0</ele><time>2026-04-12T09:55:14.984Z</time></trkpt><trkpt lat="46.4205079" lon="12.5828089"><ele>877.0</ele><time>2026-04-12T09:55:15.985Z</time></trkpt><trkpt lat="46.4203859" lon="12.5828575"><ele>877.0</ele><time>2026-04-12T09:55:16.984Z</time></trkpt><trkpt lat="46.4202645" lon="12.5829076"><ele>877.0</ele><time>2026-04-12T09:55:17.985Z</time></trkpt><trkpt lat="46.4201466" lon="12.5829549"><ele>877.0</ele><time>2026-04-12T09:55:18.984Z</time></trkpt><trkpt lat="46.4200269" lon="12.5830027"><ele>877.0</ele><time>2026-04-12T09:55:19.984Z</time></trkpt><trkpt lat="46.4199053" lon="12.5830536"><ele>877.0</ele><time>2026-04-12T09:55:20.984Z</time></trkpt><trkpt lat="46.4197833" lon="12.5831111"><ele>877.0</ele><time>2026-04-12T09:55:21.985Z</time></trkpt><trkpt lat="46.4196618" lon="12.5831776"><ele>877.0</ele><time>2026-04-12T09:55:22.985Z</time></trkpt><trkpt lat="46.4195418" lon="12.5832406"><ele>877.0</ele><time>2026-04-12T09:55:23.984Z</time></trkpt><trkpt lat="46.4194218" lon="12.5832979"><ele>876.25</ele><time>2026-04-12T09:55:24.984Z</time></trkpt><trkpt lat="46.4193043" lon="12.583356"><ele>875.5</ele><time>2026-04-12T09:55:25.984Z</time></trkpt><trkpt lat="46.419189" lon="12.5834156"><ele>874.75</ele><time>2026-04-12T09:55:26.984Z</time></trkpt><trkpt lat="46.419077" lon="12.5834685"><ele>874.0</ele><time>2026-04-12T09:55:27.984Z</time></trkpt><trkpt lat="46.4189716" lon="12.5835225"><ele>874.0</ele><time>2026-04-12T09:55:28.984Z</time></trkpt><trkpt lat="46.4188643" lon="12.5835715"><ele>874.0000000000001</ele><time>2026-04-12T09:55:29.986Z</time></trkpt><trkpt lat="46.4187624" lon="12.5836251"><ele>874.0000000000001</ele><time>2026-04-12T09:55:30.984Z</time></trkpt><trkpt lat="46.418668" lon="12.5836714"><ele>874.0</ele><time>2026-04-12T09:55:31.984Z</time></trkpt><trkpt lat="46.4185798" lon="12.5837172"><ele>874.0</ele><time>2026-04-12T09:55:32.984Z</time></trkpt><trkpt lat="46.4185001" lon="12.5837572"><ele>874.7142857142857</ele><time>2026-04-12T09:55:33.984Z</time></trkpt><trkpt lat="46.4184239" lon="12.583797"><ele>875.4285714285714</ele><time>2026-04-12T09:55:34.984Z</time></trkpt><trkpt lat="46.418356" lon="12.5838344"><ele>876.1428571428571</ele><time>2026-04-12T09:55:35.984Z</time></trkpt><trkpt lat="46.4182931" lon="12.5838743"><ele>876.8571428571429</ele><time>2026-04-12T09:55:36.984Z</time></trkpt><trkpt lat="46.4182364" lon="12.5839193"><ele>877.5714285714287</ele><time>2026-04-12T09:55:37.985Z</time></trkpt><trkpt lat="46.4181726" lon="12.5839563"><ele>878.2857142857143</ele><time>2026-04-12T09:55:38.984Z</time></trkpt><trkpt lat="46.418109" lon="12.5839796"><ele>879.0</ele><time>2026-04-12T09:55:39.984Z</time></trkpt><trkpt lat="46.4180521" lon="12.5840256"><ele>879.0</ele><time>2026-04-12T09:55:40.984Z</time></trkpt><trkpt lat="46.4179878" lon="12.5841377"><ele>879.0000000000001</ele><time>2026-04-12T09:55:41.985Z</time></trkpt><trkpt lat="46.4179168" lon="12.5842344"><ele>879.0000000000001</ele><time>2026-04-12T09:55:42.984Z</time></trkpt><trkpt lat="46.4178458" lon="12.5843384"><ele>879.0</ele><time>2026-04-12T09:55:43.984Z</time></trkpt><trkpt lat="46.4177711" lon="12.5844564"><ele>879.0</ele><time>2026-04-12T09:55:44.985Z</time></trkpt><trkpt lat="46.4176905" lon="12.5845832"><ele>877.75</ele><time>2026-04-12T09:55:45.984Z</time></trkpt><trkpt lat="46.4176085" lon="12.5847033"><ele>876.5</ele><time>2026-04-12T09:55:46.984Z</time></trkpt><trkpt lat="46.4175262" lon="12.5848268"><ele>875.25</ele><time>2026-04-12T09:55:47.985Z</time></trkpt><trkpt lat="46.4174443" lon="12.5849519"><ele>874.0</ele><time>2026-04-12T09:55:48.984Z</time></trkpt><trkpt lat="46.4173619" lon="12.5850788"><ele>874.0</ele><time>2026-04-12T09:55:49.984Z</time></trkpt><trkpt lat="46.4172694" lon="12.585215"><ele>874.0</ele><time>2026-04-12T09:55:50.984Z</time></trkpt><trkpt lat="46.4171613" lon="12.5853712"><ele>874.0</ele><time>2026-04-12T09:55:51.985Z</time></trkpt><trkpt lat="46.4170607" lon="12.5855125"><ele>874.0</ele><time>2026-04-12T09:55:52.984Z</time></trkpt><trkpt lat="46.4169596" lon="12.5856556"><ele>873.5</ele><time>2026-04-12T09:55:53.984Z</time></trkpt><trkpt lat="46.4168631" lon="12.5857996"><ele>873.0</ele><time>2026-04-12T09:55:54.985Z</time></trkpt><trkpt lat="46.4167658" lon="12.5859414"><ele>872.5</ele><time>2026-04-12T09:55:55.984Z</time></trkpt><trkpt lat="46.4166628" lon="12.5860695"><ele>872.0</ele><time>2026-04-12T09:55:56.984Z</time></trkpt><trkpt lat="46.4165537" lon="12.5861875"><ele>872.5</ele><time>2026-04-12T09:55:57.984Z</time></trkpt><trkpt lat="46.4164375" lon="12.5863008"><ele>873.0</ele><time>2026-04-12T09:55:58.984Z</time></trkpt><trkpt lat="46.4163167" lon="12.586406"><ele>873.5</ele><time>2026-04-12T09:55:59.984Z</time></trkpt><trkpt lat="46.416189" lon="12.5864957"><ele>874.0</ele><time>2026-04-12T09:56:00.985Z</time></trkpt><trkpt lat="46.4160564" lon="12.5865678"><ele>874.0</ele><time>2026-04-12T09:56:01.984Z</time></trkpt><trkpt lat="46.4159214" lon="12.5866283"><ele>874.0</ele><time>2026-04-12T09:56:02.984Z</time></trkpt><trkpt lat="46.4157863" lon="12.5866814"><ele>874.0</ele><time>2026-04-12T09:56:03.984Z</time></trkpt><trkpt lat="46.4156536" lon="12.5867371"><ele>874.0</ele><time>2026-04-12T09:56:04.984Z</time></trkpt><trkpt lat="46.4155232" lon="12.5867971"><ele>873.25</ele><time>2026-04-12T09:56:05.984Z</time></trkpt><trkpt lat="46.4153894" lon="12.5868486"><ele>872.5</ele><time>2026-04-12T09:56:06.985Z</time></trkpt><trkpt lat="46.4152543" lon="12.5868939"><ele>871.75</ele><time>2026-04-12T09:56:07.984Z</time></trkpt><trkpt lat="46.4151184" lon="12.5869256"><ele>871.0</ele><time>2026-04-12T09:56:08.984Z</time></trkpt><trkpt lat="46.4149814" lon="12.5869333"><ele>871.0</ele><time>2026-04-12T09:56:09.984Z</time></trkpt><trkpt lat="46.4148426" lon="12.58693"><ele>871.0</ele><time>2026-04-12T09:56:10.984Z</time></trkpt><trkpt lat="46.4147042" lon="12.586921"><ele>871.0</ele><time>2026-04-12T09:56:11.984Z</time></trkpt><trkpt lat="46.4145672" lon="12.5869168"><ele>871.0</ele><time>2026-04-12T09:56:12.984Z</time></trkpt><trkpt lat="46.4144337" lon="12.5869136"><ele>872.75</ele><time>2026-04-12T09:56:13.984Z</time></trkpt><trkpt lat="46.4143013" lon="12.5869092"><ele>874.5</ele><time>2026-04-12T09:56:14.984Z</time></trkpt><trkpt lat="46.4141707" lon="12.5868998"><ele>876.25</ele><time>2026-04-12T09:56:15.985Z</time></trkpt><trkpt lat="46.4140401" lon="12.5869039"><ele>878.0</ele><time>2026-04-12T09:56:16.984Z</time></trkpt><trkpt lat="46.4139083" lon="12.5869311"><ele>878.5</ele><time>2026-04-12T09:56:17.984Z</time></trkpt><trkpt lat="46.4137805" lon="12.5869869"><ele>879.0</ele><time>2026-04-12T09:56:18.984Z</time></trkpt><trkpt lat="46.4136569" lon="12.587074"><ele>879.5</ele><time>2026-04-12T09:56:19.984Z</time></trkpt><trkpt lat="46.4135387" lon="12.5871872"><ele>880.0</ele><time>2026-04-12T09:56:20.984Z</time></trkpt><trkpt lat="46.4134317" lon="12.5873248"><ele>883.5</ele><time>2026-04-12T09:56:21.984Z</time></trkpt><trkpt lat="46.4133303" lon="12.5874746"><ele>887.0</ele><time>2026-04-12T09:56:22.984Z</time></trkpt><trkpt lat="46.4132316" lon="12.5876275"><ele>890.5</ele><time>2026-04-12T09:56:23.984Z</time></trkpt><trkpt lat="46.4131344" lon="12.5877778"><ele>894.0</ele><time>2026-04-12T09:56:24.984Z</time></trkpt><trkpt lat="46.4130401" lon="12.5879278"><ele>892.0</ele><time>2026-04-12T09:56:25.984Z</time></trkpt><trkpt lat="46.4129491" lon="12.588081"><ele>890.0</ele><time>2026-04-12T09:56:26.984Z</time></trkpt><trkpt lat="46.4128732" lon="12.5882526"><ele>888.0</ele><time>2026-04-12T09:56:27.984Z</time></trkpt><trkpt lat="46.4128134" lon="12.5884516"><ele>886.0</ele><time>2026-04-12T09:56:28.984Z</time></trkpt><trkpt lat="46.4127638" lon="12.5886605"><ele>887.0</ele><time>2026-04-12T09:56:29.984Z</time></trkpt><trkpt lat="46.41272" lon="12.5888658"><ele>888.0</ele><time>2026-04-12T09:56:30.984Z</time></trkpt><trkpt lat="46.4126754" lon="12.5890686"><ele>889.0</ele><time>2026-04-12T09:56:31.985Z</time></trkpt><trkpt lat="46.4126268" lon="12.5892691"><ele>890.0</ele><time>2026-04-12T09:56:32.984Z</time></trkpt><trkpt lat="46.412568" lon="12.5894613"><ele>892.25</ele><time>2026-04-12T09:56:33.984Z</time></trkpt><trkpt lat="46.4125001" lon="12.5896457"><ele>894.5</ele><time>2026-04-12T09:56:34.984Z</time></trkpt><trkpt lat="46.412427" lon="12.5898245"><ele>896.75</ele><time>2026-04-12T09:56:35.984Z</time></trkpt><trkpt lat="46.4123508" lon="12.5900016"><ele>899.0</ele><time>2026-04-12T09:56:36.984Z</time></trkpt><trkpt lat="46.412276" lon="12.5901787"><ele>899.75</ele><time>2026-04-12T09:56:37.984Z</time></trkpt><trkpt lat="46.4122029" lon="12.5903555"><ele>900.5</ele><time>2026-04-12T09:56:38.984Z</time></trkpt><trkpt lat="46.4121312" lon="12.5905343"><ele>901.25</ele><time>2026-04-12T09:56:39.984Z</time></trkpt><trkpt lat="46.4120587" lon="12.5907123"><ele>902.0</ele><time>2026-04-12T09:56:40.984Z</time></trkpt><trkpt lat="46.4119887" lon="12.5908896"><ele>902.0</ele><time>2026-04-12T09:56:41.984Z</time></trkpt><trkpt lat="46.4119189" lon="12.5910651"><ele>902.0</ele><time>2026-04-12T09:56:42.984Z</time></trkpt><trkpt lat="46.4118474" lon="12.5912401"><ele>902.0</ele><time>2026-04-12T09:56:43.984Z</time></trkpt><trkpt lat="46.4117785" lon="12.5914139"><ele>902.0</ele><time>2026-04-12T09:56:44.984Z</time></trkpt><trkpt lat="46.4117076" lon="12.5915923"><ele>904.25</ele><time>2026-04-12T09:56:45.984Z</time></trkpt><trkpt lat="46.4116343" lon="12.5917718"><ele>906.5</ele><time>2026-04-12T09:56:46.984Z</time></trkpt><trkpt lat="46.4115563" lon="12.5919472"><ele>908.75</ele><time>2026-04-12T09:56:47.984Z</time></trkpt><trkpt lat="46.4114701" lon="12.5921116"><ele>911.0</ele><time>2026-04-12T09:56:48.984Z</time></trkpt><trkpt lat="46.4113743" lon="12.5922623"><ele>911.75</ele><time>2026-04-12T09:56:49.984Z</time></trkpt><trkpt lat="46.4112784" lon="12.592408"><ele>912.5</ele><time>2026-04-12T09:56:50.984Z</time></trkpt><trkpt lat="46.4111827" lon="12.5925525"><ele>913.25</ele><time>2026-04-12T09:56:51.984Z</time></trkpt><trkpt lat="46.4110833" lon="12.5927016"><ele>914.0</ele><time>2026-04-12T09:56:52.984Z</time></trkpt><trkpt lat="46.4109829" lon="12.5928358"><ele>917.75</ele><time>2026-04-12T09:56:53.984Z</time></trkpt><trkpt lat="46.4108811" lon="12.5929616"><ele>921.5</ele><time>2026-04-12T09:56:54.984Z</time></trkpt><trkpt lat="46.4107809" lon="12.593081"><ele>925.25</ele><time>2026-04-12T09:56:55.984Z</time></trkpt><trkpt lat="46.410684" lon="12.593195"><ele>929.0</ele><time>2026-04-12T09:56:56.984Z</time></trkpt><trkpt lat="46.4105959" lon="12.5933003"><ele>929.0</ele><time>2026-04-12T09:56:57.984Z</time></trkpt><trkpt lat="46.4105143" lon="12.5933993"><ele>929.0000000000001</ele><time>2026-04-12T09:56:58.984Z</time></trkpt><trkpt lat="46.4104303" lon="12.593503"><ele>929.0000000000001</ele><time>2026-04-12T09:56:59.984Z</time></trkpt><trkpt lat="46.4103559" lon="12.5936237"><ele>929.0</ele><time>2026-04-12T09:57:00.985Z</time></trkpt><trkpt lat="46.4103018" lon="12.5937753"><ele>929.0</ele><time>2026-04-12T09:57:01.984Z</time></trkpt><trkpt lat="46.4102689" lon="12.5939606"><ele>926.25</ele><time>2026-04-12T09:57:02.985Z</time></trkpt><trkpt lat="46.4102522" lon="12.5941453"><ele>923.5</ele><time>2026-04-12T09:57:03.984Z</time></trkpt><trkpt lat="46.4102404" lon="12.594333"><ele>920.75</ele><time>2026-04-12T09:57:04.985Z</time></trkpt><trkpt lat="46.410231" lon="12.5945278"><ele>918.0</ele><time>2026-04-12T09:57:05.984Z</time></trkpt><trkpt lat="46.4102189" lon="12.5947236"><ele>917.25</ele><time>2026-04-12T09:57:06.984Z</time></trkpt><trkpt lat="46.4102099" lon="12.594924"><ele>916.5</ele><time>2026-04-12T09:57:07.984Z</time></trkpt><trkpt lat="46.4102023" lon="12.5951262"><ele>915.75</ele><time>2026-04-12T09:57:08.984Z</time></trkpt><trkpt lat="46.4101944" lon="12.5953262"><ele>915.0</ele><time>2026-04-12T09:57:09.985Z</time></trkpt><trkpt lat="46.4101859" lon="12.5955213"><ele>915.0</ele><time>2026-04-12T09:57:10.984Z</time></trkpt><trkpt lat="46.4101773" lon="12.5957131"><ele>915.0</ele><time>2026-04-12T09:57:11.984Z</time></trkpt><trkpt lat="46.4101691" lon="12.5959023"><ele>915.0</ele><time>2026-04-12T09:57:12.985Z</time></trkpt><trkpt lat="46.4101608" lon="12.5960924"><ele>915.0</ele><time>2026-04-12T09:57:13.984Z</time></trkpt><trkpt lat="46.4101507" lon="12.5962889"><ele>915.25</ele><time>2026-04-12T09:57:14.984Z</time></trkpt><trkpt lat="46.4101411" lon="12.5965039"><ele>915.5</ele><time>2026-04-12T09:57:15.984Z</time></trkpt><trkpt lat="46.410132" lon="12.5967092"><ele>915.75</ele><time>2026-04-12T09:57:16.984Z</time></trkpt><trkpt lat="46.4101218" lon="12.596914"><ele>916.0</ele><time>2026-04-12T09:57:17.984Z</time></trkpt><trkpt lat="46.4101135" lon="12.5971156"><ele>914.75</ele><time>2026-04-12T09:57:18.984Z</time></trkpt><trkpt lat="46.4101056" lon="12.597302"><ele>913.5</ele><time>2026-04-12T09:57:19.985Z</time></trkpt><trkpt lat="46.4100891" lon="12.597481"><ele>912.25</ele><time>2026-04-12T09:57:20.984Z</time></trkpt><trkpt lat="46.4100596" lon="12.5976424"><ele>911.0</ele><time>2026-04-12T09:57:21.984Z</time></trkpt><trkpt lat="46.4100144" lon="12.5977897"><ele>910.3333333333334</ele><time>2026-04-12T09:57:22.984Z</time></trkpt><trkpt lat="46.4099652" lon="12.5979066"><ele>909.6666666666667</ele><time>2026-04-12T09:57:23.984Z</time></trkpt><trkpt lat="46.4099143" lon="12.5979909"><ele>909.0</ele><time>2026-04-12T09:57:24.985Z</time></trkpt><trkpt lat="46.4098165" lon="12.5980709"><ele>908.3333333333333</ele><time>2026-04-12T09:57:26.984Z</time></trkpt><trkpt lat="46.4097398" lon="12.5981357"><ele>907.6666666666666</ele><time>2026-04-12T09:57:28.984Z</time></trkpt><trkpt lat="46.4096969" lon="12.5982036"><ele>907.0</ele><time>2026-04-12T09:58:25.984Z</time></trkpt><trkpt lat="46.4096725" lon="12.5983159"><ele>907.2</ele><time>2026-04-12T09:58:27.984Z</time></trkpt><trkpt lat="46.4096248" lon="12.5984937"><ele>907.4000000000001</ele><time>2026-04-12T09:58:29.984Z</time></trkpt><trkpt lat="46.4095659" lon="12.5985874"><ele>907.5999999999999</ele><time>2026-04-12T09:58:30.984Z</time></trkpt><trkpt lat="46.4094899" lon="12.5987084"><ele>907.8</ele><time>2026-04-12T09:58:31.984Z</time></trkpt><trkpt lat="46.4094182" lon="12.5988356"><ele>908.0</ele><time>2026-04-12T09:58:32.985Z</time></trkpt><trkpt lat="46.4093323" lon="12.5989836"><ele>906.75</ele><time>2026-04-12T09:58:33.984Z</time></trkpt><trkpt lat="46.4092312" lon="12.5991498"><ele>905.5</ele><time>2026-04-12T09:58:34.984Z</time></trkpt><trkpt lat="46.4091356" lon="12.5993052"><ele>904.25</ele><time>2026-04-12T09:58:35.984Z</time></trkpt><trkpt lat="46.409039" lon="12.5994645"><ele>903.0</ele><time>2026-04-12T09:58:36.984Z</time></trkpt><trkpt lat="46.4089424" lon="12.5996188"><ele>903.0</ele><time>2026-04-12T09:58:37.985Z</time></trkpt><trkpt lat="46.4088467" lon="12.599768"><ele>903.0</ele><time>2026-04-12T09:58:38.984Z</time></trkpt><trkpt lat="46.4087565" lon="12.5999145"><ele>903.0</ele><time>2026-04-12T09:58:39.984Z</time></trkpt><trkpt lat="46.4086681" lon="12.6000582"><ele>903.0</ele><time>2026-04-12T09:58:40.984Z</time></trkpt><trkpt lat="46.4085831" lon="12.6001956"><ele>902.0</ele><time>2026-04-12T09:58:41.984Z</time></trkpt><trkpt lat="46.4084991" lon="12.6003327"><ele>901.0</ele><time>2026-04-12T09:58:42.984Z</time></trkpt><trkpt lat="46.408416" lon="12.6004684"><ele>900.0</ele><time>2026-04-12T09:58:43.985Z</time></trkpt><trkpt lat="46.4083335" lon="12.6006073"><ele>899.0</ele><time>2026-04-12T09:58:44.984Z</time></trkpt><trkpt lat="46.4082533" lon="12.6007395"><ele>899.0</ele><time>2026-04-12T09:58:45.984Z</time></trkpt><trkpt lat="46.4081687" lon="12.6008777"><ele>899.0</ele><time>2026-04-12T09:58:46.985Z</time></trkpt><trkpt lat="46.4080807" lon="12.6010217"><ele>899.0</ele><time>2026-04-12T09:58:47.984Z</time></trkpt><trkpt lat="46.4079896" lon="12.6011707"><ele>899.0</ele><time>2026-04-12T09:58:48.985Z</time></trkpt><trkpt lat="46.407889" lon="12.6013357"><ele>899.0</ele><time>2026-04-12T09:58:49.984Z</time></trkpt><trkpt lat="46.4077905" lon="12.6014978"><ele>899.0</ele><time>2026-04-12T09:58:50.984Z</time></trkpt><trkpt lat="46.4076947" lon="12.601656"><ele>899.0</ele><time>2026-04-12T09:58:51.984Z</time></trkpt><trkpt lat="46.4075987" lon="12.6018023"><ele>899.0</ele><time>2026-04-12T09:58:52.984Z</time></trkpt><trkpt lat="46.407505" lon="12.6019516"><ele>899.0</ele><time>2026-04-12T09:58:53.984Z</time></trkpt><trkpt lat="46.407413" lon="12.6021065"><ele>899.0</ele><time>2026-04-12T09:58:54.984Z</time></trkpt><trkpt lat="46.4073207" lon="12.6022604"><ele>899.0</ele><time>2026-04-12T09:58:55.984Z</time></trkpt><trkpt lat="46.4072306" lon="12.6024143"><ele>899.0</ele><time>2026-04-12T09:58:56.983Z</time></trkpt><trkpt lat="46.4071359" lon="12.60257"><ele>899.0</ele><time>2026-04-12T09:58:57.983Z</time></trkpt><trkpt lat="46.4070479" lon="12.6027189"><ele>899.0</ele><time>2026-04-12T09:58:58.983Z</time></trkpt><trkpt lat="46.4069595" lon="12.6028638"><ele>899.0</ele><time>2026-04-12T09:58:59.983Z</time></trkpt><trkpt lat="46.4068721" lon="12.6030111"><ele>899.0</ele><time>2026-04-12T09:59:00.984Z</time></trkpt><trkpt lat="46.406781" lon="12.6031551"><ele>899.0</ele><time>2026-04-12T09:59:01.983Z</time></trkpt><trkpt lat="46.4066898" lon="12.6032977"><ele>899.0</ele><time>2026-04-12T09:59:02.983Z</time></trkpt><trkpt lat="46.4065987" lon="12.6034406"><ele>899.0</ele><time>2026-04-12T09:59:03.984Z</time></trkpt><trkpt lat="46.406508" lon="12.6035872"><ele>899.0</ele><time>2026-04-12T09:59:04.983Z</time></trkpt><trkpt lat="46.4064182" lon="12.6037362"><ele>897.0</ele><time>2026-04-12T09:59:05.983Z</time></trkpt><trkpt lat="46.4063244" lon="12.6038918"><ele>895.0</ele><time>2026-04-12T09:59:06.983Z</time></trkpt><trkpt lat="46.4062162" lon="12.6040697"><ele>893.0</ele><time>2026-04-12T09:59:07.983Z</time></trkpt><trkpt lat="46.4061118" lon="12.6042379"><ele>893.0</ele><time>2026-04-12T09:59:08.984Z</time></trkpt><trkpt lat="46.4060088" lon="12.6044036"><ele>893.0</ele><time>2026-04-12T09:59:09.983Z</time></trkpt><trkpt lat="46.4059095" lon="12.604564"><ele>893.0</ele><time>2026-04-12T09:59:10.983Z</time></trkpt><trkpt lat="46.4058001" lon="12.6047078"><ele>894.0</ele><time>2026-04-12T09:59:11.983Z</time></trkpt><trkpt lat="46.4056793" lon="12.604838"><ele>895.0</ele><time>2026-04-12T09:59:12.983Z</time></trkpt><trkpt lat="46.4055525" lon="12.604964"><ele>896.0</ele><time>2026-04-12T09:59:13.983Z</time></trkpt><trkpt lat="46.4054227" lon="12.605086"><ele>893.6666666666667</ele><time>2026-04-12T09:59:14.983Z</time></trkpt><trkpt lat="46.4052957" lon="12.6052233"><ele>891.3333333333333</ele><time>2026-04-12T09:59:15.984Z</time></trkpt><trkpt lat="46.4051799" lon="12.6053648"><ele>889.0</ele><time>2026-04-12T09:59:16.983Z</time></trkpt><trkpt lat="46.4050741" lon="12.6055105"><ele>888.5</ele><time>2026-04-12T09:59:17.983Z</time></trkpt><trkpt lat="46.4049728" lon="12.6056558"><ele>888.0</ele><time>2026-04-12T09:59:18.983Z</time></trkpt><trkpt lat="46.4048734" lon="12.6058033"><ele>887.5</ele><time>2026-04-12T09:59:19.983Z</time></trkpt><trkpt lat="46.4047755" lon="12.6059613"><ele>887.0</ele><time>2026-04-12T09:59:20.984Z</time></trkpt><trkpt lat="46.4046919" lon="12.6061462"><ele>885.5</ele><time>2026-04-12T09:59:21.983Z</time></trkpt><trkpt lat="46.4046239" lon="12.6063443"><ele>884.0</ele><time>2026-04-12T09:59:22.983Z</time></trkpt><trkpt lat="46.4045686" lon="12.6065303"><ele>882.5</ele><time>2026-04-12T09:59:23.983Z</time></trkpt><trkpt lat="46.4045216" lon="12.6066964"><ele>881.0</ele><time>2026-04-12T09:59:24.984Z</time></trkpt><trkpt lat="46.404476" lon="12.6068516"><ele>881.0000000000001</ele><time>2026-04-12T09:59:25.983Z</time></trkpt><trkpt lat="46.40443" lon="12.6069852"><ele>881.0</ele><time>2026-04-12T09:59:26.983Z</time></trkpt><trkpt lat="46.404372" lon="12.6070878"><ele>881.0</ele><time>2026-04-12T09:59:27.983Z</time></trkpt><trkpt lat="46.4043136" lon="12.6071728"><ele>881.0</ele><time>2026-04-12T09:59:28.983Z</time></trkpt><trkpt lat="46.404255" lon="12.6072509"><ele>881.0000000000001</ele><time>2026-04-12T09:59:29.983Z</time></trkpt><trkpt lat="46.4042017" lon="12.6073235"><ele>881.0</ele><time>2026-04-12T09:59:30.983Z</time></trkpt><trkpt lat="46.4041506" lon="12.6073947"><ele>881.0000000000001</ele><time>2026-04-12T09:59:31.983Z</time></trkpt><trkpt lat="46.4041032" lon="12.6074559"><ele>881.0</ele><time>2026-04-12T09:59:32.983Z</time></trkpt><trkpt lat="46.4040323" lon="12.6075753"><ele>881.0</ele><time>2026-04-12T09:59:34.983Z</time></trkpt><trkpt lat="46.4039766" lon="12.6076748"><ele>881.0</ele><time>2026-04-12T09:59:36.983Z</time></trkpt><trkpt lat="46.4039594" lon="12.6078313"><ele>881.0000000000001</ele><time>2026-04-12T10:00:16.983Z</time></trkpt><trkpt lat="46.4039672" lon="12.6079302"><ele>881.0</ele><time>2026-04-12T10:00:17.983Z</time></trkpt><trkpt lat="46.4039864" lon="12.6080992"><ele>881.0</ele><time>2026-04-12T10:00:19.983Z</time></trkpt><trkpt lat="46.4040227" lon="12.6082558"><ele>880.9999999999999</ele><time>2026-04-12T10:00:21.983Z</time></trkpt><trkpt lat="46.4040276" lon="12.6083525"><ele>880.9999999999999</ele><time>2026-04-12T10:00:22.983Z</time></trkpt><trkpt lat="46.4040081" lon="12.6084775"><ele>881.0</ele><time>2026-04-12T10:00:23.983Z</time></trkpt><trkpt lat="46.4039721" lon="12.6086222"><ele>881.0</ele><time>2026-04-12T10:00:24.984Z</time></trkpt><trkpt lat="46.4039263" lon="12.6087855"><ele>881.75</ele><time>2026-04-12T10:00:25.983Z</time></trkpt><trkpt lat="46.4038759" lon="12.6089542"><ele>882.5</ele><time>2026-04-12T10:00:26.983Z</time></trkpt><trkpt lat="46.4038196" lon="12.6091461"><ele>883.25</ele><time>2026-04-12T10:00:27.983Z</time></trkpt><trkpt lat="46.403771" lon="12.6093388"><ele>884.0</ele><time>2026-04-12T10:00:28.983Z</time></trkpt><trkpt lat="46.4037376" lon="12.6095588"><ele>878.75</ele><time>2026-04-12T10:00:29.983Z</time></trkpt><trkpt lat="46.4037292" lon="12.6097772"><ele>873.5</ele><time>2026-04-12T10:00:30.984Z</time></trkpt><trkpt lat="46.4037333" lon="12.6099923"><ele>868.25</ele><time>2026-04-12T10:00:31.983Z</time></trkpt><trkpt lat="46.4037228" lon="12.610209"><ele>863.0</ele><time>2026-04-12T10:00:32.983Z</time></trkpt><trkpt lat="46.4036922" lon="12.6104297"><ele>863.0</ele><time>2026-04-12T10:00:33.983Z</time></trkpt><trkpt lat="46.4036521" lon="12.6106441"><ele>863.0</ele><time>2026-04-12T10:00:34.983Z</time></trkpt><trkpt lat="46.4036042" lon="12.6108476"><ele>863.0</ele><time>2026-04-12T10:00:35.984Z</time></trkpt><trkpt lat="46.4035588" lon="12.6110462"><ele>863.0</ele><time>2026-04-12T10:00:36.983Z</time></trkpt><trkpt lat="46.403517" lon="12.6112287"><ele>863.0</ele><time>2026-04-12T10:00:37.984Z</time></trkpt><trkpt lat="46.4034727" lon="12.6114006"><ele>863.0</ele><time>2026-04-12T10:00:38.983Z</time></trkpt><trkpt lat="46.4034361" lon="12.6115755"><ele>863.0</ele><time>2026-04-12T10:00:39.983Z</time></trkpt><trkpt lat="46.4033925" lon="12.6117392"><ele>863.0</ele><time>2026-04-12T10:00:40.983Z</time></trkpt><trkpt lat="46.4033254" lon="12.6118804"><ele>865.0</ele><time>2026-04-12T10:00:41.983Z</time></trkpt><trkpt lat="46.4032372" lon="12.6120026"><ele>867.0</ele><time>2026-04-12T10:00:42.983Z</time></trkpt><trkpt lat="46.4031441" lon="12.6120935"><ele>869.0</ele><time>2026-04-12T10:00:43.983Z</time></trkpt><trkpt lat="46.4030651" lon="12.6121968"><ele>871.0</ele><time>2026-04-12T10:00:44.983Z</time></trkpt><trkpt lat="46.4030041" lon="12.6123388"><ele>865.75</ele><time>2026-04-12T10:00:45.983Z</time></trkpt><trkpt lat="46.402973" lon="12.6125231"><ele>860.5</ele><time>2026-04-12T10:00:46.983Z</time></trkpt><trkpt lat="46.4029551" lon="12.6126983"><ele>855.25</ele><time>2026-04-12T10:00:47.983Z</time></trkpt><trkpt lat="46.4029361" lon="12.6128711"><ele>850.0</ele><time>2026-04-12T10:00:48.983Z</time></trkpt><trkpt lat="46.4029152" lon="12.6130446"><ele>849.5</ele><time>2026-04-12T10:00:49.983Z</time></trkpt><trkpt lat="46.4028789" lon="12.613201"><ele>849.0</ele><time>2026-04-12T10:00:50.984Z</time></trkpt><trkpt lat="46.4028199" lon="12.6133435"><ele>848.5</ele><time>2026-04-12T10:00:51.983Z</time></trkpt><trkpt lat="46.4027335" lon="12.6134569"><ele>848.0</ele><time>2026-04-12T10:00:52.983Z</time></trkpt><trkpt lat="46.402619" lon="12.6135369"><ele>848.0</ele><time>2026-04-12T10:00:53.983Z</time></trkpt><trkpt lat="46.4025055" lon="12.613562"><ele>848.0</ele><time>2026-04-12T10:00:54.983Z</time></trkpt><trkpt lat="46.4023927" lon="12.6135551"><ele>848.0</ele><time>2026-04-12T10:00:55.983Z</time></trkpt><trkpt lat="46.4022842" lon="12.6135397"><ele>848.0</ele><time>2026-04-12T10:00:56.983Z</time></trkpt><trkpt lat="46.4021717" lon="12.6135682"><ele>846.0</ele><time>2026-04-12T10:00:57.983Z</time></trkpt><trkpt lat="46.4020655" lon="12.6136306"><ele>844.0</ele><time>2026-04-12T10:00:58.983Z</time></trkpt><trkpt lat="46.4019728" lon="12.61372"><ele>842.0</ele><time>2026-04-12T10:00:59.983Z</time></trkpt><trkpt lat="46.4018885" lon="12.6138285"><ele>840.0</ele><time>2026-04-12T10:01:00.983Z</time></trkpt><trkpt lat="46.4018099" lon="12.613935"><ele>838.0</ele><time>2026-04-12T10:01:01.983Z</time></trkpt><trkpt lat="46.4017391" lon="12.6140412"><ele>837.0</ele><time>2026-04-12T10:01:02.983Z</time></trkpt><trkpt lat="46.4016893" lon="12.6141708"><ele>836.0</ele><time>2026-04-12T10:01:03.984Z</time></trkpt><trkpt lat="46.4016691" lon="12.6143276"><ele>835.0</ele><time>2026-04-12T10:01:04.983Z</time></trkpt><trkpt lat="46.4016922" lon="12.6144881"><ele>834.0</ele><time>2026-04-12T10:01:05.983Z</time></trkpt><trkpt lat="46.4017493" lon="12.6146465"><ele>833.0</ele><time>2026-04-12T10:01:06.983Z</time></trkpt><trkpt lat="46.4018198" lon="12.6147728"><ele>833.4</ele><time>2026-04-12T10:01:07.983Z</time></trkpt><trkpt lat="46.4018885" lon="12.6148914"><ele>833.8</ele><time>2026-04-12T10:01:08.984Z</time></trkpt><trkpt lat="46.4019486" lon="12.6150051"><ele>834.2</ele><time>2026-04-12T10:01:09.983Z</time></trkpt><trkpt lat="46.4019861" lon="12.6151331"><ele>834.6</ele><time>2026-04-12T10:01:10.983Z</time></trkpt><trkpt lat="46.4019761" lon="12.6152722"><ele>835.0</ele><time>2026-04-12T10:01:11.983Z</time></trkpt><trkpt lat="46.4019251" lon="12.6154157"><ele>835.0</ele><time>2026-04-12T10:01:12.983Z</time></trkpt><trkpt lat="46.4018387" lon="12.615562"><ele>835.0</ele><time>2026-04-12T10:01:13.984Z</time></trkpt><trkpt lat="46.4017342" lon="12.6156946"><ele>835.0</ele><time>2026-04-12T10:01:14.983Z</time></trkpt><trkpt lat="46.4016137" lon="12.6158117"><ele>835.0</ele><time>2026-04-12T10:01:15.983Z</time></trkpt><trkpt lat="46.4014966" lon="12.6159154"><ele>835.0</ele><time>2026-04-12T10:01:16.983Z</time></trkpt><trkpt lat="46.4013789" lon="12.6160493"><ele>835.0</ele><time>2026-04-12T10:01:17.983Z</time></trkpt><trkpt lat="46.4012735" lon="12.616185"><ele>835.0</ele><time>2026-04-12T10:01:18.983Z</time></trkpt><trkpt lat="46.4011738" lon="12.6163231"><ele>835.0</ele><time>2026-04-12T10:01:19.983Z</time></trkpt><trkpt lat="46.4010927" lon="12.6164905"><ele>833.6666666666666</ele><time>2026-04-12T10:01:20.983Z</time></trkpt><trkpt lat="46.4010281" lon="12.6166896"><ele>832.3333333333333</ele><time>2026-04-12T10:01:21.983Z</time></trkpt><trkpt lat="46.4009764" lon="12.6169034"><ele>831.0</ele><time>2026-04-12T10:01:22.983Z</time></trkpt><trkpt lat="46.4009336" lon="12.6171094"><ele>831.0</ele><time>2026-04-12T10:01:23.983Z</time></trkpt><trkpt lat="46.4008921" lon="12.6173142"><ele>831.0</ele><time>2026-04-12T10:01:24.983Z</time></trkpt><trkpt lat="46.4008508" lon="12.6175126"><ele>831.0</ele><time>2026-04-12T10:01:25.983Z</time></trkpt><trkpt lat="46.4007947" lon="12.617702"><ele>831.0</ele><time>2026-04-12T10:01:26.983Z</time></trkpt><trkpt lat="46.4007189" lon="12.6178678"><ele>833.5</ele><time>2026-04-12T10:01:27.983Z</time></trkpt><trkpt lat="46.4006259" lon="12.6179992"><ele>836.0</ele><time>2026-04-12T10:01:28.983Z</time></trkpt><trkpt lat="46.4005235" lon="12.6181004"><ele>838.5</ele><time>2026-04-12T10:01:29.983Z</time></trkpt><trkpt lat="46.4004319" lon="12.6182248"><ele>841.0</ele><time>2026-04-12T10:01:30.983Z</time></trkpt><trkpt lat="46.4003706" lon="12.6183914"><ele>832.5</ele><time>2026-04-12T10:01:31.983Z</time></trkpt><trkpt lat="46.4003369" lon="12.6185858"><ele>824.0</ele><time>2026-04-12T10:01:32.983Z</time></trkpt><trkpt lat="46.4003284" lon="12.6187772"><ele>815.5</ele><time>2026-04-12T10:01:33.983Z</time></trkpt><trkpt lat="46.4003039" lon="12.6189632"><ele>807.0</ele><time>2026-04-12T10:01:34.983Z</time></trkpt><trkpt lat="46.4002533" lon="12.6191363"><ele>807.0</ele><time>2026-04-12T10:01:35.983Z</time></trkpt><trkpt lat="46.4001926" lon="12.6193011"><ele>807.0</ele><time>2026-04-12T10:01:36.984Z</time></trkpt><trkpt lat="46.4001316" lon="12.6194333"><ele>807.0</ele><time>2026-04-12T10:01:37.983Z</time></trkpt><trkpt lat="46.4000875" lon="12.6195439"><ele>807.0</ele><time>2026-04-12T10:01:38.983Z</time></trkpt><trkpt lat="46.4000553" lon="12.6196426"><ele>807.0</ele><time>2026-04-12T10:01:39.983Z</time></trkpt><trkpt lat="46.4000111" lon="12.6197723"><ele>809.1666666666666</ele><time>2026-04-12T10:01:41.983Z</time></trkpt><trkpt lat="46.3999863" lon="12.6198563"><ele>811.3333333333333</ele><time>2026-04-12T10:01:44.983Z</time></trkpt><trkpt lat="46.3999698" lon="12.6199622"><ele>813.5</ele><time>2026-04-12T10:02:02.983Z</time></trkpt><trkpt lat="46.3999411" lon="12.6200662"><ele>815.6666666666666</ele><time>2026-04-12T10:02:03.983Z</time></trkpt><trkpt lat="46.3999036" lon="12.6201787"><ele>817.8333333333333</ele><time>2026-04-12T10:02:04.984Z</time></trkpt><trkpt lat="46.3998618" lon="12.620311"><ele>820.0</ele><time>2026-04-12T10:02:05.983Z</time></trkpt><trkpt lat="46.3998095" lon="12.6204406"><ele>823.5</ele><time>2026-04-12T10:02:06.983Z</time></trkpt><trkpt lat="46.3997419" lon="12.6205768"><ele>827.0</ele><time>2026-04-12T10:02:07.983Z</time></trkpt><trkpt lat="46.3996569" lon="12.6207294"><ele>830.5</ele><time>2026-04-12T10:02:08.983Z</time></trkpt><trkpt lat="46.3995607" lon="12.6208763"><ele>834.0</ele><time>2026-04-12T10:02:09.983Z</time></trkpt><trkpt lat="46.3994637" lon="12.6210199"><ele>831.25</ele><time>2026-04-12T10:02:10.983Z</time></trkpt><trkpt lat="46.3993661" lon="12.6211642"><ele>828.5</ele><time>2026-04-12T10:02:11.983Z</time></trkpt><trkpt lat="46.3992718" lon="12.6213106"><ele>825.75</ele><time>2026-04-12T10:02:12.983Z</time></trkpt><trkpt lat="46.3991801" lon="12.6214601"><ele>823.0</ele><time>2026-04-12T10:02:13.983Z</time></trkpt><trkpt lat="46.3990797" lon="12.6216035"><ele>823.0</ele><time>2026-04-12T10:02:14.983Z</time></trkpt><trkpt lat="46.3989667" lon="12.6217294"><ele>823.0</ele><time>2026-04-12T10:02:15.983Z</time></trkpt><trkpt lat="46.3988429" lon="12.6218394"><ele>823.0</ele><time>2026-04-12T10:02:16.983Z</time></trkpt><trkpt lat="46.39872" lon="12.6219286"><ele>823.0</ele><time>2026-04-12T10:02:17.983Z</time></trkpt><trkpt lat="46.3985986" lon="12.6220136"><ele>819.75</ele><time>2026-04-12T10:02:18.983Z</time></trkpt><trkpt lat="46.3984784" lon="12.6221005"><ele>816.5</ele><time>2026-04-12T10:02:19.983Z</time></trkpt><trkpt lat="46.3983619" lon="12.6221927"><ele>813.25</ele><time>2026-04-12T10:02:20.983Z</time></trkpt><trkpt lat="46.3982574" lon="12.6223051"><ele>810.0</ele><time>2026-04-12T10:02:21.983Z</time></trkpt><trkpt lat="46.398167" lon="12.6224447"><ele>810.0</ele><time>2026-04-12T10:02:22.983Z</time></trkpt><trkpt lat="46.3980897" lon="12.6226223"><ele>810.0</ele><time>2026-04-12T10:02:23.983Z</time></trkpt><trkpt lat="46.3980146" lon="12.6228315"><ele>810.0</ele><time>2026-04-12T10:02:24.983Z</time></trkpt><trkpt lat="46.3979462" lon="12.6230416"><ele>803.3333333333333</ele><time>2026-04-12T10:02:25.984Z</time></trkpt><trkpt lat="46.3978765" lon="12.6232555"><ele>796.6666666666666</ele><time>2026-04-12T10:02:26.983Z</time></trkpt><trkpt lat="46.3978073" lon="12.6234589"><ele>790.0</ele><time>2026-04-12T10:02:27.983Z</time></trkpt><trkpt lat="46.3977437" lon="12.6236584"><ele>790.0</ele><time>2026-04-12T10:02:28.984Z</time></trkpt><trkpt lat="46.3976847" lon="12.6238575"><ele>790.0</ele><time>2026-04-12T10:02:29.984Z</time></trkpt><trkpt lat="46.3976358" lon="12.6240587"><ele>790.0</ele><time>2026-04-12T10:02:30.983Z</time></trkpt><trkpt lat="46.3975963" lon="12.6242724"><ele>790.0</ele><time>2026-04-12T10:02:31.983Z</time></trkpt><trkpt lat="46.3975694" lon="12.6244916"><ele>791.6666666666666</ele><time>2026-04-12T10:02:32.983Z</time></trkpt><trkpt lat="46.3975549" lon="12.6247156"><ele>793.3333333333333</ele><time>2026-04-12T10:02:33.985Z</time></trkpt><trkpt lat="46.3975634" lon="12.624942"><ele>795.0</ele><time>2026-04-12T10:02:34.983Z</time></trkpt><trkpt lat="46.3975887" lon="12.6251617"><ele>795.3333333333333</ele><time>2026-04-12T10:02:35.983Z</time></trkpt><trkpt lat="46.3976125" lon="12.6253727"><ele>795.6666666666666</ele><time>2026-04-12T10:02:36.983Z</time></trkpt><trkpt lat="46.3976249" lon="12.6255946"><ele>796.0</ele><time>2026-04-12T10:02:37.983Z</time></trkpt><trkpt lat="46.3976118" lon="12.6258349"><ele>796.0</ele><time>2026-04-12T10:02:38.983Z</time></trkpt><trkpt lat="46.3975797" lon="12.6260778"><ele>796.0</ele><time>2026-04-12T10:02:39.983Z</time></trkpt><trkpt lat="46.397536" lon="12.6263185"><ele>796.0</ele><time>2026-04-12T10:02:40.984Z</time></trkpt><trkpt lat="46.397485" lon="12.6265835"><ele>796.3333333333333</ele><time>2026-04-12T10:02:41.983Z</time></trkpt><trkpt lat="46.3974351" lon="12.6268561"><ele>796.6666666666667</ele><time>2026-04-12T10:02:42.983Z</time></trkpt><trkpt lat="46.3973842" lon="12.6271262"><ele>797.0</ele><time>2026-04-12T10:02:43.983Z</time></trkpt><trkpt lat="46.3973343" lon="12.6274141"><ele>797.0</ele><time>2026-04-12T10:02:44.984Z</time></trkpt><trkpt lat="46.397286" lon="12.6276837"><ele>797.0</ele><time>2026-04-12T10:02:45.983Z</time></trkpt><trkpt lat="46.3972363" lon="12.6279465"><ele>797.0</ele><time>2026-04-12T10:02:46.984Z</time></trkpt><trkpt lat="46.3971877" lon="12.6281976"><ele>792.3333333333334</ele><time>2026-04-12T10:02:47.983Z</time></trkpt><trkpt lat="46.3971427" lon="12.628443"><ele>787.6666666666667</ele><time>2026-04-12T10:02:48.983Z</time></trkpt><trkpt lat="46.3970994" lon="12.6286782"><ele>783.0</ele><time>2026-04-12T10:02:49.983Z</time></trkpt><trkpt lat="46.3970565" lon="12.628907"><ele>782.6666666666667</ele><time>2026-04-12T10:02:50.983Z</time></trkpt><trkpt lat="46.3970143" lon="12.629131"><ele>782.3333333333334</ele><time>2026-04-12T10:02:51.983Z</time></trkpt><trkpt lat="46.3969718" lon="12.629342"><ele>782.0</ele><time>2026-04-12T10:02:52.983Z</time></trkpt><trkpt lat="46.3969314" lon="12.6295519"><ele>781.0</ele><time>2026-04-12T10:02:53.983Z</time></trkpt><trkpt lat="46.3968923" lon="12.6297679"><ele>780.0</ele><time>2026-04-12T10:02:54.985Z</time></trkpt><trkpt lat="46.3968502" lon="12.6299945"><ele>779.0</ele><time>2026-04-12T10:02:55.984Z</time></trkpt><trkpt lat="46.3968028" lon="12.6302269"><ele>781.0</ele><time>2026-04-12T10:02:56.983Z</time></trkpt><trkpt lat="46.3967529" lon="12.6304777"><ele>783.0</ele><time>2026-04-12T10:02:57.983Z</time></trkpt><trkpt lat="46.3967037" lon="12.6307409"><ele>785.0</ele><time>2026-04-12T10:02:58.983Z</time></trkpt><trkpt lat="46.396651" lon="12.6310038"><ele>785.0</ele><time>2026-04-12T10:02:59.983Z</time></trkpt><trkpt lat="46.3965968" lon="12.6312632"><ele>785.0</ele><time>2026-04-12T10:03:00.983Z</time></trkpt><trkpt lat="46.3965443" lon="12.6315245"><ele>785.0</ele><time>2026-04-12T10:03:01.983Z</time></trkpt><trkpt lat="46.3964934" lon="12.6317836"><ele>785.3333333333334</ele><time>2026-04-12T10:03:02.983Z</time></trkpt><trkpt lat="46.3964451" lon="12.6320369"><ele>785.6666666666667</ele><time>2026-04-12T10:03:03.983Z</time></trkpt><trkpt lat="46.3963971" lon="12.632286"><ele>786.0</ele><time>2026-04-12T10:03:04.983Z</time></trkpt><trkpt lat="46.3963483" lon="12.6325341"><ele>780.6666666666667</ele><time>2026-04-12T10:03:05.984Z</time></trkpt><trkpt lat="46.3962991" lon="12.6327792"><ele>775.3333333333334</ele><time>2026-04-12T10:03:06.983Z</time></trkpt><trkpt lat="46.3962492" lon="12.633023"><ele>770.0</ele><time>2026-04-12T10:03:07.984Z</time></trkpt><trkpt lat="46.3961999" lon="12.6332663"><ele>770.0</ele><time>2026-04-12T10:03:08.983Z</time></trkpt><trkpt lat="46.3961534" lon="12.6335085"><ele>770.0</ele><time>2026-04-12T10:03:09.983Z</time></trkpt><trkpt lat="46.3961156" lon="12.633755"><ele>770.0</ele><time>2026-04-12T10:03:10.983Z</time></trkpt><trkpt lat="46.3960969" lon="12.6340153"><ele>772.0</ele><time>2026-04-12T10:03:11.983Z</time></trkpt><trkpt lat="46.3960889" lon="12.6342876"><ele>774.0</ele><time>2026-04-12T10:03:12.983Z</time></trkpt><trkpt lat="46.3960875" lon="12.6345631"><ele>776.0</ele><time>2026-04-12T10:03:13.983Z</time></trkpt><trkpt lat="46.3960874" lon="12.634838"><ele>776.6666666666667</ele><time>2026-04-12T10:03:14.983Z</time></trkpt><trkpt lat="46.3960847" lon="12.6351141"><ele>777.3333333333333</ele><time>2026-04-12T10:03:15.983Z</time></trkpt><trkpt lat="46.3960786" lon="12.6354015"><ele>778.0</ele><time>2026-04-12T10:03:16.983Z</time></trkpt><trkpt lat="46.396062" lon="12.6357016"><ele>779.6666666666666</ele><time>2026-04-12T10:03:17.983Z</time></trkpt><trkpt lat="46.3960369" lon="12.6359867"><ele>781.3333333333333</ele><time>2026-04-12T10:03:18.983Z</time></trkpt><trkpt lat="46.3960087" lon="12.6362658"><ele>783.0</ele><time>2026-04-12T10:03:19.984Z</time></trkpt><trkpt lat="46.3959806" lon="12.6365421"><ele>784.6666666666667</ele><time>2026-04-12T10:03:20.983Z</time></trkpt><trkpt lat="46.3959532" lon="12.636811"><ele>786.3333333333334</ele><time>2026-04-12T10:03:21.984Z</time></trkpt><trkpt lat="46.3959273" lon="12.6370744"><ele>788.0</ele><time>2026-04-12T10:03:22.984Z</time></trkpt><trkpt lat="46.395902" lon="12.637324"><ele>788.0</ele><time>2026-04-12T10:03:23.983Z</time></trkpt><trkpt lat="46.3958783" lon="12.6375553"><ele>788.0</ele><time>2026-04-12T10:03:24.983Z</time></trkpt><trkpt lat="46.395859" lon="12.6377716"><ele>788.0</ele><time>2026-04-12T10:03:25.983Z</time></trkpt><trkpt lat="46.3958396" lon="12.6379812"><ele>787.6666666666667</ele><time>2026-04-12T10:03:26.983Z</time></trkpt><trkpt lat="46.3958316" lon="12.638188"><ele>787.3333333333333</ele><time>2026-04-12T10:03:27.984Z</time></trkpt><trkpt lat="46.3958567" lon="12.6384095"><ele>787.0</ele><time>2026-04-12T10:03:28.983Z</time></trkpt><trkpt lat="46.3959171" lon="12.638635"><ele>785.3333333333333</ele><time>2026-04-12T10:03:29.984Z</time></trkpt><trkpt lat="46.3960069" lon="12.6388425"><ele>783.6666666666667</ele><time>2026-04-12T10:03:30.983Z</time></trkpt><trkpt lat="46.3961139" lon="12.6390456"><ele>782.0</ele><time>2026-04-12T10:03:31.983Z</time></trkpt><trkpt lat="46.3962282" lon="12.6392631"><ele>783.3333333333334</ele><time>2026-04-12T10:03:32.983Z</time></trkpt><trkpt lat="46.3963162" lon="12.6394727"><ele>784.6666666666667</ele><time>2026-04-12T10:03:33.983Z</time></trkpt><trkpt lat="46.396394" lon="12.6396756"><ele>786.0</ele><time>2026-04-12T10:03:34.983Z</time></trkpt><trkpt lat="46.3964637" lon="12.6398684"><ele>791.5</ele><time>2026-04-12T10:03:35.983Z</time></trkpt><trkpt lat="46.3965277" lon="12.6400506"><ele>797.0</ele><time>2026-04-12T10:03:36.983Z</time></trkpt><trkpt lat="46.3965913" lon="12.6402308"><ele>802.5</ele><time>2026-04-12T10:03:37.983Z</time></trkpt><trkpt lat="46.396655" lon="12.6404132"><ele>808.0</ele><time>2026-04-12T10:03:38.983Z</time></trkpt><trkpt lat="46.3967198" lon="12.6405951"><ele>808.0</ele><time>2026-04-12T10:03:39.983Z</time></trkpt><trkpt lat="46.3967836" lon="12.6407731"><ele>808.0</ele><time>2026-04-12T10:03:40.983Z</time></trkpt><trkpt lat="46.3968446" lon="12.640948"><ele>808.0</ele><time>2026-04-12T10:03:41.983Z</time></trkpt><trkpt lat="46.3969025" lon="12.6411054"><ele>808.0</ele><time>2026-04-12T10:03:42.983Z</time></trkpt><trkpt lat="46.3969573" lon="12.6412454"><ele>808.0</ele><time>2026-04-12T10:03:43.984Z</time></trkpt><trkpt lat="46.3970041" lon="12.6413789"><ele>808.0</ele><time>2026-04-12T10:03:44.983Z</time></trkpt><trkpt lat="46.3970164" lon="12.64152"><ele>808.0</ele><time>2026-04-12T10:03:45.983Z</time></trkpt><trkpt lat="46.39699" lon="12.6416534"><ele>808.0</ele><time>2026-04-12T10:03:46.983Z</time></trkpt><trkpt lat="46.3969321" lon="12.641789"><ele>808.0</ele><time>2026-04-12T10:03:47.984Z</time></trkpt><trkpt lat="46.3968764" lon="12.6419143"><ele>808.0</ele><time>2026-04-12T10:03:48.984Z</time></trkpt><trkpt lat="46.3968096" lon="12.6420256"><ele>808.0</ele><time>2026-04-12T10:03:49.983Z</time></trkpt><trkpt lat="46.3967178" lon="12.6420823"><ele>808.0</ele><time>2026-04-12T10:03:50.983Z</time></trkpt><trkpt lat="46.3966111" lon="12.6420807"><ele>808.0</ele><time>2026-04-12T10:03:51.984Z</time></trkpt><trkpt lat="46.3964924" lon="12.6420131"><ele>808.0</ele><time>2026-04-12T10:03:52.984Z</time></trkpt><trkpt lat="46.3963797" lon="12.6419104"><ele>808.0</ele><time>2026-04-12T10:03:53.983Z</time></trkpt><trkpt lat="46.3962795" lon="12.6418325"><ele>808.0</ele><time>2026-04-12T10:03:54.983Z</time></trkpt><trkpt lat="46.3961651" lon="12.6418011"><ele>808.0</ele><time>2026-04-12T10:03:55.983Z</time></trkpt><trkpt lat="46.3960514" lon="12.6418236"><ele>808.0</ele><time>2026-04-12T10:03:56.983Z</time></trkpt><trkpt lat="46.3959389" lon="12.6419071"><ele>809.75</ele><time>2026-04-12T10:03:57.983Z</time></trkpt><trkpt lat="46.3958233" lon="12.6420373"><ele>811.5</ele><time>2026-04-12T10:03:58.983Z</time></trkpt><trkpt lat="46.3957253" lon="12.6421774"><ele>813.25</ele><time>2026-04-12T10:03:59.983Z</time></trkpt><trkpt lat="46.3956347" lon="12.6423453"><ele>815.0</ele><time>2026-04-12T10:04:00.983Z</time></trkpt><trkpt lat="46.3955483" lon="12.6425397"><ele>814.6666666666667</ele><time>2026-04-12T10:04:01.984Z</time></trkpt><trkpt lat="46.3954753" lon="12.6427547"><ele>814.3333333333333</ele><time>2026-04-12T10:04:02.983Z</time></trkpt><trkpt lat="46.3954269" lon="12.6429725"><ele>814.0</ele><time>2026-04-12T10:04:03.983Z</time></trkpt><trkpt lat="46.3953999" lon="12.6431949"><ele>814.0</ele><time>2026-04-12T10:04:04.984Z</time></trkpt><trkpt lat="46.3953924" lon="12.6434239"><ele>814.0</ele><time>2026-04-12T10:04:05.983Z</time></trkpt><trkpt lat="46.3954007" lon="12.6436679"><ele>814.0</ele><time>2026-04-12T10:04:06.983Z</time></trkpt><trkpt lat="46.3954212" lon="12.6439151"><ele>815.3333333333333</ele><time>2026-04-12T10:04:07.984Z</time></trkpt><trkpt lat="46.395447" lon="12.6441699"><ele>816.6666666666667</ele><time>2026-04-12T10:04:08.983Z</time></trkpt><trkpt lat="46.395474" lon="12.6444202"><ele>818.0</ele><time>2026-04-12T10:04:09.985Z</time></trkpt><trkpt lat="46.3955004" lon="12.6446663"><ele>821.0</ele><time>2026-04-12T10:04:10.984Z</time></trkpt><trkpt lat="46.3955293" lon="12.644915"><ele>824.0</ele><time>2026-04-12T10:04:11.983Z</time></trkpt><trkpt lat="46.3955722" lon="12.6451685"><ele>827.0</ele><time>2026-04-12T10:04:12.984Z</time></trkpt><trkpt lat="46.3956588" lon="12.6454361"><ele>828.0</ele><time>2026-04-12T10:04:13.983Z</time></trkpt><trkpt lat="46.3957994" lon="12.6457104"><ele>829.0</ele><time>2026-04-12T10:04:14.983Z</time></trkpt><trkpt lat="46.3959598" lon="12.6459628"><ele>832.6666666666666</ele><time>2026-04-12T10:04:15.983Z</time></trkpt><trkpt lat="46.3961162" lon="12.6461925"><ele>836.3333333333333</ele><time>2026-04-12T10:04:16.983Z</time></trkpt><trkpt lat="46.3962667" lon="12.6464074"><ele>840.0</ele><time>2026-04-12T10:04:17.983Z</time></trkpt><trkpt lat="46.3964112" lon="12.6466068"><ele>840.0</ele><time>2026-04-12T10:04:18.983Z</time></trkpt><trkpt lat="46.3965479" lon="12.6467993"><ele>840.0</ele><time>2026-04-12T10:04:19.984Z</time></trkpt><trkpt lat="46.3966732" lon="12.6469788"><ele>840.0</ele><time>2026-04-12T10:04:20.983Z</time></trkpt><trkpt lat="46.39679" lon="12.6471323"><ele>842.5</ele><time>2026-04-12T10:04:21.983Z</time></trkpt><trkpt lat="46.3968925" lon="12.6472724"><ele>845.0</ele><time>2026-04-12T10:04:22.983Z</time></trkpt><trkpt lat="46.3969806" lon="12.6473986"><ele>847.5</ele><time>2026-04-12T10:04:23.983Z</time></trkpt><trkpt lat="46.3970605" lon="12.6475117"><ele>850.0</ele><time>2026-04-12T10:04:24.983Z</time></trkpt><trkpt lat="46.3971311" lon="12.6476106"><ele>849.4999999999999</ele><time>2026-04-12T10:04:25.983Z</time></trkpt><trkpt lat="46.3971965" lon="12.6477011"><ele>849.0</ele><time>2026-04-12T10:04:26.983Z</time></trkpt><trkpt lat="46.397259" lon="12.6477872"><ele>848.5</ele><time>2026-04-12T10:04:27.983Z</time></trkpt><trkpt lat="46.3973185" lon="12.6478707"><ele>848.0</ele><time>2026-04-12T10:04:28.983Z</time></trkpt><trkpt lat="46.3973741" lon="12.6479523"><ele>847.4999999999999</ele><time>2026-04-12T10:04:29.984Z</time></trkpt><trkpt lat="46.3974287" lon="12.6480352"><ele>847.0</ele><time>2026-04-12T10:04:30.983Z</time></trkpt><trkpt lat="46.3974861" lon="12.648133"><ele>846.1666666666666</ele><time>2026-04-12T10:04:31.983Z</time></trkpt><trkpt lat="46.3975391" lon="12.6482366"><ele>845.3333333333333</ele><time>2026-04-12T10:04:32.983Z</time></trkpt><trkpt lat="46.3975763" lon="12.6483428"><ele>844.5</ele><time>2026-04-12T10:04:33.983Z</time></trkpt><trkpt lat="46.397601" lon="12.6484623"><ele>843.6666666666667</ele><time>2026-04-12T10:04:34.983Z</time></trkpt><trkpt lat="46.3976144" lon="12.6485906"><ele>842.8333333333334</ele><time>2026-04-12T10:04:35.983Z</time></trkpt><trkpt lat="46.3976199" lon="12.6487183"><ele>842.0</ele><time>2026-04-12T10:04:36.983Z</time></trkpt><trkpt lat="46.3976145" lon="12.6488458"><ele>840.8333333333334</ele><time>2026-04-12T10:04:37.984Z</time></trkpt><trkpt lat="46.3976009" lon="12.6489695"><ele>839.6666666666667</ele><time>2026-04-12T10:04:38.983Z</time></trkpt><trkpt lat="46.397585" lon="12.6490941"><ele>838.5</ele><time>2026-04-12T10:04:39.983Z</time></trkpt><trkpt lat="46.3975686" lon="12.6492201"><ele>837.3333333333333</ele><time>2026-04-12T10:04:40.984Z</time></trkpt><trkpt lat="46.3975569" lon="12.6493501"><ele>836.1666666666666</ele><time>2026-04-12T10:04:41.984Z</time></trkpt><trkpt lat="46.3975412" lon="12.6494813"><ele>835.0</ele><time>2026-04-12T10:04:42.983Z</time></trkpt><trkpt lat="46.3975221" lon="12.6496099"><ele>834.2</ele><time>2026-04-12T10:04:43.983Z</time></trkpt><trkpt lat="46.3975044" lon="12.649751"><ele>833.4</ele><time>2026-04-12T10:04:44.983Z</time></trkpt><trkpt lat="46.3974863" lon="12.6499027"><ele>832.5999999999999</ele><time>2026-04-12T10:04:45.983Z</time></trkpt><trkpt lat="46.3974692" lon="12.6500631"><ele>831.8</ele><time>2026-04-12T10:04:46.983Z</time></trkpt><trkpt lat="46.3974532" lon="12.650228"><ele>831.0</ele><time>2026-04-12T10:04:47.983Z</time></trkpt><trkpt lat="46.3974347" lon="12.6503945"><ele>831.0</ele><time>2026-04-12T10:04:48.982Z</time></trkpt><trkpt lat="46.3974148" lon="12.6505574"><ele>831.0</ele><time>2026-04-12T10:04:49.982Z</time></trkpt><trkpt lat="46.3973968" lon="12.6507133"><ele>831.0</ele><time>2026-04-12T10:04:50.982Z</time></trkpt><trkpt lat="46.397383" lon="12.6508719"><ele>831.0</ele><time>2026-04-12T10:04:51.982Z</time></trkpt><trkpt lat="46.3973676" lon="12.6510264"><ele>831.0</ele><time>2026-04-12T10:04:52.982Z</time></trkpt><trkpt lat="46.3973534" lon="12.6511804"><ele>830.8</ele><time>2026-04-12T10:04:53.982Z</time></trkpt><trkpt lat="46.3973375" lon="12.6513337"><ele>830.5999999999999</ele><time>2026-04-12T10:04:54.982Z</time></trkpt><trkpt lat="46.3973193" lon="12.6514837"><ele>830.4</ele><time>2026-04-12T10:04:55.982Z</time></trkpt><trkpt lat="46.3972967" lon="12.6516321"><ele>830.2</ele><time>2026-04-12T10:04:56.982Z</time></trkpt><trkpt lat="46.3972686" lon="12.6517777"><ele>830.0</ele><time>2026-04-12T10:04:57.982Z</time></trkpt><trkpt lat="46.3972354" lon="12.6519213"><ele>830.2</ele><time>2026-04-12T10:04:58.982Z</time></trkpt><trkpt lat="46.3971966" lon="12.6520621"><ele>830.4</ele><time>2026-04-12T10:04:59.982Z</time></trkpt><trkpt lat="46.3971558" lon="12.6522012"><ele>830.5999999999999</ele><time>2026-04-12T10:05:00.983Z</time></trkpt><trkpt lat="46.3971169" lon="12.6523417"><ele>830.8</ele><time>2026-04-12T10:05:01.982Z</time></trkpt><trkpt lat="46.3970735" lon="12.6524907"><ele>831.0</ele><time>2026-04-12T10:05:02.982Z</time></trkpt><trkpt lat="46.3970219" lon="12.6526673"><ele>827.5</ele><time>2026-04-12T10:05:03.982Z</time></trkpt><trkpt lat="46.3969724" lon="12.6528308"><ele>824.0</ele><time>2026-04-12T10:05:04.982Z</time></trkpt><trkpt lat="46.3969202" lon="12.6529905"><ele>820.5</ele><time>2026-04-12T10:05:05.982Z</time></trkpt><trkpt lat="46.3968713" lon="12.6531488"><ele>817.0</ele><time>2026-04-12T10:05:06.983Z</time></trkpt><trkpt lat="46.3968256" lon="12.6533054"><ele>817.0</ele><time>2026-04-12T10:05:07.982Z</time></trkpt><trkpt lat="46.3967798" lon="12.6534648"><ele>817.0</ele><time>2026-04-12T10:05:08.982Z</time></trkpt><trkpt lat="46.3967373" lon="12.6536397"><ele>817.0</ele><time>2026-04-12T10:05:09.982Z</time></trkpt><trkpt lat="46.3966986" lon="12.653818"><ele>817.0</ele><time>2026-04-12T10:05:10.982Z</time></trkpt><trkpt lat="46.3966619" lon="12.6539861"><ele>816.25</ele><time>2026-04-12T10:05:11.982Z</time></trkpt><trkpt lat="46.396624" lon="12.6541499"><ele>815.5</ele><time>2026-04-12T10:05:12.982Z</time></trkpt><trkpt lat="46.396591" lon="12.6543074"><ele>814.75</ele><time>2026-04-12T10:05:13.983Z</time></trkpt><trkpt lat="46.396562" lon="12.6544666"><ele>814.0</ele><time>2026-04-12T10:05:14.982Z</time></trkpt><trkpt lat="46.3965292" lon="12.6546271"><ele>813.0</ele><time>2026-04-12T10:05:15.982Z</time></trkpt><trkpt lat="46.3964964" lon="12.6547883"><ele>812.0</ele><time>2026-04-12T10:05:16.982Z</time></trkpt><trkpt lat="46.3964647" lon="12.6549517"><ele>811.0</ele><time>2026-04-12T10:05:17.982Z</time></trkpt><trkpt lat="46.396433" lon="12.6551151"><ele>810.0</ele><time>2026-04-12T10:05:18.983Z</time></trkpt><trkpt lat="46.3964002" lon="12.6552789"><ele>809.75</ele><time>2026-04-12T10:05:19.982Z</time></trkpt><trkpt lat="46.3963684" lon="12.6554434"><ele>809.5</ele><time>2026-04-12T10:05:20.983Z</time></trkpt><trkpt lat="46.3963335" lon="12.6556114"><ele>809.25</ele><time>2026-04-12T10:05:21.982Z</time></trkpt><trkpt lat="46.396293" lon="12.6558005"><ele>809.0</ele><time>2026-04-12T10:05:22.982Z</time></trkpt><trkpt lat="46.3962467" lon="12.6560061"><ele>806.0</ele><time>2026-04-12T10:05:23.983Z</time></trkpt><trkpt lat="46.3962009" lon="12.6562074"><ele>803.0</ele><time>2026-04-12T10:05:24.982Z</time></trkpt><trkpt lat="46.396154" lon="12.6564274"><ele>800.0</ele><time>2026-04-12T10:05:25.982Z</time></trkpt><trkpt lat="46.3961098" lon="12.6566439"><ele>800.0</ele><time>2026-04-12T10:05:26.983Z</time></trkpt><trkpt lat="46.3960611" lon="12.6568568"><ele>800.0</ele><time>2026-04-12T10:05:27.982Z</time></trkpt><trkpt lat="46.3960127" lon="12.6570688"><ele>800.0</ele><time>2026-04-12T10:05:28.982Z</time></trkpt><trkpt lat="46.3959651" lon="12.6572794"><ele>799.3333333333334</ele><time>2026-04-12T10:05:29.982Z</time></trkpt><trkpt lat="46.3959158" lon="12.6574877"><ele>798.6666666666667</ele><time>2026-04-12T10:05:30.982Z</time></trkpt><trkpt lat="46.3958566" lon="12.6576881"><ele>798.0</ele><time>2026-04-12T10:05:31.983Z</time></trkpt><trkpt lat="46.3957833" lon="12.6578871"><ele>800.3333333333333</ele><time>2026-04-12T10:05:32.983Z</time></trkpt><trkpt lat="46.3956966" lon="12.6580745"><ele>802.6666666666666</ele><time>2026-04-12T10:05:33.982Z</time></trkpt><trkpt lat="46.3955979" lon="12.6582506"><ele>805.0</ele><time>2026-04-12T10:05:34.982Z</time></trkpt><trkpt lat="46.3954893" lon="12.6584163"><ele>800.3333333333333</ele><time>2026-04-12T10:05:35.982Z</time></trkpt><trkpt lat="46.3953724" lon="12.6585765"><ele>795.6666666666667</ele><time>2026-04-12T10:05:36.982Z</time></trkpt><trkpt lat="46.3952516" lon="12.6587335"><ele>791.0</ele><time>2026-04-12T10:05:37.982Z</time></trkpt><trkpt lat="46.395132" lon="12.6588876"><ele>791.0</ele><time>2026-04-12T10:05:38.982Z</time></trkpt><trkpt lat="46.3950137" lon="12.6590433"><ele>791.0</ele><time>2026-04-12T10:05:39.982Z</time></trkpt><trkpt lat="46.3948949" lon="12.6591971"><ele>791.0</ele><time>2026-04-12T10:05:40.982Z</time></trkpt><trkpt lat="46.3947782" lon="12.6593537"><ele>786.6666666666667</ele><time>2026-04-12T10:05:41.983Z</time></trkpt><trkpt lat="46.3946637" lon="12.659517"><ele>782.3333333333333</ele><time>2026-04-12T10:05:42.983Z</time></trkpt><trkpt lat="46.3945489" lon="12.6596839"><ele>778.0</ele><time>2026-04-12T10:05:43.982Z</time></trkpt><trkpt lat="46.3944393" lon="12.6598546"><ele>778.0</ele><time>2026-04-12T10:05:44.983Z</time></trkpt><trkpt lat="46.394341" lon="12.6600241"><ele>778.0</ele><time>2026-04-12T10:05:45.982Z</time></trkpt><trkpt lat="46.3942576" lon="12.6601949"><ele>778.0</ele><time>2026-04-12T10:05:46.982Z</time></trkpt><trkpt lat="46.3941926" lon="12.6603781"><ele>778.0</ele><time>2026-04-12T10:05:47.983Z</time></trkpt><trkpt lat="46.3941437" lon="12.6605777"><ele>780.75</ele><time>2026-04-12T10:05:48.983Z</time></trkpt><trkpt lat="46.3941047" lon="12.660786"><ele>783.5</ele><time>2026-04-12T10:05:49.982Z</time></trkpt><trkpt lat="46.3940685" lon="12.6609952"><ele>786.25</ele><time>2026-04-12T10:05:50.983Z</time></trkpt><trkpt lat="46.3940271" lon="12.6612023"><ele>789.0</ele><time>2026-04-12T10:05:51.982Z</time></trkpt><trkpt lat="46.3939689" lon="12.6614041"><ele>789.75</ele><time>2026-04-12T10:05:52.982Z</time></trkpt><trkpt lat="46.3938911" lon="12.6615987"><ele>790.5</ele><time>2026-04-12T10:05:53.982Z</time></trkpt><trkpt lat="46.3938099" lon="12.661776"><ele>791.25</ele><time>2026-04-12T10:05:54.983Z</time></trkpt><trkpt lat="46.39373" lon="12.6619532"><ele>792.0</ele><time>2026-04-12T10:05:55.982Z</time></trkpt><trkpt lat="46.3936488" lon="12.6621256"><ele>787.5</ele><time>2026-04-12T10:05:56.982Z</time></trkpt><trkpt lat="46.39357" lon="12.6622983"><ele>783.0</ele><time>2026-04-12T10:05:57.982Z</time></trkpt><trkpt lat="46.3935012" lon="12.6624828"><ele>778.5</ele><time>2026-04-12T10:05:58.982Z</time></trkpt><trkpt lat="46.3934457" lon="12.6626813"><ele>774.0</ele><time>2026-04-12T10:05:59.982Z</time></trkpt><trkpt lat="46.3934163" lon="12.6628977"><ele>774.0</ele><time>2026-04-12T10:06:00.982Z</time></trkpt><trkpt lat="46.3934026" lon="12.6631237"><ele>774.0</ele><time>2026-04-12T10:06:01.983Z</time></trkpt><trkpt lat="46.393403" lon="12.6633547"><ele>774.0</ele><time>2026-04-12T10:06:02.982Z</time></trkpt><trkpt lat="46.393409" lon="12.6635869"><ele>774.0</ele><time>2026-04-12T10:06:03.982Z</time></trkpt><trkpt lat="46.3934119" lon="12.6638172"><ele>774.0</ele><time>2026-04-12T10:06:04.982Z</time></trkpt><trkpt lat="46.393411" lon="12.6640441"><ele>774.0</ele><time>2026-04-12T10:06:05.982Z</time></trkpt><trkpt lat="46.3933995" lon="12.6642696"><ele>774.3333333333333</ele><time>2026-04-12T10:06:06.982Z</time></trkpt><trkpt lat="46.3933805" lon="12.6644909"><ele>774.6666666666666</ele><time>2026-04-12T10:06:07.983Z</time></trkpt><trkpt lat="46.3933491" lon="12.6647065"><ele>775.0</ele><time>2026-04-12T10:06:08.982Z</time></trkpt><trkpt lat="46.3933119" lon="12.6649151"><ele>775.0</ele><time>2026-04-12T10:06:09.982Z</time></trkpt><trkpt lat="46.3932789" lon="12.665121"><ele>775.0</ele><time>2026-04-12T10:06:10.982Z</time></trkpt><trkpt lat="46.3932555" lon="12.6653328"><ele>775.0</ele><time>2026-04-12T10:06:11.982Z</time></trkpt><trkpt lat="46.3932401" lon="12.6655423"><ele>775.0</ele><time>2026-04-12T10:06:12.982Z</time></trkpt><trkpt lat="46.3932289" lon="12.6657473"><ele>775.5</ele><time>2026-04-12T10:06:13.982Z</time></trkpt><trkpt lat="46.393219" lon="12.6659415"><ele>776.0</ele><time>2026-04-12T10:06:14.982Z</time></trkpt><trkpt lat="46.3932095" lon="12.6661264"><ele>776.5</ele><time>2026-04-12T10:06:15.983Z</time></trkpt><trkpt lat="46.3931989" lon="12.666303"><ele>777.0</ele><time>2026-04-12T10:06:16.982Z</time></trkpt><trkpt lat="46.3931853" lon="12.6664695"><ele>776.0</ele><time>2026-04-12T10:06:17.982Z</time></trkpt><trkpt lat="46.3931717" lon="12.6666333"><ele>775.0</ele><time>2026-04-12T10:06:18.983Z</time></trkpt><trkpt lat="46.3931741" lon="12.6667995"><ele>774.0</ele><time>2026-04-12T10:06:19.982Z</time></trkpt><trkpt lat="46.3931985" lon="12.6669679"><ele>773.0</ele><time>2026-04-12T10:06:20.982Z</time></trkpt><trkpt lat="46.39324" lon="12.667131"><ele>771.75</ele><time>2026-04-12T10:06:21.982Z</time></trkpt><trkpt lat="46.3933009" lon="12.6672878"><ele>770.5</ele><time>2026-04-12T10:06:22.983Z</time></trkpt><trkpt lat="46.3933835" lon="12.6674201"><ele>769.25</ele><time>2026-04-12T10:06:23.982Z</time></trkpt><trkpt lat="46.3934802" lon="12.6675258"><ele>768.0</ele><time>2026-04-12T10:06:24.982Z</time></trkpt><trkpt lat="46.3935673" lon="12.6676379"><ele>768.0</ele><time>2026-04-12T10:06:25.982Z</time></trkpt><trkpt lat="46.3936401" lon="12.6677744"><ele>768.0</ele><time>2026-04-12T10:06:26.982Z</time></trkpt><trkpt lat="46.3937014" lon="12.6679132"><ele>768.0</ele><time>2026-04-12T10:06:27.982Z</time></trkpt><trkpt lat="46.3937603" lon="12.6680516"><ele>768.0</ele><time>2026-04-12T10:06:28.982Z</time></trkpt><trkpt lat="46.3938069" lon="12.6682003"><ele>767.75</ele><time>2026-04-12T10:06:29.982Z</time></trkpt><trkpt lat="46.3938363" lon="12.6683572"><ele>767.5</ele><time>2026-04-12T10:06:30.982Z</time></trkpt><trkpt lat="46.3938561" lon="12.6685173"><ele>767.25</ele><time>2026-04-12T10:06:31.983Z</time></trkpt><trkpt lat="46.3938735" lon="12.6686788"><ele>767.0</ele><time>2026-04-12T10:06:32.982Z</time></trkpt><trkpt lat="46.3938878" lon="12.6688415"><ele>769.0</ele><time>2026-04-12T10:06:33.982Z</time></trkpt><trkpt lat="46.3939001" lon="12.6690049"><ele>771.0</ele><time>2026-04-12T10:06:34.983Z</time></trkpt><trkpt lat="46.3939135" lon="12.6691701"><ele>773.0</ele><time>2026-04-12T10:06:35.982Z</time></trkpt><trkpt lat="46.3939262" lon="12.6693356"><ele>775.0</ele><time>2026-04-12T10:06:36.982Z</time></trkpt><trkpt lat="46.3939405" lon="12.6695047"><ele>775.0</ele><time>2026-04-12T10:06:37.982Z</time></trkpt><trkpt lat="46.3939544" lon="12.6696749"><ele>775.0</ele><time>2026-04-12T10:06:38.982Z</time></trkpt><trkpt lat="46.3939695" lon="12.6698487"><ele>775.0</ele><time>2026-04-12T10:06:39.982Z</time></trkpt><trkpt lat="46.3939841" lon="12.6700233"><ele>775.0</ele><time>2026-04-12T10:06:40.983Z</time></trkpt><trkpt lat="46.3939991" lon="12.670201"><ele>775.0</ele><time>2026-04-12T10:06:41.982Z</time></trkpt><trkpt lat="46.3940116" lon="12.670381"><ele>775.0</ele><time>2026-04-12T10:06:42.982Z</time></trkpt><trkpt lat="46.3940222" lon="12.670564"><ele>775.0</ele><time>2026-04-12T10:06:43.982Z</time></trkpt><trkpt lat="46.3940349" lon="12.6707498"><ele>775.0</ele><time>2026-04-12T10:06:44.982Z</time></trkpt><trkpt lat="46.3940489" lon="12.670934"><ele>775.5</ele><time>2026-04-12T10:06:45.982Z</time></trkpt><trkpt lat="46.394062" lon="12.6711183"><ele>776.0</ele><time>2026-04-12T10:06:46.982Z</time></trkpt><trkpt lat="46.3940769" lon="12.6713026"><ele>776.5</ele><time>2026-04-12T10:06:47.983Z</time></trkpt><trkpt lat="46.3940912" lon="12.6714875"><ele>777.0</ele><time>2026-04-12T10:06:48.982Z</time></trkpt><trkpt lat="46.3941074" lon="12.6716741"><ele>777.0</ele><time>2026-04-12T10:06:49.982Z</time></trkpt><trkpt lat="46.3941215" lon="12.671859"><ele>777.0</ele><time>2026-04-12T10:06:50.982Z</time></trkpt><trkpt lat="46.3941376" lon="12.6720462"><ele>777.0</ele><time>2026-04-12T10:06:51.982Z</time></trkpt><trkpt lat="46.3941508" lon="12.6722329"><ele>777.0</ele><time>2026-04-12T10:06:52.983Z</time></trkpt><trkpt lat="46.3941625" lon="12.6724165"><ele>777.25</ele><time>2026-04-12T10:06:53.982Z</time></trkpt><trkpt lat="46.3941769" lon="12.6726001"><ele>777.5</ele><time>2026-04-12T10:06:54.982Z</time></trkpt><trkpt lat="46.3941884" lon="12.6727806"><ele>777.75</ele><time>2026-04-12T10:06:55.983Z</time></trkpt><trkpt lat="46.3941992" lon="12.6729572"><ele>778.0</ele><time>2026-04-12T10:06:56.982Z</time></trkpt><trkpt lat="46.3942152" lon="12.6731341"><ele>778.0</ele><time>2026-04-12T10:06:57.982Z</time></trkpt><trkpt lat="46.3942299" lon="12.6733089"><ele>778.0</ele><time>2026-04-12T10:06:58.983Z</time></trkpt><trkpt lat="46.3942428" lon="12.6734854"><ele>778.0</ele><time>2026-04-12T10:06:59.983Z</time></trkpt><trkpt lat="46.3942591" lon="12.6736623"><ele>778.0</ele><time>2026-04-12T10:07:00.982Z</time></trkpt><trkpt lat="46.3942784" lon="12.6738396"><ele>778.0</ele><time>2026-04-12T10:07:01.982Z</time></trkpt><trkpt lat="46.3942956" lon="12.6740171"><ele>778.0</ele><time>2026-04-12T10:07:02.982Z</time></trkpt><trkpt lat="46.394318" lon="12.6741933"><ele>778.0</ele><time>2026-04-12T10:07:03.982Z</time></trkpt><trkpt lat="46.394339" lon="12.6743697"><ele>778.0</ele><time>2026-04-12T10:07:04.982Z</time></trkpt><trkpt lat="46.3943599" lon="12.6745486"><ele>777.75</ele><time>2026-04-12T10:07:05.982Z</time></trkpt><trkpt lat="46.3943832" lon="12.6747285"><ele>777.5</ele><time>2026-04-12T10:07:06.982Z</time></trkpt><trkpt lat="46.3944174" lon="12.6749129"><ele>777.25</ele><time>2026-04-12T10:07:07.983Z</time></trkpt><trkpt lat="46.394465" lon="12.6751087"><ele>777.0</ele><time>2026-04-12T10:07:08.982Z</time></trkpt><trkpt lat="46.3945183" lon="12.6753271"><ele>778.0</ele><time>2026-04-12T10:07:09.982Z</time></trkpt><trkpt lat="46.3945701" lon="12.6755446"><ele>779.0</ele><time>2026-04-12T10:07:10.982Z</time></trkpt><trkpt lat="46.3946281" lon="12.6757751"><ele>780.0</ele><time>2026-04-12T10:07:11.982Z</time></trkpt><trkpt lat="46.3946818" lon="12.6759934"><ele>778.0</ele><time>2026-04-12T10:07:12.983Z</time></trkpt><trkpt lat="46.3947342" lon="12.6762144"><ele>776.0</ele><time>2026-04-12T10:07:13.982Z</time></trkpt><trkpt lat="46.3947865" lon="12.6764346"><ele>774.0</ele><time>2026-04-12T10:07:14.982Z</time></trkpt><trkpt lat="46.3948405" lon="12.6766573"><ele>774.0</ele><time>2026-04-12T10:07:15.982Z</time></trkpt><trkpt lat="46.3948963" lon="12.6768766"><ele>774.0</ele><time>2026-04-12T10:07:16.983Z</time></trkpt><trkpt lat="46.3949486" lon="12.6770921"><ele>774.0</ele><time>2026-04-12T10:07:17.982Z</time></trkpt><trkpt lat="46.395001" lon="12.6773014"><ele>773.0</ele><time>2026-04-12T10:07:18.982Z</time></trkpt><trkpt lat="46.3950505" lon="12.6775041"><ele>772.0</ele><time>2026-04-12T10:07:19.982Z</time></trkpt><trkpt lat="46.3950989" lon="12.6777035"><ele>771.0</ele><time>2026-04-12T10:07:20.982Z</time></trkpt><trkpt lat="46.3951508" lon="12.6779045"><ele>770.0</ele><time>2026-04-12T10:07:21.982Z</time></trkpt><trkpt lat="46.3951948" lon="12.6780965"><ele>769.0</ele><time>2026-04-12T10:07:22.984Z</time></trkpt><trkpt lat="46.39524" lon="12.6782762"><ele>768.0</ele><time>2026-04-12T10:07:23.983Z</time></trkpt><trkpt lat="46.3952812" lon="12.6784448"><ele>767.0</ele><time>2026-04-12T10:07:24.982Z</time></trkpt><trkpt lat="46.3953193" lon="12.6786052"><ele>766.0</ele><time>2026-04-12T10:07:25.982Z</time></trkpt><trkpt lat="46.3953627" lon="12.6787492"><ele>766.8</ele><time>2026-04-12T10:07:26.982Z</time></trkpt><trkpt lat="46.3954393" lon="12.6788417"><ele>767.5999999999999</ele><time>2026-04-12T10:07:27.982Z</time></trkpt><trkpt lat="46.3955328" lon="12.6788827"><ele>768.4</ele><time>2026-04-12T10:07:28.982Z</time></trkpt><trkpt lat="46.3956284" lon="12.6788461"><ele>769.2</ele><time>2026-04-12T10:07:29.982Z</time></trkpt><trkpt lat="46.3957219" lon="12.6787255"><ele>770.0</ele><time>2026-04-12T10:07:30.982Z</time></trkpt><trkpt lat="46.3958221" lon="12.6785611"><ele>770.0</ele><time>2026-04-12T10:07:31.982Z</time></trkpt><trkpt lat="46.3959169" lon="12.6783881"><ele>770.0</ele><time>2026-04-12T10:07:32.982Z</time></trkpt><trkpt lat="46.3960102" lon="12.678223"><ele>770.0</ele><time>2026-04-12T10:07:33.984Z</time></trkpt><trkpt lat="46.3961012" lon="12.6780629"><ele>770.0</ele><time>2026-04-12T10:07:34.982Z</time></trkpt><trkpt lat="46.3961852" lon="12.6779078"><ele>770.0</ele><time>2026-04-12T10:07:35.982Z</time></trkpt><trkpt lat="46.3962803" lon="12.6778006"><ele>770.0</ele><time>2026-04-12T10:07:36.984Z</time></trkpt><trkpt lat="46.3963942" lon="12.6777639"><ele>770.0</ele><time>2026-04-12T10:07:37.983Z</time></trkpt><trkpt lat="46.3965233" lon="12.6777757"><ele>770.0</ele><time>2026-04-12T10:07:38.982Z</time></trkpt><trkpt lat="46.3966538" lon="12.6778155"><ele>765.75</ele><time>2026-04-12T10:07:39.982Z</time></trkpt><trkpt lat="46.3967863" lon="12.6778619"><ele>761.5</ele><time>2026-04-12T10:07:40.982Z</time></trkpt><trkpt lat="46.3969197" lon="12.6779041"><ele>757.25</ele><time>2026-04-12T10:07:41.982Z</time></trkpt><trkpt lat="46.3970344" lon="12.67797"><ele>753.0</ele><time>2026-04-12T10:07:42.982Z</time></trkpt><trkpt lat="46.397134" lon="12.678083"><ele>755.75</ele><time>2026-04-12T10:07:43.983Z</time></trkpt><trkpt lat="46.3971998" lon="12.6782577"><ele>758.5</ele><time>2026-04-12T10:07:44.982Z</time></trkpt><trkpt lat="46.3972183" lon="12.678456"><ele>761.25</ele><time>2026-04-12T10:07:45.982Z</time></trkpt><trkpt lat="46.3972273" lon="12.6786933"><ele>764.0</ele><time>2026-04-12T10:07:46.982Z</time></trkpt><trkpt lat="46.3972356" lon="12.6789629"><ele>764.0</ele><time>2026-04-12T10:07:47.982Z</time></trkpt><trkpt lat="46.3972441" lon="12.6792245"><ele>764.0</ele><time>2026-04-12T10:07:48.983Z</time></trkpt><trkpt lat="46.397253" lon="12.6794931"><ele>764.0</ele><time>2026-04-12T10:07:49.982Z</time></trkpt><trkpt lat="46.3972618" lon="12.6797714"><ele>764.6666666666666</ele><time>2026-04-12T10:07:50.983Z</time></trkpt><trkpt lat="46.3972661" lon="12.6800528"><ele>765.3333333333334</ele><time>2026-04-12T10:07:51.982Z</time></trkpt><trkpt lat="46.3972523" lon="12.6803353"><ele>766.0</ele><time>2026-04-12T10:07:52.983Z</time></trkpt><trkpt lat="46.3972187" lon="12.6806149"><ele>766.6666666666667</ele><time>2026-04-12T10:07:53.982Z</time></trkpt><trkpt lat="46.3971771" lon="12.6808975"><ele>767.3333333333334</ele><time>2026-04-12T10:07:54.983Z</time></trkpt><trkpt lat="46.3971392" lon="12.6811794"><ele>768.0</ele><time>2026-04-12T10:07:55.982Z</time></trkpt><trkpt lat="46.3971016" lon="12.6814601"><ele>757.6666666666666</ele><time>2026-04-12T10:07:56.982Z</time></trkpt><trkpt lat="46.397066" lon="12.681742"><ele>747.3333333333333</ele><time>2026-04-12T10:07:57.982Z</time></trkpt><trkpt lat="46.3970419" lon="12.6820269"><ele>737.0</ele><time>2026-04-12T10:07:58.982Z</time></trkpt><trkpt lat="46.3970287" lon="12.6823144"><ele>735.3333333333333</ele><time>2026-04-12T10:07:59.982Z</time></trkpt><trkpt lat="46.3970271" lon="12.6825963"><ele>733.6666666666666</ele><time>2026-04-12T10:08:00.982Z</time></trkpt><trkpt lat="46.3970366" lon="12.6828728"><ele>732.0</ele><time>2026-04-12T10:08:01.982Z</time></trkpt><trkpt lat="46.3970664" lon="12.6831428"><ele>732.0</ele><time>2026-04-12T10:08:02.983Z</time></trkpt><trkpt lat="46.3971151" lon="12.6834061"><ele>732.0</ele><time>2026-04-12T10:08:03.982Z</time></trkpt><trkpt lat="46.3971779" lon="12.6836625"><ele>732.0</ele><time>2026-04-12T10:08:04.982Z</time></trkpt><trkpt lat="46.397245" lon="12.6839132"><ele>735.6666666666666</ele><time>2026-04-12T10:08:05.982Z</time></trkpt><trkpt lat="46.3973126" lon="12.6841548"><ele>739.3333333333333</ele><time>2026-04-12T10:08:06.982Z</time></trkpt><trkpt lat="46.3973758" lon="12.6843921"><ele>743.0</ele><time>2026-04-12T10:08:07.982Z</time></trkpt><trkpt lat="46.3974289" lon="12.6846277"><ele>743.0</ele><time>2026-04-12T10:08:08.982Z</time></trkpt><trkpt lat="46.3974609" lon="12.6848676"><ele>743.0</ele><time>2026-04-12T10:08:09.982Z</time></trkpt><trkpt lat="46.3974665" lon="12.6851093"><ele>743.0</ele><time>2026-04-12T10:08:10.982Z</time></trkpt><trkpt lat="46.3974616" lon="12.6853548"><ele>741.6666666666666</ele><time>2026-04-12T10:08:11.982Z</time></trkpt><trkpt lat="46.397463" lon="12.6856014"><ele>740.3333333333334</ele><time>2026-04-12T10:08:12.983Z</time></trkpt><trkpt lat="46.3974665" lon="12.6858523"><ele>739.0</ele><time>2026-04-12T10:08:13.982Z</time></trkpt><trkpt lat="46.3974782" lon="12.686106"><ele>738.6666666666667</ele><time>2026-04-12T10:08:14.982Z</time></trkpt><trkpt lat="46.3975236" lon="12.6863962"><ele>738.3333333333334</ele><time>2026-04-12T10:08:15.983Z</time></trkpt><trkpt lat="46.3975811" lon="12.6867094"><ele>738.0</ele><time>2026-04-12T10:08:16.982Z</time></trkpt><trkpt lat="46.3976262" lon="12.6870372"><ele>736.0</ele><time>2026-04-12T10:08:17.982Z</time></trkpt><trkpt lat="46.3976615" lon="12.687347"><ele>734.0</ele><time>2026-04-12T10:08:18.983Z</time></trkpt><trkpt lat="46.3976935" lon="12.6876543"><ele>732.0</ele><time>2026-04-12T10:08:19.982Z</time></trkpt><trkpt lat="46.3977227" lon="12.6879547"><ele>730.3333333333334</ele><time>2026-04-12T10:08:20.982Z</time></trkpt><trkpt lat="46.3977499" lon="12.6882321"><ele>728.6666666666667</ele><time>2026-04-12T10:08:21.983Z</time></trkpt><trkpt lat="46.3977758" lon="12.6884904"><ele>727.0</ele><time>2026-04-12T10:08:22.983Z</time></trkpt><trkpt lat="46.3977933" lon="12.6887296"><ele>727.0</ele><time>2026-04-12T10:08:23.982Z</time></trkpt><trkpt lat="46.3978036" lon="12.6889418"><ele>727.0</ele><time>2026-04-12T10:08:24.982Z</time></trkpt><trkpt lat="46.3978144" lon="12.6891229"><ele>727.0</ele><time>2026-04-12T10:08:25.983Z</time></trkpt><trkpt lat="46.3978368" lon="12.6892816"><ele>727.0</ele><time>2026-04-12T10:08:26.983Z</time></trkpt><trkpt lat="46.3978862" lon="12.6894064"><ele>724.25</ele><time>2026-04-12T10:08:27.982Z</time></trkpt><trkpt lat="46.3979803" lon="12.6895128"><ele>721.5</ele><time>2026-04-12T10:08:28.982Z</time></trkpt><trkpt lat="46.3981006" lon="12.6896012"><ele>718.75</ele><time>2026-04-12T10:08:29.982Z</time></trkpt><trkpt lat="46.3982061" lon="12.6896621"><ele>716.0</ele><time>2026-04-12T10:08:30.982Z</time></trkpt><trkpt lat="46.3982953" lon="12.689717"><ele>721.8</ele><time>2026-04-12T10:08:31.982Z</time></trkpt><trkpt lat="46.3983558" lon="12.6898026"><ele>727.5999999999999</ele><time>2026-04-12T10:08:32.982Z</time></trkpt><trkpt lat="46.3983837" lon="12.6899267"><ele>733.4</ele><time>2026-04-12T10:08:33.982Z</time></trkpt><trkpt lat="46.3983783" lon="12.6900716"><ele>739.2</ele><time>2026-04-12T10:08:34.982Z</time></trkpt><trkpt lat="46.398337" lon="12.6902094"><ele>745.0</ele><time>2026-04-12T10:08:35.982Z</time></trkpt><trkpt lat="46.3982512" lon="12.690316"><ele>747.0</ele><time>2026-04-12T10:08:36.983Z</time></trkpt><trkpt lat="46.3981412" lon="12.6904236"><ele>749.0</ele><time>2026-04-12T10:08:37.983Z</time></trkpt><trkpt lat="46.3980552" lon="12.6905433"><ele>751.0</ele><time>2026-04-12T10:08:38.983Z</time></trkpt><trkpt lat="46.3979869" lon="12.6906794"><ele>753.0</ele><time>2026-04-12T10:08:39.982Z</time></trkpt><trkpt lat="46.3979346" lon="12.6908097"><ele>750.0</ele><time>2026-04-12T10:08:40.982Z</time></trkpt><trkpt lat="46.3979029" lon="12.6909348"><ele>747.0</ele><time>2026-04-12T10:08:41.983Z</time></trkpt><trkpt lat="46.3978987" lon="12.6910596"><ele>744.0</ele><time>2026-04-12T10:08:42.982Z</time></trkpt><trkpt lat="46.3979118" lon="12.6911694"><ele>741.0</ele><time>2026-04-12T10:08:43.982Z</time></trkpt><trkpt lat="46.3979316" lon="12.6912724"><ele>738.0</ele><time>2026-04-12T10:08:44.983Z</time></trkpt><trkpt lat="46.3979544" lon="12.6914255"><ele>735.0</ele><time>2026-04-12T10:08:46.983Z</time></trkpt><trkpt lat="46.3978965" lon="12.6916355"><ele>735.0</ele><time>2026-04-12T10:08:48.983Z</time></trkpt><trkpt lat="46.3978442" lon="12.6917731"><ele>735.0</ele><time>2026-04-12T10:08:49.982Z</time></trkpt><trkpt lat="46.3978117" lon="12.6918797"><ele>735.0</ele><time>2026-04-12T10:08:50.982Z</time></trkpt><trkpt lat="46.3977827" lon="12.6919614"><ele>735.0</ele><time>2026-04-12T10:08:51.982Z</time></trkpt><trkpt lat="46.3977349" lon="12.6920607"><ele>735.0</ele><time>2026-04-12T10:08:53.982Z</time></trkpt><trkpt lat="46.3977161" lon="12.6921724"><ele>735.0</ele><time>2026-04-12T10:08:55.982Z</time></trkpt><trkpt lat="46.3976989" lon="12.6923592"><ele>735.5</ele><time>2026-04-12T10:08:57.983Z</time></trkpt><trkpt lat="46.3976955" lon="12.6924916"><ele>736.0</ele><time>2026-04-12T10:08:59.982Z</time></trkpt><trkpt lat="46.3977345" lon="12.6926006"><ele>736.5</ele><time>2026-04-12T10:09:01.982Z</time></trkpt><trkpt lat="46.3976701" lon="12.6926685"><ele>737.0</ele><time>2026-04-12T10:09:04.982Z</time></trkpt><trkpt lat="46.3975947" lon="12.6926716"><ele>737.5</ele><time>2026-04-12T10:09:07.982Z</time></trkpt><trkpt lat="46.3975551" lon="12.6925886"><ele>738.0</ele><time>2026-04-12T10:15:25.98Z</time></trkpt><trkpt lat="46.3975696" lon="12.6924957"><ele>738.0</ele><time>2026-04-12T10:15:27.98Z</time></trkpt><trkpt lat="46.3975799" lon="12.6923946"><ele>738.0</ele><time>2026-04-12T10:15:29.981Z</time></trkpt><trkpt lat="46.3975609" lon="12.6922935"><ele>738.0</ele><time>2026-04-12T10:15:31.98Z</time></trkpt><trkpt lat="46.3975803" lon="12.6921796"><ele>738.0</ele><time>2026-04-12T10:15:33.98Z</time></trkpt><trkpt lat="46.3975957" lon="12.6920251"><ele>738.0</ele><time>2026-04-12T10:15:35.981Z</time></trkpt><trkpt lat="46.3976071" lon="12.6919163"><ele>738.0</ele><time>2026-04-12T10:15:36.98Z</time></trkpt><trkpt lat="46.3976361" lon="12.6918058"><ele>737.4</ele><time>2026-04-12T10:15:37.98Z</time></trkpt><trkpt lat="46.3976799" lon="12.691682"><ele>736.8</ele><time>2026-04-12T10:15:38.98Z</time></trkpt><trkpt lat="46.3977239" lon="12.6915442"><ele>736.2</ele><time>2026-04-12T10:15:39.98Z</time></trkpt><trkpt lat="46.3977669" lon="12.6913942"><ele>735.6</ele><time>2026-04-12T10:15:40.98Z</time></trkpt><trkpt lat="46.3978107" lon="12.6912438"><ele>735.0</ele><time>2026-04-12T10:15:41.98Z</time></trkpt><trkpt lat="46.3978537" lon="12.6911038"><ele>733.6</ele><time>2026-04-12T10:15:42.98Z</time></trkpt><trkpt lat="46.3978961" lon="12.690962"><ele>732.2</ele><time>2026-04-12T10:15:43.98Z</time></trkpt><trkpt lat="46.3979419" lon="12.690819"><ele>730.8</ele><time>2026-04-12T10:15:44.981Z</time></trkpt><trkpt lat="46.3979978" lon="12.6906823"><ele>729.4</ele><time>2026-04-12T10:15:45.98Z</time></trkpt><trkpt lat="46.3980609" lon="12.6905649"><ele>728.0</ele><time>2026-04-12T10:15:46.981Z</time></trkpt><trkpt lat="46.3981345" lon="12.690468"><ele>731.4</ele><time>2026-04-12T10:15:47.98Z</time></trkpt><trkpt lat="46.3982867" lon="12.6903237"><ele>734.8</ele><time>2026-04-12T10:15:49.98Z</time></trkpt><trkpt lat="46.3983511" lon="12.6902388"><ele>738.2</ele><time>2026-04-12T10:15:50.981Z</time></trkpt><trkpt lat="46.3983912" lon="12.6901207"><ele>741.6</ele><time>2026-04-12T10:15:51.98Z</time></trkpt><trkpt lat="46.3984078" lon="12.6899939"><ele>745.0</ele><time>2026-04-12T10:15:52.98Z</time></trkpt><trkpt lat="46.3984054" lon="12.689875"><ele>745.0</ele><time>2026-04-12T10:15:53.98Z</time></trkpt><trkpt lat="46.3983693" lon="12.6897723"><ele>745.0</ele><time>2026-04-12T10:15:54.981Z</time></trkpt><trkpt lat="46.3982966" lon="12.6896955"><ele>745.0</ele><time>2026-04-12T10:15:55.98Z</time></trkpt><trkpt lat="46.3981939" lon="12.6896264"><ele>745.0</ele><time>2026-04-12T10:15:56.981Z</time></trkpt><trkpt lat="46.3980926" lon="12.6895658"><ele>745.0</ele><time>2026-04-12T10:15:57.98Z</time></trkpt><trkpt lat="46.3980012" lon="12.6894977"><ele>741.4</ele><time>2026-04-12T10:15:58.98Z</time></trkpt><trkpt lat="46.3979203" lon="12.6894002"><ele>737.8</ele><time>2026-04-12T10:15:59.98Z</time></trkpt><trkpt lat="46.397866" lon="12.6892668"><ele>734.2</ele><time>2026-04-12T10:16:00.98Z</time></trkpt><trkpt lat="46.3978424" lon="12.6891091"><ele>730.6</ele><time>2026-04-12T10:16:01.98Z</time></trkpt><trkpt lat="46.3978255" lon="12.6889319"><ele>727.0</ele><time>2026-04-12T10:16:02.981Z</time></trkpt><trkpt lat="46.3978128" lon="12.6887404"><ele>727.0</ele><time>2026-04-12T10:16:03.98Z</time></trkpt><trkpt lat="46.3977962" lon="12.6885439"><ele>727.0</ele><time>2026-04-12T10:16:04.98Z</time></trkpt><trkpt lat="46.3977766" lon="12.6883454"><ele>727.0</ele><time>2026-04-12T10:16:05.98Z</time></trkpt><trkpt lat="46.3977575" lon="12.6881582"><ele>727.0</ele><time>2026-04-12T10:16:06.981Z</time></trkpt><trkpt lat="46.3977399" lon="12.6879744"><ele>728.25</ele><time>2026-04-12T10:16:07.98Z</time></trkpt><trkpt lat="46.3977033" lon="12.6876319"><ele>729.5</ele><time>2026-04-12T10:16:09.98Z</time></trkpt><trkpt lat="46.397685" lon="12.6874797"><ele>730.75</ele><time>2026-04-12T10:16:10.98Z</time></trkpt><trkpt lat="46.3976703" lon="12.6873505"><ele>732.0</ele><time>2026-04-12T10:16:11.98Z</time></trkpt><trkpt lat="46.3976573" lon="12.6872413"><ele>732.0</ele><time>2026-04-12T10:16:12.98Z</time></trkpt><trkpt lat="46.3976463" lon="12.6871489"><ele>732.0</ele><time>2026-04-12T10:16:13.981Z</time></trkpt><trkpt lat="46.3976553" lon="12.6870428"><ele>732.0</ele><time>2026-04-12T10:16:15.98Z</time></trkpt><trkpt lat="46.397738" lon="12.6870907"><ele>732.0</ele><time>2026-04-12T10:16:18.98Z</time></trkpt><trkpt lat="46.3977772" lon="12.687172"><ele>732.0</ele><time>2026-04-12T10:16:19.982Z</time></trkpt><trkpt lat="46.3978262" lon="12.6872791"><ele>732.0</ele><time>2026-04-12T10:16:20.98Z</time></trkpt><trkpt lat="46.3978832" lon="12.6874029"><ele>732.0</ele><time>2026-04-12T10:16:21.98Z</time></trkpt><trkpt lat="46.3979488" lon="12.6875451"><ele>732.0</ele><time>2026-04-12T10:16:22.98Z</time></trkpt><trkpt lat="46.3980109" lon="12.687686"><ele>732.0</ele><time>2026-04-12T10:16:23.98Z</time></trkpt><trkpt lat="46.3980748" lon="12.6878294"><ele>732.0</ele><time>2026-04-12T10:16:24.98Z</time></trkpt><trkpt lat="46.3981384" lon="12.6879728"><ele>745.0</ele><time>2026-04-12T10:16:25.981Z</time></trkpt><trkpt lat="46.3967368" lon="12.714694"><ele>745.0</ele><time>2026-04-12T10:17:39.287Z</time></trkpt><trkpt lat="46.3965367" lon="12.7150616"><ele>745.0</ele><time>2026-04-12T10:18:19.981Z</time></trkpt><trkpt lat="46.3964139" lon="12.7152915"><ele>744.6666666666667</ele><time>2026-04-12T10:18:20.98Z</time></trkpt><trkpt lat="46.3962778" lon="12.7154908"><ele>744.3333333333334</ele><time>2026-04-12T10:18:21.981Z</time></trkpt><trkpt lat="46.3961389" lon="12.715662"><ele>744.0</ele><time>2026-04-12T10:18:22.98Z</time></trkpt><trkpt lat="46.3960104" lon="12.7158373"><ele>744.0</ele><time>2026-04-12T10:18:23.98Z</time></trkpt><trkpt lat="46.3958988" lon="12.716042"><ele>744.0</ele><time>2026-04-12T10:18:24.98Z</time></trkpt><trkpt lat="46.395808" lon="12.7162727"><ele>744.0</ele><time>2026-04-12T10:18:25.98Z</time></trkpt><trkpt lat="46.3957479" lon="12.7165421"><ele>748.6666666666666</ele><time>2026-04-12T10:18:26.98Z</time></trkpt><trkpt lat="46.395714" lon="12.7168084"><ele>753.3333333333333</ele><time>2026-04-12T10:18:27.98Z</time></trkpt><trkpt lat="46.3956791" lon="12.7170774"><ele>758.0</ele><time>2026-04-12T10:18:28.98Z</time></trkpt><trkpt lat="46.3956486" lon="12.7173476"><ele>760.6666666666666</ele><time>2026-04-12T10:18:29.98Z</time></trkpt><trkpt lat="46.3956439" lon="12.7176234"><ele>763.3333333333334</ele><time>2026-04-12T10:18:30.98Z</time></trkpt><trkpt lat="46.3956499" lon="12.7178859"><ele>766.0</ele><time>2026-04-12T10:18:31.98Z</time></trkpt><trkpt lat="46.3956536" lon="12.7181305"><ele>767.3333333333334</ele><time>2026-04-12T10:18:32.98Z</time></trkpt><trkpt lat="46.3956603" lon="12.7183618"><ele>768.6666666666667</ele><time>2026-04-12T10:18:33.98Z</time></trkpt><trkpt lat="46.395666" lon="12.7185736"><ele>770.0</ele><time>2026-04-12T10:18:34.98Z</time></trkpt><trkpt lat="46.3956821" lon="12.7187837"><ele>770.0</ele><time>2026-04-12T10:18:35.98Z</time></trkpt><trkpt lat="46.3957221" lon="12.7189991"><ele>770.0</ele><time>2026-04-12T10:18:36.981Z</time></trkpt><trkpt lat="46.3957893" lon="12.7191957"><ele>770.0</ele><time>2026-04-12T10:18:37.98Z</time></trkpt><trkpt lat="46.3958903" lon="12.7193745"><ele>766.75</ele><time>2026-04-12T10:18:38.98Z</time></trkpt><trkpt lat="46.3960105" lon="12.7195187"><ele>763.5</ele><time>2026-04-12T10:18:39.98Z</time></trkpt><trkpt lat="46.3961351" lon="12.7196187"><ele>760.25</ele><time>2026-04-12T10:18:40.98Z</time></trkpt><trkpt lat="46.3962478" lon="12.7197199"><ele>757.0</ele><time>2026-04-12T10:18:41.98Z</time></trkpt><trkpt lat="46.3963489" lon="12.7198505"><ele>765.25</ele><time>2026-04-12T10:18:42.98Z</time></trkpt><trkpt lat="46.3964244" lon="12.720022"><ele>773.5</ele><time>2026-04-12T10:18:43.98Z</time></trkpt><trkpt lat="46.3964574" lon="12.7202325"><ele>781.75</ele><time>2026-04-12T10:18:44.98Z</time></trkpt><trkpt lat="46.3964571" lon="12.7204612"><ele>790.0</ele><time>2026-04-12T10:18:45.98Z</time></trkpt><trkpt lat="46.396454" lon="12.7207156"><ele>790.0</ele><time>2026-04-12T10:18:46.981Z</time></trkpt><trkpt lat="46.3964699" lon="12.7209685"><ele>790.0</ele><time>2026-04-12T10:18:47.981Z</time></trkpt><trkpt lat="46.3964921" lon="12.7211902"><ele>790.0</ele><time>2026-04-12T10:18:48.98Z</time></trkpt><trkpt lat="46.3964981" lon="12.7213998"><ele>792.0</ele><time>2026-04-12T10:18:49.981Z</time></trkpt><trkpt lat="46.3964727" lon="12.7216006"><ele>794.0</ele><time>2026-04-12T10:18:50.98Z</time></trkpt><trkpt lat="46.3964094" lon="12.721793"><ele>796.0</ele><time>2026-04-12T10:18:51.981Z</time></trkpt><trkpt lat="46.3963265" lon="12.7219453"><ele>798.0</ele><time>2026-04-12T10:18:52.98Z</time></trkpt><trkpt lat="46.3962576" lon="12.722088"><ele>793.0</ele><time>2026-04-12T10:18:53.98Z</time></trkpt><trkpt lat="46.3961842" lon="12.7222497"><ele>788.0</ele><time>2026-04-12T10:18:54.98Z</time></trkpt><trkpt lat="46.3962084" lon="12.7224663"><ele>783.0</ele><time>2026-04-12T10:18:55.981Z</time></trkpt><trkpt lat="46.3962062" lon="12.72267"><ele>778.0</ele><time>2026-04-12T10:18:56.98Z</time></trkpt><trkpt lat="46.3962908" lon="12.7229511"><ele>778.0</ele><time>2026-04-12T10:18:57.98Z</time></trkpt><trkpt lat="46.3963282" lon="12.7232125"><ele>778.0</ele><time>2026-04-12T10:18:58.98Z</time></trkpt><trkpt lat="46.3963335" lon="12.7234817"><ele>778.0</ele><time>2026-04-12T10:18:59.98Z</time></trkpt><trkpt lat="46.3963231" lon="12.723735"><ele>780.6666666666666</ele><time>2026-04-12T10:19:00.98Z</time></trkpt><trkpt lat="46.3963089" lon="12.7239766"><ele>783.3333333333333</ele><time>2026-04-12T10:19:01.98Z</time></trkpt><trkpt lat="46.396302" lon="12.7242114"><ele>786.0</ele><time>2026-04-12T10:19:02.981Z</time></trkpt><trkpt lat="46.3963106" lon="12.7244277"><ele>795.6666666666667</ele><time>2026-04-12T10:19:03.98Z</time></trkpt><trkpt lat="46.3963467" lon="12.7246397"><ele>805.3333333333334</ele><time>2026-04-12T10:19:04.98Z</time></trkpt><trkpt lat="46.3964174" lon="12.7248437"><ele>815.0</ele><time>2026-04-12T10:19:05.981Z</time></trkpt><trkpt lat="46.3964747" lon="12.7250473"><ele>814.0</ele><time>2026-04-12T10:19:06.98Z</time></trkpt><trkpt lat="46.396494" lon="12.7252678"><ele>813.0</ele><time>2026-04-12T10:19:07.98Z</time></trkpt><trkpt lat="46.3964806" lon="12.7254752"><ele>812.0</ele><time>2026-04-12T10:19:08.98Z</time></trkpt><trkpt lat="46.3964443" lon="12.7256531"><ele>811.0</ele><time>2026-04-12T10:19:09.98Z</time></trkpt><trkpt lat="46.3964247" lon="12.7258259"><ele>811.0</ele><time>2026-04-12T10:19:10.98Z</time></trkpt><trkpt lat="46.3964346" lon="12.7260049"><ele>811.0</ele><time>2026-04-12T10:19:11.981Z</time></trkpt><trkpt lat="46.3964756" lon="12.7261875"><ele>811.0</ele><time>2026-04-12T10:19:12.98Z</time></trkpt><trkpt lat="46.3965516" lon="12.7263467"><ele>811.0</ele><time>2026-04-12T10:19:13.98Z</time></trkpt><trkpt lat="46.3966523" lon="12.7264898"><ele>811.3333333333333</ele><time>2026-04-12T10:19:14.98Z</time></trkpt><trkpt lat="46.3967811" lon="12.7266286"><ele>811.6666666666667</ele><time>2026-04-12T10:19:15.98Z</time></trkpt><trkpt lat="46.3968907" lon="12.7267799"><ele>812.0</ele><time>2026-04-12T10:19:16.98Z</time></trkpt><trkpt lat="46.3969846" lon="12.7269431"><ele>812.0</ele><time>2026-04-12T10:19:17.98Z</time></trkpt><trkpt lat="46.3970602" lon="12.7271085"><ele>812.0</ele><time>2026-04-12T10:19:18.98Z</time></trkpt><trkpt lat="46.397113" lon="12.7272711"><ele>812.0</ele><time>2026-04-12T10:19:19.98Z</time></trkpt><trkpt lat="46.39713" lon="12.727442"><ele>812.0</ele><time>2026-04-12T10:19:20.981Z</time></trkpt><trkpt lat="46.3971193" lon="12.7276269"><ele>814.0</ele><time>2026-04-12T10:19:21.98Z</time></trkpt><trkpt lat="46.3970735" lon="12.7278103"><ele>816.0</ele><time>2026-04-12T10:19:22.98Z</time></trkpt><trkpt lat="46.3969947" lon="12.7279939"><ele>818.0</ele><time>2026-04-12T10:19:23.98Z</time></trkpt><trkpt lat="46.3968984" lon="12.7281869"><ele>820.0</ele><time>2026-04-12T10:19:24.981Z</time></trkpt><trkpt lat="46.3968025" lon="12.7283637"><ele>820.0</ele><time>2026-04-12T10:19:25.98Z</time></trkpt><trkpt lat="46.3967095" lon="12.7285245"><ele>820.0</ele><time>2026-04-12T10:19:26.98Z</time></trkpt><trkpt lat="46.3966257" lon="12.728673"><ele>820.0</ele><time>2026-04-12T10:19:27.98Z</time></trkpt><trkpt lat="46.3965581" lon="12.7288184"><ele>820.0</ele><time>2026-04-12T10:19:28.981Z</time></trkpt><trkpt lat="46.3965168" lon="12.728977"><ele>823.5</ele><time>2026-04-12T10:19:29.98Z</time></trkpt><trkpt lat="46.3965162" lon="12.7291477"><ele>827.0</ele><time>2026-04-12T10:19:30.98Z</time></trkpt><trkpt lat="46.3965536" lon="12.7293197"><ele>830.5</ele><time>2026-04-12T10:19:31.98Z</time></trkpt><trkpt lat="46.396603" lon="12.7294842"><ele>834.0</ele><time>2026-04-12T10:19:32.98Z</time></trkpt><trkpt lat="46.3966211" lon="12.7296618"><ele>835.0</ele><time>2026-04-12T10:19:33.98Z</time></trkpt><trkpt lat="46.3966051" lon="12.7298427"><ele>836.0</ele><time>2026-04-12T10:19:34.98Z</time></trkpt><trkpt lat="46.3965399" lon="12.7300063"><ele>837.0</ele><time>2026-04-12T10:19:35.98Z</time></trkpt><trkpt lat="46.3964411" lon="12.7301507"><ele>838.0</ele><time>2026-04-12T10:19:36.98Z</time></trkpt><trkpt lat="46.396325" lon="12.7302973"><ele>835.25</ele><time>2026-04-12T10:19:37.981Z</time></trkpt><trkpt lat="46.3962074" lon="12.7304253"><ele>832.5</ele><time>2026-04-12T10:19:38.98Z</time></trkpt><trkpt lat="46.3961049" lon="12.7305671"><ele>829.75</ele><time>2026-04-12T10:19:39.982Z</time></trkpt><trkpt lat="46.3960255" lon="12.7307375"><ele>827.0</ele><time>2026-04-12T10:19:40.98Z</time></trkpt><trkpt lat="46.3959714" lon="12.7309263"><ele>828.25</ele><time>2026-04-12T10:19:41.98Z</time></trkpt><trkpt lat="46.3959457" lon="12.7311288"><ele>829.5</ele><time>2026-04-12T10:19:42.981Z</time></trkpt><trkpt lat="46.3959439" lon="12.7313353"><ele>830.75</ele><time>2026-04-12T10:19:43.98Z</time></trkpt><trkpt lat="46.3959736" lon="12.7315258"><ele>832.0</ele><time>2026-04-12T10:19:44.98Z</time></trkpt><trkpt lat="46.3960362" lon="12.731697"><ele>832.0</ele><time>2026-04-12T10:19:45.98Z</time></trkpt><trkpt lat="46.3961265" lon="12.7318441"><ele>832.0</ele><time>2026-04-12T10:19:46.98Z</time></trkpt><trkpt lat="46.3962442" lon="12.731956"><ele>832.0</ele><time>2026-04-12T10:19:47.98Z</time></trkpt><trkpt lat="46.3963852" lon="12.732036"><ele>832.0</ele><time>2026-04-12T10:19:48.981Z</time></trkpt><trkpt lat="46.3965262" lon="12.7320919"><ele>833.0</ele><time>2026-04-12T10:19:49.98Z</time></trkpt><trkpt lat="46.396665" lon="12.7321696"><ele>834.0</ele><time>2026-04-12T10:19:50.981Z</time></trkpt><trkpt lat="46.3967995" lon="12.7322948"><ele>835.0</ele><time>2026-04-12T10:19:51.98Z</time></trkpt><trkpt lat="46.3969098" lon="12.7324584"><ele>835.0</ele><time>2026-04-12T10:19:52.98Z</time></trkpt><trkpt lat="46.3969981" lon="12.7326523"><ele>835.0</ele><time>2026-04-12T10:19:53.98Z</time></trkpt><trkpt lat="46.3970798" lon="12.7328477"><ele>835.0</ele><time>2026-04-12T10:19:54.98Z</time></trkpt><trkpt lat="46.3971598" lon="12.7330474"><ele>836.0</ele><time>2026-04-12T10:19:55.981Z</time></trkpt><trkpt lat="46.3972394" lon="12.7332485"><ele>837.0</ele><time>2026-04-12T10:19:56.98Z</time></trkpt><trkpt lat="46.3973095" lon="12.7334503"><ele>838.0</ele><time>2026-04-12T10:19:57.98Z</time></trkpt><trkpt lat="46.3973626" lon="12.733659"><ele>838.0</ele><time>2026-04-12T10:19:58.98Z</time></trkpt><trkpt lat="46.3974019" lon="12.7338754"><ele>838.0</ele><time>2026-04-12T10:19:59.98Z</time></trkpt><trkpt lat="46.3974403" lon="12.7340942"><ele>838.0</ele><time>2026-04-12T10:20:00.98Z</time></trkpt><trkpt lat="46.3974829" lon="12.7343131"><ele>839.0</ele><time>2026-04-12T10:20:01.981Z</time></trkpt><trkpt lat="46.3975178" lon="12.734544"><ele>840.0</ele><time>2026-04-12T10:20:02.98Z</time></trkpt><trkpt lat="46.3975436" lon="12.7347703"><ele>841.0</ele><time>2026-04-12T10:20:03.98Z</time></trkpt><trkpt lat="46.3975575" lon="12.7349883"><ele>841.0</ele><time>2026-04-12T10:20:04.98Z</time></trkpt><trkpt lat="46.3975609" lon="12.7351937"><ele>841.0</ele><time>2026-04-12T10:20:05.98Z</time></trkpt><trkpt lat="46.397562" lon="12.7353919"><ele>841.0</ele><time>2026-04-12T10:20:06.981Z</time></trkpt><trkpt lat="46.397569" lon="12.7355783"><ele>841.0</ele><time>2026-04-12T10:20:07.981Z</time></trkpt><trkpt lat="46.3975709" lon="12.7357516"><ele>842.25</ele><time>2026-04-12T10:20:08.98Z</time></trkpt><trkpt lat="46.3975474" lon="12.7359109"><ele>843.5</ele><time>2026-04-12T10:20:09.981Z</time></trkpt><trkpt lat="46.3974979" lon="12.7360668"><ele>844.75</ele><time>2026-04-12T10:20:10.98Z</time></trkpt><trkpt lat="46.3974187" lon="12.7362041"><ele>846.0</ele><time>2026-04-12T10:20:11.98Z</time></trkpt><trkpt lat="46.3973045" lon="12.7363011"><ele>847.75</ele><time>2026-04-12T10:20:12.98Z</time></trkpt><trkpt lat="46.3971741" lon="12.7363476"><ele>849.5</ele><time>2026-04-12T10:20:13.98Z</time></trkpt><trkpt lat="46.3970221" lon="12.7363154"><ele>851.25</ele><time>2026-04-12T10:20:14.981Z</time></trkpt><trkpt lat="46.3968782" lon="12.7362701"><ele>853.0</ele><time>2026-04-12T10:20:15.98Z</time></trkpt><trkpt lat="46.3967317" lon="12.7362507"><ele>853.0</ele><time>2026-04-12T10:20:16.98Z</time></trkpt><trkpt lat="46.396576" lon="12.7362805"><ele>853.0</ele><time>2026-04-12T10:20:17.98Z</time></trkpt><trkpt lat="46.3964244" lon="12.7363546"><ele>853.0</ele><time>2026-04-12T10:20:18.98Z</time></trkpt><trkpt lat="46.3962923" lon="12.7364721"><ele>852.0</ele><time>2026-04-12T10:20:19.98Z</time></trkpt><trkpt lat="46.3961815" lon="12.7366418"><ele>851.0</ele><time>2026-04-12T10:20:20.98Z</time></trkpt><trkpt lat="46.3960936" lon="12.7368529"><ele>850.0</ele><time>2026-04-12T10:20:21.98Z</time></trkpt><trkpt lat="46.3960081" lon="12.7370611"><ele>850.0</ele><time>2026-04-12T10:20:22.98Z</time></trkpt><trkpt lat="46.3959003" lon="12.7372338"><ele>850.0</ele><time>2026-04-12T10:20:23.98Z</time></trkpt><trkpt lat="46.3957693" lon="12.7373776"><ele>850.0</ele><time>2026-04-12T10:20:24.98Z</time></trkpt><trkpt lat="46.3956245" lon="12.7374641"><ele>850.5</ele><time>2026-04-12T10:20:25.98Z</time></trkpt><trkpt lat="46.3954717" lon="12.7375149"><ele>851.0</ele><time>2026-04-12T10:20:26.98Z</time></trkpt><trkpt lat="46.3953367" lon="12.7375662"><ele>851.5</ele><time>2026-04-12T10:20:27.98Z</time></trkpt><trkpt lat="46.3952119" lon="12.7376502"><ele>852.0</ele><time>2026-04-12T10:20:28.98Z</time></trkpt><trkpt lat="46.3951038" lon="12.7377711"><ele>852.0</ele><time>2026-04-12T10:20:29.98Z</time></trkpt><trkpt lat="46.3950177" lon="12.7379263"><ele>852.0</ele><time>2026-04-12T10:20:30.981Z</time></trkpt><trkpt lat="46.3949617" lon="12.7381114"><ele>852.0</ele><time>2026-04-12T10:20:31.98Z</time></trkpt><trkpt lat="46.3949375" lon="12.73832"><ele>852.0</ele><time>2026-04-12T10:20:32.98Z</time></trkpt><trkpt lat="46.3949547" lon="12.7385458"><ele>854.3333333333333</ele><time>2026-04-12T10:20:33.981Z</time></trkpt><trkpt lat="46.3949854" lon="12.7387955"><ele>856.6666666666666</ele><time>2026-04-12T10:20:34.98Z</time></trkpt><trkpt lat="46.3950254" lon="12.7390393"><ele>859.0</ele><time>2026-04-12T10:20:35.98Z</time></trkpt><trkpt lat="46.3950665" lon="12.7392767"><ele>860.6666666666666</ele><time>2026-04-12T10:20:36.98Z</time></trkpt><trkpt lat="46.3951143" lon="12.7395068"><ele>862.3333333333333</ele><time>2026-04-12T10:20:37.98Z</time></trkpt><trkpt lat="46.3951803" lon="12.7397188"><ele>864.0</ele><time>2026-04-12T10:20:38.98Z</time></trkpt><trkpt lat="46.3952675" lon="12.7399115"><ele>864.0</ele><time>2026-04-12T10:20:39.98Z</time></trkpt><trkpt lat="46.3953737" lon="12.7400823"><ele>864.0</ele><time>2026-04-12T10:20:40.98Z</time></trkpt><trkpt lat="46.3954977" lon="12.7402407"><ele>864.0</ele><time>2026-04-12T10:20:41.981Z</time></trkpt><trkpt lat="46.395633" lon="12.740393"><ele>866.3333333333333</ele><time>2026-04-12T10:20:42.98Z</time></trkpt><trkpt lat="46.395761" lon="12.7405277"><ele>868.6666666666666</ele><time>2026-04-12T10:20:43.98Z</time></trkpt><trkpt lat="46.3958773" lon="12.7406714"><ele>871.0</ele><time>2026-04-12T10:20:44.98Z</time></trkpt><trkpt lat="46.3959782" lon="12.7408329"><ele>871.0</ele><time>2026-04-12T10:20:45.98Z</time></trkpt><trkpt lat="46.3960653" lon="12.7410116"><ele>871.0</ele><time>2026-04-12T10:20:46.98Z</time></trkpt><trkpt lat="46.3961367" lon="12.7412085"><ele>871.0</ele><time>2026-04-12T10:20:47.98Z</time></trkpt><trkpt lat="46.3961878" lon="12.7414192"><ele>868.0</ele><time>2026-04-12T10:20:48.98Z</time></trkpt><trkpt lat="46.3962261" lon="12.7416374"><ele>865.0</ele><time>2026-04-12T10:20:49.98Z</time></trkpt><trkpt lat="46.3962629" lon="12.7418533"><ele>862.0</ele><time>2026-04-12T10:20:50.98Z</time></trkpt><trkpt lat="46.396299" lon="12.7420678"><ele>864.6666666666666</ele><time>2026-04-12T10:20:51.981Z</time></trkpt><trkpt lat="46.3963476" lon="12.7422774"><ele>867.3333333333333</ele><time>2026-04-12T10:20:52.98Z</time></trkpt><trkpt lat="46.396415" lon="12.7424836"><ele>870.0</ele><time>2026-04-12T10:20:53.98Z</time></trkpt><trkpt lat="46.3964969" lon="12.7426822"><ele>869.3333333333333</ele><time>2026-04-12T10:20:54.98Z</time></trkpt><trkpt lat="46.3965921" lon="12.7428691"><ele>868.6666666666666</ele><time>2026-04-12T10:20:55.98Z</time></trkpt><trkpt lat="46.3966934" lon="12.7430506"><ele>868.0</ele><time>2026-04-12T10:20:56.98Z</time></trkpt><trkpt lat="46.3967985" lon="12.7432319"><ele>868.0</ele><time>2026-04-12T10:20:57.981Z</time></trkpt><trkpt lat="46.3968927" lon="12.7434295"><ele>868.0</ele><time>2026-04-12T10:20:58.981Z</time></trkpt><trkpt lat="46.3969748" lon="12.7436366"><ele>868.0</ele><time>2026-04-12T10:20:59.981Z</time></trkpt><trkpt lat="46.39705" lon="12.7438509"><ele>868.0</ele><time>2026-04-12T10:21:00.98Z</time></trkpt><trkpt lat="46.3971214" lon="12.7440696"><ele>868.0</ele><time>2026-04-12T10:21:01.981Z</time></trkpt><trkpt lat="46.3971935" lon="12.7442886"><ele>868.0</ele><time>2026-04-12T10:21:02.98Z</time></trkpt><trkpt lat="46.3972642" lon="12.7445059"><ele>865.0</ele><time>2026-04-12T10:21:03.98Z</time></trkpt><trkpt lat="46.3973351" lon="12.7447222"><ele>862.0</ele><time>2026-04-12T10:21:04.98Z</time></trkpt><trkpt lat="46.3974043" lon="12.7449396"><ele>859.0</ele><time>2026-04-12T10:21:05.98Z</time></trkpt><trkpt lat="46.397476" lon="12.7451661"><ele>855.6666666666666</ele><time>2026-04-12T10:21:06.98Z</time></trkpt><trkpt lat="46.3975595" lon="12.7453967"><ele>852.3333333333333</ele><time>2026-04-12T10:21:07.981Z</time></trkpt><trkpt lat="46.3976614" lon="12.745624"><ele>849.0</ele><time>2026-04-12T10:21:08.98Z</time></trkpt><trkpt lat="46.3977781" lon="12.7458483"><ele>846.3333333333333</ele><time>2026-04-12T10:21:09.98Z</time></trkpt><trkpt lat="46.3979049" lon="12.7460708"><ele>843.6666666666666</ele><time>2026-04-12T10:21:10.98Z</time></trkpt><trkpt lat="46.3980287" lon="12.7462955"><ele>841.0</ele><time>2026-04-12T10:21:11.98Z</time></trkpt><trkpt lat="46.3981439" lon="12.7465199"><ele>842.6666666666666</ele><time>2026-04-12T10:21:12.98Z</time></trkpt><trkpt lat="46.3982515" lon="12.7467369"><ele>844.3333333333333</ele><time>2026-04-12T10:21:13.98Z</time></trkpt><trkpt lat="46.3983563" lon="12.7469488"><ele>846.0</ele><time>2026-04-12T10:21:14.98Z</time></trkpt><trkpt lat="46.3984579" lon="12.7471549"><ele>846.0</ele><time>2026-04-12T10:21:15.98Z</time></trkpt><trkpt lat="46.3985528" lon="12.7473569"><ele>846.0</ele><time>2026-04-12T10:21:16.98Z</time></trkpt><trkpt lat="46.3986469" lon="12.7475529"><ele>846.0</ele><time>2026-04-12T10:21:17.98Z</time></trkpt><trkpt lat="46.3987425" lon="12.7477446"><ele>847.6666666666667</ele><time>2026-04-12T10:21:18.98Z</time></trkpt><trkpt lat="46.3988348" lon="12.7479358"><ele>849.3333333333334</ele><time>2026-04-12T10:21:19.98Z</time></trkpt><trkpt lat="46.3989176" lon="12.7481381"><ele>851.0</ele><time>2026-04-12T10:21:20.98Z</time></trkpt><trkpt lat="46.398983" lon="12.7483562"><ele>847.0</ele><time>2026-04-12T10:21:21.979Z</time></trkpt><trkpt lat="46.3990223" lon="12.7485893"><ele>843.0</ele><time>2026-04-12T10:21:22.98Z</time></trkpt><trkpt lat="46.3990395" lon="12.7488237"><ele>839.0</ele><time>2026-04-12T10:21:23.979Z</time></trkpt><trkpt lat="46.3990449" lon="12.749058"><ele>839.0</ele><time>2026-04-12T10:21:24.979Z</time></trkpt><trkpt lat="46.399051" lon="12.7492894"><ele>839.0</ele><time>2026-04-12T10:21:25.979Z</time></trkpt><trkpt lat="46.3990557" lon="12.7495175"><ele>839.0</ele><time>2026-04-12T10:21:26.979Z</time></trkpt><trkpt lat="46.3990566" lon="12.7497432"><ele>838.3333333333334</ele><time>2026-04-12T10:21:27.979Z</time></trkpt><trkpt lat="46.3990574" lon="12.7499665"><ele>837.6666666666667</ele><time>2026-04-12T10:21:28.979Z</time></trkpt><trkpt lat="46.3990688" lon="12.7501886"><ele>837.0</ele><time>2026-04-12T10:21:29.979Z</time></trkpt><trkpt lat="46.3991068" lon="12.7504176"><ele>836.0</ele><time>2026-04-12T10:21:30.979Z</time></trkpt><trkpt lat="46.3991695" lon="12.7506421"><ele>835.0</ele><time>2026-04-12T10:21:31.979Z</time></trkpt><trkpt lat="46.3992534" lon="12.7508554"><ele>834.0</ele><time>2026-04-12T10:21:32.979Z</time></trkpt><trkpt lat="46.3993381" lon="12.7510682"><ele>833.0</ele><time>2026-04-12T10:21:33.979Z</time></trkpt><trkpt lat="46.39942" lon="12.751284"><ele>832.0</ele><time>2026-04-12T10:21:34.979Z</time></trkpt><trkpt lat="46.3995046" lon="12.7514992"><ele>831.0</ele><time>2026-04-12T10:21:35.98Z</time></trkpt><trkpt lat="46.3995883" lon="12.7517227"><ele>831.0</ele><time>2026-04-12T10:21:36.979Z</time></trkpt><trkpt lat="46.3996733" lon="12.7519443"><ele>831.0</ele><time>2026-04-12T10:21:37.98Z</time></trkpt><trkpt lat="46.3997683" lon="12.7521544"><ele>831.0</ele><time>2026-04-12T10:21:38.979Z</time></trkpt><trkpt lat="46.3998907" lon="12.7523431"><ele>831.0</ele><time>2026-04-12T10:21:39.98Z</time></trkpt><trkpt lat="46.4000416" lon="12.7525132"><ele>831.0</ele><time>2026-04-12T10:21:40.979Z</time></trkpt><trkpt lat="46.4002047" lon="12.7526799"><ele>831.0</ele><time>2026-04-12T10:21:41.979Z</time></trkpt><trkpt lat="46.4003685" lon="12.752837"><ele>829.0</ele><time>2026-04-12T10:21:42.98Z</time></trkpt><trkpt lat="46.4005273" lon="12.7529923"><ele>827.0</ele><time>2026-04-12T10:21:43.979Z</time></trkpt><trkpt lat="46.4006816" lon="12.7531439"><ele>825.0</ele><time>2026-04-12T10:21:44.979Z</time></trkpt><trkpt lat="46.4008311" lon="12.7532892"><ele>825.0</ele><time>2026-04-12T10:21:45.981Z</time></trkpt><trkpt lat="46.4009772" lon="12.7534307"><ele>825.0</ele><time>2026-04-12T10:21:46.979Z</time></trkpt><trkpt lat="46.4011197" lon="12.7535685"><ele>825.0</ele><time>2026-04-12T10:21:47.979Z</time></trkpt><trkpt lat="46.4012673" lon="12.7536991"><ele>825.3333333333333</ele><time>2026-04-12T10:21:48.979Z</time></trkpt><trkpt lat="46.4014378" lon="12.7537902"><ele>825.6666666666666</ele><time>2026-04-12T10:21:49.979Z</time></trkpt><trkpt lat="46.4016282" lon="12.7538489"><ele>826.0</ele><time>2026-04-12T10:21:50.979Z</time></trkpt><trkpt lat="46.4018145" lon="12.753886"><ele>826.0</ele><time>2026-04-12T10:21:51.979Z</time></trkpt><trkpt lat="46.4019964" lon="12.7539177"><ele>826.0</ele><time>2026-04-12T10:21:52.979Z</time></trkpt><trkpt lat="46.402172" lon="12.75395"><ele>826.0</ele><time>2026-04-12T10:21:53.979Z</time></trkpt><trkpt lat="46.4023394" lon="12.7539756"><ele>827.3333333333333</ele><time>2026-04-12T10:21:54.979Z</time></trkpt><trkpt lat="46.4024983" lon="12.7540013"><ele>828.6666666666667</ele><time>2026-04-12T10:21:55.979Z</time></trkpt><trkpt lat="46.4026549" lon="12.7540286"><ele>830.0</ele><time>2026-04-12T10:21:56.979Z</time></trkpt><trkpt lat="46.4028104" lon="12.7540566"><ele>830.0</ele><time>2026-04-12T10:21:57.979Z</time></trkpt><trkpt lat="46.4029514" lon="12.7540823"><ele>830.0</ele><time>2026-04-12T10:21:58.98Z</time></trkpt><trkpt lat="46.4030612" lon="12.7541088"><ele>830.0</ele><time>2026-04-12T10:21:59.979Z</time></trkpt><trkpt lat="46.4031809" lon="12.7541337"><ele>830.0</ele><time>2026-04-12T10:22:00.979Z</time></trkpt><trkpt lat="46.4033231" lon="12.7541571"><ele>828.0</ele><time>2026-04-12T10:22:01.979Z</time></trkpt><trkpt lat="46.4034819" lon="12.7542021"><ele>826.0</ele><time>2026-04-12T10:22:02.979Z</time></trkpt><trkpt lat="46.4036418" lon="12.7542618"><ele>824.0</ele><time>2026-04-12T10:22:03.979Z</time></trkpt><trkpt lat="46.4038108" lon="12.7543201"><ele>822.6666666666667</ele><time>2026-04-12T10:22:04.979Z</time></trkpt><trkpt lat="46.4040053" lon="12.7543797"><ele>821.3333333333333</ele><time>2026-04-12T10:22:05.98Z</time></trkpt><trkpt lat="46.404205" lon="12.7544767"><ele>820.0</ele><time>2026-04-12T10:22:06.979Z</time></trkpt><trkpt lat="46.4043943" lon="12.7546223"><ele>820.0</ele><time>2026-04-12T10:22:07.979Z</time></trkpt><trkpt lat="46.4045564" lon="12.7548171"><ele>820.0</ele><time>2026-04-12T10:22:08.98Z</time></trkpt><trkpt lat="46.4047064" lon="12.7550245"><ele>820.0</ele><time>2026-04-12T10:22:09.979Z</time></trkpt><trkpt lat="46.4048542" lon="12.7552319"><ele>818.0</ele><time>2026-04-12T10:22:10.981Z</time></trkpt><trkpt lat="46.4050014" lon="12.7554311"><ele>816.0</ele><time>2026-04-12T10:22:11.979Z</time></trkpt><trkpt lat="46.4051442" lon="12.7556237"><ele>814.0</ele><time>2026-04-12T10:22:12.98Z</time></trkpt><trkpt lat="46.4052813" lon="12.755815"><ele>814.0</ele><time>2026-04-12T10:22:13.979Z</time></trkpt><trkpt lat="46.4054169" lon="12.7560023"><ele>814.0</ele><time>2026-04-12T10:22:14.979Z</time></trkpt><trkpt lat="46.4055508" lon="12.7561937"><ele>814.0</ele><time>2026-04-12T10:22:15.979Z</time></trkpt><trkpt lat="46.4056723" lon="12.7564004"><ele>815.3333333333333</ele><time>2026-04-12T10:22:16.979Z</time></trkpt><trkpt lat="46.4057854" lon="12.756615"><ele>816.6666666666667</ele><time>2026-04-12T10:22:17.979Z</time></trkpt><trkpt lat="46.4058961" lon="12.7568334"><ele>818.0</ele><time>2026-04-12T10:22:18.98Z</time></trkpt><trkpt lat="46.4060066" lon="12.7570542"><ele>812.3333333333334</ele><time>2026-04-12T10:22:19.979Z</time></trkpt><trkpt lat="46.4061146" lon="12.7572724"><ele>806.6666666666667</ele><time>2026-04-12T10:22:20.98Z</time></trkpt><trkpt lat="46.40622" lon="12.7574882"><ele>801.0</ele><time>2026-04-12T10:22:21.979Z</time></trkpt><trkpt lat="46.4063227" lon="12.7577034"><ele>804.0</ele><time>2026-04-12T10:22:22.979Z</time></trkpt><trkpt lat="46.4064241" lon="12.7579164"><ele>807.0</ele><time>2026-04-12T10:22:23.979Z</time></trkpt><trkpt lat="46.4065211" lon="12.7581252"><ele>810.0</ele><time>2026-04-12T10:22:24.979Z</time></trkpt><trkpt lat="46.4066154" lon="12.7583285"><ele>810.0</ele><time>2026-04-12T10:22:25.979Z</time></trkpt><trkpt lat="46.4067131" lon="12.7585178"><ele>810.0</ele><time>2026-04-12T10:22:26.98Z</time></trkpt><trkpt lat="46.4068311" lon="12.7586794"><ele>810.0</ele><time>2026-04-12T10:22:27.98Z</time></trkpt><trkpt lat="46.4069593" lon="12.7588246"><ele>807.0</ele><time>2026-04-12T10:22:28.979Z</time></trkpt><trkpt lat="46.4070819" lon="12.7589665"><ele>804.0</ele><time>2026-04-12T10:22:29.979Z</time></trkpt><trkpt lat="46.4072271" lon="12.7590687"><ele>801.0</ele><time>2026-04-12T10:22:30.979Z</time></trkpt><trkpt lat="46.407363" lon="12.7591917"><ele>801.0</ele><time>2026-04-12T10:22:31.979Z</time></trkpt><trkpt lat="46.4075111" lon="12.7592761"><ele>801.0</ele><time>2026-04-12T10:22:32.979Z</time></trkpt><trkpt lat="46.4077246" lon="12.7592653"><ele>801.0</ele><time>2026-04-12T10:22:33.979Z</time></trkpt><trkpt lat="46.4078838" lon="12.7592698"><ele>797.0</ele><time>2026-04-12T10:22:34.979Z</time></trkpt><trkpt lat="46.4080438" lon="12.7593189"><ele>793.0</ele><time>2026-04-12T10:22:35.979Z</time></trkpt><trkpt lat="46.4081925" lon="12.7593977"><ele>789.0</ele><time>2026-04-12T10:22:36.979Z</time></trkpt><trkpt lat="46.4083334" lon="12.7595134"><ele>789.0</ele><time>2026-04-12T10:22:37.98Z</time></trkpt><trkpt lat="46.4084572" lon="12.7596822"><ele>789.0</ele><time>2026-04-12T10:22:38.979Z</time></trkpt><trkpt lat="46.4085767" lon="12.7598584"><ele>789.0</ele><time>2026-04-12T10:22:39.979Z</time></trkpt><trkpt lat="46.4086944" lon="12.7600501"><ele>788.0</ele><time>2026-04-12T10:22:40.98Z</time></trkpt><trkpt lat="46.4088135" lon="12.760246"><ele>787.0</ele><time>2026-04-12T10:22:41.98Z</time></trkpt><trkpt lat="46.4089383" lon="12.7604354"><ele>786.0</ele><time>2026-04-12T10:22:42.979Z</time></trkpt><trkpt lat="46.4090572" lon="12.7606327"><ele>786.0</ele><time>2026-04-12T10:22:43.979Z</time></trkpt><trkpt lat="46.4091781" lon="12.7608314"><ele>786.0</ele><time>2026-04-12T10:22:44.979Z</time></trkpt><trkpt lat="46.409298" lon="12.76102"><ele>786.0</ele><time>2026-04-12T10:22:45.979Z</time></trkpt><trkpt lat="46.4094003" lon="12.7612122"><ele>780.3333333333333</ele><time>2026-04-12T10:22:46.98Z</time></trkpt><trkpt lat="46.4094826" lon="12.7614315"><ele>774.6666666666666</ele><time>2026-04-12T10:22:47.979Z</time></trkpt><trkpt lat="46.4095374" lon="12.7616663"><ele>769.0</ele><time>2026-04-12T10:22:48.979Z</time></trkpt><trkpt lat="46.409572" lon="12.761897"><ele>767.75</ele><time>2026-04-12T10:22:49.979Z</time></trkpt><trkpt lat="46.409572" lon="12.7621261"><ele>766.5</ele><time>2026-04-12T10:22:50.979Z</time></trkpt><trkpt lat="46.4095464" lon="12.7623401"><ele>765.25</ele><time>2026-04-12T10:22:51.979Z</time></trkpt><trkpt lat="46.409505" lon="12.7625363"><ele>764.0</ele><time>2026-04-12T10:22:52.979Z</time></trkpt><trkpt lat="46.4094739" lon="12.7627261"><ele>763.0</ele><time>2026-04-12T10:22:53.979Z</time></trkpt><trkpt lat="46.4094518" lon="12.7629427"><ele>762.0</ele><time>2026-04-12T10:22:54.979Z</time></trkpt><trkpt lat="46.4095162" lon="12.7631779"><ele>761.0</ele><time>2026-04-12T10:22:55.979Z</time></trkpt><trkpt lat="46.4095883" lon="12.7633997"><ele>763.0</ele><time>2026-04-12T10:22:56.98Z</time></trkpt><trkpt lat="46.409681" lon="12.7636106"><ele>765.0</ele><time>2026-04-12T10:22:57.979Z</time></trkpt><trkpt lat="46.4097817" lon="12.7638239"><ele>767.0</ele><time>2026-04-12T10:22:58.979Z</time></trkpt><trkpt lat="46.4098917" lon="12.7640136"><ele>767.0</ele><time>2026-04-12T10:22:59.979Z</time></trkpt><trkpt lat="46.4100231" lon="12.764187"><ele>767.0</ele><time>2026-04-12T10:23:00.98Z</time></trkpt><trkpt lat="46.410173" lon="12.7643557"><ele>767.0</ele><time>2026-04-12T10:23:01.979Z</time></trkpt><trkpt lat="46.4103273" lon="12.764525"><ele>767.0</ele><time>2026-04-12T10:23:02.979Z</time></trkpt><trkpt lat="46.4104748" lon="12.7646852"><ele>767.0</ele><time>2026-04-12T10:23:03.979Z</time></trkpt><trkpt lat="46.4106201" lon="12.7648435"><ele>767.0</ele><time>2026-04-12T10:23:04.979Z</time></trkpt><trkpt lat="46.4107646" lon="12.7649984"><ele>767.0</ele><time>2026-04-12T10:23:05.979Z</time></trkpt><trkpt lat="46.4109014" lon="12.7651508"><ele>767.0</ele><time>2026-04-12T10:23:06.979Z</time></trkpt><trkpt lat="46.4110315" lon="12.7652964"><ele>767.0</ele><time>2026-04-12T10:23:07.98Z</time></trkpt><trkpt lat="46.4111532" lon="12.7654318"><ele>766.25</ele><time>2026-04-12T10:23:08.979Z</time></trkpt><trkpt lat="46.4112641" lon="12.7655594"><ele>765.5</ele><time>2026-04-12T10:23:09.979Z</time></trkpt><trkpt lat="46.4113762" lon="12.7656749"><ele>764.75</ele><time>2026-04-12T10:23:10.979Z</time></trkpt><trkpt lat="46.4115058" lon="12.7657586"><ele>764.0</ele><time>2026-04-12T10:23:11.98Z</time></trkpt><trkpt lat="46.4116421" lon="12.7658056"><ele>764.0</ele><time>2026-04-12T10:23:12.98Z</time></trkpt><trkpt lat="46.4117947" lon="12.7658113"><ele>764.0</ele><time>2026-04-12T10:23:13.98Z</time></trkpt><trkpt lat="46.4119274" lon="12.765744"><ele>764.0</ele><time>2026-04-12T10:23:14.979Z</time></trkpt><trkpt lat="46.4120653" lon="12.765694"><ele>764.0</ele><time>2026-04-12T10:23:15.98Z</time></trkpt><trkpt lat="46.4121856" lon="12.7655863"><ele>763.5</ele><time>2026-04-12T10:23:16.98Z</time></trkpt><trkpt lat="46.412297" lon="12.7654578"><ele>763.0</ele><time>2026-04-12T10:23:17.979Z</time></trkpt><trkpt lat="46.412388" lon="12.7652859"><ele>762.5</ele><time>2026-04-12T10:23:18.979Z</time></trkpt><trkpt lat="46.4124487" lon="12.7650861"><ele>762.0</ele><time>2026-04-12T10:23:19.98Z</time></trkpt><trkpt lat="46.4124796" lon="12.7648571"><ele>762.0</ele><time>2026-04-12T10:23:20.979Z</time></trkpt><trkpt lat="46.4124701" lon="12.7646391"><ele>762.0</ele><time>2026-04-12T10:23:21.979Z</time></trkpt><trkpt lat="46.412451" lon="12.7644295"><ele>762.0</ele><time>2026-04-12T10:23:22.979Z</time></trkpt><trkpt lat="46.4124357" lon="12.7642291"><ele>762.0</ele><time>2026-04-12T10:23:23.979Z</time></trkpt><trkpt lat="46.412451" lon="12.7640257"><ele>763.0</ele><time>2026-04-12T10:23:24.98Z</time></trkpt><trkpt lat="46.412508" lon="12.763843"><ele>764.0</ele><time>2026-04-12T10:23:25.979Z</time></trkpt><trkpt lat="46.4125952" lon="12.763681"><ele>765.0</ele><time>2026-04-12T10:23:26.979Z</time></trkpt><trkpt lat="46.4126953" lon="12.7635432"><ele>766.0</ele><time>2026-04-12T10:23:27.979Z</time></trkpt><trkpt lat="46.4128526" lon="12.7635093"><ele>767.6666666666667</ele><time>2026-04-12T10:23:28.979Z</time></trkpt><trkpt lat="46.4130021" lon="12.7635019"><ele>769.3333333333334</ele><time>2026-04-12T10:23:29.98Z</time></trkpt><trkpt lat="46.4131612" lon="12.7635621"><ele>771.0</ele><time>2026-04-12T10:23:30.98Z</time></trkpt><trkpt lat="46.413317" lon="12.7636821"><ele>765.0</ele><time>2026-04-12T10:23:31.979Z</time></trkpt><trkpt lat="46.4134682" lon="12.763856"><ele>759.0</ele><time>2026-04-12T10:23:32.979Z</time></trkpt><trkpt lat="46.4135902" lon="12.764081"><ele>753.0</ele><time>2026-04-12T10:23:33.979Z</time></trkpt><trkpt lat="46.4136984" lon="12.7643215"><ele>751.0</ele><time>2026-04-12T10:23:34.979Z</time></trkpt><trkpt lat="46.4138026" lon="12.764552"><ele>749.0</ele><time>2026-04-12T10:23:35.979Z</time></trkpt><trkpt lat="46.4139247" lon="12.7647624"><ele>747.0</ele><time>2026-04-12T10:23:36.979Z</time></trkpt><trkpt lat="46.4140502" lon="12.7649784"><ele>747.0</ele><time>2026-04-12T10:23:37.979Z</time></trkpt><trkpt lat="46.4142095" lon="12.7651351"><ele>747.0</ele><time>2026-04-12T10:23:38.979Z</time></trkpt><trkpt lat="46.4143409" lon="12.7653082"><ele>747.0</ele><time>2026-04-12T10:23:39.98Z</time></trkpt><trkpt lat="46.4144752" lon="12.7654578"><ele>744.3333333333334</ele><time>2026-04-12T10:23:40.979Z</time></trkpt><trkpt lat="46.4145963" lon="12.7656129"><ele>741.6666666666667</ele><time>2026-04-12T10:23:41.979Z</time></trkpt><trkpt lat="46.4147113" lon="12.7657592"><ele>739.0</ele><time>2026-04-12T10:23:42.98Z</time></trkpt><trkpt lat="46.4148242" lon="12.7658975"><ele>735.75</ele><time>2026-04-12T10:23:43.979Z</time></trkpt><trkpt lat="46.4149371" lon="12.7660331"><ele>732.5</ele><time>2026-04-12T10:23:44.979Z</time></trkpt><trkpt lat="46.4150468" lon="12.7661665"><ele>729.25</ele><time>2026-04-12T10:23:45.979Z</time></trkpt><trkpt lat="46.4151515" lon="12.7662984"><ele>726.0</ele><time>2026-04-12T10:23:46.979Z</time></trkpt><trkpt lat="46.4152418" lon="12.7664363"><ele>726.0</ele><time>2026-04-12T10:23:47.979Z</time></trkpt><trkpt lat="46.4152912" lon="12.7666001"><ele>726.0</ele><time>2026-04-12T10:23:48.979Z</time></trkpt><trkpt lat="46.4153029" lon="12.766772"><ele>726.0</ele><time>2026-04-12T10:23:49.979Z</time></trkpt><trkpt lat="46.4152782" lon="12.7669439"><ele>726.0</ele><time>2026-04-12T10:23:50.979Z</time></trkpt><trkpt lat="46.4151907" lon="12.7670757"><ele>725.5</ele><time>2026-04-12T10:23:51.979Z</time></trkpt><trkpt lat="46.4150674" lon="12.7671685"><ele>725.0</ele><time>2026-04-12T10:23:52.979Z</time></trkpt><trkpt lat="46.4149354" lon="12.7671864"><ele>724.5</ele><time>2026-04-12T10:23:53.979Z</time></trkpt><trkpt lat="46.4147933" lon="12.7671275"><ele>724.0</ele><time>2026-04-12T10:23:54.98Z</time></trkpt><trkpt lat="46.4146446" lon="12.7670427"><ele>723.0</ele><time>2026-04-12T10:23:55.98Z</time></trkpt><trkpt lat="46.414503" lon="12.7669582"><ele>722.0</ele><time>2026-04-12T10:23:56.979Z</time></trkpt><trkpt lat="46.4143589" lon="12.7668717"><ele>721.0</ele><time>2026-04-12T10:23:57.98Z</time></trkpt><trkpt lat="46.4142243" lon="12.7667833"><ele>721.0</ele><time>2026-04-12T10:23:58.979Z</time></trkpt><trkpt lat="46.4140915" lon="12.7667011"><ele>721.0</ele><time>2026-04-12T10:23:59.979Z</time></trkpt><trkpt lat="46.4139671" lon="12.7666173"><ele>721.0</ele><time>2026-04-12T10:24:00.979Z</time></trkpt><trkpt lat="46.4138453" lon="12.7665484"><ele>721.0</ele><time>2026-04-12T10:24:01.98Z</time></trkpt><trkpt lat="46.4137195" lon="12.7665199"><ele>721.5</ele><time>2026-04-12T10:24:02.98Z</time></trkpt><trkpt lat="46.4135938" lon="12.766552"><ele>722.0</ele><time>2026-04-12T10:24:03.979Z</time></trkpt><trkpt lat="46.4134796" lon="12.7666477"><ele>722.5</ele><time>2026-04-12T10:24:04.979Z</time></trkpt><trkpt lat="46.4133997" lon="12.7667955"><ele>723.0</ele><time>2026-04-12T10:24:05.979Z</time></trkpt><trkpt lat="46.4133605" lon="12.7669849"><ele>718.6666666666666</ele><time>2026-04-12T10:24:06.98Z</time></trkpt><trkpt lat="46.4133733" lon="12.7671894"><ele>714.3333333333333</ele><time>2026-04-12T10:24:07.98Z</time></trkpt><trkpt lat="46.4134447" lon="12.7673905"><ele>710.0</ele><time>2026-04-12T10:24:08.979Z</time></trkpt><trkpt lat="46.4135618" lon="12.7675804"><ele>709.0</ele><time>2026-04-12T10:24:09.98Z</time></trkpt><trkpt lat="46.4136969" lon="12.7677574"><ele>708.0</ele><time>2026-04-12T10:24:10.979Z</time></trkpt><trkpt lat="46.4138174" lon="12.7679415"><ele>707.0</ele><time>2026-04-12T10:24:11.979Z</time></trkpt><trkpt lat="46.4139123" lon="12.7681507"><ele>707.0</ele><time>2026-04-12T10:24:12.979Z</time></trkpt><trkpt lat="46.4139765" lon="12.768381"><ele>707.0</ele><time>2026-04-12T10:24:13.979Z</time></trkpt><trkpt lat="46.4139944" lon="12.768621"><ele>707.0</ele><time>2026-04-12T10:24:14.979Z</time></trkpt><trkpt lat="46.4139702" lon="12.7688607"><ele>707.6666666666666</ele><time>2026-04-12T10:24:15.979Z</time></trkpt><trkpt lat="46.4139174" lon="12.7690917"><ele>708.3333333333334</ele><time>2026-04-12T10:24:16.98Z</time></trkpt><trkpt lat="46.4138601" lon="12.7693112"><ele>709.0</ele><time>2026-04-12T10:24:17.979Z</time></trkpt><trkpt lat="46.4138012" lon="12.769538"><ele>704.6666666666667</ele><time>2026-04-12T10:24:18.979Z</time></trkpt><trkpt lat="46.4137384" lon="12.7697587"><ele>700.3333333333334</ele><time>2026-04-12T10:24:19.979Z</time></trkpt><trkpt lat="46.4136755" lon="12.7699813"><ele>696.0</ele><time>2026-04-12T10:24:20.98Z</time></trkpt><trkpt lat="46.4136342" lon="12.7702173"><ele>696.0</ele><time>2026-04-12T10:24:21.979Z</time></trkpt><trkpt lat="46.4136249" lon="12.7704621"><ele>696.0</ele><time>2026-04-12T10:24:22.979Z</time></trkpt><trkpt lat="46.4136436" lon="12.7707101"><ele>696.0</ele><time>2026-04-12T10:24:23.979Z</time></trkpt><trkpt lat="46.4137023" lon="12.7709531"><ele>698.0</ele><time>2026-04-12T10:24:24.979Z</time></trkpt><trkpt lat="46.4137722" lon="12.7711858"><ele>700.0</ele><time>2026-04-12T10:24:25.979Z</time></trkpt><trkpt lat="46.4138423" lon="12.7714153"><ele>702.0</ele><time>2026-04-12T10:24:26.979Z</time></trkpt><trkpt lat="46.4139028" lon="12.7716455"><ele>705.0</ele><time>2026-04-12T10:24:27.979Z</time></trkpt><trkpt lat="46.4139417" lon="12.771886"><ele>708.0</ele><time>2026-04-12T10:24:28.979Z</time></trkpt><trkpt lat="46.4139498" lon="12.7721452"><ele>711.0</ele><time>2026-04-12T10:24:29.979Z</time></trkpt><trkpt lat="46.4139447" lon="12.7724092"><ele>711.0</ele><time>2026-04-12T10:24:30.979Z</time></trkpt><trkpt lat="46.4139356" lon="12.7726728"><ele>711.0</ele><time>2026-04-12T10:24:31.979Z</time></trkpt><trkpt lat="46.4139269" lon="12.7729354"><ele>711.0</ele><time>2026-04-12T10:24:32.979Z</time></trkpt><trkpt lat="46.4139114" lon="12.773192"><ele>707.3333333333334</ele><time>2026-04-12T10:24:33.98Z</time></trkpt><trkpt lat="46.4138813" lon="12.7734418"><ele>703.6666666666667</ele><time>2026-04-12T10:24:34.979Z</time></trkpt><trkpt lat="46.4138422" lon="12.7736893"><ele>700.0</ele><time>2026-04-12T10:24:35.979Z</time></trkpt><trkpt lat="46.4138032" lon="12.7739392"><ele>691.3333333333334</ele><time>2026-04-12T10:24:36.98Z</time></trkpt><trkpt lat="46.4137831" lon="12.7741955"><ele>682.6666666666666</ele><time>2026-04-12T10:24:37.98Z</time></trkpt><trkpt lat="46.4137934" lon="12.7744623"><ele>674.0</ele><time>2026-04-12T10:24:38.979Z</time></trkpt><trkpt lat="46.4138118" lon="12.7747198"><ele>675.0</ele><time>2026-04-12T10:24:39.979Z</time></trkpt><trkpt lat="46.4138314" lon="12.7749734"><ele>676.0</ele><time>2026-04-12T10:24:40.98Z</time></trkpt><trkpt lat="46.4138533" lon="12.7752242"><ele>677.0</ele><time>2026-04-12T10:24:41.979Z</time></trkpt><trkpt lat="46.4138738" lon="12.7754762"><ele>677.0</ele><time>2026-04-12T10:24:42.979Z</time></trkpt><trkpt lat="46.4138983" lon="12.7757204"><ele>677.0</ele><time>2026-04-12T10:24:43.98Z</time></trkpt><trkpt lat="46.413952" lon="12.7759595"><ele>677.0</ele><time>2026-04-12T10:24:44.979Z</time></trkpt><trkpt lat="46.4140569" lon="12.7761971"><ele>675.6666666666666</ele><time>2026-04-12T10:24:45.979Z</time></trkpt><trkpt lat="46.4141707" lon="12.7764315"><ele>674.3333333333334</ele><time>2026-04-12T10:24:46.979Z</time></trkpt><trkpt lat="46.4142636" lon="12.7766931"><ele>673.0</ele><time>2026-04-12T10:24:47.979Z</time></trkpt><trkpt lat="46.4143313" lon="12.7769711"><ele>669.6666666666667</ele><time>2026-04-12T10:24:48.98Z</time></trkpt><trkpt lat="46.414389" lon="12.777241"><ele>666.3333333333334</ele><time>2026-04-12T10:24:49.979Z</time></trkpt><trkpt lat="46.4144506" lon="12.7775058"><ele>663.0</ele><time>2026-04-12T10:24:50.979Z</time></trkpt><trkpt lat="46.4145143" lon="12.7777546"><ele>660.0</ele><time>2026-04-12T10:24:51.979Z</time></trkpt><trkpt lat="46.4145808" lon="12.7779949"><ele>657.0</ele><time>2026-04-12T10:24:52.979Z</time></trkpt><trkpt lat="46.4146467" lon="12.7782239"><ele>654.0</ele><time>2026-04-12T10:24:53.979Z</time></trkpt><trkpt lat="46.4147095" lon="12.7784469"><ele>655.75</ele><time>2026-04-12T10:24:54.979Z</time></trkpt><trkpt lat="46.4147666" lon="12.7786578"><ele>657.5</ele><time>2026-04-12T10:24:55.979Z</time></trkpt><trkpt lat="46.4148255" lon="12.7788538"><ele>659.25</ele><time>2026-04-12T10:24:56.98Z</time></trkpt><trkpt lat="46.4148666" lon="12.7790547"><ele>661.0</ele><time>2026-04-12T10:24:57.979Z</time></trkpt><trkpt lat="46.4148662" lon="12.7792778"><ele>658.0</ele><time>2026-04-12T10:24:58.979Z</time></trkpt><trkpt lat="46.4148097" lon="12.7794832"><ele>655.0</ele><time>2026-04-12T10:24:59.98Z</time></trkpt><trkpt lat="46.4146932" lon="12.779672"><ele>652.0</ele><time>2026-04-12T10:25:00.979Z</time></trkpt><trkpt lat="46.4145311" lon="12.7798685"><ele>653.3333333333334</ele><time>2026-04-12T10:25:01.98Z</time></trkpt><trkpt lat="46.4143676" lon="12.7800415"><ele>654.6666666666666</ele><time>2026-04-12T10:25:02.979Z</time></trkpt><trkpt lat="46.4142047" lon="12.7802172"><ele>656.0</ele><time>2026-04-12T10:25:03.98Z</time></trkpt><trkpt lat="46.414055" lon="12.7803875"><ele>656.0</ele><time>2026-04-12T10:25:04.979Z</time></trkpt><trkpt lat="46.4139024" lon="12.7805531"><ele>656.0</ele><time>2026-04-12T10:25:05.979Z</time></trkpt><trkpt lat="46.4137408" lon="12.7806904"><ele>656.0</ele><time>2026-04-12T10:25:06.979Z</time></trkpt><trkpt lat="46.4135707" lon="12.7807778"><ele>654.3333333333333</ele><time>2026-04-12T10:25:07.979Z</time></trkpt><trkpt lat="46.413398" lon="12.7808394"><ele>652.6666666666666</ele><time>2026-04-12T10:25:08.98Z</time></trkpt><trkpt lat="46.4132309" lon="12.7809033"><ele>651.0</ele><time>2026-04-12T10:25:09.979Z</time></trkpt><trkpt lat="46.4130733" lon="12.7809941"><ele>646.3333333333334</ele><time>2026-04-12T10:25:10.979Z</time></trkpt><trkpt lat="46.4129289" lon="12.7811274"><ele>641.6666666666667</ele><time>2026-04-12T10:25:11.979Z</time></trkpt><trkpt lat="46.4128084" lon="12.7812942"><ele>637.0</ele><time>2026-04-12T10:25:12.979Z</time></trkpt><trkpt lat="46.412708" lon="12.7815001"><ele>637.0</ele><time>2026-04-12T10:25:13.979Z</time></trkpt><trkpt lat="46.4126337" lon="12.7817389"><ele>637.0</ele><time>2026-04-12T10:25:14.98Z</time></trkpt><trkpt lat="46.4125926" lon="12.7819988"><ele>637.0</ele><time>2026-04-12T10:25:15.979Z</time></trkpt><trkpt lat="46.4125765" lon="12.7822629"><ele>636.6666666666667</ele><time>2026-04-12T10:25:16.98Z</time></trkpt><trkpt lat="46.4125622" lon="12.7825265"><ele>636.3333333333334</ele><time>2026-04-12T10:25:17.979Z</time></trkpt><trkpt lat="46.4125408" lon="12.7827791"><ele>636.0</ele><time>2026-04-12T10:25:18.979Z</time></trkpt><trkpt lat="46.4124953" lon="12.7830234"><ele>636.0</ele><time>2026-04-12T10:25:19.979Z</time></trkpt><trkpt lat="46.4124379" lon="12.7832616"><ele>636.0</ele><time>2026-04-12T10:25:20.98Z</time></trkpt><trkpt lat="46.4123868" lon="12.7834914"><ele>636.0</ele><time>2026-04-12T10:25:21.979Z</time></trkpt><trkpt lat="46.4123297" lon="12.783716"><ele>636.6666666666666</ele><time>2026-04-12T10:25:22.979Z</time></trkpt><trkpt lat="46.4122729" lon="12.7839305"><ele>637.3333333333333</ele><time>2026-04-12T10:25:23.979Z</time></trkpt><trkpt lat="46.4122347" lon="12.7841438"><ele>638.0</ele><time>2026-04-12T10:25:24.979Z</time></trkpt><trkpt lat="46.4122366" lon="12.7843659"><ele>635.0</ele><time>2026-04-12T10:25:25.979Z</time></trkpt><trkpt lat="46.4122594" lon="12.7845807"><ele>632.0</ele><time>2026-04-12T10:25:26.979Z</time></trkpt><trkpt lat="46.4122759" lon="12.7847847"><ele>629.0</ele><time>2026-04-12T10:25:27.979Z</time></trkpt><trkpt lat="46.4123154" lon="12.784974"><ele>626.0</ele><time>2026-04-12T10:25:28.979Z</time></trkpt><trkpt lat="46.4123979" lon="12.7851482"><ele>619.6666666666666</ele><time>2026-04-12T10:25:29.98Z</time></trkpt><trkpt lat="46.4125187" lon="12.7852713"><ele>613.3333333333334</ele><time>2026-04-12T10:25:30.979Z</time></trkpt><trkpt lat="46.4126509" lon="12.785373"><ele>607.0</ele><time>2026-04-12T10:25:31.979Z</time></trkpt><trkpt lat="46.4127872" lon="12.7855089"><ele>607.0</ele><time>2026-04-12T10:25:32.979Z</time></trkpt><trkpt lat="46.4129094" lon="12.7856873"><ele>607.0</ele><time>2026-04-12T10:25:33.979Z</time></trkpt><trkpt lat="46.4130108" lon="12.7858756"><ele>607.0</ele><time>2026-04-12T10:25:34.979Z</time></trkpt><trkpt lat="46.4131075" lon="12.7860678"><ele>608.3333333333334</ele><time>2026-04-12T10:25:35.979Z</time></trkpt><trkpt lat="46.4132127" lon="12.7862456"><ele>609.6666666666666</ele><time>2026-04-12T10:25:36.979Z</time></trkpt><trkpt lat="46.4133189" lon="12.7864079"><ele>611.0</ele><time>2026-04-12T10:25:37.98Z</time></trkpt><trkpt lat="46.4134272" lon="12.7865582"><ele>611.0</ele><time>2026-04-12T10:25:38.979Z</time></trkpt><trkpt lat="46.4135566" lon="12.7866778"><ele>611.0</ele><time>2026-04-12T10:25:39.98Z</time></trkpt><trkpt lat="46.4136988" lon="12.786743"><ele>611.0</ele><time>2026-04-12T10:25:40.979Z</time></trkpt><trkpt lat="46.4138417" lon="12.7867816"><ele>611.0</ele><time>2026-04-12T10:25:41.98Z</time></trkpt><trkpt lat="46.4139793" lon="12.786831"><ele>609.75</ele><time>2026-04-12T10:25:42.979Z</time></trkpt><trkpt lat="46.4140924" lon="12.7869324"><ele>608.5</ele><time>2026-04-12T10:25:43.98Z</time></trkpt><trkpt lat="46.4141767" lon="12.7870768"><ele>607.25</ele><time>2026-04-12T10:25:44.979Z</time></trkpt><trkpt lat="46.4142235" lon="12.7872551"><ele>606.0</ele><time>2026-04-12T10:25:45.98Z</time></trkpt><trkpt lat="46.4142319" lon="12.7874603"><ele>606.0</ele><time>2026-04-12T10:25:46.98Z</time></trkpt><trkpt lat="46.4142236" lon="12.7876596"><ele>606.0</ele><time>2026-04-12T10:25:47.979Z</time></trkpt><trkpt lat="46.4142123" lon="12.7878645"><ele>606.0</ele><time>2026-04-12T10:25:48.979Z</time></trkpt><trkpt lat="46.4141971" lon="12.7880667"><ele>606.0</ele><time>2026-04-12T10:25:49.979Z</time></trkpt><trkpt lat="46.4141868" lon="12.7882607"><ele>604.5</ele><time>2026-04-12T10:25:50.98Z</time></trkpt><trkpt lat="46.4142047" lon="12.7884599"><ele>603.0</ele><time>2026-04-12T10:25:51.979Z</time></trkpt><trkpt lat="46.4142528" lon="12.7886438"><ele>601.5</ele><time>2026-04-12T10:25:52.979Z</time></trkpt><trkpt lat="46.4143124" lon="12.7888228"><ele>600.0</ele><time>2026-04-12T10:25:53.979Z</time></trkpt><trkpt lat="46.4143773" lon="12.7889851"><ele>597.6</ele><time>2026-04-12T10:25:54.979Z</time></trkpt><trkpt lat="46.4144387" lon="12.7891294"><ele>595.2</ele><time>2026-04-12T10:25:55.979Z</time></trkpt><trkpt lat="46.4145" lon="12.7892602"><ele>592.8</ele><time>2026-04-12T10:25:56.979Z</time></trkpt><trkpt lat="46.4145766" lon="12.7893491"><ele>590.4</ele><time>2026-04-12T10:25:57.979Z</time></trkpt><trkpt lat="46.4146727" lon="12.7893813"><ele>588.0</ele><time>2026-04-12T10:25:58.979Z</time></trkpt><trkpt lat="46.4147766" lon="12.7893439"><ele>588.75</ele><time>2026-04-12T10:25:59.979Z</time></trkpt><trkpt lat="46.4148762" lon="12.7892501"><ele>589.5</ele><time>2026-04-12T10:26:00.979Z</time></trkpt><trkpt lat="46.4149725" lon="12.7891402"><ele>590.25</ele><time>2026-04-12T10:26:01.979Z</time></trkpt><trkpt lat="46.4150688" lon="12.7890262"><ele>591.0</ele><time>2026-04-12T10:26:02.979Z</time></trkpt><trkpt lat="46.4151639" lon="12.7889119"><ele>591.0</ele><time>2026-04-12T10:26:03.98Z</time></trkpt><trkpt lat="46.4152553" lon="12.7888005"><ele>591.0</ele><time>2026-04-12T10:26:04.979Z</time></trkpt><trkpt lat="46.4153452" lon="12.7886896"><ele>591.0</ele><time>2026-04-12T10:26:05.979Z</time></trkpt><trkpt lat="46.4154309" lon="12.788578"><ele>591.0</ele><time>2026-04-12T10:26:06.979Z</time></trkpt><trkpt lat="46.4154942" lon="12.7884423"><ele>589.5</ele><time>2026-04-12T10:26:07.979Z</time></trkpt><trkpt lat="46.4155365" lon="12.7882901"><ele>588.0</ele><time>2026-04-12T10:26:08.979Z</time></trkpt><trkpt lat="46.4155802" lon="12.7881386"><ele>586.5</ele><time>2026-04-12T10:26:09.979Z</time></trkpt><trkpt lat="46.4156597" lon="12.7880137"><ele>585.0</ele><time>2026-04-12T10:26:10.979Z</time></trkpt><trkpt lat="46.4157673" lon="12.787922"><ele>585.0</ele><time>2026-04-12T10:26:11.979Z</time></trkpt><trkpt lat="46.4158837" lon="12.7878782"><ele>585.0</ele><time>2026-04-12T10:26:12.979Z</time></trkpt><trkpt lat="46.4160064" lon="12.7878829"><ele>585.0</ele><time>2026-04-12T10:26:13.979Z</time></trkpt><trkpt lat="46.4161296" lon="12.7879161"><ele>585.0</ele><time>2026-04-12T10:26:14.98Z</time></trkpt><trkpt lat="46.4162548" lon="12.7879501"><ele>583.75</ele><time>2026-04-12T10:26:15.979Z</time></trkpt><trkpt lat="46.4163781" lon="12.787987"><ele>582.5</ele><time>2026-04-12T10:26:16.979Z</time></trkpt><trkpt lat="46.4164986" lon="12.7880252"><ele>581.25</ele><time>2026-04-12T10:26:17.979Z</time></trkpt><trkpt lat="46.4166164" lon="12.7880623"><ele>580.0</ele><time>2026-04-12T10:26:18.979Z</time></trkpt><trkpt lat="46.4167341" lon="12.7880996"><ele>580.0</ele><time>2026-04-12T10:26:19.979Z</time></trkpt><trkpt lat="46.4168508" lon="12.7881373"><ele>580.0</ele><time>2026-04-12T10:26:20.98Z</time></trkpt><trkpt lat="46.4169644" lon="12.7881789"><ele>580.0</ele><time>2026-04-12T10:26:21.979Z</time></trkpt><trkpt lat="46.4170732" lon="12.7882393"><ele>580.0</ele><time>2026-04-12T10:26:22.979Z</time></trkpt><trkpt lat="46.4171724" lon="12.7883195"><ele>579.4</ele><time>2026-04-12T10:26:23.98Z</time></trkpt><trkpt lat="46.4172562" lon="12.7884226"><ele>578.8</ele><time>2026-04-12T10:26:24.979Z</time></trkpt><trkpt lat="46.4173345" lon="12.7885373"><ele>578.2</ele><time>2026-04-12T10:26:25.979Z</time></trkpt><trkpt lat="46.4174156" lon="12.7886511"><ele>577.6</ele><time>2026-04-12T10:26:26.98Z</time></trkpt><trkpt lat="46.4174804" lon="12.7887719"><ele>577.0</ele><time>2026-04-12T10:26:27.979Z</time></trkpt><trkpt lat="46.4175266" lon="12.7889053"><ele>576.0</ele><time>2026-04-12T10:26:28.979Z</time></trkpt><trkpt lat="46.4175509" lon="12.7890468"><ele>575.0</ele><time>2026-04-12T10:26:29.979Z</time></trkpt><trkpt lat="46.417549" lon="12.7891956"><ele>574.0</ele><time>2026-04-12T10:26:30.979Z</time></trkpt><trkpt lat="46.4175204" lon="12.7893424"><ele>573.0</ele><time>2026-04-12T10:26:31.98Z</time></trkpt><trkpt lat="46.4174774" lon="12.7894858"><ele>572.0</ele><time>2026-04-12T10:26:32.979Z</time></trkpt><trkpt lat="46.4174286" lon="12.7896313"><ele>571.6</ele><time>2026-04-12T10:26:33.979Z</time></trkpt><trkpt lat="46.4173804" lon="12.7897831"><ele>571.2</ele><time>2026-04-12T10:26:34.979Z</time></trkpt><trkpt lat="46.4173323" lon="12.7899309"><ele>570.8</ele><time>2026-04-12T10:26:35.979Z</time></trkpt><trkpt lat="46.4172856" lon="12.7900705"><ele>570.4</ele><time>2026-04-12T10:26:36.979Z</time></trkpt><trkpt lat="46.4172372" lon="12.790205"><ele>570.0</ele><time>2026-04-12T10:26:37.979Z</time></trkpt><trkpt lat="46.4171906" lon="12.7903397"><ele>569.2</ele><time>2026-04-12T10:26:38.979Z</time></trkpt><trkpt lat="46.4171452" lon="12.7904691"><ele>568.4</ele><time>2026-04-12T10:26:39.98Z</time></trkpt><trkpt lat="46.417102" lon="12.7905938"><ele>567.6</ele><time>2026-04-12T10:26:40.979Z</time></trkpt><trkpt lat="46.417056" lon="12.7907113"><ele>566.8</ele><time>2026-04-12T10:26:41.979Z</time></trkpt><trkpt lat="46.4170008" lon="12.7908085"><ele>566.0</ele><time>2026-04-12T10:26:42.98Z</time></trkpt><trkpt lat="46.4169297" lon="12.7908766"><ele>566.0</ele><time>2026-04-12T10:26:43.979Z</time></trkpt><trkpt lat="46.4168507" lon="12.7909255"><ele>566.0</ele><time>2026-04-12T10:26:44.979Z</time></trkpt><trkpt lat="46.4167655" lon="12.7909447"><ele>566.0</ele><time>2026-04-12T10:26:45.979Z</time></trkpt><trkpt lat="46.4166738" lon="12.7909472"><ele>566.0</ele><time>2026-04-12T10:26:46.979Z</time></trkpt><trkpt lat="46.4165868" lon="12.790936"><ele>566.0</ele><time>2026-04-12T10:26:47.979Z</time></trkpt><trkpt lat="46.4165033" lon="12.7909149"><ele>566.0</ele><time>2026-04-12T10:26:48.979Z</time></trkpt><trkpt lat="46.4164198" lon="12.7909081"><ele>566.0</ele><time>2026-04-12T10:26:49.979Z</time></trkpt><trkpt lat="46.4163391" lon="12.7909431"><ele>566.0</ele><time>2026-04-12T10:26:50.979Z</time></trkpt><trkpt lat="46.4162789" lon="12.7910237"><ele>566.0</ele><time>2026-04-12T10:26:51.98Z</time></trkpt><trkpt lat="46.4162444" lon="12.7911329"><ele>566.0</ele><time>2026-04-12T10:26:52.979Z</time></trkpt><trkpt lat="46.4162272" lon="12.791267"><ele>566.0</ele><time>2026-04-12T10:26:53.979Z</time></trkpt><trkpt lat="46.4162176" lon="12.7914179"><ele>566.0</ele><time>2026-04-12T10:26:54.979Z</time></trkpt><trkpt lat="46.4162213" lon="12.7915735"><ele>566.0</ele><time>2026-04-12T10:26:55.979Z</time></trkpt><trkpt lat="46.4162421" lon="12.7917411"><ele>566.0</ele><time>2026-04-12T10:26:56.979Z</time></trkpt><trkpt lat="46.4162751" lon="12.7918907"><ele>566.0</ele><time>2026-04-12T10:26:57.979Z</time></trkpt><trkpt lat="46.4163077" lon="12.792038"><ele>566.0</ele><time>2026-04-12T10:26:58.979Z</time></trkpt><trkpt lat="46.4163417" lon="12.79218"><ele>566.0</ele><time>2026-04-12T10:26:59.98Z</time></trkpt><trkpt lat="46.4163797" lon="12.7923166"><ele>566.0</ele><time>2026-04-12T10:27:00.979Z</time></trkpt><trkpt lat="46.4164215" lon="12.7924451"><ele>566.0</ele><time>2026-04-12T10:27:01.98Z</time></trkpt><trkpt lat="46.4164678" lon="12.7925575"><ele>566.0</ele><time>2026-04-12T10:27:02.979Z</time></trkpt><trkpt lat="46.4165074" lon="12.7926633"><ele>566.0</ele><time>2026-04-12T10:27:03.98Z</time></trkpt><trkpt lat="46.4165449" lon="12.7927834"><ele>566.0</ele><time>2026-04-12T10:27:04.979Z</time></trkpt><trkpt lat="46.416573" lon="12.7929246"><ele>565.6</ele><time>2026-04-12T10:27:05.98Z</time></trkpt><trkpt lat="46.416583" lon="12.7930691"><ele>565.2</ele><time>2026-04-12T10:27:06.979Z</time></trkpt><trkpt lat="46.4165869" lon="12.7932173"><ele>564.8</ele><time>2026-04-12T10:27:07.98Z</time></trkpt><trkpt lat="46.416573" lon="12.7933696"><ele>564.4</ele><time>2026-04-12T10:27:08.979Z</time></trkpt><trkpt lat="46.4165454" lon="12.7935147"><ele>564.0</ele><time>2026-04-12T10:27:09.979Z</time></trkpt><trkpt lat="46.4165082" lon="12.7936526"><ele>563.4</ele><time>2026-04-12T10:27:10.979Z</time></trkpt><trkpt lat="46.4164667" lon="12.7937845"><ele>562.8</ele><time>2026-04-12T10:27:11.979Z</time></trkpt><trkpt lat="46.416421" lon="12.7939153"><ele>562.2</ele><time>2026-04-12T10:27:12.979Z</time></trkpt><trkpt lat="46.4163851" lon="12.7940416"><ele>561.6</ele><time>2026-04-12T10:27:13.979Z</time></trkpt><trkpt lat="46.4163535" lon="12.7941702"><ele>561.0</ele><time>2026-04-12T10:27:14.979Z</time></trkpt><trkpt lat="46.4163421" lon="12.7943056"><ele>560.2</ele><time>2026-04-12T10:27:15.979Z</time></trkpt><trkpt lat="46.4163539" lon="12.7944507"><ele>559.4000000000001</ele><time>2026-04-12T10:27:16.979Z</time></trkpt><trkpt lat="46.4163763" lon="12.7946039"><ele>558.6</ele><time>2026-04-12T10:27:17.979Z</time></trkpt><trkpt lat="46.4163687" lon="12.7947537"><ele>557.8000000000001</ele><time>2026-04-12T10:27:18.979Z</time></trkpt><trkpt lat="46.416332" lon="12.7949044"><ele>557.0</ele><time>2026-04-12T10:27:19.979Z</time></trkpt><trkpt lat="46.4162793" lon="12.7950433"><ele>556.5</ele><time>2026-04-12T10:27:20.979Z</time></trkpt><trkpt lat="46.4162203" lon="12.7951882"><ele>556.0</ele><time>2026-04-12T10:27:21.98Z</time></trkpt><trkpt lat="46.4161286" lon="12.795316"><ele>555.5</ele><time>2026-04-12T10:27:22.979Z</time></trkpt><trkpt lat="46.4160615" lon="12.7954656"><ele>555.0</ele><time>2026-04-12T10:27:23.979Z</time></trkpt><trkpt lat="46.4159869" lon="12.7956381"><ele>555.0</ele><time>2026-04-12T10:27:24.979Z</time></trkpt><trkpt lat="46.415917" lon="12.7958064"><ele>555.0</ele><time>2026-04-12T10:27:25.979Z</time></trkpt><trkpt lat="46.4158484" lon="12.7959796"><ele>555.0</ele><time>2026-04-12T10:27:26.979Z</time></trkpt><trkpt lat="46.4157801" lon="12.7961485"><ele>555.0</ele><time>2026-04-12T10:27:27.979Z</time></trkpt><trkpt lat="46.4157072" lon="12.7963166"><ele>555.0</ele><time>2026-04-12T10:27:28.979Z</time></trkpt><trkpt lat="46.4156305" lon="12.7964781"><ele>555.0</ele><time>2026-04-12T10:27:29.979Z</time></trkpt><trkpt lat="46.4155516" lon="12.79664"><ele>555.0</ele><time>2026-04-12T10:27:30.978Z</time></trkpt><trkpt lat="46.4154764" lon="12.796801"><ele>555.0</ele><time>2026-04-12T10:27:31.979Z</time></trkpt><trkpt lat="46.4154028" lon="12.7969651"><ele>555.0</ele><time>2026-04-12T10:27:32.978Z</time></trkpt><trkpt lat="46.4153322" lon="12.79713"><ele>555.0</ele><time>2026-04-12T10:27:33.979Z</time></trkpt><trkpt lat="46.4152612" lon="12.7972973"><ele>555.0</ele><time>2026-04-12T10:27:34.978Z</time></trkpt><trkpt lat="46.4151903" lon="12.797464"><ele>555.0</ele><time>2026-04-12T10:27:35.978Z</time></trkpt><trkpt lat="46.4151188" lon="12.7976327"><ele>555.0</ele><time>2026-04-12T10:27:36.979Z</time></trkpt><trkpt lat="46.4150435" lon="12.7978002"><ele>555.0</ele><time>2026-04-12T10:27:37.978Z</time></trkpt><trkpt lat="46.4149661" lon="12.7979687"><ele>555.0</ele><time>2026-04-12T10:27:38.978Z</time></trkpt><trkpt lat="46.4148913" lon="12.7981394"><ele>555.0</ele><time>2026-04-12T10:27:39.978Z</time></trkpt><trkpt lat="46.4148175" lon="12.7983111"><ele>555.0</ele><time>2026-04-12T10:27:40.978Z</time></trkpt><trkpt lat="46.4147422" lon="12.7984821"><ele>555.0</ele><time>2026-04-12T10:27:41.978Z</time></trkpt><trkpt lat="46.4146675" lon="12.7986531"><ele>555.0</ele><time>2026-04-12T10:27:42.978Z</time></trkpt><trkpt lat="46.4145939" lon="12.7988257"><ele>555.0</ele><time>2026-04-12T10:27:43.979Z</time></trkpt><trkpt lat="46.4145236" lon="12.7989932"><ele>554.5</ele><time>2026-04-12T10:27:44.978Z</time></trkpt><trkpt lat="46.4144559" lon="12.7991547"><ele>554.0</ele><time>2026-04-12T10:27:45.979Z</time></trkpt><trkpt lat="46.4143861" lon="12.7993128"><ele>553.5</ele><time>2026-04-12T10:27:46.978Z</time></trkpt><trkpt lat="46.4143017" lon="12.7994597"><ele>553.0</ele><time>2026-04-12T10:27:47.978Z</time></trkpt><trkpt lat="46.4141982" lon="12.7995834"><ele>553.0</ele><time>2026-04-12T10:27:48.979Z</time></trkpt><trkpt lat="46.4140722" lon="12.7996902"><ele>553.0</ele><time>2026-04-12T10:27:49.978Z</time></trkpt><trkpt lat="46.4139393" lon="12.7997603"><ele>553.0</ele><time>2026-04-12T10:27:50.978Z</time></trkpt><trkpt lat="46.413805" lon="12.7998099"><ele>553.0</ele><time>2026-04-12T10:27:51.978Z</time></trkpt><trkpt lat="46.41368" lon="12.7998748"><ele>550.25</ele><time>2026-04-12T10:27:52.978Z</time></trkpt><trkpt lat="46.413561" lon="12.7999863"><ele>547.5</ele><time>2026-04-12T10:27:53.978Z</time></trkpt><trkpt lat="46.4134569" lon="12.800136"><ele>544.75</ele><time>2026-04-12T10:27:54.978Z</time></trkpt><trkpt lat="46.4133775" lon="12.8003168"><ele>542.0</ele><time>2026-04-12T10:27:55.979Z</time></trkpt><trkpt lat="46.413321" lon="12.8005248"><ele>542.0</ele><time>2026-04-12T10:27:56.978Z</time></trkpt><trkpt lat="46.4132757" lon="12.8007479"><ele>542.0</ele><time>2026-04-12T10:27:57.978Z</time></trkpt><trkpt lat="46.413236" lon="12.8009691"><ele>542.0</ele><time>2026-04-12T10:27:58.978Z</time></trkpt><trkpt lat="46.4132089" lon="12.8011936"><ele>542.0</ele><time>2026-04-12T10:27:59.978Z</time></trkpt><trkpt lat="46.4131966" lon="12.8014216"><ele>542.0</ele><time>2026-04-12T10:28:00.978Z</time></trkpt><trkpt lat="46.4132008" lon="12.8016527"><ele>542.0</ele><time>2026-04-12T10:28:01.978Z</time></trkpt><trkpt lat="46.4132278" lon="12.8018723"><ele>542.0</ele><time>2026-04-12T10:28:02.978Z</time></trkpt><trkpt lat="46.413272" lon="12.8020803"><ele>542.0</ele><time>2026-04-12T10:28:03.978Z</time></trkpt><trkpt lat="46.413326" lon="12.8022761"><ele>542.0</ele><time>2026-04-12T10:28:04.978Z</time></trkpt><trkpt lat="46.4133826" lon="12.8024645"><ele>542.0</ele><time>2026-04-12T10:28:05.978Z</time></trkpt><trkpt lat="46.4134395" lon="12.8026489"><ele>540.75</ele><time>2026-04-12T10:28:06.978Z</time></trkpt><trkpt lat="46.4134931" lon="12.8028358"><ele>539.5</ele><time>2026-04-12T10:28:07.978Z</time></trkpt><trkpt lat="46.4135433" lon="12.8030218"><ele>538.25</ele><time>2026-04-12T10:28:08.978Z</time></trkpt><trkpt lat="46.4135971" lon="12.8032021"><ele>537.0</ele><time>2026-04-12T10:28:09.978Z</time></trkpt><trkpt lat="46.4136472" lon="12.8033833"><ele>536.5</ele><time>2026-04-12T10:28:10.978Z</time></trkpt><trkpt lat="46.4136817" lon="12.8035746"><ele>536.0</ele><time>2026-04-12T10:28:11.978Z</time></trkpt><trkpt lat="46.4136971" lon="12.8037749"><ele>535.5</ele><time>2026-04-12T10:28:12.979Z</time></trkpt><trkpt lat="46.4136899" lon="12.8039793"><ele>535.0</ele><time>2026-04-12T10:28:13.978Z</time></trkpt><trkpt lat="46.4136573" lon="12.8041904"><ele>537.0</ele><time>2026-04-12T10:28:14.979Z</time></trkpt><trkpt lat="46.4136033" lon="12.804396"><ele>539.0</ele><time>2026-04-12T10:28:15.978Z</time></trkpt><trkpt lat="46.413527" lon="12.8045838"><ele>541.0</ele><time>2026-04-12T10:28:16.978Z</time></trkpt><trkpt lat="46.4134292" lon="12.8047475"><ele>541.0</ele><time>2026-04-12T10:28:17.978Z</time></trkpt><trkpt lat="46.4133124" lon="12.804884"><ele>541.0</ele><time>2026-04-12T10:28:18.979Z</time></trkpt><trkpt lat="46.4131823" lon="12.8049969"><ele>541.0</ele><time>2026-04-12T10:28:19.978Z</time></trkpt><trkpt lat="46.4130368" lon="12.8050786"><ele>540.0</ele><time>2026-04-12T10:28:20.978Z</time></trkpt><trkpt lat="46.4128875" lon="12.8051501"><ele>539.0</ele><time>2026-04-12T10:28:21.978Z</time></trkpt><trkpt lat="46.4127364" lon="12.8052182"><ele>538.0</ele><time>2026-04-12T10:28:22.979Z</time></trkpt><trkpt lat="46.4125882" lon="12.8052862"><ele>538.0</ele><time>2026-04-12T10:28:23.978Z</time></trkpt><trkpt lat="46.412437" lon="12.8053521"><ele>538.0</ele><time>2026-04-12T10:28:24.978Z</time></trkpt><trkpt lat="46.4122888" lon="12.8054135"><ele>538.0</ele><time>2026-04-12T10:28:25.978Z</time></trkpt><trkpt lat="46.4121389" lon="12.8054591"><ele>535.3333333333334</ele><time>2026-04-12T10:28:26.978Z</time></trkpt><trkpt lat="46.4119832" lon="12.8054833"><ele>532.6666666666666</ele><time>2026-04-12T10:28:27.978Z</time></trkpt><trkpt lat="46.4118246" lon="12.8054837"><ele>530.0</ele><time>2026-04-12T10:28:28.979Z</time></trkpt><trkpt lat="46.4116679" lon="12.8054747"><ele>530.0</ele><time>2026-04-12T10:28:29.978Z</time></trkpt><trkpt lat="46.4115112" lon="12.8054635"><ele>530.0</ele><time>2026-04-12T10:28:30.978Z</time></trkpt><trkpt lat="46.4113532" lon="12.8054588"><ele>530.0</ele><time>2026-04-12T10:28:31.978Z</time></trkpt><trkpt lat="46.4111951" lon="12.8054891"><ele>529.6666666666666</ele><time>2026-04-12T10:28:32.978Z</time></trkpt><trkpt lat="46.4110404" lon="12.8055553"><ele>529.3333333333334</ele><time>2026-04-12T10:28:33.979Z</time></trkpt><trkpt lat="46.4108946" lon="12.8056349"><ele>529.0</ele><time>2026-04-12T10:28:34.979Z</time></trkpt><trkpt lat="46.4107537" lon="12.8057207"><ele>529.0</ele><time>2026-04-12T10:28:35.978Z</time></trkpt><trkpt lat="46.4106129" lon="12.8057986"><ele>529.0</ele><time>2026-04-12T10:28:36.978Z</time></trkpt><trkpt lat="46.4104671" lon="12.8058548"><ele>529.0</ele><time>2026-04-12T10:28:37.978Z</time></trkpt><trkpt lat="46.4103176" lon="12.8058881"><ele>528.3333333333334</ele><time>2026-04-12T10:28:38.978Z</time></trkpt><trkpt lat="46.4101558" lon="12.8058793"><ele>527.6666666666666</ele><time>2026-04-12T10:28:39.979Z</time></trkpt><trkpt lat="46.4099749" lon="12.8058258"><ele>527.0</ele><time>2026-04-12T10:28:40.978Z</time></trkpt><trkpt lat="46.4097591" lon="12.805735"><ele>526.5</ele><time>2026-04-12T10:28:41.979Z</time></trkpt><trkpt lat="46.4095079" lon="12.8056246"><ele>526.0</ele><time>2026-04-12T10:28:42.978Z</time></trkpt><trkpt lat="46.4092432" lon="12.8055137"><ele>526.0</ele><time>2026-04-12T10:28:43.978Z</time></trkpt><trkpt lat="46.4089548" lon="12.8053879"><ele>526.0</ele><time>2026-04-12T10:28:44.978Z</time></trkpt><trkpt lat="46.4086898" lon="12.8052652"><ele>518.5</ele><time>2026-04-12T10:28:45.978Z</time></trkpt><trkpt lat="46.408433" lon="12.8051553"><ele>511.0</ele><time>2026-04-12T10:28:46.978Z</time></trkpt><trkpt lat="46.4081853" lon="12.8050559"><ele>516.0</ele><time>2026-04-12T10:28:47.978Z</time></trkpt><trkpt lat="46.4079448" lon="12.8049526"><ele>521.0</ele><time>2026-04-12T10:28:48.979Z</time></trkpt><trkpt lat="46.4077157" lon="12.8048206"><ele>521.0</ele><time>2026-04-12T10:28:49.978Z</time></trkpt><trkpt lat="46.4074862" lon="12.8046725"><ele>521.0</ele><time>2026-04-12T10:28:50.978Z</time></trkpt><trkpt lat="46.4073175" lon="12.8044256"><ele>523.3333333333333</ele><time>2026-04-12T10:28:51.979Z</time></trkpt><trkpt lat="46.4071432" lon="12.8042269"><ele>525.6666666666666</ele><time>2026-04-12T10:28:52.978Z</time></trkpt><trkpt lat="46.4069814" lon="12.8040408"><ele>528.0</ele><time>2026-04-12T10:28:53.979Z</time></trkpt><trkpt lat="46.4068323" lon="12.8038641"><ele>528.0</ele><time>2026-04-12T10:28:54.978Z</time></trkpt><trkpt lat="46.4066967" lon="12.8036974"><ele>528.0</ele><time>2026-04-12T10:28:55.978Z</time></trkpt><trkpt lat="46.4065745" lon="12.8035449"><ele>528.0</ele><time>2026-04-12T10:28:56.978Z</time></trkpt><trkpt lat="46.4064604" lon="12.8034074"><ele>528.0</ele><time>2026-04-12T10:28:57.978Z</time></trkpt><trkpt lat="46.4063563" lon="12.8032847"><ele>528.0</ele><time>2026-04-12T10:28:58.979Z</time></trkpt><trkpt lat="46.4062476" lon="12.8032036"><ele>528.0</ele><time>2026-04-12T10:28:59.978Z</time></trkpt><trkpt lat="46.406126" lon="12.8031933"><ele>528.0</ele><time>2026-04-12T10:29:00.979Z</time></trkpt><trkpt lat="46.4060028" lon="12.8031925"><ele>529.3333333333334</ele><time>2026-04-12T10:29:01.978Z</time></trkpt><trkpt lat="46.4058849" lon="12.8032393"><ele>530.6666666666667</ele><time>2026-04-12T10:29:02.978Z</time></trkpt><trkpt lat="46.4057896" lon="12.803499"><ele>532.0</ele><time>2026-04-12T10:29:03.98Z</time></trkpt><trkpt lat="46.4056888" lon="12.8036087"><ele>532.0</ele><time>2026-04-12T10:29:04.978Z</time></trkpt><trkpt lat="46.4055771" lon="12.8036998"><ele>532.0</ele><time>2026-04-12T10:29:05.979Z</time></trkpt><trkpt lat="46.4054614" lon="12.8037049"><ele>532.0</ele><time>2026-04-12T10:29:06.978Z</time></trkpt><trkpt lat="46.4053584" lon="12.8036359"><ele>532.0</ele><time>2026-04-12T10:29:07.978Z</time></trkpt><trkpt lat="46.4052885" lon="12.8034874"><ele>528.0</ele><time>2026-04-12T10:29:08.979Z</time></trkpt><trkpt lat="46.4052314" lon="12.8032684"><ele>524.0</ele><time>2026-04-12T10:29:09.978Z</time></trkpt><trkpt lat="46.4051769" lon="12.8030326"><ele>520.0</ele><time>2026-04-12T10:29:10.979Z</time></trkpt><trkpt lat="46.4051464" lon="12.802815"><ele>522.0</ele><time>2026-04-12T10:29:11.978Z</time></trkpt><trkpt lat="46.4051671" lon="12.8026197"><ele>524.0</ele><time>2026-04-12T10:29:12.978Z</time></trkpt><trkpt lat="46.4052087" lon="12.8024556"><ele>526.0</ele><time>2026-04-12T10:29:13.978Z</time></trkpt><trkpt lat="46.4052429" lon="12.8022958"><ele>528.0</ele><time>2026-04-12T10:29:14.979Z</time></trkpt><trkpt lat="46.4052427" lon="12.8021384"><ele>528.0</ele><time>2026-04-12T10:29:15.978Z</time></trkpt><trkpt lat="46.4052024" lon="12.8020078"><ele>528.0</ele><time>2026-04-12T10:29:16.979Z</time></trkpt><trkpt lat="46.4051114" lon="12.8019463"><ele>528.0</ele><time>2026-04-12T10:29:17.978Z</time></trkpt><trkpt lat="46.4050225" lon="12.8019585"><ele>528.0</ele><time>2026-04-12T10:29:18.978Z</time></trkpt><trkpt lat="46.4049478" lon="12.8020629"><ele>528.0</ele><time>2026-04-12T10:29:19.978Z</time></trkpt><trkpt lat="46.4049142" lon="12.802228"><ele>528.0</ele><time>2026-04-12T10:29:20.978Z</time></trkpt><trkpt lat="46.4049256" lon="12.8024618"><ele>528.0</ele><time>2026-04-12T10:29:21.978Z</time></trkpt><trkpt lat="46.4049731" lon="12.8027733"><ele>528.0</ele><time>2026-04-12T10:29:22.978Z</time></trkpt><trkpt lat="46.4050169" lon="12.803094"><ele>525.3333333333334</ele><time>2026-04-12T10:29:23.978Z</time></trkpt><trkpt lat="46.4050448" lon="12.8033968"><ele>522.6666666666667</ele><time>2026-04-12T10:29:24.978Z</time></trkpt><trkpt lat="46.4050765" lon="12.8036962"><ele>520.0</ele><time>2026-04-12T10:29:25.979Z</time></trkpt><trkpt lat="46.4051222" lon="12.8039801"><ele>518.0</ele><time>2026-04-12T10:29:26.979Z</time></trkpt><trkpt lat="46.4051543" lon="12.8042523"><ele>516.0</ele><time>2026-04-12T10:29:27.978Z</time></trkpt><trkpt lat="46.4051477" lon="12.8045119"><ele>514.0</ele><time>2026-04-12T10:29:28.978Z</time></trkpt><trkpt lat="46.4051245" lon="12.8047577"><ele>512.6666666666667</ele><time>2026-04-12T10:29:29.978Z</time></trkpt><trkpt lat="46.4051048" lon="12.8049948"><ele>511.33333333333337</ele><time>2026-04-12T10:29:30.979Z</time></trkpt><trkpt lat="46.4050978" lon="12.805227"><ele>510.0</ele><time>2026-04-12T10:29:31.978Z</time></trkpt><trkpt lat="46.4051285" lon="12.8054532"><ele>509.33333333333337</ele><time>2026-04-12T10:29:32.978Z</time></trkpt><trkpt lat="46.4052092" lon="12.8056538"><ele>508.6666666666667</ele><time>2026-04-12T10:29:33.978Z</time></trkpt><trkpt lat="46.4053122" lon="12.8058132"><ele>508.0</ele><time>2026-04-12T10:29:34.978Z</time></trkpt><trkpt lat="46.4054022" lon="12.8059838"><ele>505.6666666666667</ele><time>2026-04-12T10:29:35.979Z</time></trkpt><trkpt lat="46.4054476" lon="12.8061882"><ele>503.33333333333337</ele><time>2026-04-12T10:29:36.978Z</time></trkpt><trkpt lat="46.4054636" lon="12.8064313"><ele>501.0</ele><time>2026-04-12T10:29:37.978Z</time></trkpt><trkpt lat="46.4054762" lon="12.8066904"><ele>499.33333333333337</ele><time>2026-04-12T10:29:38.978Z</time></trkpt><trkpt lat="46.4054848" lon="12.8069384"><ele>497.6666666666667</ele><time>2026-04-12T10:29:39.978Z</time></trkpt><trkpt lat="46.405466" lon="12.8071912"><ele>496.0</ele><time>2026-04-12T10:29:40.978Z</time></trkpt><trkpt lat="46.4054156" lon="12.807446"><ele>498.33333333333337</ele><time>2026-04-12T10:29:41.978Z</time></trkpt><trkpt lat="46.4053583" lon="12.8076811"><ele>500.66666666666663</ele><time>2026-04-12T10:29:42.979Z</time></trkpt><trkpt lat="46.4052817" lon="12.8079074"><ele>503.0</ele><time>2026-04-12T10:29:43.978Z</time></trkpt><trkpt lat="46.4051715" lon="12.8081027"><ele>503.0</ele><time>2026-04-12T10:29:44.979Z</time></trkpt><trkpt lat="46.405073" lon="12.8083008"><ele>503.0</ele><time>2026-04-12T10:29:45.978Z</time></trkpt><trkpt lat="46.4049972" lon="12.8085511"><ele>503.0</ele><time>2026-04-12T10:29:46.978Z</time></trkpt><trkpt lat="46.4049276" lon="12.8087968"><ele>504.66666666666663</ele><time>2026-04-12T10:29:47.978Z</time></trkpt><trkpt lat="46.4048566" lon="12.8090398"><ele>506.33333333333337</ele><time>2026-04-12T10:29:48.979Z</time></trkpt><trkpt lat="46.4047903" lon="12.8092704"><ele>508.0</ele><time>2026-04-12T10:29:49.978Z</time></trkpt><trkpt lat="46.4047348" lon="12.8094984"><ele>504.33333333333337</ele><time>2026-04-12T10:29:50.978Z</time></trkpt><trkpt lat="46.4047079" lon="12.8097286"><ele>500.66666666666663</ele><time>2026-04-12T10:29:51.978Z</time></trkpt><trkpt lat="46.4047177" lon="12.8099778"><ele>497.0</ele><time>2026-04-12T10:29:52.978Z</time></trkpt><trkpt lat="46.4047529" lon="12.8102144"><ele>497.0</ele><time>2026-04-12T10:29:53.978Z</time></trkpt><trkpt lat="46.4047808" lon="12.8104586"><ele>497.0</ele><time>2026-04-12T10:29:54.979Z</time></trkpt><trkpt lat="46.4048027" lon="12.8106927"><ele>497.0</ele><time>2026-04-12T10:29:55.978Z</time></trkpt><trkpt lat="46.4047983" lon="12.8109258"><ele>497.0</ele><time>2026-04-12T10:29:56.978Z</time></trkpt><trkpt lat="46.4047506" lon="12.8111413"><ele>497.0</ele><time>2026-04-12T10:29:57.978Z</time></trkpt><trkpt lat="46.4046837" lon="12.8113716"><ele>497.0</ele><time>2026-04-12T10:29:58.979Z</time></trkpt><trkpt lat="46.4046379" lon="12.811635"><ele>487.0</ele><time>2026-04-12T10:29:59.979Z</time></trkpt><trkpt lat="46.4046126" lon="12.8118883"><ele>477.0</ele><time>2026-04-12T10:30:00.979Z</time></trkpt><trkpt lat="46.4045887" lon="12.8121446"><ele>467.0</ele><time>2026-04-12T10:30:01.978Z</time></trkpt><trkpt lat="46.4045624" lon="12.8123969"><ele>467.0</ele><time>2026-04-12T10:30:02.978Z</time></trkpt><trkpt lat="46.404532" lon="12.8126314"><ele>467.0</ele><time>2026-04-12T10:30:03.978Z</time></trkpt><trkpt lat="46.4045" lon="12.8128504"><ele>467.0</ele><time>2026-04-12T10:30:04.978Z</time></trkpt><trkpt lat="46.4044725" lon="12.8130455"><ele>466.8</ele><time>2026-04-12T10:30:05.978Z</time></trkpt><trkpt lat="46.4044499" lon="12.8132193"><ele>466.6</ele><time>2026-04-12T10:30:06.978Z</time></trkpt><trkpt lat="46.4044369" lon="12.8133734"><ele>466.40000000000003</ele><time>2026-04-12T10:30:07.978Z</time></trkpt><trkpt lat="46.404461" lon="12.8135098"><ele>466.20000000000005</ele><time>2026-04-12T10:30:08.978Z</time></trkpt><trkpt lat="46.4045034" lon="12.8136533"><ele>466.0</ele><time>2026-04-12T10:30:09.979Z</time></trkpt><trkpt lat="46.4045751" lon="12.8137809"><ele>468.5</ele><time>2026-04-12T10:30:10.978Z</time></trkpt><trkpt lat="46.4047005" lon="12.8138204"><ele>471.0</ele><time>2026-04-12T10:30:11.978Z</time></trkpt><trkpt lat="46.4048249" lon="12.8138202"><ele>473.5</ele><time>2026-04-12T10:30:12.978Z</time></trkpt><trkpt lat="46.4049088" lon="12.8139172"><ele>476.0</ele><time>2026-04-12T10:30:13.978Z</time></trkpt><trkpt lat="46.4049577" lon="12.8140557"><ele>476.0</ele><time>2026-04-12T10:30:14.979Z</time></trkpt><trkpt lat="46.4049514" lon="12.814218"><ele>476.0</ele><time>2026-04-12T10:30:15.978Z</time></trkpt><trkpt lat="46.4048977" lon="12.8143943"><ele>476.0</ele><time>2026-04-12T10:30:16.979Z</time></trkpt><trkpt lat="46.4048369" lon="12.8145925"><ele>476.0</ele><time>2026-04-12T10:30:17.978Z</time></trkpt><trkpt lat="46.4047814" lon="12.8147914"><ele>475.3333333333333</ele><time>2026-04-12T10:30:18.979Z</time></trkpt><trkpt lat="46.4047489" lon="12.8150227"><ele>474.66666666666663</ele><time>2026-04-12T10:30:19.978Z</time></trkpt><trkpt lat="46.4047562" lon="12.8152698"><ele>474.0</ele><time>2026-04-12T10:30:20.979Z</time></trkpt><trkpt lat="46.4047847" lon="12.8155219"><ele>472.33333333333337</ele><time>2026-04-12T10:30:21.978Z</time></trkpt><trkpt lat="46.4048051" lon="12.8157613"><ele>470.6666666666667</ele><time>2026-04-12T10:30:22.978Z</time></trkpt><trkpt lat="46.4048101" lon="12.8159911"><ele>469.0</ele><time>2026-04-12T10:30:23.978Z</time></trkpt><trkpt lat="46.4047854" lon="12.8162001"><ele>467.75</ele><time>2026-04-12T10:30:24.978Z</time></trkpt><trkpt lat="46.4047162" lon="12.8163673"><ele>466.5</ele><time>2026-04-12T10:30:25.978Z</time></trkpt><trkpt lat="46.4046373" lon="12.8165292"><ele>465.25</ele><time>2026-04-12T10:30:26.979Z</time></trkpt><trkpt lat="46.4045867" lon="12.8167338"><ele>464.0</ele><time>2026-04-12T10:30:27.978Z</time></trkpt><trkpt lat="46.4045696" lon="12.8169893"><ele>457.66666666666663</ele><time>2026-04-12T10:30:28.978Z</time></trkpt><trkpt lat="46.4045648" lon="12.8172772"><ele>451.33333333333337</ele><time>2026-04-12T10:30:29.978Z</time></trkpt><trkpt lat="46.4045599" lon="12.817542"><ele>445.0</ele><time>2026-04-12T10:30:30.978Z</time></trkpt><trkpt lat="46.4045552" lon="12.8178068"><ele>444.6666666666667</ele><time>2026-04-12T10:30:31.979Z</time></trkpt><trkpt lat="46.4045554" lon="12.8180641"><ele>444.33333333333337</ele><time>2026-04-12T10:30:32.978Z</time></trkpt><trkpt lat="46.4045552" lon="12.8183122"><ele>444.0</ele><time>2026-04-12T10:30:33.978Z</time></trkpt><trkpt lat="46.4045496" lon="12.8185505"><ele>444.0</ele><time>2026-04-12T10:30:34.978Z</time></trkpt><trkpt lat="46.4045479" lon="12.8187735"><ele>444.0</ele><time>2026-04-12T10:30:35.979Z</time></trkpt><trkpt lat="46.4045479" lon="12.8189836"><ele>444.0</ele><time>2026-04-12T10:30:36.978Z</time></trkpt><trkpt lat="46.4045479" lon="12.8191701"><ele>444.0</ele><time>2026-04-12T10:30:37.978Z</time></trkpt><trkpt lat="46.4045326" lon="12.8193359"><ele>448.5</ele><time>2026-04-12T10:30:38.978Z</time></trkpt><trkpt lat="46.4044776" lon="12.8194585"><ele>453.0</ele><time>2026-04-12T10:30:39.978Z</time></trkpt><trkpt lat="46.4043958" lon="12.8195401"><ele>457.5</ele><time>2026-04-12T10:30:40.978Z</time></trkpt><trkpt lat="46.4042755" lon="12.819616"><ele>462.0</ele><time>2026-04-12T10:30:41.978Z</time></trkpt><trkpt lat="46.4041264" lon="12.8196926"><ele>462.0</ele><time>2026-04-12T10:30:42.978Z</time></trkpt><trkpt lat="46.4038343" lon="12.8198604"><ele>462.0</ele><time>2026-04-12T10:30:44.978Z</time></trkpt><trkpt lat="46.4036812" lon="12.8199995"><ele>460.66666666666663</ele><time>2026-04-12T10:30:45.978Z</time></trkpt><trkpt lat="46.4035356" lon="12.8201779"><ele>459.3333333333333</ele><time>2026-04-12T10:30:46.979Z</time></trkpt><trkpt lat="46.4034221" lon="12.8203754"><ele>458.0</ele><time>2026-04-12T10:30:47.978Z</time></trkpt><trkpt lat="46.4033377" lon="12.82059"><ele>458.0</ele><time>2026-04-12T10:30:48.979Z</time></trkpt><trkpt lat="46.4032774" lon="12.8208136"><ele>458.0</ele><time>2026-04-12T10:30:49.978Z</time></trkpt><trkpt lat="46.4032289" lon="12.821031"><ele>458.0</ele><time>2026-04-12T10:30:50.979Z</time></trkpt><trkpt lat="46.4031848" lon="12.8212472"><ele>459.0</ele><time>2026-04-12T10:30:51.978Z</time></trkpt><trkpt lat="46.4031357" lon="12.8214568"><ele>460.0</ele><time>2026-04-12T10:30:52.979Z</time></trkpt><trkpt lat="46.4030789" lon="12.8216528"><ele>461.0</ele><time>2026-04-12T10:30:53.978Z</time></trkpt><trkpt lat="46.4030092" lon="12.8218358"><ele>462.0</ele><time>2026-04-12T10:30:54.978Z</time></trkpt><trkpt lat="46.4029256" lon="12.822011"><ele>462.0</ele><time>2026-04-12T10:30:55.978Z</time></trkpt><trkpt lat="46.4028317" lon="12.822178"><ele>462.0</ele><time>2026-04-12T10:30:56.978Z</time></trkpt><trkpt lat="46.4027259" lon="12.8223404"><ele>462.0</ele><time>2026-04-12T10:30:57.978Z</time></trkpt><trkpt lat="46.4026202" lon="12.8225162"><ele>464.0</ele><time>2026-04-12T10:30:58.978Z</time></trkpt><trkpt lat="46.402532" lon="12.8227391"><ele>466.0</ele><time>2026-04-12T10:30:59.978Z</time></trkpt><trkpt lat="46.4024765" lon="12.8229956"><ele>468.0</ele><time>2026-04-12T10:31:00.978Z</time></trkpt><trkpt lat="46.4024644" lon="12.8232645"><ele>469.33333333333337</ele><time>2026-04-12T10:31:01.978Z</time></trkpt><trkpt lat="46.4024953" lon="12.823539"><ele>470.6666666666667</ele><time>2026-04-12T10:31:02.978Z</time></trkpt><trkpt lat="46.4025413" lon="12.8238111"><ele>472.0</ele><time>2026-04-12T10:31:03.978Z</time></trkpt><trkpt lat="46.4025876" lon="12.8240782"><ele>473.33333333333337</ele><time>2026-04-12T10:31:04.979Z</time></trkpt><trkpt lat="46.402625" lon="12.8243424"><ele>474.66666666666663</ele><time>2026-04-12T10:31:05.978Z</time></trkpt><trkpt lat="46.4026455" lon="12.8246042"><ele>476.0</ele><time>2026-04-12T10:31:06.979Z</time></trkpt><trkpt lat="46.4026384" lon="12.8248611"><ele>476.0</ele><time>2026-04-12T10:31:07.978Z</time></trkpt><trkpt lat="46.402608" lon="12.825111"><ele>476.0</ele><time>2026-04-12T10:31:08.978Z</time></trkpt><trkpt lat="46.402564" lon="12.825354"><ele>476.0</ele><time>2026-04-12T10:31:09.978Z</time></trkpt><trkpt lat="46.4025159" lon="12.8255905"><ele>477.0</ele><time>2026-04-12T10:31:10.979Z</time></trkpt><trkpt lat="46.4024604" lon="12.8258154"><ele>478.0</ele><time>2026-04-12T10:31:11.978Z</time></trkpt><trkpt lat="46.4023998" lon="12.8260288"><ele>479.0</ele><time>2026-04-12T10:31:12.978Z</time></trkpt><trkpt lat="46.4023372" lon="12.826237"><ele>479.5</ele><time>2026-04-12T10:31:13.978Z</time></trkpt><trkpt lat="46.4022701" lon="12.8264309"><ele>480.0</ele><time>2026-04-12T10:31:14.978Z</time></trkpt><trkpt lat="46.402202" lon="12.826608"><ele>480.5</ele><time>2026-04-12T10:31:15.978Z</time></trkpt><trkpt lat="46.4021346" lon="12.8267757"><ele>481.0</ele><time>2026-04-12T10:31:16.978Z</time></trkpt><trkpt lat="46.4020799" lon="12.8269335"><ele>481.5</ele><time>2026-04-12T10:31:17.978Z</time></trkpt><trkpt lat="46.4020331" lon="12.8270874"><ele>482.0</ele><time>2026-04-12T10:31:18.978Z</time></trkpt><trkpt lat="46.4019726" lon="12.8272261"><ele>482.5</ele><time>2026-04-12T10:31:19.978Z</time></trkpt><trkpt lat="46.4018947" lon="12.8273851"><ele>483.0</ele><time>2026-04-12T10:31:20.979Z</time></trkpt><trkpt lat="46.4018243" lon="12.8275383"><ele>483.5</ele><time>2026-04-12T10:31:21.978Z</time></trkpt><trkpt lat="46.4017448" lon="12.8276812"><ele>484.0</ele><time>2026-04-12T10:31:22.978Z</time></trkpt><trkpt lat="46.4016656" lon="12.8278255"><ele>484.5</ele><time>2026-04-12T10:31:23.978Z</time></trkpt><trkpt lat="46.4015925" lon="12.8279895"><ele>485.0</ele><time>2026-04-12T10:31:24.979Z</time></trkpt><trkpt lat="46.401532" lon="12.8281461"><ele>485.0</ele><time>2026-04-12T10:31:25.978Z</time></trkpt><trkpt lat="46.4014795" lon="12.828307"><ele>485.0</ele><time>2026-04-12T10:31:26.979Z</time></trkpt><trkpt lat="46.401437" lon="12.8284706"><ele>485.0</ele><time>2026-04-12T10:31:27.978Z</time></trkpt><trkpt lat="46.4014006" lon="12.8286262"><ele>485.0</ele><time>2026-04-12T10:31:28.979Z</time></trkpt><trkpt lat="46.4013679" lon="12.8287678"><ele>485.0</ele><time>2026-04-12T10:31:29.978Z</time></trkpt><trkpt lat="46.4013451" lon="12.8289095"><ele>485.0</ele><time>2026-04-12T10:31:30.978Z</time></trkpt><trkpt lat="46.4013214" lon="12.8290589"><ele>485.0</ele><time>2026-04-12T10:31:31.978Z</time></trkpt><trkpt lat="46.4013288" lon="12.8292125"><ele>485.0</ele><time>2026-04-12T10:31:32.978Z</time></trkpt><trkpt lat="46.401337" lon="12.8293701"><ele>485.0</ele><time>2026-04-12T10:31:33.978Z</time></trkpt><trkpt lat="46.4013554" lon="12.8295289"><ele>485.0</ele><time>2026-04-12T10:31:34.978Z</time></trkpt><trkpt lat="46.4013649" lon="12.8296899"><ele>485.0</ele><time>2026-04-12T10:31:35.979Z</time></trkpt><trkpt lat="46.401356" lon="12.8298613"><ele>485.0</ele><time>2026-04-12T10:31:36.978Z</time></trkpt><trkpt lat="46.401326" lon="12.830037"><ele>485.0</ele><time>2026-04-12T10:31:37.978Z</time></trkpt><trkpt lat="46.4012828" lon="12.8302252"><ele>480.75</ele><time>2026-04-12T10:31:38.979Z</time></trkpt><trkpt lat="46.4012359" lon="12.8304077"><ele>476.5</ele><time>2026-04-12T10:31:39.978Z</time></trkpt><trkpt lat="46.4011876" lon="12.8305821"><ele>472.25</ele><time>2026-04-12T10:31:40.978Z</time></trkpt><trkpt lat="46.401143" lon="12.8307587"><ele>468.0</ele><time>2026-04-12T10:31:41.979Z</time></trkpt><trkpt lat="46.4011046" lon="12.8309352"><ele>467.75</ele><time>2026-04-12T10:31:42.979Z</time></trkpt><trkpt lat="46.401063" lon="12.8311076"><ele>467.5</ele><time>2026-04-12T10:31:43.979Z</time></trkpt><trkpt lat="46.4010213" lon="12.8312795"><ele>467.25</ele><time>2026-04-12T10:31:44.978Z</time></trkpt><trkpt lat="46.4009814" lon="12.8314471"><ele>467.0</ele><time>2026-04-12T10:31:45.978Z</time></trkpt><trkpt lat="46.4009407" lon="12.8316034"><ele>467.0</ele><time>2026-04-12T10:31:46.979Z</time></trkpt><trkpt lat="46.4009028" lon="12.831754"><ele>467.00000000000006</ele><time>2026-04-12T10:31:47.978Z</time></trkpt><trkpt lat="46.4008675" lon="12.8319001"><ele>467.00000000000006</ele><time>2026-04-12T10:31:48.978Z</time></trkpt><trkpt lat="46.40082" lon="12.8320397"><ele>467.0</ele><time>2026-04-12T10:31:49.978Z</time></trkpt><trkpt lat="46.4007548" lon="12.8321773"><ele>467.0</ele><time>2026-04-12T10:31:50.978Z</time></trkpt><trkpt lat="46.4006736" lon="12.8323042"><ele>466.75</ele><time>2026-04-12T10:31:51.978Z</time></trkpt><trkpt lat="46.4005821" lon="12.8324114"><ele>466.5</ele><time>2026-04-12T10:31:52.978Z</time></trkpt><trkpt lat="46.4004925" lon="12.8325076"><ele>466.25</ele><time>2026-04-12T10:31:53.978Z</time></trkpt><trkpt lat="46.4004032" lon="12.8326063"><ele>466.0</ele><time>2026-04-12T10:31:54.979Z</time></trkpt><trkpt lat="46.4003148" lon="12.8327032"><ele>462.25</ele><time>2026-04-12T10:31:55.978Z</time></trkpt><trkpt lat="46.4002249" lon="12.8328131"><ele>458.5</ele><time>2026-04-12T10:31:56.979Z</time></trkpt><trkpt lat="46.4001383" lon="12.8329345"><ele>454.75</ele><time>2026-04-12T10:31:57.978Z</time></trkpt><trkpt lat="46.4000585" lon="12.8330542"><ele>451.0</ele><time>2026-04-12T10:31:58.978Z</time></trkpt><trkpt lat="46.3999812" lon="12.8331931"><ele>451.0</ele><time>2026-04-12T10:31:59.978Z</time></trkpt><trkpt lat="46.3999127" lon="12.8333357"><ele>451.0</ele><time>2026-04-12T10:32:00.978Z</time></trkpt><trkpt lat="46.3998461" lon="12.8334719"><ele>451.0</ele><time>2026-04-12T10:32:01.978Z</time></trkpt><trkpt lat="46.3997812" lon="12.8336025"><ele>451.0</ele><time>2026-04-12T10:32:02.979Z</time></trkpt><trkpt lat="46.399719" lon="12.8337267"><ele>446.75</ele><time>2026-04-12T10:32:03.978Z</time></trkpt><trkpt lat="46.3996598" lon="12.8338559"><ele>442.5</ele><time>2026-04-12T10:32:04.979Z</time></trkpt><trkpt lat="46.3996093" lon="12.8340052"><ele>438.25</ele><time>2026-04-12T10:32:05.978Z</time></trkpt><trkpt lat="46.3995709" lon="12.834158"><ele>434.0</ele><time>2026-04-12T10:32:06.978Z</time></trkpt><trkpt lat="46.3995407" lon="12.8343311"><ele>434.0</ele><time>2026-04-12T10:32:07.978Z</time></trkpt><trkpt lat="46.3995026" lon="12.8344984"><ele>434.0</ele><time>2026-04-12T10:32:08.978Z</time></trkpt><trkpt lat="46.3994525" lon="12.8346635"><ele>434.0</ele><time>2026-04-12T10:32:09.978Z</time></trkpt><trkpt lat="46.3993875" lon="12.834824"><ele>434.0</ele><time>2026-04-12T10:32:10.979Z</time></trkpt><trkpt lat="46.3993084" lon="12.8349706"><ele>434.0</ele><time>2026-04-12T10:32:11.978Z</time></trkpt><trkpt lat="46.3992216" lon="12.8351132"><ele>434.0</ele><time>2026-04-12T10:32:12.979Z</time></trkpt><trkpt lat="46.399138" lon="12.8352438"><ele>434.0</ele><time>2026-04-12T10:32:13.978Z</time></trkpt><trkpt lat="46.3990594" lon="12.8353748"><ele>434.0</ele><time>2026-04-12T10:32:14.979Z</time></trkpt><trkpt lat="46.3989835" lon="12.835505"><ele>433.0</ele><time>2026-04-12T10:32:15.978Z</time></trkpt><trkpt lat="46.3989126" lon="12.8356402"><ele>432.0</ele><time>2026-04-12T10:32:16.978Z</time></trkpt><trkpt lat="46.3988488" lon="12.8357878"><ele>431.0</ele><time>2026-04-12T10:32:17.978Z</time></trkpt><trkpt lat="46.3987961" lon="12.8359486"><ele>430.0</ele><time>2026-04-12T10:32:18.978Z</time></trkpt><trkpt lat="46.3987644" lon="12.8361237"><ele>430.0</ele><time>2026-04-12T10:32:19.978Z</time></trkpt><trkpt lat="46.3987443" lon="12.8362844"><ele>430.0</ele><time>2026-04-12T10:32:20.978Z</time></trkpt><trkpt lat="46.3987251" lon="12.8364425"><ele>430.0</ele><time>2026-04-12T10:32:21.979Z</time></trkpt><trkpt lat="46.3987143" lon="12.8365955"><ele>430.0</ele><time>2026-04-12T10:32:22.978Z</time></trkpt><trkpt lat="46.3987206" lon="12.8367432"><ele>430.0</ele><time>2026-04-12T10:32:23.979Z</time></trkpt><trkpt lat="46.398736" lon="12.8368783"><ele>431.83333333333337</ele><time>2026-04-12T10:32:24.978Z</time></trkpt><trkpt lat="46.3987385" lon="12.8370045"><ele>433.6666666666667</ele><time>2026-04-12T10:32:25.978Z</time></trkpt><trkpt lat="46.3987256" lon="12.8371187"><ele>435.5</ele><time>2026-04-12T10:32:26.979Z</time></trkpt><trkpt lat="46.3986974" lon="12.8372273"><ele>437.33333333333337</ele><time>2026-04-12T10:32:27.978Z</time></trkpt><trkpt lat="46.3986642" lon="12.8373319"><ele>439.1666666666667</ele><time>2026-04-12T10:32:28.978Z</time></trkpt><trkpt lat="46.3986343" lon="12.8374294"><ele>441.0</ele><time>2026-04-12T10:32:29.978Z</time></trkpt><trkpt lat="46.3986062" lon="12.8375212"><ele>441.0</ele><time>2026-04-12T10:32:30.979Z</time></trkpt><trkpt lat="46.3985752" lon="12.8376121"><ele>441.0</ele><time>2026-04-12T10:32:31.978Z</time></trkpt><trkpt lat="46.3985382" lon="12.8377034"><ele>441.0</ele><time>2026-04-12T10:32:32.978Z</time></trkpt><trkpt lat="46.3985021" lon="12.837802"><ele>441.0</ele><time>2026-04-12T10:32:33.978Z</time></trkpt><trkpt lat="46.3984656" lon="12.8378916"><ele>441.0</ele><time>2026-04-12T10:32:34.979Z</time></trkpt><trkpt lat="46.3984359" lon="12.8379721"><ele>441.0</ele><time>2026-04-12T10:32:35.978Z</time></trkpt><trkpt lat="46.3983869" lon="12.8380965"><ele>441.3333333333333</ele><time>2026-04-12T10:32:37.978Z</time></trkpt><trkpt lat="46.3983629" lon="12.8381976"><ele>441.66666666666663</ele><time>2026-04-12T10:32:39.978Z</time></trkpt><trkpt lat="46.3983998" lon="12.838285"><ele>442.0</ele><time>2026-04-12T10:32:41.978Z</time></trkpt><trkpt lat="46.398466" lon="12.8383249"><ele>442.3333333333333</ele><time>2026-04-12T10:32:43.979Z</time></trkpt><trkpt lat="46.3985121" lon="12.8384459"><ele>442.66666666666663</ele><time>2026-04-12T10:32:45.978Z</time></trkpt><trkpt lat="46.3985327" lon="12.8385821"><ele>443.0</ele><time>2026-04-12T10:32:47.978Z</time></trkpt><trkpt lat="46.3985005" lon="12.8387136"><ele>443.0</ele><time>2026-04-12T10:32:49.978Z</time></trkpt><trkpt lat="46.3984975" lon="12.8388706"><ele>442.99999999999994</ele><time>2026-04-12T10:32:51.979Z</time></trkpt><trkpt lat="46.398507" lon="12.8390326"><ele>442.99999999999994</ele><time>2026-04-12T10:32:53.978Z</time></trkpt><trkpt lat="46.3985273" lon="12.8391845"><ele>443.0</ele><time>2026-04-12T10:32:55.978Z</time></trkpt><trkpt lat="46.3985415" lon="12.8393389"><ele>443.0</ele><time>2026-04-12T10:32:57.978Z</time></trkpt><trkpt lat="46.3985624" lon="12.8394933"><ele>443.49999999999994</ele><time>2026-04-12T10:32:59.978Z</time></trkpt><trkpt lat="46.3985947" lon="12.8396371"><ele>444.0</ele><time>2026-04-12T10:33:01.979Z</time></trkpt><trkpt lat="46.3986233" lon="12.839729"><ele>444.5</ele><time>2026-04-12T10:33:03.979Z</time></trkpt><trkpt lat="46.3986742" lon="12.8398721"><ele>445.0</ele><time>2026-04-12T10:33:05.978Z</time></trkpt><trkpt lat="46.3986976" lon="12.8399656"><ele>445.49999999999994</ele><time>2026-04-12T10:33:06.979Z</time></trkpt><trkpt lat="46.3987167" lon="12.8400651"><ele>446.0</ele><time>2026-04-12T10:33:07.98Z</time></trkpt><trkpt lat="46.3987227" lon="12.8401804"><ele>447.3333333333333</ele><time>2026-04-12T10:33:08.978Z</time></trkpt><trkpt lat="46.3987123" lon="12.8402989"><ele>448.66666666666663</ele><time>2026-04-12T10:33:09.978Z</time></trkpt><trkpt lat="46.398703" lon="12.8404118"><ele>450.0</ele><time>2026-04-12T10:33:10.979Z</time></trkpt><trkpt lat="46.3986851" lon="12.8405162"><ele>451.33333333333337</ele><time>2026-04-12T10:33:11.979Z</time></trkpt><trkpt lat="46.3986638" lon="12.8406149"><ele>452.6666666666667</ele><time>2026-04-12T10:33:12.978Z</time></trkpt><trkpt lat="46.3986646" lon="12.8407918"><ele>454.0</ele><time>2026-04-12T10:33:14.977Z</time></trkpt><trkpt lat="46.3987435" lon="12.8409186"><ele>454.00000000000006</ele><time>2026-04-12T10:33:16.977Z</time></trkpt><trkpt lat="46.3988315" lon="12.840884"><ele>454.0</ele><time>2026-04-12T10:33:17.977Z</time></trkpt><trkpt lat="46.3989171" lon="12.8408475"><ele>454.0</ele><time>2026-04-12T10:33:18.977Z</time></trkpt><trkpt lat="46.3990089" lon="12.8408105"><ele>454.0</ele><time>2026-04-12T10:33:19.977Z</time></trkpt><trkpt lat="46.3990955" lon="12.8408026"><ele>454.00000000000006</ele><time>2026-04-12T10:33:20.978Z</time></trkpt><trkpt lat="46.3991747" lon="12.8408289"><ele>454.0</ele><time>2026-04-12T10:33:21.977Z</time></trkpt><trkpt lat="46.3992421" lon="12.8408829"><ele>451.50000000000006</ele><time>2026-04-12T10:33:22.977Z</time></trkpt><trkpt lat="46.3993139" lon="12.8409091"><ele>449.0</ele><time>2026-04-12T10:33:23.977Z</time></trkpt><trkpt lat="46.399382" lon="12.8408781"><ele>446.5</ele><time>2026-04-12T10:33:24.977Z</time></trkpt><trkpt lat="46.3994441" lon="12.840798"><ele>444.0</ele><time>2026-04-12T10:33:25.977Z</time></trkpt><trkpt lat="46.399509" lon="12.8406909"><ele>441.50000000000006</ele><time>2026-04-12T10:33:26.977Z</time></trkpt><trkpt lat="46.3995835" lon="12.8405562"><ele>439.0</ele><time>2026-04-12T10:33:27.977Z</time></trkpt><trkpt lat="46.3996539" lon="12.8403976"><ele>440.0</ele><time>2026-04-12T10:33:28.977Z</time></trkpt><trkpt lat="46.3997302" lon="12.8402216"><ele>441.0</ele><time>2026-04-12T10:33:29.977Z</time></trkpt><trkpt lat="46.3998039" lon="12.8400627"><ele>442.0</ele><time>2026-04-12T10:33:30.977Z</time></trkpt><trkpt lat="46.3998831" lon="12.8399121"><ele>443.0</ele><time>2026-04-12T10:33:31.977Z</time></trkpt><trkpt lat="46.3999705" lon="12.8397564"><ele>443.0</ele><time>2026-04-12T10:33:32.977Z</time></trkpt><trkpt lat="46.4000493" lon="12.839606"><ele>443.0</ele><time>2026-04-12T10:33:33.977Z</time></trkpt><trkpt lat="46.4001263" lon="12.8394608"><ele>443.0</ele><time>2026-04-12T10:33:34.978Z</time></trkpt><trkpt lat="46.4002074" lon="12.8393445"><ele>443.0</ele><time>2026-04-12T10:33:35.977Z</time></trkpt><trkpt lat="46.400286" lon="12.839246"><ele>442.3333333333333</ele><time>2026-04-12T10:33:36.977Z</time></trkpt><trkpt lat="46.4003556" lon="12.8391691"><ele>441.66666666666663</ele><time>2026-04-12T10:33:37.978Z</time></trkpt><trkpt lat="46.4004233" lon="12.8391085"><ele>441.0</ele><time>2026-04-12T10:33:38.977Z</time></trkpt><trkpt lat="46.4005024" lon="12.8390708"><ele>440.33333333333337</ele><time>2026-04-12T10:33:39.977Z</time></trkpt><trkpt lat="46.4006061" lon="12.8390706"><ele>439.6666666666667</ele><time>2026-04-12T10:33:40.978Z</time></trkpt><trkpt lat="46.4006979" lon="12.8390986"><ele>439.0</ele><time>2026-04-12T10:33:41.977Z</time></trkpt><trkpt lat="46.4007819" lon="12.8390814"><ele>442.5</ele><time>2026-04-12T10:33:42.977Z</time></trkpt><trkpt lat="46.4008728" lon="12.8390372"><ele>446.0</ele><time>2026-04-12T10:33:43.977Z</time></trkpt><trkpt lat="46.4009672" lon="12.8389068"><ele>449.5</ele><time>2026-04-12T10:33:44.978Z</time></trkpt><trkpt lat="46.4010619" lon="12.8387992"><ele>453.0</ele><time>2026-04-12T10:33:45.977Z</time></trkpt><trkpt lat="46.4011534" lon="12.8386912"><ele>453.0</ele><time>2026-04-12T10:33:46.977Z</time></trkpt><trkpt lat="46.4012396" lon="12.8386016"><ele>453.0</ele><time>2026-04-12T10:33:47.977Z</time></trkpt><trkpt lat="46.4013372" lon="12.8385091"><ele>453.0</ele><time>2026-04-12T10:33:48.977Z</time></trkpt><trkpt lat="46.4014338" lon="12.8383971"><ele>453.0</ele><time>2026-04-12T10:33:49.978Z</time></trkpt><trkpt lat="46.4015274" lon="12.8382458"><ele>455.0</ele><time>2026-04-12T10:33:50.977Z</time></trkpt><trkpt lat="46.4016161" lon="12.8381401"><ele>456.99999999999994</ele><time>2026-04-12T10:33:51.977Z</time></trkpt><trkpt lat="46.4016957" lon="12.8380416"><ele>458.99999999999994</ele><time>2026-04-12T10:33:52.977Z</time></trkpt><trkpt lat="46.4017615" lon="12.8379018"><ele>461.0</ele><time>2026-04-12T10:33:53.977Z</time></trkpt><trkpt lat="46.4017981" lon="12.8377825"><ele>463.0</ele><time>2026-04-12T10:33:54.977Z</time></trkpt><trkpt lat="46.4018364" lon="12.8376758"><ele>463.00000000000006</ele><time>2026-04-12T10:33:55.977Z</time></trkpt><trkpt lat="46.4019339" lon="12.8376322"><ele>463.0</ele><time>2026-04-12T10:33:57.978Z</time></trkpt><trkpt lat="46.4019999" lon="12.8377223"><ele>463.0</ele><time>2026-04-12T10:33:59.977Z</time></trkpt><trkpt lat="46.4020253" lon="12.8378109"><ele>463.0</ele><time>2026-04-12T10:34:00.977Z</time></trkpt><trkpt lat="46.4020393" lon="12.8379023"><ele>463.00000000000006</ele><time>2026-04-12T10:34:01.977Z</time></trkpt><trkpt lat="46.4020541" lon="12.8380116"><ele>463.0</ele><time>2026-04-12T10:34:02.977Z</time></trkpt><trkpt lat="46.4020666" lon="12.8381543"><ele>463.0</ele><time>2026-04-12T10:34:03.978Z</time></trkpt><trkpt lat="46.4020725" lon="12.8383349"><ele>463.0</ele><time>2026-04-12T10:34:04.977Z</time></trkpt><trkpt lat="46.4020715" lon="12.8385751"><ele>463.0</ele><time>2026-04-12T10:34:05.977Z</time></trkpt><trkpt lat="46.4020563" lon="12.8388146"><ele>462.6666666666667</ele><time>2026-04-12T10:34:06.977Z</time></trkpt><trkpt lat="46.4020344" lon="12.8391"><ele>462.33333333333337</ele><time>2026-04-12T10:34:07.977Z</time></trkpt><trkpt lat="46.4020115" lon="12.8393908"><ele>462.0</ele><time>2026-04-12T10:34:08.977Z</time></trkpt><trkpt lat="46.4019949" lon="12.8396896"><ele>463.5</ele><time>2026-04-12T10:34:09.977Z</time></trkpt><trkpt lat="46.4019742" lon="12.8399969"><ele>465.0</ele><time>2026-04-12T10:34:10.977Z</time></trkpt><trkpt lat="46.4019561" lon="12.8403413"><ele>469.0</ele><time>2026-04-12T10:34:11.977Z</time></trkpt><trkpt lat="46.401943" lon="12.8406822"><ele>473.0</ele><time>2026-04-12T10:34:12.977Z</time></trkpt><trkpt lat="46.4019326" lon="12.8410116"><ele>473.66666666666663</ele><time>2026-04-12T10:34:13.977Z</time></trkpt><trkpt lat="46.4019245" lon="12.8413363"><ele>474.33333333333337</ele><time>2026-04-12T10:34:14.977Z</time></trkpt><trkpt lat="46.4019202" lon="12.8416562"><ele>475.0</ele><time>2026-04-12T10:34:15.977Z</time></trkpt><trkpt lat="46.401917" lon="12.8419733"><ele>473.0</ele><time>2026-04-12T10:34:16.977Z</time></trkpt><trkpt lat="46.4019148" lon="12.8422871"><ele>471.0</ele><time>2026-04-12T10:34:17.977Z</time></trkpt><trkpt lat="46.4019166" lon="12.8426002"><ele>469.0</ele><time>2026-04-12T10:34:18.977Z</time></trkpt><trkpt lat="46.4019215" lon="12.8429138"><ele>466.6666666666667</ele><time>2026-04-12T10:34:19.977Z</time></trkpt><trkpt lat="46.401929" lon="12.8432277"><ele>464.33333333333337</ele><time>2026-04-12T10:34:20.978Z</time></trkpt><trkpt lat="46.4019377" lon="12.8435439"><ele>462.0</ele><time>2026-04-12T10:34:21.978Z</time></trkpt><trkpt lat="46.4019479" lon="12.8438613"><ele>459.66666666666663</ele><time>2026-04-12T10:34:22.977Z</time></trkpt><trkpt lat="46.4019599" lon="12.8441816"><ele>457.3333333333333</ele><time>2026-04-12T10:34:23.978Z</time></trkpt><trkpt lat="46.4019752" lon="12.8445024"><ele>455.0</ele><time>2026-04-12T10:34:24.977Z</time></trkpt><trkpt lat="46.4019931" lon="12.8448228"><ele>451.0</ele><time>2026-04-12T10:34:25.977Z</time></trkpt><trkpt lat="46.4020088" lon="12.8451472"><ele>447.0</ele><time>2026-04-12T10:34:26.977Z</time></trkpt><trkpt lat="46.4020262" lon="12.8454657"><ele>443.0</ele><time>2026-04-12T10:34:27.978Z</time></trkpt><trkpt lat="46.4020448" lon="12.8457807"><ele>441.0</ele><time>2026-04-12T10:34:28.977Z</time></trkpt><trkpt lat="46.4020618" lon="12.8460949"><ele>439.0</ele><time>2026-04-12T10:34:29.978Z</time></trkpt><trkpt lat="46.4020783" lon="12.8464064"><ele>437.0</ele><time>2026-04-12T10:34:30.977Z</time></trkpt><trkpt lat="46.4020948" lon="12.8467198"><ele>437.3333333333333</ele><time>2026-04-12T10:34:31.977Z</time></trkpt><trkpt lat="46.4021114" lon="12.8470366"><ele>437.66666666666663</ele><time>2026-04-12T10:34:32.977Z</time></trkpt><trkpt lat="46.4021306" lon="12.8473537"><ele>438.0</ele><time>2026-04-12T10:34:33.977Z</time></trkpt><trkpt lat="46.4021483" lon="12.8476737"><ele>445.33333333333337</ele><time>2026-04-12T10:34:34.977Z</time></trkpt><trkpt lat="46.4021659" lon="12.8479986"><ele>452.6666666666667</ele><time>2026-04-12T10:34:35.977Z</time></trkpt><trkpt lat="46.402181" lon="12.8483237"><ele>460.0</ele><time>2026-04-12T10:34:36.977Z</time></trkpt><trkpt lat="46.4021982" lon="12.8486517"><ele>460.0</ele><time>2026-04-12T10:34:37.978Z</time></trkpt><trkpt lat="46.4022153" lon="12.8489804"><ele>460.0</ele><time>2026-04-12T10:34:38.978Z</time></trkpt><trkpt lat="46.4022371" lon="12.8493201"><ele>459.5</ele><time>2026-04-12T10:34:39.977Z</time></trkpt><trkpt lat="46.4022626" lon="12.849704"><ele>459.0</ele><time>2026-04-12T10:34:40.977Z</time></trkpt><trkpt lat="46.4022914" lon="12.8500761"><ele>459.5</ele><time>2026-04-12T10:34:41.977Z</time></trkpt><trkpt lat="46.4023261" lon="12.8504436"><ele>460.0</ele><time>2026-04-12T10:34:42.977Z</time></trkpt><trkpt lat="46.4023656" lon="12.8507973"><ele>454.0</ele><time>2026-04-12T10:34:43.977Z</time></trkpt><trkpt lat="46.4024093" lon="12.8511407"><ele>448.0</ele><time>2026-04-12T10:34:44.977Z</time></trkpt><trkpt lat="46.4024568" lon="12.851473"><ele>440.5</ele><time>2026-04-12T10:34:45.977Z</time></trkpt><trkpt lat="46.4025059" lon="12.8518004"><ele>433.0</ele><time>2026-04-12T10:34:46.978Z</time></trkpt><trkpt lat="46.4025585" lon="12.8521197"><ele>433.0</ele><time>2026-04-12T10:34:47.977Z</time></trkpt><trkpt lat="46.4026203" lon="12.852435"><ele>433.0</ele><time>2026-04-12T10:34:48.977Z</time></trkpt><trkpt lat="46.4026852" lon="12.8527443"><ele>433.0</ele><time>2026-04-12T10:34:49.977Z</time></trkpt><trkpt lat="46.402748" lon="12.8530485"><ele>432.33333333333337</ele><time>2026-04-12T10:34:50.978Z</time></trkpt><trkpt lat="46.4028159" lon="12.8533512"><ele>431.66666666666663</ele><time>2026-04-12T10:34:51.977Z</time></trkpt><trkpt lat="46.4028857" lon="12.8536544"><ele>431.0</ele><time>2026-04-12T10:34:52.977Z</time></trkpt><trkpt lat="46.4029537" lon="12.8539554"><ele>432.66666666666663</ele><time>2026-04-12T10:34:53.978Z</time></trkpt><trkpt lat="46.4030237" lon="12.8542574"><ele>434.33333333333337</ele><time>2026-04-12T10:34:54.977Z</time></trkpt><trkpt lat="46.4030925" lon="12.8545584"><ele>436.0</ele><time>2026-04-12T10:34:55.977Z</time></trkpt><trkpt lat="46.4031648" lon="12.8548614"><ele>432.6666666666667</ele><time>2026-04-12T10:34:56.977Z</time></trkpt><trkpt lat="46.4032359" lon="12.8551673"><ele>429.33333333333337</ele><time>2026-04-12T10:34:57.977Z</time></trkpt><trkpt lat="46.4033039" lon="12.8554745"><ele>426.0</ele><time>2026-04-12T10:34:58.977Z</time></trkpt><trkpt lat="46.4033728" lon="12.8557787"><ele>422.33333333333337</ele><time>2026-04-12T10:34:59.977Z</time></trkpt><trkpt lat="46.4034438" lon="12.8560839"><ele>418.6666666666667</ele><time>2026-04-12T10:35:00.977Z</time></trkpt><trkpt lat="46.4035154" lon="12.8563869"><ele>415.0</ele><time>2026-04-12T10:35:01.977Z</time></trkpt><trkpt lat="46.4035863" lon="12.8566901"><ele>412.0</ele><time>2026-04-12T10:35:02.977Z</time></trkpt><trkpt lat="46.4036618" lon="12.8569907"><ele>409.0</ele><time>2026-04-12T10:35:03.977Z</time></trkpt><trkpt lat="46.4037325" lon="12.8572907"><ele>406.0</ele><time>2026-04-12T10:35:04.977Z</time></trkpt><trkpt lat="46.4038038" lon="12.8575925"><ele>405.6666666666667</ele><time>2026-04-12T10:35:05.977Z</time></trkpt><trkpt lat="46.4038749" lon="12.8578899"><ele>405.33333333333337</ele><time>2026-04-12T10:35:06.977Z</time></trkpt><trkpt lat="46.4039468" lon="12.858188"><ele>405.0</ele><time>2026-04-12T10:35:07.977Z</time></trkpt><trkpt lat="46.4040157" lon="12.8584847"><ele>405.0</ele><time>2026-04-12T10:35:08.977Z</time></trkpt><trkpt lat="46.4040839" lon="12.8587788"><ele>405.0</ele><time>2026-04-12T10:35:09.977Z</time></trkpt><trkpt lat="46.4041495" lon="12.8590744"><ele>405.0</ele><time>2026-04-12T10:35:10.978Z</time></trkpt><trkpt lat="46.4042169" lon="12.859363"><ele>403.66666666666663</ele><time>2026-04-12T10:35:11.977Z</time></trkpt><trkpt lat="46.4042854" lon="12.859649"><ele>402.3333333333333</ele><time>2026-04-12T10:35:12.977Z</time></trkpt><trkpt lat="46.4043557" lon="12.8599315"><ele>401.0</ele><time>2026-04-12T10:35:13.977Z</time></trkpt><trkpt lat="46.404431" lon="12.8602127"><ele>399.66666666666663</ele><time>2026-04-12T10:35:14.977Z</time></trkpt><trkpt lat="46.4045115" lon="12.8604951"><ele>398.33333333333337</ele><time>2026-04-12T10:35:15.977Z</time></trkpt><trkpt lat="46.4045994" lon="12.8607728"><ele>397.0</ele><time>2026-04-12T10:35:16.977Z</time></trkpt><trkpt lat="46.4046909" lon="12.8610533"><ele>399.6666666666667</ele><time>2026-04-12T10:35:17.977Z</time></trkpt><trkpt lat="46.404788" lon="12.861328"><ele>402.33333333333337</ele><time>2026-04-12T10:35:18.977Z</time></trkpt><trkpt lat="46.404893" lon="12.8616001"><ele>405.0</ele><time>2026-04-12T10:35:19.977Z</time></trkpt><trkpt lat="46.4050005" lon="12.8618706"><ele>405.0</ele><time>2026-04-12T10:35:20.977Z</time></trkpt><trkpt lat="46.4051123" lon="12.8621385"><ele>405.0</ele><time>2026-04-12T10:35:21.978Z</time></trkpt><trkpt lat="46.4052277" lon="12.8624031"><ele>405.0</ele><time>2026-04-12T10:35:22.977Z</time></trkpt><trkpt lat="46.4053439" lon="12.8626638"><ele>404.0</ele><time>2026-04-12T10:35:23.977Z</time></trkpt><trkpt lat="46.4054567" lon="12.862929"><ele>403.0</ele><time>2026-04-12T10:35:24.977Z</time></trkpt><trkpt lat="46.4055662" lon="12.8631999"><ele>402.0</ele><time>2026-04-12T10:35:25.977Z</time></trkpt><trkpt lat="46.4056709" lon="12.8634751"><ele>401.0</ele><time>2026-04-12T10:35:26.977Z</time></trkpt><trkpt lat="46.405766" lon="12.8637597"><ele>400.0</ele><time>2026-04-12T10:35:27.977Z</time></trkpt><trkpt lat="46.4058527" lon="12.8640496"><ele>399.0</ele><time>2026-04-12T10:35:28.978Z</time></trkpt><trkpt lat="46.405926" lon="12.8643334"><ele>399.33333333333337</ele><time>2026-04-12T10:35:29.977Z</time></trkpt><trkpt lat="46.405985" lon="12.8646117"><ele>399.6666666666667</ele><time>2026-04-12T10:35:30.977Z</time></trkpt><trkpt lat="46.4060339" lon="12.8648788"><ele>400.0</ele><time>2026-04-12T10:35:31.977Z</time></trkpt><trkpt lat="46.4060742" lon="12.8651544"><ele>400.0</ele><time>2026-04-12T10:35:32.978Z</time></trkpt><trkpt lat="46.4061094" lon="12.8654375"><ele>400.0</ele><time>2026-04-12T10:35:33.978Z</time></trkpt><trkpt lat="46.4061345" lon="12.8657274"><ele>400.0</ele><time>2026-04-12T10:35:34.977Z</time></trkpt><trkpt lat="46.4061509" lon="12.8660195"><ele>400.33333333333337</ele><time>2026-04-12T10:35:35.977Z</time></trkpt><trkpt lat="46.4061582" lon="12.8663164"><ele>400.66666666666663</ele><time>2026-04-12T10:35:36.977Z</time></trkpt><trkpt lat="46.4061529" lon="12.8666104"><ele>401.0</ele><time>2026-04-12T10:35:37.977Z</time></trkpt><trkpt lat="46.4061397" lon="12.8668999"><ele>401.0</ele><time>2026-04-12T10:35:38.977Z</time></trkpt><trkpt lat="46.4061229" lon="12.867187"><ele>401.0</ele><time>2026-04-12T10:35:39.977Z</time></trkpt><trkpt lat="46.4061064" lon="12.8674719"><ele>401.0</ele><time>2026-04-12T10:35:40.977Z</time></trkpt><trkpt lat="46.4060853" lon="12.8677522"><ele>405.0</ele><time>2026-04-12T10:35:41.977Z</time></trkpt><trkpt lat="46.4060702" lon="12.8680274"><ele>409.0</ele><time>2026-04-12T10:35:42.978Z</time></trkpt><trkpt lat="46.4060563" lon="12.868302"><ele>413.0</ele><time>2026-04-12T10:35:43.977Z</time></trkpt><trkpt lat="46.4060503" lon="12.8685748"><ele>413.66666666666663</ele><time>2026-04-12T10:35:44.977Z</time></trkpt><trkpt lat="46.4060516" lon="12.8688468"><ele>414.33333333333337</ele><time>2026-04-12T10:35:45.977Z</time></trkpt><trkpt lat="46.406058" lon="12.8691184"><ele>415.0</ele><time>2026-04-12T10:35:46.977Z</time></trkpt><trkpt lat="46.4060723" lon="12.8693878"><ele>412.6666666666667</ele><time>2026-04-12T10:35:47.977Z</time></trkpt><trkpt lat="46.4060974" lon="12.8696506"><ele>410.33333333333337</ele><time>2026-04-12T10:35:48.977Z</time></trkpt><trkpt lat="46.4061335" lon="12.869908"><ele>408.0</ele><time>2026-04-12T10:35:49.977Z</time></trkpt><trkpt lat="46.4061782" lon="12.870162"><ele>406.66666666666663</ele><time>2026-04-12T10:35:50.977Z</time></trkpt><trkpt lat="46.4062292" lon="12.8704005"><ele>405.3333333333333</ele><time>2026-04-12T10:35:51.977Z</time></trkpt><trkpt lat="46.4062849" lon="12.8706214"><ele>404.0</ele><time>2026-04-12T10:35:52.977Z</time></trkpt><trkpt lat="46.4063462" lon="12.8708267"><ele>405.25</ele><time>2026-04-12T10:35:53.977Z</time></trkpt><trkpt lat="46.4064102" lon="12.8710179"><ele>406.5</ele><time>2026-04-12T10:35:54.977Z</time></trkpt><trkpt lat="46.4064788" lon="12.8712008"><ele>407.75</ele><time>2026-04-12T10:35:55.977Z</time></trkpt><trkpt lat="46.4065507" lon="12.8713684"><ele>409.0</ele><time>2026-04-12T10:35:56.977Z</time></trkpt><trkpt lat="46.4066236" lon="12.8715291"><ele>409.0</ele><time>2026-04-12T10:35:57.977Z</time></trkpt><trkpt lat="46.4066969" lon="12.8716709"><ele>409.0</ele><time>2026-04-12T10:35:58.977Z</time></trkpt><trkpt lat="46.4067676" lon="12.871803"><ele>409.0</ele><time>2026-04-12T10:35:59.978Z</time></trkpt><trkpt lat="46.4068114" lon="12.8719462"><ele>409.0</ele><time>2026-04-12T10:36:00.977Z</time></trkpt><trkpt lat="46.4068341" lon="12.8721057"><ele>408.2</ele><time>2026-04-12T10:36:01.977Z</time></trkpt><trkpt lat="46.4068459" lon="12.8722538"><ele>407.4</ele><time>2026-04-12T10:36:02.977Z</time></trkpt><trkpt lat="46.4068491" lon="12.8724005"><ele>406.6</ele><time>2026-04-12T10:36:03.978Z</time></trkpt><trkpt lat="46.4068535" lon="12.8725403"><ele>405.8</ele><time>2026-04-12T10:36:04.977Z</time></trkpt><trkpt lat="46.4068561" lon="12.8726802"><ele>405.0</ele><time>2026-04-12T10:36:05.978Z</time></trkpt><trkpt lat="46.40686" lon="12.8728225"><ele>403.4</ele><time>2026-04-12T10:36:06.978Z</time></trkpt><trkpt lat="46.4068663" lon="12.8729688"><ele>401.8</ele><time>2026-04-12T10:36:07.977Z</time></trkpt><trkpt lat="46.4068763" lon="12.8731078"><ele>400.20000000000005</ele><time>2026-04-12T10:36:08.977Z</time></trkpt><trkpt lat="46.4068877" lon="12.8732381"><ele>398.6</ele><time>2026-04-12T10:36:09.977Z</time></trkpt><trkpt lat="46.4068948" lon="12.8733644"><ele>397.0</ele><time>2026-04-12T10:36:10.977Z</time></trkpt><trkpt lat="46.4069017" lon="12.8734818"><ele>396.00000000000006</ele><time>2026-04-12T10:36:11.977Z</time></trkpt><trkpt lat="46.4069045" lon="12.8735942"><ele>395.0</ele><time>2026-04-12T10:36:12.978Z</time></trkpt><trkpt lat="46.4069" lon="12.8736997"><ele>394.0</ele><time>2026-04-12T10:36:13.977Z</time></trkpt><trkpt lat="46.4069006" lon="12.8738065"><ele>393.0</ele><time>2026-04-12T10:36:14.977Z</time></trkpt><trkpt lat="46.4069255" lon="12.8739102"><ele>392.00000000000006</ele><time>2026-04-12T10:36:15.978Z</time></trkpt><trkpt lat="46.4069748" lon="12.874015"><ele>391.0</ele><time>2026-04-12T10:36:16.977Z</time></trkpt><trkpt lat="46.4070339" lon="12.8741132"><ele>391.0</ele><time>2026-04-12T10:36:17.977Z</time></trkpt><trkpt lat="46.4071123" lon="12.8741964"><ele>391.0</ele><time>2026-04-12T10:36:18.978Z</time></trkpt><trkpt lat="46.4072112" lon="12.8742681"><ele>391.0</ele><time>2026-04-12T10:36:19.977Z</time></trkpt><trkpt lat="46.407302" lon="12.8743387"><ele>391.0</ele><time>2026-04-12T10:36:20.977Z</time></trkpt><trkpt lat="46.407397" lon="12.8744091"><ele>391.0</ele><time>2026-04-12T10:36:21.977Z</time></trkpt><trkpt lat="46.4074875" lon="12.874485"><ele>391.20000000000005</ele><time>2026-04-12T10:36:22.977Z</time></trkpt><trkpt lat="46.4075782" lon="12.8745641"><ele>391.40000000000003</ele><time>2026-04-12T10:36:23.977Z</time></trkpt><trkpt lat="46.4076697" lon="12.8746346"><ele>391.6</ele><time>2026-04-12T10:36:24.978Z</time></trkpt><trkpt lat="46.4077621" lon="12.8747092"><ele>391.8</ele><time>2026-04-12T10:36:25.977Z</time></trkpt><trkpt lat="46.4078477" lon="12.8747801"><ele>392.0</ele><time>2026-04-12T10:36:26.978Z</time></trkpt><trkpt lat="46.4079339" lon="12.8748388"><ele>392.20000000000005</ele><time>2026-04-12T10:36:27.978Z</time></trkpt><trkpt lat="46.4080173" lon="12.8748978"><ele>392.4</ele><time>2026-04-12T10:36:28.977Z</time></trkpt><trkpt lat="46.4080977" lon="12.8749668"><ele>392.6</ele><time>2026-04-12T10:36:29.977Z</time></trkpt><trkpt lat="46.4081761" lon="12.8750331"><ele>392.79999999999995</ele><time>2026-04-12T10:36:30.978Z</time></trkpt><trkpt lat="46.4082552" lon="12.8750922"><ele>393.0</ele><time>2026-04-12T10:36:31.977Z</time></trkpt><trkpt lat="46.408331" lon="12.8751548"><ele>392.5</ele><time>2026-04-12T10:36:32.977Z</time></trkpt><trkpt lat="46.408403" lon="12.8752092"><ele>392.0</ele><time>2026-04-12T10:36:33.977Z</time></trkpt><trkpt lat="46.408472" lon="12.8752583"><ele>391.5</ele><time>2026-04-12T10:36:34.978Z</time></trkpt><trkpt lat="46.4085332" lon="12.8753103"><ele>391.0</ele><time>2026-04-12T10:36:35.977Z</time></trkpt><trkpt lat="46.4085914" lon="12.8753696"><ele>390.5</ele><time>2026-04-12T10:36:36.977Z</time></trkpt><trkpt lat="46.408647" lon="12.8754628"><ele>390.0</ele><time>2026-04-12T10:36:37.978Z</time></trkpt><trkpt lat="46.4086972" lon="12.8755681"><ele>390.0</ele><time>2026-04-12T10:36:38.977Z</time></trkpt><trkpt lat="46.4087393" lon="12.8756736"><ele>390.0</ele><time>2026-04-12T10:36:39.977Z</time></trkpt><trkpt lat="46.4087803" lon="12.8757779"><ele>390.0</ele><time>2026-04-12T10:36:40.977Z</time></trkpt><trkpt lat="46.4088174" lon="12.8758842"><ele>390.0</ele><time>2026-04-12T10:36:41.977Z</time></trkpt><trkpt lat="46.4088577" lon="12.8759849"><ele>390.0</ele><time>2026-04-12T10:36:42.977Z</time></trkpt><trkpt lat="46.4088939" lon="12.8760842"><ele>390.0</ele><time>2026-04-12T10:36:43.977Z</time></trkpt><trkpt lat="46.4089172" lon="12.8761859"><ele>390.1666666666667</ele><time>2026-04-12T10:36:44.977Z</time></trkpt><trkpt lat="46.408945" lon="12.8762963"><ele>390.33333333333337</ele><time>2026-04-12T10:36:45.978Z</time></trkpt><trkpt lat="46.40897" lon="12.8764255"><ele>390.5</ele><time>2026-04-12T10:36:46.977Z</time></trkpt><trkpt lat="46.408985" lon="12.8765527"><ele>390.6666666666667</ele><time>2026-04-12T10:36:47.977Z</time></trkpt><trkpt lat="46.4089978" lon="12.8766832"><ele>390.83333333333337</ele><time>2026-04-12T10:36:48.978Z</time></trkpt><trkpt lat="46.4090137" lon="12.8768124"><ele>391.0</ele><time>2026-04-12T10:36:49.977Z</time></trkpt><trkpt lat="46.4090263" lon="12.8769434"><ele>391.1666666666667</ele><time>2026-04-12T10:36:50.978Z</time></trkpt><trkpt lat="46.4090339" lon="12.8770648"><ele>391.33333333333337</ele><time>2026-04-12T10:36:51.977Z</time></trkpt><trkpt lat="46.4090489" lon="12.8771793"><ele>391.5</ele><time>2026-04-12T10:36:52.978Z</time></trkpt><trkpt lat="46.4090607" lon="12.8772926"><ele>391.66666666666663</ele><time>2026-04-12T10:36:53.978Z</time></trkpt><trkpt lat="46.4090819" lon="12.8774036"><ele>391.8333333333333</ele><time>2026-04-12T10:36:54.977Z</time></trkpt><trkpt lat="46.4091035" lon="12.8775105"><ele>392.0</ele><time>2026-04-12T10:36:55.977Z</time></trkpt><trkpt lat="46.4091182" lon="12.8776031"><ele>392.40000000000003</ele><time>2026-04-12T10:36:56.977Z</time></trkpt><trkpt lat="46.4091361" lon="12.8777564"><ele>392.8</ele><time>2026-04-12T10:36:58.977Z</time></trkpt><trkpt lat="46.4090669" lon="12.877855"><ele>393.2</ele><time>2026-04-12T10:37:00.977Z</time></trkpt><trkpt lat="46.4089915" lon="12.8778746"><ele>393.6</ele><time>2026-04-12T10:37:01.977Z</time></trkpt><trkpt lat="46.4089055" lon="12.8778938"><ele>394.0</ele><time>2026-04-12T10:37:02.977Z</time></trkpt><trkpt lat="46.4088197" lon="12.877921"><ele>393.0</ele><time>2026-04-12T10:37:03.977Z</time></trkpt><trkpt lat="46.4087348" lon="12.87795"><ele>392.0</ele><time>2026-04-12T10:37:04.977Z</time></trkpt><trkpt lat="46.4086435" lon="12.8779791"><ele>391.0</ele><time>2026-04-12T10:37:05.977Z</time></trkpt><trkpt lat="46.4085466" lon="12.878012"><ele>390.0</ele><time>2026-04-12T10:37:06.978Z</time></trkpt><trkpt lat="46.4084563" lon="12.8780452"><ele>389.0</ele><time>2026-04-12T10:37:07.977Z</time></trkpt><trkpt lat="46.4083608" lon="12.8780773"><ele>389.0</ele><time>2026-04-12T10:37:08.978Z</time></trkpt><trkpt lat="46.4082595" lon="12.8781023"><ele>389.0</ele><time>2026-04-12T10:37:09.977Z</time></trkpt><trkpt lat="46.4081514" lon="12.8781139"><ele>389.0</ele><time>2026-04-12T10:37:10.977Z</time></trkpt><trkpt lat="46.4080377" lon="12.8781301"><ele>389.0</ele><time>2026-04-12T10:37:11.977Z</time></trkpt><trkpt lat="46.4079191" lon="12.8781433"><ele>389.0</ele><time>2026-04-12T10:37:12.977Z</time></trkpt><trkpt lat="46.4078018" lon="12.878158"><ele>387.75</ele><time>2026-04-12T10:37:13.977Z</time></trkpt><trkpt lat="46.407686" lon="12.8781696"><ele>386.5</ele><time>2026-04-12T10:37:14.977Z</time></trkpt><trkpt lat="46.4075709" lon="12.87818"><ele>385.25</ele><time>2026-04-12T10:37:15.977Z</time></trkpt><trkpt lat="46.4074556" lon="12.8781919"><ele>384.0</ele><time>2026-04-12T10:37:16.978Z</time></trkpt><trkpt lat="46.4073404" lon="12.8782027"><ele>384.0</ele><time>2026-04-12T10:37:17.977Z</time></trkpt><trkpt lat="46.4072258" lon="12.8782183"><ele>384.0</ele><time>2026-04-12T10:37:18.977Z</time></trkpt><trkpt lat="46.4071089" lon="12.8782348"><ele>384.0</ele><time>2026-04-12T10:37:19.977Z</time></trkpt><trkpt lat="46.4069886" lon="12.8782499"><ele>384.0</ele><time>2026-04-12T10:37:20.977Z</time></trkpt><trkpt lat="46.4068609" lon="12.8782636"><ele>383.75</ele><time>2026-04-12T10:37:21.977Z</time></trkpt><trkpt lat="46.4067409" lon="12.8782755"><ele>383.5</ele><time>2026-04-12T10:37:22.977Z</time></trkpt><trkpt lat="46.4066216" lon="12.8782823"><ele>383.25</ele><time>2026-04-12T10:37:23.977Z</time></trkpt><trkpt lat="46.4065071" lon="12.8782806"><ele>383.0</ele><time>2026-04-12T10:37:24.977Z</time></trkpt><trkpt lat="46.4063987" lon="12.8782524"><ele>382.5</ele><time>2026-04-12T10:37:25.977Z</time></trkpt><trkpt lat="46.4062979" lon="12.878188"><ele>382.0</ele><time>2026-04-12T10:37:26.978Z</time></trkpt><trkpt lat="46.4062008" lon="12.8780946"><ele>381.5</ele><time>2026-04-12T10:37:27.977Z</time></trkpt><trkpt lat="46.4061172" lon="12.8779825"><ele>381.0</ele><time>2026-04-12T10:37:28.977Z</time></trkpt><trkpt lat="46.4060392" lon="12.877856"><ele>381.0</ele><time>2026-04-12T10:37:29.977Z</time></trkpt><trkpt lat="46.4059639" lon="12.8777242"><ele>381.0</ele><time>2026-04-12T10:37:30.977Z</time></trkpt><trkpt lat="46.405886" lon="12.8775962"><ele>381.0</ele><time>2026-04-12T10:37:31.977Z</time></trkpt><trkpt lat="46.4058045" lon="12.87747"><ele>381.0</ele><time>2026-04-12T10:37:32.978Z</time></trkpt><trkpt lat="46.405714" lon="12.877355"><ele>381.0</ele><time>2026-04-12T10:37:33.977Z</time></trkpt><trkpt lat="46.4056194" lon="12.8772479"><ele>381.0</ele><time>2026-04-12T10:37:34.977Z</time></trkpt><trkpt lat="46.4055226" lon="12.8771512"><ele>381.0</ele><time>2026-04-12T10:37:35.977Z</time></trkpt><trkpt lat="46.4054201" lon="12.8770659"><ele>381.0</ele><time>2026-04-12T10:37:36.977Z</time></trkpt><trkpt lat="46.4053163" lon="12.8769898"><ele>381.0</ele><time>2026-04-12T10:37:37.978Z</time></trkpt><trkpt lat="46.4052133" lon="12.8769126"><ele>381.0</ele><time>2026-04-12T10:37:38.977Z</time></trkpt><trkpt lat="46.4051129" lon="12.8768331"><ele>381.0</ele><time>2026-04-12T10:37:39.977Z</time></trkpt><trkpt lat="46.4050117" lon="12.876759"><ele>381.0</ele><time>2026-04-12T10:37:40.977Z</time></trkpt><trkpt lat="46.4049124" lon="12.8766865"><ele>381.20000000000005</ele><time>2026-04-12T10:37:41.977Z</time></trkpt><trkpt lat="46.404812" lon="12.876615"><ele>381.40000000000003</ele><time>2026-04-12T10:37:42.977Z</time></trkpt><trkpt lat="46.4047133" lon="12.87654"><ele>381.6</ele><time>2026-04-12T10:37:43.977Z</time></trkpt><trkpt lat="46.4046155" lon="12.8764624"><ele>381.8</ele><time>2026-04-12T10:37:44.977Z</time></trkpt><trkpt lat="46.4045173" lon="12.8763905"><ele>382.0</ele><time>2026-04-12T10:37:45.977Z</time></trkpt><trkpt lat="46.4044185" lon="12.8763233"><ele>382.0</ele><time>2026-04-12T10:37:46.977Z</time></trkpt><trkpt lat="46.4043217" lon="12.8762517"><ele>382.0</ele><time>2026-04-12T10:37:47.977Z</time></trkpt><trkpt lat="46.4042287" lon="12.8761759"><ele>382.0</ele><time>2026-04-12T10:37:48.977Z</time></trkpt><trkpt lat="46.4041339" lon="12.8761017"><ele>382.0</ele><time>2026-04-12T10:37:49.977Z</time></trkpt><trkpt lat="46.4040404" lon="12.8760268"><ele>382.0</ele><time>2026-04-12T10:37:50.977Z</time></trkpt><trkpt lat="46.4039553" lon="12.8759603"><ele>382.0</ele><time>2026-04-12T10:37:51.977Z</time></trkpt><trkpt lat="46.4038789" lon="12.875904"><ele>382.0</ele><time>2026-04-12T10:37:52.978Z</time></trkpt><trkpt lat="46.4038147" lon="12.8758511"><ele>382.0</ele><time>2026-04-12T10:37:53.978Z</time></trkpt><trkpt lat="46.4037166" lon="12.8757666"><ele>382.0</ele><time>2026-04-12T10:37:55.977Z</time></trkpt><trkpt lat="46.403626" lon="12.8757651"><ele>382.0</ele><time>2026-04-12T10:37:57.977Z</time></trkpt><trkpt lat="46.4035523" lon="12.8758977"><ele>382.0</ele><time>2026-04-12T10:37:59.977Z</time></trkpt><trkpt lat="46.4035349" lon="12.8760247"><ele>382.0</ele><time>2026-04-12T10:38:00.978Z</time></trkpt><trkpt lat="46.4035308" lon="12.8761793"><ele>382.0</ele><time>2026-04-12T10:38:01.977Z</time></trkpt><trkpt lat="46.4035244" lon="12.8763629"><ele>382.0</ele><time>2026-04-12T10:38:02.977Z</time></trkpt><trkpt lat="46.4035128" lon="12.876568"><ele>382.0</ele><time>2026-04-12T10:38:03.977Z</time></trkpt><trkpt lat="46.4035052" lon="12.8767417"><ele>382.0</ele><time>2026-04-12T10:38:04.977Z</time></trkpt><trkpt lat="46.4035094" lon="12.8769297"><ele>382.0</ele><time>2026-04-12T10:38:05.977Z</time></trkpt><trkpt lat="46.4035143" lon="12.8770954"><ele>382.0</ele><time>2026-04-12T10:38:06.978Z</time></trkpt><trkpt lat="46.4035123" lon="12.8772367"><ele>382.16666666666663</ele><time>2026-04-12T10:38:07.978Z</time></trkpt><trkpt lat="46.4035097" lon="12.8773726"><ele>382.3333333333333</ele><time>2026-04-12T10:38:08.977Z</time></trkpt><trkpt lat="46.4035156" lon="12.8774915"><ele>382.5</ele><time>2026-04-12T10:38:09.977Z</time></trkpt><trkpt lat="46.4035162" lon="12.8775866"><ele>382.6666666666667</ele><time>2026-04-12T10:38:10.978Z</time></trkpt><trkpt lat="46.4034865" lon="12.8777056"><ele>382.83333333333337</ele><time>2026-04-12T10:38:12.977Z</time></trkpt><trkpt lat="46.4033874" lon="12.8777597"><ele>383.0</ele><time>2026-04-12T10:38:14.977Z</time></trkpt><trkpt lat="46.4033036" lon="12.8777689"><ele>382.2</ele><time>2026-04-12T10:38:15.977Z</time></trkpt><trkpt lat="46.4032018" lon="12.8777716"><ele>381.4</ele><time>2026-04-12T10:38:16.977Z</time></trkpt><trkpt lat="46.4030942" lon="12.8777729"><ele>380.59999999999997</ele><time>2026-04-12T10:38:17.978Z</time></trkpt><trkpt lat="46.4029863" lon="12.8777713"><ele>379.79999999999995</ele><time>2026-04-12T10:38:18.977Z</time></trkpt><trkpt lat="46.4028691" lon="12.8777629"><ele>379.0</ele><time>2026-04-12T10:38:19.977Z</time></trkpt><trkpt lat="46.402736" lon="12.8777513"><ele>378.0</ele><time>2026-04-12T10:38:20.978Z</time></trkpt><trkpt lat="46.4026208" lon="12.8777494"><ele>377.0</ele><time>2026-04-12T10:38:21.977Z</time></trkpt><trkpt lat="46.402506" lon="12.8777558"><ele>376.0</ele><time>2026-04-12T10:38:22.977Z</time></trkpt><trkpt lat="46.4023738" lon="12.8777723"><ele>375.0</ele><time>2026-04-12T10:38:23.978Z</time></trkpt><trkpt lat="46.4022317" lon="12.8777827"><ele>375.5</ele><time>2026-04-12T10:38:24.977Z</time></trkpt><trkpt lat="46.4021049" lon="12.8777938"><ele>376.0</ele><time>2026-04-12T10:38:25.977Z</time></trkpt><trkpt lat="46.4019801" lon="12.8777963"><ele>376.5</ele><time>2026-04-12T10:38:26.977Z</time></trkpt><trkpt lat="46.4018573" lon="12.87778"><ele>377.0</ele><time>2026-04-12T10:38:27.977Z</time></trkpt><trkpt lat="46.4017271" lon="12.8777681"><ele>377.0</ele><time>2026-04-12T10:38:28.977Z</time></trkpt><trkpt lat="46.4016112" lon="12.8777615"><ele>377.0</ele><time>2026-04-12T10:38:29.977Z</time></trkpt><trkpt lat="46.4014973" lon="12.8777533"><ele>377.0</ele><time>2026-04-12T10:38:30.977Z</time></trkpt><trkpt lat="46.4013935" lon="12.8777493"><ele>377.0</ele><time>2026-04-12T10:38:31.977Z</time></trkpt><trkpt lat="46.401295" lon="12.8777586"><ele>377.0</ele><time>2026-04-12T10:38:32.977Z</time></trkpt><trkpt lat="46.4011906" lon="12.8777763"><ele>378.0</ele><time>2026-04-12T10:38:33.977Z</time></trkpt><trkpt lat="46.401083" lon="12.8777907"><ele>379.0</ele><time>2026-04-12T10:38:34.977Z</time></trkpt><trkpt lat="46.4009803" lon="12.8778056"><ele>380.0</ele><time>2026-04-12T10:38:35.977Z</time></trkpt><trkpt lat="46.4008924" lon="12.8777986"><ele>381.0</ele><time>2026-04-12T10:38:36.978Z</time></trkpt><trkpt lat="46.4007939" lon="12.8777701"><ele>382.0</ele><time>2026-04-12T10:38:37.977Z</time></trkpt><trkpt lat="46.400698" lon="12.8777453"><ele>382.0</ele><time>2026-04-12T10:38:38.977Z</time></trkpt><trkpt lat="46.4006087" lon="12.8777359"><ele>382.0</ele><time>2026-04-12T10:38:39.978Z</time></trkpt><trkpt lat="46.4005454" lon="12.8777239"><ele>382.0</ele><time>2026-04-12T10:38:40.978Z</time></trkpt><trkpt lat="46.4004533" lon="12.8776496"><ele>382.0</ele><time>2026-04-12T10:38:42.977Z</time></trkpt><trkpt lat="46.4004204" lon="12.8775712"><ele>382.0</ele><time>2026-04-12T10:38:43.978Z</time></trkpt><trkpt lat="46.4003919" lon="12.877458"><ele>382.0</ele><time>2026-04-12T10:38:44.978Z</time></trkpt><trkpt lat="46.4003659" lon="12.8773578"><ele>382.6</ele><time>2026-04-12T10:38:45.977Z</time></trkpt><trkpt lat="46.4003234" lon="12.8772627"><ele>383.20000000000005</ele><time>2026-04-12T10:38:46.977Z</time></trkpt><trkpt lat="46.4002632" lon="12.8771774"><ele>383.8</ele><time>2026-04-12T10:38:47.977Z</time></trkpt><trkpt lat="46.4001786" lon="12.8770912"><ele>384.4</ele><time>2026-04-12T10:38:48.977Z</time></trkpt><trkpt lat="46.4000912" lon="12.8770178"><ele>385.0</ele><time>2026-04-12T10:38:49.978Z</time></trkpt><trkpt lat="46.4000038" lon="12.8769563"><ele>385.0</ele><time>2026-04-12T10:38:50.977Z</time></trkpt><trkpt lat="46.3999064" lon="12.8769074"><ele>385.0</ele><time>2026-04-12T10:38:51.978Z</time></trkpt><trkpt lat="46.3998089" lon="12.8768609"><ele>385.0</ele><time>2026-04-12T10:38:52.978Z</time></trkpt><trkpt lat="46.3997271" lon="12.8768184"><ele>385.0</ele><time>2026-04-12T10:38:53.977Z</time></trkpt><trkpt lat="46.3996514" lon="12.8767799"><ele>385.0</ele><time>2026-04-12T10:38:54.977Z</time></trkpt><trkpt lat="46.3995818" lon="12.8767256"><ele>384.83333333333337</ele><time>2026-04-12T10:38:55.977Z</time></trkpt><trkpt lat="46.3995332" lon="12.8766575"><ele>384.6666666666667</ele><time>2026-04-12T10:38:56.977Z</time></trkpt><trkpt lat="46.3994728" lon="12.8766202"><ele>384.5</ele><time>2026-04-12T10:38:57.976Z</time></trkpt><trkpt lat="46.3994054" lon="12.8765918"><ele>384.33333333333337</ele><time>2026-04-12T10:38:58.976Z</time></trkpt><trkpt lat="46.3993128" lon="12.8765897"><ele>384.1666666666667</ele><time>2026-04-12T10:38:59.976Z</time></trkpt><trkpt lat="46.3992188" lon="12.8765795"><ele>384.0</ele><time>2026-04-12T10:39:00.976Z</time></trkpt><trkpt lat="46.3990791" lon="12.8765994"><ele>384.0</ele><time>2026-04-12T10:39:01.977Z</time></trkpt><trkpt lat="46.3989652" lon="12.876596"><ele>384.0</ele><time>2026-04-12T10:39:02.977Z</time></trkpt><trkpt lat="46.3988305" lon="12.876597"><ele>384.0</ele><time>2026-04-12T10:39:03.976Z</time></trkpt><trkpt lat="46.3987179" lon="12.8765923"><ele>384.0</ele><time>2026-04-12T10:39:04.976Z</time></trkpt><trkpt lat="46.398617" lon="12.8765764"><ele>385.0</ele><time>2026-04-12T10:39:05.976Z</time></trkpt><trkpt lat="46.3985159" lon="12.8765446"><ele>386.0</ele><time>2026-04-12T10:39:06.976Z</time></trkpt><trkpt lat="46.3984286" lon="12.8765003"><ele>387.0</ele><time>2026-04-12T10:39:07.976Z</time></trkpt><trkpt lat="46.3983701" lon="12.8764583"><ele>388.0</ele><time>2026-04-12T10:39:08.976Z</time></trkpt><trkpt lat="46.3982927" lon="12.8763177"><ele>389.0</ele><time>2026-04-12T10:39:10.976Z</time></trkpt><trkpt lat="46.3982695" lon="12.8761798"><ele>389.0</ele><time>2026-04-12T10:39:11.976Z</time></trkpt><trkpt lat="46.3982529" lon="12.8760128"><ele>389.0</ele><time>2026-04-12T10:39:12.977Z</time></trkpt><trkpt lat="46.3982394" lon="12.8758483"><ele>389.0</ele><time>2026-04-12T10:39:13.976Z</time></trkpt><trkpt lat="46.3982255" lon="12.8756653"><ele>389.0</ele><time>2026-04-12T10:39:14.976Z</time></trkpt><trkpt lat="46.398219" lon="12.8755"><ele>389.75</ele><time>2026-04-12T10:39:15.976Z</time></trkpt><trkpt lat="46.3982125" lon="12.8753441"><ele>390.5</ele><time>2026-04-12T10:39:16.977Z</time></trkpt><trkpt lat="46.3981798" lon="12.8751865"><ele>391.25</ele><time>2026-04-12T10:39:17.976Z</time></trkpt><trkpt lat="46.3981218" lon="12.8750395"><ele>392.0</ele><time>2026-04-12T10:39:18.976Z</time></trkpt><trkpt lat="46.3980616" lon="12.874894"><ele>392.5</ele><time>2026-04-12T10:39:19.976Z</time></trkpt><trkpt lat="46.3980049" lon="12.8747357"><ele>393.0</ele><time>2026-04-12T10:39:20.976Z</time></trkpt><trkpt lat="46.3979477" lon="12.8745582"><ele>393.5</ele><time>2026-04-12T10:39:21.977Z</time></trkpt><trkpt lat="46.3978945" lon="12.8744049"><ele>394.0</ele><time>2026-04-12T10:39:22.976Z</time></trkpt><trkpt lat="46.3978439" lon="12.8742657"><ele>398.5</ele><time>2026-04-12T10:39:23.976Z</time></trkpt><trkpt lat="46.3978149" lon="12.8741104"><ele>403.0</ele><time>2026-04-12T10:39:24.976Z</time></trkpt><trkpt lat="46.3978056" lon="12.8739326"><ele>407.5</ele><time>2026-04-12T10:39:25.977Z</time></trkpt><trkpt lat="46.3977879" lon="12.8737639"><ele>412.0</ele><time>2026-04-12T10:39:26.976Z</time></trkpt><trkpt lat="46.3977538" lon="12.8735724"><ele>411.25</ele><time>2026-04-12T10:39:27.976Z</time></trkpt><trkpt lat="46.3977014" lon="12.8733695"><ele>410.5</ele><time>2026-04-12T10:39:28.976Z</time></trkpt><trkpt lat="46.3976337" lon="12.8731823"><ele>409.75</ele><time>2026-04-12T10:39:29.976Z</time></trkpt><trkpt lat="46.3975557" lon="12.8729982"><ele>409.0</ele><time>2026-04-12T10:39:30.976Z</time></trkpt><trkpt lat="46.3974978" lon="12.872823"><ele>409.0</ele><time>2026-04-12T10:39:31.976Z</time></trkpt><trkpt lat="46.3974495" lon="12.8726248"><ele>409.0</ele><time>2026-04-12T10:39:32.976Z</time></trkpt><trkpt lat="46.3974078" lon="12.8724355"><ele>409.0</ele><time>2026-04-12T10:39:33.977Z</time></trkpt><trkpt lat="46.3973629" lon="12.8722613"><ele>409.0</ele><time>2026-04-12T10:39:34.976Z</time></trkpt><trkpt lat="46.3973162" lon="12.8721031"><ele>410.25</ele><time>2026-04-12T10:39:35.976Z</time></trkpt><trkpt lat="46.3972612" lon="12.8719451"><ele>411.5</ele><time>2026-04-12T10:39:36.976Z</time></trkpt><trkpt lat="46.3971968" lon="12.8717969"><ele>412.75</ele><time>2026-04-12T10:39:37.977Z</time></trkpt><trkpt lat="46.3971322" lon="12.8716494"><ele>414.0</ele><time>2026-04-12T10:39:38.976Z</time></trkpt><trkpt lat="46.3970846" lon="12.8715006"><ele>417.2</ele><time>2026-04-12T10:39:39.976Z</time></trkpt><trkpt lat="46.3970472" lon="12.8713531"><ele>420.4</ele><time>2026-04-12T10:39:40.977Z</time></trkpt><trkpt lat="46.397001" lon="12.8712132"><ele>423.6</ele><time>2026-04-12T10:39:41.976Z</time></trkpt><trkpt lat="46.3969748" lon="12.8710721"><ele>426.8</ele><time>2026-04-12T10:39:42.976Z</time></trkpt><trkpt lat="46.3969762" lon="12.8709245"><ele>430.0</ele><time>2026-04-12T10:39:43.977Z</time></trkpt><trkpt lat="46.3970041" lon="12.8707544"><ele>430.4</ele><time>2026-04-12T10:39:44.976Z</time></trkpt><trkpt lat="46.3970392" lon="12.8705939"><ele>430.8</ele><time>2026-04-12T10:39:45.976Z</time></trkpt><trkpt lat="46.3970668" lon="12.8704542"><ele>431.20000000000005</ele><time>2026-04-12T10:39:46.977Z</time></trkpt><trkpt lat="46.3970834" lon="12.8703159"><ele>431.6</ele><time>2026-04-12T10:39:47.976Z</time></trkpt><trkpt lat="46.3970734" lon="12.8701836"><ele>432.0</ele><time>2026-04-12T10:39:48.976Z</time></trkpt><trkpt lat="46.3970392" lon="12.8700705"><ele>432.20000000000005</ele><time>2026-04-12T10:39:49.976Z</time></trkpt><trkpt lat="46.3969815" lon="12.8699777"><ele>432.40000000000003</ele><time>2026-04-12T10:39:50.977Z</time></trkpt><trkpt lat="46.3968946" lon="12.869909"><ele>432.59999999999997</ele><time>2026-04-12T10:39:51.976Z</time></trkpt><trkpt lat="46.3968" lon="12.8698583"><ele>432.79999999999995</ele><time>2026-04-12T10:39:52.976Z</time></trkpt><trkpt lat="46.3967047" lon="12.8698481"><ele>433.0</ele><time>2026-04-12T10:39:53.976Z</time></trkpt><trkpt lat="46.3966061" lon="12.8698727"><ele>433.0</ele><time>2026-04-12T10:39:54.976Z</time></trkpt><trkpt lat="46.3965173" lon="12.8699148"><ele>432.99999999999994</ele><time>2026-04-12T10:39:55.977Z</time></trkpt><trkpt lat="46.3964233" lon="12.869948"><ele>432.99999999999994</ele><time>2026-04-12T10:39:56.976Z</time></trkpt><trkpt lat="46.3963279" lon="12.8699687"><ele>433.0</ele><time>2026-04-12T10:39:57.976Z</time></trkpt><trkpt lat="46.3962324" lon="12.8699704"><ele>433.0</ele><time>2026-04-12T10:39:58.976Z</time></trkpt><trkpt lat="46.3961438" lon="12.8699467"><ele>433.79999999999995</ele><time>2026-04-12T10:39:59.977Z</time></trkpt><trkpt lat="46.3960567" lon="12.8699034"><ele>434.59999999999997</ele><time>2026-04-12T10:40:00.976Z</time></trkpt><trkpt lat="46.3959734" lon="12.8698411"><ele>435.40000000000003</ele><time>2026-04-12T10:40:01.976Z</time></trkpt><trkpt lat="46.3958821" lon="12.8697595"><ele>436.20000000000005</ele><time>2026-04-12T10:40:02.977Z</time></trkpt><trkpt lat="46.3957971" lon="12.8696703"><ele>437.0</ele><time>2026-04-12T10:40:03.976Z</time></trkpt><trkpt lat="46.3957116" lon="12.8695779"><ele>437.0</ele><time>2026-04-12T10:40:04.976Z</time></trkpt><trkpt lat="46.3956216" lon="12.8694935"><ele>437.00000000000006</ele><time>2026-04-12T10:40:05.976Z</time></trkpt><trkpt lat="46.3955363" lon="12.8694006"><ele>437.00000000000006</ele><time>2026-04-12T10:40:06.977Z</time></trkpt><trkpt lat="46.3954496" lon="12.8693125"><ele>437.0</ele><time>2026-04-12T10:40:07.976Z</time></trkpt><trkpt lat="46.3953666" lon="12.8692388"><ele>437.0</ele><time>2026-04-12T10:40:08.976Z</time></trkpt><trkpt lat="46.3952977" lon="12.8691505"><ele>437.0</ele><time>2026-04-12T10:40:09.977Z</time></trkpt><trkpt lat="46.3952379" lon="12.8690525"><ele>437.00000000000006</ele><time>2026-04-12T10:40:10.976Z</time></trkpt><trkpt lat="46.3951812" lon="12.8689449"><ele>437.00000000000006</ele><time>2026-04-12T10:40:11.976Z</time></trkpt><trkpt lat="46.395125" lon="12.8688368"><ele>437.0</ele><time>2026-04-12T10:40:12.976Z</time></trkpt><trkpt lat="46.3950702" lon="12.868725"><ele>437.0</ele><time>2026-04-12T10:40:13.976Z</time></trkpt><trkpt lat="46.3950058" lon="12.8686218"><ele>437.0</ele><time>2026-04-12T10:40:14.976Z</time></trkpt><trkpt lat="46.3949243" lon="12.8685304"><ele>437.00000000000006</ele><time>2026-04-12T10:40:15.976Z</time></trkpt><trkpt lat="46.3948501" lon="12.8684628"><ele>437.00000000000006</ele><time>2026-04-12T10:40:16.976Z</time></trkpt><trkpt lat="46.394778" lon="12.8683997"><ele>437.0</ele><time>2026-04-12T10:40:17.976Z</time></trkpt><trkpt lat="46.3947021" lon="12.8682983"><ele>437.0</ele><time>2026-04-12T10:40:19.977Z</time></trkpt><trkpt lat="46.3947424" lon="12.8681888"><ele>437.3333333333333</ele><time>2026-04-12T10:40:21.976Z</time></trkpt><trkpt lat="46.3948126" lon="12.8681635"><ele>437.66666666666663</ele><time>2026-04-12T10:40:22.976Z</time></trkpt><trkpt lat="46.3949098" lon="12.8681394"><ele>438.0</ele><time>2026-04-12T10:40:23.976Z</time></trkpt><trkpt lat="46.3949902" lon="12.8681157"><ele>438.33333333333337</ele><time>2026-04-12T10:40:24.977Z</time></trkpt><trkpt lat="46.3950622" lon="12.8680899"><ele>438.6666666666667</ele><time>2026-04-12T10:40:25.977Z</time></trkpt><trkpt lat="46.3951202" lon="12.8680271"><ele>439.0</ele><time>2026-04-12T10:40:26.976Z</time></trkpt><trkpt lat="46.3951539" lon="12.8679364"><ele>439.0</ele><time>2026-04-12T10:40:27.976Z</time></trkpt><trkpt lat="46.3951632" lon="12.8678156"><ele>439.0</ele><time>2026-04-12T10:40:28.976Z</time></trkpt><trkpt lat="46.3951472" lon="12.8676651"><ele>439.0</ele><time>2026-04-12T10:40:29.976Z</time></trkpt><trkpt lat="46.3951156" lon="12.8674988"><ele>439.0</ele><time>2026-04-12T10:40:30.976Z</time></trkpt><trkpt lat="46.3950782" lon="12.8673267"><ele>439.0</ele><time>2026-04-12T10:40:31.976Z</time></trkpt><trkpt lat="46.3950412" lon="12.8671719"><ele>439.79999999999995</ele><time>2026-04-12T10:40:32.977Z</time></trkpt><trkpt lat="46.3950032" lon="12.8670178"><ele>440.59999999999997</ele><time>2026-04-12T10:40:33.976Z</time></trkpt><trkpt lat="46.3949685" lon="12.866869"><ele>441.4</ele><time>2026-04-12T10:40:34.976Z</time></trkpt><trkpt lat="46.3949363" lon="12.8667248"><ele>442.2</ele><time>2026-04-12T10:40:35.976Z</time></trkpt><trkpt lat="46.394909" lon="12.866596"><ele>443.0</ele><time>2026-04-12T10:40:36.976Z</time></trkpt><trkpt lat="46.3948855" lon="12.8664794"><ele>442.99999999999994</ele><time>2026-04-12T10:40:37.976Z</time></trkpt><trkpt lat="46.3948614" lon="12.8663808"><ele>443.0</ele><time>2026-04-12T10:40:38.976Z</time></trkpt><trkpt lat="46.3948237" lon="12.8662999"><ele>443.0</ele><time>2026-04-12T10:40:39.976Z</time></trkpt><trkpt lat="46.3947639" lon="12.866247"><ele>443.0</ele><time>2026-04-12T10:40:40.976Z</time></trkpt><trkpt lat="46.3946773" lon="12.8662063"><ele>442.99999999999994</ele><time>2026-04-12T10:40:41.977Z</time></trkpt><trkpt lat="46.3946045" lon="12.8661797"><ele>443.0</ele><time>2026-04-12T10:40:42.976Z</time></trkpt><trkpt lat="46.3945323" lon="12.8661516"><ele>443.3333333333333</ele><time>2026-04-12T10:40:43.977Z</time></trkpt><trkpt lat="46.3944667" lon="12.866121"><ele>443.66666666666663</ele><time>2026-04-12T10:40:44.976Z</time></trkpt><trkpt lat="46.3943835" lon="12.8660562"><ele>444.0</ele><time>2026-04-12T10:40:46.976Z</time></trkpt><trkpt lat="46.3943566" lon="12.8659393"><ele>444.33333333333337</ele><time>2026-04-12T10:40:48.976Z</time></trkpt><trkpt lat="46.3943195" lon="12.8658048"><ele>444.6666666666667</ele><time>2026-04-12T10:40:50.977Z</time></trkpt><trkpt lat="46.3942457" lon="12.8657483"><ele>445.0</ele><time>2026-04-12T10:40:51.977Z</time></trkpt><trkpt lat="46.3941757" lon="12.8657082"><ele>445.1666666666667</ele><time>2026-04-12T10:40:52.976Z</time></trkpt><trkpt lat="46.3940978" lon="12.8656297"><ele>445.33333333333337</ele><time>2026-04-12T10:40:54.977Z</time></trkpt><trkpt lat="46.3940933" lon="12.8655308"><ele>445.5</ele><time>2026-04-12T10:40:55.976Z</time></trkpt><trkpt lat="46.3941007" lon="12.8654201"><ele>445.66666666666663</ele><time>2026-04-12T10:40:56.976Z</time></trkpt><trkpt lat="46.394126" lon="12.8652921"><ele>445.8333333333333</ele><time>2026-04-12T10:40:57.976Z</time></trkpt><trkpt lat="46.3941625" lon="12.8651758"><ele>446.0</ele><time>2026-04-12T10:40:58.976Z</time></trkpt><trkpt lat="46.3942067" lon="12.865094"><ele>447.20000000000005</ele><time>2026-04-12T10:40:59.977Z</time></trkpt><trkpt lat="46.3942392" lon="12.8650025"><ele>448.40000000000003</ele><time>2026-04-12T10:41:00.976Z</time></trkpt><trkpt lat="46.3942542" lon="12.8648856"><ele>449.6</ele><time>2026-04-12T10:41:01.977Z</time></trkpt><trkpt lat="46.3942528" lon="12.86472"><ele>450.8</ele><time>2026-04-12T10:41:02.976Z</time></trkpt><trkpt lat="46.3942438" lon="12.8645658"><ele>452.0</ele><time>2026-04-12T10:41:03.976Z</time></trkpt><trkpt lat="46.3942345" lon="12.864441"><ele>452.0</ele><time>2026-04-12T10:41:04.977Z</time></trkpt><trkpt lat="46.3941999" lon="12.8643234"><ele>452.00000000000006</ele><time>2026-04-12T10:41:05.976Z</time></trkpt><trkpt lat="46.3941333" lon="12.8641959"><ele>452.00000000000006</ele><time>2026-04-12T10:41:06.976Z</time></trkpt><trkpt lat="46.3940656" lon="12.8640654"><ele>452.0</ele><time>2026-04-12T10:41:07.976Z</time></trkpt><trkpt lat="46.3940029" lon="12.863923"><ele>452.0</ele><time>2026-04-12T10:41:08.976Z</time></trkpt><trkpt lat="46.3939436" lon="12.8637751"><ele>453.0</ele><time>2026-04-12T10:41:09.976Z</time></trkpt><trkpt lat="46.3938885" lon="12.8636333"><ele>454.00000000000006</ele><time>2026-04-12T10:41:10.977Z</time></trkpt><trkpt lat="46.3938311" lon="12.8635068"><ele>455.00000000000006</ele><time>2026-04-12T10:41:11.976Z</time></trkpt><trkpt lat="46.3937647" lon="12.8633992"><ele>456.0</ele><time>2026-04-12T10:41:12.976Z</time></trkpt><trkpt lat="46.3936809" lon="12.8633171"><ele>457.0</ele><time>2026-04-12T10:41:13.977Z</time></trkpt><trkpt lat="46.3935782" lon="12.8632635"><ele>458.20000000000005</ele><time>2026-04-12T10:41:14.977Z</time></trkpt><trkpt lat="46.3934674" lon="12.8632505"><ele>459.40000000000003</ele><time>2026-04-12T10:41:15.976Z</time></trkpt><trkpt lat="46.3933501" lon="12.8632713"><ele>460.59999999999997</ele><time>2026-04-12T10:41:16.976Z</time></trkpt><trkpt lat="46.3932546" lon="12.8633056"><ele>461.79999999999995</ele><time>2026-04-12T10:41:17.976Z</time></trkpt><trkpt lat="46.3931625" lon="12.8633168"><ele>463.0</ele><time>2026-04-12T10:41:18.977Z</time></trkpt><trkpt lat="46.3930784" lon="12.8632913"><ele>463.0</ele><time>2026-04-12T10:41:19.976Z</time></trkpt><trkpt lat="46.3930099" lon="12.8632168"><ele>462.99999999999994</ele><time>2026-04-12T10:41:20.976Z</time></trkpt><trkpt lat="46.3929427" lon="12.8631066"><ele>462.99999999999994</ele><time>2026-04-12T10:41:21.977Z</time></trkpt><trkpt lat="46.3928667" lon="12.8630273"><ele>463.0</ele><time>2026-04-12T10:41:22.976Z</time></trkpt><trkpt lat="46.3927764" lon="12.8629784"><ele>463.0</ele><time>2026-04-12T10:41:23.976Z</time></trkpt><trkpt lat="46.3926843" lon="12.8629645"><ele>465.4</ele><time>2026-04-12T10:41:24.976Z</time></trkpt><trkpt lat="46.3925967" lon="12.8630062"><ele>467.79999999999995</ele><time>2026-04-12T10:41:25.976Z</time></trkpt><trkpt lat="46.3925015" lon="12.8630955"><ele>470.2</ele><time>2026-04-12T10:41:26.976Z</time></trkpt><trkpt lat="46.3924107" lon="12.8632136"><ele>472.6</ele><time>2026-04-12T10:41:27.977Z</time></trkpt><trkpt lat="46.3923377" lon="12.8633066"><ele>475.0</ele><time>2026-04-12T10:41:28.977Z</time></trkpt><trkpt lat="46.3922682" lon="12.8633875"><ele>475.0</ele><time>2026-04-12T10:41:29.976Z</time></trkpt><trkpt lat="46.3921957" lon="12.8634304"><ele>475.0</ele><time>2026-04-12T10:41:30.976Z</time></trkpt><trkpt lat="46.3921212" lon="12.8634277"><ele>475.0</ele><time>2026-04-12T10:41:31.976Z</time></trkpt><trkpt lat="46.3920307" lon="12.8633875"><ele>475.0</ele><time>2026-04-12T10:41:32.976Z</time></trkpt><trkpt lat="46.3919219" lon="12.8633414"><ele>475.0</ele><time>2026-04-12T10:41:33.977Z</time></trkpt><trkpt lat="46.3918018" lon="12.8632917"><ele>477.0</ele><time>2026-04-12T10:41:34.976Z</time></trkpt><trkpt lat="46.3916723" lon="12.8632347"><ele>479.0</ele><time>2026-04-12T10:41:35.976Z</time></trkpt><trkpt lat="46.3915619" lon="12.8631829"><ele>481.0</ele><time>2026-04-12T10:41:36.976Z</time></trkpt><trkpt lat="46.3914573" lon="12.8631304"><ele>483.0</ele><time>2026-04-12T10:41:37.976Z</time></trkpt><trkpt lat="46.3913645" lon="12.8630873"><ele>483.0</ele><time>2026-04-12T10:41:38.976Z</time></trkpt><trkpt lat="46.3912812" lon="12.8630494"><ele>481.0</ele><time>2026-04-12T10:41:39.976Z</time></trkpt><trkpt lat="46.3912125" lon="12.8630158"><ele>481.0</ele><time>2026-04-12T10:41:40.976Z</time></trkpt><trkpt lat="46.3911093" lon="12.862969"><ele>481.0</ele><time>2026-04-12T10:41:42.977Z</time></trkpt><trkpt lat="46.3910326" lon="12.8629974"><ele>481.0</ele><time>2026-04-12T10:41:45.976Z</time></trkpt><trkpt lat="46.391056" lon="12.8631039"><ele>481.0</ele><time>2026-04-12T10:41:49.976Z</time></trkpt></trkseg></trk></gpx>